<?xml version='1.0' encoding='UTF-8'?><gpx version="1.1" creator="JPX - https://github.com/jenetics/jpx" xmlns="http://www.topografix.com/GPX/1/1"><trk><trkseg><trkpt lat="43.380069353104595" lon="13.242019194529531"><ele>297.0</ele><time>2026-05-02T12:19:26Z</time></trkpt><trkpt lat="43.3800127170382" lon="13.241945942254551"><ele>297.0</ele><time>2026-05-02T12:19:27Z</time></trkpt><trkpt lat="43.37985006073527" lon="13.241763119665835"><ele>297.0</ele><time>2026-05-02T12:19:29Z</time></trkpt><trkpt lat="43.37979189443312" lon="13.241568794677395"><ele>297.0</ele><time>2026-05-02T12:19:30Z</time></trkpt><trkpt lat="43.379692553832214" lon="13.241426381804626"><ele>299.3333333333333</ele><time>2026-05-02T12:19:31Z</time></trkpt><trkpt lat="43.37958397700258" lon="13.241274912259213"><ele>301.66666666666663</ele><time>2026-05-02T12:19:32Z</time></trkpt><trkpt lat="43.37947058770789" lon="13.241095706973137"><ele>304.0</ele><time>2026-05-02T12:19:33Z</time></trkpt><trkpt lat="43.379363087463695" lon="13.240908517697326"><ele>304.0</ele><time>2026-05-02T12:19:34Z</time></trkpt><trkpt lat="43.379252316192584" lon="13.240719496914746"><ele>304.0</ele><time>2026-05-02T12:19:35Z</time></trkpt><trkpt lat="43.379149540330864" lon="13.240558758591172"><ele>304.0</ele><time>2026-05-02T12:19:36Z</time></trkpt><trkpt lat="43.37907990947573" lon="13.240403082931788"><ele>305.5</ele><time>2026-05-02T12:19:37Z</time></trkpt><trkpt lat="43.37903622172317" lon="13.24022464684704"><ele>307.0</ele><time>2026-05-02T12:19:38Z</time></trkpt><trkpt lat="43.37903154734681" lon="13.240039684437473"><ele>308.5</ele><time>2026-05-02T12:19:39Z</time></trkpt><trkpt lat="43.379035057115296" lon="13.23985276002221"><ele>310.0</ele><time>2026-05-02T12:19:40Z</time></trkpt><trkpt lat="43.3790018235451" lon="13.239661375314531"><ele>312.0</ele><time>2026-05-02T12:19:41Z</time></trkpt><trkpt lat="43.379022932236246" lon="13.239476035730405"><ele>314.0</ele><time>2026-05-02T12:19:42Z</time></trkpt><trkpt lat="43.379008850642684" lon="13.23926848834142"><ele>316.0</ele><time>2026-05-02T12:19:43Z</time></trkpt><trkpt lat="43.378974158350175" lon="13.239043723744931"><ele>317.0</ele><time>2026-05-02T12:19:44Z</time></trkpt><trkpt lat="43.378935604415744" lon="13.238794468249898"><ele>318.0</ele><time>2026-05-02T12:19:45Z</time></trkpt><trkpt lat="43.3788977008635" lon="13.23851392569836"><ele>319.0</ele><time>2026-05-02T12:19:46Z</time></trkpt><trkpt lat="43.378869087266246" lon="13.23821435803606"><ele>320.66666666666663</ele><time>2026-05-02T12:19:47Z</time></trkpt><trkpt lat="43.37887806069805" lon="13.237858816226083"><ele>322.3333333333333</ele><time>2026-05-02T12:19:48Z</time></trkpt><trkpt lat="43.37886301509529" lon="13.237649564861542"><ele>324.0</ele><time>2026-05-02T12:19:49Z</time></trkpt><trkpt lat="43.37888761302429" lon="13.237152577789718"><ele>328.0</ele><time>2026-05-02T12:19:50Z</time></trkpt><trkpt lat="43.37891728451025" lon="13.236776886151818"><ele>332.0</ele><time>2026-05-02T12:19:51Z</time></trkpt><trkpt lat="43.378934522850436" lon="13.236397473874788"><ele>334.5</ele><time>2026-05-02T12:19:52Z</time></trkpt><trkpt lat="43.37894162923556" lon="13.236069823879529"><ele>337.0</ele><time>2026-05-02T12:19:53Z</time></trkpt><trkpt lat="43.37895598165714" lon="13.235777752572288"><ele>339.0</ele><time>2026-05-02T12:19:54Z</time></trkpt><trkpt lat="43.37898065533825" lon="13.2355198419334"><ele>341.0</ele><time>2026-05-02T12:19:55Z</time></trkpt><trkpt lat="43.37902666433352" lon="13.235290252418745"><ele>343.0</ele><time>2026-05-02T12:19:56Z</time></trkpt><trkpt lat="43.37912472634426" lon="13.235057848992197"><ele>343.0</ele><time>2026-05-02T12:19:57Z</time></trkpt><trkpt lat="43.37925188590307" lon="13.234830384912511"><ele>343.0</ele><time>2026-05-02T12:19:58Z</time></trkpt><trkpt lat="43.37939012719211" lon="13.234590685876805"><ele>343.0</ele><time>2026-05-02T12:19:59Z</time></trkpt><trkpt lat="43.379531427373465" lon="13.234338607745572"><ele>344.3333333333333</ele><time>2026-05-02T12:20:00Z</time></trkpt><trkpt lat="43.37967124464454" lon="13.23410903116968"><ele>345.6666666666667</ele><time>2026-05-02T12:20:01Z</time></trkpt><trkpt lat="43.37978814687106" lon="13.233914439575877"><ele>347.0</ele><time>2026-05-02T12:20:02Z</time></trkpt><trkpt lat="43.37986198003372" lon="13.233722577252854"><ele>347.0</ele><time>2026-05-02T12:20:02.999Z</time></trkpt><trkpt lat="43.37988967174546" lon="13.233504375572108"><ele>347.0</ele><time>2026-05-02T12:20:03.999Z</time></trkpt><trkpt lat="43.379891519766076" lon="13.233299519590588"><ele>347.0</ele><time>2026-05-02T12:20:04.999Z</time></trkpt><trkpt lat="43.379839595337785" lon="13.233030170334292"><ele>349.0</ele><time>2026-05-02T12:20:05.999Z</time></trkpt><trkpt lat="43.37978042554486" lon="13.232751833367729"><ele>351.0</ele><time>2026-05-02T12:20:06.999Z</time></trkpt><trkpt lat="43.37974004551704" lon="13.232467424585362"><ele>353.0</ele><time>2026-05-02T12:20:07.999Z</time></trkpt><trkpt lat="43.37971150618528" lon="13.23218953699187"><ele>355.6666666666667</ele><time>2026-05-02T12:20:08.999Z</time></trkpt><trkpt lat="43.37972719878877" lon="13.231953834148843"><ele>358.3333333333333</ele><time>2026-05-02T12:20:09.999Z</time></trkpt><trkpt lat="43.37977758848568" lon="13.23173972150816"><ele>361.0</ele><time>2026-05-02T12:20:10.999Z</time></trkpt><trkpt lat="43.379872911454655" lon="13.231542240834631"><ele>364.66666666666663</ele><time>2026-05-02T12:20:11.999Z</time></trkpt><trkpt lat="43.38000484355982" lon="13.231384991354473"><ele>368.3333333333333</ele><time>2026-05-02T12:20:12.999Z</time></trkpt><trkpt lat="43.38016820464249" lon="13.23125746555038"><ele>372.0</ele><time>2026-05-02T12:20:13.999Z</time></trkpt><trkpt lat="43.38028544234595" lon="13.2311634555679"><ele>372.0</ele><time>2026-05-02T12:20:14.999Z</time></trkpt><trkpt lat="43.38035907346381" lon="13.23108184275536"><ele>372.0</ele><time>2026-05-02T12:20:15.999Z</time></trkpt><trkpt lat="43.38042188932799" lon="13.231009150225669"><ele>372.0</ele><time>2026-05-02T12:20:16.999Z</time></trkpt><trkpt lat="43.38047502898443" lon="13.230905561457517"><ele>372.0</ele><time>2026-05-02T12:20:17.999Z</time></trkpt><trkpt lat="43.380457151991976" lon="13.230792970800307"><ele>372.0</ele><time>2026-05-02T12:20:18.999Z</time></trkpt><trkpt lat="43.380483227917296" lon="13.230674978133024"><ele>372.0</ele><time>2026-05-02T12:20:19.999Z</time></trkpt><trkpt lat="43.38047108373781" lon="13.230563256724118"><ele>373.0</ele><time>2026-05-02T12:20:20.999Z</time></trkpt><trkpt lat="43.380414684174355" lon="13.230448166825706"><ele>374.0</ele><time>2026-05-02T12:20:21.999Z</time></trkpt><trkpt lat="43.38032125226727" lon="13.230297989411985"><ele>375.0</ele><time>2026-05-02T12:20:23.999Z</time></trkpt><trkpt lat="43.3802733077512" lon="13.230190198108854"><ele>376.0</ele><time>2026-05-02T12:20:24.999Z</time></trkpt><trkpt lat="43.38024793554861" lon="13.230058325624537"><ele>377.0</ele><time>2026-05-02T12:20:25.999Z</time></trkpt><trkpt lat="43.380215771093134" lon="13.229931368287431"><ele>379.25</ele><time>2026-05-02T12:20:26.999Z</time></trkpt><trkpt lat="43.38018525623262" lon="13.229756600925871"><ele>381.5</ele><time>2026-05-02T12:20:27.999Z</time></trkpt><trkpt lat="43.380192380967706" lon="13.229614434704718"><ele>383.75</ele><time>2026-05-02T12:20:28.999Z</time></trkpt><trkpt lat="43.38018734631261" lon="13.229389529356498"><ele>386.0</ele><time>2026-05-02T12:20:29.999Z</time></trkpt><trkpt lat="43.38020382215219" lon="13.229243529602703"><ele>386.0</ele><time>2026-05-02T12:20:30.999Z</time></trkpt><trkpt lat="43.380244956057034" lon="13.229130502999565"><ele>386.0</ele><time>2026-05-02T12:20:31.999Z</time></trkpt><trkpt lat="43.38031048049381" lon="13.228997346882771"><ele>386.0</ele><time>2026-05-02T12:20:32.999Z</time></trkpt><trkpt lat="43.38039483973314" lon="13.228862975244006"><ele>386.0</ele><time>2026-05-02T12:20:33.999Z</time></trkpt><trkpt lat="43.38047472761308" lon="13.228759257907148"><ele>386.0</ele><time>2026-05-02T12:20:34.999Z</time></trkpt><trkpt lat="43.38053734134992" lon="13.228664779751968"><ele>384.8</ele><time>2026-05-02T12:20:35.999Z</time></trkpt><trkpt lat="43.38059376138571" lon="13.228561221966364"><ele>383.6</ele><time>2026-05-02T12:20:36.999Z</time></trkpt><trkpt lat="43.380622591842375" lon="13.228435293673629"><ele>382.4</ele><time>2026-05-02T12:20:37.999Z</time></trkpt><trkpt lat="43.38059778688186" lon="13.228313094752936"><ele>381.2</ele><time>2026-05-02T12:20:38.999Z</time></trkpt><trkpt lat="43.380541653472214" lon="13.228182608758239"><ele>380.0</ele><time>2026-05-02T12:20:39.999Z</time></trkpt><trkpt lat="43.38043462820183" lon="13.228085150145496"><ele>383.25</ele><time>2026-05-02T12:20:40.999Z</time></trkpt><trkpt lat="43.380310623400035" lon="13.22803890730928"><ele>386.5</ele><time>2026-05-02T12:20:41.999Z</time></trkpt><trkpt lat="43.38016827157935" lon="13.22807388612643"><ele>389.75</ele><time>2026-05-02T12:20:42.999Z</time></trkpt><trkpt lat="43.38004067823501" lon="13.228170427056815"><ele>393.0</ele><time>2026-05-02T12:20:43.999Z</time></trkpt><trkpt lat="43.37990014842595" lon="13.228328890168054"><ele>393.0</ele><time>2026-05-02T12:20:44.999Z</time></trkpt><trkpt lat="43.379794173221114" lon="13.228519040756833"><ele>393.0</ele><time>2026-05-02T12:20:45.999Z</time></trkpt><trkpt lat="43.37970682568174" lon="13.228756532887868"><ele>393.0</ele><time>2026-05-02T12:20:46.999Z</time></trkpt><trkpt lat="43.379646937110245" lon="13.229011554175043"><ele>396.66666666666663</ele><time>2026-05-02T12:20:47.999Z</time></trkpt><trkpt lat="43.379584532617386" lon="13.229210255677074"><ele>400.3333333333333</ele><time>2026-05-02T12:20:48.999Z</time></trkpt><trkpt lat="43.37949686794435" lon="13.22934739414073"><ele>404.0</ele><time>2026-05-02T12:20:49.999Z</time></trkpt><trkpt lat="43.37934781205679" lon="13.22942764556587"><ele>404.0</ele><time>2026-05-02T12:20:50.999Z</time></trkpt><trkpt lat="43.37919882649405" lon="13.229469940419722"><ele>404.0</ele><time>2026-05-02T12:20:51.999Z</time></trkpt><trkpt lat="43.379023387817426" lon="13.229432191804552"><ele>404.0</ele><time>2026-05-02T12:20:52.999Z</time></trkpt><trkpt lat="43.37884088436579" lon="13.229351004446304"><ele>407.5</ele><time>2026-05-02T12:20:53.999Z</time></trkpt><trkpt lat="43.3786424909652" lon="13.229231035408064"><ele>411.0</ele><time>2026-05-02T12:20:54.999Z</time></trkpt><trkpt lat="43.37839732768714" lon="13.229129844825684"><ele>411.0</ele><time>2026-05-02T12:20:55.999Z</time></trkpt><trkpt lat="43.37813606525448" lon="13.229098508247853"><ele>411.0</ele><time>2026-05-02T12:20:56.999Z</time></trkpt><trkpt lat="43.378119270213226" lon="13.22923135089248"><ele>411.0</ele><time>2026-05-02T12:20:57.999Z</time></trkpt><trkpt lat="43.377924551196735" lon="13.22935122174756"><ele>412.0</ele><time>2026-05-02T12:20:58.999Z</time></trkpt><trkpt lat="43.377726310184165" lon="13.229533063673511"><ele>413.0</ele><time>2026-05-02T12:20:59.999Z</time></trkpt><trkpt lat="43.37759632565648" lon="13.229737979079763"><ele>414.0</ele><time>2026-05-02T12:21:00.999Z</time></trkpt><trkpt lat="43.37750190599744" lon="13.229923035692028"><ele>414.0</ele><time>2026-05-02T12:21:01.999Z</time></trkpt><trkpt lat="43.377396168847575" lon="13.230064322480228"><ele>414.0</ele><time>2026-05-02T12:21:02.999Z</time></trkpt><trkpt lat="43.37727710506069" lon="13.230023873411817"><ele>414.0</ele><time>2026-05-02T12:21:03.999Z</time></trkpt><trkpt lat="43.37717438028833" lon="13.229981956195369"><ele>414.0</ele><time>2026-05-02T12:21:04.999Z</time></trkpt><trkpt lat="43.37708218862825" lon="13.229880133563096"><ele>418.33333333333337</ele><time>2026-05-02T12:21:05.999Z</time></trkpt><trkpt lat="43.37703475561445" lon="13.229733095349767"><ele>422.6666666666667</ele><time>2026-05-02T12:21:06.999Z</time></trkpt><trkpt lat="43.376946420063724" lon="13.229510800901469"><ele>427.0</ele><time>2026-05-02T12:21:07.999Z</time></trkpt><trkpt lat="43.37685387601734" lon="13.229343518652032"><ele>427.0</ele><time>2026-05-02T12:21:08.999Z</time></trkpt><trkpt lat="43.37674427319633" lon="13.229249127908862"><ele>427.0</ele><time>2026-05-02T12:21:09.999Z</time></trkpt><trkpt lat="43.37661938200808" lon="13.229204369104446"><ele>427.0</ele><time>2026-05-02T12:21:10.999Z</time></trkpt><trkpt lat="43.37648355873516" lon="13.229230182571557"><ele>427.0</ele><time>2026-05-02T12:21:11.999Z</time></trkpt><trkpt lat="43.376300950429254" lon="13.229299269420613"><ele>429.0</ele><time>2026-05-02T12:21:12.999Z</time></trkpt><trkpt lat="43.376136709882964" lon="13.229319988605395"><ele>431.0</ele><time>2026-05-02T12:21:13.999Z</time></trkpt><trkpt lat="43.376011764348654" lon="13.229322747130235"><ele>433.0</ele><time>2026-05-02T12:21:14.999Z</time></trkpt><trkpt lat="43.37592434910708" lon="13.229334229587622"><ele>435.0</ele><time>2026-05-02T12:21:15.999Z</time></trkpt><trkpt lat="43.375834455374644" lon="13.229392440394115"><ele>435.0</ele><time>2026-05-02T12:21:16.999Z</time></trkpt><trkpt lat="43.37573437288773" lon="13.229486766878129"><ele>435.0</ele><time>2026-05-02T12:21:17.999Z</time></trkpt><trkpt lat="43.375596632053806" lon="13.229559834405325"><ele>435.0</ele><time>2026-05-02T12:21:18.999Z</time></trkpt><trkpt lat="43.375413621831505" lon="13.22963351646574"><ele>435.33333333333337</ele><time>2026-05-02T12:21:19.999Z</time></trkpt><trkpt lat="43.37521414594531" lon="13.229727994759152"><ele>435.6666666666667</ele><time>2026-05-02T12:21:20.999Z</time></trkpt><trkpt lat="43.37505592090125" lon="13.229879442656733"><ele>436.0</ele><time>2026-05-02T12:21:21.999Z</time></trkpt><trkpt lat="43.37491551592422" lon="13.23007375775302"><ele>431.0</ele><time>2026-05-02T12:21:22.999Z</time></trkpt><trkpt lat="43.37475658748369" lon="13.230307018308377"><ele>426.0</ele><time>2026-05-02T12:21:23.999Z</time></trkpt><trkpt lat="43.37456264359602" lon="13.230490526371069"><ele>423.0</ele><time>2026-05-02T12:21:24.999Z</time></trkpt><trkpt lat="43.37442746683744" lon="13.230644859654946"><ele>420.0</ele><time>2026-05-02T12:21:25.999Z</time></trkpt><trkpt lat="43.37433711084997" lon="13.230793999940067"><ele>417.0</ele><time>2026-05-02T12:21:26.999Z</time></trkpt><trkpt lat="43.37419985268699" lon="13.230851648826725"><ele>417.0</ele><time>2026-05-02T12:21:27.999Z</time></trkpt><trkpt lat="43.37406848755768" lon="13.23085464521027"><ele>417.0</ele><time>2026-05-02T12:21:28.999Z</time></trkpt><trkpt lat="43.37392516304008" lon="13.23079955432502"><ele>417.0</ele><time>2026-05-02T12:21:29.999Z</time></trkpt><trkpt lat="43.373762870258304" lon="13.23066784757907"><ele>417.0</ele><time>2026-05-02T12:21:30.999Z</time></trkpt><trkpt lat="43.373585190421764" lon="13.230523122755908"><ele>417.0</ele><time>2026-05-02T12:21:31.999Z</time></trkpt><trkpt lat="43.37337689360269" lon="13.2303807993742"><ele>417.0</ele><time>2026-05-02T12:21:32.999Z</time></trkpt><trkpt lat="43.3731584126686" lon="13.230238273177868"><ele>413.0</ele><time>2026-05-02T12:21:33.999Z</time></trkpt><trkpt lat="43.37293275248556" lon="13.23011727167908"><ele>409.0</ele><time>2026-05-02T12:21:34.999Z</time></trkpt><trkpt lat="43.37276320685834" lon="13.229915766270082"><ele>411.0</ele><time>2026-05-02T12:21:35.999Z</time></trkpt><trkpt lat="43.37262839137147" lon="13.22966182844083"><ele>413.0</ele><time>2026-05-02T12:21:36.999Z</time></trkpt><trkpt lat="43.37247770174775" lon="13.22934193211318"><ele>413.0</ele><time>2026-05-02T12:21:37.999Z</time></trkpt><trkpt lat="43.37234252651244" lon="13.229020153557395"><ele>413.0</ele><time>2026-05-02T12:21:38.999Z</time></trkpt><trkpt lat="43.3721917974208" lon="13.228740829808475"><ele>413.66666666666663</ele><time>2026-05-02T12:21:39.999Z</time></trkpt><trkpt lat="43.37211637606845" lon="13.228533616340442"><ele>414.33333333333337</ele><time>2026-05-02T12:21:40.999Z</time></trkpt><trkpt lat="43.37206369019783" lon="13.228322632853828"><ele>415.0</ele><time>2026-05-02T12:21:41.999Z</time></trkpt><trkpt lat="43.372007254362515" lon="13.228098734055866"><ele>415.6666666666667</ele><time>2026-05-02T12:21:42.999Z</time></trkpt><trkpt lat="43.37195206987288" lon="13.227885523376615"><ele>416.33333333333337</ele><time>2026-05-02T12:21:43.999Z</time></trkpt><trkpt lat="43.371869005719894" lon="13.227728494553078"><ele>417.0</ele><time>2026-05-02T12:21:44.999Z</time></trkpt><trkpt lat="43.37175912592754" lon="13.227577083266022"><ele>417.0</ele><time>2026-05-02T12:21:45.999Z</time></trkpt><trkpt lat="43.37161174639629" lon="13.227418045629964"><ele>417.0</ele><time>2026-05-02T12:21:46.999Z</time></trkpt><trkpt lat="43.371424437876485" lon="13.227232190881777"><ele>417.0</ele><time>2026-05-02T12:21:47.999Z</time></trkpt><trkpt lat="43.37122914314026" lon="13.227058109655346"><ele>414.66666666666663</ele><time>2026-05-02T12:21:48.999Z</time></trkpt><trkpt lat="43.37108091194823" lon="13.226830169155457"><ele>412.3333333333333</ele><time>2026-05-02T12:21:49.999Z</time></trkpt><trkpt lat="43.370939895509764" lon="13.226654378503365"><ele>410.0</ele><time>2026-05-02T12:21:50.999Z</time></trkpt><trkpt lat="43.370775055769386" lon="13.226532478745812"><ele>411.0</ele><time>2026-05-02T12:21:51.999Z</time></trkpt><trkpt lat="43.3705913155954" lon="13.226400751579407"><ele>412.0</ele><time>2026-05-02T12:21:52.999Z</time></trkpt><trkpt lat="43.370424269257924" lon="13.226303948998105"><ele>413.0</ele><time>2026-05-02T12:21:53.999Z</time></trkpt><trkpt lat="43.370260029800704" lon="13.226153181967128"><ele>413.0</ele><time>2026-05-02T12:21:54.999Z</time></trkpt><trkpt lat="43.37007189489932" lon="13.225954000382682"><ele>413.0</ele><time>2026-05-02T12:21:55.999Z</time></trkpt><trkpt lat="43.36987139710067" lon="13.225731750299468"><ele>417.5</ele><time>2026-05-02T12:21:56.999Z</time></trkpt><trkpt lat="43.36969364227119" lon="13.22549447895943"><ele>422.0</ele><time>2026-05-02T12:21:57.999Z</time></trkpt><trkpt lat="43.36950263621632" lon="13.22526264917695"><ele>422.0</ele><time>2026-05-02T12:21:58.999Z</time></trkpt><trkpt lat="43.36931071199584" lon="13.225014806143522"><ele>422.0</ele><time>2026-05-02T12:21:59.999Z</time></trkpt><trkpt lat="43.36910828681902" lon="13.224783740049533"><ele>425.5</ele><time>2026-05-02T12:22:00.999Z</time></trkpt><trkpt lat="43.36890243661918" lon="13.224550992588984"><ele>429.0</ele><time>2026-05-02T12:22:01.999Z</time></trkpt><trkpt lat="43.368706505564916" lon="13.224313752946781"><ele>429.0</ele><time>2026-05-02T12:22:02.999Z</time></trkpt><trkpt lat="43.36850979707818" lon="13.224092889711097"><ele>429.0</ele><time>2026-05-02T12:22:03.999Z</time></trkpt><trkpt lat="43.36834235400292" lon="13.22389229271309"><ele>430.66666666666663</ele><time>2026-05-02T12:22:04.999Z</time></trkpt><trkpt lat="43.368239116938284" lon="13.223715824206753"><ele>432.3333333333333</ele><time>2026-05-02T12:22:05.999Z</time></trkpt><trkpt lat="43.36817654153506" lon="13.223570758182703"><ele>434.0</ele><time>2026-05-02T12:22:06.999Z</time></trkpt><trkpt lat="43.368101709916616" lon="13.223371096001456"><ele>434.0</ele><time>2026-05-02T12:22:07.999Z</time></trkpt><trkpt lat="43.36804040650061" lon="13.223089593852322"><ele>434.0</ele><time>2026-05-02T12:22:08.999Z</time></trkpt><trkpt lat="43.36802805272932" lon="13.222816200004877"><ele>434.0</ele><time>2026-05-02T12:22:09.999Z</time></trkpt><trkpt lat="43.367997088816" lon="13.222524531923835"><ele>434.3333333333333</ele><time>2026-05-02T12:22:10.999Z</time></trkpt><trkpt lat="43.36797195433554" lon="13.222212803485677"><ele>434.66666666666663</ele><time>2026-05-02T12:22:11.999Z</time></trkpt><trkpt lat="43.36793882584234" lon="13.221950023169379"><ele>435.0</ele><time>2026-05-02T12:22:12.999Z</time></trkpt><trkpt lat="43.36791057257815" lon="13.221746439951383"><ele>435.0</ele><time>2026-05-02T12:22:13.999Z</time></trkpt><trkpt lat="43.36788650748222" lon="13.221537745738447"><ele>435.0</ele><time>2026-05-02T12:22:14.999Z</time></trkpt><trkpt lat="43.36786284367406" lon="13.22136396311998"><ele>435.0</ele><time>2026-05-02T12:22:15.999Z</time></trkpt><trkpt lat="43.367889778828705" lon="13.22121453908495"><ele>435.0</ele><time>2026-05-02T12:22:16.999Z</time></trkpt><trkpt lat="43.36791109808456" lon="13.221086071656904"><ele>436.0</ele><time>2026-05-02T12:22:17.999Z</time></trkpt><trkpt lat="43.36795800717644" lon="13.220975538834413"><ele>437.0</ele><time>2026-05-02T12:22:18.999Z</time></trkpt><trkpt lat="43.36803543707783" lon="13.220883859632204"><ele>438.0</ele><time>2026-05-02T12:22:20.999Z</time></trkpt><trkpt lat="43.367950947315" lon="13.220773354189014"><ele>439.0</ele><time>2026-05-02T12:22:25.999Z</time></trkpt><trkpt lat="43.3679275334575" lon="13.220685598309792"><ele>440.0</ele><time>2026-05-02T12:22:28.999Z</time></trkpt><trkpt lat="43.367940773055096" lon="13.22056514887451"><ele>440.4</ele><time>2026-05-02T12:22:37.999Z</time></trkpt><trkpt lat="43.367943436572006" lon="13.220457721022415"><ele>440.8</ele><time>2026-05-02T12:22:38.999Z</time></trkpt><trkpt lat="43.36794433257158" lon="13.22032334816972"><ele>441.20000000000005</ele><time>2026-05-02T12:22:39.999Z</time></trkpt><trkpt lat="43.367944365618435" lon="13.220178232262363"><ele>441.6</ele><time>2026-05-02T12:22:40.999Z</time></trkpt><trkpt lat="43.367959495619466" lon="13.220025828411837"><ele>442.0</ele><time>2026-05-02T12:22:41.999Z</time></trkpt><trkpt lat="43.367951817129075" lon="13.219888996077287"><ele>443.40000000000003</ele><time>2026-05-02T12:22:42.999Z</time></trkpt><trkpt lat="43.36795411725417" lon="13.219773134634055"><ele>444.80000000000007</ele><time>2026-05-02T12:22:43.999Z</time></trkpt><trkpt lat="43.36795812150376" lon="13.219681970531969"><ele>446.2</ele><time>2026-05-02T12:22:44.999Z</time></trkpt><trkpt lat="43.367980356515346" lon="13.219518865448272"><ele>447.6</ele><time>2026-05-02T12:22:46.999Z</time></trkpt><trkpt lat="43.36800182183637" lon="13.219360748249336"><ele>449.0</ele><time>2026-05-02T12:22:48.999Z</time></trkpt><trkpt lat="43.368003874105234" lon="13.219232023968527"><ele>449.0</ele><time>2026-05-02T12:22:49.999Z</time></trkpt><trkpt lat="43.36800748781086" lon="13.219077431659475"><ele>449.0</ele><time>2026-05-02T12:22:50.999Z</time></trkpt><trkpt lat="43.36799830542486" lon="13.21891939803356"><ele>449.0</ele><time>2026-05-02T12:22:51.999Z</time></trkpt><trkpt lat="43.36797742166639" lon="13.218756719978439"><ele>449.0</ele><time>2026-05-02T12:22:52.999Z</time></trkpt><trkpt lat="43.36797355757322" lon="13.218590848363663"><ele>452.25</ele><time>2026-05-02T12:22:53.999Z</time></trkpt><trkpt lat="43.36795006336601" lon="13.218417640258204"><ele>455.5</ele><time>2026-05-02T12:22:54.999Z</time></trkpt><trkpt lat="43.36793706849882" lon="13.218252117835187"><ele>458.75</ele><time>2026-05-02T12:22:55.999Z</time></trkpt><trkpt lat="43.367932055680456" lon="13.218094068312976"><ele>462.0</ele><time>2026-05-02T12:22:56.999Z</time></trkpt><trkpt lat="43.36793227726915" lon="13.217926765248336"><ele>462.6</ele><time>2026-05-02T12:22:57.999Z</time></trkpt><trkpt lat="43.36792007179228" lon="13.217781397053866"><ele>463.20000000000005</ele><time>2026-05-02T12:22:58.999Z</time></trkpt><trkpt lat="43.36792076005538" lon="13.217634503747313"><ele>463.8</ele><time>2026-05-02T12:22:59.999Z</time></trkpt><trkpt lat="43.36793225994176" lon="13.21749090032491"><ele>464.4</ele><time>2026-05-02T12:23:00.999Z</time></trkpt><trkpt lat="43.36795373722953" lon="13.217341245906491"><ele>465.0</ele><time>2026-05-02T12:23:01.999Z</time></trkpt><trkpt lat="43.367979409799865" lon="13.217189074764208"><ele>465.0</ele><time>2026-05-02T12:23:02.999Z</time></trkpt><trkpt lat="43.3679959033448" lon="13.217050552325675"><ele>465.0</ele><time>2026-05-02T12:23:03.999Z</time></trkpt><trkpt lat="43.3680122294504" lon="13.21693533114556"><ele>465.0</ele><time>2026-05-02T12:23:04.999Z</time></trkpt><trkpt lat="43.36804648826544" lon="13.216813002295188"><ele>465.0</ele><time>2026-05-02T12:23:05.999Z</time></trkpt><trkpt lat="43.3680799439273" lon="13.216709769798747"><ele>465.0</ele><time>2026-05-02T12:23:06.999Z</time></trkpt><trkpt lat="43.36811228151751" lon="13.216617072372864"><ele>465.0</ele><time>2026-05-02T12:23:07.999Z</time></trkpt><trkpt lat="43.368150014855715" lon="13.216497128585235"><ele>463.4</ele><time>2026-05-02T12:23:08.999Z</time></trkpt><trkpt lat="43.36817349423771" lon="13.216367158697912"><ele>461.8</ele><time>2026-05-02T12:23:09.999Z</time></trkpt><trkpt lat="43.36817792437408" lon="13.21621601540009"><ele>460.20000000000005</ele><time>2026-05-02T12:23:10.999Z</time></trkpt><trkpt lat="43.36819697414574" lon="13.216066100960775"><ele>458.6</ele><time>2026-05-02T12:23:11.999Z</time></trkpt><trkpt lat="43.36823183916374" lon="13.215932297700634"><ele>457.0</ele><time>2026-05-02T12:23:12.999Z</time></trkpt><trkpt lat="43.36827356706939" lon="13.215764526006383"><ele>456.6</ele><time>2026-05-02T12:23:14.999Z</time></trkpt><trkpt lat="43.368279626361044" lon="13.215653575706403"><ele>456.20000000000005</ele><time>2026-05-02T12:23:15.999Z</time></trkpt><trkpt lat="43.36828673184323" lon="13.215554602263168"><ele>455.8</ele><time>2026-05-02T12:23:16.999Z</time></trkpt><trkpt lat="43.36829850015924" lon="13.215450537068724"><ele>455.4</ele><time>2026-05-02T12:23:17.999Z</time></trkpt><trkpt lat="43.368328718002935" lon="13.215318903034095"><ele>455.0</ele><time>2026-05-02T12:23:18.999Z</time></trkpt><trkpt lat="43.3683676331369" lon="13.215161617657918"><ele>455.0</ele><time>2026-05-02T12:23:19.999Z</time></trkpt><trkpt lat="43.36841458885311" lon="13.215007066392028"><ele>455.0</ele><time>2026-05-02T12:23:20.999Z</time></trkpt><trkpt lat="43.36843366035811" lon="13.214894004048785"><ele>455.0</ele><time>2026-05-02T12:23:21.999Z</time></trkpt><trkpt lat="43.36847620992922" lon="13.214799625310558"><ele>455.0</ele><time>2026-05-02T12:23:22.999Z</time></trkpt><trkpt lat="43.36847183583348" lon="13.214700948373672"><ele>455.0</ele><time>2026-05-02T12:23:23.999Z</time></trkpt><trkpt lat="43.368448748619635" lon="13.214579128677114"><ele>455.2</ele><time>2026-05-02T12:23:24.999Z</time></trkpt><trkpt lat="43.36841406475611" lon="13.214470331056617"><ele>455.4</ele><time>2026-05-02T12:23:25.999Z</time></trkpt><trkpt lat="43.36838448787354" lon="13.214381166286838"><ele>455.6</ele><time>2026-05-02T12:23:26.999Z</time></trkpt><trkpt lat="43.36834320911341" lon="13.214234060568012"><ele>455.8</ele><time>2026-05-02T12:23:28.999Z</time></trkpt><trkpt lat="43.36833037695168" lon="13.214115152101234"><ele>456.0</ele><time>2026-05-02T12:23:30.999Z</time></trkpt><trkpt lat="43.368314138142814" lon="13.21394477763737"><ele>457.4</ele><time>2026-05-02T12:23:33Z</time></trkpt><trkpt lat="43.36830610141014" lon="13.21381374451427"><ele>458.8</ele><time>2026-05-02T12:23:35Z</time></trkpt><trkpt lat="43.368283206621335" lon="13.213721386782913"><ele>460.19999999999993</ele><time>2026-05-02T12:23:37Z</time></trkpt><trkpt lat="43.36822118423879" lon="13.213615209491865"><ele>461.59999999999997</ele><time>2026-05-02T12:23:39Z</time></trkpt><trkpt lat="43.368125184009344" lon="13.213538394695743"><ele>463.0</ele><time>2026-05-02T12:23:41Z</time></trkpt><trkpt lat="43.36806045413409" lon="13.21346776404667"><ele>464.0</ele><time>2026-05-02T12:23:42Z</time></trkpt><trkpt lat="43.367990440416776" lon="13.213406185141599"><ele>464.99999999999994</ele><time>2026-05-02T12:23:43Z</time></trkpt><trkpt lat="43.36789166904639" lon="13.213319367138906"><ele>465.99999999999994</ele><time>2026-05-02T12:23:44Z</time></trkpt><trkpt lat="43.367808347492684" lon="13.213275648415351"><ele>467.0</ele><time>2026-05-02T12:23:45Z</time></trkpt><trkpt lat="43.367734900148335" lon="13.213212722509326"><ele>468.0</ele><time>2026-05-02T12:23:46Z</time></trkpt><trkpt lat="43.36766150387851" lon="13.213162390921475"><ele>467.5</ele><time>2026-05-02T12:23:47Z</time></trkpt><trkpt lat="43.36759443971003" lon="13.21311717262363"><ele>467.0</ele><time>2026-05-02T12:23:48Z</time></trkpt><trkpt lat="43.367537484611496" lon="13.2130624289898"><ele>466.5</ele><time>2026-05-02T12:23:49Z</time></trkpt><trkpt lat="43.36746287454818" lon="13.212981979065448"><ele>466.0</ele><time>2026-05-02T12:23:50Z</time></trkpt><trkpt lat="43.36742405040538" lon="13.212863333395862"><ele>465.5</ele><time>2026-05-02T12:23:51Z</time></trkpt><trkpt lat="43.367365585765214" lon="13.212761304852052"><ele>465.0</ele><time>2026-05-02T12:23:52Z</time></trkpt><trkpt lat="43.36730774655491" lon="13.212607613048153"><ele>465.0</ele><time>2026-05-02T12:23:53Z</time></trkpt><trkpt lat="43.36723979061494" lon="13.212517528917212"><ele>465.0</ele><time>2026-05-02T12:23:54Z</time></trkpt><trkpt lat="43.36716764901714" lon="13.2124063723488"><ele>465.0</ele><time>2026-05-02T12:23:55Z</time></trkpt><trkpt lat="43.3670822758954" lon="13.212269815585845"><ele>465.0</ele><time>2026-05-02T12:23:56Z</time></trkpt><trkpt lat="43.36700985107336" lon="13.212161502284497"><ele>465.0</ele><time>2026-05-02T12:23:57Z</time></trkpt><trkpt lat="43.36693438562086" lon="13.212048641578104"><ele>466.5</ele><time>2026-05-02T12:23:58Z</time></trkpt><trkpt lat="43.366848688966144" lon="13.211955900100595"><ele>468.0</ele><time>2026-05-02T12:23:59Z</time></trkpt><trkpt lat="43.36678008984662" lon="13.21184003241122"><ele>469.5</ele><time>2026-05-02T12:24:00Z</time></trkpt><trkpt lat="43.36670267764907" lon="13.211737729703627"><ele>471.0</ele><time>2026-05-02T12:24:01Z</time></trkpt><trkpt lat="43.36657703121678" lon="13.211635392086786"><ele>471.0</ele><time>2026-05-02T12:24:02Z</time></trkpt><trkpt lat="43.36647229915529" lon="13.211502316672055"><ele>471.0</ele><time>2026-05-02T12:24:03Z</time></trkpt><trkpt lat="43.36636702399228" lon="13.2113908434002"><ele>471.0</ele><time>2026-05-02T12:24:04Z</time></trkpt><trkpt lat="43.36629007623884" lon="13.211298320284333"><ele>471.0</ele><time>2026-05-02T12:24:05Z</time></trkpt><trkpt lat="43.36619218197402" lon="13.211207408982322"><ele>472.0</ele><time>2026-05-02T12:24:06Z</time></trkpt><trkpt lat="43.36609998669638" lon="13.211088273554681"><ele>473.0</ele><time>2026-05-02T12:24:07Z</time></trkpt><trkpt lat="43.36599149965473" lon="13.21097108664659"><ele>474.0</ele><time>2026-05-02T12:24:08Z</time></trkpt><trkpt lat="43.36587411736796" lon="13.210857742152786"><ele>475.0</ele><time>2026-05-02T12:24:09Z</time></trkpt><trkpt lat="43.3658113513602" lon="13.21081108557371"><ele>475.0</ele><time>2026-05-02T12:24:10Z</time></trkpt><trkpt lat="43.365684151824055" lon="13.210691386728238"><ele>475.0</ele><time>2026-05-02T12:24:11Z</time></trkpt><trkpt lat="43.365529493451156" lon="13.210587638483927"><ele>475.0</ele><time>2026-05-02T12:24:12Z</time></trkpt><trkpt lat="43.365352686088286" lon="13.210491527895853"><ele>477.0</ele><time>2026-05-02T12:24:13Z</time></trkpt><trkpt lat="43.36524229520409" lon="13.210407820289232"><ele>479.0</ele><time>2026-05-02T12:24:14Z</time></trkpt><trkpt lat="43.365123103478275" lon="13.210333399322803"><ele>481.0</ele><time>2026-05-02T12:24:15Z</time></trkpt><trkpt lat="43.365046963007735" lon="13.210264599748765"><ele>483.0</ele><time>2026-05-02T12:24:16Z</time></trkpt><trkpt lat="43.364982582722284" lon="13.210208613204713"><ele>485.0</ele><time>2026-05-02T12:24:17Z</time></trkpt><trkpt lat="43.36490307787186" lon="13.210133465749902"><ele>485.0</ele><time>2026-05-02T12:24:18Z</time></trkpt><trkpt lat="43.36484129426535" lon="13.21007314636346"><ele>485.0</ele><time>2026-05-02T12:24:19Z</time></trkpt><trkpt lat="43.3647704544312" lon="13.209991589291604"><ele>485.0</ele><time>2026-05-02T12:24:20Z</time></trkpt><trkpt lat="43.364713908627934" lon="13.20990755634452"><ele>485.0</ele><time>2026-05-02T12:24:21Z</time></trkpt><trkpt lat="43.36465849370356" lon="13.209812298645128"><ele>485.0</ele><time>2026-05-02T12:24:22Z</time></trkpt><trkpt lat="43.36457794068999" lon="13.209642087589915"><ele>486.2</ele><time>2026-05-02T12:24:24Z</time></trkpt><trkpt lat="43.36455165616731" lon="13.209557585268179"><ele>487.4</ele><time>2026-05-02T12:24:25Z</time></trkpt><trkpt lat="43.364517513175144" lon="13.209459842700982"><ele>488.6</ele><time>2026-05-02T12:24:26Z</time></trkpt><trkpt lat="43.36445268619405" lon="13.209334380365453"><ele>489.8</ele><time>2026-05-02T12:24:27Z</time></trkpt><trkpt lat="43.36439356315507" lon="13.209241279328541"><ele>491.0</ele><time>2026-05-02T12:24:28Z</time></trkpt><trkpt lat="43.36430180636785" lon="13.209143527742494"><ele>491.0</ele><time>2026-05-02T12:24:28.999Z</time></trkpt><trkpt lat="43.36420834825391" lon="13.209055803385425"><ele>491.0</ele><time>2026-05-02T12:24:29.999Z</time></trkpt><trkpt lat="43.36410295094644" lon="13.208989164474515"><ele>491.0</ele><time>2026-05-02T12:24:30.999Z</time></trkpt><trkpt lat="43.36400306269444" lon="13.208941105529723"><ele>491.0</ele><time>2026-05-02T12:24:31.999Z</time></trkpt><trkpt lat="43.36387708871923" lon="13.208890763202161"><ele>491.8</ele><time>2026-05-02T12:24:32.999Z</time></trkpt><trkpt lat="43.36379319927136" lon="13.20880950248592"><ele>492.6</ele><time>2026-05-02T12:24:33.999Z</time></trkpt><trkpt lat="43.36371765778598" lon="13.208782850064022"><ele>493.4</ele><time>2026-05-02T12:24:34.999Z</time></trkpt><trkpt lat="43.36365178519931" lon="13.208735901038299"><ele>494.2</ele><time>2026-05-02T12:24:35.999Z</time></trkpt><trkpt lat="43.36354990216229" lon="13.208675552487824"><ele>495.0</ele><time>2026-05-02T12:24:37.999Z</time></trkpt><trkpt lat="43.36347152777019" lon="13.208603872740024"><ele>494.99999999999994</ele><time>2026-05-02T12:24:39.999Z</time></trkpt><trkpt lat="43.36340885547537" lon="13.208562387007088"><ele>495.0</ele><time>2026-05-02T12:24:40.999Z</time></trkpt><trkpt lat="43.36335841951247" lon="13.208476680517172"><ele>494.99999999999994</ele><time>2026-05-02T12:24:41.999Z</time></trkpt><trkpt lat="43.36334424322886" lon="13.208388434088736"><ele>494.99999999999994</ele><time>2026-05-02T12:24:42.999Z</time></trkpt><trkpt lat="43.36333759470372" lon="13.208296107678251"><ele>495.0</ele><time>2026-05-02T12:24:43.999Z</time></trkpt><trkpt lat="43.36331944151721" lon="13.208205647856468"><ele>494.99999999999994</ele><time>2026-05-02T12:24:44.999Z</time></trkpt><trkpt lat="43.36333022860127" lon="13.208114158471638"><ele>494.99999999999994</ele><time>2026-05-02T12:24:45.999Z</time></trkpt><trkpt lat="43.363305852256346" lon="13.208024987521167"><ele>495.0</ele><time>2026-05-02T12:24:46.999Z</time></trkpt><trkpt lat="43.36331979212576" lon="13.207911940597317"><ele>495.0</ele><time>2026-05-02T12:24:49.999Z</time></trkpt><trkpt lat="43.36340403568122" lon="13.207936124280767"><ele>495.0</ele><time>2026-05-02T12:24:52.999Z</time></trkpt><trkpt lat="43.363480658859444" lon="13.20791121516942"><ele>495.0</ele><time>2026-05-02T12:24:54.999Z</time></trkpt><trkpt lat="43.36366780437933" lon="13.208178436415213"><ele>495.0</ele><time>2026-05-02T12:24:56.999Z</time></trkpt><trkpt lat="43.36376917516978" lon="13.20826360086067"><ele>495.0</ele><time>2026-05-02T12:24:57.999Z</time></trkpt><trkpt lat="43.36386800489313" lon="13.20834076697441"><ele>495.0</ele><time>2026-05-02T12:24:58.999Z</time></trkpt><trkpt lat="43.36394838581398" lon="13.208396558763521"><ele>495.0</ele><time>2026-05-02T12:24:59.999Z</time></trkpt><trkpt lat="43.36403267146577" lon="13.208453180732475"><ele>495.0</ele><time>2026-05-02T12:25:00.999Z</time></trkpt><trkpt lat="43.364125874096835" lon="13.208516015392625"><ele>500.5</ele><time>2026-05-02T12:25:01.999Z</time></trkpt><trkpt lat="43.36423124815234" lon="13.208595457896116"><ele>506.0</ele><time>2026-05-02T12:25:02.999Z</time></trkpt><trkpt lat="43.364346683876846" lon="13.208685967127327"><ele>511.5</ele><time>2026-05-02T12:25:03.999Z</time></trkpt><trkpt lat="43.364469803394485" lon="13.20877558305308"><ele>517.0</ele><time>2026-05-02T12:25:04.999Z</time></trkpt><trkpt lat="43.364573277453495" lon="13.208858836392652"><ele>517.0</ele><time>2026-05-02T12:25:05.999Z</time></trkpt><trkpt lat="43.36466698535641" lon="13.208948666460648"><ele>517.0</ele><time>2026-05-02T12:25:06.999Z</time></trkpt><trkpt lat="43.364777678321495" lon="13.209033055754617"><ele>517.0</ele><time>2026-05-02T12:25:07.999Z</time></trkpt><trkpt lat="43.36489076919227" lon="13.209115838555991"><ele>517.0</ele><time>2026-05-02T12:25:08.999Z</time></trkpt><trkpt lat="43.364982429126485" lon="13.209196490069681"><ele>516.2</ele><time>2026-05-02T12:25:09.999Z</time></trkpt><trkpt lat="43.36507618978392" lon="13.209260884066564"><ele>515.4000000000001</ele><time>2026-05-02T12:25:10.999Z</time></trkpt><trkpt lat="43.365159252607846" lon="13.20932301771728"><ele>514.5999999999999</ele><time>2026-05-02T12:25:11.999Z</time></trkpt><trkpt lat="43.36525745181366" lon="13.209390618448973"><ele>513.8</ele><time>2026-05-02T12:25:12.999Z</time></trkpt><trkpt lat="43.365348078038004" lon="13.209471080042157"><ele>513.0</ele><time>2026-05-02T12:25:13.999Z</time></trkpt><trkpt lat="43.36544654085252" lon="13.209524799184567"><ele>520.0</ele><time>2026-05-02T12:25:14.999Z</time></trkpt><trkpt lat="43.365531405139826" lon="13.209575085126197"><ele>527.0</ele><time>2026-05-02T12:25:15.999Z</time></trkpt><trkpt lat="43.365618681150885" lon="13.20963799307485"><ele>534.0</ele><time>2026-05-02T12:25:16.999Z</time></trkpt><trkpt lat="43.36570952775554" lon="13.209698370735188"><ele>541.0</ele><time>2026-05-02T12:25:17.999Z</time></trkpt><trkpt lat="43.36578069127639" lon="13.20973299277736"><ele>548.0</ele><time>2026-05-02T12:25:18.999Z</time></trkpt><trkpt lat="43.365873446706296" lon="13.209800704239935"><ele>539.6</ele><time>2026-05-02T12:25:19.999Z</time></trkpt><trkpt lat="43.36595489250236" lon="13.209848917930637"><ele>531.1999999999999</ele><time>2026-05-02T12:25:21Z</time></trkpt><trkpt lat="43.366048288103876" lon="13.20993427229184"><ele>522.8</ele><time>2026-05-02T12:25:22Z</time></trkpt><trkpt lat="43.36615236047428" lon="13.209984032190015"><ele>514.4</ele><time>2026-05-02T12:25:23Z</time></trkpt><trkpt lat="43.36624567882987" lon="13.21003348624641"><ele>506.0</ele><time>2026-05-02T12:25:24Z</time></trkpt><trkpt lat="43.36632490721945" lon="13.21012386825835"><ele>515.75</ele><time>2026-05-02T12:25:25Z</time></trkpt><trkpt lat="43.36642500074807" lon="13.210220953287557"><ele>525.5</ele><time>2026-05-02T12:25:26Z</time></trkpt><trkpt lat="43.366526753974284" lon="13.21032297551775"><ele>535.25</ele><time>2026-05-02T12:25:27Z</time></trkpt><trkpt lat="43.366643216420016" lon="13.210420210360814"><ele>545.0</ele><time>2026-05-02T12:25:28Z</time></trkpt><trkpt lat="43.36674362111886" lon="13.210514346186594"><ele>545.0</ele><time>2026-05-02T12:25:29Z</time></trkpt><trkpt lat="43.36683376615191" lon="13.21059922095333"><ele>545.0</ele><time>2026-05-02T12:25:30Z</time></trkpt><trkpt lat="43.36693276267616" lon="13.210674878900576"><ele>545.0</ele><time>2026-05-02T12:25:31Z</time></trkpt><trkpt lat="43.3670432094134" lon="13.210802095700764"><ele>545.0</ele><time>2026-05-02T12:25:32Z</time></trkpt><trkpt lat="43.36709826402542" lon="13.210862369194466"><ele>545.0</ele><time>2026-05-02T12:25:33Z</time></trkpt><trkpt lat="43.367164861935336" lon="13.210913062032644"><ele>543.6</ele><time>2026-05-02T12:25:34Z</time></trkpt><trkpt lat="43.36725951772162" lon="13.210980243056612"><ele>542.2</ele><time>2026-05-02T12:25:35Z</time></trkpt><trkpt lat="43.36735492379019" lon="13.211037721604734"><ele>540.8</ele><time>2026-05-02T12:25:36Z</time></trkpt><trkpt lat="43.36743786753544" lon="13.211067747101664"><ele>539.4</ele><time>2026-05-02T12:25:37Z</time></trkpt><trkpt lat="43.367511760425074" lon="13.211093483027788"><ele>538.0</ele><time>2026-05-02T12:25:38Z</time></trkpt><trkpt lat="43.3676160257112" lon="13.211172612677844"><ele>538.0</ele><time>2026-05-02T12:25:39Z</time></trkpt><trkpt lat="43.36770777380181" lon="13.211224812515528"><ele>538.0</ele><time>2026-05-02T12:25:40Z</time></trkpt><trkpt lat="43.36780714008597" lon="13.21129139153047"><ele>538.0</ele><time>2026-05-02T12:25:41Z</time></trkpt><trkpt lat="43.367901952428056" lon="13.211334747672574"><ele>538.0</ele><time>2026-05-02T12:25:42Z</time></trkpt><trkpt lat="43.36802670671625" lon="13.211373187897868"><ele>538.0</ele><time>2026-05-02T12:25:43Z</time></trkpt><trkpt lat="43.368103350113806" lon="13.21141743310034"><ele>538.8333333333334</ele><time>2026-05-02T12:25:44Z</time></trkpt><trkpt lat="43.368188765620864" lon="13.211439530113012"><ele>539.6666666666667</ele><time>2026-05-02T12:25:45Z</time></trkpt><trkpt lat="43.36825496170153" lon="13.211457028111719"><ele>540.5</ele><time>2026-05-02T12:25:46Z</time></trkpt><trkpt lat="43.36836394314278" lon="13.211427409035684"><ele>541.3333333333334</ele><time>2026-05-02T12:25:48Z</time></trkpt><trkpt lat="43.368393232646234" lon="13.211344184173127"><ele>542.1666666666666</ele><time>2026-05-02T12:25:49Z</time></trkpt><trkpt lat="43.36844272989386" lon="13.211263866886869"><ele>543.0</ele><time>2026-05-02T12:25:50Z</time></trkpt><trkpt lat="43.36850597539034" lon="13.211157609181406"><ele>543.0</ele><time>2026-05-02T12:25:51Z</time></trkpt><trkpt lat="43.368556017352034" lon="13.211042416337769"><ele>543.0</ele><time>2026-05-02T12:25:52Z</time></trkpt><trkpt lat="43.36862445657913" lon="13.210919307782962"><ele>543.0</ele><time>2026-05-02T12:25:53Z</time></trkpt><trkpt lat="43.36869903570473" lon="13.210779759342953"><ele>543.0</ele><time>2026-05-02T12:25:54Z</time></trkpt><trkpt lat="43.36876326007692" lon="13.210639628781092"><ele>542.4</ele><time>2026-05-02T12:25:55Z</time></trkpt><trkpt lat="43.368828812878256" lon="13.210558426631465"><ele>541.8</ele><time>2026-05-02T12:25:56Z</time></trkpt><trkpt lat="43.36888575857477" lon="13.210448402582404"><ele>541.2</ele><time>2026-05-02T12:25:57Z</time></trkpt><trkpt lat="43.3689443406906" lon="13.210373189188317"><ele>540.6</ele><time>2026-05-02T12:25:58Z</time></trkpt><trkpt lat="43.36903571447642" lon="13.210282839761613"><ele>540.0</ele><time>2026-05-02T12:25:59Z</time></trkpt><trkpt lat="43.36908939012608" lon="13.210186952648487"><ele>540.0</ele><time>2026-05-02T12:26:00Z</time></trkpt><trkpt lat="43.369156101813836" lon="13.210093000335773"><ele>540.0</ele><time>2026-05-02T12:26:01Z</time></trkpt><trkpt lat="43.369230166276964" lon="13.20997074109644"><ele>540.0</ele><time>2026-05-02T12:26:02Z</time></trkpt><trkpt lat="43.3693184464363" lon="13.209855984571638"><ele>540.0</ele><time>2026-05-02T12:26:03Z</time></trkpt><trkpt lat="43.3693622460152" lon="13.209770726060798"><ele>540.0</ele><time>2026-05-02T12:26:04Z</time></trkpt><trkpt lat="43.369405238605346" lon="13.209697592447945"><ele>543.8</ele><time>2026-05-02T12:26:05Z</time></trkpt><trkpt lat="43.36944790559223" lon="13.209525330761062"><ele>547.6</ele><time>2026-05-02T12:26:07Z</time></trkpt><trkpt lat="43.36943219362258" lon="13.209364846121629"><ele>551.4</ele><time>2026-05-02T12:26:08Z</time></trkpt><trkpt lat="43.36943153832585" lon="13.209261032692375"><ele>555.2</ele><time>2026-05-02T12:26:09Z</time></trkpt><trkpt lat="43.36941509326034" lon="13.209108765189047"><ele>559.0</ele><time>2026-05-02T12:26:10Z</time></trkpt><trkpt lat="43.36941041869328" lon="13.2089610927437"><ele>560.4</ele><time>2026-05-02T12:26:11Z</time></trkpt><trkpt lat="43.369429621713955" lon="13.20882788730078"><ele>561.8</ele><time>2026-05-02T12:26:12Z</time></trkpt><trkpt lat="43.369415985377046" lon="13.208679020362846"><ele>563.2</ele><time>2026-05-02T12:26:13Z</time></trkpt><trkpt lat="43.369410817386864" lon="13.208508381927144"><ele>564.6</ele><time>2026-05-02T12:26:14Z</time></trkpt><trkpt lat="43.369410870288014" lon="13.208352510601825"><ele>566.0</ele><time>2026-05-02T12:26:15Z</time></trkpt><trkpt lat="43.36942194140605" lon="13.208219723196917"><ele>567.0</ele><time>2026-05-02T12:26:16Z</time></trkpt><trkpt lat="43.36939663473783" lon="13.20808440136482"><ele>568.0</ele><time>2026-05-02T12:26:17Z</time></trkpt><trkpt lat="43.36940293192401" lon="13.207928338972303"><ele>569.0</ele><time>2026-05-02T12:26:18Z</time></trkpt><trkpt lat="43.369422752886905" lon="13.207797887548974"><ele>570.0</ele><time>2026-05-02T12:26:19Z</time></trkpt><trkpt lat="43.36943845218506" lon="13.207638592378308"><ele>571.0</ele><time>2026-05-02T12:26:20Z</time></trkpt><trkpt lat="43.36944785650798" lon="13.207503599155595"><ele>571.0</ele><time>2026-05-02T12:26:21Z</time></trkpt><trkpt lat="43.36946500643012" lon="13.207362393490657"><ele>571.0</ele><time>2026-05-02T12:26:22Z</time></trkpt><trkpt lat="43.36947512745675" lon="13.207230193773016"><ele>571.0</ele><time>2026-05-02T12:26:23Z</time></trkpt><trkpt lat="43.36949159315047" lon="13.207105760117884"><ele>571.0</ele><time>2026-05-02T12:26:24Z</time></trkpt><trkpt lat="43.369514537802964" lon="13.207007288076161"><ele>571.0</ele><time>2026-05-02T12:26:25Z</time></trkpt><trkpt lat="43.36952527344344" lon="13.20689679542002"><ele>571.0</ele><time>2026-05-02T12:26:26Z</time></trkpt><trkpt lat="43.36958393474684" lon="13.206770455996638"><ele>571.6</ele><time>2026-05-02T12:26:27Z</time></trkpt><trkpt lat="43.3696128185267" lon="13.20665392550744"><ele>572.2</ele><time>2026-05-02T12:26:28Z</time></trkpt><trkpt lat="43.369633285173215" lon="13.206532155773186"><ele>572.8</ele><time>2026-05-02T12:26:29Z</time></trkpt><trkpt lat="43.36965467028396" lon="13.20643741172475"><ele>573.4</ele><time>2026-05-02T12:26:30Z</time></trkpt><trkpt lat="43.36966037789261" lon="13.206276846621577"><ele>574.0</ele><time>2026-05-02T12:26:31Z</time></trkpt><trkpt lat="43.36967956631471" lon="13.206151231419271"><ele>575.8333333333334</ele><time>2026-05-02T12:26:32Z</time></trkpt><trkpt lat="43.3696973695279" lon="13.206019360815969"><ele>577.6666666666667</ele><time>2026-05-02T12:26:33Z</time></trkpt><trkpt lat="43.369722104142994" lon="13.205928467095232"><ele>579.5</ele><time>2026-05-02T12:26:34Z</time></trkpt><trkpt lat="43.3697172038874" lon="13.205822983746788"><ele>581.3333333333334</ele><time>2026-05-02T12:26:35Z</time></trkpt><trkpt lat="43.36970225908676" lon="13.205703994275032"><ele>583.1666666666666</ele><time>2026-05-02T12:26:36Z</time></trkpt><trkpt lat="43.369694893443786" lon="13.205602382811508"><ele>585.0</ele><time>2026-05-02T12:26:37Z</time></trkpt><trkpt lat="43.36968934474376" lon="13.205494290747659"><ele>585.0</ele><time>2026-05-02T12:26:38Z</time></trkpt><trkpt lat="43.36967778533883" lon="13.205375807972416"><ele>585.0</ele><time>2026-05-02T12:26:39Z</time></trkpt><trkpt lat="43.36967145126293" lon="13.205277054197856"><ele>585.0</ele><time>2026-05-02T12:26:40Z</time></trkpt><trkpt lat="43.369661300038665" lon="13.205177258509451"><ele>585.0</ele><time>2026-05-02T12:26:41Z</time></trkpt><trkpt lat="43.36964511586025" lon="13.20507626006929"><ele>585.0</ele><time>2026-05-02T12:26:42Z</time></trkpt><trkpt lat="43.36962565320151" lon="13.204957293548603"><ele>585.0</ele><time>2026-05-02T12:26:43Z</time></trkpt><trkpt lat="43.369637778636154" lon="13.20482194266722"><ele>585.25</ele><time>2026-05-02T12:26:44Z</time></trkpt><trkpt lat="43.36961004938266" lon="13.20466761774956"><ele>585.5</ele><time>2026-05-02T12:26:45Z</time></trkpt><trkpt lat="43.36956182031955" lon="13.204469475436872"><ele>585.75</ele><time>2026-05-02T12:26:46Z</time></trkpt><trkpt lat="43.36951285035931" lon="13.204353644224936"><ele>586.0</ele><time>2026-05-02T12:26:47Z</time></trkpt><trkpt lat="43.36950296069387" lon="13.204150857500505"><ele>585.6</ele><time>2026-05-02T12:26:49Z</time></trkpt><trkpt lat="43.36945783012306" lon="13.20397280497595"><ele>585.2</ele><time>2026-05-02T12:26:50Z</time></trkpt><trkpt lat="43.36943645055134" lon="13.203826267988891"><ele>584.8</ele><time>2026-05-02T12:26:51Z</time></trkpt><trkpt lat="43.369401026809314" lon="13.203713086711582"><ele>584.4</ele><time>2026-05-02T12:26:52Z</time></trkpt><trkpt lat="43.36936714903076" lon="13.203608246532303"><ele>584.0</ele><time>2026-05-02T12:26:53Z</time></trkpt><trkpt lat="43.36931984181164" lon="13.203494956925622"><ele>584.0</ele><time>2026-05-02T12:26:54Z</time></trkpt><trkpt lat="43.36928121713201" lon="13.203381337563187"><ele>584.0</ele><time>2026-05-02T12:26:55Z</time></trkpt><trkpt lat="43.369249730163695" lon="13.203257355931509"><ele>584.0</ele><time>2026-05-02T12:26:56Z</time></trkpt><trkpt lat="43.36922427607347" lon="13.203136115490235"><ele>584.0</ele><time>2026-05-02T12:26:57Z</time></trkpt><trkpt lat="43.369185321727535" lon="13.203018194527155"><ele>584.0</ele><time>2026-05-02T12:26:58Z</time></trkpt><trkpt lat="43.36913012952491" lon="13.202891853090636"><ele>584.2</ele><time>2026-05-02T12:26:59Z</time></trkpt><trkpt lat="43.36910847648215" lon="13.202768177630702"><ele>584.4</ele><time>2026-05-02T12:27:00Z</time></trkpt><trkpt lat="43.36904700622816" lon="13.202665455978197"><ele>584.6</ele><time>2026-05-02T12:27:01Z</time></trkpt><trkpt lat="43.36900476400893" lon="13.20254767080912"><ele>584.8</ele><time>2026-05-02T12:27:02Z</time></trkpt><trkpt lat="43.368965848850664" lon="13.202434089577094"><ele>585.0</ele><time>2026-05-02T12:27:03Z</time></trkpt><trkpt lat="43.36892625128205" lon="13.202332928481866"><ele>587.6</ele><time>2026-05-02T12:27:04Z</time></trkpt><trkpt lat="43.3688500278952" lon="13.202249659921108"><ele>590.2</ele><time>2026-05-02T12:27:05Z</time></trkpt><trkpt lat="43.368797926152226" lon="13.202171052158986"><ele>592.8</ele><time>2026-05-02T12:27:06Z</time></trkpt><trkpt lat="43.36878114084505" lon="13.20202369868339"><ele>595.4</ele><time>2026-05-02T12:27:08Z</time></trkpt><trkpt lat="43.368849631773" lon="13.201881730755252"><ele>598.0</ele><time>2026-05-02T12:27:10Z</time></trkpt><trkpt lat="43.368907306579565" lon="13.201799392975987"><ele>598.0</ele><time>2026-05-02T12:27:11Z</time></trkpt><trkpt lat="43.36891578624395" lon="13.201618233921467"><ele>598.0</ele><time>2026-05-02T12:27:12Z</time></trkpt><trkpt lat="43.368980363356194" lon="13.201535051120693"><ele>598.0</ele><time>2026-05-02T12:27:13Z</time></trkpt><trkpt lat="43.36904269471297" lon="13.201454760950442"><ele>598.0</ele><time>2026-05-02T12:27:14Z</time></trkpt><trkpt lat="43.369116579041346" lon="13.201359589166588"><ele>598.0</ele><time>2026-05-02T12:27:15Z</time></trkpt><trkpt lat="43.36918899243897" lon="13.201292089685657"><ele>598.0</ele><time>2026-05-02T12:27:16Z</time></trkpt><trkpt lat="43.36905204328025" lon="13.201364423396152"><ele>598.0</ele><time>2026-05-02T12:27:25Z</time></trkpt><trkpt lat="43.368930877079706" lon="13.201520499905223"><ele>598.0</ele><time>2026-05-02T12:27:26Z</time></trkpt><trkpt lat="43.36877084630332" lon="13.201692883677895"><ele>602.6666666666667</ele><time>2026-05-02T12:27:27Z</time></trkpt><trkpt lat="43.368632378423804" lon="13.201868853975657"><ele>607.3333333333334</ele><time>2026-05-02T12:27:28Z</time></trkpt><trkpt lat="43.36848735062643" lon="13.202056004401452"><ele>612.0</ele><time>2026-05-02T12:27:29Z</time></trkpt><trkpt lat="43.368402168325666" lon="13.202201976756132"><ele>612.6666666666666</ele><time>2026-05-02T12:27:30Z</time></trkpt><trkpt lat="43.368362727142454" lon="13.202358895812779"><ele>613.3333333333333</ele><time>2026-05-02T12:27:31Z</time></trkpt><trkpt lat="43.36838233851532" lon="13.202564262676676"><ele>614.0</ele><time>2026-05-02T12:27:32Z</time></trkpt><trkpt lat="43.368444173099576" lon="13.202813258955809"><ele>614.0</ele><time>2026-05-02T12:27:33Z</time></trkpt><trkpt lat="43.36851269886782" lon="13.203122333248034"><ele>614.0</ele><time>2026-05-02T12:27:34Z</time></trkpt><trkpt lat="43.36855025248855" lon="13.203449344876503"><ele>617.5</ele><time>2026-05-02T12:27:35Z</time></trkpt><trkpt lat="43.36857383457484" lon="13.203812206275197"><ele>621.0</ele><time>2026-05-02T12:27:36Z</time></trkpt><trkpt lat="43.368589561681866" lon="13.20419534997375"><ele>624.0</ele><time>2026-05-02T12:27:37Z</time></trkpt><trkpt lat="43.36857119880246" lon="13.204589891517326"><ele>627.0</ele><time>2026-05-02T12:27:38Z</time></trkpt><trkpt lat="43.368543199780554" lon="13.20499981955168"><ele>627.0</ele><time>2026-05-02T12:27:39Z</time></trkpt><trkpt lat="43.368506481543406" lon="13.20543449063438"><ele>627.0</ele><time>2026-05-02T12:27:40Z</time></trkpt><trkpt lat="43.36848407726656" lon="13.205875899492543"><ele>627.0</ele><time>2026-05-02T12:27:41Z</time></trkpt><trkpt lat="43.368427301337796" lon="13.206323983530668"><ele>627.0</ele><time>2026-05-02T12:27:42Z</time></trkpt><trkpt lat="43.36839513116315" lon="13.20678409102411"><ele>625.5</ele><time>2026-05-02T12:27:43Z</time></trkpt><trkpt lat="43.368354500583315" lon="13.20722325724776"><ele>624.0</ele><time>2026-05-02T12:27:44Z</time></trkpt><trkpt lat="43.36830989137467" lon="13.207617294733453"><ele>622.5</ele><time>2026-05-02T12:27:45Z</time></trkpt><trkpt lat="43.36826574567112" lon="13.207979068136417"><ele>621.0</ele><time>2026-05-02T12:27:46Z</time></trkpt><trkpt lat="43.36819403442432" lon="13.208324417913511"><ele>619.3333333333334</ele><time>2026-05-02T12:27:47Z</time></trkpt><trkpt lat="43.36814066272866" lon="13.208631753443738"><ele>617.6666666666667</ele><time>2026-05-02T12:27:48Z</time></trkpt><trkpt lat="43.36809181864159" lon="13.208869730059225"><ele>616.0</ele><time>2026-05-02T12:27:49Z</time></trkpt><trkpt lat="43.3680485522166" lon="13.209026575282895"><ele>615.2</ele><time>2026-05-02T12:27:50Z</time></trkpt><trkpt lat="43.3679739143389" lon="13.20913477165711"><ele>614.4000000000001</ele><time>2026-05-02T12:27:51Z</time></trkpt><trkpt lat="43.36788901587699" lon="13.20919844188762"><ele>613.6</ele><time>2026-05-02T12:27:52Z</time></trkpt><trkpt lat="43.36778964992235" lon="13.209183264345993"><ele>612.8000000000001</ele><time>2026-05-02T12:27:53Z</time></trkpt><trkpt lat="43.36766762321171" lon="13.209116952106312"><ele>612.0</ele><time>2026-05-02T12:27:54Z</time></trkpt><trkpt lat="43.3675180431122" lon="13.209006471784866"><ele>614.5</ele><time>2026-05-02T12:27:55Z</time></trkpt><trkpt lat="43.367342328170544" lon="13.208841252294182"><ele>617.0</ele><time>2026-05-02T12:27:56Z</time></trkpt><trkpt lat="43.36715200771912" lon="13.208647141116531"><ele>617.0</ele><time>2026-05-02T12:27:57Z</time></trkpt><trkpt lat="43.3669450159047" lon="13.208433733455104"><ele>617.0</ele><time>2026-05-02T12:27:58Z</time></trkpt><trkpt lat="43.36672710995748" lon="13.208208349840703"><ele>619.0</ele><time>2026-05-02T12:27:59Z</time></trkpt><trkpt lat="43.36649597989928" lon="13.20796928829018"><ele>621.0</ele><time>2026-05-02T12:28:00Z</time></trkpt><trkpt lat="43.36625466521642" lon="13.207719692616427"><ele>621.0</ele><time>2026-05-02T12:28:01Z</time></trkpt><trkpt lat="43.36600597742467" lon="13.20746375847284"><ele>621.0</ele><time>2026-05-02T12:28:02Z</time></trkpt><trkpt lat="43.365745674736566" lon="13.20718871855999"><ele>620.5</ele><time>2026-05-02T12:28:03Z</time></trkpt><trkpt lat="43.36550173931234" lon="13.206907305038206"><ele>620.0</ele><time>2026-05-02T12:28:04Z</time></trkpt><trkpt lat="43.36525335126444" lon="13.206590977025325"><ele>634.0</ele><time>2026-05-02T12:28:05Z</time></trkpt><trkpt lat="43.36503570559405" lon="13.206293669068346"><ele>648.0</ele><time>2026-05-02T12:28:06Z</time></trkpt><trkpt lat="43.36483981977562" lon="13.20601623071254"><ele>638.0</ele><time>2026-05-02T12:28:07Z</time></trkpt><trkpt lat="43.364663321330305" lon="13.205770456201293"><ele>628.0</ele><time>2026-05-02T12:28:08Z</time></trkpt><trkpt lat="43.36449959989862" lon="13.205529310079003"><ele>628.0</ele><time>2026-05-02T12:28:09Z</time></trkpt><trkpt lat="43.36435875408928" lon="13.205287258212662"><ele>628.0</ele><time>2026-05-02T12:28:10Z</time></trkpt><trkpt lat="43.36421689675254" lon="13.205016904993474"><ele>641.0</ele><time>2026-05-02T12:28:11Z</time></trkpt><trkpt lat="43.364085430455965" lon="13.20472886899143"><ele>654.0</ele><time>2026-05-02T12:28:12Z</time></trkpt><trkpt lat="43.36398383695857" lon="13.204431811720209"><ele>654.0</ele><time>2026-05-02T12:28:13Z</time></trkpt><trkpt lat="43.36388640851157" lon="13.204070019475552"><ele>654.0</ele><time>2026-05-02T12:28:14Z</time></trkpt><trkpt lat="43.36379703578345" lon="13.203698096664821"><ele>645.0</ele><time>2026-05-02T12:28:15Z</time></trkpt><trkpt lat="43.363716819737725" lon="13.203367257933946"><ele>636.0</ele><time>2026-05-02T12:28:16Z</time></trkpt><trkpt lat="43.363633591769506" lon="13.203065628236002"><ele>636.0</ele><time>2026-05-02T12:28:17Z</time></trkpt><trkpt lat="43.363537611700885" lon="13.202763230283686"><ele>636.0</ele><time>2026-05-02T12:28:18Z</time></trkpt><trkpt lat="43.363420431986306" lon="13.202450958966201"><ele>649.5</ele><time>2026-05-02T12:28:19Z</time></trkpt><trkpt lat="43.363292184530614" lon="13.202140349995757"><ele>663.0</ele><time>2026-05-02T12:28:20Z</time></trkpt><trkpt lat="43.363157019238436" lon="13.201854072692614"><ele>663.0</ele><time>2026-05-02T12:28:21Z</time></trkpt><trkpt lat="43.36303431563413" lon="13.201630649854682"><ele>663.0</ele><time>2026-05-02T12:28:22Z</time></trkpt><trkpt lat="43.36293039286784" lon="13.201504236263276"><ele>663.0</ele><time>2026-05-02T12:28:23Z</time></trkpt><trkpt lat="43.362828215765326" lon="13.201381492558916"><ele>660.4</ele><time>2026-05-02T12:28:24Z</time></trkpt><trkpt lat="43.36276125216841" lon="13.201256795223069"><ele>657.8</ele><time>2026-05-02T12:28:25Z</time></trkpt><trkpt lat="43.3626963926046" lon="13.201156490066598"><ele>655.2</ele><time>2026-05-02T12:28:26Z</time></trkpt><trkpt lat="43.36261682018187" lon="13.20103854381379"><ele>652.6</ele><time>2026-05-02T12:28:28Z</time></trkpt><trkpt lat="43.36255944599119" lon="13.200976342959757"><ele>650.0</ele><time>2026-05-02T12:28:30Z</time></trkpt><trkpt lat="43.36251549089785" lon="13.200893136513763"><ele>650.0</ele><time>2026-05-02T12:28:34Z</time></trkpt><trkpt lat="43.36247314365622" lon="13.200815097528256"><ele>650.0</ele><time>2026-05-02T12:29:05Z</time></trkpt><trkpt lat="43.36236725333111" lon="13.20067838686275"><ele>650.0</ele><time>2026-05-02T12:29:07Z</time></trkpt><trkpt lat="43.36227789378906" lon="13.200589961151172"><ele>650.0</ele><time>2026-05-02T12:29:08Z</time></trkpt><trkpt lat="43.362189147107976" lon="13.20053503656315"><ele>650.0</ele><time>2026-05-02T12:29:09Z</time></trkpt><trkpt lat="43.36207532965814" lon="13.20052754180692"><ele>655.25</ele><time>2026-05-02T12:29:10Z</time></trkpt><trkpt lat="43.36195567940691" lon="13.20049777938642"><ele>660.5</ele><time>2026-05-02T12:29:11Z</time></trkpt><trkpt lat="43.36182049327519" lon="13.200528018546143"><ele>665.75</ele><time>2026-05-02T12:29:12Z</time></trkpt><trkpt lat="43.361695611329026" lon="13.200513451574794"><ele>671.0</ele><time>2026-05-02T12:29:13Z</time></trkpt><trkpt lat="43.36159227751148" lon="13.200481550670528"><ele>671.0</ele><time>2026-05-02T12:29:14Z</time></trkpt><trkpt lat="43.361479395477744" lon="13.200407389815666"><ele>671.0</ele><time>2026-05-02T12:29:15Z</time></trkpt><trkpt lat="43.36133370195038" lon="13.200310108324551"><ele>671.0</ele><time>2026-05-02T12:29:16Z</time></trkpt><trkpt lat="43.361177140546324" lon="13.200211919594555"><ele>664.6666666666666</ele><time>2026-05-02T12:29:17Z</time></trkpt><trkpt lat="43.360998683628495" lon="13.200110365027117"><ele>658.3333333333334</ele><time>2026-05-02T12:29:18Z</time></trkpt><trkpt lat="43.36083191162414" lon="13.200046506221417"><ele>652.0</ele><time>2026-05-02T12:29:19Z</time></trkpt><trkpt lat="43.36063828994037" lon="13.200024712344234"><ele>648.3333333333334</ele><time>2026-05-02T12:29:20Z</time></trkpt><trkpt lat="43.360409695868405" lon="13.199996989346669"><ele>644.6666666666666</ele><time>2026-05-02T12:29:21Z</time></trkpt><trkpt lat="43.36020681578284" lon="13.199995695642267"><ele>641.0</ele><time>2026-05-02T12:29:22Z</time></trkpt><trkpt lat="43.36003751340721" lon="13.199952863403238"><ele>641.0</ele><time>2026-05-02T12:29:23Z</time></trkpt><trkpt lat="43.35988124935527" lon="13.199873061837545"><ele>641.0</ele><time>2026-05-02T12:29:24Z</time></trkpt><trkpt lat="43.35972572025344" lon="13.199763309424846"><ele>641.0</ele><time>2026-05-02T12:29:25Z</time></trkpt><trkpt lat="43.35956761042283" lon="13.19966412403011"><ele>650.25</ele><time>2026-05-02T12:29:26Z</time></trkpt><trkpt lat="43.35944588387312" lon="13.199561053567693"><ele>659.5</ele><time>2026-05-02T12:29:27Z</time></trkpt><trkpt lat="43.35933234566865" lon="13.199504531997265"><ele>668.75</ele><time>2026-05-02T12:29:28Z</time></trkpt><trkpt lat="43.3592173731138" lon="13.199489585315819"><ele>678.0</ele><time>2026-05-02T12:29:29Z</time></trkpt><trkpt lat="43.35908610478621" lon="13.199544276537921"><ele>678.0</ele><time>2026-05-02T12:29:30Z</time></trkpt><trkpt lat="43.35894776556865" lon="13.199649427316045"><ele>678.0</ele><time>2026-05-02T12:29:31Z</time></trkpt><trkpt lat="43.358826190300206" lon="13.199794303286705"><ele>678.0</ele><time>2026-05-02T12:29:32Z</time></trkpt><trkpt lat="43.358749775311175" lon="13.199965257135592"><ele>679.0</ele><time>2026-05-02T12:29:33Z</time></trkpt><trkpt lat="43.358720900149976" lon="13.200167741766906"><ele>680.0</ele><time>2026-05-02T12:29:34Z</time></trkpt><trkpt lat="43.358727786870894" lon="13.200402860112082"><ele>681.0</ele><time>2026-05-02T12:29:35Z</time></trkpt><trkpt lat="43.358747991693626" lon="13.2006677746303"><ele>678.0</ele><time>2026-05-02T12:29:36Z</time></trkpt><trkpt lat="43.358737893068316" lon="13.200998816605322"><ele>675.0</ele><time>2026-05-02T12:29:37Z</time></trkpt><trkpt lat="43.35874616655434" lon="13.20129176941605"><ele>672.0</ele><time>2026-05-02T12:29:38Z</time></trkpt><trkpt lat="43.358733831761995" lon="13.201571853562147"><ele>669.0</ele><time>2026-05-02T12:29:39Z</time></trkpt><trkpt lat="43.35873190265737" lon="13.201785644495155"><ele>666.0</ele><time>2026-05-02T12:29:40Z</time></trkpt><trkpt lat="43.35873992466075" lon="13.201987595693884"><ele>666.0</ele><time>2026-05-02T12:29:41Z</time></trkpt><trkpt lat="43.358720635900866" lon="13.202103233054851"><ele>666.0</ele><time>2026-05-02T12:29:42Z</time></trkpt><trkpt lat="43.358681171964854" lon="13.20217532139764"><ele>666.0</ele><time>2026-05-02T12:29:43Z</time></trkpt><trkpt lat="43.35856841633411" lon="13.20225021849035"><ele>666.0</ele><time>2026-05-02T12:29:44Z</time></trkpt><trkpt lat="43.358468347070925" lon="13.202220974923353"><ele>666.0</ele><time>2026-05-02T12:29:45Z</time></trkpt><trkpt lat="43.35835394548332" lon="13.202155174198825"><ele>666.0</ele><time>2026-05-02T12:29:46Z</time></trkpt><trkpt lat="43.358163492683495" lon="13.20207731624575"><ele>666.0</ele><time>2026-05-02T12:29:47Z</time></trkpt><trkpt lat="43.35795311383246" lon="13.202031769439857"><ele>666.0</ele><time>2026-05-02T12:29:48Z</time></trkpt><trkpt lat="43.357726175544016" lon="13.20199273308459"><ele>669.0</ele><time>2026-05-02T12:29:49Z</time></trkpt><trkpt lat="43.35748071053727" lon="13.201916505894845"><ele>672.0</ele><time>2026-05-02T12:29:50Z</time></trkpt><trkpt lat="43.35722093487918" lon="13.20182979994267"><ele>666.0</ele><time>2026-05-02T12:29:51Z</time></trkpt><trkpt lat="43.35695243862997" lon="13.201757659124754"><ele>660.0</ele><time>2026-05-02T12:29:52Z</time></trkpt><trkpt lat="43.356721943493454" lon="13.201648873960362"><ele>660.0</ele><time>2026-05-02T12:29:53Z</time></trkpt><trkpt lat="43.35652218716195" lon="13.20155889078129"><ele>660.0</ele><time>2026-05-02T12:29:54Z</time></trkpt><trkpt lat="43.35637802700002" lon="13.20146752019093"><ele>660.0</ele><time>2026-05-02T12:29:55Z</time></trkpt><trkpt lat="43.35628642294912" lon="13.201340740584797"><ele>661.75</ele><time>2026-05-02T12:29:56Z</time></trkpt><trkpt lat="43.35621373467883" lon="13.20118954079504"><ele>663.5</ele><time>2026-05-02T12:29:57Z</time></trkpt><trkpt lat="43.35613225850177" lon="13.200998294263025"><ele>665.25</ele><time>2026-05-02T12:29:58Z</time></trkpt><trkpt lat="43.35604842715585" lon="13.200825831922684"><ele>667.0</ele><time>2026-05-02T12:29:59Z</time></trkpt><trkpt lat="43.35598063301279" lon="13.200723571510247"><ele>667.0</ele><time>2026-05-02T12:30:00Z</time></trkpt><trkpt lat="43.355879391920475" lon="13.200688404401783"><ele>667.0</ele><time>2026-05-02T12:30:01Z</time></trkpt><trkpt lat="43.355769908345515" lon="13.200687030473143"><ele>667.0</ele><time>2026-05-02T12:30:02Z</time></trkpt><trkpt lat="43.35562207062406" lon="13.200736071471766"><ele>667.0</ele><time>2026-05-02T12:30:03Z</time></trkpt><trkpt lat="43.35544873339486" lon="13.200814504792753"><ele>662.75</ele><time>2026-05-02T12:30:04Z</time></trkpt><trkpt lat="43.35529710214788" lon="13.200849806036532"><ele>658.5</ele><time>2026-05-02T12:30:05Z</time></trkpt><trkpt lat="43.355168229667704" lon="13.20079845674056"><ele>654.25</ele><time>2026-05-02T12:30:06Z</time></trkpt><trkpt lat="43.35507646375643" lon="13.200691902514539"><ele>650.0</ele><time>2026-05-02T12:30:07Z</time></trkpt><trkpt lat="43.35496352409512" lon="13.20054910671847"><ele>658.3333333333333</ele><time>2026-05-02T12:30:08Z</time></trkpt><trkpt lat="43.35480463675066" lon="13.200375022840275"><ele>666.6666666666666</ele><time>2026-05-02T12:30:09Z</time></trkpt><trkpt lat="43.354596417130665" lon="13.200216135989082"><ele>675.0</ele><time>2026-05-02T12:30:10Z</time></trkpt><trkpt lat="43.35440249797744" lon="13.20005235160595"><ele>675.0</ele><time>2026-05-02T12:30:11Z</time></trkpt><trkpt lat="43.354276615412644" lon="13.199925841099313"><ele>675.0</ele><time>2026-05-02T12:30:12Z</time></trkpt><trkpt lat="43.35418182362191" lon="13.199897298101261"><ele>675.0</ele><time>2026-05-02T12:30:13Z</time></trkpt><trkpt lat="43.35407301168768" lon="13.199948355260391"><ele>675.0</ele><time>2026-05-02T12:30:14Z</time></trkpt><trkpt lat="43.35396997449251" lon="13.200074425634742"><ele>673.75</ele><time>2026-05-02T12:30:15Z</time></trkpt><trkpt lat="43.35385885394944" lon="13.200221135651136"><ele>672.5</ele><time>2026-05-02T12:30:16Z</time></trkpt><trkpt lat="43.35375239573432" lon="13.200302973612008"><ele>671.25</ele><time>2026-05-02T12:30:17Z</time></trkpt><trkpt lat="43.353640977842375" lon="13.200342544742664"><ele>670.0</ele><time>2026-05-02T12:30:18Z</time></trkpt><trkpt lat="43.35350749318315" lon="13.200280289821553"><ele>670.0</ele><time>2026-05-02T12:30:19Z</time></trkpt><trkpt lat="43.35332377286763" lon="13.200224928096427"><ele>670.0</ele><time>2026-05-02T12:30:20Z</time></trkpt><trkpt lat="43.353124074490296" lon="13.200121254304548"><ele>670.0</ele><time>2026-05-02T12:30:21Z</time></trkpt><trkpt lat="43.35297388852531" lon="13.20004999169492"><ele>665.6666666666667</ele><time>2026-05-02T12:30:22Z</time></trkpt><trkpt lat="43.35281460688906" lon="13.1999671458484"><ele>661.3333333333334</ele><time>2026-05-02T12:30:23Z</time></trkpt><trkpt lat="43.352638679357355" lon="13.199860596572574"><ele>657.0</ele><time>2026-05-02T12:30:24Z</time></trkpt><trkpt lat="43.35249400835382" lon="13.19977337574202"><ele>671.0</ele><time>2026-05-02T12:30:25Z</time></trkpt><trkpt lat="43.35207314980171" lon="13.199501277025599"><ele>671.0</ele><time>2026-05-02T12:30:26Z</time></trkpt><trkpt lat="43.35190307988445" lon="13.199389903815105"><ele>671.0</ele><time>2026-05-02T12:30:27Z</time></trkpt><trkpt lat="43.35175362718463" lon="13.199292032186072"><ele>671.0</ele><time>2026-05-02T12:30:28Z</time></trkpt><trkpt lat="43.351604668070024" lon="13.199220704401032"><ele>671.0</ele><time>2026-05-02T12:30:29Z</time></trkpt><trkpt lat="43.35147757718367" lon="13.199134582432809"><ele>671.0</ele><time>2026-05-02T12:30:30Z</time></trkpt><trkpt lat="43.35137485065156" lon="13.199045630215698"><ele>671.0</ele><time>2026-05-02T12:30:31Z</time></trkpt><trkpt lat="43.35128403393246" lon="13.198985316451212"><ele>671.0</ele><time>2026-05-02T12:30:32Z</time></trkpt><trkpt lat="43.35119861776162" lon="13.198930704144402"><ele>672.5999999999999</ele><time>2026-05-02T12:30:33Z</time></trkpt><trkpt lat="43.351112349209544" lon="13.198859251223205"><ele>674.2</ele><time>2026-05-02T12:30:34Z</time></trkpt><trkpt lat="43.35102634400365" lon="13.198765770860543"><ele>675.8</ele><time>2026-05-02T12:30:35Z</time></trkpt><trkpt lat="43.35094227781378" lon="13.198669832840283"><ele>677.4000000000001</ele><time>2026-05-02T12:30:36Z</time></trkpt><trkpt lat="43.35085468637064" lon="13.198546985195541"><ele>679.0</ele><time>2026-05-02T12:30:37Z</time></trkpt><trkpt lat="43.350721893810594" lon="13.198392278596767"><ele>679.0</ele><time>2026-05-02T12:30:38Z</time></trkpt><trkpt lat="43.350584412072585" lon="13.198221421025716"><ele>679.0</ele><time>2026-05-02T12:30:39Z</time></trkpt><trkpt lat="43.350420976623276" lon="13.198010175745857"><ele>679.0</ele><time>2026-05-02T12:30:40Z</time></trkpt><trkpt lat="43.35025380185023" lon="13.197785174622787"><ele>682.3333333333334</ele><time>2026-05-02T12:30:41Z</time></trkpt><trkpt lat="43.350085603426734" lon="13.197584384654542"><ele>685.6666666666666</ele><time>2026-05-02T12:30:42Z</time></trkpt><trkpt lat="43.349924085192214" lon="13.19737140819384"><ele>689.0</ele><time>2026-05-02T12:30:43Z</time></trkpt><trkpt lat="43.34978556344567" lon="13.19721344453376"><ele>689.75</ele><time>2026-05-02T12:30:44Z</time></trkpt><trkpt lat="43.34966024020753" lon="13.197070005823138"><ele>690.5</ele><time>2026-05-02T12:30:45Z</time></trkpt><trkpt lat="43.349522833220306" lon="13.196976553791194"><ele>691.25</ele><time>2026-05-02T12:30:46Z</time></trkpt><trkpt lat="43.34942215654447" lon="13.196879551887598"><ele>692.0</ele><time>2026-05-02T12:30:47Z</time></trkpt><trkpt lat="43.34935290894586" lon="13.196855718372372"><ele>692.0</ele><time>2026-05-02T12:30:48Z</time></trkpt><trkpt lat="43.34933098858581" lon="13.196771472409514"><ele>692.0</ele><time>2026-05-02T12:30:52Z</time></trkpt><trkpt lat="43.349400011604864" lon="13.196714014936324"><ele>692.0</ele><time>2026-05-02T12:31:03Z</time></trkpt><trkpt lat="43.34946417405599" lon="13.196749943457279"><ele>692.0</ele><time>2026-05-02T12:31:04Z</time></trkpt><trkpt lat="43.349571138232605" lon="13.196814313235283"><ele>692.0</ele><time>2026-05-02T12:31:05Z</time></trkpt><trkpt lat="43.3496935045429" lon="13.19687308922715"><ele>696.3333333333333</ele><time>2026-05-02T12:31:06Z</time></trkpt><trkpt lat="43.349834542752994" lon="13.197000997583315"><ele>700.6666666666666</ele><time>2026-05-02T12:31:07Z</time></trkpt><trkpt lat="43.34998632170023" lon="13.197117175364436"><ele>705.0</ele><time>2026-05-02T12:31:08Z</time></trkpt><trkpt lat="43.350174826055074" lon="13.19726546901604"><ele>703.3333333333334</ele><time>2026-05-02T12:31:09Z</time></trkpt><trkpt lat="43.35039668666098" lon="13.19748438348751"><ele>701.6666666666667</ele><time>2026-05-02T12:31:10Z</time></trkpt><trkpt lat="43.35050476927772" lon="13.197517662767234"><ele>700.0</ele><time>2026-05-02T12:31:11Z</time></trkpt><trkpt lat="43.350730210451374" lon="13.197691372998825"><ele>700.0</ele><time>2026-05-02T12:31:12Z</time></trkpt><trkpt lat="43.35096658374165" lon="13.197866116297847"><ele>700.0</ele><time>2026-05-02T12:31:13Z</time></trkpt><trkpt lat="43.351191914068345" lon="13.198039569952604"><ele>698.6666666666667</ele><time>2026-05-02T12:31:14Z</time></trkpt><trkpt lat="43.35139591134709" lon="13.198179176352806"><ele>697.3333333333334</ele><time>2026-05-02T12:31:15Z</time></trkpt><trkpt lat="43.35159543508277" lon="13.198283509095598"><ele>696.0</ele><time>2026-05-02T12:31:16Z</time></trkpt><trkpt lat="43.35178563385289" lon="13.198360904467625"><ele>696.0</ele><time>2026-05-02T12:31:17Z</time></trkpt><trkpt lat="43.35198980953211" lon="13.198397970883693"><ele>696.0</ele><time>2026-05-02T12:31:18Z</time></trkpt><trkpt lat="43.35220196061238" lon="13.198390562267184"><ele>696.0</ele><time>2026-05-02T12:31:19Z</time></trkpt><trkpt lat="43.35242711350883" lon="13.198392436540036"><ele>701.0</ele><time>2026-05-02T12:31:20Z</time></trkpt><trkpt lat="43.35266311593159" lon="13.198345846442663"><ele>706.0</ele><time>2026-05-02T12:31:21Z</time></trkpt><trkpt lat="43.352908953416446" lon="13.198299038324206"><ele>709.0</ele><time>2026-05-02T12:31:22Z</time></trkpt><trkpt lat="43.353154269565614" lon="13.198267183448282"><ele>712.0</ele><time>2026-05-02T12:31:23Z</time></trkpt><trkpt lat="43.35336700847324" lon="13.198294176909295"><ele>712.0</ele><time>2026-05-02T12:31:24Z</time></trkpt><trkpt lat="43.35357383549172" lon="13.198374651167795"><ele>712.0</ele><time>2026-05-02T12:31:25Z</time></trkpt><trkpt lat="43.353756204883936" lon="13.198468251519097"><ele>712.0</ele><time>2026-05-02T12:31:26Z</time></trkpt><trkpt lat="43.35393995519194" lon="13.198568283134383"><ele>715.6666666666667</ele><time>2026-05-02T12:31:27Z</time></trkpt><trkpt lat="43.3541274573306" lon="13.198677818451436"><ele>719.3333333333334</ele><time>2026-05-02T12:31:28Z</time></trkpt><trkpt lat="43.354314163576674" lon="13.198796643203634"><ele>723.0</ele><time>2026-05-02T12:31:29Z</time></trkpt><trkpt lat="43.354501690847" lon="13.198927476156909"><ele>721.0</ele><time>2026-05-02T12:31:30Z</time></trkpt><trkpt lat="43.35469406984678" lon="13.199060445084648"><ele>719.0</ele><time>2026-05-02T12:31:31Z</time></trkpt><trkpt lat="43.35490731288862" lon="13.199185473781998"><ele>717.0</ele><time>2026-05-02T12:31:32Z</time></trkpt><trkpt lat="43.35512401077195" lon="13.199333885809294"><ele>717.0</ele><time>2026-05-02T12:31:33Z</time></trkpt><trkpt lat="43.35532273069795" lon="13.199452936447777"><ele>717.0</ele><time>2026-05-02T12:31:34Z</time></trkpt><trkpt lat="43.35552795164571" lon="13.19953237174226"><ele>717.0</ele><time>2026-05-02T12:31:35Z</time></trkpt><trkpt lat="43.35573603065794" lon="13.199591967236241"><ele>720.3333333333334</ele><time>2026-05-02T12:31:36Z</time></trkpt><trkpt lat="43.35592946643603" lon="13.199642315008798"><ele>723.6666666666667</ele><time>2026-05-02T12:31:37Z</time></trkpt><trkpt lat="43.35611414335066" lon="13.199679243640821"><ele>727.0</ele><time>2026-05-02T12:31:38Z</time></trkpt><trkpt lat="43.35625280361274" lon="13.199697634587917"><ele>727.0</ele><time>2026-05-02T12:31:39Z</time></trkpt><trkpt lat="43.356366065327734" lon="13.199707296361359"><ele>727.0</ele><time>2026-05-02T12:31:40Z</time></trkpt><trkpt lat="43.35646208125481" lon="13.199672916800605"><ele>727.0</ele><time>2026-05-02T12:31:41Z</time></trkpt><trkpt lat="43.35655774281016" lon="13.199606057936773"><ele>727.0</ele><time>2026-05-02T12:31:42Z</time></trkpt><trkpt lat="43.356639326050825" lon="13.199512025531707"><ele>727.0</ele><time>2026-05-02T12:31:43Z</time></trkpt><trkpt lat="43.35670461115212" lon="13.199384296010448"><ele>727.25</ele><time>2026-05-02T12:31:44Z</time></trkpt><trkpt lat="43.35676666232673" lon="13.199223969024597"><ele>727.5</ele><time>2026-05-02T12:31:45Z</time></trkpt><trkpt lat="43.35684685182949" lon="13.199035346557734"><ele>727.75</ele><time>2026-05-02T12:31:46Z</time></trkpt><trkpt lat="43.35691206850463" lon="13.198858494437179"><ele>728.0</ele><time>2026-05-02T12:31:47Z</time></trkpt><trkpt lat="43.356941236978955" lon="13.19867784236554"><ele>728.0</ele><time>2026-05-02T12:31:48Z</time></trkpt><trkpt lat="43.35695687314932" lon="13.19847315657756"><ele>728.0</ele><time>2026-05-02T12:31:49Z</time></trkpt><trkpt lat="43.35698606874252" lon="13.198252440044403"><ele>728.0</ele><time>2026-05-02T12:31:50Z</time></trkpt><trkpt lat="43.35700965934815" lon="13.198082967405465"><ele>728.0</ele><time>2026-05-02T12:31:51Z</time></trkpt><trkpt lat="43.35709020245247" lon="13.197889145135726"><ele>726.0</ele><time>2026-05-02T12:31:52Z</time></trkpt><trkpt lat="43.357204416250475" lon="13.197714932698826"><ele>724.0</ele><time>2026-05-02T12:31:53Z</time></trkpt><trkpt lat="43.357342937154606" lon="13.197566418425243"><ele>722.0</ele><time>2026-05-02T12:31:54Z</time></trkpt><trkpt lat="43.35751003861635" lon="13.197445476037446"><ele>722.0</ele><time>2026-05-02T12:31:55Z</time></trkpt><trkpt lat="43.35765879320087" lon="13.19739435387193"><ele>722.0</ele><time>2026-05-02T12:31:56Z</time></trkpt><trkpt lat="43.35781349852897" lon="13.197384992559432"><ele>722.0</ele><time>2026-05-02T12:31:57Z</time></trkpt><trkpt lat="43.35801031729197" lon="13.197380059232241"><ele>722.6666666666666</ele><time>2026-05-02T12:31:58Z</time></trkpt><trkpt lat="43.35822357685224" lon="13.197368850278014"><ele>723.3333333333334</ele><time>2026-05-02T12:31:59Z</time></trkpt><trkpt lat="43.35845547422835" lon="13.197383241301905"><ele>724.0</ele><time>2026-05-02T12:32:00Z</time></trkpt><trkpt lat="43.3587156692708" lon="13.197414994119816"><ele>727.0</ele><time>2026-05-02T12:32:01Z</time></trkpt><trkpt lat="43.35897327790476" lon="13.197459017743892"><ele>730.0</ele><time>2026-05-02T12:32:02Z</time></trkpt><trkpt lat="43.359230445620895" lon="13.19752164492617"><ele>730.0</ele><time>2026-05-02T12:32:03Z</time></trkpt><trkpt lat="43.35950803235258" lon="13.19759766084814"><ele>730.0</ele><time>2026-05-02T12:32:04Z</time></trkpt><trkpt lat="43.359800135382955" lon="13.197678312759598"><ele>733.5</ele><time>2026-05-02T12:32:05Z</time></trkpt><trkpt lat="43.36008826405155" lon="13.197768789338001"><ele>737.0</ele><time>2026-05-02T12:32:06Z</time></trkpt><trkpt lat="43.360392851235" lon="13.197878267840405"><ele>741.5</ele><time>2026-05-02T12:32:07Z</time></trkpt><trkpt lat="43.36070608514251" lon="13.198010270585199"><ele>746.0</ele><time>2026-05-02T12:32:08Z</time></trkpt><trkpt lat="43.36101622032001" lon="13.19813519278704"><ele>743.0</ele><time>2026-05-02T12:32:09Z</time></trkpt><trkpt lat="43.361294689945005" lon="13.198249633810583"><ele>740.0</ele><time>2026-05-02T12:32:10Z</time></trkpt><trkpt lat="43.36157094310691" lon="13.198346001798708"><ele>740.0</ele><time>2026-05-02T12:32:11Z</time></trkpt><trkpt lat="43.361873261213354" lon="13.198434886372961"><ele>740.0</ele><time>2026-05-02T12:32:12Z</time></trkpt><trkpt lat="43.36225221193623" lon="13.198536956541089"><ele>745.0</ele><time>2026-05-02T12:32:13Z</time></trkpt><trkpt lat="43.362503077858335" lon="13.19862167999369"><ele>750.0</ele><time>2026-05-02T12:32:14Z</time></trkpt><trkpt lat="43.362733738697656" lon="13.198700665159755"><ele>750.0</ele><time>2026-05-02T12:32:15Z</time></trkpt><trkpt lat="43.36294408038166" lon="13.19879525770827"><ele>750.0</ele><time>2026-05-02T12:32:16Z</time></trkpt><trkpt lat="43.36313880607128" lon="13.198942863336539"><ele>750.0</ele><time>2026-05-02T12:32:17Z</time></trkpt><trkpt lat="43.363312008789705" lon="13.199090521014437"><ele>748.6666666666666</ele><time>2026-05-02T12:32:18Z</time></trkpt><trkpt lat="43.36347487756468" lon="13.199270106564459"><ele>747.3333333333333</ele><time>2026-05-02T12:32:19Z</time></trkpt><trkpt lat="43.36364083061844" lon="13.19947604274336"><ele>746.0</ele><time>2026-05-02T12:32:20Z</time></trkpt><trkpt lat="43.363767648133674" lon="13.199657295892642"><ele>745.75</ele><time>2026-05-02T12:32:21Z</time></trkpt><trkpt lat="43.363890007952534" lon="13.199794954715058"><ele>745.5</ele><time>2026-05-02T12:32:22Z</time></trkpt><trkpt lat="43.364001388556105" lon="13.199923097487403"><ele>745.25</ele><time>2026-05-02T12:32:23Z</time></trkpt><trkpt lat="43.364115869477985" lon="13.199968695869165"><ele>745.0</ele><time>2026-05-02T12:32:24Z</time></trkpt><trkpt lat="43.36422459297086" lon="13.199970472825248"><ele>745.0</ele><time>2026-05-02T12:32:25Z</time></trkpt><trkpt lat="43.364320715371164" lon="13.199898288805255"><ele>745.0</ele><time>2026-05-02T12:32:26Z</time></trkpt><trkpt lat="43.364421725488576" lon="13.199800883488066"><ele>745.0</ele><time>2026-05-02T12:32:27Z</time></trkpt><trkpt lat="43.3645256175244" lon="13.199632437306226"><ele>745.0</ele><time>2026-05-02T12:32:28Z</time></trkpt><trkpt lat="43.36464581672575" lon="13.199407549288008"><ele>743.0</ele><time>2026-05-02T12:32:29Z</time></trkpt><trkpt lat="43.36477034776803" lon="13.199158848712472"><ele>741.0</ele><time>2026-05-02T12:32:30Z</time></trkpt><trkpt lat="43.364879816948545" lon="13.198870156727038"><ele>741.0</ele><time>2026-05-02T12:32:31Z</time></trkpt><trkpt lat="43.36499934605539" lon="13.198582223043381"><ele>741.0</ele><time>2026-05-02T12:32:32Z</time></trkpt><trkpt lat="43.36517249047701" lon="13.198317199424537"><ele>743.5</ele><time>2026-05-02T12:32:33Z</time></trkpt><trkpt lat="43.36534409270489" lon="13.198049089790477"><ele>746.0</ele><time>2026-05-02T12:32:34Z</time></trkpt><trkpt lat="43.36550523740421" lon="13.197784855063096"><ele>742.6666666666666</ele><time>2026-05-02T12:32:35Z</time></trkpt><trkpt lat="43.36565353182003" lon="13.197568493940349"><ele>739.3333333333334</ele><time>2026-05-02T12:32:36Z</time></trkpt><trkpt lat="43.3658003634672" lon="13.197373783494767"><ele>736.0</ele><time>2026-05-02T12:32:37Z</time></trkpt><trkpt lat="43.365908848008345" lon="13.197231198286335"><ele>736.0</ele><time>2026-05-02T12:32:38Z</time></trkpt><trkpt lat="43.366011919530806" lon="13.197084471603219"><ele>736.0</ele><time>2026-05-02T12:32:39Z</time></trkpt><trkpt lat="43.36611664145634" lon="13.196937395073817"><ele>736.0</ele><time>2026-05-02T12:32:40Z</time></trkpt><trkpt lat="43.366219730290965" lon="13.196795299983785"><ele>736.0</ele><time>2026-05-02T12:32:41Z</time></trkpt><trkpt lat="43.36629349714276" lon="13.196664010234873"><ele>736.0</ele><time>2026-05-02T12:32:42Z</time></trkpt><trkpt lat="43.36635982846816" lon="13.196547649988831"><ele>736.0</ele><time>2026-05-02T12:32:43Z</time></trkpt><trkpt lat="43.366415640791544" lon="13.19644916449564"><ele>736.0</ele><time>2026-05-02T12:32:44Z</time></trkpt><trkpt lat="43.36646093837366" lon="13.196350048187275"><ele>736.0</ele><time>2026-05-02T12:32:45Z</time></trkpt><trkpt lat="43.366483261465696" lon="13.196251585963134"><ele>736.0</ele><time>2026-05-02T12:32:46Z</time></trkpt><trkpt lat="43.36650082066218" lon="13.19615304543706"><ele>736.0</ele><time>2026-05-02T12:32:47Z</time></trkpt><trkpt lat="43.366511241829166" lon="13.196066901665573"><ele>735.4</ele><time>2026-05-02T12:32:48Z</time></trkpt><trkpt lat="43.36658053244364" lon="13.195947122656271"><ele>734.8</ele><time>2026-05-02T12:32:50Z</time></trkpt><trkpt lat="43.36663983586622" lon="13.195867890343191"><ele>734.1999999999999</ele><time>2026-05-02T12:32:51Z</time></trkpt><trkpt lat="43.36670860195453" lon="13.195756150644282"><ele>733.5999999999999</ele><time>2026-05-02T12:32:52Z</time></trkpt><trkpt lat="43.36676530993264" lon="13.195630415093587"><ele>733.0</ele><time>2026-05-02T12:32:53Z</time></trkpt><trkpt lat="43.366822552864846" lon="13.195492796291006"><ele>733.0</ele><time>2026-05-02T12:32:54Z</time></trkpt><trkpt lat="43.366873512791315" lon="13.195365430355722"><ele>733.0</ele><time>2026-05-02T12:32:55Z</time></trkpt><trkpt lat="43.36691561280536" lon="13.195247257828633"><ele>733.0</ele><time>2026-05-02T12:32:56Z</time></trkpt><trkpt lat="43.36693347517816" lon="13.195144992559806"><ele>733.0</ele><time>2026-05-02T12:32:57Z</time></trkpt><trkpt lat="43.366964377952094" lon="13.195023700405834"><ele>733.0</ele><time>2026-05-02T12:32:58Z</time></trkpt><trkpt lat="43.36693351979224" lon="13.194884861939785"><ele>734.4</ele><time>2026-05-02T12:32:59Z</time></trkpt><trkpt lat="43.3669245992002" lon="13.194736040844944"><ele>735.8</ele><time>2026-05-02T12:33:00Z</time></trkpt><trkpt lat="43.366900588015845" lon="13.19459051281474"><ele>737.2</ele><time>2026-05-02T12:33:01Z</time></trkpt><trkpt lat="43.3668814981422" lon="13.194466053272977"><ele>738.6</ele><time>2026-05-02T12:33:02Z</time></trkpt><trkpt lat="43.36686370412957" lon="13.194368067793022"><ele>740.0</ele><time>2026-05-02T12:33:03Z</time></trkpt><trkpt lat="43.36684214030487" lon="13.19427740023314"><ele>740.0</ele><time>2026-05-02T12:33:04Z</time></trkpt><trkpt lat="43.36677006687963" lon="13.194154995613115"><ele>740.0</ele><time>2026-05-02T12:33:06Z</time></trkpt><trkpt lat="43.3667025723217" lon="13.194158285384042"><ele>740.0</ele><time>2026-05-02T12:33:07Z</time></trkpt><trkpt lat="43.36663847202274" lon="13.19420912606288"><ele>740.0</ele><time>2026-05-02T12:33:08Z</time></trkpt><trkpt lat="43.366569049721456" lon="13.194315436608669"><ele>740.0</ele><time>2026-05-02T12:33:09Z</time></trkpt><trkpt lat="43.36648609112544" lon="13.194420709228261"><ele>740.0</ele><time>2026-05-02T12:33:10Z</time></trkpt><trkpt lat="43.366407822304154" lon="13.194483370351008"><ele>740.0</ele><time>2026-05-02T12:33:11Z</time></trkpt><trkpt lat="43.366332551799644" lon="13.19456404353874"><ele>740.0</ele><time>2026-05-02T12:33:12Z</time></trkpt><trkpt lat="43.36625417930749" lon="13.194655361686271"><ele>740.0</ele><time>2026-05-02T12:33:13Z</time></trkpt><trkpt lat="43.36617566470993" lon="13.194731071419275"><ele>740.0</ele><time>2026-05-02T12:33:14Z</time></trkpt><trkpt lat="43.36609050291059" lon="13.194820878758248"><ele>742.3333333333333</ele><time>2026-05-02T12:33:15Z</time></trkpt><trkpt lat="43.36597134009136" lon="13.194926476851286"><ele>744.6666666666666</ele><time>2026-05-02T12:33:16Z</time></trkpt><trkpt lat="43.365839616140256" lon="13.195057257477082"><ele>747.0</ele><time>2026-05-02T12:33:17Z</time></trkpt><trkpt lat="43.36569492507432" lon="13.195204045628394"><ele>751.6666666666666</ele><time>2026-05-02T12:33:18Z</time></trkpt><trkpt lat="43.365528698568205" lon="13.195385114195535"><ele>756.3333333333333</ele><time>2026-05-02T12:33:19Z</time></trkpt><trkpt lat="43.365389986370865" lon="13.19553372563711"><ele>761.0</ele><time>2026-05-02T12:33:20Z</time></trkpt><trkpt lat="43.365290371221214" lon="13.195639197350918"><ele>760.0</ele><time>2026-05-02T12:33:21Z</time></trkpt><trkpt lat="43.36519472181034" lon="13.195733915114927"><ele>759.0</ele><time>2026-05-02T12:33:22Z</time></trkpt><trkpt lat="43.36512561300139" lon="13.19580131250831"><ele>758.0</ele><time>2026-05-02T12:33:23Z</time></trkpt><trkpt lat="43.36505324007277" lon="13.195894795881655"><ele>757.0</ele><time>2026-05-02T12:33:24Z</time></trkpt><trkpt lat="43.364959761999806" lon="13.195992078975634"><ele>756.0</ele><time>2026-05-02T12:33:25Z</time></trkpt><trkpt lat="43.36485115375697" lon="13.196106501425866"><ele>756.0</ele><time>2026-05-02T12:33:26Z</time></trkpt><trkpt lat="43.364728029129196" lon="13.196230528613356"><ele>756.0</ele><time>2026-05-02T12:33:27Z</time></trkpt><trkpt lat="43.36459575610459" lon="13.196354614632174"><ele>756.0</ele><time>2026-05-02T12:33:28Z</time></trkpt><trkpt lat="43.36447961442902" lon="13.196467459184415"><ele>757.8</ele><time>2026-05-02T12:33:29Z</time></trkpt><trkpt lat="43.36438399360694" lon="13.196559943193847"><ele>759.5999999999999</ele><time>2026-05-02T12:33:30Z</time></trkpt><trkpt lat="43.36430124060006" lon="13.196639990619278"><ele>761.4</ele><time>2026-05-02T12:33:31Z</time></trkpt><trkpt lat="43.36422719557429" lon="13.19668552736693"><ele>763.2</ele><time>2026-05-02T12:33:32Z</time></trkpt><trkpt lat="43.364145738869965" lon="13.196746155820351"><ele>765.0</ele><time>2026-05-02T12:33:33Z</time></trkpt><trkpt lat="43.364060219280596" lon="13.196825581595755"><ele>765.0</ele><time>2026-05-02T12:33:34Z</time></trkpt><trkpt lat="43.36398198364886" lon="13.196855614095044"><ele>765.0</ele><time>2026-05-02T12:33:35Z</time></trkpt><trkpt lat="43.36391373196679" lon="13.19689605258036"><ele>765.0</ele><time>2026-05-02T12:33:36Z</time></trkpt><trkpt lat="43.36380954814278" lon="13.196949459666643"><ele>765.0</ele><time>2026-05-02T12:33:38Z</time></trkpt><trkpt lat="43.36372131925472" lon="13.196969743759304"><ele>765.0</ele><time>2026-05-02T12:33:40Z</time></trkpt><trkpt lat="43.36365711338224" lon="13.196891861400411"><ele>765.0</ele><time>2026-05-02T12:33:42Z</time></trkpt><trkpt lat="43.36362961050135" lon="13.196734131599344"><ele>766.4</ele><time>2026-05-02T12:33:44Z</time></trkpt><trkpt lat="43.3636083061741" lon="13.196630737098362"><ele>767.8</ele><time>2026-05-02T12:33:45Z</time></trkpt><trkpt lat="43.363584082783916" lon="13.196498582495312"><ele>769.2</ele><time>2026-05-02T12:33:46Z</time></trkpt><trkpt lat="43.363546078136125" lon="13.196362905445339"><ele>770.6</ele><time>2026-05-02T12:33:47Z</time></trkpt><trkpt lat="43.36353214752449" lon="13.196212111605972"><ele>772.0</ele><time>2026-05-02T12:33:48Z</time></trkpt><trkpt lat="43.363505404209754" lon="13.19606459757957"><ele>773.0</ele><time>2026-05-02T12:33:49Z</time></trkpt><trkpt lat="43.36347458088947" lon="13.195894578634645"><ele>774.0</ele><time>2026-05-02T12:33:50Z</time></trkpt><trkpt lat="43.3634456000023" lon="13.19573472264072"><ele>775.0</ele><time>2026-05-02T12:33:51Z</time></trkpt><trkpt lat="43.363414274229314" lon="13.195561931569525"><ele>776.0</ele><time>2026-05-02T12:33:52Z</time></trkpt><trkpt lat="43.36338156545723" lon="13.195383893041459"><ele>776.5</ele><time>2026-05-02T12:33:53Z</time></trkpt><trkpt lat="43.36334932230117" lon="13.195208929304437"><ele>777.0</ele><time>2026-05-02T12:33:54Z</time></trkpt><trkpt lat="43.36331698899476" lon="13.195033476038471"><ele>777.5</ele><time>2026-05-02T12:33:55Z</time></trkpt><trkpt lat="43.363264924709696" lon="13.19485206875975"><ele>778.0</ele><time>2026-05-02T12:33:56Z</time></trkpt><trkpt lat="43.363227159512064" lon="13.194671451244153"><ele>779.0</ele><time>2026-05-02T12:33:57Z</time></trkpt><trkpt lat="43.3631917152756" lon="13.194493448666565"><ele>780.0</ele><time>2026-05-02T12:33:58Z</time></trkpt><trkpt lat="43.36315793457946" lon="13.194323424764411"><ele>781.0</ele><time>2026-05-02T12:33:59Z</time></trkpt><trkpt lat="43.36312238169587" lon="13.194164348290027"><ele>782.0</ele><time>2026-05-02T12:34:00Z</time></trkpt><trkpt lat="43.3630984070172" lon="13.193987009282903"><ele>782.25</ele><time>2026-05-02T12:34:01Z</time></trkpt><trkpt lat="43.36306656781711" lon="13.193836975095282"><ele>782.5</ele><time>2026-05-02T12:34:02Z</time></trkpt><trkpt lat="43.36302870297879" lon="13.19365854694268"><ele>782.75</ele><time>2026-05-02T12:34:03Z</time></trkpt><trkpt lat="43.362996330558005" lon="13.193502937912442"><ele>783.0</ele><time>2026-05-02T12:34:04Z</time></trkpt><trkpt lat="43.3629481217394" lon="13.193351997296707"><ele>784.0</ele><time>2026-05-02T12:34:05Z</time></trkpt><trkpt lat="43.36291892585614" lon="13.193192298376596"><ele>785.0</ele><time>2026-05-02T12:34:06Z</time></trkpt><trkpt lat="43.362897110613716" lon="13.19301994779859"><ele>786.0</ele><time>2026-05-02T12:34:07Z</time></trkpt><trkpt lat="43.362860762928385" lon="13.192843011998574"><ele>787.0</ele><time>2026-05-02T12:34:08Z</time></trkpt><trkpt lat="43.36281040684537" lon="13.192677180188776"><ele>787.5</ele><time>2026-05-02T12:34:09Z</time></trkpt><trkpt lat="43.362769774602405" lon="13.19248783180834"><ele>788.0</ele><time>2026-05-02T12:34:10Z</time></trkpt><trkpt lat="43.36273551687563" lon="13.192307781628255"><ele>788.5</ele><time>2026-05-02T12:34:11Z</time></trkpt><trkpt lat="43.36270157055995" lon="13.192164001387786"><ele>789.0</ele><time>2026-05-02T12:34:12Z</time></trkpt><trkpt lat="43.36267383637356" lon="13.19204283811588"><ele>789.5</ele><time>2026-05-02T12:34:13Z</time></trkpt><trkpt lat="43.362622833915275" lon="13.191958926513738"><ele>790.0</ele><time>2026-05-02T12:34:14Z</time></trkpt><trkpt lat="43.36254457164244" lon="13.191943246610096"><ele>790.5</ele><time>2026-05-02T12:34:15Z</time></trkpt><trkpt lat="43.36246431710829" lon="13.191834000860714"><ele>791.0</ele><time>2026-05-02T12:34:16Z</time></trkpt><trkpt lat="43.36240463527332" lon="13.191746242573108"><ele>791.5</ele><time>2026-05-02T12:34:17Z</time></trkpt><trkpt lat="43.36234946621635" lon="13.191674686729606"><ele>792.0</ele><time>2026-05-02T12:34:18Z</time></trkpt><trkpt lat="43.36224131672776" lon="13.191560943403752"><ele>792.0</ele><time>2026-05-02T12:34:20Z</time></trkpt><trkpt lat="43.362147789104625" lon="13.191507914470218"><ele>792.0</ele><time>2026-05-02T12:34:22Z</time></trkpt><trkpt lat="43.36204524409049" lon="13.191406510496408"><ele>792.0</ele><time>2026-05-02T12:34:24Z</time></trkpt><trkpt lat="43.36219929119896" lon="13.190906769601321"><ele>791.8333333333334</ele><time>2026-05-02T12:34:25Z</time></trkpt><trkpt lat="43.362134519409324" lon="13.190829793506207"><ele>791.6666666666667</ele><time>2026-05-02T12:34:27Z</time></trkpt><trkpt lat="43.362087591090706" lon="13.1907562979294"><ele>791.5</ele><time>2026-05-02T12:34:31Z</time></trkpt><trkpt lat="43.36201610990435" lon="13.190769391644382"><ele>791.3333333333334</ele><time>2026-05-02T12:34:39Z</time></trkpt><trkpt lat="43.36198860993853" lon="13.19084851315851"><ele>791.1666666666667</ele><time>2026-05-02T12:35:58Z</time></trkpt><trkpt lat="43.36203671724971" lon="13.190965773919496"><ele>791.0</ele><time>2026-05-02T12:36:00Z</time></trkpt><trkpt lat="43.36208667794661" lon="13.191071592672097"><ele>791.0</ele><time>2026-05-02T12:36:01Z</time></trkpt><trkpt lat="43.36213705410681" lon="13.191173575325164"><ele>791.0</ele><time>2026-05-02T12:36:02Z</time></trkpt><trkpt lat="43.362183186367226" lon="13.19126704038272"><ele>791.0</ele><time>2026-05-02T12:36:03Z</time></trkpt><trkpt lat="43.36224142597686" lon="13.19138358089609"><ele>791.0</ele><time>2026-05-02T12:36:04Z</time></trkpt><trkpt lat="43.36230064456821" lon="13.191515514891048"><ele>791.0</ele><time>2026-05-02T12:36:05Z</time></trkpt><trkpt lat="43.362331190895794" lon="13.191607922787815"><ele>791.1666666666667</ele><time>2026-05-02T12:36:06Z</time></trkpt><trkpt lat="43.3623595095011" lon="13.191692728152006"><ele>791.3333333333334</ele><time>2026-05-02T12:36:07Z</time></trkpt><trkpt lat="43.36239954945201" lon="13.191784481600008"><ele>791.5</ele><time>2026-05-02T12:36:08Z</time></trkpt><trkpt lat="43.36244739961916" lon="13.191869937382185"><ele>791.6666666666667</ele><time>2026-05-02T12:36:09Z</time></trkpt><trkpt lat="43.36249731746767" lon="13.191944023333923"><ele>791.8333333333334</ele><time>2026-05-02T12:36:10Z</time></trkpt><trkpt lat="43.36256002726251" lon="13.1920328835013"><ele>792.0</ele><time>2026-05-02T12:36:11Z</time></trkpt><trkpt lat="43.36262130490063" lon="13.192104037134206"><ele>792.0</ele><time>2026-05-02T12:36:12Z</time></trkpt><trkpt lat="43.36269802278277" lon="13.192220496879273"><ele>792.0</ele><time>2026-05-02T12:36:14Z</time></trkpt><trkpt lat="43.362728111087364" lon="13.19238001276355"><ele>792.0</ele><time>2026-05-02T12:36:16Z</time></trkpt><trkpt lat="43.36275273412155" lon="13.192496660278248"><ele>792.0</ele><time>2026-05-02T12:36:17Z</time></trkpt><trkpt lat="43.3627949682509" lon="13.192629057029222"><ele>792.0</ele><time>2026-05-02T12:36:18Z</time></trkpt><trkpt lat="43.36282305247715" lon="13.192770665667613"><ele>791.4000000000001</ele><time>2026-05-02T12:36:19Z</time></trkpt><trkpt lat="43.362855809329446" lon="13.192933047836451"><ele>790.8000000000001</ele><time>2026-05-02T12:36:20Z</time></trkpt><trkpt lat="43.3628882164306" lon="13.1930859770919"><ele>790.2</ele><time>2026-05-02T12:36:21Z</time></trkpt><trkpt lat="43.36290449882585" lon="13.193224312055278"><ele>789.6</ele><time>2026-05-02T12:36:22Z</time></trkpt><trkpt lat="43.36294361292084" lon="13.193340075050456"><ele>789.0</ele><time>2026-05-02T12:36:23Z</time></trkpt><trkpt lat="43.36296633434009" lon="13.193461316238182"><ele>788.6</ele><time>2026-05-02T12:36:24Z</time></trkpt><trkpt lat="43.36299653179627" lon="13.19360055897198"><ele>788.2</ele><time>2026-05-02T12:36:25Z</time></trkpt><trkpt lat="43.36302364029396" lon="13.193743721930394"><ele>787.8000000000001</ele><time>2026-05-02T12:36:26Z</time></trkpt><trkpt lat="43.36305705696568" lon="13.193894278653307"><ele>787.4000000000001</ele><time>2026-05-02T12:36:27Z</time></trkpt><trkpt lat="43.363090719086536" lon="13.194041123230557"><ele>787.0</ele><time>2026-05-02T12:36:28Z</time></trkpt><trkpt lat="43.36311548799717" lon="13.194180826603926"><ele>785.75</ele><time>2026-05-02T12:36:29Z</time></trkpt><trkpt lat="43.363148618197634" lon="13.194328123267596"><ele>784.5</ele><time>2026-05-02T12:36:30Z</time></trkpt><trkpt lat="43.363182120362445" lon="13.194487126533588"><ele>783.25</ele><time>2026-05-02T12:36:31Z</time></trkpt><trkpt lat="43.363217608281936" lon="13.194642081849825"><ele>782.0</ele><time>2026-05-02T12:36:32Z</time></trkpt><trkpt lat="43.363248359483" lon="13.194803934198454"><ele>781.0</ele><time>2026-05-02T12:36:33Z</time></trkpt><trkpt lat="43.363281542170945" lon="13.194966228214897"><ele>780.0</ele><time>2026-05-02T12:36:34Z</time></trkpt><trkpt lat="43.3633143902617" lon="13.19512019535625"><ele>779.0</ele><time>2026-05-02T12:36:35Z</time></trkpt><trkpt lat="43.36334055846595" lon="13.195283634221393"><ele>778.0</ele><time>2026-05-02T12:36:36Z</time></trkpt><trkpt lat="43.36337218465031" lon="13.195452529311103"><ele>778.0</ele><time>2026-05-02T12:36:37Z</time></trkpt><trkpt lat="43.36340407818656" lon="13.195619901367895"><ele>778.0</ele><time>2026-05-02T12:36:38Z</time></trkpt><trkpt lat="43.36343654089999" lon="13.195796673296265"><ele>778.0</ele><time>2026-05-02T12:36:39Z</time></trkpt><trkpt lat="43.363464677167634" lon="13.195942156448783"><ele>778.0</ele><time>2026-05-02T12:36:40Z</time></trkpt><trkpt lat="43.36347610808102" lon="13.196092264418533"><ele>777.5999999999999</ele><time>2026-05-02T12:36:41Z</time></trkpt><trkpt lat="43.3635005015541" lon="13.19622681688636"><ele>777.1999999999999</ele><time>2026-05-02T12:36:42Z</time></trkpt><trkpt lat="43.36353444033997" lon="13.196353080180872"><ele>776.8</ele><time>2026-05-02T12:36:43Z</time></trkpt><trkpt lat="43.36355653526469" lon="13.196474244473901"><ele>776.4</ele><time>2026-05-02T12:36:44Z</time></trkpt><trkpt lat="43.363579305609555" lon="13.196585519683401"><ele>776.0</ele><time>2026-05-02T12:36:45Z</time></trkpt><trkpt lat="43.363600795040945" lon="13.196699811730252"><ele>775.3333333333334</ele><time>2026-05-02T12:36:46Z</time></trkpt><trkpt lat="43.363620422212875" lon="13.1967976568979"><ele>774.6666666666667</ele><time>2026-05-02T12:36:47Z</time></trkpt><trkpt lat="43.363650407459886" lon="13.196941875767234"><ele>774.0</ele><time>2026-05-02T12:36:49Z</time></trkpt><trkpt lat="43.363701396902194" lon="13.19701032586838"><ele>773.3333333333333</ele><time>2026-05-02T12:36:58Z</time></trkpt><trkpt lat="43.36378987515145" lon="13.197042615899992"><ele>772.6666666666666</ele><time>2026-05-02T12:37:00Z</time></trkpt><trkpt lat="43.363847892647506" lon="13.196985085793605"><ele>772.0</ele><time>2026-05-02T12:37:01Z</time></trkpt><trkpt lat="43.363911712318895" lon="13.196934106424834"><ele>770.6</ele><time>2026-05-02T12:37:02Z</time></trkpt><trkpt lat="43.36399825607747" lon="13.196887673334333"><ele>769.2</ele><time>2026-05-02T12:37:03Z</time></trkpt><trkpt lat="43.364073091589916" lon="13.196843204228161"><ele>767.8</ele><time>2026-05-02T12:37:04Z</time></trkpt><trkpt lat="43.36414125914764" lon="13.196778708025146"><ele>766.4</ele><time>2026-05-02T12:37:05Z</time></trkpt><trkpt lat="43.364227403448986" lon="13.196737720023059"><ele>765.0</ele><time>2026-05-02T12:37:06Z</time></trkpt><trkpt lat="43.36432306413603" lon="13.196638070000187"><ele>765.0</ele><time>2026-05-02T12:37:07Z</time></trkpt><trkpt lat="43.36442892206182" lon="13.196534903225075"><ele>765.0</ele><time>2026-05-02T12:37:08Z</time></trkpt><trkpt lat="43.36452274185271" lon="13.19643600654222"><ele>765.0</ele><time>2026-05-02T12:37:09Z</time></trkpt><trkpt lat="43.364626379039116" lon="13.196361109247203"><ele>765.0</ele><time>2026-05-02T12:37:10Z</time></trkpt><trkpt lat="43.364717156495374" lon="13.196273341446403"><ele>763.2</ele><time>2026-05-02T12:37:11Z</time></trkpt><trkpt lat="43.36479470267347" lon="13.196178722751291"><ele>761.4</ele><time>2026-05-02T12:37:12Z</time></trkpt><trkpt lat="43.36488288354611" lon="13.196084495791991"><ele>759.5999999999999</ele><time>2026-05-02T12:37:13Z</time></trkpt><trkpt lat="43.36497662474156" lon="13.195984619096475"><ele>757.8</ele><time>2026-05-02T12:37:14Z</time></trkpt><trkpt lat="43.36506506601204" lon="13.195893922374545"><ele>756.0</ele><time>2026-05-02T12:37:15Z</time></trkpt><trkpt lat="43.36514731592927" lon="13.195807624935673"><ele>756.0</ele><time>2026-05-02T12:37:16Z</time></trkpt><trkpt lat="43.36522772251621" lon="13.195727187609426"><ele>756.0</ele><time>2026-05-02T12:37:17Z</time></trkpt><trkpt lat="43.36530635906014" lon="13.195640576840981"><ele>756.0</ele><time>2026-05-02T12:37:18Z</time></trkpt><trkpt lat="43.365397835625735" lon="13.195569551711765"><ele>756.0</ele><time>2026-05-02T12:37:19Z</time></trkpt><trkpt lat="43.36548540281488" lon="13.195475155564734"><ele>756.0</ele><time>2026-05-02T12:37:20Z</time></trkpt><trkpt lat="43.36558869811736" lon="13.195363804916976"><ele>753.0</ele><time>2026-05-02T12:37:21Z</time></trkpt><trkpt lat="43.365705520318414" lon="13.195237872422284"><ele>750.0</ele><time>2026-05-02T12:37:22Z</time></trkpt><trkpt lat="43.36582716474369" lon="13.195082605173818"><ele>747.0</ele><time>2026-05-02T12:37:23Z</time></trkpt><trkpt lat="43.36594101525512" lon="13.194965571456972"><ele>747.0</ele><time>2026-05-02T12:37:24Z</time></trkpt><trkpt lat="43.3660428225698" lon="13.194894100377503"><ele>747.0</ele><time>2026-05-02T12:37:25Z</time></trkpt><trkpt lat="43.36614300232401" lon="13.194802252856235"><ele>747.0</ele><time>2026-05-02T12:37:26Z</time></trkpt><trkpt lat="43.36624108742303" lon="13.194684950687954"><ele>747.0</ele><time>2026-05-02T12:37:27Z</time></trkpt><trkpt lat="43.366351733459474" lon="13.194601126469898"><ele>745.6</ele><time>2026-05-02T12:37:28Z</time></trkpt><trkpt lat="43.366425915922456" lon="13.194501090747318"><ele>744.2</ele><time>2026-05-02T12:37:29Z</time></trkpt><trkpt lat="43.36648777788851" lon="13.194428150402086"><ele>742.8</ele><time>2026-05-02T12:37:30Z</time></trkpt><trkpt lat="43.36654983985108" lon="13.194389096707264"><ele>741.4</ele><time>2026-05-02T12:37:31Z</time></trkpt><trkpt lat="43.3666414787153" lon="13.19429087956948"><ele>740.0</ele><time>2026-05-02T12:37:33Z</time></trkpt><trkpt lat="43.36671616581248" lon="13.194223438812433"><ele>740.0</ele><time>2026-05-02T12:37:35Z</time></trkpt><trkpt lat="43.36681636494439" lon="13.194272080334908"><ele>740.0</ele><time>2026-05-02T12:37:38Z</time></trkpt><trkpt lat="43.366846673760655" lon="13.194400029228285"><ele>740.0</ele><time>2026-05-02T12:37:40Z</time></trkpt><trkpt lat="43.366859667945356" lon="13.19448729408029"><ele>740.0</ele><time>2026-05-02T12:37:41Z</time></trkpt><trkpt lat="43.36687640584803" lon="13.194584200278417"><ele>740.0</ele><time>2026-05-02T12:37:42Z</time></trkpt><trkpt lat="43.36689629238432" lon="13.19469761748223"><ele>740.0</ele><time>2026-05-02T12:37:43Z</time></trkpt><trkpt lat="43.36691605408595" lon="13.194822115284875"><ele>738.8333333333333</ele><time>2026-05-02T12:37:44Z</time></trkpt><trkpt lat="43.36693493928348" lon="13.194936094900056"><ele>737.6666666666666</ele><time>2026-05-02T12:37:45Z</time></trkpt><trkpt lat="43.36693215348003" lon="13.195051482750252"><ele>736.5</ele><time>2026-05-02T12:37:46Z</time></trkpt><trkpt lat="43.36691882689037" lon="13.1951518120409"><ele>735.3333333333334</ele><time>2026-05-02T12:37:47Z</time></trkpt><trkpt lat="43.36689695524507" lon="13.195250791936127"><ele>734.1666666666667</ele><time>2026-05-02T12:37:48Z</time></trkpt><trkpt lat="43.366857723271636" lon="13.195357124163163"><ele>733.0</ele><time>2026-05-02T12:37:49Z</time></trkpt><trkpt lat="43.36678900706605" lon="13.195516329251529"><ele>731.4</ele><time>2026-05-02T12:37:50Z</time></trkpt><trkpt lat="43.366712201513174" lon="13.195685580124252"><ele>729.8</ele><time>2026-05-02T12:37:51Z</time></trkpt><trkpt lat="43.366649740337984" lon="13.195823918515485"><ele>728.2</ele><time>2026-05-02T12:37:52Z</time></trkpt><trkpt lat="43.366588425236515" lon="13.19591868917877"><ele>726.6</ele><time>2026-05-02T12:37:53Z</time></trkpt><trkpt lat="43.366531168788306" lon="13.19598561188262"><ele>725.0</ele><time>2026-05-02T12:37:54Z</time></trkpt><trkpt lat="43.36647680253147" lon="13.196096850595254"><ele>725.0</ele><time>2026-05-02T12:37:56Z</time></trkpt><trkpt lat="43.36650293278719" lon="13.196181510141889"><ele>725.0</ele><time>2026-05-02T12:37:58Z</time></trkpt><trkpt lat="43.36662656622698" lon="13.196090568343324"><ele>725.0</ele><time>2026-05-02T12:38:03Z</time></trkpt><trkpt lat="43.36671688495202" lon="13.19597444053459"><ele>725.0</ele><time>2026-05-02T12:38:04Z</time></trkpt><trkpt lat="43.36678303287477" lon="13.195851300341115"><ele>725.0</ele><time>2026-05-02T12:38:05Z</time></trkpt><trkpt lat="43.36685490647462" lon="13.195758150345252"><ele>726.6</ele><time>2026-05-02T12:38:06Z</time></trkpt><trkpt lat="43.36691127692954" lon="13.195647059137434"><ele>728.2</ele><time>2026-05-02T12:38:07Z</time></trkpt><trkpt lat="43.366968972926934" lon="13.195521138187264"><ele>729.8</ele><time>2026-05-02T12:38:08Z</time></trkpt><trkpt lat="43.36702631962058" lon="13.195393168879706"><ele>731.4</ele><time>2026-05-02T12:38:09Z</time></trkpt><trkpt lat="43.36708436677283" lon="13.195259783951268"><ele>733.0</ele><time>2026-05-02T12:38:10Z</time></trkpt><trkpt lat="43.367166341610194" lon="13.195071416329988"><ele>729.75</ele><time>2026-05-02T12:38:11Z</time></trkpt><trkpt lat="43.36723144047335" lon="13.19490132209171"><ele>726.5</ele><time>2026-05-02T12:38:12Z</time></trkpt><trkpt lat="43.367300310711315" lon="13.194736645102926"><ele>723.25</ele><time>2026-05-02T12:38:13Z</time></trkpt><trkpt lat="43.367365590151046" lon="13.194536634554868"><ele>720.0</ele><time>2026-05-02T12:38:14Z</time></trkpt><trkpt lat="43.36741421656987" lon="13.194328445245047"><ele>720.0</ele><time>2026-05-02T12:38:15Z</time></trkpt><trkpt lat="43.3674675235169" lon="13.194172934758644"><ele>720.0</ele><time>2026-05-02T12:38:16Z</time></trkpt><trkpt lat="43.36751786069264" lon="13.194030365338856"><ele>720.0</ele><time>2026-05-02T12:38:17Z</time></trkpt><trkpt lat="43.3676115108463" lon="13.193911260467416"><ele>720.0</ele><time>2026-05-02T12:38:18Z</time></trkpt><trkpt lat="43.36770543957164" lon="13.193822456877983"><ele>721.0</ele><time>2026-05-02T12:38:19Z</time></trkpt><trkpt lat="43.367787116322944" lon="13.193766671060693"><ele>722.0</ele><time>2026-05-02T12:38:20Z</time></trkpt><trkpt lat="43.367852655982084" lon="13.193726960994793"><ele>723.0</ele><time>2026-05-02T12:38:21Z</time></trkpt><trkpt lat="43.36791876981544" lon="13.193670660804663"><ele>724.0</ele><time>2026-05-02T12:38:22Z</time></trkpt><trkpt lat="43.367987740506074" lon="13.19364274476542"><ele>725.0</ele><time>2026-05-02T12:38:23Z</time></trkpt><trkpt lat="43.36807052149063" lon="13.193628150814737"><ele>726.0</ele><time>2026-05-02T12:38:24Z</time></trkpt><trkpt lat="43.36815713643633" lon="13.193644936831333"><ele>723.8333333333334</ele><time>2026-05-02T12:38:25Z</time></trkpt><trkpt lat="43.36824382144083" lon="13.193673156938114"><ele>721.6666666666666</ele><time>2026-05-02T12:38:26Z</time></trkpt><trkpt lat="43.36831909359861" lon="13.1937051990486"><ele>719.5</ele><time>2026-05-02T12:38:27Z</time></trkpt><trkpt lat="43.36838181452911" lon="13.19373453587066"><ele>717.3333333333333</ele><time>2026-05-02T12:38:28Z</time></trkpt><trkpt lat="43.36845440560204" lon="13.193769176701403"><ele>715.1666666666666</ele><time>2026-05-02T12:38:30Z</time></trkpt><trkpt lat="43.3684720180061" lon="13.193612946956058"><ele>713.0</ele><time>2026-05-02T12:38:34Z</time></trkpt><trkpt lat="43.368451276071454" lon="13.193522867959743"><ele>713.0</ele><time>2026-05-02T12:38:35Z</time></trkpt><trkpt lat="43.368412344527215" lon="13.193434271514555"><ele>713.0</ele><time>2026-05-02T12:38:36Z</time></trkpt><trkpt lat="43.36837299800065" lon="13.193348197558674"><ele>713.0</ele><time>2026-05-02T12:38:37Z</time></trkpt><trkpt lat="43.36832446853029" lon="13.193245603451912"><ele>713.0</ele><time>2026-05-02T12:38:38Z</time></trkpt><trkpt lat="43.36826690063328" lon="13.193134508745619"><ele>713.0</ele><time>2026-05-02T12:38:39Z</time></trkpt><trkpt lat="43.36818911649313" lon="13.192995530974484"><ele>711.4</ele><time>2026-05-02T12:38:40Z</time></trkpt><trkpt lat="43.368121757120726" lon="13.192870794106478"><ele>709.8</ele><time>2026-05-02T12:38:41Z</time></trkpt><trkpt lat="43.368055088542" lon="13.192761156748205"><ele>708.2</ele><time>2026-05-02T12:38:42Z</time></trkpt><trkpt lat="43.36799706051592" lon="13.192634559865864"><ele>706.6</ele><time>2026-05-02T12:38:43Z</time></trkpt><trkpt lat="43.36794564600502" lon="13.192524953374287"><ele>705.0</ele><time>2026-05-02T12:38:44Z</time></trkpt><trkpt lat="43.36787206643061" lon="13.192364990092914"><ele>706.8</ele><time>2026-05-02T12:38:45Z</time></trkpt><trkpt lat="43.36781650752041" lon="13.192235262755359"><ele>708.6</ele><time>2026-05-02T12:38:46Z</time></trkpt><trkpt lat="43.36778133201967" lon="13.192129713588278"><ele>710.4000000000001</ele><time>2026-05-02T12:38:47Z</time></trkpt><trkpt lat="43.36774127333097" lon="13.192013597688057"><ele>712.2</ele><time>2026-05-02T12:38:48Z</time></trkpt><trkpt lat="43.367673852424694" lon="13.191900769658039"><ele>714.0</ele><time>2026-05-02T12:38:49Z</time></trkpt><trkpt lat="43.36761155420863" lon="13.191794792228638"><ele>714.0</ele><time>2026-05-02T12:38:50Z</time></trkpt><trkpt lat="43.367532984667655" lon="13.191693925126442"><ele>714.0</ele><time>2026-05-02T12:38:51Z</time></trkpt><trkpt lat="43.36746227449457" lon="13.191590803329941"><ele>714.0</ele><time>2026-05-02T12:38:52Z</time></trkpt><trkpt lat="43.367374305510864" lon="13.191473113548907"><ele>714.0</ele><time>2026-05-02T12:38:53Z</time></trkpt><trkpt lat="43.3672893762615" lon="13.191363329562458"><ele>720.25</ele><time>2026-05-02T12:38:54Z</time></trkpt><trkpt lat="43.36721664559974" lon="13.191232523912264"><ele>726.5</ele><time>2026-05-02T12:38:55Z</time></trkpt><trkpt lat="43.36715691480002" lon="13.191092299040486"><ele>732.75</ele><time>2026-05-02T12:38:56Z</time></trkpt><trkpt lat="43.36710263480333" lon="13.190934393316704"><ele>739.0</ele><time>2026-05-02T12:38:57Z</time></trkpt><trkpt lat="43.36704859057462" lon="13.190746206368125"><ele>733.75</ele><time>2026-05-02T12:38:58Z</time></trkpt><trkpt lat="43.3669940099338" lon="13.190577298824456"><ele>728.5</ele><time>2026-05-02T12:38:59Z</time></trkpt><trkpt lat="43.366954315582845" lon="13.190433728681366"><ele>723.25</ele><time>2026-05-02T12:39:00Z</time></trkpt><trkpt lat="43.36691883805051" lon="13.190290088849721"><ele>718.0</ele><time>2026-05-02T12:39:01Z</time></trkpt><trkpt lat="43.366879047521216" lon="13.19014354259237"><ele>718.0</ele><time>2026-05-02T12:39:02Z</time></trkpt><trkpt lat="43.36683004692126" lon="13.189969766834274"><ele>718.0</ele><time>2026-05-02T12:39:03Z</time></trkpt><trkpt lat="43.36675919015816" lon="13.189835853189667"><ele>718.0</ele><time>2026-05-02T12:39:04Z</time></trkpt><trkpt lat="43.36669889641603" lon="13.189688853210333"><ele>718.0</ele><time>2026-05-02T12:39:05Z</time></trkpt><trkpt lat="43.366639736982464" lon="13.189537866152962"><ele>717.0</ele><time>2026-05-02T12:39:06Z</time></trkpt><trkpt lat="43.36656871836172" lon="13.189392318578864"><ele>716.0</ele><time>2026-05-02T12:39:07Z</time></trkpt><trkpt lat="43.36650583783783" lon="13.189263128316556"><ele>715.0</ele><time>2026-05-02T12:39:08Z</time></trkpt><trkpt lat="43.36645198701318" lon="13.189133283048644"><ele>714.0</ele><time>2026-05-02T12:39:09Z</time></trkpt><trkpt lat="43.36640434425274" lon="13.18902244894993"><ele>713.0</ele><time>2026-05-02T12:39:10Z</time></trkpt><trkpt lat="43.36635649821641" lon="13.188915943524238"><ele>713.0</ele><time>2026-05-02T12:39:11Z</time></trkpt><trkpt lat="43.36630656887131" lon="13.18879629099495"><ele>713.0</ele><time>2026-05-02T12:39:12Z</time></trkpt><trkpt lat="43.36624270484929" lon="13.1886549333544"><ele>713.0</ele><time>2026-05-02T12:39:13Z</time></trkpt><trkpt lat="43.366166732248026" lon="13.188489371494041"><ele>713.0</ele><time>2026-05-02T12:39:14Z</time></trkpt><trkpt lat="43.36609012799788" lon="13.188326228280488"><ele>706.5</ele><time>2026-05-02T12:39:15Z</time></trkpt><trkpt lat="43.36602508733214" lon="13.18815969840609"><ele>700.0</ele><time>2026-05-02T12:39:16Z</time></trkpt><trkpt lat="43.365973589040145" lon="13.18802448519903"><ele>693.5</ele><time>2026-05-02T12:39:17Z</time></trkpt><trkpt lat="43.36591767954788" lon="13.187890486834293"><ele>687.0</ele><time>2026-05-02T12:39:18Z</time></trkpt><trkpt lat="43.365857733405676" lon="13.187748694840064"><ele>687.0</ele><time>2026-05-02T12:39:19Z</time></trkpt><trkpt lat="43.365781081292226" lon="13.187560815491242"><ele>687.0</ele><time>2026-05-02T12:39:20Z</time></trkpt><trkpt lat="43.36568482703716" lon="13.187338076422549"><ele>687.0</ele><time>2026-05-02T12:39:21Z</time></trkpt><trkpt lat="43.365609771841775" lon="13.187166448855862"><ele>692.75</ele><time>2026-05-02T12:39:22Z</time></trkpt><trkpt lat="43.3655533193264" lon="13.187049991762022"><ele>698.5</ele><time>2026-05-02T12:39:23Z</time></trkpt><trkpt lat="43.365492401973356" lon="13.186920192389378"><ele>704.25</ele><time>2026-05-02T12:39:24Z</time></trkpt><trkpt lat="43.36541365751956" lon="13.186736045527816"><ele>710.0</ele><time>2026-05-02T12:39:25Z</time></trkpt><trkpt lat="43.36533825676122" lon="13.186573372322032"><ele>700.6666666666666</ele><time>2026-05-02T12:39:26Z</time></trkpt><trkpt lat="43.36525433125611" lon="13.18633916588048"><ele>691.3333333333334</ele><time>2026-05-02T12:39:27Z</time></trkpt><trkpt lat="43.36514595564141" lon="13.186104686741949"><ele>682.0</ele><time>2026-05-02T12:39:28Z</time></trkpt><trkpt lat="43.36510128926046" lon="13.185990726730909"><ele>682.0</ele><time>2026-05-02T12:39:30Z</time></trkpt><trkpt lat="43.36504910991377" lon="13.185862057604565"><ele>682.0</ele><time>2026-05-02T12:39:31Z</time></trkpt><trkpt lat="43.365001614351975" lon="13.185707186987228"><ele>682.0</ele><time>2026-05-02T12:39:32Z</time></trkpt><trkpt lat="43.3649347118764" lon="13.185547242461013"><ele>682.0</ele><time>2026-05-02T12:39:33Z</time></trkpt><trkpt lat="43.36487084148344" lon="13.185382560678812"><ele>682.5</ele><time>2026-05-02T12:39:34Z</time></trkpt><trkpt lat="43.36480951093263" lon="13.18520056758549"><ele>683.0</ele><time>2026-05-02T12:39:35Z</time></trkpt><trkpt lat="43.36474720260908" lon="13.185034791627412"><ele>683.5</ele><time>2026-05-02T12:39:36Z</time></trkpt><trkpt lat="43.36469395109976" lon="13.184868409696536"><ele>684.0</ele><time>2026-05-02T12:39:37Z</time></trkpt><trkpt lat="43.36463609370615" lon="13.1847163559496"><ele>684.0</ele><time>2026-05-02T12:39:38Z</time></trkpt><trkpt lat="43.36458002395529" lon="13.184550009386511"><ele>684.0</ele><time>2026-05-02T12:39:39Z</time></trkpt><trkpt lat="43.36452550955305" lon="13.184394250122903"><ele>684.0</ele><time>2026-05-02T12:39:40Z</time></trkpt><trkpt lat="43.36447554257594" lon="13.184224900711284"><ele>684.0</ele><time>2026-05-02T12:39:41Z</time></trkpt><trkpt lat="43.36440835091128" lon="13.184044087331348"><ele>678.25</ele><time>2026-05-02T12:39:42Z</time></trkpt><trkpt lat="43.3643557577314" lon="13.18388683947507"><ele>672.5</ele><time>2026-05-02T12:39:43Z</time></trkpt><trkpt lat="43.364310078843644" lon="13.183737845338788"><ele>666.75</ele><time>2026-05-02T12:39:44Z</time></trkpt><trkpt lat="43.364266651259726" lon="13.18358871095585"><ele>661.0</ele><time>2026-05-02T12:39:45Z</time></trkpt><trkpt lat="43.3642211561429" lon="13.183440170064658"><ele>661.0</ele><time>2026-05-02T12:39:46Z</time></trkpt><trkpt lat="43.36417039653098" lon="13.18330449789039"><ele>661.0</ele><time>2026-05-02T12:39:47Z</time></trkpt><trkpt lat="43.364141656763636" lon="13.183170490467553"><ele>661.0</ele><time>2026-05-02T12:39:48Z</time></trkpt><trkpt lat="43.36408357514381" lon="13.182943013867085"><ele>661.0</ele><time>2026-05-02T12:39:50Z</time></trkpt><trkpt lat="43.36406068465771" lon="13.182829915644492"><ele>656.8333333333334</ele><time>2026-05-02T12:39:51Z</time></trkpt><trkpt lat="43.36403137154631" lon="13.182706512007083"><ele>652.6666666666667</ele><time>2026-05-02T12:39:52Z</time></trkpt><trkpt lat="43.363997967439474" lon="13.182618805899573"><ele>648.5</ele><time>2026-05-02T12:39:53Z</time></trkpt><trkpt lat="43.363976172370485" lon="13.182514095824272"><ele>644.3333333333334</ele><time>2026-05-02T12:39:54Z</time></trkpt><trkpt lat="43.36395292682626" lon="13.182384879181942"><ele>640.1666666666666</ele><time>2026-05-02T12:39:55Z</time></trkpt><trkpt lat="43.36392724069544" lon="13.182266680908947"><ele>636.0</ele><time>2026-05-02T12:39:56Z</time></trkpt><trkpt lat="43.36390941612484" lon="13.182176960897802"><ele>632.8</ele><time>2026-05-02T12:39:57Z</time></trkpt><trkpt lat="43.363883900445934" lon="13.182057996047725"><ele>629.6</ele><time>2026-05-02T12:39:58Z</time></trkpt><trkpt lat="43.36386701760523" lon="13.181892819769324"><ele>626.4</ele><time>2026-05-02T12:39:59Z</time></trkpt><trkpt lat="43.363837768320764" lon="13.1817605703214"><ele>623.2</ele><time>2026-05-02T12:40:00Z</time></trkpt><trkpt lat="43.36379885040498" lon="13.181623811833516"><ele>620.0</ele><time>2026-05-02T12:40:01Z</time></trkpt><trkpt lat="43.363768291841204" lon="13.181442384381498"><ele>628.75</ele><time>2026-05-02T12:40:02Z</time></trkpt><trkpt lat="43.36371922970577" lon="13.181250795524395"><ele>637.5</ele><time>2026-05-02T12:40:03Z</time></trkpt><trkpt lat="43.36368264268262" lon="13.18108882396696"><ele>646.25</ele><time>2026-05-02T12:40:04Z</time></trkpt><trkpt lat="43.363655066310095" lon="13.180955393394337"><ele>655.0</ele><time>2026-05-02T12:40:05Z</time></trkpt><trkpt lat="43.36364556990883" lon="13.180795988934538"><ele>651.25</ele><time>2026-05-02T12:40:06Z</time></trkpt><trkpt lat="43.36363283609657" lon="13.180618321001466"><ele>647.5</ele><time>2026-05-02T12:40:07Z</time></trkpt><trkpt lat="43.36362734725411" lon="13.180458034152418"><ele>643.75</ele><time>2026-05-02T12:40:08Z</time></trkpt><trkpt lat="43.36360889141104" lon="13.18030747249099"><ele>640.0</ele><time>2026-05-02T12:40:09Z</time></trkpt><trkpt lat="43.36362446952309" lon="13.180169877644335"><ele>640.0</ele><time>2026-05-02T12:40:10Z</time></trkpt><trkpt lat="43.363594187498" lon="13.179996115354529"><ele>640.0</ele><time>2026-05-02T12:40:11Z</time></trkpt><trkpt lat="43.363600285837634" lon="13.17983086913319"><ele>640.0</ele><time>2026-05-02T12:40:12Z</time></trkpt><trkpt lat="43.363589464172975" lon="13.179671740862288"><ele>640.0</ele><time>2026-05-02T12:40:13Z</time></trkpt><trkpt lat="43.363575079762796" lon="13.179529696621302"><ele>637.0</ele><time>2026-05-02T12:40:14Z</time></trkpt><trkpt lat="43.36358149633312" lon="13.179374366529528"><ele>634.0</ele><time>2026-05-02T12:40:15Z</time></trkpt><trkpt lat="43.363568778189865" lon="13.179211449124375"><ele>631.0</ele><time>2026-05-02T12:40:16Z</time></trkpt><trkpt lat="43.36357453578785" lon="13.179049866215228"><ele>628.0</ele><time>2026-05-02T12:40:17Z</time></trkpt><trkpt lat="43.3635757643314" lon="13.178896960861875"><ele>625.1999999999999</ele><time>2026-05-02T12:40:18Z</time></trkpt><trkpt lat="43.36356550093221" lon="13.178737698727087"><ele>622.4</ele><time>2026-05-02T12:40:19Z</time></trkpt><trkpt lat="43.36357445947863" lon="13.178588310050756"><ele>619.5999999999999</ele><time>2026-05-02T12:40:20Z</time></trkpt><trkpt lat="43.36357643952419" lon="13.17845490891639"><ele>616.8</ele><time>2026-05-02T12:40:21Z</time></trkpt><trkpt lat="43.36359649452214" lon="13.178304861006106"><ele>614.0</ele><time>2026-05-02T12:40:22Z</time></trkpt><trkpt lat="43.36359755176858" lon="13.1781737998716"><ele>611.4</ele><time>2026-05-02T12:40:23Z</time></trkpt><trkpt lat="43.36362196984538" lon="13.178035504324486"><ele>608.8</ele><time>2026-05-02T12:40:24Z</time></trkpt><trkpt lat="43.36365264442212" lon="13.177922673337843"><ele>606.2</ele><time>2026-05-02T12:40:25Z</time></trkpt><trkpt lat="43.36371575988883" lon="13.177784923590334"><ele>603.6</ele><time>2026-05-02T12:40:27Z</time></trkpt><trkpt lat="43.363751110459056" lon="13.177681315576008"><ele>601.0</ele><time>2026-05-02T12:40:29Z</time></trkpt><trkpt lat="43.36378060343987" lon="13.177547366595"><ele>601.0</ele><time>2026-05-02T12:40:32Z</time></trkpt><trkpt lat="43.36378595752691" lon="13.177453835284998"><ele>601.0</ele><time>2026-05-02T12:40:33Z</time></trkpt><trkpt lat="43.363763680947045" lon="13.177368903204519"><ele>601.0</ele><time>2026-05-02T12:40:34Z</time></trkpt><trkpt lat="43.363719444514224" lon="13.17720686753402"><ele>601.0</ele><time>2026-05-02T12:40:36Z</time></trkpt><trkpt lat="43.36368637894286" lon="13.177094727712154"><ele>601.0</ele><time>2026-05-02T12:40:38Z</time></trkpt><trkpt lat="43.36365198521187" lon="13.176956524813907"><ele>592.5</ele><time>2026-05-02T12:40:39Z</time></trkpt><trkpt lat="43.36362058756178" lon="13.17683367000586"><ele>584.0</ele><time>2026-05-02T12:40:40Z</time></trkpt><trkpt lat="43.36309683696215" lon="13.17675118609468"><ele>585.0</ele><time>2026-05-02T12:40:43Z</time></trkpt><trkpt lat="43.36303068364022" lon="13.17668341986177"><ele>586.0</ele><time>2026-05-02T12:40:44Z</time></trkpt><trkpt lat="43.36296595415751" lon="13.176576514571565"><ele>587.0</ele><time>2026-05-02T12:40:45Z</time></trkpt><trkpt lat="43.36289058857505" lon="13.176528109579552"><ele>588.0</ele><time>2026-05-02T12:40:46Z</time></trkpt><trkpt lat="43.36281785251482" lon="13.176457300450926"><ele>589.0</ele><time>2026-05-02T12:40:47Z</time></trkpt><trkpt lat="43.36276134511262" lon="13.176403518388161"><ele>590.0</ele><time>2026-05-02T12:40:48Z</time></trkpt><trkpt lat="43.36264470300862" lon="13.1763143617884"><ele>590.0</ele><time>2026-05-02T12:40:50Z</time></trkpt><trkpt lat="43.36255125638625" lon="13.176258833459919"><ele>590.0</ele><time>2026-05-02T12:40:51Z</time></trkpt><trkpt lat="43.362486167339846" lon="13.176236368776607"><ele>590.0</ele><time>2026-05-02T12:40:52Z</time></trkpt><trkpt lat="43.36241750458618" lon="13.176199991353634"><ele>590.0</ele><time>2026-05-02T12:40:53Z</time></trkpt><trkpt lat="43.36232506963106" lon="13.176114633478067"><ele>590.0</ele><time>2026-05-02T12:40:55Z</time></trkpt><trkpt lat="43.36225687627806" lon="13.176085688009032"><ele>590.0</ele><time>2026-05-02T12:40:56Z</time></trkpt><trkpt lat="43.362128896507976" lon="13.176107425415786"><ele>590.2</ele><time>2026-05-02T12:40:58Z</time></trkpt><trkpt lat="43.362057550183174" lon="13.176140745483492"><ele>590.4</ele><time>2026-05-02T12:41:00Z</time></trkpt><trkpt lat="43.361945539360335" lon="13.176187022786532"><ele>590.6</ele><time>2026-05-02T12:41:02Z</time></trkpt><trkpt lat="43.3618443782104" lon="13.17624247836635"><ele>590.8</ele><time>2026-05-02T12:41:04Z</time></trkpt><trkpt lat="43.36177633476088" lon="13.176282929310517"><ele>591.0</ele><time>2026-05-02T12:41:05Z</time></trkpt><trkpt lat="43.361696764563" lon="13.176314862955584"><ele>591.0</ele><time>2026-05-02T12:41:06Z</time></trkpt><trkpt lat="43.361635191200975" lon="13.176358420348034"><ele>591.0</ele><time>2026-05-02T12:41:07Z</time></trkpt><trkpt lat="43.36157785816906" lon="13.176407737437607"><ele>591.0</ele><time>2026-05-02T12:41:08Z</time></trkpt><trkpt lat="43.36148351946076" lon="13.176522316738604"><ele>591.0</ele><time>2026-05-02T12:41:10Z</time></trkpt><trkpt lat="43.36140496575848" lon="13.17660102799676"><ele>591.0</ele><time>2026-05-02T12:41:11Z</time></trkpt><trkpt lat="43.361373390201315" lon="13.176768691409052"><ele>588.1666666666666</ele><time>2026-05-02T12:41:13Z</time></trkpt><trkpt lat="43.361348747885465" lon="13.17688671684892"><ele>585.3333333333334</ele><time>2026-05-02T12:41:14Z</time></trkpt><trkpt lat="43.361320718282336" lon="13.1769895372182"><ele>582.5</ele><time>2026-05-02T12:41:15Z</time></trkpt><trkpt lat="43.36129738095585" lon="13.177097770308288"><ele>579.6666666666667</ele><time>2026-05-02T12:41:16Z</time></trkpt><trkpt lat="43.36128315309677" lon="13.177184366652329"><ele>576.8333333333334</ele><time>2026-05-02T12:41:17Z</time></trkpt><trkpt lat="43.36129671771519" lon="13.177296992902143"><ele>574.0</ele><time>2026-05-02T12:41:19Z</time></trkpt><trkpt lat="43.36131611223857" lon="13.177392012650387"><ele>573.0</ele><time>2026-05-02T12:41:20Z</time></trkpt><trkpt lat="43.36134110898052" lon="13.177510782650888"><ele>572.0</ele><time>2026-05-02T12:41:21Z</time></trkpt><trkpt lat="43.36137178787367" lon="13.177630222879598"><ele>571.0</ele><time>2026-05-02T12:41:22Z</time></trkpt><trkpt lat="43.36139438597179" lon="13.177751330031157"><ele>570.0</ele><time>2026-05-02T12:41:23Z</time></trkpt><trkpt lat="43.36142253839357" lon="13.177853916808917"><ele>569.0</ele><time>2026-05-02T12:41:24Z</time></trkpt><trkpt lat="43.361444164493165" lon="13.177962857155565"><ele>568.0</ele><time>2026-05-02T12:41:25Z</time></trkpt><trkpt lat="43.361450141352286" lon="13.178070335927337"><ele>577.0</ele><time>2026-05-02T12:41:26Z</time></trkpt><trkpt lat="43.36143830187936" lon="13.17823890056469"><ele>586.0</ele><time>2026-05-02T12:41:28Z</time></trkpt><trkpt lat="43.361438397032494" lon="13.178348781155245"><ele>595.0</ele><time>2026-05-02T12:41:30Z</time></trkpt><trkpt lat="43.361425262035056" lon="13.17843998104402"><ele>604.0</ele><time>2026-05-02T12:41:31Z</time></trkpt><trkpt lat="43.36140854761745" lon="13.178528472578565"><ele>613.0</ele><time>2026-05-02T12:41:32Z</time></trkpt><trkpt lat="43.36140627510655" lon="13.178630522586014"><ele>622.0</ele><time>2026-05-02T12:41:33Z</time></trkpt><trkpt lat="43.36140093288613" lon="13.178731103159308"><ele>622.0</ele><time>2026-05-02T12:41:34Z</time></trkpt><trkpt lat="43.36137914566461" lon="13.17883330573702"><ele>622.0</ele><time>2026-05-02T12:41:35Z</time></trkpt><trkpt lat="43.36135248514406" lon="13.178944118067964"><ele>622.0</ele><time>2026-05-02T12:41:36Z</time></trkpt><trkpt lat="43.36133450097737" lon="13.179052476506303"><ele>622.0</ele><time>2026-05-02T12:41:37Z</time></trkpt><trkpt lat="43.361298068580126" lon="13.17913894787511"><ele>622.0</ele><time>2026-05-02T12:41:38Z</time></trkpt><trkpt lat="43.36127093033855" lon="13.17927351760537"><ele>622.0</ele><time>2026-05-02T12:41:40Z</time></trkpt><trkpt lat="43.361244818041044" lon="13.1794191494506"><ele>614.0</ele><time>2026-05-02T12:41:42Z</time></trkpt><trkpt lat="43.36127747682521" lon="13.179540639079288"><ele>606.0</ele><time>2026-05-02T12:41:44Z</time></trkpt><trkpt lat="43.361205195521634" lon="13.179638177248014"><ele>598.0</ele><time>2026-05-02T12:41:46Z</time></trkpt><trkpt lat="43.36108533352366" lon="13.179644743809586"><ele>590.0</ele><time>2026-05-02T12:41:48Z</time></trkpt><trkpt lat="43.36100861630909" lon="13.179605980356111"><ele>582.0</ele><time>2026-05-02T12:41:50Z</time></trkpt><trkpt lat="43.36092684907062" lon="13.179578421199157"><ele>582.0</ele><time>2026-05-02T12:41:52Z</time></trkpt><trkpt lat="43.360825074649895" lon="13.179589352075146"><ele>582.0</ele><time>2026-05-02T12:41:54Z</time></trkpt><trkpt lat="43.360720643730915" lon="13.179638461222236"><ele>582.0</ele><time>2026-05-02T12:41:56Z</time></trkpt><trkpt lat="43.36066153299822" lon="13.179681916555477"><ele>582.0</ele><time>2026-05-02T12:41:57Z</time></trkpt><trkpt lat="43.36060830251668" lon="13.179738347901464"><ele>582.0</ele><time>2026-05-02T12:41:59Z</time></trkpt><trkpt lat="43.360521262145575" lon="13.179763366327315"><ele>582.0</ele><time>2026-05-02T12:42:01Z</time></trkpt><trkpt lat="43.360453426062975" lon="13.179702228780647"><ele>582.3333333333334</ele><time>2026-05-02T12:42:03Z</time></trkpt><trkpt lat="43.360395458000916" lon="13.179655315597214"><ele>582.6666666666666</ele><time>2026-05-02T12:42:04Z</time></trkpt><trkpt lat="43.36027802752753" lon="13.17958623879701"><ele>583.0</ele><time>2026-05-02T12:42:06Z</time></trkpt><trkpt lat="43.36019198742666" lon="13.179552322318782"><ele>583.3333333333333</ele><time>2026-05-02T12:42:07Z</time></trkpt><trkpt lat="43.36012881767998" lon="13.179514196368025"><ele>583.6666666666666</ele><time>2026-05-02T12:42:08Z</time></trkpt><trkpt lat="43.360039137109105" lon="13.179474947251212"><ele>584.0</ele><time>2026-05-02T12:42:09Z</time></trkpt><trkpt lat="43.3599335969875" lon="13.179437597177087"><ele>584.0</ele><time>2026-05-02T12:42:10Z</time></trkpt><trkpt lat="43.35983788530551" lon="13.179406578002142"><ele>584.0</ele><time>2026-05-02T12:42:11Z</time></trkpt><trkpt lat="43.3597436560643" lon="13.179423287539105"><ele>584.0</ele><time>2026-05-02T12:42:12Z</time></trkpt><trkpt lat="43.359662259810484" lon="13.17937685897838"><ele>584.0</ele><time>2026-05-02T12:42:13Z</time></trkpt><trkpt lat="43.359581796443905" lon="13.179320716111961"><ele>584.0</ele><time>2026-05-02T12:42:14Z</time></trkpt><trkpt lat="43.35947666139733" lon="13.17933756314616"><ele>584.2</ele><time>2026-05-02T12:42:16Z</time></trkpt><trkpt lat="43.35940002428674" lon="13.17942868384745"><ele>584.4</ele><time>2026-05-02T12:42:18Z</time></trkpt><trkpt lat="43.359325540637705" lon="13.179528670724752"><ele>584.6</ele><time>2026-05-02T12:42:20Z</time></trkpt><trkpt lat="43.35927992249385" lon="13.179614860006149"><ele>584.8</ele><time>2026-05-02T12:42:21Z</time></trkpt><trkpt lat="43.35921016921019" lon="13.179748349122788"><ele>585.0</ele><time>2026-05-02T12:42:23Z</time></trkpt><trkpt lat="43.35916651985326" lon="13.179925401293865"><ele>589.6</ele><time>2026-05-02T12:42:25Z</time></trkpt><trkpt lat="43.3591292060369" lon="13.180034583597024"><ele>594.2</ele><time>2026-05-02T12:42:26Z</time></trkpt><trkpt lat="43.359075525221755" lon="13.18014903242761"><ele>598.8</ele><time>2026-05-02T12:42:27Z</time></trkpt><trkpt lat="43.35903487446975" lon="13.180272924487008"><ele>603.4</ele><time>2026-05-02T12:42:28Z</time></trkpt><trkpt lat="43.35900826508482" lon="13.18040484181003"><ele>608.0</ele><time>2026-05-02T12:42:29Z</time></trkpt><trkpt lat="43.358970999489024" lon="13.180518184598332"><ele>608.0</ele><time>2026-05-02T12:42:30Z</time></trkpt><trkpt lat="43.35894101155563" lon="13.180621949418628"><ele>608.0</ele><time>2026-05-02T12:42:31Z</time></trkpt><trkpt lat="43.35893509873497" lon="13.180768131917677"><ele>608.0</ele><time>2026-05-02T12:42:33Z</time></trkpt><trkpt lat="43.35894202436949" lon="13.180882354861172"><ele>608.0</ele><time>2026-05-02T12:42:34Z</time></trkpt><trkpt lat="43.35890520556333" lon="13.18098371772908"><ele>608.0</ele><time>2026-05-02T12:42:35Z</time></trkpt><trkpt lat="43.358879252318154" lon="13.1811106564981"><ele>608.0</ele><time>2026-05-02T12:42:36Z</time></trkpt><trkpt lat="43.35884995078125" lon="13.181245148376211"><ele>607.1999999999999</ele><time>2026-05-02T12:42:37Z</time></trkpt><trkpt lat="43.35880860534444" lon="13.181374367682244"><ele>606.4</ele><time>2026-05-02T12:42:38Z</time></trkpt><trkpt lat="43.35878874271519" lon="13.18153385841053"><ele>605.5999999999999</ele><time>2026-05-02T12:42:39Z</time></trkpt><trkpt lat="43.35875904512934" lon="13.181686910019764"><ele>604.8</ele><time>2026-05-02T12:42:40Z</time></trkpt><trkpt lat="43.35872516877915" lon="13.18182529636708"><ele>604.0</ele><time>2026-05-02T12:42:41Z</time></trkpt><trkpt lat="43.358703885295114" lon="13.181924321240881"><ele>604.0</ele><time>2026-05-02T12:42:42Z</time></trkpt><trkpt lat="43.35868613872933" lon="13.182017693204157"><ele>604.0</ele><time>2026-05-02T12:42:43Z</time></trkpt><trkpt lat="43.358656310872014" lon="13.182128252571903"><ele>604.0</ele><time>2026-05-02T12:42:44Z</time></trkpt><trkpt lat="43.35862623359596" lon="13.18227441868613"><ele>604.0</ele><time>2026-05-02T12:42:45Z</time></trkpt><trkpt lat="43.35860077799033" lon="13.182434349186844"><ele>604.0</ele><time>2026-05-02T12:42:46Z</time></trkpt><trkpt lat="43.35857389014463" lon="13.182587721241736"><ele>608.0</ele><time>2026-05-02T12:42:47Z</time></trkpt><trkpt lat="43.35854664710431" lon="13.182698423892713"><ele>612.0</ele><time>2026-05-02T12:42:48Z</time></trkpt><trkpt lat="43.35852676920422" lon="13.182793650124697"><ele>616.0</ele><time>2026-05-02T12:42:49Z</time></trkpt><trkpt lat="43.358498597706095" lon="13.182926873498902"><ele>620.0</ele><time>2026-05-02T12:42:51Z</time></trkpt><trkpt lat="43.35850439431272" lon="13.18308058581917"><ele>624.0</ele><time>2026-05-02T12:42:53Z</time></trkpt><trkpt lat="43.358498425156704" lon="13.18316834229916"><ele>628.0</ele><time>2026-05-02T12:42:54Z</time></trkpt><trkpt lat="43.35847610349043" lon="13.18326890420335"><ele>626.4</ele><time>2026-05-02T12:43:04Z</time></trkpt><trkpt lat="43.35841454381874" lon="13.183352958029689"><ele>624.8</ele><time>2026-05-02T12:43:06Z</time></trkpt><trkpt lat="43.35828059129301" lon="13.183334738832487"><ele>623.2</ele><time>2026-05-02T12:43:08Z</time></trkpt><trkpt lat="43.35819486114078" lon="13.18327353794263"><ele>621.6</ele><time>2026-05-02T12:43:10Z</time></trkpt><trkpt lat="43.35813252199749" lon="13.183231294154076"><ele>620.0</ele><time>2026-05-02T12:43:11Z</time></trkpt><trkpt lat="43.35802379610811" lon="13.183166077745058"><ele>620.0</ele><time>2026-05-02T12:43:13Z</time></trkpt><trkpt lat="43.35795785911606" lon="13.18313238593957"><ele>620.0</ele><time>2026-05-02T12:43:14Z</time></trkpt><trkpt lat="43.35790024124903" lon="13.183192566204594"><ele>620.0</ele><time>2026-05-02T12:43:19Z</time></trkpt><trkpt lat="43.35766425044446" lon="13.183085707658108"><ele>620.0</ele><time>2026-05-02T12:43:20Z</time></trkpt><trkpt lat="43.35756342622591" lon="13.18309130683403"><ele>620.0</ele><time>2026-05-02T12:43:21Z</time></trkpt><trkpt lat="43.357469954837" lon="13.183133336061676"><ele>620.0</ele><time>2026-05-02T12:43:22Z</time></trkpt><trkpt lat="43.35743158508326" lon="13.18321354398529"><ele>620.0</ele><time>2026-05-02T12:43:23Z</time></trkpt><trkpt lat="43.357336249098026" lon="13.183306642491871"><ele>620.0</ele><time>2026-05-02T12:43:24Z</time></trkpt><trkpt lat="43.35725289808184" lon="13.183392335417743"><ele>620.0</ele><time>2026-05-02T12:43:25Z</time></trkpt><trkpt lat="43.357186131863045" lon="13.183495861588236"><ele>619.5</ele><time>2026-05-02T12:43:26Z</time></trkpt><trkpt lat="43.35709983471715" lon="13.183619234774932"><ele>619.0</ele><time>2026-05-02T12:43:27Z</time></trkpt><trkpt lat="43.35702428666867" lon="13.183730211944248"><ele>618.5</ele><time>2026-05-02T12:43:28Z</time></trkpt><trkpt lat="43.35696592727498" lon="13.18381679913574"><ele>618.0</ele><time>2026-05-02T12:43:29Z</time></trkpt><trkpt lat="43.35689807697686" lon="13.183970340369608"><ele>620.4</ele><time>2026-05-02T12:43:31Z</time></trkpt><trkpt lat="43.356863551596525" lon="13.184143924986108"><ele>622.8</ele><time>2026-05-02T12:43:33Z</time></trkpt><trkpt lat="43.356853514622316" lon="13.184251912416162"><ele>625.2</ele><time>2026-05-02T12:43:34Z</time></trkpt><trkpt lat="43.35685537736821" lon="13.184366122557297"><ele>627.6</ele><time>2026-05-02T12:43:35Z</time></trkpt><trkpt lat="43.35684804692662" lon="13.184459551377003"><ele>630.0</ele><time>2026-05-02T12:43:36Z</time></trkpt><trkpt lat="43.35685756198682" lon="13.184583671755824"><ele>630.0</ele><time>2026-05-02T12:43:38Z</time></trkpt><trkpt lat="43.356854484430265" lon="13.18473025778602"><ele>630.0</ele><time>2026-05-02T12:43:40Z</time></trkpt><trkpt lat="43.35686027800996" lon="13.184866452164867"><ele>630.0</ele><time>2026-05-02T12:43:41Z</time></trkpt><trkpt lat="43.35685130762618" lon="13.184999469778528"><ele>630.0</ele><time>2026-05-02T12:43:42Z</time></trkpt><trkpt lat="43.356841416713884" lon="13.185116655194642"><ele>630.0</ele><time>2026-05-02T12:43:43Z</time></trkpt><trkpt lat="43.35684308613828" lon="13.18523549286879"><ele>633.0</ele><time>2026-05-02T12:43:44Z</time></trkpt><trkpt lat="43.35685038409728" lon="13.185330357787466"><ele>636.0</ele><time>2026-05-02T12:43:45Z</time></trkpt><trkpt lat="43.35685473784745" lon="13.18542760423158"><ele>639.0</ele><time>2026-05-02T12:43:46Z</time></trkpt><trkpt lat="43.35683353092918" lon="13.185510032679908"><ele>642.0</ele><time>2026-05-02T12:43:48Z</time></trkpt><trkpt lat="43.35683177239511" lon="13.185602247506344"><ele>645.0</ele><time>2026-05-02T12:43:50Z</time></trkpt><trkpt lat="43.35675994564785" lon="13.185568122218573"><ele>648.0</ele><time>2026-05-02T12:43:52Z</time></trkpt><trkpt lat="43.356668607300584" lon="13.185497632619995"><ele>648.0</ele><time>2026-05-02T12:43:54Z</time></trkpt><trkpt lat="43.356626415020074" lon="13.185432711167202"><ele>648.0</ele><time>2026-05-02T12:43:55Z</time></trkpt><trkpt lat="43.356552057433966" lon="13.185392514966795"><ele>648.0</ele><time>2026-05-02T12:43:56Z</time></trkpt><trkpt lat="43.356492389894534" lon="13.185322372325588"><ele>648.0</ele><time>2026-05-02T12:43:57Z</time></trkpt><trkpt lat="43.35636463547052" lon="13.185283857479089"><ele>648.0</ele><time>2026-05-02T12:43:59Z</time></trkpt><trkpt lat="43.356294473963175" lon="13.18528441961187"><ele>648.0</ele><time>2026-05-02T12:44:00Z</time></trkpt><trkpt lat="43.35624082271259" lon="13.185332400950905"><ele>645.0</ele><time>2026-05-02T12:44:01Z</time></trkpt><trkpt lat="43.3561579003033" lon="13.185377346456436"><ele>642.0</ele><time>2026-05-02T12:44:02Z</time></trkpt><trkpt lat="43.35606479111175" lon="13.185396501970908"><ele>639.0</ele><time>2026-05-02T12:44:03Z</time></trkpt><trkpt lat="43.35598528224096" lon="13.185437920814673"><ele>636.0</ele><time>2026-05-02T12:44:04Z</time></trkpt><trkpt lat="43.35591133563514" lon="13.185503911495603"><ele>633.0</ele><time>2026-05-02T12:44:05Z</time></trkpt><trkpt lat="43.355833622046646" lon="13.18558112789704"><ele>633.0</ele><time>2026-05-02T12:44:06Z</time></trkpt><trkpt lat="43.35578254347075" lon="13.185645561977017"><ele>633.0</ele><time>2026-05-02T12:44:07Z</time></trkpt><trkpt lat="43.35574041429452" lon="13.185728451563056"><ele>633.0</ele><time>2026-05-02T12:44:08Z</time></trkpt><trkpt lat="43.355701782487756" lon="13.185807542728316"><ele>633.0</ele><time>2026-05-02T12:44:09Z</time></trkpt><trkpt lat="43.35563196388515" lon="13.185999651792942"><ele>633.0</ele><time>2026-05-02T12:44:11Z</time></trkpt><trkpt lat="43.35560534575396" lon="13.186109242925674"><ele>633.4</ele><time>2026-05-02T12:44:12Z</time></trkpt><trkpt lat="43.355568693220036" lon="13.186189513175565"><ele>633.8</ele><time>2026-05-02T12:44:13Z</time></trkpt><trkpt lat="43.35544756795155" lon="13.186274204062357"><ele>634.2</ele><time>2026-05-02T12:44:15Z</time></trkpt><trkpt lat="43.35534432208508" lon="13.186339140473352"><ele>634.6</ele><time>2026-05-02T12:44:16Z</time></trkpt><trkpt lat="43.35522822046872" lon="13.186401974570671"><ele>635.0</ele><time>2026-05-02T12:44:17Z</time></trkpt><trkpt lat="43.355150393043914" lon="13.18645616899469"><ele>641.75</ele><time>2026-05-02T12:44:18Z</time></trkpt><trkpt lat="43.35503620162775" lon="13.18659877924191"><ele>648.5</ele><time>2026-05-02T12:44:20Z</time></trkpt><trkpt lat="43.354965816835" lon="13.186725157088787"><ele>655.25</ele><time>2026-05-02T12:44:21Z</time></trkpt><trkpt lat="43.3548995167179" lon="13.186875187299343"><ele>662.0</ele><time>2026-05-02T12:44:22Z</time></trkpt><trkpt lat="43.354823100879116" lon="13.186985649543773"><ele>662.0</ele><time>2026-05-02T12:44:23Z</time></trkpt><trkpt lat="43.35474791215767" lon="13.187118894096846"><ele>662.0</ele><time>2026-05-02T12:44:24Z</time></trkpt><trkpt lat="43.35470996304858" lon="13.187245972708485"><ele>662.0</ele><time>2026-05-02T12:44:25Z</time></trkpt><trkpt lat="43.35466501269046" lon="13.187364541024598"><ele>662.0</ele><time>2026-05-02T12:44:26Z</time></trkpt><trkpt lat="43.35464126455664" lon="13.187494089711722"><ele>662.0</ele><time>2026-05-02T12:44:27Z</time></trkpt><trkpt lat="43.35460390643718" lon="13.187617824016206"><ele>663.5</ele><time>2026-05-02T12:44:28Z</time></trkpt><trkpt lat="43.354569974516906" lon="13.187708644021065"><ele>665.0</ele><time>2026-05-02T12:44:29Z</time></trkpt><trkpt lat="43.35455874823664" lon="13.187853913856685"><ele>666.5</ele><time>2026-05-02T12:44:31Z</time></trkpt><trkpt lat="43.35458668169647" lon="13.187966267337103"><ele>668.0</ele><time>2026-05-02T12:44:32Z</time></trkpt><trkpt lat="43.35460908145353" lon="13.188058056728549"><ele>669.5</ele><time>2026-05-02T12:44:33Z</time></trkpt><trkpt lat="43.354638687286574" lon="13.188202609151801"><ele>671.0</ele><time>2026-05-02T12:44:35Z</time></trkpt><trkpt lat="43.35455216539768" lon="13.188301884533127"><ele>671.0</ele><time>2026-05-02T12:44:37Z</time></trkpt><trkpt lat="43.35440125696814" lon="13.188369346355865"><ele>671.0</ele><time>2026-05-02T12:44:39Z</time></trkpt><trkpt lat="43.354344593694705" lon="13.188429726134393"><ele>671.0</ele><time>2026-05-02T12:44:40Z</time></trkpt><trkpt lat="43.35426424055757" lon="13.188482812679071"><ele>671.0</ele><time>2026-05-02T12:44:41Z</time></trkpt><trkpt lat="43.35415185971034" lon="13.188562695794968"><ele>671.0</ele><time>2026-05-02T12:44:42Z</time></trkpt><trkpt lat="43.35406620066011" lon="13.18860729584654"><ele>671.0</ele><time>2026-05-02T12:44:43Z</time></trkpt><trkpt lat="43.35395028113068" lon="13.188705500984288"><ele>671.0</ele><time>2026-05-02T12:44:45Z</time></trkpt><trkpt lat="43.35394038685222" lon="13.188797921963003"><ele>671.0</ele><time>2026-05-02T12:44:46Z</time></trkpt><trkpt lat="43.353910613404125" lon="13.188908090752543"><ele>671.0</ele><time>2026-05-02T12:44:47Z</time></trkpt><trkpt lat="43.35393341215684" lon="13.189041686639484"><ele>671.0</ele><time>2026-05-02T12:44:49Z</time></trkpt><trkpt lat="43.35396689725823" lon="13.189147812290107"><ele>674.0</ele><time>2026-05-02T12:44:50Z</time></trkpt><trkpt lat="43.35399282361542" lon="13.18922885313904"><ele>677.0</ele><time>2026-05-02T12:44:51Z</time></trkpt><trkpt lat="43.35399599548761" lon="13.189332084392841"><ele>680.0</ele><time>2026-05-02T12:44:52Z</time></trkpt><trkpt lat="43.35401206184009" lon="13.189419976779368"><ele>683.0</ele><time>2026-05-02T12:44:53Z</time></trkpt><trkpt lat="43.35401761918269" lon="13.189585803968626"><ele>686.0</ele><time>2026-05-02T12:44:55Z</time></trkpt><trkpt lat="43.354019499367446" lon="13.189677304008308"><ele>689.0</ele><time>2026-05-02T12:44:56Z</time></trkpt><trkpt lat="43.3540310396694" lon="13.189775574810211"><ele>690.0</ele><time>2026-05-02T12:44:57Z</time></trkpt><trkpt lat="43.35404051172566" lon="13.189885658177186"><ele>691.0</ele><time>2026-05-02T12:44:58Z</time></trkpt><trkpt lat="43.3540827588857" lon="13.189988131679396"><ele>692.0</ele><time>2026-05-02T12:44:59Z</time></trkpt><trkpt lat="43.354109028543064" lon="13.190082368031357"><ele>693.0</ele><time>2026-05-02T12:45:00Z</time></trkpt><trkpt lat="43.35411198306649" lon="13.190214652521847"><ele>694.0</ele><time>2026-05-02T12:45:01Z</time></trkpt><trkpt lat="43.354118547011126" lon="13.190305990618974"><ele>695.0</ele><time>2026-05-02T12:45:02Z</time></trkpt><trkpt lat="43.3541825676151" lon="13.19037408874467"><ele>695.0</ele><time>2026-05-02T12:45:04Z</time></trkpt><trkpt lat="43.354220164007586" lon="13.19046433201125"><ele>695.0</ele><time>2026-05-02T12:45:17Z</time></trkpt><trkpt lat="43.35429286002343" lon="13.19055185716165"><ele>695.0</ele><time>2026-05-02T12:45:19Z</time></trkpt><trkpt lat="43.354363603381614" lon="13.190643915707598"><ele>695.0</ele><time>2026-05-02T12:45:21Z</time></trkpt><trkpt lat="43.35439789184979" lon="13.190727281308135"><ele>695.0</ele><time>2026-05-02T12:45:22Z</time></trkpt><trkpt lat="43.35448106079307" lon="13.190855160043807"><ele>695.8333333333333</ele><time>2026-05-02T12:45:24Z</time></trkpt><trkpt lat="43.354528859857275" lon="13.190943451635428"><ele>696.6666666666666</ele><time>2026-05-02T12:45:25Z</time></trkpt><trkpt lat="43.354589688535555" lon="13.191032520140872"><ele>697.5</ele><time>2026-05-02T12:45:26Z</time></trkpt><trkpt lat="43.35464894268617" lon="13.191102891162187"><ele>698.3333333333334</ele><time>2026-05-02T12:45:27Z</time></trkpt><trkpt lat="43.35470709775609" lon="13.191193532123195"><ele>699.1666666666667</ele><time>2026-05-02T12:45:28Z</time></trkpt><trkpt lat="43.35476012271116" lon="13.191326082756953"><ele>700.0</ele><time>2026-05-02T12:45:29Z</time></trkpt><trkpt lat="43.35482022323837" lon="13.19145439538478"><ele>701.8</ele><time>2026-05-02T12:45:30Z</time></trkpt><trkpt lat="43.35486963940223" lon="13.191598528298709"><ele>703.6</ele><time>2026-05-02T12:45:31Z</time></trkpt><trkpt lat="43.35492647600439" lon="13.191705521521012"><ele>705.4000000000001</ele><time>2026-05-02T12:45:32Z</time></trkpt><trkpt lat="43.35497332013724" lon="13.191830784980526"><ele>707.2</ele><time>2026-05-02T12:45:33Z</time></trkpt><trkpt lat="43.355028315458846" lon="13.19195522784244"><ele>709.0</ele><time>2026-05-02T12:45:34Z</time></trkpt><trkpt lat="43.35508831965086" lon="13.192079019662932"><ele>709.0</ele><time>2026-05-02T12:45:35Z</time></trkpt><trkpt lat="43.35515494688378" lon="13.192223028668934"><ele>709.0</ele><time>2026-05-02T12:45:36Z</time></trkpt><trkpt lat="43.355222105092125" lon="13.192359160527777"><ele>709.0</ele><time>2026-05-02T12:45:37Z</time></trkpt><trkpt lat="43.3552874503259" lon="13.19250692636193"><ele>709.0</ele><time>2026-05-02T12:45:38Z</time></trkpt><trkpt lat="43.35534541323625" lon="13.192651687423611"><ele>710.2</ele><time>2026-05-02T12:45:39Z</time></trkpt><trkpt lat="43.355399831330736" lon="13.192780615598114"><ele>711.4000000000001</ele><time>2026-05-02T12:45:40Z</time></trkpt><trkpt lat="43.35544530032055" lon="13.192901368793219"><ele>712.6</ele><time>2026-05-02T12:45:41Z</time></trkpt><trkpt lat="43.355490402160136" lon="13.193033374689831"><ele>713.8</ele><time>2026-05-02T12:45:42Z</time></trkpt><trkpt lat="43.35555237534726" lon="13.193156967852289"><ele>715.0</ele><time>2026-05-02T12:45:43Z</time></trkpt><trkpt lat="43.355619824926634" lon="13.193280331367776"><ele>716.0</ele><time>2026-05-02T12:45:44Z</time></trkpt><trkpt lat="43.3556731250118" lon="13.193408214609654"><ele>717.0</ele><time>2026-05-02T12:45:45Z</time></trkpt><trkpt lat="43.355724462461865" lon="13.193551675568797"><ele>718.0</ele><time>2026-05-02T12:45:46Z</time></trkpt><trkpt lat="43.35578479928403" lon="13.193681731386857"><ele>719.0</ele><time>2026-05-02T12:45:47Z</time></trkpt><trkpt lat="43.355832082031796" lon="13.193799735592425"><ele>720.0</ele><time>2026-05-02T12:45:48Z</time></trkpt><trkpt lat="43.355896622673" lon="13.193918642564707"><ele>720.25</ele><time>2026-05-02T12:45:49Z</time></trkpt><trkpt lat="43.35596653397515" lon="13.19403641304209"><ele>720.5</ele><time>2026-05-02T12:45:50Z</time></trkpt><trkpt lat="43.35603630172157" lon="13.194171110369718"><ele>720.75</ele><time>2026-05-02T12:45:51Z</time></trkpt><trkpt lat="43.35609749534169" lon="13.194307827055905"><ele>721.0</ele><time>2026-05-02T12:45:52Z</time></trkpt><trkpt lat="43.356159028823484" lon="13.194464163867313"><ele>721.0</ele><time>2026-05-02T12:45:53Z</time></trkpt><trkpt lat="43.35622487087155" lon="13.194627167573868"><ele>721.0</ele><time>2026-05-02T12:45:54Z</time></trkpt><trkpt lat="43.35630529867875" lon="13.194797544196312"><ele>721.0</ele><time>2026-05-02T12:45:55Z</time></trkpt><trkpt lat="43.35639894840111" lon="13.194973307601243"><ele>721.0</ele><time>2026-05-02T12:45:56Z</time></trkpt><trkpt lat="43.356488665394785" lon="13.195144065796313"><ele>722.4</ele><time>2026-05-02T12:45:57Z</time></trkpt><trkpt lat="43.356555638745945" lon="13.19528461158482"><ele>723.8</ele><time>2026-05-02T12:45:58Z</time></trkpt><trkpt lat="43.35662739535798" lon="13.195400194004018"><ele>725.1999999999999</ele><time>2026-05-02T12:45:59Z</time></trkpt><trkpt lat="43.35669985928535" lon="13.195498627732487"><ele>726.5999999999999</ele><time>2026-05-02T12:46:00Z</time></trkpt><trkpt lat="43.356750171855985" lon="13.195619741327564"><ele>728.0</ele><time>2026-05-02T12:46:01Z</time></trkpt><trkpt lat="43.356834834833116" lon="13.195744277959482"><ele>728.0</ele><time>2026-05-02T12:46:02Z</time></trkpt><trkpt lat="43.35691038531923" lon="13.19592061744555"><ele>728.0</ele><time>2026-05-02T12:46:03Z</time></trkpt><trkpt lat="43.35698123727329" lon="13.196070906487325"><ele>728.0</ele><time>2026-05-02T12:46:04Z</time></trkpt><trkpt lat="43.35703552437139" lon="13.196207512920608"><ele>728.0</ele><time>2026-05-02T12:46:05Z</time></trkpt><trkpt lat="43.35709668375656" lon="13.196314570077872"><ele>728.0</ele><time>2026-05-02T12:46:06Z</time></trkpt><trkpt lat="43.35717302199334" lon="13.196430927719396"><ele>728.0</ele><time>2026-05-02T12:46:07Z</time></trkpt><trkpt lat="43.35725575992503" lon="13.196570687236424"><ele>728.0</ele><time>2026-05-02T12:46:08Z</time></trkpt><trkpt lat="43.35732527942578" lon="13.196677085189705"><ele>728.0</ele><time>2026-05-02T12:46:09Z</time></trkpt><trkpt lat="43.35738843523641" lon="13.196775654793278"><ele>728.0</ele><time>2026-05-02T12:46:10Z</time></trkpt><trkpt lat="43.35745696629827" lon="13.19686261187689"><ele>728.1666666666666</ele><time>2026-05-02T12:46:11Z</time></trkpt><trkpt lat="43.3575315281358" lon="13.196935186922648"><ele>728.3333333333333</ele><time>2026-05-02T12:46:12Z</time></trkpt><trkpt lat="43.35760131535612" lon="13.197007922720825"><ele>728.5</ele><time>2026-05-02T12:46:13Z</time></trkpt><trkpt lat="43.35766283878695" lon="13.19703029140354"><ele>728.6666666666666</ele><time>2026-05-02T12:46:14Z</time></trkpt><trkpt lat="43.35774868685638" lon="13.197051261151074"><ele>728.8333333333334</ele><time>2026-05-02T12:46:15Z</time></trkpt><trkpt lat="43.35781563498422" lon="13.197073628334065"><ele>729.0</ele><time>2026-05-02T12:46:16Z</time></trkpt><trkpt lat="43.357917963015645" lon="13.197158551622579"><ele>729.0</ele><time>2026-05-02T12:46:18Z</time></trkpt><trkpt lat="43.357974968914185" lon="13.197217512496367"><ele>729.0</ele><time>2026-05-02T12:46:20Z</time></trkpt><trkpt lat="43.35801448097703" lon="13.197290027698624"><ele>729.0</ele><time>2026-05-02T12:46:34Z</time></trkpt><trkpt lat="43.358075901844394" lon="13.197313333690017"><ele>729.0</ele><time>2026-05-02T12:47:18Z</time></trkpt><trkpt lat="43.3580606068701" lon="13.197214058148896"><ele>729.0</ele><time>2026-05-02T12:47:40Z</time></trkpt><trkpt lat="43.35796186057615" lon="13.197184981374438"><ele>729.0</ele><time>2026-05-02T12:47:42Z</time></trkpt><trkpt lat="43.3578743903353" lon="13.197113290911474"><ele>729.0</ele><time>2026-05-02T12:47:44Z</time></trkpt><trkpt lat="43.35777668231215" lon="13.197042117052572"><ele>729.0</ele><time>2026-05-02T12:47:46Z</time></trkpt><trkpt lat="43.35769707407681" lon="13.197037667621279"><ele>729.0</ele><time>2026-05-02T12:47:48Z</time></trkpt><trkpt lat="43.357642245826895" lon="13.197118947850514"><ele>729.0</ele><time>2026-05-02T12:47:52Z</time></trkpt><trkpt lat="43.35763872845156" lon="13.197268374025406"><ele>729.0</ele><time>2026-05-02T12:47:54Z</time></trkpt><trkpt lat="43.35759561233673" lon="13.197359065120944"><ele>728.75</ele><time>2026-05-02T12:47:56Z</time></trkpt><trkpt lat="43.35747183462021" lon="13.197435764114637"><ele>728.5</ele><time>2026-05-02T12:47:58Z</time></trkpt><trkpt lat="43.3573677558448" lon="13.197496018341685"><ele>728.25</ele><time>2026-05-02T12:47:59Z</time></trkpt><trkpt lat="43.35725776483614" lon="13.197600355209515"><ele>728.0</ele><time>2026-05-02T12:48:00Z</time></trkpt><trkpt lat="43.35713356045857" lon="13.197733813810114"><ele>728.0</ele><time>2026-05-02T12:48:01Z</time></trkpt><trkpt lat="43.35703375125474" lon="13.197871425827284"><ele>728.0</ele><time>2026-05-02T12:48:02Z</time></trkpt><trkpt lat="43.356984345955674" lon="13.198044524799682"><ele>728.0</ele><time>2026-05-02T12:48:03Z</time></trkpt><trkpt lat="43.35694294770683" lon="13.198222453607956"><ele>728.0</ele><time>2026-05-02T12:48:04Z</time></trkpt><trkpt lat="43.35693979294612" lon="13.198386713751152"><ele>728.0</ele><time>2026-05-02T12:48:05Z</time></trkpt><trkpt lat="43.3569255847313" lon="13.198520704744748"><ele>728.0</ele><time>2026-05-02T12:48:06Z</time></trkpt><trkpt lat="43.35692370803782" lon="13.198671524659032"><ele>728.0</ele><time>2026-05-02T12:48:07Z</time></trkpt><trkpt lat="43.35690072110632" lon="13.19880952120797"><ele>728.0</ele><time>2026-05-02T12:48:08Z</time></trkpt><trkpt lat="43.3568593740309" lon="13.198960105589839"><ele>728.0</ele><time>2026-05-02T12:48:09Z</time></trkpt><trkpt lat="43.35678990146212" lon="13.199119911464658"><ele>727.0</ele><time>2026-05-02T12:48:10Z</time></trkpt><trkpt lat="43.356714308773725" lon="13.199285013159594"><ele>726.0</ele><time>2026-05-02T12:48:11Z</time></trkpt><trkpt lat="43.356637121473625" lon="13.199420762386934"><ele>725.0</ele><time>2026-05-02T12:48:12Z</time></trkpt><trkpt lat="43.35656098715307" lon="13.199552456920703"><ele>724.0</ele><time>2026-05-02T12:48:13Z</time></trkpt><trkpt lat="43.356468021771825" lon="13.199641927414682"><ele>724.0</ele><time>2026-05-02T12:48:14Z</time></trkpt><trkpt lat="43.356371682596674" lon="13.199686153988889"><ele>724.0</ele><time>2026-05-02T12:48:15Z</time></trkpt><trkpt lat="43.35626237080463" lon="13.199652923157936"><ele>724.0</ele><time>2026-05-02T12:48:16Z</time></trkpt><trkpt lat="43.35612944095793" lon="13.199630194720793"><ele>724.0</ele><time>2026-05-02T12:48:17Z</time></trkpt><trkpt lat="43.355969500958736" lon="13.199597771365045"><ele>725.0</ele><time>2026-05-02T12:48:18Z</time></trkpt><trkpt lat="43.35579845299508" lon="13.1995565314445"><ele>726.0</ele><time>2026-05-02T12:48:19Z</time></trkpt><trkpt lat="43.355598503711256" lon="13.19951617190854"><ele>727.0</ele><time>2026-05-02T12:48:20Z</time></trkpt><trkpt lat="43.355387816307235" lon="13.19944330675189"><ele>722.0</ele><time>2026-05-02T12:48:21Z</time></trkpt><trkpt lat="43.355175699661906" lon="13.199324489483429"><ele>717.0</ele><time>2026-05-02T12:48:22Z</time></trkpt><trkpt lat="43.354940425116894" lon="13.199175762039472"><ele>720.0</ele><time>2026-05-02T12:48:23Z</time></trkpt><trkpt lat="43.35469242319544" lon="13.199008470807206"><ele>723.0</ele><time>2026-05-02T12:48:24Z</time></trkpt><trkpt lat="43.3544275308063" lon="13.198841852628426"><ele>723.0</ele><time>2026-05-02T12:48:25Z</time></trkpt><trkpt lat="43.35417531584934" lon="13.198667129898944"><ele>723.0</ele><time>2026-05-02T12:48:26Z</time></trkpt><trkpt lat="43.353941938307976" lon="13.198521088423657"><ele>719.3333333333334</ele><time>2026-05-02T12:48:27Z</time></trkpt><trkpt lat="43.35373857690165" lon="13.198408694487584"><ele>715.6666666666667</ele><time>2026-05-02T12:48:28Z</time></trkpt><trkpt lat="43.35355942097729" lon="13.198314007877553"><ele>712.0</ele><time>2026-05-02T12:48:29Z</time></trkpt><trkpt lat="43.353391265285936" lon="13.198244059280164"><ele>712.0</ele><time>2026-05-02T12:48:30Z</time></trkpt><trkpt lat="43.35321740454021" lon="13.198193513656081"><ele>712.0</ele><time>2026-05-02T12:48:31Z</time></trkpt><trkpt lat="43.35305329122759" lon="13.198203203251325"><ele>712.0</ele><time>2026-05-02T12:48:32Z</time></trkpt><trkpt lat="43.35284938091687" lon="13.198216378072644"><ele>710.0</ele><time>2026-05-02T12:48:33Z</time></trkpt><trkpt lat="43.352642978319075" lon="13.198256430219491"><ele>708.0</ele><time>2026-05-02T12:48:34Z</time></trkpt><trkpt lat="43.352413599943276" lon="13.198291256670679"><ele>706.0</ele><time>2026-05-02T12:48:35Z</time></trkpt><trkpt lat="43.35218326651349" lon="13.198321021824771"><ele>702.6666666666667</ele><time>2026-05-02T12:48:36Z</time></trkpt><trkpt lat="43.35196631388676" lon="13.198313424295744"><ele>699.3333333333334</ele><time>2026-05-02T12:48:37Z</time></trkpt><trkpt lat="43.3517509560505" lon="13.198265543186656"><ele>696.0</ele><time>2026-05-02T12:48:38Z</time></trkpt><trkpt lat="43.351563387445054" lon="13.198197532917849"><ele>697.3333333333334</ele><time>2026-05-02T12:48:39Z</time></trkpt><trkpt lat="43.35137648012106" lon="13.198105440932157"><ele>698.6666666666667</ele><time>2026-05-02T12:48:40Z</time></trkpt><trkpt lat="43.351186188303814" lon="13.19798393087522"><ele>700.0</ele><time>2026-05-02T12:48:41Z</time></trkpt><trkpt lat="43.35099029878981" lon="13.197838664125102"><ele>700.0</ele><time>2026-05-02T12:48:42Z</time></trkpt><trkpt lat="43.350774833828204" lon="13.197697664326126"><ele>700.0</ele><time>2026-05-02T12:48:43Z</time></trkpt><trkpt lat="43.3505585170031" lon="13.197527529808287"><ele>702.5</ele><time>2026-05-02T12:48:44Z</time></trkpt><trkpt lat="43.350351049359496" lon="13.19736640250936"><ele>705.0</ele><time>2026-05-02T12:48:45Z</time></trkpt><trkpt lat="43.350160674935296" lon="13.19722258841416"><ele>705.0</ele><time>2026-05-02T12:48:46Z</time></trkpt><trkpt lat="43.34999034850801" lon="13.197093654224227"><ele>705.0</ele><time>2026-05-02T12:48:47Z</time></trkpt><trkpt lat="43.34983820926018" lon="13.196971105171462"><ele>705.0</ele><time>2026-05-02T12:48:48Z</time></trkpt><trkpt lat="43.349705465306506" lon="13.19686409128859"><ele>702.4</ele><time>2026-05-02T12:48:49Z</time></trkpt><trkpt lat="43.349584629926966" lon="13.196782372076065"><ele>699.8</ele><time>2026-05-02T12:48:50Z</time></trkpt><trkpt lat="43.34947960928043" lon="13.196722444616691"><ele>697.2</ele><time>2026-05-02T12:48:51Z</time></trkpt><trkpt lat="43.34940014970139" lon="13.196663239622596"><ele>694.6</ele><time>2026-05-02T12:48:52Z</time></trkpt><trkpt lat="43.34932681949206" lon="13.196636725400097"><ele>692.0</ele><time>2026-05-02T12:48:53Z</time></trkpt><trkpt lat="43.34922298929215" lon="13.196579696565111"><ele>692.0</ele><time>2026-05-02T12:48:55Z</time></trkpt><trkpt lat="43.34914832552063" lon="13.196665993008638"><ele>692.0</ele><time>2026-05-02T12:48:56Z</time></trkpt><trkpt lat="43.349036828160216" lon="13.196702163715477"><ele>692.0</ele><time>2026-05-02T12:48:58Z</time></trkpt><trkpt lat="43.34897204821369" lon="13.19673246034011"><ele>692.0</ele><time>2026-05-02T12:48:59Z</time></trkpt><trkpt lat="43.34890909457481" lon="13.196790228495908"><ele>692.0</ele><time>2026-05-02T12:49:00Z</time></trkpt><trkpt lat="43.34886230155728" lon="13.196884466540656"><ele>692.0</ele><time>2026-05-02T12:49:01Z</time></trkpt><trkpt lat="43.348817886379145" lon="13.196984677754937"><ele>688.4000000000001</ele><time>2026-05-02T12:49:02Z</time></trkpt><trkpt lat="43.3488087586889" lon="13.197102545349258"><ele>684.8000000000001</ele><time>2026-05-02T12:49:03Z</time></trkpt><trkpt lat="43.348805919695785" lon="13.197240433043307"><ele>681.2</ele><time>2026-05-02T12:49:04Z</time></trkpt><trkpt lat="43.3488111191391" lon="13.19740601190319"><ele>677.6</ele><time>2026-05-02T12:49:05Z</time></trkpt><trkpt lat="43.34881368873188" lon="13.19759811792585"><ele>674.0</ele><time>2026-05-02T12:49:06Z</time></trkpt><trkpt lat="43.348805521199225" lon="13.197812803459794"><ele>674.0</ele><time>2026-05-02T12:49:07Z</time></trkpt><trkpt lat="43.34876948637283" lon="13.198029879854802"><ele>674.0</ele><time>2026-05-02T12:49:08Z</time></trkpt><trkpt lat="43.34877718384916" lon="13.198233782662847"><ele>674.0</ele><time>2026-05-02T12:49:09Z</time></trkpt><trkpt lat="43.34877962586043" lon="13.19843936660865"><ele>675.0</ele><time>2026-05-02T12:49:10Z</time></trkpt><trkpt lat="43.348799634903976" lon="13.19863598758715"><ele>676.0</ele><time>2026-05-02T12:49:11Z</time></trkpt><trkpt lat="43.34879315214044" lon="13.198830632644404"><ele>677.0</ele><time>2026-05-02T12:49:12Z</time></trkpt><trkpt lat="43.34879785768201" lon="13.199087002093275"><ele>678.6666666666666</ele><time>2026-05-02T12:49:13Z</time></trkpt><trkpt lat="43.34879657320876" lon="13.199328226912256"><ele>680.3333333333334</ele><time>2026-05-02T12:49:14Z</time></trkpt><trkpt lat="43.34880183324043" lon="13.19955527035141"><ele>682.0</ele><time>2026-05-02T12:49:15Z</time></trkpt><trkpt lat="43.348800660380704" lon="13.199769133886223"><ele>683.6666666666667</ele><time>2026-05-02T12:49:16Z</time></trkpt><trkpt lat="43.34882076159411" lon="13.199981562959964"><ele>685.3333333333334</ele><time>2026-05-02T12:49:17Z</time></trkpt><trkpt lat="43.3488413948417" lon="13.200199952026697"><ele>687.0</ele><time>2026-05-02T12:49:18Z</time></trkpt><trkpt lat="43.34886350303544" lon="13.200416262518639"><ele>687.0</ele><time>2026-05-02T12:49:19Z</time></trkpt><trkpt lat="43.348856252795144" lon="13.200630258908392"><ele>687.0</ele><time>2026-05-02T12:49:20Z</time></trkpt><trkpt lat="43.348875681053926" lon="13.20087594655178"><ele>687.0</ele><time>2026-05-02T12:49:21Z</time></trkpt><trkpt lat="43.34890498152605" lon="13.201133613697328"><ele>699.0</ele><time>2026-05-02T12:49:22Z</time></trkpt><trkpt lat="43.34890550666705" lon="13.201416367577005"><ele>711.0</ele><time>2026-05-02T12:49:23Z</time></trkpt><trkpt lat="43.34890432530486" lon="13.201650954856156"><ele>723.0</ele><time>2026-05-02T12:49:24Z</time></trkpt><trkpt lat="43.348916258199765" lon="13.201841222831387"><ele>724.2</ele><time>2026-05-02T12:49:25Z</time></trkpt><trkpt lat="43.34893681201924" lon="13.20199926668111"><ele>725.4</ele><time>2026-05-02T12:49:26Z</time></trkpt><trkpt lat="43.348955511965244" lon="13.20213929807241"><ele>726.6</ele><time>2026-05-02T12:49:27Z</time></trkpt><trkpt lat="43.3489736549276" lon="13.202286786705052"><ele>727.8000000000001</ele><time>2026-05-02T12:49:28Z</time></trkpt><trkpt lat="43.3489776988443" lon="13.202422944752755"><ele>729.0</ele><time>2026-05-02T12:49:29Z</time></trkpt><trkpt lat="43.34900755072245" lon="13.202546676250657"><ele>729.5</ele><time>2026-05-02T12:49:30Z</time></trkpt><trkpt lat="43.34903082507082" lon="13.202666393061447"><ele>730.0</ele><time>2026-05-02T12:49:31Z</time></trkpt><trkpt lat="43.34905177132552" lon="13.202777361726996"><ele>730.5</ele><time>2026-05-02T12:49:32Z</time></trkpt><trkpt lat="43.349058487589886" lon="13.202881318707176"><ele>731.0</ele><time>2026-05-02T12:49:33Z</time></trkpt><trkpt lat="43.34906859053889" lon="13.202999121528753"><ele>731.5</ele><time>2026-05-02T12:49:34Z</time></trkpt><trkpt lat="43.34906551623872" lon="13.203130425893692"><ele>732.0</ele><time>2026-05-02T12:49:35Z</time></trkpt><trkpt lat="43.349064279794625" lon="13.203284520393266"><ele>732.6</ele><time>2026-05-02T12:49:36Z</time></trkpt><trkpt lat="43.3490626788834" lon="13.203427361106005"><ele>733.2</ele><time>2026-05-02T12:49:37Z</time></trkpt><trkpt lat="43.34906109877043" lon="13.203568345986495"><ele>733.8</ele><time>2026-05-02T12:49:38Z</time></trkpt><trkpt lat="43.3490628861572" lon="13.20370636069683"><ele>734.4</ele><time>2026-05-02T12:49:39Z</time></trkpt><trkpt lat="43.349065218186546" lon="13.203838524723608"><ele>735.0</ele><time>2026-05-02T12:49:40Z</time></trkpt><trkpt lat="43.34908055987985" lon="13.20397489722222"><ele>735.5</ele><time>2026-05-02T12:49:41Z</time></trkpt><trkpt lat="43.349086107370354" lon="13.20417825448467"><ele>736.0</ele><time>2026-05-02T12:49:42Z</time></trkpt><trkpt lat="43.349104411057624" lon="13.204359023800155"><ele>736.5</ele><time>2026-05-02T12:49:43Z</time></trkpt><trkpt lat="43.349102173916286" lon="13.204529578768563"><ele>737.0</ele><time>2026-05-02T12:49:44Z</time></trkpt><trkpt lat="43.34911994197238" lon="13.204729638822391"><ele>737.25</ele><time>2026-05-02T12:49:45Z</time></trkpt><trkpt lat="43.34914872071766" lon="13.204904476005668"><ele>737.5</ele><time>2026-05-02T12:49:46Z</time></trkpt><trkpt lat="43.349165570968104" lon="13.205086528244149"><ele>737.75</ele><time>2026-05-02T12:49:47Z</time></trkpt><trkpt lat="43.34919047608973" lon="13.205301020861949"><ele>738.0</ele><time>2026-05-02T12:49:48Z</time></trkpt><trkpt lat="43.34921126030528" lon="13.205498188622556"><ele>739.3333333333334</ele><time>2026-05-02T12:49:49Z</time></trkpt><trkpt lat="43.3492148451481" lon="13.20569412016897"><ele>740.6666666666667</ele><time>2026-05-02T12:49:50Z</time></trkpt><trkpt lat="43.349232559625435" lon="13.205905481819551"><ele>742.0</ele><time>2026-05-02T12:49:51Z</time></trkpt><trkpt lat="43.349267877142466" lon="13.206119331654113"><ele>742.0</ele><time>2026-05-02T12:49:52Z</time></trkpt><trkpt lat="43.34927569741369" lon="13.206353655569504"><ele>742.0</ele><time>2026-05-02T12:49:53Z</time></trkpt><trkpt lat="43.349300629857424" lon="13.20658691905684"><ele>742.0</ele><time>2026-05-02T12:49:54Z</time></trkpt><trkpt lat="43.349325584941404" lon="13.206812519443217"><ele>741.6666666666667</ele><time>2026-05-02T12:49:55Z</time></trkpt><trkpt lat="43.34936490349119" lon="13.207017578506273"><ele>741.3333333333334</ele><time>2026-05-02T12:49:56Z</time></trkpt><trkpt lat="43.34937106020805" lon="13.207228861643506"><ele>741.0</ele><time>2026-05-02T12:49:57Z</time></trkpt><trkpt lat="43.34939188681132" lon="13.207431232632773"><ele>741.5</ele><time>2026-05-02T12:49:58Z</time></trkpt><trkpt lat="43.34941374397366" lon="13.207643617460684"><ele>742.0</ele><time>2026-05-02T12:49:59Z</time></trkpt><trkpt lat="43.34942946526866" lon="13.207829702966176"><ele>742.5</ele><time>2026-05-02T12:50:00Z</time></trkpt><trkpt lat="43.34945853722002" lon="13.208007952450236"><ele>743.0</ele><time>2026-05-02T12:50:01Z</time></trkpt><trkpt lat="43.3494617780684" lon="13.20818142779902"><ele>744.0</ele><time>2026-05-02T12:50:02Z</time></trkpt><trkpt lat="43.34949104470537" lon="13.208354539320839"><ele>745.0</ele><time>2026-05-02T12:50:03Z</time></trkpt><trkpt lat="43.349536918157995" lon="13.208514975420865"><ele>746.0</ele><time>2026-05-02T12:50:04Z</time></trkpt><trkpt lat="43.34956202760559" lon="13.208704676203915"><ele>747.0</ele><time>2026-05-02T12:50:05Z</time></trkpt><trkpt lat="43.34958875297291" lon="13.208877701754625"><ele>747.5</ele><time>2026-05-02T12:50:06Z</time></trkpt><trkpt lat="43.349627333709385" lon="13.20905674106872"><ele>748.0</ele><time>2026-05-02T12:50:07Z</time></trkpt><trkpt lat="43.349673180995204" lon="13.209230667594374"><ele>748.5</ele><time>2026-05-02T12:50:08Z</time></trkpt><trkpt lat="43.34969206545655" lon="13.209426628816349"><ele>749.0</ele><time>2026-05-02T12:50:09Z</time></trkpt><trkpt lat="43.349730295230486" lon="13.20962353430563"><ele>752.25</ele><time>2026-05-02T12:50:10Z</time></trkpt><trkpt lat="43.349738394536956" lon="13.20979179761979"><ele>755.5</ele><time>2026-05-02T12:50:11Z</time></trkpt><trkpt lat="43.34975258617685" lon="13.209998275974243"><ele>758.75</ele><time>2026-05-02T12:50:12Z</time></trkpt><trkpt lat="43.34976175159168" lon="13.210207832045777"><ele>762.0</ele><time>2026-05-02T12:50:13Z</time></trkpt><trkpt lat="43.3497884381759" lon="13.210379902009379"><ele>762.25</ele><time>2026-05-02T12:50:14Z</time></trkpt><trkpt lat="43.34974146294138" lon="13.210545957540983"><ele>762.5</ele><time>2026-05-02T12:50:15Z</time></trkpt><trkpt lat="43.3497338616159" lon="13.210711069855213"><ele>762.75</ele><time>2026-05-02T12:50:16Z</time></trkpt><trkpt lat="43.34974059393474" lon="13.210858786529384"><ele>763.0</ele><time>2026-05-02T12:50:17Z</time></trkpt><trkpt lat="43.34973901032208" lon="13.211010390287397"><ele>763.0</ele><time>2026-05-02T12:50:18Z</time></trkpt><trkpt lat="43.3497491620163" lon="13.211167458740512"><ele>763.0</ele><time>2026-05-02T12:50:19Z</time></trkpt><trkpt lat="43.34976806583703" lon="13.211317811106046"><ele>763.0</ele><time>2026-05-02T12:50:20Z</time></trkpt><trkpt lat="43.34978506752822" lon="13.21146955601535"><ele>763.0</ele><time>2026-05-02T12:50:21Z</time></trkpt><trkpt lat="43.349815045089116" lon="13.211620521422368"><ele>761.0</ele><time>2026-05-02T12:50:22Z</time></trkpt><trkpt lat="43.349857355183076" lon="13.211751592376736"><ele>759.0</ele><time>2026-05-02T12:50:23Z</time></trkpt><trkpt lat="43.349909856270806" lon="13.211881249730833"><ele>757.0</ele><time>2026-05-02T12:50:24Z</time></trkpt><trkpt lat="43.34995809596515" lon="13.21201562033722"><ele>755.0</ele><time>2026-05-02T12:50:25Z</time></trkpt><trkpt lat="43.350008630880005" lon="13.212163109795732"><ele>753.0</ele><time>2026-05-02T12:50:26Z</time></trkpt><trkpt lat="43.350075901805575" lon="13.212304423916663"><ele>750.25</ele><time>2026-05-02T12:50:27Z</time></trkpt><trkpt lat="43.35015511252167" lon="13.212455236512964"><ele>747.5</ele><time>2026-05-02T12:50:28Z</time></trkpt><trkpt lat="43.3502331209805" lon="13.212616017623795"><ele>744.75</ele><time>2026-05-02T12:50:29Z</time></trkpt><trkpt lat="43.35031841794062" lon="13.212775956206604"><ele>742.0</ele><time>2026-05-02T12:50:30Z</time></trkpt><trkpt lat="43.35042179328018" lon="13.212978466838885"><ele>743.5</ele><time>2026-05-02T12:50:31Z</time></trkpt><trkpt lat="43.350501521737954" lon="13.21316308000642"><ele>745.0</ele><time>2026-05-02T12:50:32Z</time></trkpt><trkpt lat="43.350576314931786" lon="13.213335124148381"><ele>746.5</ele><time>2026-05-02T12:50:33Z</time></trkpt><trkpt lat="43.350634742055526" lon="13.213477358488554"><ele>748.0</ele><time>2026-05-02T12:50:34Z</time></trkpt><trkpt lat="43.35069946533542" lon="13.213683805051609"><ele>748.0</ele><time>2026-05-02T12:50:35Z</time></trkpt><trkpt lat="43.350752770798145" lon="13.213851255299772"><ele>748.0</ele><time>2026-05-02T12:50:36Z</time></trkpt><trkpt lat="43.350802323721155" lon="13.214037285868098"><ele>748.0</ele><time>2026-05-02T12:50:37Z</time></trkpt><trkpt lat="43.35084362573319" lon="13.214201418997856"><ele>748.0</ele><time>2026-05-02T12:50:38Z</time></trkpt><trkpt lat="43.350883258846295" lon="13.2143335639739"><ele>745.8</ele><time>2026-05-02T12:50:39Z</time></trkpt><trkpt lat="43.35092117312234" lon="13.214460838193045"><ele>743.5999999999999</ele><time>2026-05-02T12:50:40Z</time></trkpt><trkpt lat="43.35096931254761" lon="13.214562856876203"><ele>741.4000000000001</ele><time>2026-05-02T12:50:41Z</time></trkpt><trkpt lat="43.35100135276653" lon="13.214659000655912"><ele>739.2</ele><time>2026-05-02T12:50:42Z</time></trkpt><trkpt lat="43.3510333799911" lon="13.214816965425872"><ele>737.0</ele><time>2026-05-02T12:50:44Z</time></trkpt><trkpt lat="43.350967241129254" lon="13.214939562272614"><ele>735.8333333333333</ele><time>2026-05-02T12:50:46Z</time></trkpt><trkpt lat="43.35088343615262" lon="13.215008051502643"><ele>734.6666666666666</ele><time>2026-05-02T12:50:48Z</time></trkpt><trkpt lat="43.35083369934797" lon="13.2151007237072"><ele>733.5</ele><time>2026-05-02T12:50:50Z</time></trkpt><trkpt lat="43.3508391676085" lon="13.215231172576994"><ele>732.3333333333334</ele><time>2026-05-02T12:50:52Z</time></trkpt><trkpt lat="43.35086982959652" lon="13.215314348352738"><ele>731.1666666666667</ele><time>2026-05-02T12:50:53Z</time></trkpt><trkpt lat="43.350945023011825" lon="13.215405499466467"><ele>730.0</ele><time>2026-05-02T12:50:55Z</time></trkpt><trkpt lat="43.35100897563852" lon="13.21544781725658"><ele>730.0</ele><time>2026-05-02T12:50:56Z</time></trkpt><trkpt lat="43.351076474622396" lon="13.21551618236776"><ele>730.0</ele><time>2026-05-02T12:50:57Z</time></trkpt><trkpt lat="43.3511579494457" lon="13.215626342936362"><ele>730.0</ele><time>2026-05-02T12:50:59Z</time></trkpt><trkpt lat="43.35122982578801" lon="13.21572584102481"><ele>730.0</ele><time>2026-05-02T12:51:01Z</time></trkpt><trkpt lat="43.35129560096302" lon="13.215790644369028"><ele>730.0</ele><time>2026-05-02T12:51:03Z</time></trkpt><trkpt lat="43.35134884912924" lon="13.21585811741059"><ele>729.8</ele><time>2026-05-02T12:51:05Z</time></trkpt><trkpt lat="43.35141201635361" lon="13.21588501386542"><ele>729.6</ele><time>2026-05-02T12:51:09Z</time></trkpt><trkpt lat="43.35151090455742" lon="13.21599058765086"><ele>729.4000000000001</ele><time>2026-05-02T12:51:11Z</time></trkpt><trkpt lat="43.35157579712551" lon="13.216059323005396"><ele>729.2</ele><time>2026-05-02T12:51:12Z</time></trkpt><trkpt lat="43.35166203510538" lon="13.216118002386285"><ele>729.0</ele><time>2026-05-02T12:51:14Z</time></trkpt><trkpt lat="43.35174839406579" lon="13.2162021602015"><ele>729.0</ele><time>2026-05-02T12:51:16Z</time></trkpt><trkpt lat="43.351852469972975" lon="13.21626415997426"><ele>729.0</ele><time>2026-05-02T12:51:18Z</time></trkpt><trkpt lat="43.35190779574674" lon="13.216357674615377"><ele>729.0</ele><time>2026-05-02T12:51:19Z</time></trkpt><trkpt lat="43.35201667021186" lon="13.216479102834871"><ele>729.0</ele><time>2026-05-02T12:51:21Z</time></trkpt><trkpt lat="43.35205825303561" lon="13.21654736060181"><ele>729.0</ele><time>2026-05-02T12:51:22Z</time></trkpt><trkpt lat="43.35212064994454" lon="13.216626997977707"><ele>730.2</ele><time>2026-05-02T12:51:23Z</time></trkpt><trkpt lat="43.352197885517" lon="13.21670603210864"><ele>731.4000000000001</ele><time>2026-05-02T12:51:24Z</time></trkpt><trkpt lat="43.352263535698626" lon="13.216800524748649"><ele>732.6</ele><time>2026-05-02T12:51:25Z</time></trkpt><trkpt lat="43.35233264758167" lon="13.216905915803952"><ele>733.8</ele><time>2026-05-02T12:51:26Z</time></trkpt><trkpt lat="43.3523881748029" lon="13.21700282453836"><ele>735.0</ele><time>2026-05-02T12:51:27Z</time></trkpt><trkpt lat="43.35245326199493" lon="13.217131602989303"><ele>733.6</ele><time>2026-05-02T12:51:28Z</time></trkpt><trkpt lat="43.35250660799651" lon="13.217249007356433"><ele>732.2</ele><time>2026-05-02T12:51:29Z</time></trkpt><trkpt lat="43.35257546882879" lon="13.217356844861833"><ele>730.8</ele><time>2026-05-02T12:51:30Z</time></trkpt><trkpt lat="43.35261951560909" lon="13.217458293218549"><ele>729.4</ele><time>2026-05-02T12:51:31Z</time></trkpt><trkpt lat="43.352664502167954" lon="13.217555068224629"><ele>728.0</ele><time>2026-05-02T12:51:32Z</time></trkpt><trkpt lat="43.35271338856297" lon="13.217674974810839"><ele>728.0</ele><time>2026-05-02T12:51:34Z</time></trkpt><trkpt lat="43.352750935753825" lon="13.217804405708494"><ele>728.0</ele><time>2026-05-02T12:51:35Z</time></trkpt><trkpt lat="43.35281706870271" lon="13.217957899393399"><ele>728.0</ele><time>2026-05-02T12:51:36Z</time></trkpt><trkpt lat="43.35287419284091" lon="13.218073305945977"><ele>728.0</ele><time>2026-05-02T12:51:37Z</time></trkpt><trkpt lat="43.35294525232203" lon="13.21820927924915"><ele>730.0</ele><time>2026-05-02T12:51:38Z</time></trkpt><trkpt lat="43.3530022547025" lon="13.218362392942652"><ele>732.0</ele><time>2026-05-02T12:51:39Z</time></trkpt><trkpt lat="43.3530755853001" lon="13.218484315121342"><ele>734.0</ele><time>2026-05-02T12:51:40Z</time></trkpt><trkpt lat="43.3531452288844" lon="13.218640718788281"><ele>736.0</ele><time>2026-05-02T12:51:41Z</time></trkpt><trkpt lat="43.35323065416511" lon="13.218801508681223"><ele>733.1999999999999</ele><time>2026-05-02T12:51:42Z</time></trkpt><trkpt lat="43.35328833310857" lon="13.218913093835456"><ele>730.4</ele><time>2026-05-02T12:51:43Z</time></trkpt><trkpt lat="43.353338539063984" lon="13.219036503910704"><ele>727.6</ele><time>2026-05-02T12:51:44Z</time></trkpt><trkpt lat="43.35338023999523" lon="13.219145538504963"><ele>724.8</ele><time>2026-05-02T12:51:45Z</time></trkpt><trkpt lat="43.353442846715694" lon="13.219310498383074"><ele>722.0</ele><time>2026-05-02T12:51:46Z</time></trkpt><trkpt lat="43.35350860650596" lon="13.219469580682134"><ele>722.0</ele><time>2026-05-02T12:51:47Z</time></trkpt><trkpt lat="43.353577046924414" lon="13.21956121441516"><ele>722.0</ele><time>2026-05-02T12:51:48Z</time></trkpt><trkpt lat="43.35359747403021" lon="13.219649049057727"><ele>722.0</ele><time>2026-05-02T12:51:49Z</time></trkpt><trkpt lat="43.35367830968933" lon="13.219719829856823"><ele>722.0</ele><time>2026-05-02T12:51:50Z</time></trkpt><trkpt lat="43.35375673527591" lon="13.219821037373483"><ele>722.0</ele><time>2026-05-02T12:51:51Z</time></trkpt><trkpt lat="43.35382496959123" lon="13.219913426331372"><ele>720.0</ele><time>2026-05-02T12:51:52Z</time></trkpt><trkpt lat="43.353890204197164" lon="13.220010972042099"><ele>718.0</ele><time>2026-05-02T12:51:53Z</time></trkpt><trkpt lat="43.35396215976242" lon="13.220110416889494"><ele>716.0</ele><time>2026-05-02T12:51:54Z</time></trkpt><trkpt lat="43.35404026132511" lon="13.22021578897014"><ele>714.0</ele><time>2026-05-02T12:51:55Z</time></trkpt><trkpt lat="43.35411370967841" lon="13.220336442188003"><ele>712.0</ele><time>2026-05-02T12:51:56Z</time></trkpt><trkpt lat="43.35418336919021" lon="13.22044604492646"><ele>712.0</ele><time>2026-05-02T12:51:57Z</time></trkpt><trkpt lat="43.354247190893915" lon="13.220540544221786"><ele>712.0</ele><time>2026-05-02T12:51:58Z</time></trkpt><trkpt lat="43.35433814793128" lon="13.220645298341527"><ele>712.0</ele><time>2026-05-02T12:51:59Z</time></trkpt><trkpt lat="43.35445442793796" lon="13.220748929290302"><ele>712.0</ele><time>2026-05-02T12:52:00Z</time></trkpt><trkpt lat="43.35455000490265" lon="13.220857080849372"><ele>710.6</ele><time>2026-05-02T12:52:01Z</time></trkpt><trkpt lat="43.35463177834845" lon="13.220941070247601"><ele>709.2</ele><time>2026-05-02T12:52:02Z</time></trkpt><trkpt lat="43.35473423358534" lon="13.22105383696698"><ele>707.8</ele><time>2026-05-02T12:52:03Z</time></trkpt><trkpt lat="43.35482243790739" lon="13.22115181118613"><ele>706.4</ele><time>2026-05-02T12:52:04Z</time></trkpt><trkpt lat="43.35489651320638" lon="13.221245570422676"><ele>705.0</ele><time>2026-05-02T12:52:05Z</time></trkpt><trkpt lat="43.35497942151057" lon="13.221356267411245"><ele>705.0</ele><time>2026-05-02T12:52:06Z</time></trkpt><trkpt lat="43.355063830139585" lon="13.221470278673273"><ele>705.0</ele><time>2026-05-02T12:52:07Z</time></trkpt><trkpt lat="43.35515137671404" lon="13.221582759452858"><ele>705.0</ele><time>2026-05-02T12:52:08Z</time></trkpt><trkpt lat="43.35521442066442" lon="13.221688035533537"><ele>705.0</ele><time>2026-05-02T12:52:09Z</time></trkpt><trkpt lat="43.355271045066885" lon="13.22177946602465"><ele>705.0</ele><time>2026-05-02T12:52:10Z</time></trkpt><trkpt lat="43.35532595352734" lon="13.221914749388258"><ele>706.2</ele><time>2026-05-02T12:52:12Z</time></trkpt><trkpt lat="43.35533922250715" lon="13.222076407386917"><ele>707.4</ele><time>2026-05-02T12:52:14Z</time></trkpt><trkpt lat="43.355360765225605" lon="13.222203634970187"><ele>708.5999999999999</ele><time>2026-05-02T12:52:15Z</time></trkpt><trkpt lat="43.355371999064936" lon="13.222302454843044"><ele>709.8</ele><time>2026-05-02T12:52:16Z</time></trkpt><trkpt lat="43.35537736445473" lon="13.222418139180997"><ele>711.0</ele><time>2026-05-02T12:52:17Z</time></trkpt><trkpt lat="43.35537620401246" lon="13.222550823780987"><ele>711.0</ele><time>2026-05-02T12:52:18Z</time></trkpt><trkpt lat="43.35537517735577" lon="13.22268208724139"><ele>711.0</ele><time>2026-05-02T12:52:19Z</time></trkpt><trkpt lat="43.35537267256455" lon="13.22278368460678"><ele>711.0</ele><time>2026-05-02T12:52:20Z</time></trkpt><trkpt lat="43.35537068868586" lon="13.22293036686721"><ele>711.0</ele><time>2026-05-02T12:52:22Z</time></trkpt><trkpt lat="43.35538426302205" lon="13.223049862622812"><ele>711.0</ele><time>2026-05-02T12:52:24Z</time></trkpt><trkpt lat="43.35539305248703" lon="13.223173125085424"><ele>710.5999999999999</ele><time>2026-05-02T12:52:26Z</time></trkpt><trkpt lat="43.35541472148761" lon="13.223272629228868"><ele>710.2</ele><time>2026-05-02T12:52:28Z</time></trkpt><trkpt lat="43.35542723822679" lon="13.223383046883598"><ele>709.8</ele><time>2026-05-02T12:52:30Z</time></trkpt><trkpt lat="43.355443496237996" lon="13.223543340885268"><ele>709.4000000000001</ele><time>2026-05-02T12:52:32Z</time></trkpt><trkpt lat="43.3554824169585" lon="13.223682052104623"><ele>709.0</ele><time>2026-05-02T12:52:34Z</time></trkpt><trkpt lat="43.35551162871504" lon="13.223808229558461"><ele>708.3333333333334</ele><time>2026-05-02T12:52:35Z</time></trkpt><trkpt lat="43.35554838421385" lon="13.223946700392906"><ele>707.6666666666667</ele><time>2026-05-02T12:52:36Z</time></trkpt><trkpt lat="43.35557579384629" lon="13.224052171050035"><ele>707.0</ele><time>2026-05-02T12:52:37Z</time></trkpt><trkpt lat="43.35557352631933" lon="13.224146873867655"><ele>706.3333333333334</ele><time>2026-05-02T12:52:38Z</time></trkpt><trkpt lat="43.35558731981023" lon="13.224302906311804"><ele>705.6666666666666</ele><time>2026-05-02T12:52:39.999Z</time></trkpt><trkpt lat="43.35558664932305" lon="13.22440607102773"><ele>705.0</ele><time>2026-05-02T12:52:40.999Z</time></trkpt><trkpt lat="43.35558898139679" lon="13.224516695243834"><ele>704.5714285714286</ele><time>2026-05-02T12:52:41.999Z</time></trkpt><trkpt lat="43.3555899164055" lon="13.224624691693373"><ele>704.1428571428571</ele><time>2026-05-02T12:52:42.999Z</time></trkpt><trkpt lat="43.355590458982036" lon="13.224724770013722"><ele>703.7142857142858</ele><time>2026-05-02T12:52:43.999Z</time></trkpt><trkpt lat="43.35559095724888" lon="13.224816675833342"><ele>703.2857142857142</ele><time>2026-05-02T12:52:44.999Z</time></trkpt><trkpt lat="43.35559143931246" lon="13.224905592907506"><ele>702.8571428571429</ele><time>2026-05-02T12:52:45.999Z</time></trkpt><trkpt lat="43.35559145010801" lon="13.224998051867242"><ele>702.4285714285714</ele><time>2026-05-02T12:52:47Z</time></trkpt><trkpt lat="43.35559145010501" lon="13.225087245848401"><ele>702.0</ele><time>2026-05-02T12:52:48Z</time></trkpt><trkpt lat="43.35559065376086" lon="13.225176324872127"><ele>700.8333333333334</ele><time>2026-05-02T12:52:48.999Z</time></trkpt><trkpt lat="43.35558922996752" lon="13.22526656372523"><ele>699.6666666666666</ele><time>2026-05-02T12:52:50Z</time></trkpt><trkpt lat="43.35558692886916" lon="13.225355038431273"><ele>698.5</ele><time>2026-05-02T12:52:51Z</time></trkpt><trkpt lat="43.3555833888125" lon="13.225454810375554"><ele>697.3333333333333</ele><time>2026-05-02T12:52:52Z</time></trkpt><trkpt lat="43.35557145162867" lon="13.225617748175301"><ele>696.1666666666666</ele><time>2026-05-02T12:52:54Z</time></trkpt><trkpt lat="43.3555564541918" lon="13.225782557738253"><ele>695.0</ele><time>2026-05-02T12:52:56Z</time></trkpt><trkpt lat="43.3555431304949" lon="13.225875571905792"><ele>695.1666666666666</ele><time>2026-05-02T12:52:57Z</time></trkpt><trkpt lat="43.35552994637139" lon="13.225960461032432"><ele>695.3333333333333</ele><time>2026-05-02T12:52:58Z</time></trkpt><trkpt lat="43.3555222771578" lon="13.22605702459436"><ele>695.5</ele><time>2026-05-02T12:52:59Z</time></trkpt><trkpt lat="43.355550370050764" lon="13.226174290911578"><ele>695.6666666666666</ele><time>2026-05-02T12:53:00Z</time></trkpt><trkpt lat="43.35557843739781" lon="13.226299991603385"><ele>695.8333333333334</ele><time>2026-05-02T12:53:01Z</time></trkpt><trkpt lat="43.3556081409027" lon="13.22645142201668"><ele>696.0</ele><time>2026-05-02T12:53:02Z</time></trkpt><trkpt lat="43.35563881391593" lon="13.226591541011071"><ele>692.1999999999999</ele><time>2026-05-02T12:53:03Z</time></trkpt><trkpt lat="43.35566133292258" lon="13.226726554588527"><ele>688.4</ele><time>2026-05-02T12:53:04Z</time></trkpt><trkpt lat="43.355679802859456" lon="13.226843728816132"><ele>684.6</ele><time>2026-05-02T12:53:05Z</time></trkpt><trkpt lat="43.35569201087426" lon="13.226954924379818"><ele>680.8</ele><time>2026-05-02T12:53:06Z</time></trkpt><trkpt lat="43.35569185005927" lon="13.227067003623096"><ele>677.0</ele><time>2026-05-02T12:53:07Z</time></trkpt><trkpt lat="43.355680660291426" lon="13.227201681353648"><ele>676.3333333333333</ele><time>2026-05-02T12:53:08Z</time></trkpt><trkpt lat="43.355667269541755" lon="13.22734432251947"><ele>675.6666666666666</ele><time>2026-05-02T12:53:09Z</time></trkpt><trkpt lat="43.35564081156372" lon="13.227460688522"><ele>675.0</ele><time>2026-05-02T12:53:10Z</time></trkpt><trkpt lat="43.35560301659531" lon="13.227552101801676"><ele>674.3333333333334</ele><time>2026-05-02T12:53:11Z</time></trkpt><trkpt lat="43.35556114524635" lon="13.227620889962266"><ele>673.6666666666667</ele><time>2026-05-02T12:53:12Z</time></trkpt><trkpt lat="43.3555278798478" lon="13.227741699802245"><ele>673.0</ele><time>2026-05-02T12:53:14Z</time></trkpt><trkpt lat="43.355539703924485" lon="13.227861912241332"><ele>673.0</ele><time>2026-05-02T12:53:16Z</time></trkpt><trkpt lat="43.355537106223665" lon="13.227987103654828"><ele>673.0</ele><time>2026-05-02T12:53:18Z</time></trkpt><trkpt lat="43.35560469841791" lon="13.228149685837334"><ele>673.0</ele><time>2026-05-02T12:53:21Z</time></trkpt><trkpt lat="43.355713937937324" lon="13.228216987523869"><ele>673.0</ele><time>2026-05-02T12:53:23Z</time></trkpt><trkpt lat="43.355776522679676" lon="13.228236596071639"><ele>673.0</ele><time>2026-05-02T12:53:24Z</time></trkpt><trkpt lat="43.355829764079886" lon="13.228289458639985"><ele>671.8333333333334</ele><time>2026-05-02T12:53:25Z</time></trkpt><trkpt lat="43.35592411619342" lon="13.228347470035205"><ele>670.6666666666667</ele><time>2026-05-02T12:53:27Z</time></trkpt><trkpt lat="43.35598434535916" lon="13.228383400513927"><ele>669.5</ele><time>2026-05-02T12:53:28Z</time></trkpt><trkpt lat="43.35607542776717" lon="13.22841959477823"><ele>668.3333333333334</ele><time>2026-05-02T12:53:30Z</time></trkpt><trkpt lat="43.356129028423126" lon="13.22848424399008"><ele>667.1666666666666</ele><time>2026-05-02T12:53:32Z</time></trkpt><trkpt lat="43.35614038741252" lon="13.22860781805423"><ele>666.0</ele><time>2026-05-02T12:53:34Z</time></trkpt><trkpt lat="43.35609006765575" lon="13.228666983293792"><ele>666.0</ele><time>2026-05-02T12:53:35Z</time></trkpt><trkpt lat="43.356068539276414" lon="13.228772493185598"><ele>666.0</ele><time>2026-05-02T12:53:37Z</time></trkpt><trkpt lat="43.356030656862856" lon="13.228871302098783"><ele>666.0</ele><time>2026-05-02T12:53:39Z</time></trkpt><trkpt lat="43.35599544625958" lon="13.228974467248873"><ele>666.0</ele><time>2026-05-02T12:53:41Z</time></trkpt><trkpt lat="43.35595622033625" lon="13.229091637383533"><ele>666.0</ele><time>2026-05-02T12:53:43Z</time></trkpt><trkpt lat="43.35591442764935" lon="13.22919158650962"><ele>666.0</ele><time>2026-05-02T12:53:45Z</time></trkpt><trkpt lat="43.35584549823279" lon="13.22925809699958"><ele>666.1999999999999</ele><time>2026-05-02T12:53:47Z</time></trkpt><trkpt lat="43.355749035584196" lon="13.229311699038568"><ele>666.4</ele><time>2026-05-02T12:53:49Z</time></trkpt><trkpt lat="43.35564367472011" lon="13.229359792288054"><ele>666.6</ele><time>2026-05-02T12:53:51Z</time></trkpt><trkpt lat="43.3555280386971" lon="13.229400578301576"><ele>666.8</ele><time>2026-05-02T12:53:53Z</time></trkpt><trkpt lat="43.35546805929184" lon="13.229437258982394"><ele>667.0</ele><time>2026-05-02T12:53:54Z</time></trkpt><trkpt lat="43.35540154534381" lon="13.229452509020422"><ele>667.0</ele><time>2026-05-02T12:53:55Z</time></trkpt><trkpt lat="43.35532641382056" lon="13.2294738142579"><ele>667.0</ele><time>2026-05-02T12:53:56Z</time></trkpt><trkpt lat="43.35526069829785" lon="13.229500367610978"><ele>667.0</ele><time>2026-05-02T12:53:57Z</time></trkpt><trkpt lat="43.3551674949923" lon="13.229557091367585"><ele>667.0</ele><time>2026-05-02T12:53:58Z</time></trkpt><trkpt lat="43.35508456960272" lon="13.229581947156657"><ele>667.0</ele><time>2026-05-02T12:53:59Z</time></trkpt><trkpt lat="43.354965575094326" lon="13.22962950036059"><ele>667.0</ele><time>2026-05-02T12:54:00Z</time></trkpt><trkpt lat="43.35485972967814" lon="13.229681092388041"><ele>667.0</ele><time>2026-05-02T12:54:01Z</time></trkpt><trkpt lat="43.35475200745924" lon="13.229732006168081"><ele>667.0</ele><time>2026-05-02T12:54:02Z</time></trkpt><trkpt lat="43.35466440885243" lon="13.2298050844864"><ele>667.0</ele><time>2026-05-02T12:54:03Z</time></trkpt><trkpt lat="43.35459082948103" lon="13.229855379238002"><ele>667.0</ele><time>2026-05-02T12:54:04Z</time></trkpt><trkpt lat="43.35451302489035" lon="13.229877467493223"><ele>664.1666666666667</ele><time>2026-05-02T12:54:05Z</time></trkpt><trkpt lat="43.354432285465926" lon="13.22987774850405"><ele>661.3333333333334</ele><time>2026-05-02T12:54:06Z</time></trkpt><trkpt lat="43.354358466732336" lon="13.229882013390577"><ele>658.5</ele><time>2026-05-02T12:54:07Z</time></trkpt><trkpt lat="43.35428413093193" lon="13.22991215517067"><ele>655.6666666666666</ele><time>2026-05-02T12:54:08Z</time></trkpt><trkpt lat="43.35420874384804" lon="13.229908679205847"><ele>652.8333333333333</ele><time>2026-05-02T12:54:09Z</time></trkpt><trkpt lat="43.354154553517525" lon="13.229976701779965"><ele>650.0</ele><time>2026-05-02T12:54:10Z</time></trkpt><trkpt lat="43.35407926773365" lon="13.23006360194953"><ele>650.0</ele><time>2026-05-02T12:54:12Z</time></trkpt><trkpt lat="43.35406771094029" lon="13.230216810967077"><ele>650.0</ele><time>2026-05-02T12:54:14Z</time></trkpt><trkpt lat="43.354118850448515" lon="13.23027508208048"><ele>650.0</ele><time>2026-05-02T12:54:15Z</time></trkpt><trkpt lat="43.35420642719604" lon="13.230299684197133"><ele>650.0</ele><time>2026-05-02T12:54:16Z</time></trkpt><trkpt lat="43.35428746812321" lon="13.23031372289755"><ele>650.0</ele><time>2026-05-02T12:54:17Z</time></trkpt><trkpt lat="43.3543798048654" lon="13.23032769103589"><ele>650.0</ele><time>2026-05-02T12:54:18Z</time></trkpt><trkpt lat="43.35444963262456" lon="13.230350941216367"><ele>650.0</ele><time>2026-05-02T12:54:19Z</time></trkpt><trkpt lat="43.35452909082449" lon="13.23037750574995"><ele>650.0</ele><time>2026-05-02T12:54:20Z</time></trkpt><trkpt lat="43.354608359354685" lon="13.230370086509273"><ele>650.0</ele><time>2026-05-02T12:54:21Z</time></trkpt><trkpt lat="43.35468040100653" lon="13.23034111188692"><ele>650.0</ele><time>2026-05-02T12:54:22Z</time></trkpt><trkpt lat="43.354750617564875" lon="13.230308796120177"><ele>650.0</ele><time>2026-05-02T12:54:23Z</time></trkpt><trkpt lat="43.35481750607732" lon="13.230296935414646"><ele>650.0</ele><time>2026-05-02T12:54:24Z</time></trkpt><trkpt lat="43.354886211591186" lon="13.230307983745005"><ele>650.0</ele><time>2026-05-02T12:54:25Z</time></trkpt><trkpt lat="43.35496943693532" lon="13.230356719060355"><ele>648.5</ele><time>2026-05-02T12:54:26Z</time></trkpt><trkpt lat="43.35503781194638" lon="13.23040564982193"><ele>647.0</ele><time>2026-05-02T12:54:27Z</time></trkpt><trkpt lat="43.355106574267964" lon="13.230419433381883"><ele>645.5</ele><time>2026-05-02T12:54:28Z</time></trkpt><trkpt lat="43.355227030471625" lon="13.230402236823528"><ele>644.0</ele><time>2026-05-02T12:54:30Z</time></trkpt><trkpt lat="43.35530930261106" lon="13.230375252058536"><ele>642.5</ele><time>2026-05-02T12:54:31Z</time></trkpt><trkpt lat="43.355394314281654" lon="13.230350902626139"><ele>641.0</ele><time>2026-05-02T12:54:32Z</time></trkpt><trkpt lat="43.355463855243784" lon="13.230338085355507"><ele>639.1666666666666</ele><time>2026-05-02T12:54:33Z</time></trkpt><trkpt lat="43.35553730597835" lon="13.23033996906778"><ele>637.3333333333333</ele><time>2026-05-02T12:54:34Z</time></trkpt><trkpt lat="43.355617661877524" lon="13.230305752915376"><ele>635.5</ele><time>2026-05-02T12:54:35Z</time></trkpt><trkpt lat="43.355706641079905" lon="13.230332199443747"><ele>633.6666666666666</ele><time>2026-05-02T12:54:36Z</time></trkpt><trkpt lat="43.35578418356132" lon="13.230340628522534"><ele>631.8333333333334</ele><time>2026-05-02T12:54:37Z</time></trkpt><trkpt lat="43.35585585239114" lon="13.23035128879164"><ele>630.0</ele><time>2026-05-02T12:54:38Z</time></trkpt><trkpt lat="43.35592705518716" lon="13.230365770338674"><ele>630.0</ele><time>2026-05-02T12:54:39Z</time></trkpt><trkpt lat="43.35600925825792" lon="13.230382084776243"><ele>630.0</ele><time>2026-05-02T12:54:40Z</time></trkpt><trkpt lat="43.35608513798033" lon="13.230372813772005"><ele>630.0</ele><time>2026-05-02T12:54:41Z</time></trkpt><trkpt lat="43.35615137466969" lon="13.230386229930643"><ele>630.0</ele><time>2026-05-02T12:54:42Z</time></trkpt><trkpt lat="43.35622565058201" lon="13.23038460097308"><ele>630.0</ele><time>2026-05-02T12:54:43Z</time></trkpt><trkpt lat="43.356291540442854" lon="13.230358048039038"><ele>630.0</ele><time>2026-05-02T12:54:44Z</time></trkpt><trkpt lat="43.3564071261635" lon="13.230282014449902"><ele>627.2</ele><time>2026-05-02T12:54:45.999Z</time></trkpt><trkpt lat="43.35648114725434" lon="13.230229503128703"><ele>624.4</ele><time>2026-05-02T12:54:46.999Z</time></trkpt><trkpt lat="43.356559950117095" lon="13.230181039216962"><ele>621.6</ele><time>2026-05-02T12:54:47.999Z</time></trkpt><trkpt lat="43.35665611038209" lon="13.23013273137533"><ele>618.8</ele><time>2026-05-02T12:54:48.999Z</time></trkpt><trkpt lat="43.35677710649085" lon="13.230077952291834"><ele>616.0</ele><time>2026-05-02T12:54:49.999Z</time></trkpt><trkpt lat="43.35689352839005" lon="13.230002702396995"><ele>616.0</ele><time>2026-05-02T12:54:50.999Z</time></trkpt><trkpt lat="43.357018143874974" lon="13.22997742777334"><ele>616.0</ele><time>2026-05-02T12:54:51.999Z</time></trkpt><trkpt lat="43.35713755271656" lon="13.229943350101488"><ele>616.0</ele><time>2026-05-02T12:54:52.999Z</time></trkpt><trkpt lat="43.357246816262524" lon="13.229885709870924"><ele>616.0</ele><time>2026-05-02T12:54:53.999Z</time></trkpt><trkpt lat="43.35735751359189" lon="13.229837388657536"><ele>614.0</ele><time>2026-05-02T12:54:54.999Z</time></trkpt><trkpt lat="43.357473049199236" lon="13.229735645966155"><ele>612.0</ele><time>2026-05-02T12:54:55.999Z</time></trkpt><trkpt lat="43.35759199169133" lon="13.229649354074024"><ele>610.0</ele><time>2026-05-02T12:54:56.999Z</time></trkpt><trkpt lat="43.35772919846233" lon="13.229582575403096"><ele>608.0</ele><time>2026-05-02T12:54:57.999Z</time></trkpt><trkpt lat="43.357885468890444" lon="13.2295442621288"><ele>608.0</ele><time>2026-05-02T12:54:58.999Z</time></trkpt><trkpt lat="43.35801666568868" lon="13.229496100295298"><ele>608.0</ele><time>2026-05-02T12:54:59.999Z</time></trkpt><trkpt lat="43.358130471096054" lon="13.229434276707835"><ele>608.0</ele><time>2026-05-02T12:55:00.999Z</time></trkpt><trkpt lat="43.358266739249096" lon="13.229414344847783"><ele>608.0</ele><time>2026-05-02T12:55:01.999Z</time></trkpt><trkpt lat="43.35839035105196" lon="13.22938089222384"><ele>606.4</ele><time>2026-05-02T12:55:02.999Z</time></trkpt><trkpt lat="43.358480066295385" lon="13.229360700801898"><ele>604.8</ele><time>2026-05-02T12:55:03.999Z</time></trkpt><trkpt lat="43.35857538434652" lon="13.229358274147023"><ele>603.2</ele><time>2026-05-02T12:55:04.999Z</time></trkpt><trkpt lat="43.35868255519386" lon="13.229369044241006"><ele>601.6</ele><time>2026-05-02T12:55:05.999Z</time></trkpt><trkpt lat="43.35880500351665" lon="13.229421017908559"><ele>600.0</ele><time>2026-05-02T12:55:06.999Z</time></trkpt><trkpt lat="43.35892094014192" lon="13.229473377877047"><ele>599.2</ele><time>2026-05-02T12:55:07.999Z</time></trkpt><trkpt lat="43.359025548551536" lon="13.22952933335199"><ele>598.4</ele><time>2026-05-02T12:55:08.999Z</time></trkpt><trkpt lat="43.35912222300607" lon="13.229561780086339"><ele>597.6</ele><time>2026-05-02T12:55:09.999Z</time></trkpt><trkpt lat="43.359191991359666" lon="13.229595926685711"><ele>596.8</ele><time>2026-05-02T12:55:10.999Z</time></trkpt><trkpt lat="43.35928710019229" lon="13.229665662253211"><ele>596.0</ele><time>2026-05-02T12:55:11.999Z</time></trkpt><trkpt lat="43.35939538085814" lon="13.229652818843316"><ele>596.0</ele><time>2026-05-02T12:55:12.999Z</time></trkpt><trkpt lat="43.359500093955305" lon="13.229669897571208"><ele>596.0</ele><time>2026-05-02T12:55:13.999Z</time></trkpt><trkpt lat="43.35962664062605" lon="13.229648930323144"><ele>596.0</ele><time>2026-05-02T12:55:14.999Z</time></trkpt><trkpt lat="43.359701084930734" lon="13.229655143200187"><ele>596.0</ele><time>2026-05-02T12:55:15.999Z</time></trkpt><trkpt lat="43.359775777879946" lon="13.229685728118623"><ele>596.0</ele><time>2026-05-02T12:55:17.999Z</time></trkpt><trkpt lat="43.35979837029738" lon="13.229840984044854"><ele>594.0</ele><time>2026-05-02T12:55:20.999Z</time></trkpt><trkpt lat="43.359805475172976" lon="13.2299589590635"><ele>592.0</ele><time>2026-05-02T12:55:21.999Z</time></trkpt><trkpt lat="43.359816995832624" lon="13.2301260851074"><ele>590.0</ele><time>2026-05-02T12:55:23Z</time></trkpt><trkpt lat="43.359848387232795" lon="13.230345542836542"><ele>588.0</ele><time>2026-05-02T12:55:24Z</time></trkpt><trkpt lat="43.35985860022857" lon="13.230560682605473"><ele>586.8</ele><time>2026-05-02T12:55:25Z</time></trkpt><trkpt lat="43.35986963472565" lon="13.230738408814597"><ele>585.5999999999999</ele><time>2026-05-02T12:55:26Z</time></trkpt><trkpt lat="43.3598861035231" lon="13.230888222159528"><ele>584.4000000000001</ele><time>2026-05-02T12:55:27Z</time></trkpt><trkpt lat="43.359899085277924" lon="13.231002767859986"><ele>583.2</ele><time>2026-05-02T12:55:28Z</time></trkpt><trkpt lat="43.359908993824156" lon="13.231105682749416"><ele>582.0</ele><time>2026-05-02T12:55:29Z</time></trkpt><trkpt lat="43.359914905110045" lon="13.231198156360747"><ele>582.0</ele><time>2026-05-02T12:55:30Z</time></trkpt><trkpt lat="43.359904909648485" lon="13.231343500085242"><ele>582.0</ele><time>2026-05-02T12:55:32Z</time></trkpt><trkpt lat="43.3598221039349" lon="13.231445744155819"><ele>582.0</ele><time>2026-05-02T12:55:34Z</time></trkpt><trkpt lat="43.359728519530506" lon="13.231534726979294"><ele>582.0</ele><time>2026-05-02T12:55:36Z</time></trkpt><trkpt lat="43.359691281218474" lon="13.231643209470752"><ele>582.0</ele><time>2026-05-02T12:55:37Z</time></trkpt><trkpt lat="43.359662397235915" lon="13.231764883634064"><ele>580.6666666666666</ele><time>2026-05-02T12:55:38Z</time></trkpt><trkpt lat="43.35963405777372" lon="13.23187065603825"><ele>579.3333333333334</ele><time>2026-05-02T12:55:39Z</time></trkpt><trkpt lat="43.35960893751136" lon="13.231966901650411"><ele>578.0</ele><time>2026-05-02T12:55:40Z</time></trkpt><trkpt lat="43.35959699400863" lon="13.232064688212391"><ele>576.6666666666667</ele><time>2026-05-02T12:55:41Z</time></trkpt><trkpt lat="43.35960140746074" lon="13.232162413558703"><ele>575.3333333333334</ele><time>2026-05-02T12:55:42Z</time></trkpt><trkpt lat="43.35963635438582" lon="13.232265690150882"><ele>574.0</ele><time>2026-05-02T12:55:43Z</time></trkpt><trkpt lat="43.35968778035121" lon="13.232355605112357"><ele>572.5</ele><time>2026-05-02T12:55:44Z</time></trkpt><trkpt lat="43.359751230011824" lon="13.232445844920253"><ele>571.0</ele><time>2026-05-02T12:55:45Z</time></trkpt><trkpt lat="43.35981049501353" lon="13.232541291625422"><ele>569.5</ele><time>2026-05-02T12:55:46Z</time></trkpt><trkpt lat="43.35986638912181" lon="13.232628191806903"><ele>568.0</ele><time>2026-05-02T12:55:47Z</time></trkpt><trkpt lat="43.35990481853341" lon="13.232726724220965"><ele>566.5</ele><time>2026-05-02T12:55:48Z</time></trkpt><trkpt lat="43.35996773274724" lon="13.232791102489655"><ele>565.0</ele><time>2026-05-02T12:55:49Z</time></trkpt><trkpt lat="43.360015184475145" lon="13.232865515583036"><ele>565.0</ele><time>2026-05-02T12:55:50Z</time></trkpt><trkpt lat="43.36008542610613" lon="13.232926164027164"><ele>565.0</ele><time>2026-05-02T12:55:51Z</time></trkpt><trkpt lat="43.36016446014446" lon="13.232958928735547"><ele>565.0</ele><time>2026-05-02T12:55:52Z</time></trkpt><trkpt lat="43.360230705602994" lon="13.232961149788867"><ele>565.0</ele><time>2026-05-02T12:55:53Z</time></trkpt><trkpt lat="43.360299943764836" lon="13.23299707712443"><ele>565.0</ele><time>2026-05-02T12:55:55Z</time></trkpt><trkpt lat="43.36034720686016" lon="13.23308733131996"><ele>565.0</ele><time>2026-05-02T12:55:58Z</time></trkpt><trkpt lat="43.36031355802198" lon="13.233216703182494"><ele>564.5</ele><time>2026-05-02T12:55:59Z</time></trkpt><trkpt lat="43.36029224475074" lon="13.233341622329968"><ele>564.0</ele><time>2026-05-02T12:56:00Z</time></trkpt><trkpt lat="43.36029220049986" lon="13.233508669706758"><ele>563.5</ele><time>2026-05-02T12:56:01Z</time></trkpt><trkpt lat="43.360320719036714" lon="13.233735889648663"><ele>563.0</ele><time>2026-05-02T12:56:02Z</time></trkpt><trkpt lat="43.360369650818036" lon="13.233998615892817"><ele>562.0</ele><time>2026-05-02T12:56:03Z</time></trkpt><trkpt lat="43.360403833979326" lon="13.23427607540281"><ele>561.0</ele><time>2026-05-02T12:56:04Z</time></trkpt><trkpt lat="43.36044008857557" lon="13.234486806910626"><ele>560.0</ele><time>2026-05-02T12:56:05Z</time></trkpt><trkpt lat="43.360486433909976" lon="13.234587275057244"><ele>559.0</ele><time>2026-05-02T12:56:06Z</time></trkpt><trkpt lat="43.360577700280466" lon="13.234644970841748"><ele>559.0</ele><time>2026-05-02T12:56:07Z</time></trkpt><trkpt lat="43.36067150833285" lon="13.234706177384794"><ele>559.0</ele><time>2026-05-02T12:56:08Z</time></trkpt><trkpt lat="43.360756482467536" lon="13.234752358159062"><ele>559.0</ele><time>2026-05-02T12:56:09Z</time></trkpt><trkpt lat="43.36081589233848" lon="13.234809765640305"><ele>559.0</ele><time>2026-05-02T12:56:11Z</time></trkpt><trkpt lat="43.360688182092055" lon="13.234832840867902"><ele>559.0</ele><time>2026-05-02T12:56:15Z</time></trkpt><trkpt lat="43.360611155569" lon="13.234874184164042"><ele>562.6</ele><time>2026-05-02T12:56:16Z</time></trkpt><trkpt lat="43.360492016963185" lon="13.23495491738984"><ele>566.2</ele><time>2026-05-02T12:56:18Z</time></trkpt><trkpt lat="43.360415720866534" lon="13.234972823367793"><ele>569.8000000000001</ele><time>2026-05-02T12:56:19Z</time></trkpt><trkpt lat="43.36031672720719" lon="13.234982258713758"><ele>573.4</ele><time>2026-05-02T12:56:20Z</time></trkpt><trkpt lat="43.36022805877515" lon="13.234980409983814"><ele>577.0</ele><time>2026-05-02T12:56:21Z</time></trkpt><trkpt lat="43.36014487206936" lon="13.235006401484766"><ele>577.0</ele><time>2026-05-02T12:56:22Z</time></trkpt><trkpt lat="43.360073428086004" lon="13.235051056916205"><ele>577.0</ele><time>2026-05-02T12:56:23Z</time></trkpt><trkpt lat="43.35999096814096" lon="13.23510063235138"><ele>577.0</ele><time>2026-05-02T12:56:24Z</time></trkpt><trkpt lat="43.359909285482146" lon="13.235169132418207"><ele>577.0</ele><time>2026-05-02T12:56:25Z</time></trkpt><trkpt lat="43.35981207877655" lon="13.235252451733801"><ele>577.0</ele><time>2026-05-02T12:56:26Z</time></trkpt><trkpt lat="43.359697648156065" lon="13.235356010542436"><ele>579.4</ele><time>2026-05-02T12:56:27Z</time></trkpt><trkpt lat="43.35961736538987" lon="13.235464305581418"><ele>581.8000000000001</ele><time>2026-05-02T12:56:28Z</time></trkpt><trkpt lat="43.3595265558075" lon="13.235543946452509"><ele>584.2</ele><time>2026-05-02T12:56:29Z</time></trkpt><trkpt lat="43.359475135556174" lon="13.235641370301172"><ele>586.6</ele><time>2026-05-02T12:56:30Z</time></trkpt><trkpt lat="43.359381527899835" lon="13.235706794300686"><ele>589.0</ele><time>2026-05-02T12:56:32Z</time></trkpt><trkpt lat="43.359292790692095" lon="13.235673896625533"><ele>589.0</ele><time>2026-05-02T12:56:34Z</time></trkpt><trkpt lat="43.359277502004325" lon="13.235588422706645"><ele>589.0</ele><time>2026-05-02T12:56:35Z</time></trkpt><trkpt lat="43.35926246137929" lon="13.2354740367723"><ele>589.0</ele><time>2026-05-02T12:56:37Z</time></trkpt><trkpt lat="43.35925319716766" lon="13.235314541052295"><ele>589.0</ele><time>2026-05-02T12:56:39Z</time></trkpt><trkpt lat="43.35921447937098" lon="13.235209400300855"><ele>589.0</ele><time>2026-05-02T12:56:40Z</time></trkpt><trkpt lat="43.35916408715601" lon="13.235116186004607"><ele>589.0</ele><time>2026-05-02T12:56:41Z</time></trkpt><trkpt lat="43.35910148787119" lon="13.23503363349881"><ele>589.0</ele><time>2026-05-02T12:56:42Z</time></trkpt><trkpt lat="43.359031606119714" lon="13.234934831216865"><ele>589.0</ele><time>2026-05-02T12:56:43Z</time></trkpt><trkpt lat="43.35896772570353" lon="13.234840321783546"><ele>589.0</ele><time>2026-05-02T12:56:44Z</time></trkpt><trkpt lat="43.35891162185828" lon="13.23473455614813"><ele>589.0</ele><time>2026-05-02T12:56:45Z</time></trkpt><trkpt lat="43.35886270987059" lon="13.234628317116002"><ele>589.0</ele><time>2026-05-02T12:56:46Z</time></trkpt><trkpt lat="43.358814241221076" lon="13.23451417256982"><ele>589.0</ele><time>2026-05-02T12:56:47Z</time></trkpt><trkpt lat="43.35877556394253" lon="13.234398049961067"><ele>589.0</ele><time>2026-05-02T12:56:48Z</time></trkpt><trkpt lat="43.35873032673101" lon="13.234277669472402"><ele>589.0</ele><time>2026-05-02T12:56:49Z</time></trkpt><trkpt lat="43.35865877520801" lon="13.234160904783051"><ele>589.0</ele><time>2026-05-02T12:56:50Z</time></trkpt><trkpt lat="43.35858112931942" lon="13.234068164768768"><ele>589.0</ele><time>2026-05-02T12:56:50.999Z</time></trkpt><trkpt lat="43.3584973744799" lon="13.233951980620958"><ele>588.0</ele><time>2026-05-02T12:56:51.999Z</time></trkpt><trkpt lat="43.3584445798764" lon="13.233817543478091"><ele>587.0</ele><time>2026-05-02T12:56:52.999Z</time></trkpt><trkpt lat="43.35836464535465" lon="13.233694315706737"><ele>586.0</ele><time>2026-05-02T12:56:53.999Z</time></trkpt><trkpt lat="43.35826534463037" lon="13.233594964953065"><ele>585.0</ele><time>2026-05-02T12:56:54.999Z</time></trkpt><trkpt lat="43.358171596125366" lon="13.233465416931342"><ele>585.0</ele><time>2026-05-02T12:56:55.999Z</time></trkpt><trkpt lat="43.35807829193804" lon="13.233353875986174"><ele>585.0</ele><time>2026-05-02T12:56:56.999Z</time></trkpt><trkpt lat="43.357980297840825" lon="13.233236728306636"><ele>585.0</ele><time>2026-05-02T12:56:57.999Z</time></trkpt><trkpt lat="43.357873840887" lon="13.233109463648097"><ele>585.0</ele><time>2026-05-02T12:56:58.999Z</time></trkpt><trkpt lat="43.357760230030244" lon="13.23297985886346"><ele>589.25</ele><time>2026-05-02T12:56:59.999Z</time></trkpt><trkpt lat="43.35766205742618" lon="13.232910148079682"><ele>593.5</ele><time>2026-05-02T12:57:00.999Z</time></trkpt><trkpt lat="43.357567621925725" lon="13.232824483887203"><ele>597.75</ele><time>2026-05-02T12:57:01.999Z</time></trkpt><trkpt lat="43.35743900460575" lon="13.23282692056213"><ele>602.0</ele><time>2026-05-02T12:57:02.999Z</time></trkpt><trkpt lat="43.3573271080868" lon="13.232797588606221"><ele>602.0</ele><time>2026-05-02T12:57:03.999Z</time></trkpt><trkpt lat="43.357219778836914" lon="13.232792171907922"><ele>602.0</ele><time>2026-05-02T12:57:04.999Z</time></trkpt><trkpt lat="43.357122126195335" lon="13.232724589952952"><ele>602.0</ele><time>2026-05-02T12:57:05.999Z</time></trkpt><trkpt lat="43.35699836406932" lon="13.232669735149203"><ele>602.0</ele><time>2026-05-02T12:57:06.999Z</time></trkpt><trkpt lat="43.3568957736944" lon="13.232667642170716"><ele>602.0</ele><time>2026-05-02T12:57:07.999Z</time></trkpt><trkpt lat="43.35680994873264" lon="13.23270486059886"><ele>606.0</ele><time>2026-05-02T12:57:08.999Z</time></trkpt><trkpt lat="43.356722721920086" lon="13.232765448179482"><ele>610.0</ele><time>2026-05-02T12:57:09.999Z</time></trkpt><trkpt lat="43.35661111632715" lon="13.23282788237719"><ele>614.0</ele><time>2026-05-02T12:57:10.999Z</time></trkpt><trkpt lat="43.356488111644005" lon="13.232862021939379"><ele>618.0</ele><time>2026-05-02T12:57:11.999Z</time></trkpt><trkpt lat="43.35638039922925" lon="13.232878242168045"><ele>622.0</ele><time>2026-05-02T12:57:12.999Z</time></trkpt><trkpt lat="43.35623922208659" lon="13.23288163204067"><ele>626.0</ele><time>2026-05-02T12:57:13.999Z</time></trkpt><trkpt lat="43.35608963907551" lon="13.232926917576542"><ele>630.0</ele><time>2026-05-02T12:57:14.999Z</time></trkpt><trkpt lat="43.355965428225865" lon="13.232971673098913"><ele>634.0</ele><time>2026-05-02T12:57:15.999Z</time></trkpt><trkpt lat="43.35583984374733" lon="13.233076121404766"><ele>634.6</ele><time>2026-05-02T12:57:16.999Z</time></trkpt><trkpt lat="43.35571570982755" lon="13.233161910697358"><ele>635.2</ele><time>2026-05-02T12:57:18Z</time></trkpt><trkpt lat="43.35564084987038" lon="13.233207158002806"><ele>635.8000000000001</ele><time>2026-05-02T12:57:19Z</time></trkpt><trkpt lat="43.35559034534542" lon="13.233263901951378"><ele>636.4</ele><time>2026-05-02T12:57:20Z</time></trkpt><trkpt lat="43.355497010578965" lon="13.233302228351684"><ele>637.0</ele><time>2026-05-02T12:57:21Z</time></trkpt><trkpt lat="43.35537363198654" lon="13.23338501066225"><ele>637.0</ele><time>2026-05-02T12:57:22Z</time></trkpt><trkpt lat="43.355268413832235" lon="13.23345347116011"><ele>637.0</ele><time>2026-05-02T12:57:23Z</time></trkpt><trkpt lat="43.355173513474085" lon="13.233517497300209"><ele>637.0</ele><time>2026-05-02T12:57:24Z</time></trkpt><trkpt lat="43.355075341212" lon="13.233590041317717"><ele>637.0</ele><time>2026-05-02T12:57:25Z</time></trkpt><trkpt lat="43.35497287294865" lon="13.233673744046234"><ele>637.0</ele><time>2026-05-02T12:57:26Z</time></trkpt><trkpt lat="43.3548519914224" lon="13.233754165786905"><ele>637.0</ele><time>2026-05-02T12:57:27Z</time></trkpt><trkpt lat="43.35472613482829" lon="13.233817338507931"><ele>637.0</ele><time>2026-05-02T12:57:28Z</time></trkpt><trkpt lat="43.354588421696526" lon="13.233869272682213"><ele>637.0</ele><time>2026-05-02T12:57:29Z</time></trkpt><trkpt lat="43.35450383896293" lon="13.233912925024002"><ele>638.8</ele><time>2026-05-02T12:57:30Z</time></trkpt><trkpt lat="43.35441151211778" lon="13.233934469794809"><ele>640.6</ele><time>2026-05-02T12:57:31Z</time></trkpt><trkpt lat="43.354313531385344" lon="13.233967722125685"><ele>642.4</ele><time>2026-05-02T12:57:32Z</time></trkpt><trkpt lat="43.35419910199289" lon="13.234008431470038"><ele>644.1999999999999</ele><time>2026-05-02T12:57:33Z</time></trkpt><trkpt lat="43.354100935610134" lon="13.23402688883647"><ele>646.0</ele><time>2026-05-02T12:57:34Z</time></trkpt><trkpt lat="43.35402680047156" lon="13.234041703320127"><ele>647.0</ele><time>2026-05-02T12:57:35Z</time></trkpt><trkpt lat="43.35394352486788" lon="13.234034514255528"><ele>648.0</ele><time>2026-05-02T12:57:36Z</time></trkpt><trkpt lat="43.35385786779419" lon="13.233955773711509"><ele>649.0</ele><time>2026-05-02T12:57:37Z</time></trkpt><trkpt lat="43.353771642161355" lon="13.233880757563885"><ele>650.0</ele><time>2026-05-02T12:57:38Z</time></trkpt><trkpt lat="43.35370216838919" lon="13.233795158979794"><ele>651.0</ele><time>2026-05-02T12:57:39Z</time></trkpt><trkpt lat="43.35363775496893" lon="13.233732952349499"><ele>651.0</ele><time>2026-05-02T12:57:40Z</time></trkpt><trkpt lat="43.353553007390325" lon="13.233696503143701"><ele>651.0</ele><time>2026-05-02T12:57:41Z</time></trkpt><trkpt lat="43.35346753149888" lon="13.233693974636022"><ele>651.0</ele><time>2026-05-02T12:57:42Z</time></trkpt><trkpt lat="43.35337266280979" lon="13.233725865068017"><ele>651.0</ele><time>2026-05-02T12:57:43Z</time></trkpt><trkpt lat="43.35325068507955" lon="13.23380102930732"><ele>651.0</ele><time>2026-05-02T12:57:44Z</time></trkpt><trkpt lat="43.353125073496855" lon="13.233881256943222"><ele>649.5</ele><time>2026-05-02T12:57:45Z</time></trkpt><trkpt lat="43.35302188285746" lon="13.233948028472142"><ele>648.0</ele><time>2026-05-02T12:57:46Z</time></trkpt><trkpt lat="43.35293418913109" lon="13.233982241839204"><ele>646.5</ele><time>2026-05-02T12:57:47Z</time></trkpt><trkpt lat="43.35279773785419" lon="13.234032255671856"><ele>645.0</ele><time>2026-05-02T12:57:48Z</time></trkpt><trkpt lat="43.35268020154722" lon="13.234076215917149"><ele>645.0</ele><time>2026-05-02T12:57:49Z</time></trkpt><trkpt lat="43.35256037041525" lon="13.234084633322219"><ele>645.0</ele><time>2026-05-02T12:57:50Z</time></trkpt><trkpt lat="43.35244939482955" lon="13.234090021179375"><ele>645.0</ele><time>2026-05-02T12:57:51Z</time></trkpt><trkpt lat="43.352366003424024" lon="13.234093881807153"><ele>645.0</ele><time>2026-05-02T12:57:52Z</time></trkpt><trkpt lat="43.352246967670354" lon="13.234054307322458"><ele>645.0</ele><time>2026-05-02T12:57:54Z</time></trkpt><trkpt lat="43.352175661739246" lon="13.234034770586804"><ele>646.0</ele><time>2026-05-02T12:57:55Z</time></trkpt><trkpt lat="43.3520959816448" lon="13.234009496438572"><ele>647.0</ele><time>2026-05-02T12:57:56Z</time></trkpt><trkpt lat="43.35199511202462" lon="13.233968957761146"><ele>648.0</ele><time>2026-05-02T12:57:58Z</time></trkpt><trkpt lat="43.351927430835325" lon="13.233934692348729"><ele>649.0</ele><time>2026-05-02T12:57:59Z</time></trkpt><trkpt lat="43.351862208800306" lon="13.233895180227963"><ele>650.0</ele><time>2026-05-02T12:58:00Z</time></trkpt><trkpt lat="43.35180270840156" lon="13.233854121811552"><ele>651.0</ele><time>2026-05-02T12:58:01Z</time></trkpt><trkpt lat="43.35173572464652" lon="13.233801872383957"><ele>652.1999999999999</ele><time>2026-05-02T12:58:02Z</time></trkpt><trkpt lat="43.35165667531413" lon="13.233738768852621"><ele>653.4</ele><time>2026-05-02T12:58:03Z</time></trkpt><trkpt lat="43.351564265425566" lon="13.233667780670244"><ele>654.6</ele><time>2026-05-02T12:58:04Z</time></trkpt><trkpt lat="43.351472426292794" lon="13.233601939273681"><ele>655.8</ele><time>2026-05-02T12:58:05Z</time></trkpt><trkpt lat="43.35135665937322" lon="13.233566475797232"><ele>657.0</ele><time>2026-05-02T12:58:06Z</time></trkpt><trkpt lat="43.351253695563855" lon="13.233537913038102"><ele>657.0</ele><time>2026-05-02T12:58:07Z</time></trkpt><trkpt lat="43.351173369172145" lon="13.23352806441518"><ele>657.0</ele><time>2026-05-02T12:58:08Z</time></trkpt><trkpt lat="43.35110860683447" lon="13.233483665773816"><ele>657.0</ele><time>2026-05-02T12:58:10Z</time></trkpt><trkpt lat="43.35108527008206" lon="13.233398645927483"><ele>657.0</ele><time>2026-05-02T12:58:14Z</time></trkpt><trkpt lat="43.35104428374301" lon="13.233330471939038"><ele>657.0</ele><time>2026-05-02T12:58:17Z</time></trkpt><trkpt lat="43.35097828641062" lon="13.233232463399188"><ele>657.0</ele><time>2026-05-02T12:58:19Z</time></trkpt><trkpt lat="43.35094126841191" lon="13.233148230900099"><ele>660.6</ele><time>2026-05-02T12:58:20Z</time></trkpt><trkpt lat="43.35089070586316" lon="13.232986147892692"><ele>664.2</ele><time>2026-05-02T12:58:22Z</time></trkpt><trkpt lat="43.35085233001193" lon="13.232851465546847"><ele>667.8</ele><time>2026-05-02T12:58:24Z</time></trkpt><trkpt lat="43.35082865956696" lon="13.232758239123992"><ele>671.4</ele><time>2026-05-02T12:58:25Z</time></trkpt><trkpt lat="43.35078968370577" lon="13.232591404471117"><ele>675.0</ele><time>2026-05-02T12:58:27Z</time></trkpt><trkpt lat="43.350768775935634" lon="13.232501909819158"><ele>675.0</ele><time>2026-05-02T12:58:28Z</time></trkpt><trkpt lat="43.350728254996554" lon="13.232365237664167"><ele>675.0</ele><time>2026-05-02T12:58:30Z</time></trkpt><trkpt lat="43.35069336449588" lon="13.232268753630335"><ele>675.0</ele><time>2026-05-02T12:58:33Z</time></trkpt><trkpt lat="43.350695678353986" lon="13.232132186852441"><ele>675.0</ele><time>2026-05-02T12:58:42Z</time></trkpt><trkpt lat="43.35063491501118" lon="13.231963097085448"><ele>675.0</ele><time>2026-05-02T12:58:44Z</time></trkpt><trkpt lat="43.35058345942522" lon="13.231860567334731"><ele>673.4</ele><time>2026-05-02T12:58:45Z</time></trkpt><trkpt lat="43.35050631147079" lon="13.231679492361996"><ele>671.8</ele><time>2026-05-02T12:58:47Z</time></trkpt><trkpt lat="43.35046844858723" lon="13.231601372700805"><ele>670.2</ele><time>2026-05-02T12:58:48Z</time></trkpt><trkpt lat="43.350440450229925" lon="13.231508768924602"><ele>668.6</ele><time>2026-05-02T12:58:49Z</time></trkpt><trkpt lat="43.350386388245624" lon="13.231373852484337"><ele>667.0</ele><time>2026-05-02T12:58:51Z</time></trkpt><trkpt lat="43.35083257992365" lon="13.230811236773224"><ele>674.3333333333334</ele><time>2026-05-02T12:58:53Z</time></trkpt><trkpt lat="43.3508072479849" lon="13.230708937197953"><ele>681.6666666666667</ele><time>2026-05-02T12:58:54Z</time></trkpt><trkpt lat="43.35078282170981" lon="13.230602210072773"><ele>689.0</ele><time>2026-05-02T12:58:55Z</time></trkpt><trkpt lat="43.35075974360793" lon="13.230498965442575"><ele>696.3333333333334</ele><time>2026-05-02T12:58:56Z</time></trkpt><trkpt lat="43.35073960493582" lon="13.230396733608007"><ele>703.6666666666666</ele><time>2026-05-02T12:58:57Z</time></trkpt><trkpt lat="43.350703073896895" lon="13.230307776116875"><ele>711.0</ele><time>2026-05-02T12:58:58Z</time></trkpt><trkpt lat="43.35068014515574" lon="13.230211080535293"><ele>713.8333333333334</ele><time>2026-05-02T12:58:59Z</time></trkpt><trkpt lat="43.3506657892403" lon="13.230119371202484"><ele>716.6666666666666</ele><time>2026-05-02T12:59:00Z</time></trkpt><trkpt lat="43.3506552542806" lon="13.230032760733437"><ele>719.5</ele><time>2026-05-02T12:59:01Z</time></trkpt><trkpt lat="43.350626059840884" lon="13.22992519105579"><ele>722.3333333333333</ele><time>2026-05-02T12:59:02Z</time></trkpt><trkpt lat="43.35059734634275" lon="13.229803119621566"><ele>725.1666666666666</ele><time>2026-05-02T12:59:03Z</time></trkpt><trkpt lat="43.35057032356573" lon="13.229677522459344"><ele>728.0</ele><time>2026-05-02T12:59:04Z</time></trkpt><trkpt lat="43.3505429225231" lon="13.229552153905454"><ele>728.1666666666666</ele><time>2026-05-02T12:59:05Z</time></trkpt><trkpt lat="43.350516280758555" lon="13.229441956107722"><ele>728.3333333333333</ele><time>2026-05-02T12:59:06Z</time></trkpt><trkpt lat="43.35049683660245" lon="13.22931866891602"><ele>728.5</ele><time>2026-05-02T12:59:07Z</time></trkpt><trkpt lat="43.35048105879111" lon="13.229204647804165"><ele>728.6666666666666</ele><time>2026-05-02T12:59:08Z</time></trkpt><trkpt lat="43.35045920704544" lon="13.229091930201472"><ele>728.8333333333334</ele><time>2026-05-02T12:59:09Z</time></trkpt><trkpt lat="43.350451099291675" lon="13.228980733502"><ele>729.0</ele><time>2026-05-02T12:59:10Z</time></trkpt><trkpt lat="43.35045182071461" lon="13.228873262788909"><ele>730.4285714285714</ele><time>2026-05-02T12:59:11Z</time></trkpt><trkpt lat="43.35046453187373" lon="13.228786109005563"><ele>731.8571428571428</ele><time>2026-05-02T12:59:12Z</time></trkpt><trkpt lat="43.35047206601101" lon="13.228692084109007"><ele>733.2857142857142</ele><time>2026-05-02T12:59:13Z</time></trkpt><trkpt lat="43.350486488543986" lon="13.228604829572353"><ele>734.7142857142858</ele><time>2026-05-02T12:59:14Z</time></trkpt><trkpt lat="43.35051455236634" lon="13.22851828115463"><ele>736.1428571428571</ele><time>2026-05-02T12:59:15Z</time></trkpt><trkpt lat="43.350560547735135" lon="13.228442781826459"><ele>737.5714285714286</ele><time>2026-05-02T12:59:16Z</time></trkpt><trkpt lat="43.35060953181566" lon="13.228383566076898"><ele>739.0</ele><time>2026-05-02T12:59:17Z</time></trkpt><trkpt lat="43.35067973568779" lon="13.228285986018317"><ele>740.4000000000001</ele><time>2026-05-02T12:59:19Z</time></trkpt><trkpt lat="43.350650809007874" lon="13.228140031273613"><ele>741.8</ele><time>2026-05-02T12:59:30Z</time></trkpt><trkpt lat="43.350572426185195" lon="13.22800614796979"><ele>743.2</ele><time>2026-05-02T12:59:32Z</time></trkpt><trkpt lat="43.350532427848755" lon="13.227915412771635"><ele>744.5999999999999</ele><time>2026-05-02T12:59:33Z</time></trkpt><trkpt lat="43.35048798406527" lon="13.22780309454021"><ele>746.0</ele><time>2026-05-02T12:59:34Z</time></trkpt><trkpt lat="43.350433381248045" lon="13.227682731141625"><ele>746.1999999999999</ele><time>2026-05-02T12:59:35Z</time></trkpt><trkpt lat="43.35038103528747" lon="13.227565924195636"><ele>746.4</ele><time>2026-05-02T12:59:36Z</time></trkpt><trkpt lat="43.35032592645013" lon="13.227445063885002"><ele>746.6</ele><time>2026-05-02T12:59:37Z</time></trkpt><trkpt lat="43.35027273812085" lon="13.227321572264138"><ele>746.8</ele><time>2026-05-02T12:59:38Z</time></trkpt><trkpt lat="43.35022370057492" lon="13.227204976556528"><ele>747.0</ele><time>2026-05-02T12:59:39Z</time></trkpt><trkpt lat="43.350171417915" lon="13.227092781822854"><ele>748.75</ele><time>2026-05-02T12:59:40Z</time></trkpt><trkpt lat="43.35011890275591" lon="13.226975597917043"><ele>750.5</ele><time>2026-05-02T12:59:41Z</time></trkpt><trkpt lat="43.35006360379454" lon="13.22684554041339"><ele>752.25</ele><time>2026-05-02T12:59:42Z</time></trkpt><trkpt lat="43.349987431043104" lon="13.22667163725115"><ele>754.0</ele><time>2026-05-02T12:59:43Z</time></trkpt><trkpt lat="43.34989741922219" lon="13.226470317799901"><ele>754.75</ele><time>2026-05-02T12:59:44Z</time></trkpt><trkpt lat="43.34980183606882" lon="13.226263999877096"><ele>755.5</ele><time>2026-05-02T12:59:45Z</time></trkpt><trkpt lat="43.34973268463675" lon="13.226107793119532"><ele>756.25</ele><time>2026-05-02T12:59:46Z</time></trkpt><trkpt lat="43.349683444193026" lon="13.225996774557665"><ele>757.0</ele><time>2026-05-02T12:59:47Z</time></trkpt><trkpt lat="43.34963978030135" lon="13.225900379403106"><ele>757.5</ele><time>2026-05-02T12:59:48Z</time></trkpt><trkpt lat="43.34960462193995" lon="13.225811689319203"><ele>758.0</ele><time>2026-05-02T12:59:49Z</time></trkpt><trkpt lat="43.34954823673715" lon="13.225703136104096"><ele>758.5</ele><time>2026-05-02T12:59:51Z</time></trkpt><trkpt lat="43.34951137701076" lon="13.225632204064464"><ele>759.0</ele><time>2026-05-02T13:00:04Z</time></trkpt><trkpt lat="43.34945408350955" lon="13.225564701830821"><ele>759.5</ele><time>2026-05-02T13:00:09Z</time></trkpt><trkpt lat="43.34937428084326" lon="13.225563264539167"><ele>760.0</ele><time>2026-05-02T13:00:12Z</time></trkpt><trkpt lat="43.34930332010569" lon="13.225514818612245"><ele>760.4</ele><time>2026-05-02T13:00:14.001Z</time></trkpt><trkpt lat="43.349200966578984" lon="13.225427853004742"><ele>760.8</ele><time>2026-05-02T13:00:16.001Z</time></trkpt><trkpt lat="43.34910460110709" lon="13.225344275496827"><ele>761.2</ele><time>2026-05-02T13:00:18.001Z</time></trkpt><trkpt lat="43.34903009365762" lon="13.225237812843046"><ele>761.6</ele><time>2026-05-02T13:00:21.001Z</time></trkpt><trkpt lat="43.348978606108204" lon="13.225153838745799"><ele>762.0</ele><time>2026-05-02T13:00:24.001Z</time></trkpt><trkpt lat="43.348914937435666" lon="13.225061705558325"><ele>762.0</ele><time>2026-05-02T13:00:27.001Z</time></trkpt><trkpt lat="43.34889181767814" lon="13.22497825907665"><ele>762.0</ele><time>2026-05-02T13:00:28.001Z</time></trkpt><trkpt lat="43.34884095639535" lon="13.224888452117698"><ele>762.0</ele><time>2026-05-02T13:00:30.001Z</time></trkpt><trkpt lat="43.348795224158735" lon="13.224750918379653"><ele>762.0</ele><time>2026-05-02T13:00:32.001Z</time></trkpt><trkpt lat="43.34873635235349" lon="13.224651386527986"><ele>762.0</ele><time>2026-05-02T13:00:34.001Z</time></trkpt><trkpt lat="43.348653679246794" lon="13.22457348052481"><ele>762.2</ele><time>2026-05-02T13:00:37.001Z</time></trkpt><trkpt lat="43.34861645031763" lon="13.224488222694214"><ele>762.4000000000001</ele><time>2026-05-02T13:00:38.001Z</time></trkpt><trkpt lat="43.34854386112944" lon="13.224371245252518"><ele>762.5999999999999</ele><time>2026-05-02T13:00:40.001Z</time></trkpt><trkpt lat="43.34848851958342" lon="13.224214723687195"><ele>762.8</ele><time>2026-05-02T13:00:42.001Z</time></trkpt><trkpt lat="43.3484494775356" lon="13.2240689810404"><ele>763.0</ele><time>2026-05-02T13:00:44.001Z</time></trkpt><trkpt lat="43.34842708799587" lon="13.223924388041079"><ele>763.0</ele><time>2026-05-02T13:00:46.001Z</time></trkpt><trkpt lat="43.348378944325226" lon="13.223820201128966"><ele>763.0</ele><time>2026-05-02T13:00:48.001Z</time></trkpt><trkpt lat="43.34842821796964" lon="13.22368487268123"><ele>763.0</ele><time>2026-05-02T13:00:51.001Z</time></trkpt><trkpt lat="43.34847895659438" lon="13.223553247476984"><ele>763.0</ele><time>2026-05-02T13:00:53.001Z</time></trkpt><trkpt lat="43.34849224183574" lon="13.223452005024765"><ele>763.0</ele><time>2026-05-02T13:00:55.001Z</time></trkpt><trkpt lat="43.34843141843529" lon="13.223386496146606"><ele>763.0</ele><time>2026-05-02T13:01:04.001Z</time></trkpt><trkpt lat="43.3484486642327" lon="13.22329120304209"><ele>763.0</ele><time>2026-05-02T13:01:05.001Z</time></trkpt><trkpt lat="43.34837123060059" lon="13.223244221839211"><ele>763.0</ele><time>2026-05-02T13:01:08.001Z</time></trkpt><trkpt lat="43.348301991885585" lon="13.223196611911016"><ele>763.0</ele><time>2026-05-02T13:01:09.001Z</time></trkpt><trkpt lat="43.34823248128415" lon="13.223147451448483"><ele>763.0</ele><time>2026-05-02T13:01:10.001Z</time></trkpt><trkpt lat="43.34816984608853" lon="13.223099613371723"><ele>763.0</ele><time>2026-05-02T13:01:11.001Z</time></trkpt><trkpt lat="43.34810025482791" lon="13.223043679699389"><ele>760.3333333333334</ele><time>2026-05-02T13:01:12.001Z</time></trkpt><trkpt lat="43.34804085752315" lon="13.222994341180451"><ele>757.6666666666667</ele><time>2026-05-02T13:01:13.001Z</time></trkpt><trkpt lat="43.347970103049455" lon="13.222950782242986"><ele>755.0</ele><time>2026-05-02T13:01:14.001Z</time></trkpt><trkpt lat="43.34786585426953" lon="13.222845893176292"><ele>752.3333333333334</ele><time>2026-05-02T13:01:16.001Z</time></trkpt><trkpt lat="43.34781282339912" lon="13.222771624880256"><ele>749.6666666666666</ele><time>2026-05-02T13:01:17.001Z</time></trkpt><trkpt lat="43.34776608934203" lon="13.222704743508949"><ele>747.0</ele><time>2026-05-02T13:01:18.001Z</time></trkpt><trkpt lat="43.34773144726697" lon="13.22261404825639"><ele>747.0</ele><time>2026-05-02T13:01:19.001Z</time></trkpt><trkpt lat="43.347667158179895" lon="13.22250798768965"><ele>747.0</ele><time>2026-05-02T13:01:21Z</time></trkpt><trkpt lat="43.347627858752006" lon="13.222414400002846"><ele>747.0</ele><time>2026-05-02T13:01:22Z</time></trkpt><trkpt lat="43.34760643894413" lon="13.222324879073216"><ele>747.0</ele><time>2026-05-02T13:01:23Z</time></trkpt><trkpt lat="43.34755890735222" lon="13.222241638069892"><ele>747.0</ele><time>2026-05-02T13:01:24Z</time></trkpt><trkpt lat="43.34751569818407" lon="13.222133102497668"><ele>747.0</ele><time>2026-05-02T13:01:26Z</time></trkpt><trkpt lat="43.34746688199179" lon="13.222051580915892"><ele>747.4000000000001</ele><time>2026-05-02T13:01:27Z</time></trkpt><trkpt lat="43.34740382903519" lon="13.221857499617613"><ele>747.8000000000001</ele><time>2026-05-02T13:01:29Z</time></trkpt><trkpt lat="43.34736272887067" lon="13.221750660967809"><ele>748.2</ele><time>2026-05-02T13:01:30Z</time></trkpt><trkpt lat="43.34732497943469" lon="13.221635077864695"><ele>748.6</ele><time>2026-05-02T13:01:31Z</time></trkpt><trkpt lat="43.347284838500585" lon="13.221522369343058"><ele>749.0</ele><time>2026-05-02T13:01:32Z</time></trkpt><trkpt lat="43.34726429066444" lon="13.22142138012462"><ele>749.4000000000001</ele><time>2026-05-02T13:01:33Z</time></trkpt><trkpt lat="43.347221122545626" lon="13.221344903026624"><ele>749.8</ele><time>2026-05-02T13:01:34Z</time></trkpt><trkpt lat="43.347196076050984" lon="13.221225874678199"><ele>750.2</ele><time>2026-05-02T13:01:35Z</time></trkpt><trkpt lat="43.3471398501216" lon="13.221073931019436"><ele>750.5999999999999</ele><time>2026-05-02T13:01:37Z</time></trkpt><trkpt lat="43.34709517176476" lon="13.220953193223204"><ele>751.0</ele><time>2026-05-02T13:01:38Z</time></trkpt><trkpt lat="43.3470329159101" lon="13.22083654598299"><ele>746.0</ele><time>2026-05-02T13:01:39Z</time></trkpt><trkpt lat="43.34698695224405" lon="13.22070697960077"><ele>741.0</ele><time>2026-05-02T13:01:40Z</time></trkpt><trkpt lat="43.346951814178254" lon="13.220571926185947"><ele>736.0</ele><time>2026-05-02T13:01:41Z</time></trkpt><trkpt lat="43.3469092811098" lon="13.22045887622024"><ele>731.0</ele><time>2026-05-02T13:01:42Z</time></trkpt><trkpt lat="43.346854278487676" lon="13.220362048806946"><ele>726.0</ele><time>2026-05-02T13:01:43Z</time></trkpt><trkpt lat="43.346828673945716" lon="13.220264710788236"><ele>726.0</ele><time>2026-05-02T13:01:44Z</time></trkpt><trkpt lat="43.34678575835045" lon="13.220146965886121"><ele>726.0</ele><time>2026-05-02T13:01:45Z</time></trkpt><trkpt lat="43.34674768557233" lon="13.220035352656543"><ele>726.0</ele><time>2026-05-02T13:01:46Z</time></trkpt><trkpt lat="43.346721558893854" lon="13.21995417719352"><ele>726.0</ele><time>2026-05-02T13:01:47Z</time></trkpt><trkpt lat="43.34666189582859" lon="13.219777169165903"><ele>726.0</ele><time>2026-05-02T13:01:49Z</time></trkpt><trkpt lat="43.34663207824392" lon="13.219689179848926"><ele>727.1999999999999</ele><time>2026-05-02T13:01:50Z</time></trkpt><trkpt lat="43.34660343730277" lon="13.219606417246565"><ele>728.4</ele><time>2026-05-02T13:01:51Z</time></trkpt><trkpt lat="43.34655783148339" lon="13.21954075864663"><ele>729.6</ele><time>2026-05-02T13:01:52Z</time></trkpt><trkpt lat="43.34649173353337" lon="13.21935463869075"><ele>730.8</ele><time>2026-05-02T13:01:54Z</time></trkpt><trkpt lat="43.34645329482054" lon="13.219219892721844"><ele>732.0</ele><time>2026-05-02T13:01:55Z</time></trkpt><trkpt lat="43.346411991987125" lon="13.21908367797347"><ele>728.0</ele><time>2026-05-02T13:01:56Z</time></trkpt><trkpt lat="43.34636007677103" lon="13.218926321119904"><ele>724.0</ele><time>2026-05-02T13:01:57.001Z</time></trkpt><trkpt lat="43.34629217852518" lon="13.218798847795675"><ele>720.0</ele><time>2026-05-02T13:01:58.001Z</time></trkpt><trkpt lat="43.3462493757443" lon="13.218652448928266"><ele>716.0</ele><time>2026-05-02T13:01:59.001Z</time></trkpt><trkpt lat="43.3461878366344" lon="13.218496763395216"><ele>716.0</ele><time>2026-05-02T13:02:00.001Z</time></trkpt><trkpt lat="43.34613576311923" lon="13.21837273415452"><ele>716.0</ele><time>2026-05-02T13:02:01.001Z</time></trkpt><trkpt lat="43.34609817638283" lon="13.218259861028915"><ele>716.0</ele><time>2026-05-02T13:02:02.001Z</time></trkpt><trkpt lat="43.34608685595892" lon="13.218161369874938"><ele>716.0</ele><time>2026-05-02T13:02:03.001Z</time></trkpt><trkpt lat="43.346103341630595" lon="13.218032087006526"><ele>716.0</ele><time>2026-05-02T13:02:04.001Z</time></trkpt><trkpt lat="43.34610618723434" lon="13.217863939310124"><ele>716.25</ele><time>2026-05-02T13:02:05.001Z</time></trkpt><trkpt lat="43.34611502061224" lon="13.217699994718362"><ele>716.5</ele><time>2026-05-02T13:02:06.001Z</time></trkpt><trkpt lat="43.346123049334174" lon="13.217503802437468"><ele>716.75</ele><time>2026-05-02T13:02:07.001Z</time></trkpt><trkpt lat="43.34612701169205" lon="13.217274257807647"><ele>717.0</ele><time>2026-05-02T13:02:08.001Z</time></trkpt><trkpt lat="43.34611379367296" lon="13.217028517251421"><ele>717.0</ele><time>2026-05-02T13:02:09.001Z</time></trkpt><trkpt lat="43.34610129546502" lon="13.216787112791142"><ele>717.0</ele><time>2026-05-02T13:02:10.001Z</time></trkpt><trkpt lat="43.34606355124959" lon="13.216571705687002"><ele>717.0</ele><time>2026-05-02T13:02:11.001Z</time></trkpt><trkpt lat="43.34605253535621" lon="13.216363593520633"><ele>717.75</ele><time>2026-05-02T13:02:12.001Z</time></trkpt><trkpt lat="43.346046633493295" lon="13.216170113074893"><ele>718.5</ele><time>2026-05-02T13:02:13.001Z</time></trkpt><trkpt lat="43.34602642600184" lon="13.21598954114796"><ele>719.25</ele><time>2026-05-02T13:02:14.001Z</time></trkpt><trkpt lat="43.34602295911172" lon="13.215788203557182"><ele>720.0</ele><time>2026-05-02T13:02:15.001Z</time></trkpt><trkpt lat="43.34601201639586" lon="13.215597862978994"><ele>720.3333333333334</ele><time>2026-05-02T13:02:16.001Z</time></trkpt><trkpt lat="43.34600002409191" lon="13.215382059608263"><ele>720.6666666666667</ele><time>2026-05-02T13:02:17.001Z</time></trkpt><trkpt lat="43.34598126906761" lon="13.215134174082205"><ele>721.0</ele><time>2026-05-02T13:02:18.001Z</time></trkpt><trkpt lat="43.345969243649904" lon="13.21492685314284"><ele>720.25</ele><time>2026-05-02T13:02:19.001Z</time></trkpt><trkpt lat="43.34598243341475" lon="13.214743280885624"><ele>719.5</ele><time>2026-05-02T13:02:20.001Z</time></trkpt><trkpt lat="43.345972172519474" lon="13.214599198138178"><ele>718.75</ele><time>2026-05-02T13:02:21.001Z</time></trkpt><trkpt lat="43.345999298829" lon="13.214413028268917"><ele>718.0</ele><time>2026-05-02T13:02:22.001Z</time></trkpt><trkpt lat="43.34602352196453" lon="13.214225450337654"><ele>718.0</ele><time>2026-05-02T13:02:23.001Z</time></trkpt><trkpt lat="43.34603996529227" lon="13.214046142233727"><ele>718.0</ele><time>2026-05-02T13:02:24.001Z</time></trkpt><trkpt lat="43.346062815158184" lon="13.21386488109623"><ele>718.0</ele><time>2026-05-02T13:02:25.001Z</time></trkpt><trkpt lat="43.34608865992859" lon="13.213684507522629"><ele>718.0</ele><time>2026-05-02T13:02:26.001Z</time></trkpt><trkpt lat="43.346121797398474" lon="13.213493292156814"><ele>716.5</ele><time>2026-05-02T13:02:27.001Z</time></trkpt><trkpt lat="43.346146748771304" lon="13.21330988358282"><ele>715.0</ele><time>2026-05-02T13:02:28.001Z</time></trkpt><trkpt lat="43.3462023068979" lon="13.213131142027194"><ele>713.5</ele><time>2026-05-02T13:02:29.001Z</time></trkpt><trkpt lat="43.346246658313596" lon="13.212987492129674"><ele>712.0</ele><time>2026-05-02T13:02:30.001Z</time></trkpt><trkpt lat="43.34629088176025" lon="13.21284520830901"><ele>714.0</ele><time>2026-05-02T13:02:31.001Z</time></trkpt><trkpt lat="43.346347010865074" lon="13.212754917858694"><ele>716.0</ele><time>2026-05-02T13:02:32.001Z</time></trkpt><trkpt lat="43.34638968128706" lon="13.21267197145607"><ele>718.0</ele><time>2026-05-02T13:02:33.001Z</time></trkpt><trkpt lat="43.34648124283115" lon="13.212596216526386"><ele>720.0</ele><time>2026-05-02T13:02:34.001Z</time></trkpt><trkpt lat="43.34658767095751" lon="13.212538563071268"><ele>722.0</ele><time>2026-05-02T13:02:35.001Z</time></trkpt><trkpt lat="43.346693873913615" lon="13.212513366348098"><ele>722.0</ele><time>2026-05-02T13:02:36.001Z</time></trkpt><trkpt lat="43.34681017249985" lon="13.212500143833065"><ele>722.0</ele><time>2026-05-02T13:02:37.001Z</time></trkpt><trkpt lat="43.34690607369966" lon="13.21250138403639"><ele>722.0</ele><time>2026-05-02T13:02:38.001Z</time></trkpt><trkpt lat="43.34703227207666" lon="13.21251215023208"><ele>722.0</ele><time>2026-05-02T13:02:39.001Z</time></trkpt><trkpt lat="43.34716304998774" lon="13.212527524126925"><ele>722.25</ele><time>2026-05-02T13:02:40.001Z</time></trkpt><trkpt lat="43.34730510485361" lon="13.212538854703949"><ele>722.5</ele><time>2026-05-02T13:02:41.001Z</time></trkpt><trkpt lat="43.34742434507845" lon="13.212560224901708"><ele>722.75</ele><time>2026-05-02T13:02:42.001Z</time></trkpt><trkpt lat="43.34754933188031" lon="13.212596304293239"><ele>723.0</ele><time>2026-05-02T13:02:43.001Z</time></trkpt><trkpt lat="43.3476774005641" lon="13.21260472867482"><ele>723.0</ele><time>2026-05-02T13:02:44.001Z</time></trkpt><trkpt lat="43.34776521520116" lon="13.212638212218263"><ele>723.0</ele><time>2026-05-02T13:02:45.001Z</time></trkpt><trkpt lat="43.347859900468876" lon="13.212732402966585"><ele>723.0</ele><time>2026-05-02T13:02:46.001Z</time></trkpt><trkpt lat="43.347959811419486" lon="13.21282056606857"><ele>723.0</ele><time>2026-05-02T13:02:47.001Z</time></trkpt><trkpt lat="43.3480933747449" lon="13.212922927013219"><ele>724.3333333333334</ele><time>2026-05-02T13:02:48.001Z</time></trkpt><trkpt lat="43.34824469940162" lon="13.21307380667007"><ele>725.6666666666667</ele><time>2026-05-02T13:02:49.001Z</time></trkpt><trkpt lat="43.34839452174233" lon="13.21322199116306"><ele>727.0</ele><time>2026-05-02T13:02:50.001Z</time></trkpt><trkpt lat="43.34852780939796" lon="13.213338188373536"><ele>727.0</ele><time>2026-05-02T13:02:51.001Z</time></trkpt><trkpt lat="43.348657582064135" lon="13.213423828432454"><ele>727.0</ele><time>2026-05-02T13:02:52.001Z</time></trkpt><trkpt lat="43.348778932245246" lon="13.213499887055727"><ele>727.0</ele><time>2026-05-02T13:02:53.001Z</time></trkpt><trkpt lat="43.34890472821146" lon="13.213568950663158"><ele>727.0</ele><time>2026-05-02T13:02:54.001Z</time></trkpt><trkpt lat="43.34901250707764" lon="13.213596262545149"><ele>723.75</ele><time>2026-05-02T13:02:55.001Z</time></trkpt><trkpt lat="43.34913293586641" lon="13.213676620161657"><ele>720.5</ele><time>2026-05-02T13:02:56.001Z</time></trkpt><trkpt lat="43.34926264760568" lon="13.213738971465403"><ele>717.25</ele><time>2026-05-02T13:02:57.001Z</time></trkpt><trkpt lat="43.34938347465367" lon="13.213844851778227"><ele>714.0</ele><time>2026-05-02T13:02:58.001Z</time></trkpt><trkpt lat="43.349507511896945" lon="13.213899535053965"><ele>714.0</ele><time>2026-05-02T13:02:59.001Z</time></trkpt><trkpt lat="43.349651393943304" lon="13.213942479242434"><ele>714.0</ele><time>2026-05-02T13:03:00.001Z</time></trkpt><trkpt lat="43.34977177352277" lon="13.213979679516946"><ele>714.0</ele><time>2026-05-02T13:03:01.001Z</time></trkpt><trkpt lat="43.34989309425815" lon="13.214018913962342"><ele>714.0</ele><time>2026-05-02T13:03:02.001Z</time></trkpt><trkpt lat="43.35000428892676" lon="13.214079553975449"><ele>716.75</ele><time>2026-05-02T13:03:03.001Z</time></trkpt><trkpt lat="43.35010707448155" lon="13.214148056639727"><ele>719.5</ele><time>2026-05-02T13:03:04.001Z</time></trkpt><trkpt lat="43.35018510453737" lon="13.214269903834868"><ele>722.25</ele><time>2026-05-02T13:03:05.001Z</time></trkpt><trkpt lat="43.35027624635799" lon="13.214373073321994"><ele>725.0</ele><time>2026-05-02T13:03:06.001Z</time></trkpt><trkpt lat="43.35034986326194" lon="13.21447991071267"><ele>725.0</ele><time>2026-05-02T13:03:07.001Z</time></trkpt><trkpt lat="43.35039809457157" lon="13.21455619846636"><ele>725.0</ele><time>2026-05-02T13:03:08.001Z</time></trkpt><trkpt lat="43.35044733079179" lon="13.214626455510777"><ele>725.0</ele><time>2026-05-02T13:03:09.001Z</time></trkpt><trkpt lat="43.35049226322069" lon="13.214716951427631"><ele>725.0</ele><time>2026-05-02T13:03:10.001Z</time></trkpt><trkpt lat="43.350541575615" lon="13.214797908699591"><ele>725.0</ele><time>2026-05-02T13:03:11.001Z</time></trkpt><trkpt lat="43.35059931100188" lon="13.214882896116395"><ele>725.0</ele><time>2026-05-02T13:03:12.001Z</time></trkpt><trkpt lat="43.350671674253284" lon="13.214939758965699"><ele>726.0</ele><time>2026-05-02T13:03:13.001Z</time></trkpt><trkpt lat="43.350750709920284" lon="13.214974134417588"><ele>727.0</ele><time>2026-05-02T13:03:14.001Z</time></trkpt><trkpt lat="43.35082392117667" lon="13.214991624543966"><ele>728.0</ele><time>2026-05-02T13:03:15.001Z</time></trkpt><trkpt lat="43.35094641097837" lon="13.214973250802421"><ele>729.0</ele><time>2026-05-02T13:03:17.001Z</time></trkpt><trkpt lat="43.35103945635999" lon="13.214884694767921"><ele>730.0</ele><time>2026-05-02T13:03:19.001Z</time></trkpt><trkpt lat="43.35105551396839" lon="13.214773612006395"><ele>731.75</ele><time>2026-05-02T13:03:20.001Z</time></trkpt><trkpt lat="43.35103826852679" lon="13.214645628461389"><ele>733.5</ele><time>2026-05-02T13:03:21.001Z</time></trkpt><trkpt lat="43.3509700089964" lon="13.214510273083713"><ele>735.25</ele><time>2026-05-02T13:03:22.001Z</time></trkpt><trkpt lat="43.350923879481684" lon="13.214356247554493"><ele>737.0</ele><time>2026-05-02T13:03:23.001Z</time></trkpt><trkpt lat="43.35086750891124" lon="13.214171037429171"><ele>740.6666666666666</ele><time>2026-05-02T13:03:24.001Z</time></trkpt><trkpt lat="43.35080961441763" lon="13.21397667102711"><ele>744.3333333333334</ele><time>2026-05-02T13:03:25.001Z</time></trkpt><trkpt lat="43.3507573040076" lon="13.213783462611756"><ele>748.0</ele><time>2026-05-02T13:03:26.001Z</time></trkpt><trkpt lat="43.35070118292786" lon="13.213593957275904"><ele>748.0</ele><time>2026-05-02T13:03:27.001Z</time></trkpt><trkpt lat="43.350633013470755" lon="13.213440935046"><ele>748.0</ele><time>2026-05-02T13:03:28.001Z</time></trkpt><trkpt lat="43.35059328398718" lon="13.21329366907447"><ele>748.0</ele><time>2026-05-02T13:03:29.001Z</time></trkpt><trkpt lat="43.35050803303429" lon="13.213139200748863"><ele>748.0</ele><time>2026-05-02T13:03:30.001Z</time></trkpt><trkpt lat="43.350425591722754" lon="13.21294360232891"><ele>746.0</ele><time>2026-05-02T13:03:31.001Z</time></trkpt><trkpt lat="43.3503440372091" lon="13.212769504451428"><ele>744.0</ele><time>2026-05-02T13:03:32.001Z</time></trkpt><trkpt lat="43.350268219178766" lon="13.212592088486163"><ele>742.0</ele><time>2026-05-02T13:03:33.001Z</time></trkpt><trkpt lat="43.35016668861936" lon="13.212414250963388"><ele>744.75</ele><time>2026-05-02T13:03:34.001Z</time></trkpt><trkpt lat="43.35007945215773" lon="13.212238853911144"><ele>747.5</ele><time>2026-05-02T13:03:35.001Z</time></trkpt><trkpt lat="43.350014550099" lon="13.212073783425643"><ele>750.25</ele><time>2026-05-02T13:03:36.001Z</time></trkpt><trkpt lat="43.349953085651094" lon="13.211902511535873"><ele>753.0</ele><time>2026-05-02T13:03:37.001Z</time></trkpt><trkpt lat="43.349896893536744" lon="13.211757919734223"><ele>753.0</ele><time>2026-05-02T13:03:38.001Z</time></trkpt><trkpt lat="43.34985905808353" lon="13.211630036986303"><ele>753.0</ele><time>2026-05-02T13:03:39.001Z</time></trkpt><trkpt lat="43.34983113487262" lon="13.211502641619441"><ele>753.0</ele><time>2026-05-02T13:03:40.001Z</time></trkpt><trkpt lat="43.34981117017622" lon="13.21137781001181"><ele>753.0</ele><time>2026-05-02T13:03:41.001Z</time></trkpt><trkpt lat="43.34979222396431" lon="13.211225236005314"><ele>753.0</ele><time>2026-05-02T13:03:42.001Z</time></trkpt><trkpt lat="43.34977822623164" lon="13.211084278283794"><ele>755.0</ele><time>2026-05-02T13:03:43.001Z</time></trkpt><trkpt lat="43.349753354515705" lon="13.210962471226079"><ele>757.0</ele><time>2026-05-02T13:03:44.001Z</time></trkpt><trkpt lat="43.34976362219637" lon="13.210857628088357"><ele>759.0</ele><time>2026-05-02T13:03:45.001Z</time></trkpt><trkpt lat="43.34975211775546" lon="13.2107329120358"><ele>761.0</ele><time>2026-05-02T13:03:46.001Z</time></trkpt><trkpt lat="43.349775114066446" lon="13.210595835761165"><ele>763.0</ele><time>2026-05-02T13:03:47.001Z</time></trkpt><trkpt lat="43.34980130318208" lon="13.210447770160835"><ele>763.2</ele><time>2026-05-02T13:03:48.001Z</time></trkpt><trkpt lat="43.34981847118016" lon="13.210291869858889"><ele>763.4</ele><time>2026-05-02T13:03:49.001Z</time></trkpt><trkpt lat="43.34981386927607" lon="13.210148865813665"><ele>763.6</ele><time>2026-05-02T13:03:50.001Z</time></trkpt><trkpt lat="43.34980685829264" lon="13.210028219106933"><ele>763.8000000000001</ele><time>2026-05-02T13:03:51.001Z</time></trkpt><trkpt lat="43.349784112186626" lon="13.209925090161267"><ele>764.0</ele><time>2026-05-02T13:03:52.001Z</time></trkpt><trkpt lat="43.34977320428454" lon="13.209831352301071"><ele>763.6666666666666</ele><time>2026-05-02T13:03:53.001Z</time></trkpt><trkpt lat="43.349764892306155" lon="13.20972208835179"><ele>763.3333333333333</ele><time>2026-05-02T13:03:54.001Z</time></trkpt><trkpt lat="43.349751993659574" lon="13.20958778637915"><ele>763.0</ele><time>2026-05-02T13:03:55.001Z</time></trkpt><trkpt lat="43.349731767555305" lon="13.209465734878425"><ele>762.6666666666666</ele><time>2026-05-02T13:03:56.001Z</time></trkpt><trkpt lat="43.34972059084433" lon="13.209343581337247"><ele>762.3333333333334</ele><time>2026-05-02T13:03:57.001Z</time></trkpt><trkpt lat="43.34970242594873" lon="13.209241892643119"><ele>762.0</ele><time>2026-05-02T13:03:58.001Z</time></trkpt><trkpt lat="43.349675529625124" lon="13.209141062769776"><ele>759.8333333333334</ele><time>2026-05-02T13:03:59.001Z</time></trkpt><trkpt lat="43.349652931301975" lon="13.209012931851156"><ele>757.6666666666666</ele><time>2026-05-02T13:04:00.001Z</time></trkpt><trkpt lat="43.34963731811152" lon="13.208925127959978"><ele>755.5</ele><time>2026-05-02T13:04:01.001Z</time></trkpt><trkpt lat="43.349612895354134" lon="13.208845316270347"><ele>753.3333333333333</ele><time>2026-05-02T13:04:02.001Z</time></trkpt><trkpt lat="43.349583144121056" lon="13.208703804436826"><ele>751.1666666666666</ele><time>2026-05-02T13:04:04.001Z</time></trkpt><trkpt lat="43.3495950042751" lon="13.208598523381717"><ele>749.0</ele><time>2026-05-02T13:04:06.001Z</time></trkpt><trkpt lat="43.3495754923658" lon="13.208492335669188"><ele>753.3333333333333</ele><time>2026-05-02T13:04:09.001Z</time></trkpt><trkpt lat="43.34979184570361" lon="13.208374397032168"><ele>757.6666666666666</ele><time>2026-05-02T13:04:10.001Z</time></trkpt><trkpt lat="43.34988928087026" lon="13.208207911674988"><ele>762.0</ele><time>2026-05-02T13:04:12.001Z</time></trkpt><trkpt lat="43.34993809149202" lon="13.208130540131059"><ele>762.0</ele><time>2026-05-02T13:04:13.001Z</time></trkpt><trkpt lat="43.34998448469611" lon="13.208030421912689"><ele>762.0</ele><time>2026-05-02T13:04:14.001Z</time></trkpt><trkpt lat="43.350035354519214" lon="13.20793865287947"><ele>762.0</ele><time>2026-05-02T13:04:15.001Z</time></trkpt><trkpt lat="43.35008569749118" lon="13.207886535377604"><ele>762.0</ele><time>2026-05-02T13:04:16.001Z</time></trkpt><trkpt lat="43.3501235659374" lon="13.207815076251126"><ele>762.0</ele><time>2026-05-02T13:04:17.001Z</time></trkpt><trkpt lat="43.3501535494466" lon="13.207683193424609"><ele>762.0</ele><time>2026-05-02T13:04:19.001Z</time></trkpt><trkpt lat="43.35018146603839" lon="13.207563756186142"><ele>762.0</ele><time>2026-05-02T13:04:20.001Z</time></trkpt><trkpt lat="43.35021418662823" lon="13.20747486131023"><ele>762.0</ele><time>2026-05-02T13:04:21.001Z</time></trkpt><trkpt lat="43.350274205409534" lon="13.207368763555769"><ele>762.0</ele><time>2026-05-02T13:04:23.001Z</time></trkpt><trkpt lat="43.35036378268019" lon="13.207301210645051"><ele>762.0</ele><time>2026-05-02T13:04:25.001Z</time></trkpt><trkpt lat="43.35053393891294" lon="13.20726194360381"><ele>762.0</ele><time>2026-05-02T13:04:27.001Z</time></trkpt><trkpt lat="43.35059675113215" lon="13.207244662727003"><ele>763.1666666666666</ele><time>2026-05-02T13:04:28.001Z</time></trkpt><trkpt lat="43.3506577216772" lon="13.207212697104374"><ele>764.3333333333333</ele><time>2026-05-02T13:04:29.001Z</time></trkpt><trkpt lat="43.3507403758064" lon="13.207129032707213"><ele>765.5</ele><time>2026-05-02T13:04:31.001Z</time></trkpt><trkpt lat="43.350821585216345" lon="13.207057724408616"><ele>766.6666666666666</ele><time>2026-05-02T13:04:33.001Z</time></trkpt><trkpt lat="43.35091622240915" lon="13.207000807205691"><ele>767.8333333333333</ele><time>2026-05-02T13:04:35.001Z</time></trkpt><trkpt lat="43.350986461892845" lon="13.206942681372196"><ele>769.0</ele><time>2026-05-02T13:04:36.001Z</time></trkpt><trkpt lat="43.35108787654813" lon="13.20689798555732"><ele>769.0</ele><time>2026-05-02T13:04:38.001Z</time></trkpt><trkpt lat="43.35119546645056" lon="13.20688356068746"><ele>769.0</ele><time>2026-05-02T13:04:40.001Z</time></trkpt><trkpt lat="43.351277321260724" lon="13.206814439489724"><ele>769.0</ele><time>2026-05-02T13:04:42.001Z</time></trkpt><trkpt lat="43.35136124933655" lon="13.206705213907185"><ele>769.0</ele><time>2026-05-02T13:04:44.001Z</time></trkpt><trkpt lat="43.351428369243166" lon="13.206698999875826"><ele>769.0</ele><time>2026-05-02T13:04:51.001Z</time></trkpt><trkpt lat="43.35150158798528" lon="13.206823606989557"><ele>768.6</ele><time>2026-05-02T13:04:59.001Z</time></trkpt><trkpt lat="43.35156184736055" lon="13.20688022315649"><ele>768.2</ele><time>2026-05-02T13:05:00.001Z</time></trkpt><trkpt lat="43.35161188542148" lon="13.206975762154753"><ele>767.8000000000001</ele><time>2026-05-02T13:05:01.001Z</time></trkpt><trkpt lat="43.35166748721052" lon="13.20703088771662"><ele>767.4000000000001</ele><time>2026-05-02T13:05:02.001Z</time></trkpt><trkpt lat="43.351753163495204" lon="13.207165210118058"><ele>767.0</ele><time>2026-05-02T13:05:04.001Z</time></trkpt><trkpt lat="43.35184047960167" lon="13.20726304520505"><ele>767.2</ele><time>2026-05-02T13:05:06.001Z</time></trkpt><trkpt lat="43.35192023697318" lon="13.207344442918437"><ele>767.4000000000001</ele><time>2026-05-02T13:05:08.001Z</time></trkpt><trkpt lat="43.35195146889116" lon="13.207449774350122"><ele>767.5999999999999</ele><time>2026-05-02T13:05:10.001Z</time></trkpt><trkpt lat="43.35207270174932" lon="13.207509239879649"><ele>767.8</ele><time>2026-05-02T13:05:12.001Z</time></trkpt><trkpt lat="43.35212417521129" lon="13.207638806795247"><ele>768.0</ele><time>2026-05-02T13:05:14.001Z</time></trkpt><trkpt lat="43.35222509092832" lon="13.207670571182314"><ele>766.8</ele><time>2026-05-02T13:05:16.001Z</time></trkpt><trkpt lat="43.35236376462809" lon="13.207725765937456"><ele>765.5999999999999</ele><time>2026-05-02T13:05:18.001Z</time></trkpt><trkpt lat="43.352437283257785" lon="13.207766818557854"><ele>764.4000000000001</ele><time>2026-05-02T13:05:19.001Z</time></trkpt><trkpt lat="43.35252265209617" lon="13.207807720311779"><ele>763.2</ele><time>2026-05-02T13:05:20.001Z</time></trkpt><trkpt lat="43.352598217589254" lon="13.207833376505807"><ele>762.0</ele><time>2026-05-02T13:05:21.001Z</time></trkpt><trkpt lat="43.352717240693146" lon="13.20784928587304"><ele>762.0</ele><time>2026-05-02T13:05:23.001Z</time></trkpt><trkpt lat="43.35279420552696" lon="13.207882734997572"><ele>762.0</ele><time>2026-05-02T13:05:25.001Z</time></trkpt><trkpt lat="43.352871113232226" lon="13.207901978965856"><ele>762.0</ele><time>2026-05-02T13:05:27.001Z</time></trkpt><trkpt lat="43.3529829194586" lon="13.208013131988444"><ele>762.0</ele><time>2026-05-02T13:05:29.001Z</time></trkpt><trkpt lat="43.353056293329594" lon="13.208102182887519"><ele>762.0</ele><time>2026-05-02T13:05:31.001Z</time></trkpt><trkpt lat="43.35315226686339" lon="13.20804557029918"><ele>760.3333333333334</ele><time>2026-05-02T13:05:33.001Z</time></trkpt><trkpt lat="43.353212418298476" lon="13.20799467502672"><ele>758.6666666666666</ele><time>2026-05-02T13:05:34.001Z</time></trkpt><trkpt lat="43.35327852149761" lon="13.207958764201667"><ele>757.0</ele><time>2026-05-02T13:05:35.001Z</time></trkpt><trkpt lat="43.35334502105207" lon="13.207926543191283"><ele>755.3333333333333</ele><time>2026-05-02T13:05:36.001Z</time></trkpt><trkpt lat="43.35343463610125" lon="13.207868926197344"><ele>753.6666666666666</ele><time>2026-05-02T13:05:38Z</time></trkpt><trkpt lat="43.35351975617867" lon="13.207798333745924"><ele>752.0</ele><time>2026-05-02T13:05:40Z</time></trkpt><trkpt lat="43.353589874824145" lon="13.207811728750524"><ele>752.0</ele><time>2026-05-02T13:05:42Z</time></trkpt><trkpt lat="43.353700989695064" lon="13.20788881951158"><ele>752.0</ele><time>2026-05-02T13:05:44Z</time></trkpt><trkpt lat="43.3537865734639" lon="13.20789663505858"><ele>752.0</ele><time>2026-05-02T13:05:45Z</time></trkpt><trkpt lat="43.353866325704715" lon="13.207861082418818"><ele>752.0</ele><time>2026-05-02T13:05:47Z</time></trkpt><trkpt lat="43.3539324617664" lon="13.207854223913913"><ele>752.0</ele><time>2026-05-02T13:05:48Z</time></trkpt><trkpt lat="43.354032179152426" lon="13.207883909482108"><ele>750.6</ele><time>2026-05-02T13:05:50Z</time></trkpt><trkpt lat="43.35413997911208" lon="13.208005117680562"><ele>749.2</ele><time>2026-05-02T13:05:52Z</time></trkpt><trkpt lat="43.3542253870768" lon="13.208078439281879"><ele>747.8</ele><time>2026-05-02T13:05:54Z</time></trkpt><trkpt lat="43.35428473030909" lon="13.208131472244666"><ele>746.4</ele><time>2026-05-02T13:06:03Z</time></trkpt><trkpt lat="43.35437162180881" lon="13.20813277137439"><ele>745.0</ele><time>2026-05-02T13:06:05Z</time></trkpt><trkpt lat="43.35443079885577" lon="13.20816238167038"><ele>745.0</ele><time>2026-05-02T13:06:06Z</time></trkpt><trkpt lat="43.35449404544874" lon="13.208178206471974"><ele>745.0</ele><time>2026-05-02T13:06:07Z</time></trkpt><trkpt lat="43.35459942452671" lon="13.208253786655623"><ele>745.0</ele><time>2026-05-02T13:06:09Z</time></trkpt><trkpt lat="43.354658534141805" lon="13.208303890031265"><ele>745.0</ele><time>2026-05-02T13:06:10Z</time></trkpt><trkpt lat="43.3547789583579" lon="13.208329726735302"><ele>745.0</ele><time>2026-05-02T13:06:12Z</time></trkpt><trkpt lat="43.354848710566955" lon="13.20830390754929"><ele>745.0</ele><time>2026-05-02T13:06:13Z</time></trkpt><trkpt lat="43.3549207849622" lon="13.20830310485999"><ele>745.0</ele><time>2026-05-02T13:06:14Z</time></trkpt><trkpt lat="43.35498750201441" lon="13.208313894024409"><ele>745.0</ele><time>2026-05-02T13:06:15Z</time></trkpt><trkpt lat="43.35505049532647" lon="13.20836130222656"><ele>745.0</ele><time>2026-05-02T13:06:16Z</time></trkpt><trkpt lat="43.355136955630755" lon="13.208479132595224"><ele>745.0</ele><time>2026-05-02T13:06:18Z</time></trkpt><trkpt lat="43.355184279904265" lon="13.208567422786466"><ele>745.0</ele><time>2026-05-02T13:06:19Z</time></trkpt><trkpt lat="43.35525976601774" lon="13.208645316834515"><ele>745.0</ele><time>2026-05-02T13:06:20Z</time></trkpt><trkpt lat="43.35532501465884" lon="13.208705115702044"><ele>745.0</ele><time>2026-05-02T13:06:21Z</time></trkpt><trkpt lat="43.35538973200412" lon="13.208734923339527"><ele>745.0</ele><time>2026-05-02T13:06:22Z</time></trkpt><trkpt lat="43.35543095700741" lon="13.208801347726096"><ele>745.0</ele><time>2026-05-02T13:06:23Z</time></trkpt><trkpt lat="43.35555513143254" lon="13.208884799325434"><ele>745.0</ele><time>2026-05-02T13:06:25Z</time></trkpt><trkpt lat="43.35561867530909" lon="13.208972984373194"><ele>745.0</ele><time>2026-05-02T13:06:26Z</time></trkpt><trkpt lat="43.3556792297283" lon="13.2090272908909"><ele>745.0</ele><time>2026-05-02T13:06:27Z</time></trkpt><trkpt lat="43.35571869988506" lon="13.20909531661927"><ele>745.6666666666667</ele><time>2026-05-02T13:06:28Z</time></trkpt><trkpt lat="43.355802340799926" lon="13.209188894358535"><ele>746.3333333333334</ele><time>2026-05-02T13:06:29Z</time></trkpt><trkpt lat="43.355873441698336" lon="13.20923397266746"><ele>747.0</ele><time>2026-05-02T13:06:30Z</time></trkpt><trkpt lat="43.355922637594304" lon="13.209313410894573"><ele>747.6666666666666</ele><time>2026-05-02T13:06:31Z</time></trkpt><trkpt lat="43.35600586968415" lon="13.209418738507994"><ele>748.3333333333333</ele><time>2026-05-02T13:06:33Z</time></trkpt><trkpt lat="43.3560589337762" lon="13.209477430276898"><ele>749.0</ele><time>2026-05-02T13:06:34Z</time></trkpt><trkpt lat="43.35611647388292" lon="13.209539600132631"><ele>749.0</ele><time>2026-05-02T13:06:35Z</time></trkpt><trkpt lat="43.356182496293535" lon="13.209576384954701"><ele>749.0</ele><time>2026-05-02T13:06:36Z</time></trkpt><trkpt lat="43.35626248734728" lon="13.20967027313359"><ele>749.0</ele><time>2026-05-02T13:06:38Z</time></trkpt><trkpt lat="43.356331060914755" lon="13.2097377221836"><ele>749.0</ele><time>2026-05-02T13:06:39Z</time></trkpt><trkpt lat="43.356395433232834" lon="13.209808705666484"><ele>749.0</ele><time>2026-05-02T13:06:40Z</time></trkpt><trkpt lat="43.35647388074114" lon="13.20988327983336"><ele>749.0</ele><time>2026-05-02T13:06:42Z</time></trkpt><trkpt lat="43.35654869160048" lon="13.209963302333252"><ele>749.0</ele><time>2026-05-02T13:06:44Z</time></trkpt><trkpt lat="43.35659292842108" lon="13.210026927662065"><ele>749.0</ele><time>2026-05-02T13:06:45Z</time></trkpt><trkpt lat="43.3566498311364" lon="13.210074730044683"><ele>749.0</ele><time>2026-05-02T13:06:46Z</time></trkpt><trkpt lat="43.356709620455845" lon="13.210135188358914"><ele>749.0</ele><time>2026-05-02T13:06:47Z</time></trkpt><trkpt lat="43.356791950997334" lon="13.21026165187939"><ele>749.0</ele><time>2026-05-02T13:06:49Z</time></trkpt><trkpt lat="43.356856277874854" lon="13.210385681689822"><ele>749.0</ele><time>2026-05-02T13:06:51Z</time></trkpt><trkpt lat="43.35692275434686" lon="13.210463906569546"><ele>749.0</ele><time>2026-05-02T13:06:52Z</time></trkpt><trkpt lat="43.35697486277126" lon="13.210534676711088"><ele>749.0</ele><time>2026-05-02T13:06:53Z</time></trkpt><trkpt lat="43.35703740941521" lon="13.210595869884724"><ele>749.0</ele><time>2026-05-02T13:06:54Z</time></trkpt><trkpt lat="43.357098685651636" lon="13.210656453786306"><ele>749.0</ele><time>2026-05-02T13:06:55Z</time></trkpt><trkpt lat="43.35716366780916" lon="13.210727983848978"><ele>749.0</ele><time>2026-05-02T13:06:56Z</time></trkpt><trkpt lat="43.357213458572375" lon="13.210799300412774"><ele>749.0</ele><time>2026-05-02T13:06:57Z</time></trkpt><trkpt lat="43.357262592340135" lon="13.210907847020849"><ele>748.2</ele><time>2026-05-02T13:06:59Z</time></trkpt><trkpt lat="43.35733642332891" lon="13.21102336117689"><ele>747.4000000000001</ele><time>2026-05-02T13:07:01Z</time></trkpt><trkpt lat="43.35739966578568" lon="13.211084960313299"><ele>746.6</ele><time>2026-05-02T13:07:02Z</time></trkpt><trkpt lat="43.35742894527553" lon="13.21118031240363"><ele>745.8</ele><time>2026-05-02T13:07:03Z</time></trkpt><trkpt lat="43.3575222441372" lon="13.21131103413071"><ele>745.0</ele><time>2026-05-02T13:07:05Z</time></trkpt><trkpt lat="43.35757651405884" lon="13.211361844119544"><ele>745.4</ele><time>2026-05-02T13:07:06Z</time></trkpt><trkpt lat="43.35765694686456" lon="13.211511770154722"><ele>745.8</ele><time>2026-05-02T13:07:08Z</time></trkpt><trkpt lat="43.35770109291963" lon="13.211601934249893"><ele>746.2</ele><time>2026-05-02T13:07:09Z</time></trkpt><trkpt lat="43.35775775560997" lon="13.211682527694574"><ele>746.6</ele><time>2026-05-02T13:07:10Z</time></trkpt><trkpt lat="43.35781912274157" lon="13.211749588673204"><ele>747.0</ele><time>2026-05-02T13:07:11Z</time></trkpt><trkpt lat="43.35789658393181" lon="13.211880159265363"><ele>747.0</ele><time>2026-05-02T13:07:13Z</time></trkpt><trkpt lat="43.35796041733701" lon="13.211999441584357"><ele>747.0</ele><time>2026-05-02T13:07:15Z</time></trkpt><trkpt lat="43.35799474660651" lon="13.212101496457281"><ele>747.0</ele><time>2026-05-02T13:07:16Z</time></trkpt><trkpt lat="43.35802845555677" lon="13.21218238799808"><ele>747.0</ele><time>2026-05-02T13:07:17Z</time></trkpt><trkpt lat="43.358096317737406" lon="13.212258328249439"><ele>747.0</ele><time>2026-05-02T13:07:18Z</time></trkpt><trkpt lat="43.35814883954344" lon="13.212345819761753"><ele>747.0</ele><time>2026-05-02T13:07:19Z</time></trkpt><trkpt lat="43.358205128759394" lon="13.212431499875862"><ele>746.6</ele><time>2026-05-02T13:07:20Z</time></trkpt><trkpt lat="43.35824469598381" lon="13.212524230466453"><ele>746.2</ele><time>2026-05-02T13:07:21.001Z</time></trkpt><trkpt lat="43.358305417753755" lon="13.212675091500882"><ele>745.8</ele><time>2026-05-02T13:07:23.001Z</time></trkpt><trkpt lat="43.35839578524544" lon="13.212793903081806"><ele>745.4</ele><time>2026-05-02T13:07:25.001Z</time></trkpt><trkpt lat="43.35846351699172" lon="13.212872277447387"><ele>745.0</ele><time>2026-05-02T13:07:27.001Z</time></trkpt><trkpt lat="43.358505476674225" lon="13.212961651754881"><ele>745.0</ele><time>2026-05-02T13:07:28.001Z</time></trkpt><trkpt lat="43.358555155226334" lon="13.213104162393535"><ele>745.0</ele><time>2026-05-02T13:07:30.001Z</time></trkpt><trkpt lat="43.35856396749711" lon="13.213242178775026"><ele>745.0</ele><time>2026-05-02T13:07:32.001Z</time></trkpt><trkpt lat="43.35862121907233" lon="13.213313113536636"><ele>745.0</ele><time>2026-05-02T13:07:33.001Z</time></trkpt><trkpt lat="43.35866970141868" lon="13.213375748255134"><ele>745.0</ele><time>2026-05-02T13:07:34.001Z</time></trkpt><trkpt lat="43.35878476689524" lon="13.213505596978361"><ele>743.8333333333334</ele><time>2026-05-02T13:07:36.001Z</time></trkpt><trkpt lat="43.35881789213451" lon="13.213583938305554"><ele>742.6666666666667</ele><time>2026-05-02T13:07:37.001Z</time></trkpt><trkpt lat="43.35886325392238" lon="13.213653406184845"><ele>741.5</ele><time>2026-05-02T13:07:38Z</time></trkpt><trkpt lat="43.35893415288961" lon="13.213777791780128"><ele>740.3333333333334</ele><time>2026-05-02T13:07:40Z</time></trkpt><trkpt lat="43.3589796411947" lon="13.21384263581767"><ele>739.1666666666666</ele><time>2026-05-02T13:07:41Z</time></trkpt><trkpt lat="43.35904432540368" lon="13.21396116062517"><ele>738.0</ele><time>2026-05-02T13:07:43Z</time></trkpt><trkpt lat="43.359031777499" lon="13.214078161326135"><ele>736.4</ele><time>2026-05-02T13:07:45Z</time></trkpt><trkpt lat="43.35903694789287" lon="13.214208502929603"><ele>734.8</ele><time>2026-05-02T13:07:47Z</time></trkpt><trkpt lat="43.359078263336706" lon="13.214324633053288"><ele>733.2</ele><time>2026-05-02T13:07:49Z</time></trkpt><trkpt lat="43.35912021124818" lon="13.214406017940535"><ele>731.6</ele><time>2026-05-02T13:07:50Z</time></trkpt><trkpt lat="43.35920384773254" lon="13.214533790423086"><ele>730.0</ele><time>2026-05-02T13:07:52Z</time></trkpt><trkpt lat="43.35925638494621" lon="13.214610197601116"><ele>730.0</ele><time>2026-05-02T13:07:53Z</time></trkpt><trkpt lat="43.35930402435693" lon="13.214673553703962"><ele>730.0</ele><time>2026-05-02T13:07:54Z</time></trkpt><trkpt lat="43.359359432987496" lon="13.214798994361702"><ele>730.0</ele><time>2026-05-02T13:07:56Z</time></trkpt><trkpt lat="43.35938439862045" lon="13.214883169746063"><ele>730.0</ele><time>2026-05-02T13:07:57Z</time></trkpt><trkpt lat="43.35941275749649" lon="13.215033896957404"><ele>730.0</ele><time>2026-05-02T13:07:59Z</time></trkpt><trkpt lat="43.35947462072067" lon="13.215141216855192"><ele>728.0</ele><time>2026-05-02T13:08:01Z</time></trkpt><trkpt lat="43.35951814276428" lon="13.21521054245394"><ele>726.0</ele><time>2026-05-02T13:08:02Z</time></trkpt><trkpt lat="43.35957354317434" lon="13.215269986978488"><ele>724.0</ele><time>2026-05-02T13:08:03Z</time></trkpt><trkpt lat="43.35962333611537" lon="13.21533168628002"><ele>722.0</ele><time>2026-05-02T13:08:04Z</time></trkpt><trkpt lat="43.35968867690684" lon="13.215447517226822"><ele>720.0</ele><time>2026-05-02T13:08:06Z</time></trkpt><trkpt lat="43.35973699765907" lon="13.215539529874908"><ele>718.0</ele><time>2026-05-02T13:08:07Z</time></trkpt><trkpt lat="43.359797700499044" lon="13.215678644793723"><ele>716.5999999999999</ele><time>2026-05-02T13:08:09Z</time></trkpt><trkpt lat="43.35985854581061" lon="13.215812042922924"><ele>715.1999999999999</ele><time>2026-05-02T13:08:11Z</time></trkpt><trkpt lat="43.35993747197922" lon="13.215904483061882"><ele>713.8</ele><time>2026-05-02T13:08:13Z</time></trkpt><trkpt lat="43.35999044771645" lon="13.21603021130515"><ele>712.4</ele><time>2026-05-02T13:08:15Z</time></trkpt><trkpt lat="43.3600283443141" lon="13.216123809576187"><ele>711.0</ele><time>2026-05-02T13:08:17Z</time></trkpt><trkpt lat="43.36006850367723" lon="13.216204507030437"><ele>711.0</ele><time>2026-05-02T13:08:18Z</time></trkpt><trkpt lat="43.36011348240151" lon="13.216334002159266"><ele>711.0</ele><time>2026-05-02T13:08:20Z</time></trkpt><trkpt lat="43.36016634866656" lon="13.216387710458575"><ele>711.0</ele><time>2026-05-02T13:08:21Z</time></trkpt><trkpt lat="43.36022939291888" lon="13.216490762837962"><ele>711.0</ele><time>2026-05-02T13:08:23Z</time></trkpt><trkpt lat="43.360263755079224" lon="13.216622644149837"><ele>711.0</ele><time>2026-05-02T13:08:25Z</time></trkpt><trkpt lat="43.36032381670173" lon="13.21670453234286"><ele>708.5</ele><time>2026-05-02T13:08:26Z</time></trkpt><trkpt lat="43.36038791694707" lon="13.216762718188875"><ele>706.0</ele><time>2026-05-02T13:08:28Z</time></trkpt><trkpt lat="43.36045782269607" lon="13.2168370668588"><ele>703.5</ele><time>2026-05-02T13:08:30Z</time></trkpt><trkpt lat="43.3605310735919" lon="13.21689183345172"><ele>701.0</ele><time>2026-05-02T13:08:32Z</time></trkpt><trkpt lat="43.36059413284199" lon="13.216920655823536"><ele>698.5</ele><time>2026-05-02T13:08:34Z</time></trkpt><trkpt lat="43.36065649596096" lon="13.21700173313695"><ele>696.0</ele><time>2026-05-02T13:08:36Z</time></trkpt><trkpt lat="43.36073716777546" lon="13.217072685819005"><ele>695.1666666666666</ele><time>2026-05-02T13:08:38Z</time></trkpt><trkpt lat="43.36081101758541" lon="13.217152597850164"><ele>694.3333333333334</ele><time>2026-05-02T13:08:40Z</time></trkpt><trkpt lat="43.36087560391359" lon="13.217255334633187"><ele>693.5</ele><time>2026-05-02T13:08:42Z</time></trkpt><trkpt lat="43.36092963110119" lon="13.21735708877017"><ele>692.6666666666667</ele><time>2026-05-02T13:08:44Z</time></trkpt><trkpt lat="43.360971136646434" lon="13.217466819740562"><ele>691.8333333333334</ele><time>2026-05-02T13:08:46Z</time></trkpt><trkpt lat="43.36101420104754" lon="13.217541821989318"><ele>691.0</ele><time>2026-05-02T13:08:48Z</time></trkpt><trkpt lat="43.361048411859976" lon="13.217618959736186"><ele>689.3333333333334</ele><time>2026-05-02T13:08:49Z</time></trkpt><trkpt lat="43.3610920842246" lon="13.217718553548389"><ele>687.6666666666667</ele><time>2026-05-02T13:08:51Z</time></trkpt><trkpt lat="43.361106902809404" lon="13.217824460915104"><ele>686.0</ele><time>2026-05-02T13:08:53Z</time></trkpt><trkpt lat="43.36117020988187" lon="13.21789147226006"><ele>684.3333333333334</ele><time>2026-05-02T13:08:55Z</time></trkpt><trkpt lat="43.36118800375137" lon="13.217981601429539"><ele>682.6666666666666</ele><time>2026-05-02T13:08:57Z</time></trkpt><trkpt lat="43.361252480164495" lon="13.218055504782127"><ele>681.0</ele><time>2026-05-02T13:08:59Z</time></trkpt><trkpt lat="43.361267601503876" lon="13.2181553943864"><ele>677.1666666666666</ele><time>2026-05-02T13:09:04Z</time></trkpt><trkpt lat="43.361249314106125" lon="13.218254672383535"><ele>673.3333333333334</ele><time>2026-05-02T13:09:06Z</time></trkpt><trkpt lat="43.36114498619513" lon="13.218348222360362"><ele>669.5</ele><time>2026-05-02T13:09:08Z</time></trkpt><trkpt lat="43.361071330321046" lon="13.218319690440405"><ele>665.6666666666667</ele><time>2026-05-02T13:09:10Z</time></trkpt><trkpt lat="43.36099916824631" lon="13.218279100154442"><ele>661.8333333333334</ele><time>2026-05-02T13:09:12Z</time></trkpt><trkpt lat="43.36093652190887" lon="13.218254412064391"><ele>658.0</ele><time>2026-05-02T13:09:14Z</time></trkpt><trkpt lat="43.36088122637539" lon="13.218180537728633"><ele>658.8333333333334</ele><time>2026-05-02T13:09:15Z</time></trkpt><trkpt lat="43.36082984380178" lon="13.218085631607913"><ele>659.6666666666667</ele><time>2026-05-02T13:09:16Z</time></trkpt><trkpt lat="43.36075517521759" lon="13.218046555150032"><ele>660.5</ele><time>2026-05-02T13:09:17Z</time></trkpt><trkpt lat="43.36068260558293" lon="13.218009291793898"><ele>661.3333333333334</ele><time>2026-05-02T13:09:18Z</time></trkpt><trkpt lat="43.36060009479081" lon="13.21798424169764"><ele>662.1666666666666</ele><time>2026-05-02T13:09:19Z</time></trkpt><trkpt lat="43.360519874298596" lon="13.217903905624606"><ele>663.0</ele><time>2026-05-02T13:09:20Z</time></trkpt><trkpt lat="43.3604366488568" lon="13.217833148324045"><ele>663.0</ele><time>2026-05-02T13:09:21Z</time></trkpt><trkpt lat="43.360361016743845" lon="13.21775386879906"><ele>663.0</ele><time>2026-05-02T13:09:22Z</time></trkpt><trkpt lat="43.36027916294691" lon="13.217678033029188"><ele>663.0</ele><time>2026-05-02T13:09:23Z</time></trkpt><trkpt lat="43.36019417641966" lon="13.217605209193426"><ele>663.0</ele><time>2026-05-02T13:09:24Z</time></trkpt><trkpt lat="43.36010731994581" lon="13.217532738651226"><ele>663.0</ele><time>2026-05-02T13:09:25Z</time></trkpt><trkpt lat="43.36001413472931" lon="13.217468703034374"><ele>663.0</ele><time>2026-05-02T13:09:26Z</time></trkpt><trkpt lat="43.35992056604892" lon="13.217389404675991"><ele>663.0</ele><time>2026-05-02T13:09:27.001Z</time></trkpt><trkpt lat="43.35983638135535" lon="13.217295295288958"><ele>663.0</ele><time>2026-05-02T13:09:28.001Z</time></trkpt><trkpt lat="43.35974563455654" lon="13.217215169799987"><ele>663.0</ele><time>2026-05-02T13:09:29.001Z</time></trkpt><trkpt lat="43.35965572433284" lon="13.217130885323254"><ele>663.0</ele><time>2026-05-02T13:09:30.001Z</time></trkpt><trkpt lat="43.35956364184699" lon="13.217078811136801"><ele>664.5</ele><time>2026-05-02T13:09:31.001Z</time></trkpt><trkpt lat="43.35946137029323" lon="13.217010885496354"><ele>666.0</ele><time>2026-05-02T13:09:32.001Z</time></trkpt><trkpt lat="43.359377443436074" lon="13.216930004115769"><ele>667.5</ele><time>2026-05-02T13:09:33.001Z</time></trkpt><trkpt lat="43.359285936638585" lon="13.216807554561221"><ele>669.0</ele><time>2026-05-02T13:09:35.001Z</time></trkpt><trkpt lat="43.359212508681075" lon="13.216695089059247"><ele>669.0</ele><time>2026-05-02T13:09:36.001Z</time></trkpt><trkpt lat="43.359113968878546" lon="13.216616709374152"><ele>669.0</ele><time>2026-05-02T13:09:37.001Z</time></trkpt><trkpt lat="43.35903327779125" lon="13.216529426484747"><ele>669.0</ele><time>2026-05-02T13:09:38.001Z</time></trkpt><trkpt lat="43.35894780871136" lon="13.216432146991393"><ele>669.0</ele><time>2026-05-02T13:09:39.001Z</time></trkpt><trkpt lat="43.358855597412926" lon="13.216322700053222"><ele>669.0</ele><time>2026-05-02T13:09:40.001Z</time></trkpt><trkpt lat="43.35876971136316" lon="13.216239185636391"><ele>668.6</ele><time>2026-05-02T13:09:41Z</time></trkpt><trkpt lat="43.35867728256228" lon="13.216154328616225"><ele>668.2</ele><time>2026-05-02T13:09:42Z</time></trkpt><trkpt lat="43.35859179475582" lon="13.2160927597439"><ele>667.8000000000001</ele><time>2026-05-02T13:09:43Z</time></trkpt><trkpt lat="43.358493349165066" lon="13.216009334687278"><ele>667.4000000000001</ele><time>2026-05-02T13:09:44Z</time></trkpt><trkpt lat="43.358403785369674" lon="13.215911304766534"><ele>667.0</ele><time>2026-05-02T13:09:45Z</time></trkpt><trkpt lat="43.358315832543255" lon="13.215842312509036"><ele>667.0</ele><time>2026-05-02T13:09:46Z</time></trkpt><trkpt lat="43.35821001383111" lon="13.21576343213157"><ele>667.0</ele><time>2026-05-02T13:09:47Z</time></trkpt><trkpt lat="43.358115026330246" lon="13.21562248172604"><ele>667.0</ele><time>2026-05-02T13:09:48Z</time></trkpt><trkpt lat="43.358026660387004" lon="13.21554498248266"><ele>667.0</ele><time>2026-05-02T13:09:49Z</time></trkpt><trkpt lat="43.357947320989695" lon="13.215457286355635"><ele>666.5</ele><time>2026-05-02T13:09:50Z</time></trkpt><trkpt lat="43.35787191767971" lon="13.215369178550336"><ele>666.0</ele><time>2026-05-02T13:09:51Z</time></trkpt><trkpt lat="43.3577599698077" lon="13.215236853097585"><ele>665.5</ele><time>2026-05-02T13:09:52Z</time></trkpt><trkpt lat="43.357673829250324" lon="13.215123101380778"><ele>665.0</ele><time>2026-05-02T13:09:53Z</time></trkpt><trkpt lat="43.35757824305858" lon="13.21501645509655"><ele>665.0</ele><time>2026-05-02T13:09:54Z</time></trkpt><trkpt lat="43.35746318034079" lon="13.214892271664112"><ele>665.0</ele><time>2026-05-02T13:09:55Z</time></trkpt><trkpt lat="43.35735863367153" lon="13.214770023667551"><ele>665.0</ele><time>2026-05-02T13:09:56Z</time></trkpt><trkpt lat="43.35725233356091" lon="13.214651199399343"><ele>665.0</ele><time>2026-05-02T13:09:57Z</time></trkpt><trkpt lat="43.35714979701225" lon="13.21452359691298"><ele>665.25</ele><time>2026-05-02T13:09:58Z</time></trkpt><trkpt lat="43.357037193234795" lon="13.214418775398642"><ele>665.5</ele><time>2026-05-02T13:09:59Z</time></trkpt><trkpt lat="43.35693468978354" lon="13.214302096660271"><ele>665.75</ele><time>2026-05-02T13:10:00Z</time></trkpt><trkpt lat="43.35682375386596" lon="13.214174094305399"><ele>666.0</ele><time>2026-05-02T13:10:01Z</time></trkpt><trkpt lat="43.35671872739685" lon="13.214048324914794"><ele>666.0</ele><time>2026-05-02T13:10:02Z</time></trkpt><trkpt lat="43.356601571960546" lon="13.21396990882845"><ele>666.0</ele><time>2026-05-02T13:10:03Z</time></trkpt><trkpt lat="43.35651800652419" lon="13.21387243517028"><ele>666.0</ele><time>2026-05-02T13:10:04Z</time></trkpt><trkpt lat="43.35643526867002" lon="13.21377952931049"><ele>666.0</ele><time>2026-05-02T13:10:05Z</time></trkpt><trkpt lat="43.35635354800608" lon="13.213720250094582"><ele>666.0</ele><time>2026-05-02T13:10:06Z</time></trkpt><trkpt lat="43.35628374816537" lon="13.213702199119904"><ele>666.0</ele><time>2026-05-02T13:10:07Z</time></trkpt><trkpt lat="43.35622599700916" lon="13.213612838366558"><ele>666.0</ele><time>2026-05-02T13:10:09Z</time></trkpt><trkpt lat="43.356142402609606" lon="13.213484730852844"><ele>666.0</ele><time>2026-05-02T13:10:11Z</time></trkpt><trkpt lat="43.35608639212122" lon="13.213373139061886"><ele>666.0</ele><time>2026-05-02T13:10:12Z</time></trkpt><trkpt lat="43.35602065834832" lon="13.213283862053531"><ele>666.0</ele><time>2026-05-02T13:10:13Z</time></trkpt><trkpt lat="43.35593498245116" lon="13.213179005820859"><ele>670.5999999999999</ele><time>2026-05-02T13:10:14Z</time></trkpt><trkpt lat="43.3558804955749" lon="13.213050868304988"><ele>675.2</ele><time>2026-05-02T13:10:15Z</time></trkpt><trkpt lat="43.35580504450681" lon="13.212959154157911"><ele>679.8</ele><time>2026-05-02T13:10:16Z</time></trkpt><trkpt lat="43.35572490968349" lon="13.212806928282488"><ele>684.4000000000001</ele><time>2026-05-02T13:10:17Z</time></trkpt><trkpt lat="43.35564571431628" lon="13.212722197789898"><ele>689.0</ele><time>2026-05-02T13:10:18Z</time></trkpt><trkpt lat="43.35554730011367" lon="13.21257430903043"><ele>691.5</ele><time>2026-05-02T13:10:19Z</time></trkpt><trkpt lat="43.35545469491517" lon="13.212429575350344"><ele>694.0</ele><time>2026-05-02T13:10:20Z</time></trkpt><trkpt lat="43.35536600855234" lon="13.212300972723975"><ele>696.5</ele><time>2026-05-02T13:10:21Z</time></trkpt><trkpt lat="43.35527984339443" lon="13.212235238442997"><ele>699.0</ele><time>2026-05-02T13:10:22Z</time></trkpt><trkpt lat="43.355211976828016" lon="13.212125052887346"><ele>699.0</ele><time>2026-05-02T13:10:23Z</time></trkpt><trkpt lat="43.355149599718004" lon="13.21204163202444"><ele>699.0</ele><time>2026-05-02T13:10:24Z</time></trkpt><trkpt lat="43.35507045283466" lon="13.211963406239313"><ele>699.0</ele><time>2026-05-02T13:10:25Z</time></trkpt><trkpt lat="43.35498907905142" lon="13.21189682965399"><ele>699.0</ele><time>2026-05-02T13:10:26Z</time></trkpt><trkpt lat="43.35492074709704" lon="13.21181504786357"><ele>699.0</ele><time>2026-05-02T13:10:27Z</time></trkpt><trkpt lat="43.354862449578" lon="13.211687838793027"><ele>699.0</ele><time>2026-05-02T13:10:28Z</time></trkpt><trkpt lat="43.35478816302662" lon="13.21155957017803"><ele>699.0</ele><time>2026-05-02T13:10:29Z</time></trkpt><trkpt lat="43.354728547117766" lon="13.211480396305266"><ele>699.0</ele><time>2026-05-02T13:10:30Z</time></trkpt><trkpt lat="43.35466404594367" lon="13.211431994993655"><ele>699.0</ele><time>2026-05-02T13:10:31Z</time></trkpt><trkpt lat="43.35458827364865" lon="13.211374340593645"><ele>699.0</ele><time>2026-05-02T13:10:32Z</time></trkpt><trkpt lat="43.35452055456101" lon="13.211311496699608"><ele>699.0</ele><time>2026-05-02T13:10:33Z</time></trkpt><trkpt lat="43.35446417325079" lon="13.21123461812709"><ele>703.2</ele><time>2026-05-02T13:10:34Z</time></trkpt><trkpt lat="43.354424433871266" lon="13.211143462238562"><ele>707.4000000000001</ele><time>2026-05-02T13:10:35Z</time></trkpt><trkpt lat="43.35434238190966" lon="13.211107424912935"><ele>711.6</ele><time>2026-05-02T13:10:36Z</time></trkpt><trkpt lat="43.35426412094454" lon="13.211106076941226"><ele>715.8</ele><time>2026-05-02T13:10:37Z</time></trkpt><trkpt lat="43.35416072823454" lon="13.21114261721971"><ele>720.0</ele><time>2026-05-02T13:10:39Z</time></trkpt><trkpt lat="43.35403946513738" lon="13.211264053993657"><ele>720.0</ele><time>2026-05-02T13:10:41Z</time></trkpt><trkpt lat="43.35397720963299" lon="13.21132794279194"><ele>720.0</ele><time>2026-05-02T13:10:42Z</time></trkpt><trkpt lat="43.35391298728781" lon="13.211397838686405"><ele>720.0</ele><time>2026-05-02T13:10:43Z</time></trkpt><trkpt lat="43.353866035427025" lon="13.211492463236437"><ele>720.0</ele><time>2026-05-02T13:10:44Z</time></trkpt><trkpt lat="43.35381349463165" lon="13.211572259572488"><ele>720.0</ele><time>2026-05-02T13:10:45Z</time></trkpt><trkpt lat="43.35378090608045" lon="13.211680192587318"><ele>720.0</ele><time>2026-05-02T13:10:46Z</time></trkpt><trkpt lat="43.35373347332429" lon="13.211777553112546"><ele>722.2</ele><time>2026-05-02T13:10:47Z</time></trkpt><trkpt lat="43.35372576538859" lon="13.211885562297132"><ele>724.4</ele><time>2026-05-02T13:10:48Z</time></trkpt><trkpt lat="43.35368686894954" lon="13.212017624745942"><ele>726.5999999999999</ele><time>2026-05-02T13:10:49Z</time></trkpt><trkpt lat="43.3536728200832" lon="13.212173351518365"><ele>728.8</ele><time>2026-05-02T13:10:50Z</time></trkpt><trkpt lat="43.35362022742325" lon="13.212343900667705"><ele>731.0</ele><time>2026-05-02T13:10:51Z</time></trkpt><trkpt lat="43.35358093480052" lon="13.21254458269861"><ele>731.0</ele><time>2026-05-02T13:10:52Z</time></trkpt><trkpt lat="43.353577259885085" lon="13.21263573895001"><ele>731.0</ele><time>2026-05-02T13:10:53Z</time></trkpt><trkpt lat="43.353606456758875" lon="13.212790191864102"><ele>731.0</ele><time>2026-05-02T13:10:54Z</time></trkpt><trkpt lat="43.35359483202557" lon="13.212967432148485"><ele>731.0</ele><time>2026-05-02T13:10:55Z</time></trkpt><trkpt lat="43.35358201593897" lon="13.213136849011127"><ele>731.0</ele><time>2026-05-02T13:10:56Z</time></trkpt><trkpt lat="43.35354056698271" lon="13.213309553511785"><ele>730.1999999999999</ele><time>2026-05-02T13:10:57Z</time></trkpt><trkpt lat="43.35351738629824" lon="13.213444934608756"><ele>729.4</ele><time>2026-05-02T13:10:58Z</time></trkpt><trkpt lat="43.353493333913875" lon="13.213565197577271"><ele>728.6</ele><time>2026-05-02T13:10:59Z</time></trkpt><trkpt lat="43.35349079949635" lon="13.213761831311489"><ele>727.8</ele><time>2026-05-02T13:11:01Z</time></trkpt><trkpt lat="43.35345378997309" lon="13.21384703502179"><ele>727.0</ele><time>2026-05-02T13:11:02Z</time></trkpt><trkpt lat="43.35342284741551" lon="13.213957709204525"><ele>726.0</ele><time>2026-05-02T13:11:04Z</time></trkpt><trkpt lat="43.35330442266886" lon="13.214124623746763"><ele>725.0</ele><time>2026-05-02T13:11:06Z</time></trkpt><trkpt lat="43.35322827631683" lon="13.214229666682755"><ele>724.0</ele><time>2026-05-02T13:11:07Z</time></trkpt><trkpt lat="43.35313802438216" lon="13.214327969960342"><ele>723.0</ele><time>2026-05-02T13:11:08Z</time></trkpt><trkpt lat="43.35304698639032" lon="13.21441559856963"><ele>724.0</ele><time>2026-05-02T13:11:09Z</time></trkpt><trkpt lat="43.3529455397267" lon="13.214502155619675"><ele>725.0</ele><time>2026-05-02T13:11:10Z</time></trkpt><trkpt lat="43.35286395154323" lon="13.214584743851063"><ele>726.0</ele><time>2026-05-02T13:11:11Z</time></trkpt><trkpt lat="43.35277549510213" lon="13.214670465065256"><ele>727.0</ele><time>2026-05-02T13:11:12Z</time></trkpt><trkpt lat="43.35269236336132" lon="13.214761613826687"><ele>728.0</ele><time>2026-05-02T13:11:13Z</time></trkpt><trkpt lat="43.35260052213149" lon="13.214841857355863"><ele>728.0</ele><time>2026-05-02T13:11:14Z</time></trkpt><trkpt lat="43.352496946765136" lon="13.214943127013246"><ele>728.0</ele><time>2026-05-02T13:11:16Z</time></trkpt><trkpt lat="43.35243511896874" lon="13.21498547469722"><ele>728.0</ele><time>2026-05-02T13:11:17Z</time></trkpt><trkpt lat="43.35234522568872" lon="13.215001032416742"><ele>728.0</ele><time>2026-05-02T13:11:18Z</time></trkpt><trkpt lat="43.35223723153212" lon="13.2150245216279"><ele>728.0</ele><time>2026-05-02T13:11:19Z</time></trkpt><trkpt lat="43.35213983517395" lon="13.215050525081285"><ele>728.8333333333333</ele><time>2026-05-02T13:11:20Z</time></trkpt><trkpt lat="43.352057385665105" lon="13.21508444016311"><ele>729.6666666666666</ele><time>2026-05-02T13:11:21Z</time></trkpt><trkpt lat="43.351973584157825" lon="13.215127628517177"><ele>730.5</ele><time>2026-05-02T13:11:22Z</time></trkpt><trkpt lat="43.35188662948756" lon="13.215184350355841"><ele>731.3333333333334</ele><time>2026-05-02T13:11:23Z</time></trkpt><trkpt lat="43.35181658128584" lon="13.21519915918146"><ele>732.1666666666667</ele><time>2026-05-02T13:11:24Z</time></trkpt><trkpt lat="43.35174594627009" lon="13.21520349462328"><ele>733.0</ele><time>2026-05-02T13:11:25Z</time></trkpt><trkpt lat="43.3516463526213" lon="13.215208942795126"><ele>733.0</ele><time>2026-05-02T13:11:26Z</time></trkpt><trkpt lat="43.35154734458654" lon="13.21521743426167"><ele>733.0</ele><time>2026-05-02T13:11:27Z</time></trkpt><trkpt lat="43.35146721350187" lon="13.21522578061966"><ele>733.0</ele><time>2026-05-02T13:11:28Z</time></trkpt><trkpt lat="43.35139128594059" lon="13.215236681415195"><ele>733.0</ele><time>2026-05-02T13:11:29Z</time></trkpt><trkpt lat="43.35132170384348" lon="13.215237782629758"><ele>733.0</ele><time>2026-05-02T13:11:30Z</time></trkpt><trkpt lat="43.35124469418828" lon="13.21523232472504"><ele>733.0</ele><time>2026-05-02T13:11:31Z</time></trkpt><trkpt lat="43.3511814568311" lon="13.215224591721292"><ele>732.4</ele><time>2026-05-02T13:11:32Z</time></trkpt><trkpt lat="43.35105708730512" lon="13.215195267339707"><ele>731.8</ele><time>2026-05-02T13:11:34Z</time></trkpt><trkpt lat="43.35096930532022" lon="13.215160753361653"><ele>731.2</ele><time>2026-05-02T13:11:36Z</time></trkpt><trkpt lat="43.35089479295282" lon="13.215142113234528"><ele>730.6</ele><time>2026-05-02T13:11:38Z</time></trkpt><trkpt lat="43.350868641346615" lon="13.21493229674118"><ele>730.0</ele><time>2026-05-02T13:11:39Z</time></trkpt><trkpt lat="43.35085934135803" lon="13.215142696575025"><ele>730.0</ele><time>2026-05-02T13:12:34Z</time></trkpt><trkpt lat="43.35098169191375" lon="13.215181853174713"><ele>730.0</ele><time>2026-05-02T13:12:36Z</time></trkpt><trkpt lat="43.35106594944853" lon="13.215218861687704"><ele>730.0</ele><time>2026-05-02T13:12:37Z</time></trkpt><trkpt lat="43.351156705005" lon="13.21524422503487"><ele>730.0</ele><time>2026-05-02T13:12:38Z</time></trkpt><trkpt lat="43.35126081372066" lon="13.21526152804368"><ele>730.0</ele><time>2026-05-02T13:12:39Z</time></trkpt><trkpt lat="43.35136181099288" lon="13.215259857780598"><ele>730.6</ele><time>2026-05-02T13:12:40Z</time></trkpt><trkpt lat="43.35146359375875" lon="13.215255952157474"><ele>731.2</ele><time>2026-05-02T13:12:41Z</time></trkpt><trkpt lat="43.351563005711526" lon="13.21524060392362"><ele>731.8</ele><time>2026-05-02T13:12:42Z</time></trkpt><trkpt lat="43.35166594256702" lon="13.21522103689966"><ele>732.4</ele><time>2026-05-02T13:12:43Z</time></trkpt><trkpt lat="43.3517744073826" lon="13.215203831958409"><ele>733.0</ele><time>2026-05-02T13:12:44Z</time></trkpt><trkpt lat="43.351866694057065" lon="13.215199723229269"><ele>733.0</ele><time>2026-05-02T13:12:45Z</time></trkpt><trkpt lat="43.351951270097274" lon="13.215175292948686"><ele>733.0</ele><time>2026-05-02T13:12:46Z</time></trkpt><trkpt lat="43.35204177518841" lon="13.215128322823464"><ele>733.0</ele><time>2026-05-02T13:12:47Z</time></trkpt><trkpt lat="43.35213481673666" lon="13.215080137867362"><ele>733.0</ele><time>2026-05-02T13:12:48Z</time></trkpt><trkpt lat="43.35223413284097" lon="13.21503344458398"><ele>733.0</ele><time>2026-05-02T13:12:49Z</time></trkpt><trkpt lat="43.35232870862599" lon="13.215005923047835"><ele>732.1666666666667</ele><time>2026-05-02T13:12:50Z</time></trkpt><trkpt lat="43.35241409275383" lon="13.21499036370459"><ele>731.3333333333334</ele><time>2026-05-02T13:12:51Z</time></trkpt><trkpt lat="43.35248486167459" lon="13.214965547852737"><ele>730.5</ele><time>2026-05-02T13:12:52Z</time></trkpt><trkpt lat="43.352554009152335" lon="13.214927280766641"><ele>729.6666666666666</ele><time>2026-05-02T13:12:53Z</time></trkpt><trkpt lat="43.352614031715795" lon="13.214864632493272"><ele>728.8333333333333</ele><time>2026-05-02T13:12:54Z</time></trkpt><trkpt lat="43.35269166849879" lon="13.214783422022137"><ele>728.0</ele><time>2026-05-02T13:12:55Z</time></trkpt><trkpt lat="43.352775016635306" lon="13.214688196133075"><ele>727.0</ele><time>2026-05-02T13:12:56Z</time></trkpt><trkpt lat="43.35286805024552" lon="13.214586806397318"><ele>726.0</ele><time>2026-05-02T13:12:57Z</time></trkpt><trkpt lat="43.35295410665143" lon="13.214499772838492"><ele>725.0</ele><time>2026-05-02T13:12:58Z</time></trkpt><trkpt lat="43.35303158987697" lon="13.214426651839904"><ele>724.0</ele><time>2026-05-02T13:12:59Z</time></trkpt><trkpt lat="43.35309895619793" lon="13.214356264600347"><ele>723.0</ele><time>2026-05-02T13:13:00Z</time></trkpt><trkpt lat="43.353160390065646" lon="13.214295808003529"><ele>723.0</ele><time>2026-05-02T13:13:01Z</time></trkpt><trkpt lat="43.35321427145541" lon="13.214237246238156"><ele>723.0</ele><time>2026-05-02T13:13:02Z</time></trkpt><trkpt lat="43.3532641143665" lon="13.214167127852965"><ele>723.0</ele><time>2026-05-02T13:13:03Z</time></trkpt><trkpt lat="43.35330958782033" lon="13.214101319572615"><ele>723.0</ele><time>2026-05-02T13:13:04Z</time></trkpt><trkpt lat="43.35338603872779" lon="13.213968416707653"><ele>723.0</ele><time>2026-05-02T13:13:06Z</time></trkpt><trkpt lat="43.35341438443183" lon="13.213829879906049"><ele>723.0</ele><time>2026-05-02T13:13:08Z</time></trkpt><trkpt lat="43.353419824015255" lon="13.213677572302421"><ele>723.8</ele><time>2026-05-02T13:13:10Z</time></trkpt><trkpt lat="43.353432854883735" lon="13.213552094393311"><ele>724.5999999999999</ele><time>2026-05-02T13:13:12Z</time></trkpt><trkpt lat="43.353469524217076" lon="13.21347880249842"><ele>725.4000000000001</ele><time>2026-05-02T13:13:13Z</time></trkpt><trkpt lat="43.35349419262504" lon="13.213320371804807"><ele>726.2</ele><time>2026-05-02T13:13:14Z</time></trkpt><trkpt lat="43.35349228489804" lon="13.213189525906957"><ele>727.0</ele><time>2026-05-02T13:13:15Z</time></trkpt><trkpt lat="43.35349091481207" lon="13.213030583060329"><ele>727.8</ele><time>2026-05-02T13:13:16Z</time></trkpt><trkpt lat="43.35349399981204" lon="13.21288065754201"><ele>728.6</ele><time>2026-05-02T13:13:17Z</time></trkpt><trkpt lat="43.353487021371244" lon="13.212775504064972"><ele>729.4</ele><time>2026-05-02T13:13:18Z</time></trkpt><trkpt lat="43.35351314093039" lon="13.21261006006483"><ele>730.1999999999999</ele><time>2026-05-02T13:13:20Z</time></trkpt><trkpt lat="43.3535484327304" lon="13.21253252636971"><ele>731.0</ele><time>2026-05-02T13:13:21Z</time></trkpt><trkpt lat="43.35357803372806" lon="13.2123781261231"><ele>731.5999999999999</ele><time>2026-05-02T13:13:22Z</time></trkpt><trkpt lat="43.353600989066976" lon="13.212232996901314"><ele>732.2</ele><time>2026-05-02T13:13:23Z</time></trkpt><trkpt lat="43.35362619251792" lon="13.212099013314289"><ele>732.8</ele><time>2026-05-02T13:13:24Z</time></trkpt><trkpt lat="43.35365807681874" lon="13.21199315607997"><ele>733.4000000000001</ele><time>2026-05-02T13:13:25Z</time></trkpt><trkpt lat="43.35367251837211" lon="13.21189089362858"><ele>734.0</ele><time>2026-05-02T13:13:26Z</time></trkpt><trkpt lat="43.35368007051164" lon="13.211768607265315"><ele>734.0</ele><time>2026-05-02T13:13:28Z</time></trkpt><trkpt lat="43.353718325636144" lon="13.211643816941926"><ele>734.0</ele><time>2026-05-02T13:13:30Z</time></trkpt><trkpt lat="43.35376372567612" lon="13.211564425240883"><ele>734.0</ele><time>2026-05-02T13:13:31Z</time></trkpt><trkpt lat="43.353832361270776" lon="13.211481243984759"><ele>734.0</ele><time>2026-05-02T13:13:32Z</time></trkpt><trkpt lat="43.35389873228658" lon="13.211412176845903"><ele>734.0</ele><time>2026-05-02T13:13:33Z</time></trkpt><trkpt lat="43.353976718067685" lon="13.211320389242966"><ele>734.0</ele><time>2026-05-02T13:13:35Z</time></trkpt><trkpt lat="43.3540535595449" lon="13.211253956679347"><ele>731.6666666666666</ele><time>2026-05-02T13:13:37Z</time></trkpt><trkpt lat="43.35412547525338" lon="13.211215765753787"><ele>729.3333333333333</ele><time>2026-05-02T13:14:03Z</time></trkpt><trkpt lat="43.35417406245471" lon="13.211140754295787"><ele>727.0</ele><time>2026-05-02T13:14:28Z</time></trkpt><trkpt lat="43.354241682424814" lon="13.211147450550428"><ele>724.6666666666666</ele><time>2026-05-02T13:14:30Z</time></trkpt><trkpt lat="43.354329533450496" lon="13.211145110486399"><ele>722.3333333333334</ele><time>2026-05-02T13:14:33Z</time></trkpt><trkpt lat="43.354430989056006" lon="13.211189535770004"><ele>720.0</ele><time>2026-05-02T13:14:35Z</time></trkpt><trkpt lat="43.35451332931294" lon="13.211273579498808"><ele>720.0</ele><time>2026-05-02T13:14:37Z</time></trkpt><trkpt lat="43.35460973038139" lon="13.211374554708788"><ele>720.0</ele><time>2026-05-02T13:14:39Z</time></trkpt><trkpt lat="43.35467934486962" lon="13.211398276632806"><ele>720.0</ele><time>2026-05-02T13:14:40Z</time></trkpt><trkpt lat="43.35477250638913" lon="13.211524467244411"><ele>720.0</ele><time>2026-05-02T13:14:42Z</time></trkpt><trkpt lat="43.35482205467564" lon="13.211582820278798"><ele>720.0</ele><time>2026-05-02T13:14:43Z</time></trkpt><trkpt lat="43.35490900328494" lon="13.211681212938172"><ele>716.5</ele><time>2026-05-02T13:14:45Z</time></trkpt><trkpt lat="43.35496823103781" lon="13.211720422102314"><ele>713.0</ele><time>2026-05-02T13:14:46Z</time></trkpt><trkpt lat="43.35500990192579" lon="13.211858254994366"><ele>709.5</ele><time>2026-05-02T13:14:48Z</time></trkpt><trkpt lat="43.35504696803743" lon="13.211928398084815"><ele>706.0</ele><time>2026-05-02T13:14:49Z</time></trkpt><trkpt lat="43.35513634437275" lon="13.212052651524266"><ele>702.5</ele><time>2026-05-02T13:14:51Z</time></trkpt><trkpt lat="43.355183048904294" lon="13.212113380799366"><ele>699.0</ele><time>2026-05-02T13:14:52Z</time></trkpt><trkpt lat="43.35526967322877" lon="13.212203390910695"><ele>699.0</ele><time>2026-05-02T13:14:54Z</time></trkpt><trkpt lat="43.355338665355085" lon="13.212318283959677"><ele>699.0</ele><time>2026-05-02T13:14:56Z</time></trkpt><trkpt lat="43.35535505026496" lon="13.212404383188256"><ele>699.0</ele><time>2026-05-02T13:14:57Z</time></trkpt><trkpt lat="43.355446417673996" lon="13.212461887505492"><ele>699.0</ele><time>2026-05-02T13:14:59Z</time></trkpt><trkpt lat="43.35549351716236" lon="13.212520793542916"><ele>699.0</ele><time>2026-05-02T13:15:00Z</time></trkpt><trkpt lat="43.355566856968935" lon="13.212620025565753"><ele>699.0</ele><time>2026-05-02T13:15:02Z</time></trkpt><trkpt lat="43.355626459645784" lon="13.212724686065979"><ele>697.3333333333334</ele><time>2026-05-02T13:15:04Z</time></trkpt><trkpt lat="43.35569795235386" lon="13.212822535258322"><ele>695.6666666666666</ele><time>2026-05-02T13:15:06Z</time></trkpt><trkpt lat="43.35575460563697" lon="13.212925806961126"><ele>694.0</ele><time>2026-05-02T13:15:08Z</time></trkpt><trkpt lat="43.35579512263733" lon="13.21299397059611"><ele>692.3333333333333</ele><time>2026-05-02T13:15:09Z</time></trkpt><trkpt lat="43.35585970017329" lon="13.2130875016082"><ele>690.6666666666666</ele><time>2026-05-02T13:15:10Z</time></trkpt><trkpt lat="43.355918863176036" lon="13.213137059795267"><ele>689.0</ele><time>2026-05-02T13:15:11Z</time></trkpt><trkpt lat="43.355972997158304" lon="13.213204111396694"><ele>684.4000000000001</ele><time>2026-05-02T13:15:12Z</time></trkpt><trkpt lat="43.35602595904421" lon="13.21330918703592"><ele>679.8</ele><time>2026-05-02T13:15:14Z</time></trkpt><trkpt lat="43.35609136757057" lon="13.213367846449856"><ele>675.2</ele><time>2026-05-02T13:15:16Z</time></trkpt><trkpt lat="43.356138515010194" lon="13.21343392534752"><ele>670.5999999999999</ele><time>2026-05-02T13:15:19Z</time></trkpt><trkpt lat="43.35604921820039" lon="13.213434739957414"><ele>666.0</ele><time>2026-05-02T13:15:26Z</time></trkpt><trkpt lat="43.355931659566984" lon="13.213333331915134"><ele>666.0</ele><time>2026-05-02T13:15:28Z</time></trkpt><trkpt lat="43.35589200546182" lon="13.213264630086936"><ele>666.0</ele><time>2026-05-02T13:15:29Z</time></trkpt><trkpt lat="43.355804594620224" lon="13.213202628882192"><ele>666.0</ele><time>2026-05-02T13:15:31Z</time></trkpt><trkpt lat="43.35573736345935" lon="13.213220672188218"><ele>666.0</ele><time>2026-05-02T13:15:33Z</time></trkpt><trkpt lat="43.355638558344886" lon="13.213183195427082"><ele>666.0</ele><time>2026-05-02T13:15:35Z</time></trkpt><trkpt lat="43.35554242657527" lon="13.213167565621946"><ele>666.0</ele><time>2026-05-02T13:15:37Z</time></trkpt><trkpt lat="43.35545887576079" lon="13.213149442322404"><ele>668.1999999999999</ele><time>2026-05-02T13:15:39Z</time></trkpt><trkpt lat="43.35539711897272" lon="13.213124490888692"><ele>670.4</ele><time>2026-05-02T13:15:40Z</time></trkpt><trkpt lat="43.355288885185374" lon="13.213107075076367"><ele>672.6</ele><time>2026-05-02T13:15:42Z</time></trkpt><trkpt lat="43.355176582642315" lon="13.213059290718292"><ele>674.8</ele><time>2026-05-02T13:15:44Z</time></trkpt><trkpt lat="43.35511020595268" lon="13.213021879736669"><ele>677.0</ele><time>2026-05-02T13:15:45Z</time></trkpt><trkpt lat="43.35502178632658" lon="13.21301183679068"><ele>677.0</ele><time>2026-05-02T13:15:47Z</time></trkpt><trkpt lat="43.35499993928355" lon="13.213102428423765"><ele>677.0</ele><time>2026-05-02T13:15:49Z</time></trkpt><trkpt lat="43.355026896614476" lon="13.213250199393434"><ele>677.0</ele><time>2026-05-02T13:15:51Z</time></trkpt><trkpt lat="43.35506487948059" lon="13.21334312448807"><ele>677.0</ele><time>2026-05-02T13:15:52Z</time></trkpt><trkpt lat="43.35510747587844" lon="13.213416205222572"><ele>677.0</ele><time>2026-05-02T13:15:53Z</time></trkpt><trkpt lat="43.35514940026804" lon="13.21349237712384"><ele>677.0</ele><time>2026-05-02T13:15:54Z</time></trkpt><trkpt lat="43.35517866259879" lon="13.213571775929406"><ele>674.4000000000001</ele><time>2026-05-02T13:15:55Z</time></trkpt><trkpt lat="43.355195875361666" lon="13.213660251311588"><ele>671.8000000000001</ele><time>2026-05-02T13:15:56Z</time></trkpt><trkpt lat="43.355236729448485" lon="13.213832279035893"><ele>669.2</ele><time>2026-05-02T13:15:58Z</time></trkpt><trkpt lat="43.35525374689642" lon="13.214020745654755"><ele>666.6</ele><time>2026-05-02T13:16:00Z</time></trkpt><trkpt lat="43.35532059707263" lon="13.214145254634538"><ele>664.0</ele><time>2026-05-02T13:16:02Z</time></trkpt><trkpt lat="43.35535213999268" lon="13.214249455828194"><ele>662.6</ele><time>2026-05-02T13:16:03Z</time></trkpt><trkpt lat="43.35537726980882" lon="13.214341516148947"><ele>661.2</ele><time>2026-05-02T13:16:04Z</time></trkpt><trkpt lat="43.35544419519476" lon="13.214466207963017"><ele>659.8000000000001</ele><time>2026-05-02T13:16:06Z</time></trkpt><trkpt lat="43.35551293798442" lon="13.214544027600239"><ele>658.4000000000001</ele><time>2026-05-02T13:16:08Z</time></trkpt><trkpt lat="43.3556036620915" lon="13.214665882120876"><ele>657.0</ele><time>2026-05-02T13:16:10Z</time></trkpt><trkpt lat="43.3556754004923" lon="13.214774865609975"><ele>651.2</ele><time>2026-05-02T13:16:11Z</time></trkpt><trkpt lat="43.355709541728906" lon="13.214874677793244"><ele>645.4000000000001</ele><time>2026-05-02T13:16:12Z</time></trkpt><trkpt lat="43.35575737433993" lon="13.215029432858492"><ele>639.5999999999999</ele><time>2026-05-02T13:16:14Z</time></trkpt><trkpt lat="43.355802746083526" lon="13.215096917098933"><ele>633.8</ele><time>2026-05-02T13:16:15Z</time></trkpt><trkpt lat="43.35588078314147" lon="13.215208557066774"><ele>628.0</ele><time>2026-05-02T13:16:17Z</time></trkpt><trkpt lat="43.3559804452187" lon="13.215300849777691"><ele>628.0</ele><time>2026-05-02T13:16:19Z</time></trkpt><trkpt lat="43.35602290975111" lon="13.215372830584355"><ele>628.0</ele><time>2026-05-02T13:16:20Z</time></trkpt><trkpt lat="43.356120584273995" lon="13.215494647218346"><ele>628.0</ele><time>2026-05-02T13:16:22Z</time></trkpt><trkpt lat="43.35617474196917" lon="13.215557231380783"><ele>628.0</ele><time>2026-05-02T13:16:23Z</time></trkpt><trkpt lat="43.35627449509165" lon="13.215631679548185"><ele>628.0</ele><time>2026-05-02T13:16:25Z</time></trkpt><trkpt lat="43.35627639784065" lon="13.215748460642057"><ele>627.5</ele><time>2026-05-02T13:16:27Z</time></trkpt><trkpt lat="43.35631076895678" lon="13.21582502974571"><ele>627.0</ele><time>2026-05-02T13:16:30Z</time></trkpt><trkpt lat="43.35629240626348" lon="13.21592052755819"><ele>626.5</ele><time>2026-05-02T13:16:32Z</time></trkpt><trkpt lat="43.35628486168707" lon="13.216034375102444"><ele>626.0</ele><time>2026-05-02T13:16:34Z</time></trkpt><trkpt lat="43.356319412065055" lon="13.216142163643221"><ele>625.5</ele><time>2026-05-02T13:16:36Z</time></trkpt><trkpt lat="43.35642540114457" lon="13.216274743012344"><ele>625.0</ele><time>2026-05-02T13:16:38Z</time></trkpt><trkpt lat="43.35648775970095" lon="13.216317766717857"><ele>622.6666666666667</ele><time>2026-05-02T13:16:39Z</time></trkpt><trkpt lat="43.35654745416811" lon="13.216390494280553"><ele>620.3333333333334</ele><time>2026-05-02T13:16:40Z</time></trkpt><trkpt lat="43.356608859242705" lon="13.216436018283307"><ele>618.0</ele><time>2026-05-02T13:16:41Z</time></trkpt><trkpt lat="43.356692644505834" lon="13.216555038179921"><ele>615.6666666666666</ele><time>2026-05-02T13:16:43Z</time></trkpt><trkpt lat="43.356761653317626" lon="13.216622561062302"><ele>613.3333333333333</ele><time>2026-05-02T13:16:45Z</time></trkpt><trkpt lat="43.35679627844336" lon="13.216715490257565"><ele>611.0</ele><time>2026-05-02T13:16:46Z</time></trkpt><trkpt lat="43.35680415717766" lon="13.216830151513799"><ele>608.0</ele><time>2026-05-02T13:16:50Z</time></trkpt><trkpt lat="43.35681622547353" lon="13.21696447860014"><ele>605.0</ele><time>2026-05-02T13:16:52Z</time></trkpt><trkpt lat="43.35684926479407" lon="13.217075089680863"><ele>602.0</ele><time>2026-05-02T13:16:54Z</time></trkpt><trkpt lat="43.35685714947027" lon="13.217216764366343"><ele>599.0</ele><time>2026-05-02T13:16:56Z</time></trkpt><trkpt lat="43.356909652556155" lon="13.217328212469315"><ele>596.0</ele><time>2026-05-02T13:17:00Z</time></trkpt><trkpt lat="43.356919745154265" lon="13.217465312299437"><ele>594.5</ele><time>2026-05-02T13:17:01Z</time></trkpt><trkpt lat="43.356930838332964" lon="13.217552299109515"><ele>593.0</ele><time>2026-05-02T13:17:02Z</time></trkpt><trkpt lat="43.3569741180607" lon="13.217702317636236"><ele>591.5</ele><time>2026-05-02T13:17:04Z</time></trkpt><trkpt lat="43.35700791451301" lon="13.217786539167138"><ele>590.0</ele><time>2026-05-02T13:17:05Z</time></trkpt><trkpt lat="43.35705120637487" lon="13.21789914554013"><ele>588.5</ele><time>2026-05-02T13:17:07Z</time></trkpt><trkpt lat="43.3570826063228" lon="13.217992522565225"><ele>587.0</ele><time>2026-05-02T13:17:08Z</time></trkpt><trkpt lat="43.35713749914603" lon="13.21805254326548"><ele>585.6666666666666</ele><time>2026-05-02T13:17:09Z</time></trkpt><trkpt lat="43.357121232211995" lon="13.21820747986977"><ele>584.3333333333333</ele><time>2026-05-02T13:17:12Z</time></trkpt><trkpt lat="43.35711077309408" lon="13.218313517187473"><ele>583.0</ele><time>2026-05-02T13:17:14Z</time></trkpt><trkpt lat="43.35716673347828" lon="13.21839272659484"><ele>581.6666666666666</ele><time>2026-05-02T13:17:17Z</time></trkpt><trkpt lat="43.35724345087573" lon="13.218387059989588"><ele>580.3333333333334</ele><time>2026-05-02T13:17:19Z</time></trkpt><trkpt lat="43.357302281170284" lon="13.218334260807492"><ele>579.0</ele><time>2026-05-02T13:17:21Z</time></trkpt><trkpt lat="43.35739190142702" lon="13.218344968839345"><ele>575.5</ele><time>2026-05-02T13:17:23Z</time></trkpt><trkpt lat="43.35746532994542" lon="13.21837469427511"><ele>572.0</ele><time>2026-05-02T13:17:25Z</time></trkpt><trkpt lat="43.3575309301441" lon="13.21843695220764"><ele>568.5</ele><time>2026-05-02T13:17:27Z</time></trkpt><trkpt lat="43.35760625248803" lon="13.218512395875551"><ele>565.0</ele><time>2026-05-02T13:17:29Z</time></trkpt><trkpt lat="43.357683866933854" lon="13.218533099363487"><ele>561.5</ele><time>2026-05-02T13:17:31Z</time></trkpt><trkpt lat="43.357776105262865" lon="13.218618678208687"><ele>558.0</ele><time>2026-05-02T13:17:33Z</time></trkpt><trkpt lat="43.35781257981762" lon="13.21872680290164"><ele>558.0</ele><time>2026-05-02T13:17:34Z</time></trkpt><trkpt lat="43.357855042533274" lon="13.21881321247861"><ele>558.0</ele><time>2026-05-02T13:17:36Z</time></trkpt><trkpt lat="43.35796576934299" lon="13.218872441220398"><ele>558.0</ele><time>2026-05-02T13:17:38Z</time></trkpt><trkpt lat="43.35804365231414" lon="13.218954589524825"><ele>558.0</ele><time>2026-05-02T13:17:40Z</time></trkpt><trkpt lat="43.358128574820846" lon="13.21907372351883"><ele>558.0</ele><time>2026-05-02T13:17:42Z</time></trkpt><trkpt lat="43.358188817084546" lon="13.219114138646598"><ele>554.4</ele><time>2026-05-02T13:17:43Z</time></trkpt><trkpt lat="43.35827580321384" lon="13.219247058215304"><ele>550.8</ele><time>2026-05-02T13:17:45Z</time></trkpt><trkpt lat="43.35832912881455" lon="13.219337612437945"><ele>547.2</ele><time>2026-05-02T13:17:46Z</time></trkpt><trkpt lat="43.358353491202934" lon="13.219432637765376"><ele>543.6</ele><time>2026-05-02T13:17:47Z</time></trkpt><trkpt lat="43.358407285174565" lon="13.219496994949868"><ele>540.0</ele><time>2026-05-02T13:17:48Z</time></trkpt><trkpt lat="43.35850318570064" lon="13.219522740049436"><ele>540.0</ele><time>2026-05-02T13:17:49Z</time></trkpt><trkpt lat="43.35857554522384" lon="13.21959806855959"><ele>540.0</ele><time>2026-05-02T13:17:51Z</time></trkpt><trkpt lat="43.35864138942734" lon="13.219674827859539"><ele>540.0</ele><time>2026-05-02T13:17:53Z</time></trkpt><trkpt lat="43.35871949350321" lon="13.21970840141531"><ele>540.0</ele><time>2026-05-02T13:17:54Z</time></trkpt><trkpt lat="43.3587892956069" lon="13.219771266504209"><ele>540.0</ele><time>2026-05-02T13:17:56Z</time></trkpt><trkpt lat="43.3588706052737" lon="13.21987167937825"><ele>540.0</ele><time>2026-05-02T13:17:58Z</time></trkpt><trkpt lat="43.35891104717997" lon="13.21996134622012"><ele>540.0</ele><time>2026-05-02T13:17:59Z</time></trkpt><trkpt lat="43.358935811553714" lon="13.220095761103579"><ele>540.0</ele><time>2026-05-02T13:18:01Z</time></trkpt><trkpt lat="43.35887217172164" lon="13.22019974771808"><ele>540.0</ele><time>2026-05-02T13:18:03Z</time></trkpt><trkpt lat="43.35884557727679" lon="13.220311128118023"><ele>540.0</ele><time>2026-05-02T13:18:05Z</time></trkpt><trkpt lat="43.35891686472273" lon="13.220464744884303"><ele>537.2</ele><time>2026-05-02T13:18:07Z</time></trkpt><trkpt lat="43.35898867880635" lon="13.220556869602607"><ele>534.4</ele><time>2026-05-02T13:18:08Z</time></trkpt><trkpt lat="43.35906399914554" lon="13.220656499025383"><ele>531.6</ele><time>2026-05-02T13:18:09Z</time></trkpt><trkpt lat="43.35911968598703" lon="13.220793296216184"><ele>528.8</ele><time>2026-05-02T13:18:10Z</time></trkpt><trkpt lat="43.359186274777215" lon="13.220945378969363"><ele>526.0</ele><time>2026-05-02T13:18:11Z</time></trkpt><trkpt lat="43.35930678430469" lon="13.22105806088607"><ele>524.8</ele><time>2026-05-02T13:18:12Z</time></trkpt><trkpt lat="43.35938972833534" lon="13.221127810539311"><ele>523.6</ele><time>2026-05-02T13:18:13Z</time></trkpt><trkpt lat="43.3594726782235" lon="13.22118253775816"><ele>522.4</ele><time>2026-05-02T13:18:14Z</time></trkpt><trkpt lat="43.35959410197464" lon="13.221151948748862"><ele>521.2</ele><time>2026-05-02T13:18:15Z</time></trkpt><trkpt lat="43.35971846714134" lon="13.221147188020137"><ele>520.0</ele><time>2026-05-02T13:18:16Z</time></trkpt><trkpt lat="43.35982071559891" lon="13.221178441666318"><ele>518.4</ele><time>2026-05-02T13:18:17Z</time></trkpt><trkpt lat="43.35991766995317" lon="13.221191607427693"><ele>516.8</ele><time>2026-05-02T13:18:18Z</time></trkpt><trkpt lat="43.36000934822687" lon="13.221232789764732"><ele>515.2</ele><time>2026-05-02T13:18:19Z</time></trkpt><trkpt lat="43.36005768086617" lon="13.221325712403193"><ele>513.6</ele><time>2026-05-02T13:18:20Z</time></trkpt><trkpt lat="43.36013643359724" lon="13.221426622101358"><ele>512.0</ele><time>2026-05-02T13:18:22Z</time></trkpt><trkpt lat="43.360237343175015" lon="13.221469914757307"><ele>511.3333333333333</ele><time>2026-05-02T13:18:23Z</time></trkpt><trkpt lat="43.36028769209596" lon="13.221549139691641"><ele>510.66666666666663</ele><time>2026-05-02T13:18:24Z</time></trkpt><trkpt lat="43.36033322553687" lon="13.221612707973591"><ele>510.0</ele><time>2026-05-02T13:18:25Z</time></trkpt><trkpt lat="43.360376978010834" lon="13.221705160159852"><ele>509.33333333333337</ele><time>2026-05-02T13:18:26Z</time></trkpt><trkpt lat="43.36041860402007" lon="13.221788294675708"><ele>508.6666666666667</ele><time>2026-05-02T13:18:27Z</time></trkpt><trkpt lat="43.36048006941289" lon="13.221866908040793"><ele>508.0</ele><time>2026-05-02T13:18:28Z</time></trkpt><trkpt lat="43.36051101298499" lon="13.221984924761832"><ele>507.83333333333337</ele><time>2026-05-02T13:18:29Z</time></trkpt><trkpt lat="43.36057572840854" lon="13.222078680936432"><ele>507.6666666666667</ele><time>2026-05-02T13:18:30Z</time></trkpt><trkpt lat="43.36060986248492" lon="13.222165931245396"><ele>507.5</ele><time>2026-05-02T13:18:31Z</time></trkpt><trkpt lat="43.36064928910058" lon="13.22224499079615"><ele>507.33333333333337</ele><time>2026-05-02T13:18:32Z</time></trkpt><trkpt lat="43.360716070567165" lon="13.222314678582094"><ele>507.1666666666667</ele><time>2026-05-02T13:18:33Z</time></trkpt><trkpt lat="43.36075860757374" lon="13.222404715966094"><ele>507.0</ele><time>2026-05-02T13:18:34Z</time></trkpt><trkpt lat="43.36079074699776" lon="13.222483484861794"><ele>505.0</ele><time>2026-05-02T13:18:35Z</time></trkpt><trkpt lat="43.360826311116995" lon="13.222555387815708"><ele>503.00000000000006</ele><time>2026-05-02T13:18:36Z</time></trkpt><trkpt lat="43.3609302199828" lon="13.222670749081123"><ele>501.00000000000006</ele><time>2026-05-02T13:18:38Z</time></trkpt><trkpt lat="43.3609757456817" lon="13.222822376238977"><ele>499.0</ele><time>2026-05-02T13:18:40Z</time></trkpt><trkpt lat="43.36099117163123" lon="13.22293921480047"><ele>497.0</ele><time>2026-05-02T13:18:42Z</time></trkpt><trkpt lat="43.36106469020723" lon="13.223016677877693"><ele>497.0</ele><time>2026-05-02T13:18:43Z</time></trkpt><trkpt lat="43.36114985601501" lon="13.223138806236188"><ele>497.0</ele><time>2026-05-02T13:18:45Z</time></trkpt><trkpt lat="43.361257495056954" lon="13.223289209244562"><ele>497.0</ele><time>2026-05-02T13:18:47Z</time></trkpt><trkpt lat="43.36131286404908" lon="13.223435582697894"><ele>497.0</ele><time>2026-05-02T13:18:48Z</time></trkpt><trkpt lat="43.3613592760863" lon="13.22351545057038"><ele>494.6</ele><time>2026-05-02T13:18:49Z</time></trkpt><trkpt lat="43.36141775918438" lon="13.223576561479495"><ele>492.20000000000005</ele><time>2026-05-02T13:18:50Z</time></trkpt><trkpt lat="43.36154506038176" lon="13.223589924371579"><ele>489.8</ele><time>2026-05-02T13:18:52Z</time></trkpt><trkpt lat="43.361634273139025" lon="13.223612512819447"><ele>487.4</ele><time>2026-05-02T13:18:53Z</time></trkpt><trkpt lat="43.36172292698705" lon="13.223646560544267"><ele>485.0</ele><time>2026-05-02T13:18:54Z</time></trkpt><trkpt lat="43.36182108642629" lon="13.2237067574589"><ele>485.0</ele><time>2026-05-02T13:18:55Z</time></trkpt><trkpt lat="43.361917267237864" lon="13.223706370319604"><ele>485.0</ele><time>2026-05-02T13:18:56Z</time></trkpt><trkpt lat="43.362017864890994" lon="13.223740579029453"><ele>485.0</ele><time>2026-05-02T13:18:57Z</time></trkpt><trkpt lat="43.36210380785351" lon="13.223813492995939"><ele>485.0</ele><time>2026-05-02T13:18:59Z</time></trkpt><trkpt lat="43.36218873455103" lon="13.223787112606434"><ele>485.0</ele><time>2026-05-02T13:19:01Z</time></trkpt><trkpt lat="43.36226434749179" lon="13.223660811903038"><ele>483.6</ele><time>2026-05-02T13:19:03Z</time></trkpt><trkpt lat="43.36229444658047" lon="13.22358355302808"><ele>482.2</ele><time>2026-05-02T13:19:05Z</time></trkpt><trkpt lat="43.36239959388145" lon="13.223527947356907"><ele>480.79999999999995</ele><time>2026-05-02T13:19:07Z</time></trkpt><trkpt lat="43.36245674479993" lon="13.22347516212206"><ele>479.4</ele><time>2026-05-02T13:19:08Z</time></trkpt><trkpt lat="43.36251770249188" lon="13.223336871356997"><ele>478.0</ele><time>2026-05-02T13:19:10Z</time></trkpt><trkpt lat="43.36256868737169" lon="13.22320709786437"><ele>478.0</ele><time>2026-05-02T13:19:12Z</time></trkpt><trkpt lat="43.36268736267025" lon="13.223167804255887"><ele>477.99999999999994</ele><time>2026-05-02T13:19:14Z</time></trkpt><trkpt lat="43.36279119382062" lon="13.22315526558167"><ele>477.99999999999994</ele><time>2026-05-02T13:19:16Z</time></trkpt><trkpt lat="43.36289241046845" lon="13.223153548588657"><ele>478.0</ele><time>2026-05-02T13:19:18Z</time></trkpt><trkpt lat="43.362961221989345" lon="13.223158383813647"><ele>478.0</ele><time>2026-05-02T13:19:19Z</time></trkpt><trkpt lat="43.36302838025623" lon="13.223152264555653"><ele>477.0</ele><time>2026-05-02T13:19:20Z</time></trkpt><trkpt lat="43.363091118109764" lon="13.223141329899432"><ele>475.99999999999994</ele><time>2026-05-02T13:19:21Z</time></trkpt><trkpt lat="43.3631779654129" lon="13.22313097970694"><ele>474.99999999999994</ele><time>2026-05-02T13:19:22Z</time></trkpt><trkpt lat="43.36327857745668" lon="13.223119796697958"><ele>474.0</ele><time>2026-05-02T13:19:23Z</time></trkpt><trkpt lat="43.36339053405017" lon="13.223096459624916"><ele>473.0</ele><time>2026-05-02T13:19:24Z</time></trkpt><trkpt lat="43.36349556461798" lon="13.223081119210319"><ele>473.0</ele><time>2026-05-02T13:19:25Z</time></trkpt><trkpt lat="43.363567519851436" lon="13.223066093493557"><ele>473.0</ele><time>2026-05-02T13:19:26Z</time></trkpt><trkpt lat="43.36362916363802" lon="13.223046022553131"><ele>473.0</ele><time>2026-05-02T13:19:27Z</time></trkpt><trkpt lat="43.36369806401344" lon="13.222987392490964"><ele>473.0</ele><time>2026-05-02T13:19:28Z</time></trkpt><trkpt lat="43.3637637857379" lon="13.222936833951001"><ele>473.0</ele><time>2026-05-02T13:19:29Z</time></trkpt><trkpt lat="43.36382900896611" lon="13.222887554850711"><ele>473.0</ele><time>2026-05-02T13:19:30Z</time></trkpt><trkpt lat="43.36388224046164" lon="13.222833671200544"><ele>473.0</ele><time>2026-05-02T13:19:31Z</time></trkpt><trkpt lat="43.363953778960685" lon="13.222806195881994"><ele>471.66666666666663</ele><time>2026-05-02T13:19:32Z</time></trkpt><trkpt lat="43.36400628129042" lon="13.222758343779551"><ele>470.3333333333333</ele><time>2026-05-02T13:19:33Z</time></trkpt><trkpt lat="43.36406432331119" lon="13.222697414880724"><ele>469.0</ele><time>2026-05-02T13:19:34Z</time></trkpt><trkpt lat="43.36412208441243" lon="13.222640171117947"><ele>467.66666666666663</ele><time>2026-05-02T13:19:35Z</time></trkpt><trkpt lat="43.3641785948083" lon="13.22259754096361"><ele>466.3333333333333</ele><time>2026-05-02T13:19:36Z</time></trkpt><trkpt lat="43.36427480128197" lon="13.222531277064057"><ele>465.0</ele><time>2026-05-02T13:19:38Z</time></trkpt><trkpt lat="43.36433860378885" lon="13.222475081577468"><ele>465.0</ele><time>2026-05-02T13:19:41Z</time></trkpt><trkpt lat="43.364408547681755" lon="13.222347034398224"><ele>465.0</ele><time>2026-05-02T13:19:48Z</time></trkpt><trkpt lat="43.364501275013566" lon="13.222263201995396"><ele>465.0</ele><time>2026-05-02T13:19:49Z</time></trkpt><trkpt lat="43.364624946555" lon="13.222225271696905"><ele>465.0</ele><time>2026-05-02T13:19:49.999Z</time></trkpt><trkpt lat="43.36477451335183" lon="13.222151510838332"><ele>462.0</ele><time>2026-05-02T13:19:50.999Z</time></trkpt><trkpt lat="43.364959645009854" lon="13.222069192561532"><ele>459.0</ele><time>2026-05-02T13:19:51.999Z</time></trkpt><trkpt lat="43.36516870953204" lon="13.221969839602908"><ele>456.0</ele><time>2026-05-02T13:19:52.999Z</time></trkpt><trkpt lat="43.36541345328045" lon="13.2218608204424"><ele>453.33333333333337</ele><time>2026-05-02T13:19:53.999Z</time></trkpt><trkpt lat="43.36562514477767" lon="13.221792960759158"><ele>450.6666666666667</ele><time>2026-05-02T13:19:54.999Z</time></trkpt><trkpt lat="43.365784442485676" lon="13.221780697766487"><ele>448.0</ele><time>2026-05-02T13:19:55.999Z</time></trkpt><trkpt lat="43.36593363135976" lon="13.221716328455523"><ele>448.0</ele><time>2026-05-02T13:19:57Z</time></trkpt><trkpt lat="43.366045662794846" lon="13.221648045382672"><ele>448.0</ele><time>2026-05-02T13:19:58Z</time></trkpt><trkpt lat="43.366148760239426" lon="13.221617977030606"><ele>448.0</ele><time>2026-05-02T13:19:59Z</time></trkpt><trkpt lat="43.36626096261563" lon="13.221559352651804"><ele>448.0</ele><time>2026-05-02T13:20:00Z</time></trkpt><trkpt lat="43.36639086853056" lon="13.221474307159752"><ele>448.5</ele><time>2026-05-02T13:20:01Z</time></trkpt><trkpt lat="43.366512144147784" lon="13.221382262272169"><ele>449.0</ele><time>2026-05-02T13:20:02Z</time></trkpt><trkpt lat="43.36662229853645" lon="13.221302110140037"><ele>449.5</ele><time>2026-05-02T13:20:03Z</time></trkpt><trkpt lat="43.366740304777764" lon="13.221216308193704"><ele>450.0</ele><time>2026-05-02T13:20:04Z</time></trkpt><trkpt lat="43.36684486103609" lon="13.221140285773288"><ele>450.0</ele><time>2026-05-02T13:20:05Z</time></trkpt><trkpt lat="43.366939872051674" lon="13.221097107255588"><ele>450.0</ele><time>2026-05-02T13:20:06Z</time></trkpt><trkpt lat="43.36703866426664" lon="13.221049444138707"><ele>450.0</ele><time>2026-05-02T13:20:07Z</time></trkpt><trkpt lat="43.36714807874909" lon="13.220979537526121"><ele>450.0</ele><time>2026-05-02T13:20:08Z</time></trkpt><trkpt lat="43.36725263528296" lon="13.220878732454345"><ele>448.0</ele><time>2026-05-02T13:20:09Z</time></trkpt><trkpt lat="43.36733955233167" lon="13.220789925252847"><ele>446.0</ele><time>2026-05-02T13:20:10Z</time></trkpt><trkpt lat="43.36739899968269" lon="13.22072825869234"><ele>444.0</ele><time>2026-05-02T13:20:11Z</time></trkpt><trkpt lat="43.36750691981288" lon="13.220662582414022"><ele>442.0</ele><time>2026-05-02T13:20:13Z</time></trkpt><trkpt lat="43.36758745823763" lon="13.22069057940392"><ele>440.0</ele><time>2026-05-02T13:20:14Z</time></trkpt><trkpt lat="43.36767127328351" lon="13.22072285412996"><ele>440.0</ele><time>2026-05-02T13:20:15Z</time></trkpt><trkpt lat="43.367746656997966" lon="13.220745478452825"><ele>440.0</ele><time>2026-05-02T13:20:16Z</time></trkpt><trkpt lat="43.36783150333313" lon="13.220741494053053"><ele>440.0</ele><time>2026-05-02T13:20:17Z</time></trkpt><trkpt lat="43.36796382791465" lon="13.220558058434591"><ele>440.0</ele><time>2026-05-02T13:20:20Z</time></trkpt><trkpt lat="43.36795426951223" lon="13.22041264564838"><ele>440.5</ele><time>2026-05-02T13:20:21Z</time></trkpt><trkpt lat="43.367959145899846" lon="13.220284866137353"><ele>441.0</ele><time>2026-05-02T13:20:22Z</time></trkpt><trkpt lat="43.367963865045354" lon="13.220125274923488"><ele>441.5</ele><time>2026-05-02T13:20:23Z</time></trkpt><trkpt lat="43.367956660434416" lon="13.219949676686895"><ele>442.0</ele><time>2026-05-02T13:20:24Z</time></trkpt><trkpt lat="43.367974269981794" lon="13.219771619187853"><ele>443.75</ele><time>2026-05-02T13:20:25Z</time></trkpt><trkpt lat="43.367985194835946" lon="13.219599648126412"><ele>445.5</ele><time>2026-05-02T13:20:26Z</time></trkpt><trkpt lat="43.36798181060007" lon="13.21944666938563"><ele>447.25</ele><time>2026-05-02T13:20:27Z</time></trkpt><trkpt lat="43.36799102544133" lon="13.21933375002838"><ele>449.0</ele><time>2026-05-02T13:20:29Z</time></trkpt><trkpt lat="43.36800151028464" lon="13.218922610291315"><ele>452.25</ele><time>2026-05-02T13:20:30Z</time></trkpt><trkpt lat="43.36800911905314" lon="13.218756856947856"><ele>455.5</ele><time>2026-05-02T13:20:31Z</time></trkpt><trkpt lat="43.367998353448314" lon="13.218590713622232"><ele>458.75</ele><time>2026-05-02T13:20:32Z</time></trkpt><trkpt lat="43.367985968166714" lon="13.218430120640905"><ele>462.0</ele><time>2026-05-02T13:20:33Z</time></trkpt><trkpt lat="43.36797231295293" lon="13.218265542601223"><ele>463.0</ele><time>2026-05-02T13:20:34Z</time></trkpt><trkpt lat="43.36795919346751" lon="13.218107355927378"><ele>464.0</ele><time>2026-05-02T13:20:35Z</time></trkpt><trkpt lat="43.36795052540222" lon="13.217941196759629"><ele>465.0</ele><time>2026-05-02T13:20:36Z</time></trkpt><trkpt lat="43.36793812708857" lon="13.217780161132458"><ele>466.0</ele><time>2026-05-02T13:20:37Z</time></trkpt><trkpt lat="43.367930562979566" lon="13.217639700942609"><ele>466.0</ele><time>2026-05-02T13:20:38Z</time></trkpt><trkpt lat="43.367938444852456" lon="13.217495796388372"><ele>466.0</ele><time>2026-05-02T13:20:39Z</time></trkpt><trkpt lat="43.36795571411752" lon="13.217329923238964"><ele>466.0</ele><time>2026-05-02T13:20:40Z</time></trkpt><trkpt lat="43.36798376361074" lon="13.21714433056148"><ele>466.0</ele><time>2026-05-02T13:20:41Z</time></trkpt><trkpt lat="43.3680158900072" lon="13.216985197551253"><ele>464.6</ele><time>2026-05-02T13:20:42Z</time></trkpt><trkpt lat="43.36805295002303" lon="13.216855936459611"><ele>463.20000000000005</ele><time>2026-05-02T13:20:43Z</time></trkpt><trkpt lat="43.36809628109406" lon="13.216707645078447"><ele>461.79999999999995</ele><time>2026-05-02T13:20:44Z</time></trkpt><trkpt lat="43.36811511220266" lon="13.216589320976661"><ele>460.4</ele><time>2026-05-02T13:20:45Z</time></trkpt><trkpt lat="43.36815680310358" lon="13.216429079300433"><ele>459.0</ele><time>2026-05-02T13:20:46Z</time></trkpt><trkpt lat="43.36818557159843" lon="13.216268706269096"><ele>458.6</ele><time>2026-05-02T13:20:47Z</time></trkpt><trkpt lat="43.36821104846696" lon="13.216103547332041"><ele>458.2</ele><time>2026-05-02T13:20:48Z</time></trkpt><trkpt lat="43.36823571438763" lon="13.215953015132493"><ele>457.80000000000007</ele><time>2026-05-02T13:20:49Z</time></trkpt><trkpt lat="43.36825975162713" lon="13.215821395483205"><ele>457.40000000000003</ele><time>2026-05-02T13:20:50Z</time></trkpt><trkpt lat="43.3682757985295" lon="13.215705093859663"><ele>457.0</ele><time>2026-05-02T13:20:51Z</time></trkpt><trkpt lat="43.36831264896541" lon="13.215573772580246"><ele>456.5</ele><time>2026-05-02T13:20:52Z</time></trkpt><trkpt lat="43.368338657125584" lon="13.215453642637382"><ele>456.0</ele><time>2026-05-02T13:20:53Z</time></trkpt><trkpt lat="43.36838031413584" lon="13.215292333104705"><ele>455.5</ele><time>2026-05-02T13:20:54Z</time></trkpt><trkpt lat="43.36843406390766" lon="13.215093189440438"><ele>455.0</ele><time>2026-05-02T13:20:55Z</time></trkpt><trkpt lat="43.36845542499981" lon="13.214938500292057"><ele>455.0</ele><time>2026-05-02T13:20:56Z</time></trkpt><trkpt lat="43.368460395689276" lon="13.214838057295616"><ele>455.0</ele><time>2026-05-02T13:20:57Z</time></trkpt><trkpt lat="43.36847762683887" lon="13.214730588951465"><ele>455.0</ele><time>2026-05-02T13:20:58Z</time></trkpt><trkpt lat="43.36844963327909" lon="13.214583286823313"><ele>455.0</ele><time>2026-05-02T13:20:59Z</time></trkpt><trkpt lat="43.36840439354565" lon="13.214441176358081"><ele>455.0</ele><time>2026-05-02T13:21:00Z</time></trkpt><trkpt lat="43.36836388028555" lon="13.214319042850894"><ele>455.2</ele><time>2026-05-02T13:21:01Z</time></trkpt><trkpt lat="43.36833428687666" lon="13.21414746175999"><ele>455.4</ele><time>2026-05-02T13:21:03Z</time></trkpt><trkpt lat="43.368318748700595" lon="13.214019063700656"><ele>455.6</ele><time>2026-05-02T13:21:04Z</time></trkpt><trkpt lat="43.36829909374334" lon="13.213912801276187"><ele>455.8</ele><time>2026-05-02T13:21:05Z</time></trkpt><trkpt lat="43.36830226251162" lon="13.213790061895772"><ele>456.0</ele><time>2026-05-02T13:21:07Z</time></trkpt><trkpt lat="43.36827998859055" lon="13.21370857349747"><ele>457.1666666666667</ele><time>2026-05-02T13:21:09Z</time></trkpt><trkpt lat="43.36823566963069" lon="13.213640005542837"><ele>458.33333333333337</ele><time>2026-05-02T13:21:10Z</time></trkpt><trkpt lat="43.36815933352806" lon="13.213546185603475"><ele>459.5</ele><time>2026-05-02T13:21:11Z</time></trkpt><trkpt lat="43.368093406670084" lon="13.21348593615603"><ele>460.6666666666667</ele><time>2026-05-02T13:21:12Z</time></trkpt><trkpt lat="43.36801508089153" lon="13.21343891601128"><ele>461.83333333333337</ele><time>2026-05-02T13:21:13Z</time></trkpt><trkpt lat="43.367936449321846" lon="13.213355257612108"><ele>463.0</ele><time>2026-05-02T13:21:14Z</time></trkpt><trkpt lat="43.36785371611084" lon="13.213299682132362"><ele>463.5</ele><time>2026-05-02T13:21:15Z</time></trkpt><trkpt lat="43.367695923435136" lon="13.21325863156692"><ele>464.0</ele><time>2026-05-02T13:21:17Z</time></trkpt><trkpt lat="43.36757649080291" lon="13.213165599573857"><ele>464.5</ele><time>2026-05-02T13:21:18Z</time></trkpt><trkpt lat="43.367502334989254" lon="13.213084122434193"><ele>465.0</ele><time>2026-05-02T13:21:19Z</time></trkpt><trkpt lat="43.36741575240822" lon="13.212969246051674"><ele>465.0</ele><time>2026-05-02T13:21:20Z</time></trkpt><trkpt lat="43.36741021632009" lon="13.212872909277557"><ele>465.0</ele><time>2026-05-02T13:21:21Z</time></trkpt><trkpt lat="43.36735662872134" lon="13.212738573594105"><ele>465.0</ele><time>2026-05-02T13:21:22Z</time></trkpt><trkpt lat="43.36729480040556" lon="13.212576264972297"><ele>465.0</ele><time>2026-05-02T13:21:23Z</time></trkpt><trkpt lat="43.367231261933505" lon="13.212475386624126"><ele>465.0</ele><time>2026-05-02T13:21:24Z</time></trkpt><trkpt lat="43.36717977563342" lon="13.212397395235898"><ele>467.0</ele><time>2026-05-02T13:21:25Z</time></trkpt><trkpt lat="43.36706500446542" lon="13.21228351109428"><ele>469.0</ele><time>2026-05-02T13:21:27Z</time></trkpt><trkpt lat="43.36691128594478" lon="13.212074686353573"><ele>471.0</ele><time>2026-05-02T13:21:28Z</time></trkpt><trkpt lat="43.366817004205686" lon="13.211924957396898"><ele>471.0</ele><time>2026-05-02T13:21:29Z</time></trkpt><trkpt lat="43.366698295762085" lon="13.211789264604553"><ele>471.0</ele><time>2026-05-02T13:21:30Z</time></trkpt><trkpt lat="43.36659924180611" lon="13.211630074450452"><ele>471.0</ele><time>2026-05-02T13:21:31Z</time></trkpt><trkpt lat="43.3664460513118" lon="13.211475753341352"><ele>472.0</ele><time>2026-05-02T13:21:33Z</time></trkpt><trkpt lat="43.36634005401636" lon="13.21135878888983"><ele>473.0</ele><time>2026-05-02T13:21:34Z</time></trkpt><trkpt lat="43.36623451670191" lon="13.211229834652029"><ele>474.0</ele><time>2026-05-02T13:21:35Z</time></trkpt><trkpt lat="43.366138377363306" lon="13.211117352394458"><ele>475.0</ele><time>2026-05-02T13:21:36Z</time></trkpt><trkpt lat="43.36603119675088" lon="13.211025817650173"><ele>475.0</ele><time>2026-05-02T13:21:37Z</time></trkpt><trkpt lat="43.36596078093969" lon="13.210910979886581"><ele>475.0</ele><time>2026-05-02T13:21:38Z</time></trkpt><trkpt lat="43.36586468508111" lon="13.210818404748853"><ele>475.0</ele><time>2026-05-02T13:21:39Z</time></trkpt><trkpt lat="43.365764388150076" lon="13.210738575993995"><ele>475.0</ele><time>2026-05-02T13:21:40Z</time></trkpt><trkpt lat="43.36560711236091" lon="13.210663633802055"><ele>478.33333333333337</ele><time>2026-05-02T13:21:41Z</time></trkpt><trkpt lat="43.36545939611502" lon="13.21054337481796"><ele>481.66666666666663</ele><time>2026-05-02T13:21:42Z</time></trkpt><trkpt lat="43.365319491516495" lon="13.210456021338988"><ele>485.0</ele><time>2026-05-02T13:21:43Z</time></trkpt><trkpt lat="43.365193301073255" lon="13.210390192200078"><ele>485.0</ele><time>2026-05-02T13:21:44Z</time></trkpt><trkpt lat="43.36508056480794" lon="13.210309959739922"><ele>485.0</ele><time>2026-05-02T13:21:45Z</time></trkpt><trkpt lat="43.364997358825676" lon="13.21022146420055"><ele>485.0</ele><time>2026-05-02T13:21:46Z</time></trkpt><trkpt lat="43.36491740662389" lon="13.210146994321285"><ele>485.0</ele><time>2026-05-02T13:21:47Z</time></trkpt><trkpt lat="43.364813989823325" lon="13.210073020136504"><ele>485.0</ele><time>2026-05-02T13:21:48Z</time></trkpt><trkpt lat="43.36475099566269" lon="13.209966730693857"><ele>484.0</ele><time>2026-05-02T13:21:49Z</time></trkpt><trkpt lat="43.36469056452586" lon="13.209870903179784"><ele>483.0</ele><time>2026-05-02T13:21:50Z</time></trkpt><trkpt lat="43.36463997923582" lon="13.209775533124743"><ele>482.0</ele><time>2026-05-02T13:21:51Z</time></trkpt><trkpt lat="43.364587001448385" lon="13.209662784406282"><ele>481.0</ele><time>2026-05-02T13:21:52Z</time></trkpt><trkpt lat="43.364547813326965" lon="13.209545944810705"><ele>480.0</ele><time>2026-05-02T13:21:53Z</time></trkpt><trkpt lat="43.3644814297135" lon="13.209385145167023"><ele>482.2</ele><time>2026-05-02T13:21:54Z</time></trkpt><trkpt lat="43.364420470958606" lon="13.20927927058827"><ele>484.4</ele><time>2026-05-02T13:21:55Z</time></trkpt><trkpt lat="43.36434851226736" lon="13.209174034877552"><ele>486.6</ele><time>2026-05-02T13:21:56Z</time></trkpt><trkpt lat="43.36425236460807" lon="13.209108314334843"><ele>488.8</ele><time>2026-05-02T13:21:57Z</time></trkpt><trkpt lat="43.36416168728249" lon="13.209042530480197"><ele>491.0</ele><time>2026-05-02T13:21:58Z</time></trkpt><trkpt lat="43.364070482510535" lon="13.20898807340114"><ele>491.8</ele><time>2026-05-02T13:21:59Z</time></trkpt><trkpt lat="43.36395944035121" lon="13.208929649451475"><ele>492.6</ele><time>2026-05-02T13:22:00Z</time></trkpt><trkpt lat="43.363848095704185" lon="13.208850387027084"><ele>493.4</ele><time>2026-05-02T13:22:01Z</time></trkpt><trkpt lat="43.36373953637752" lon="13.208792536348094"><ele>494.2</ele><time>2026-05-02T13:22:02Z</time></trkpt><trkpt lat="43.363672677094215" lon="13.20876174280724"><ele>495.0</ele><time>2026-05-02T13:22:03Z</time></trkpt><trkpt lat="43.36360633071294" lon="13.208719191255804"><ele>495.0</ele><time>2026-05-02T13:22:04Z</time></trkpt><trkpt lat="43.36354241632105" lon="13.208687128369709"><ele>495.0</ele><time>2026-05-02T13:22:05Z</time></trkpt><trkpt lat="43.36345774520779" lon="13.20860047271337"><ele>495.0</ele><time>2026-05-02T13:22:07Z</time></trkpt><trkpt lat="43.36339684445088" lon="13.208562420197905"><ele>495.0</ele><time>2026-05-02T13:22:08Z</time></trkpt><trkpt lat="43.363345310213035" lon="13.20849077613495"><ele>495.0</ele><time>2026-05-02T13:22:09Z</time></trkpt><trkpt lat="43.36334582617919" lon="13.208393625888451"><ele>495.0</ele><time>2026-05-02T13:22:10Z</time></trkpt><trkpt lat="43.36333466203175" lon="13.20821411658329"><ele>497.5</ele><time>2026-05-02T13:22:12Z</time></trkpt><trkpt lat="43.36333070867225" lon="13.208098924014944"><ele>500.0</ele><time>2026-05-02T13:22:13Z</time></trkpt><trkpt lat="43.363297313039325" lon="13.20800447004672"><ele>502.5</ele><time>2026-05-02T13:22:14Z</time></trkpt><trkpt lat="43.36331924854529" lon="13.207917606268067"><ele>505.0</ele><time>2026-05-02T13:22:16Z</time></trkpt><trkpt lat="43.36340050534499" lon="13.207923958245205"><ele>507.5</ele><time>2026-05-02T13:22:19Z</time></trkpt><trkpt lat="43.36349853988798" lon="13.207890318141205"><ele>510.0</ele><time>2026-05-02T13:22:21Z</time></trkpt><trkpt lat="43.363604923239585" lon="13.208096399514876"><ele>511.75</ele><time>2026-05-02T13:22:22Z</time></trkpt><trkpt lat="43.363707415353865" lon="13.208199300164"><ele>513.5</ele><time>2026-05-02T13:22:23Z</time></trkpt><trkpt lat="43.36381565936474" lon="13.208283310779814"><ele>515.25</ele><time>2026-05-02T13:22:24Z</time></trkpt><trkpt lat="43.36392117634871" lon="13.208364019080369"><ele>517.0</ele><time>2026-05-02T13:22:25Z</time></trkpt><trkpt lat="43.3640290232918" lon="13.208433896987769"><ele>517.0</ele><time>2026-05-02T13:22:26Z</time></trkpt><trkpt lat="43.36415215685794" lon="13.208526739743721"><ele>517.0</ele><time>2026-05-02T13:22:27Z</time></trkpt><trkpt lat="43.364278670991446" lon="13.208621937516314"><ele>517.0</ele><time>2026-05-02T13:22:28Z</time></trkpt><trkpt lat="43.36441276031225" lon="13.208724038113036"><ele>517.0</ele><time>2026-05-02T13:22:29Z</time></trkpt><trkpt lat="43.364541976702135" lon="13.208816485071667"><ele>517.0</ele><time>2026-05-02T13:22:30Z</time></trkpt><trkpt lat="43.36465905131955" lon="13.208920625923872"><ele>517.0</ele><time>2026-05-02T13:22:31Z</time></trkpt><trkpt lat="43.36477603947271" lon="13.209005867555414"><ele>517.0</ele><time>2026-05-02T13:22:32Z</time></trkpt><trkpt lat="43.36489418768873" lon="13.209093336969367"><ele>517.0</ele><time>2026-05-02T13:22:33Z</time></trkpt><trkpt lat="43.365000358915836" lon="13.209186482551658"><ele>516.0</ele><time>2026-05-02T13:22:34Z</time></trkpt><trkpt lat="43.365121993771204" lon="13.209266503584011"><ele>515.0</ele><time>2026-05-02T13:22:35Z</time></trkpt><trkpt lat="43.36524815309064" lon="13.2093641997212"><ele>514.0</ele><time>2026-05-02T13:22:36Z</time></trkpt><trkpt lat="43.365391975016564" lon="13.209467524237185"><ele>513.0</ele><time>2026-05-02T13:22:37Z</time></trkpt><trkpt lat="43.36551645646521" lon="13.209562698274409"><ele>511.25</ele><time>2026-05-02T13:22:38Z</time></trkpt><trkpt lat="43.36566034353141" lon="13.209648644386146"><ele>509.5</ele><time>2026-05-02T13:22:39Z</time></trkpt><trkpt lat="43.365784515688645" lon="13.20973022617154"><ele>507.75</ele><time>2026-05-02T13:22:40Z</time></trkpt><trkpt lat="43.365901122334286" lon="13.209807034633004"><ele>506.0</ele><time>2026-05-02T13:22:41Z</time></trkpt><trkpt lat="43.36601837844325" lon="13.209902031090895"><ele>506.0</ele><time>2026-05-02T13:22:42Z</time></trkpt><trkpt lat="43.36614114578198" lon="13.209955216954278"><ele>506.0</ele><time>2026-05-02T13:22:43Z</time></trkpt><trkpt lat="43.366258236204736" lon="13.210024205031843"><ele>506.0</ele><time>2026-05-02T13:22:44Z</time></trkpt><trkpt lat="43.36636262084979" lon="13.210111968778723"><ele>506.0</ele><time>2026-05-02T13:22:45Z</time></trkpt><trkpt lat="43.366487320893086" lon="13.21023960939465"><ele>504.0</ele><time>2026-05-02T13:22:46Z</time></trkpt><trkpt lat="43.366637842237836" lon="13.210403409782357"><ele>502.0</ele><time>2026-05-02T13:22:47Z</time></trkpt><trkpt lat="43.36679623447606" lon="13.210558747551605"><ele>500.0</ele><time>2026-05-02T13:22:48Z</time></trkpt><trkpt lat="43.36691443746014" lon="13.21070891050399"><ele>500.0</ele><time>2026-05-02T13:22:49Z</time></trkpt><trkpt lat="43.36701520970587" lon="13.2107941124755"><ele>500.0</ele><time>2026-05-02T13:22:50Z</time></trkpt><trkpt lat="43.367115177061635" lon="13.210877219547672"><ele>500.0</ele><time>2026-05-02T13:22:51Z</time></trkpt><trkpt lat="43.367225351624406" lon="13.210953118904175"><ele>500.0</ele><time>2026-05-02T13:22:52Z</time></trkpt><trkpt lat="43.36732903864375" lon="13.211010406637904"><ele>509.5</ele><time>2026-05-02T13:22:53Z</time></trkpt><trkpt lat="43.367436472995955" lon="13.211047163119252"><ele>519.0</ele><time>2026-05-02T13:22:54Z</time></trkpt><trkpt lat="43.36753629474207" lon="13.211095761658191"><ele>528.5</ele><time>2026-05-02T13:22:55Z</time></trkpt><trkpt lat="43.36767729407237" lon="13.21121878039133"><ele>538.0</ele><time>2026-05-02T13:22:56Z</time></trkpt><trkpt lat="43.3677881579505" lon="13.211279863565075"><ele>538.0</ele><time>2026-05-02T13:22:57Z</time></trkpt><trkpt lat="43.36789205797478" lon="13.21131898732765"><ele>538.0</ele><time>2026-05-02T13:22:58Z</time></trkpt><trkpt lat="43.367975367860254" lon="13.211364699847763"><ele>538.0</ele><time>2026-05-02T13:22:59Z</time></trkpt><trkpt lat="43.36806255902008" lon="13.211407025629855"><ele>538.0</ele><time>2026-05-02T13:23:00Z</time></trkpt><trkpt lat="43.36815695996274" lon="13.21144671617457"><ele>538.0</ele><time>2026-05-02T13:23:01Z</time></trkpt><trkpt lat="43.36822964757791" lon="13.211464132807"><ele>539.25</ele><time>2026-05-02T13:23:02Z</time></trkpt><trkpt lat="43.36828994172093" lon="13.211419300245053"><ele>540.5</ele><time>2026-05-02T13:23:03Z</time></trkpt><trkpt lat="43.36839517538962" lon="13.211367446073412"><ele>541.75</ele><time>2026-05-02T13:23:05Z</time></trkpt><trkpt lat="43.368481788462454" lon="13.211168756995498"><ele>543.0</ele><time>2026-05-02T13:23:07Z</time></trkpt><trkpt lat="43.36857297313861" lon="13.210958796318677"><ele>543.0</ele><time>2026-05-02T13:23:08Z</time></trkpt><trkpt lat="43.36865174558815" lon="13.210759729608354"><ele>543.0</ele><time>2026-05-02T13:23:09Z</time></trkpt><trkpt lat="43.36874167117147" lon="13.21064328862757"><ele>543.0</ele><time>2026-05-02T13:23:10Z</time></trkpt><trkpt lat="43.36881717222063" lon="13.210532109372137"><ele>543.0</ele><time>2026-05-02T13:23:11Z</time></trkpt><trkpt lat="43.36889284834463" lon="13.210427610664206"><ele>542.25</ele><time>2026-05-02T13:23:12Z</time></trkpt><trkpt lat="43.36896862025107" lon="13.21032987461454"><ele>541.5</ele><time>2026-05-02T13:23:13Z</time></trkpt><trkpt lat="43.36904649632243" lon="13.210179570624902"><ele>540.75</ele><time>2026-05-02T13:23:14Z</time></trkpt><trkpt lat="43.369142957748466" lon="13.21003658437712"><ele>540.0</ele><time>2026-05-02T13:23:15Z</time></trkpt><trkpt lat="43.36922239676283" lon="13.20992983419693"><ele>543.8</ele><time>2026-05-02T13:23:16Z</time></trkpt><trkpt lat="43.36927089525296" lon="13.209820064630373"><ele>547.6</ele><time>2026-05-02T13:23:17Z</time></trkpt><trkpt lat="43.36932775583575" lon="13.209752390567223"><ele>551.4</ele><time>2026-05-02T13:23:18Z</time></trkpt><trkpt lat="43.3693774698451" lon="13.209685179018638"><ele>555.2</ele><time>2026-05-02T13:23:19Z</time></trkpt><trkpt lat="43.36944106177224" lon="13.209514523006623"><ele>559.0</ele><time>2026-05-02T13:23:21Z</time></trkpt><trkpt lat="43.369450111449844" lon="13.20940143310366"><ele>559.0</ele><time>2026-05-02T13:23:22Z</time></trkpt><trkpt lat="43.36937909065749" lon="13.20927582510932"><ele>559.0</ele><time>2026-05-02T13:23:23Z</time></trkpt><trkpt lat="43.36936927938496" lon="13.209084308650706"><ele>559.0</ele><time>2026-05-02T13:23:24Z</time></trkpt><trkpt lat="43.36936164239706" lon="13.208923524547085"><ele>559.0</ele><time>2026-05-02T13:23:25Z</time></trkpt><trkpt lat="43.36937195370678" lon="13.208745420509654"><ele>561.3333333333334</ele><time>2026-05-02T13:23:26Z</time></trkpt><trkpt lat="43.369387250224364" lon="13.20854486077157"><ele>563.6666666666666</ele><time>2026-05-02T13:23:27Z</time></trkpt><trkpt lat="43.36939065589974" lon="13.208323236123588"><ele>566.0</ele><time>2026-05-02T13:23:28Z</time></trkpt><trkpt lat="43.369405020142146" lon="13.208126440612752"><ele>567.25</ele><time>2026-05-02T13:23:29Z</time></trkpt><trkpt lat="43.369396655786765" lon="13.207978946621743"><ele>568.5</ele><time>2026-05-02T13:23:30Z</time></trkpt><trkpt lat="43.36943567826311" lon="13.207811763992703"><ele>569.75</ele><time>2026-05-02T13:23:31Z</time></trkpt><trkpt lat="43.36944576041951" lon="13.20762257653297"><ele>571.0</ele><time>2026-05-02T13:23:32Z</time></trkpt><trkpt lat="43.3694343807046" lon="13.207447340537849"><ele>571.6</ele><time>2026-05-02T13:23:33Z</time></trkpt><trkpt lat="43.36943552831728" lon="13.207292498427062"><ele>572.2</ele><time>2026-05-02T13:23:34Z</time></trkpt><trkpt lat="43.369414638043764" lon="13.207153715133378"><ele>572.8</ele><time>2026-05-02T13:23:35Z</time></trkpt><trkpt lat="43.369440887499124" lon="13.207033243046379"><ele>573.4</ele><time>2026-05-02T13:23:36Z</time></trkpt><trkpt lat="43.36950853184669" lon="13.206893290694277"><ele>574.0</ele><time>2026-05-02T13:23:37Z</time></trkpt><trkpt lat="43.36956497049615" lon="13.206766798498933"><ele>574.0</ele><time>2026-05-02T13:23:38Z</time></trkpt><trkpt lat="43.369610506094084" lon="13.206635470838805"><ele>574.0</ele><time>2026-05-02T13:23:39Z</time></trkpt><trkpt lat="43.36961092756475" lon="13.20648341201612"><ele>574.0</ele><time>2026-05-02T13:23:40Z</time></trkpt><trkpt lat="43.369615772279076" lon="13.20636737963216"><ele>574.0</ele><time>2026-05-02T13:23:41Z</time></trkpt><trkpt lat="43.369642334101826" lon="13.206264087895333"><ele>574.0</ele><time>2026-05-02T13:23:42Z</time></trkpt><trkpt lat="43.36965911466458" lon="13.2061548101778"><ele>575.4</ele><time>2026-05-02T13:23:43Z</time></trkpt><trkpt lat="43.36969685994499" lon="13.206045844340336"><ele>576.8</ele><time>2026-05-02T13:23:44Z</time></trkpt><trkpt lat="43.36969825925161" lon="13.205913775600234"><ele>578.2</ele><time>2026-05-02T13:23:45Z</time></trkpt><trkpt lat="43.369685297514366" lon="13.205789000644009"><ele>579.6</ele><time>2026-05-02T13:23:46Z</time></trkpt><trkpt lat="43.369659187177064" lon="13.205660566358366"><ele>581.0</ele><time>2026-05-02T13:23:47Z</time></trkpt><trkpt lat="43.36964884909885" lon="13.20553591703694"><ele>581.8</ele><time>2026-05-02T13:23:48Z</time></trkpt><trkpt lat="43.36963562672678" lon="13.205397913243594"><ele>582.6</ele><time>2026-05-02T13:23:49Z</time></trkpt><trkpt lat="43.36964323682747" lon="13.205264156376279"><ele>583.4</ele><time>2026-05-02T13:23:50Z</time></trkpt><trkpt lat="43.369612416526664" lon="13.205128699400452"><ele>584.2</ele><time>2026-05-02T13:23:51Z</time></trkpt><trkpt lat="43.36960047401421" lon="13.204970667320413"><ele>585.0</ele><time>2026-05-02T13:23:52Z</time></trkpt><trkpt lat="43.36957715604974" lon="13.204806279254901"><ele>585.2</ele><time>2026-05-02T13:23:53Z</time></trkpt><trkpt lat="43.36958599036389" lon="13.204660320026775"><ele>585.4</ele><time>2026-05-02T13:23:54Z</time></trkpt><trkpt lat="43.36955248839329" lon="13.204539501558788"><ele>585.6</ele><time>2026-05-02T13:23:55Z</time></trkpt><trkpt lat="43.369519804144275" lon="13.204391943599735"><ele>585.8</ele><time>2026-05-02T13:23:56Z</time></trkpt><trkpt lat="43.369495439166975" lon="13.204224881069608"><ele>586.0</ele><time>2026-05-02T13:23:57Z</time></trkpt><trkpt lat="43.36945675857982" lon="13.204057589693901"><ele>585.6</ele><time>2026-05-02T13:23:58Z</time></trkpt><trkpt lat="43.36943096116929" lon="13.203908362023435"><ele>585.2</ele><time>2026-05-02T13:23:59Z</time></trkpt><trkpt lat="43.36940919176219" lon="13.20377959564818"><ele>584.8</ele><time>2026-05-02T13:24:00Z</time></trkpt><trkpt lat="43.36935258659054" lon="13.203649528751212"><ele>584.4</ele><time>2026-05-02T13:24:01Z</time></trkpt><trkpt lat="43.369312962054266" lon="13.203511752949055"><ele>584.0</ele><time>2026-05-02T13:24:02Z</time></trkpt><trkpt lat="43.36926364416614" lon="13.20336741700775"><ele>584.0</ele><time>2026-05-02T13:24:03Z</time></trkpt><trkpt lat="43.36920955149356" lon="13.203205829739753"><ele>584.0</ele><time>2026-05-02T13:24:04Z</time></trkpt><trkpt lat="43.36916586764853" lon="13.20305318833789"><ele>584.0</ele><time>2026-05-02T13:24:05Z</time></trkpt><trkpt lat="43.36912026891004" lon="13.202907736778783"><ele>584.0</ele><time>2026-05-02T13:24:06Z</time></trkpt><trkpt lat="43.36907453441634" lon="13.202770338372405"><ele>584.2</ele><time>2026-05-02T13:24:07Z</time></trkpt><trkpt lat="43.369025714956585" lon="13.202639443345436"><ele>584.4</ele><time>2026-05-02T13:24:08Z</time></trkpt><trkpt lat="43.368963574358936" lon="13.202515319115948"><ele>584.6</ele><time>2026-05-02T13:24:09Z</time></trkpt><trkpt lat="43.368923547504444" lon="13.202370286939066"><ele>584.8</ele><time>2026-05-02T13:24:10Z</time></trkpt><trkpt lat="43.3688610313246" lon="13.202286830789527"><ele>585.0</ele><time>2026-05-02T13:24:11Z</time></trkpt><trkpt lat="43.36878716653057" lon="13.202149995974988"><ele>587.6</ele><time>2026-05-02T13:24:13Z</time></trkpt><trkpt lat="43.36880001535457" lon="13.201987591299346"><ele>590.2</ele><time>2026-05-02T13:24:15Z</time></trkpt><trkpt lat="43.36883402126641" lon="13.201904122898155"><ele>592.8</ele><time>2026-05-02T13:24:16Z</time></trkpt><trkpt lat="43.3689083839198" lon="13.201812185974338"><ele>595.4</ele><time>2026-05-02T13:24:17Z</time></trkpt><trkpt lat="43.36890379084904" lon="13.20163368636071"><ele>598.0</ele><time>2026-05-02T13:24:18Z</time></trkpt><trkpt lat="43.36896281478532" lon="13.20155765675956"><ele>601.6666666666667</ele><time>2026-05-02T13:24:19Z</time></trkpt><trkpt lat="43.369022349685814" lon="13.201480968566889"><ele>605.3333333333334</ele><time>2026-05-02T13:24:20Z</time></trkpt><trkpt lat="43.36911424992989" lon="13.201362590283852"><ele>609.0</ele><time>2026-05-02T13:24:22Z</time></trkpt><trkpt lat="43.3691591913143" lon="13.201282228617526"><ele>612.6666666666666</ele><time>2026-05-02T13:24:24Z</time></trkpt><trkpt lat="43.36919782668911" lon="13.201178715895642"><ele>616.3333333333333</ele><time>2026-05-02T13:24:26Z</time></trkpt><trkpt lat="43.36925752921938" lon="13.20110493728101"><ele>620.0</ele><time>2026-05-02T13:24:27Z</time></trkpt><trkpt lat="43.36933314107263" lon="13.201016014195822"><ele>620.0</ele><time>2026-05-02T13:24:28Z</time></trkpt><trkpt lat="43.36945286303597" lon="13.2008707909779"><ele>620.0</ele><time>2026-05-02T13:24:29Z</time></trkpt><trkpt lat="43.369581017823606" lon="13.200797287289763"><ele>620.0</ele><time>2026-05-02T13:24:30Z</time></trkpt><trkpt lat="43.369719954909804" lon="13.200785247207456"><ele>620.0</ele><time>2026-05-02T13:24:31Z</time></trkpt><trkpt lat="43.369853981152595" lon="13.20082438219794"><ele>618.25</ele><time>2026-05-02T13:24:32Z</time></trkpt><trkpt lat="43.36996439835405" lon="13.200931203725418"><ele>616.5</ele><time>2026-05-02T13:24:33Z</time></trkpt><trkpt lat="43.37004522470424" lon="13.201091072039945"><ele>614.75</ele><time>2026-05-02T13:24:34Z</time></trkpt><trkpt lat="43.370078988198834" lon="13.20130272244829"><ele>613.0</ele><time>2026-05-02T13:24:35Z</time></trkpt><trkpt lat="43.37013851676123" lon="13.201563534088576"><ele>607.5</ele><time>2026-05-02T13:24:36Z</time></trkpt><trkpt lat="43.370207574110495" lon="13.201869259929861"><ele>602.0</ele><time>2026-05-02T13:24:37Z</time></trkpt><trkpt lat="43.37027206956906" lon="13.202224999235357"><ele>597.0</ele><time>2026-05-02T13:24:38Z</time></trkpt><trkpt lat="43.37035357459211" lon="13.20265404590214"><ele>592.0</ele><time>2026-05-02T13:24:39Z</time></trkpt><trkpt lat="43.370457165918026" lon="13.203043151571826"><ele>606.0</ele><time>2026-05-02T13:24:40Z</time></trkpt><trkpt lat="43.370555445462884" lon="13.203336428878123"><ele>620.0</ele><time>2026-05-02T13:24:41Z</time></trkpt><trkpt lat="43.370670329001264" lon="13.203698412662945"><ele>612.5</ele><time>2026-05-02T13:24:42Z</time></trkpt><trkpt lat="43.37075601531862" lon="13.204079324860698"><ele>605.0</ele><time>2026-05-02T13:24:43Z</time></trkpt><trkpt lat="43.37083944591591" lon="13.204467581548892"><ele>605.0</ele><time>2026-05-02T13:24:44Z</time></trkpt><trkpt lat="43.37091872502681" lon="13.204621898965646"><ele>605.0</ele><time>2026-05-02T13:24:45Z</time></trkpt><trkpt lat="43.37100995401539" lon="13.204843935224057"><ele>605.0</ele><time>2026-05-02T13:24:46Z</time></trkpt><trkpt lat="43.371112495082635" lon="13.20503610850963"><ele>599.75</ele><time>2026-05-02T13:24:47Z</time></trkpt><trkpt lat="43.37120697847263" lon="13.205216497722965"><ele>594.5</ele><time>2026-05-02T13:24:48Z</time></trkpt><trkpt lat="43.37127537751553" lon="13.205396601259185"><ele>589.25</ele><time>2026-05-02T13:24:49Z</time></trkpt><trkpt lat="43.37133151514749" lon="13.205567130898517"><ele>584.0</ele><time>2026-05-02T13:24:50Z</time></trkpt><trkpt lat="43.37134806898167" lon="13.205750629378663"><ele>579.0</ele><time>2026-05-02T13:24:51Z</time></trkpt><trkpt lat="43.37132932770886" lon="13.205954575719447"><ele>574.0</ele><time>2026-05-02T13:24:52Z</time></trkpt><trkpt lat="43.371307264922635" lon="13.206215109557105"><ele>569.0</ele><time>2026-05-02T13:24:53Z</time></trkpt><trkpt lat="43.37131195993362" lon="13.20650860686248"><ele>566.5</ele><time>2026-05-02T13:24:54Z</time></trkpt><trkpt lat="43.371304575353705" lon="13.206843450675544"><ele>564.0</ele><time>2026-05-02T13:24:55Z</time></trkpt><trkpt lat="43.371311213262956" lon="13.207173568471713"><ele>561.0</ele><time>2026-05-02T13:24:56Z</time></trkpt><trkpt lat="43.371334051143236" lon="13.207440912733936"><ele>558.0</ele><time>2026-05-02T13:24:57Z</time></trkpt><trkpt lat="43.37136283628317" lon="13.207677965137636"><ele>555.0</ele><time>2026-05-02T13:24:58Z</time></trkpt><trkpt lat="43.37142904764104" lon="13.207929363961433"><ele>569.0</ele><time>2026-05-02T13:24:59Z</time></trkpt><trkpt lat="43.37152081519468" lon="13.208191818441014"><ele>583.0</ele><time>2026-05-02T13:25:00Z</time></trkpt><trkpt lat="43.37161237585325" lon="13.208401441192533"><ele>597.0</ele><time>2026-05-02T13:25:01Z</time></trkpt><trkpt lat="43.37170308288652" lon="13.20858390430062"><ele>597.0</ele><time>2026-05-02T13:25:02Z</time></trkpt><trkpt lat="43.37182345057899" lon="13.208708206183726"><ele>597.0</ele><time>2026-05-02T13:25:03Z</time></trkpt><trkpt lat="43.37195983471175" lon="13.208819330529934"><ele>597.0</ele><time>2026-05-02T13:25:04Z</time></trkpt><trkpt lat="43.37214461522302" lon="13.208910336009232"><ele>592.6666666666666</ele><time>2026-05-02T13:25:05Z</time></trkpt><trkpt lat="43.37230091031421" lon="13.209000903628079"><ele>588.3333333333333</ele><time>2026-05-02T13:25:06Z</time></trkpt><trkpt lat="43.37246420474198" lon="13.209009379748226"><ele>584.0</ele><time>2026-05-02T13:25:07Z</time></trkpt><trkpt lat="43.372580849511706" lon="13.208910638923518"><ele>594.3333333333333</ele><time>2026-05-02T13:25:08Z</time></trkpt><trkpt lat="43.3727673975516" lon="13.208811818850961"><ele>604.6666666666666</ele><time>2026-05-02T13:25:09Z</time></trkpt><trkpt lat="43.37292472724612" lon="13.20882947253776"><ele>615.0</ele><time>2026-05-02T13:25:10Z</time></trkpt><trkpt lat="43.37306090271084" lon="13.208879697918466"><ele>615.0</ele><time>2026-05-02T13:25:11Z</time></trkpt><trkpt lat="43.37321019868639" lon="13.20898732320855"><ele>615.0</ele><time>2026-05-02T13:25:12Z</time></trkpt><trkpt lat="43.37341096636556" lon="13.20912456318648"><ele>615.0</ele><time>2026-05-02T13:25:13Z</time></trkpt><trkpt lat="43.37358918424111" lon="13.209248667024191"><ele>611.75</ele><time>2026-05-02T13:25:14Z</time></trkpt><trkpt lat="43.37374056216377" lon="13.209348491370735"><ele>608.5</ele><time>2026-05-02T13:25:15Z</time></trkpt><trkpt lat="43.37387491660182" lon="13.209434591762777"><ele>605.25</ele><time>2026-05-02T13:25:16Z</time></trkpt><trkpt lat="43.37397742200604" lon="13.209497117918103"><ele>602.0</ele><time>2026-05-02T13:25:17Z</time></trkpt><trkpt lat="43.37409637467604" lon="13.209522237309292"><ele>602.0</ele><time>2026-05-02T13:25:18Z</time></trkpt><trkpt lat="43.374202847511555" lon="13.209509099856517"><ele>602.0</ele><time>2026-05-02T13:25:19Z</time></trkpt><trkpt lat="43.37431554045439" lon="13.209487123547902"><ele>602.0</ele><time>2026-05-02T13:25:20Z</time></trkpt><trkpt lat="43.37443335620339" lon="13.20939250432507"><ele>602.0</ele><time>2026-05-02T13:25:21Z</time></trkpt><trkpt lat="43.374508323169415" lon="13.209344873133643"><ele>602.0</ele><time>2026-05-02T13:25:22Z</time></trkpt><trkpt lat="43.37460618090652" lon="13.209296328760288"><ele>601.1666666666666</ele><time>2026-05-02T13:25:23Z</time></trkpt><trkpt lat="43.37469613004522" lon="13.209246225048538"><ele>600.3333333333333</ele><time>2026-05-02T13:25:24Z</time></trkpt><trkpt lat="43.374776202766505" lon="13.209212395413598"><ele>599.5</ele><time>2026-05-02T13:25:25Z</time></trkpt><trkpt lat="43.37484847555335" lon="13.209184287184495"><ele>598.6666666666666</ele><time>2026-05-02T13:25:26Z</time></trkpt><trkpt lat="43.37491909653868" lon="13.209183291470602"><ele>597.8333333333334</ele><time>2026-05-02T13:25:27Z</time></trkpt><trkpt lat="43.374987497959566" lon="13.209188357946013"><ele>597.0</ele><time>2026-05-02T13:25:28Z</time></trkpt><trkpt lat="43.375051078876695" lon="13.20915118775927"><ele>597.0</ele><time>2026-05-02T13:25:29Z</time></trkpt><trkpt lat="43.37511477865039" lon="13.20910218848679"><ele>597.0</ele><time>2026-05-02T13:25:30Z</time></trkpt><trkpt lat="43.375228476070774" lon="13.209023983397095"><ele>597.0</ele><time>2026-05-02T13:25:32Z</time></trkpt><trkpt lat="43.375345622070746" lon="13.209098822873726"><ele>597.0</ele><time>2026-05-02T13:25:34Z</time></trkpt><trkpt lat="43.37549176755367" lon="13.209078405391342"><ele>595.5</ele><time>2026-05-02T13:25:36Z</time></trkpt><trkpt lat="43.375549267125656" lon="13.20903988032024"><ele>594.0</ele><time>2026-05-02T13:25:37Z</time></trkpt><trkpt lat="43.37551456178874" lon="13.208791052542471"><ele>592.5</ele><time>2026-05-02T13:25:38Z</time></trkpt><trkpt lat="43.375534595445814" lon="13.20864252483048"><ele>591.0</ele><time>2026-05-02T13:25:39Z</time></trkpt><trkpt lat="43.37554626686986" lon="13.208492139571918"><ele>590.2</ele><time>2026-05-02T13:25:40Z</time></trkpt><trkpt lat="43.375531861134924" lon="13.208370937710995"><ele>589.4000000000001</ele><time>2026-05-02T13:25:41Z</time></trkpt><trkpt lat="43.375481947433165" lon="13.208240997801148"><ele>588.6</ele><time>2026-05-02T13:25:42Z</time></trkpt><trkpt lat="43.37541725609803" lon="13.208118507378005"><ele>587.8000000000001</ele><time>2026-05-02T13:25:43Z</time></trkpt><trkpt lat="43.37528385078757" lon="13.208114487448563"><ele>587.0</ele><time>2026-05-02T13:25:44Z</time></trkpt><trkpt lat="43.375212399385084" lon="13.208101819610803"><ele>591.5</ele><time>2026-05-02T13:25:45Z</time></trkpt><trkpt lat="43.37510334555129" lon="13.208017575921206"><ele>596.0</ele><time>2026-05-02T13:25:47Z</time></trkpt><trkpt lat="43.375005823492316" lon="13.208196811796622"><ele>600.5</ele><time>2026-05-02T13:25:48Z</time></trkpt><trkpt lat="43.37496189040258" lon="13.208348180696726"><ele>605.0</ele><time>2026-05-02T13:25:49Z</time></trkpt><trkpt lat="43.374895022943974" lon="13.208486110562346"><ele>605.0</ele><time>2026-05-02T13:25:50Z</time></trkpt><trkpt lat="43.37484662297778" lon="13.208609536269027"><ele>605.0</ele><time>2026-05-02T13:25:51Z</time></trkpt><trkpt lat="43.37481154045252" lon="13.208681639475794"><ele>605.0</ele><time>2026-05-02T13:25:52Z</time></trkpt><trkpt lat="43.37465815454576" lon="13.209140736342606"><ele>604.25</ele><time>2026-05-02T13:25:53Z</time></trkpt><trkpt lat="43.37459742250662" lon="13.209193976856467"><ele>603.5</ele><time>2026-05-02T13:25:54Z</time></trkpt><trkpt lat="43.37450811608234" lon="13.209232156949634"><ele>602.75</ele><time>2026-05-02T13:25:56Z</time></trkpt><trkpt lat="43.374443178151445" lon="13.20925271553274"><ele>602.0</ele><time>2026-05-02T13:25:57Z</time></trkpt><trkpt lat="43.3739100806351" lon="13.209241715385723"><ele>615.0</ele><time>2026-05-02T13:25:58Z</time></trkpt><trkpt lat="43.374222477816204" lon="13.208344649045632"><ele>615.0</ele><time>2026-05-02T13:25:59Z</time></trkpt><trkpt lat="43.37426666991815" lon="13.208252698079809"><ele>615.0</ele><time>2026-05-02T13:26:00Z</time></trkpt><trkpt lat="43.37432073497855" lon="13.208180502067846"><ele>615.0</ele><time>2026-05-02T13:26:01Z</time></trkpt><trkpt lat="43.3743574152573" lon="13.208107319329695"><ele>615.0</ele><time>2026-05-02T13:26:02Z</time></trkpt><trkpt lat="43.37435572642584" lon="13.207941508753487"><ele>615.0</ele><time>2026-05-02T13:26:04Z</time></trkpt><trkpt lat="43.3743037522496" lon="13.207795474487487"><ele>618.0</ele><time>2026-05-02T13:26:06Z</time></trkpt><trkpt lat="43.37419070543676" lon="13.20771321300798"><ele>621.0</ele><time>2026-05-02T13:26:08Z</time></trkpt><trkpt lat="43.37409629436143" lon="13.207626985883053"><ele>624.0</ele><time>2026-05-02T13:26:10Z</time></trkpt><trkpt lat="43.374028439838355" lon="13.207581403828803"><ele>627.0</ele><time>2026-05-02T13:26:11Z</time></trkpt><trkpt lat="43.37396747272034" lon="13.207530647212046"><ele>630.0</ele><time>2026-05-02T13:26:12Z</time></trkpt><trkpt lat="43.37390162725909" lon="13.207475219988709"><ele>630.3333333333334</ele><time>2026-05-02T13:26:13Z</time></trkpt><trkpt lat="43.37383564689081" lon="13.207398617479715"><ele>630.6666666666666</ele><time>2026-05-02T13:26:14Z</time></trkpt><trkpt lat="43.3737762375223" lon="13.20732388462964"><ele>631.0</ele><time>2026-05-02T13:26:15Z</time></trkpt><trkpt lat="43.373713697446824" lon="13.207245599188726"><ele>631.3333333333333</ele><time>2026-05-02T13:26:16Z</time></trkpt><trkpt lat="43.373651850228065" lon="13.207154876803799"><ele>631.6666666666666</ele><time>2026-05-02T13:26:17Z</time></trkpt><trkpt lat="43.37359311877294" lon="13.207062368885214"><ele>632.0</ele><time>2026-05-02T13:26:18Z</time></trkpt><trkpt lat="43.37353969976321" lon="13.206970349097933"><ele>634.0</ele><time>2026-05-02T13:26:19Z</time></trkpt><trkpt lat="43.373490360480005" lon="13.20686568602173"><ele>636.0</ele><time>2026-05-02T13:26:20Z</time></trkpt><trkpt lat="43.37343546185803" lon="13.206732302426179"><ele>638.0</ele><time>2026-05-02T13:26:21Z</time></trkpt><trkpt lat="43.37335972333418" lon="13.20657168715158"><ele>640.0</ele><time>2026-05-02T13:26:22Z</time></trkpt><trkpt lat="43.37329426939763" lon="13.206436070815004"><ele>641.6666666666667</ele><time>2026-05-02T13:26:23Z</time></trkpt><trkpt lat="43.37324619383655" lon="13.206333871681844"><ele>643.3333333333334</ele><time>2026-05-02T13:26:24Z</time></trkpt><trkpt lat="43.37305950914506" lon="13.205929465653519"><ele>645.0</ele><time>2026-05-02T13:26:25Z</time></trkpt><trkpt lat="43.37294328138029" lon="13.20568513053601"><ele>647.5</ele><time>2026-05-02T13:26:26Z</time></trkpt><trkpt lat="43.37281545726965" lon="13.20541488815651"><ele>650.0</ele><time>2026-05-02T13:26:27Z</time></trkpt><trkpt lat="43.37266040333835" lon="13.205138427621142"><ele>650.0</ele><time>2026-05-02T13:26:28Z</time></trkpt><trkpt lat="43.37248226321889" lon="13.204846400230217"><ele>650.0</ele><time>2026-05-02T13:26:29Z</time></trkpt><trkpt lat="43.3722890754349" lon="13.2045571931848"><ele>648.5</ele><time>2026-05-02T13:26:30Z</time></trkpt><trkpt lat="43.372081847487834" lon="13.204262819069223"><ele>647.0</ele><time>2026-05-02T13:26:31Z</time></trkpt><trkpt lat="43.37189395697833" lon="13.203977401123463"><ele>652.3333333333333</ele><time>2026-05-02T13:26:32Z</time></trkpt><trkpt lat="43.371764380255485" lon="13.203725994035018"><ele>657.6666666666666</ele><time>2026-05-02T13:26:33Z</time></trkpt><trkpt lat="43.37168093851205" lon="13.203528508959206"><ele>663.0</ele><time>2026-05-02T13:26:34Z</time></trkpt><trkpt lat="43.37161463584899" lon="13.203295012187455"><ele>668.5</ele><time>2026-05-02T13:26:35Z</time></trkpt><trkpt lat="43.371547116279494" lon="13.20300482277057"><ele>674.0</ele><time>2026-05-02T13:26:36Z</time></trkpt><trkpt lat="43.37148120418818" lon="13.20267742981862"><ele>678.0</ele><time>2026-05-02T13:26:37Z</time></trkpt><trkpt lat="43.37141197144153" lon="13.202325353210515"><ele>682.0</ele><time>2026-05-02T13:26:38Z</time></trkpt><trkpt lat="43.37133893008939" lon="13.201957342061423"><ele>668.5</ele><time>2026-05-02T13:26:39Z</time></trkpt><trkpt lat="43.37126412744294" lon="13.201581994083655"><ele>655.0</ele><time>2026-05-02T13:26:40Z</time></trkpt><trkpt lat="43.37119317535374" lon="13.201199071939518"><ele>655.0</ele><time>2026-05-02T13:26:41Z</time></trkpt><trkpt lat="43.37112143829556" lon="13.200813006712686"><ele>655.0</ele><time>2026-05-02T13:26:42Z</time></trkpt><trkpt lat="43.37103648000279" lon="13.200411028950903"><ele>661.5</ele><time>2026-05-02T13:26:43Z</time></trkpt><trkpt lat="43.3709449810715" lon="13.200021924408832"><ele>668.0</ele><time>2026-05-02T13:26:44Z</time></trkpt><trkpt lat="43.370852428720525" lon="13.19962178761"><ele>674.5</ele><time>2026-05-02T13:26:45Z</time></trkpt><trkpt lat="43.37076521633259" lon="13.19923977792125"><ele>681.0</ele><time>2026-05-02T13:26:46Z</time></trkpt><trkpt lat="43.3706639912938" lon="13.19887937004135"><ele>682.0</ele><time>2026-05-02T13:26:47Z</time></trkpt><trkpt lat="43.370528652208534" lon="13.198513981927716"><ele>683.0</ele><time>2026-05-02T13:26:48Z</time></trkpt><trkpt lat="43.37038620921236" lon="13.198141656577606"><ele>683.0</ele><time>2026-05-02T13:26:49Z</time></trkpt><trkpt lat="43.37023806271938" lon="13.197772719137772"><ele>683.0</ele><time>2026-05-02T13:26:50Z</time></trkpt><trkpt lat="43.37009595809364" lon="13.19742893983355"><ele>688.5</ele><time>2026-05-02T13:26:51Z</time></trkpt><trkpt lat="43.36996502181273" lon="13.197100579983031"><ele>694.0</ele><time>2026-05-02T13:26:52Z</time></trkpt><trkpt lat="43.369834091756005" lon="13.196785091544966"><ele>696.3333333333334</ele><time>2026-05-02T13:26:53Z</time></trkpt><trkpt lat="43.36970365240474" lon="13.196501041722557"><ele>698.6666666666666</ele><time>2026-05-02T13:26:54Z</time></trkpt><trkpt lat="43.36960721010369" lon="13.196274971401719"><ele>701.0</ele><time>2026-05-02T13:26:55Z</time></trkpt><trkpt lat="43.36944045609745" lon="13.195884853073812"><ele>700.3333333333333</ele><time>2026-05-02T13:26:56Z</time></trkpt><trkpt lat="43.36933134850105" lon="13.195621798125948"><ele>699.6666666666666</ele><time>2026-05-02T13:26:57Z</time></trkpt><trkpt lat="43.36922991947555" lon="13.195375434464008"><ele>699.0</ele><time>2026-05-02T13:26:58Z</time></trkpt><trkpt lat="43.36913833072173" lon="13.19516058780562"><ele>699.0</ele><time>2026-05-02T13:26:59Z</time></trkpt><trkpt lat="43.369051214365875" lon="13.194937131738326"><ele>699.0</ele><time>2026-05-02T13:27:00Z</time></trkpt><trkpt lat="43.368958846508455" lon="13.194729201370007"><ele>699.0</ele><time>2026-05-02T13:27:01Z</time></trkpt><trkpt lat="43.368872097146046" lon="13.19452489409903"><ele>700.5</ele><time>2026-05-02T13:27:02Z</time></trkpt><trkpt lat="43.36878765012633" lon="13.194331292020784"><ele>702.0</ele><time>2026-05-02T13:27:03Z</time></trkpt><trkpt lat="43.36872018678714" lon="13.194176992651597"><ele>703.5</ele><time>2026-05-02T13:27:04Z</time></trkpt><trkpt lat="43.368661856299994" lon="13.194048537199453"><ele>705.0</ele><time>2026-05-02T13:27:05Z</time></trkpt><trkpt lat="43.36862123764939" lon="13.193949202424413"><ele>706.6</ele><time>2026-05-02T13:27:06Z</time></trkpt><trkpt lat="43.36856922073003" lon="13.193802557186228"><ele>708.2</ele><time>2026-05-02T13:27:08Z</time></trkpt><trkpt lat="43.368536936379606" lon="13.193723657244771"><ele>709.8</ele><time>2026-05-02T13:27:09Z</time></trkpt><trkpt lat="43.36842167959933" lon="13.193698160000752"><ele>711.4</ele><time>2026-05-02T13:27:10Z</time></trkpt><trkpt lat="43.36830993277535" lon="13.19364716553011"><ele>713.0</ele><time>2026-05-02T13:27:11Z</time></trkpt><trkpt lat="43.36818571222465" lon="13.19359546444914"><ele>713.0</ele><time>2026-05-02T13:27:12Z</time></trkpt><trkpt lat="43.36805667948575" lon="13.193573929092343"><ele>713.0</ele><time>2026-05-02T13:27:13Z</time></trkpt><trkpt lat="43.36793597899516" lon="13.193582687376662"><ele>713.0</ele><time>2026-05-02T13:27:14Z</time></trkpt><trkpt lat="43.36780792400833" lon="13.193671169936252"><ele>713.0</ele><time>2026-05-02T13:27:16Z</time></trkpt><trkpt lat="43.3676491327179" lon="13.193824866199751"><ele>715.3333333333333</ele><time>2026-05-02T13:27:17Z</time></trkpt><trkpt lat="43.36752516329314" lon="13.193974747316224"><ele>717.6666666666666</ele><time>2026-05-02T13:27:18Z</time></trkpt><trkpt lat="43.36743612813031" lon="13.194143249283504"><ele>720.0</ele><time>2026-05-02T13:27:19Z</time></trkpt><trkpt lat="43.36738586559661" lon="13.194334629716982"><ele>720.0</ele><time>2026-05-02T13:27:20Z</time></trkpt><trkpt lat="43.36734167731407" lon="13.194541658698638"><ele>720.0</ele><time>2026-05-02T13:27:21Z</time></trkpt><trkpt lat="43.36726222448749" lon="13.194751903418219"><ele>720.0</ele><time>2026-05-02T13:27:22Z</time></trkpt><trkpt lat="43.367169693555155" lon="13.19497461673958"><ele>721.6666666666666</ele><time>2026-05-02T13:27:23Z</time></trkpt><trkpt lat="43.3670601862274" lon="13.195226250689267"><ele>723.3333333333333</ele><time>2026-05-02T13:27:24Z</time></trkpt><trkpt lat="43.36694095492011" lon="13.195496457232156"><ele>725.0</ele><time>2026-05-02T13:27:25Z</time></trkpt><trkpt lat="43.36681469371535" lon="13.195756379462685"><ele>725.0</ele><time>2026-05-02T13:27:26Z</time></trkpt><trkpt lat="43.3666575531397" lon="13.196005034380953"><ele>725.0</ele><time>2026-05-02T13:27:27Z</time></trkpt><trkpt lat="43.36648249960642" lon="13.196279888181488"><ele>730.5</ele><time>2026-05-02T13:27:28Z</time></trkpt><trkpt lat="43.36630648638851" lon="13.196574930215904"><ele>736.0</ele><time>2026-05-02T13:27:29Z</time></trkpt><trkpt lat="43.36613505725054" lon="13.196865575855071"><ele>736.0</ele><time>2026-05-02T13:27:30Z</time></trkpt><trkpt lat="43.365967704110076" lon="13.197111089012914"><ele>736.0</ele><time>2026-05-02T13:27:31Z</time></trkpt><trkpt lat="43.36578874832318" lon="13.197352051853418"><ele>732.5</ele><time>2026-05-02T13:27:32Z</time></trkpt><trkpt lat="43.36559959673571" lon="13.19764002939498"><ele>729.0</ele><time>2026-05-02T13:27:33Z</time></trkpt><trkpt lat="43.36541070005817" lon="13.19791094865605"><ele>735.0</ele><time>2026-05-02T13:27:34Z</time></trkpt><trkpt lat="43.365238120030966" lon="13.198149343834352"><ele>741.0</ele><time>2026-05-02T13:27:35Z</time></trkpt><trkpt lat="43.36508772665921" lon="13.198388641125502"><ele>741.0</ele><time>2026-05-02T13:27:36Z</time></trkpt><trkpt lat="43.36495653572965" lon="13.198608630749584"><ele>741.0</ele><time>2026-05-02T13:27:37Z</time></trkpt><trkpt lat="43.36483797061141" lon="13.198807539280148"><ele>741.0</ele><time>2026-05-02T13:27:38Z</time></trkpt><trkpt lat="43.36475251698502" lon="13.199040646511868"><ele>744.6666666666666</ele><time>2026-05-02T13:27:39Z</time></trkpt><trkpt lat="43.36464756049108" lon="13.199303734783248"><ele>748.3333333333333</ele><time>2026-05-02T13:27:40Z</time></trkpt><trkpt lat="43.364520264507725" lon="13.199543162385389"><ele>752.0</ele><time>2026-05-02T13:27:41Z</time></trkpt><trkpt lat="43.3644228676917" lon="13.19971947872526"><ele>752.0</ele><time>2026-05-02T13:27:42Z</time></trkpt><trkpt lat="43.36434536159597" lon="13.199815232076944"><ele>752.0</ele><time>2026-05-02T13:27:43Z</time></trkpt><trkpt lat="43.36426133977041" lon="13.199878286298857"><ele>752.0</ele><time>2026-05-02T13:27:44Z</time></trkpt><trkpt lat="43.36417216541707" lon="13.199906129515526"><ele>752.0</ele><time>2026-05-02T13:27:45Z</time></trkpt><trkpt lat="43.36407138740338" lon="13.199899463808864"><ele>752.0</ele><time>2026-05-02T13:27:46Z</time></trkpt><trkpt lat="43.36397632556594" lon="13.199830366131536"><ele>752.0</ele><time>2026-05-02T13:27:47Z</time></trkpt><trkpt lat="43.36386849129581" lon="13.199753076622008"><ele>752.0</ele><time>2026-05-02T13:27:48Z</time></trkpt><trkpt lat="43.36376449645182" lon="13.199611918181988"><ele>752.0</ele><time>2026-05-02T13:27:49Z</time></trkpt><trkpt lat="43.3636467211311" lon="13.199448066045877"><ele>752.0</ele><time>2026-05-02T13:27:50Z</time></trkpt><trkpt lat="43.363518547267766" lon="13.19926356718751"><ele>751.3333333333333</ele><time>2026-05-02T13:27:51Z</time></trkpt><trkpt lat="43.36336249756965" lon="13.199083128111372"><ele>750.6666666666666</ele><time>2026-05-02T13:27:52Z</time></trkpt><trkpt lat="43.36318453233801" lon="13.198914115870675"><ele>750.0</ele><time>2026-05-02T13:27:53Z</time></trkpt><trkpt lat="43.36301353786173" lon="13.198775284069129"><ele>750.0</ele><time>2026-05-02T13:27:54Z</time></trkpt><trkpt lat="43.36278858877462" lon="13.198672873063426"><ele>750.0</ele><time>2026-05-02T13:27:55Z</time></trkpt><trkpt lat="43.362552922742786" lon="13.198592687410931"><ele>750.0</ele><time>2026-05-02T13:27:56Z</time></trkpt><trkpt lat="43.36229988023308" lon="13.19852202515648"><ele>750.0</ele><time>2026-05-02T13:27:57Z</time></trkpt><trkpt lat="43.36203805290284" lon="13.198450400315998"><ele>745.0</ele><time>2026-05-02T13:27:58Z</time></trkpt><trkpt lat="43.361763412997576" lon="13.19834123179743"><ele>740.0</ele><time>2026-05-02T13:27:59Z</time></trkpt><trkpt lat="43.36149215381794" lon="13.198255920415905"><ele>743.0</ele><time>2026-05-02T13:28:00Z</time></trkpt><trkpt lat="43.36124192269694" lon="13.198194419384825"><ele>746.0</ele><time>2026-05-02T13:28:01Z</time></trkpt><trkpt lat="43.36102337848611" lon="13.19811054744151"><ele>746.0</ele><time>2026-05-02T13:28:02Z</time></trkpt><trkpt lat="43.36080485017432" lon="13.198023025091688"><ele>746.0</ele><time>2026-05-02T13:28:03Z</time></trkpt><trkpt lat="43.360584329400645" lon="13.197922285596393"><ele>741.5</ele><time>2026-05-02T13:28:04Z</time></trkpt><trkpt lat="43.360352094290185" lon="13.197828199376875"><ele>737.0</ele><time>2026-05-02T13:28:05Z</time></trkpt><trkpt lat="43.36011613802872" lon="13.19774474648893"><ele>737.0</ele><time>2026-05-02T13:28:06Z</time></trkpt><trkpt lat="43.35988644604087" lon="13.19767323635196"><ele>737.0</ele><time>2026-05-02T13:28:07Z</time></trkpt><trkpt lat="43.35965343484053" lon="13.197601683397757"><ele>734.6666666666666</ele><time>2026-05-02T13:28:08Z</time></trkpt><trkpt lat="43.359431369688465" lon="13.19754183910779"><ele>732.3333333333334</ele><time>2026-05-02T13:28:09Z</time></trkpt><trkpt lat="43.359236294241285" lon="13.197490856031024"><ele>730.0</ele><time>2026-05-02T13:28:10Z</time></trkpt><trkpt lat="43.35904654120639" lon="13.19744461263649"><ele>728.0</ele><time>2026-05-02T13:28:11Z</time></trkpt><trkpt lat="43.35886287493609" lon="13.197403064372962"><ele>726.0</ele><time>2026-05-02T13:28:12Z</time></trkpt><trkpt lat="43.35869572901391" lon="13.197377344592567"><ele>724.0</ele><time>2026-05-02T13:28:13Z</time></trkpt><trkpt lat="43.35854824383921" lon="13.197385574119318"><ele>724.0</ele><time>2026-05-02T13:28:14Z</time></trkpt><trkpt lat="43.35837970262498" lon="13.19735090014801"><ele>724.0</ele><time>2026-05-02T13:28:15Z</time></trkpt><trkpt lat="43.35822581879501" lon="13.19734263156213"><ele>724.0</ele><time>2026-05-02T13:28:16Z</time></trkpt><trkpt lat="43.358088385880514" lon="13.197349078935613"><ele>723.5</ele><time>2026-05-02T13:28:17Z</time></trkpt><trkpt lat="43.357967453825786" lon="13.197341936051338"><ele>723.0</ele><time>2026-05-02T13:28:18Z</time></trkpt><trkpt lat="43.35785477447869" lon="13.197345291996895"><ele>722.5</ele><time>2026-05-02T13:28:19Z</time></trkpt><trkpt lat="43.357739114532095" lon="13.197356293045678"><ele>722.0</ele><time>2026-05-02T13:28:20Z</time></trkpt><trkpt lat="43.35760720939387" lon="13.197371823566852"><ele>722.0</ele><time>2026-05-02T13:28:21Z</time></trkpt><trkpt lat="43.357478735628646" lon="13.197401460347946"><ele>722.0</ele><time>2026-05-02T13:28:22Z</time></trkpt><trkpt lat="43.35735053533009" lon="13.197477937803034"><ele>722.0</ele><time>2026-05-02T13:28:23Z</time></trkpt><trkpt lat="43.35722439104878" lon="13.197608035773273"><ele>722.0</ele><time>2026-05-02T13:28:24Z</time></trkpt><trkpt lat="43.35710540276335" lon="13.197767433381099"><ele>723.5</ele><time>2026-05-02T13:28:25Z</time></trkpt><trkpt lat="43.35701848518787" lon="13.197927774515087"><ele>725.0</ele><time>2026-05-02T13:28:26Z</time></trkpt><trkpt lat="43.35696259671971" lon="13.198090561904316"><ele>726.5</ele><time>2026-05-02T13:28:27Z</time></trkpt><trkpt lat="43.35693639133427" lon="13.198266608785506"><ele>728.0</ele><time>2026-05-02T13:28:28Z</time></trkpt><trkpt lat="43.35692026876467" lon="13.198483810458482"><ele>728.0</ele><time>2026-05-02T13:28:29Z</time></trkpt><trkpt lat="43.3569001653907" lon="13.198678003051617"><ele>728.0</ele><time>2026-05-02T13:28:30Z</time></trkpt><trkpt lat="43.35688156625644" lon="13.198879485572332"><ele>728.0</ele><time>2026-05-02T13:28:31Z</time></trkpt><trkpt lat="43.35682316841842" lon="13.199067562991088"><ele>728.0</ele><time>2026-05-02T13:28:32Z</time></trkpt><trkpt lat="43.35675156419809" lon="13.199231589020329"><ele>727.0</ele><time>2026-05-02T13:28:33Z</time></trkpt><trkpt lat="43.356661334427216" lon="13.199386105334185"><ele>726.0</ele><time>2026-05-02T13:28:34Z</time></trkpt><trkpt lat="43.356574801186305" lon="13.199515945056898"><ele>725.0</ele><time>2026-05-02T13:28:35Z</time></trkpt><trkpt lat="43.356487268445804" lon="13.199622166618866"><ele>724.0</ele><time>2026-05-02T13:28:36Z</time></trkpt><trkpt lat="43.35640274847863" lon="13.199680438838369"><ele>724.75</ele><time>2026-05-02T13:28:37Z</time></trkpt><trkpt lat="43.35630750402316" lon="13.199668531923017"><ele>725.5</ele><time>2026-05-02T13:28:38Z</time></trkpt><trkpt lat="43.35620211412916" lon="13.199641843913131"><ele>726.25</ele><time>2026-05-02T13:28:39Z</time></trkpt><trkpt lat="43.35607120669813" lon="13.199640831407333"><ele>727.0</ele><time>2026-05-02T13:28:40Z</time></trkpt><trkpt lat="43.35591055580631" lon="13.199589779318565"><ele>727.0</ele><time>2026-05-02T13:28:41Z</time></trkpt><trkpt lat="43.355731326202644" lon="13.199536768056815"><ele>727.0</ele><time>2026-05-02T13:28:42Z</time></trkpt><trkpt lat="43.35555217873352" lon="13.199488195520386"><ele>727.0</ele><time>2026-05-02T13:28:43Z</time></trkpt><trkpt lat="43.35534083280016" lon="13.199416220986842"><ele>722.0</ele><time>2026-05-02T13:28:44Z</time></trkpt><trkpt lat="43.35513143581997" lon="13.199312009211079"><ele>717.0</ele><time>2026-05-02T13:28:45Z</time></trkpt><trkpt lat="43.354901059599584" lon="13.199166303267656"><ele>720.0</ele><time>2026-05-02T13:28:46Z</time></trkpt><trkpt lat="43.35466238672068" lon="13.198995464002678"><ele>723.0</ele><time>2026-05-02T13:28:47Z</time></trkpt><trkpt lat="43.35441664386472" lon="13.198818913983391"><ele>723.0</ele><time>2026-05-02T13:28:48Z</time></trkpt><trkpt lat="43.35416889933177" lon="13.198661896911931"><ele>723.0</ele><time>2026-05-02T13:28:49Z</time></trkpt><trkpt lat="43.35395051231237" lon="13.198530085568681"><ele>719.3333333333334</ele><time>2026-05-02T13:28:50Z</time></trkpt><trkpt lat="43.35375365318992" lon="13.19841157930808"><ele>715.6666666666667</ele><time>2026-05-02T13:28:51Z</time></trkpt><trkpt lat="43.35358151693508" lon="13.198322248604434"><ele>712.0</ele><time>2026-05-02T13:28:52Z</time></trkpt><trkpt lat="43.35341198949581" lon="13.198243365737632"><ele>712.0</ele><time>2026-05-02T13:28:53Z</time></trkpt><trkpt lat="43.353232923347115" lon="13.198217286909829"><ele>712.0</ele><time>2026-05-02T13:28:54Z</time></trkpt><trkpt lat="43.35303383939819" lon="13.198211948140445"><ele>712.0</ele><time>2026-05-02T13:28:55Z</time></trkpt><trkpt lat="43.35281659119233" lon="13.198237053146102"><ele>709.0</ele><time>2026-05-02T13:28:56Z</time></trkpt><trkpt lat="43.35257969399953" lon="13.198276493568493"><ele>706.0</ele><time>2026-05-02T13:28:57Z</time></trkpt><trkpt lat="43.35234726624631" lon="13.198315838381754"><ele>702.6666666666667</ele><time>2026-05-02T13:28:58Z</time></trkpt><trkpt lat="43.35212403551887" lon="13.198337031437823"><ele>699.3333333333334</ele><time>2026-05-02T13:28:59Z</time></trkpt><trkpt lat="43.35191799628931" lon="13.198326042069237"><ele>696.0</ele><time>2026-05-02T13:29:00Z</time></trkpt><trkpt lat="43.3517346746032" lon="13.198259949658878"><ele>696.0</ele><time>2026-05-02T13:29:01Z</time></trkpt><trkpt lat="43.35154717037288" lon="13.19819078698357"><ele>696.0</ele><time>2026-05-02T13:29:02Z</time></trkpt><trkpt lat="43.351344957616504" lon="13.198088394914272"><ele>696.0</ele><time>2026-05-02T13:29:03Z</time></trkpt><trkpt lat="43.35113743011646" lon="13.197950752979363"><ele>698.0</ele><time>2026-05-02T13:29:04Z</time></trkpt><trkpt lat="43.35092869350374" lon="13.197791547711926"><ele>700.0</ele><time>2026-05-02T13:29:05Z</time></trkpt><trkpt lat="43.35070030297029" lon="13.197619814427973"><ele>702.5</ele><time>2026-05-02T13:29:06Z</time></trkpt><trkpt lat="43.35045005628803" lon="13.197434256463632"><ele>705.0</ele><time>2026-05-02T13:29:07Z</time></trkpt><trkpt lat="43.35020414266003" lon="13.197242265461988"><ele>705.0</ele><time>2026-05-02T13:29:08Z</time></trkpt><trkpt lat="43.34999248648059" lon="13.19707087720197"><ele>705.0</ele><time>2026-05-02T13:29:09Z</time></trkpt><trkpt lat="43.349815751583336" lon="13.196932832610358"><ele>705.0</ele><time>2026-05-02T13:29:10Z</time></trkpt><trkpt lat="43.34965631101021" lon="13.196820585023234"><ele>701.75</ele><time>2026-05-02T13:29:11Z</time></trkpt><trkpt lat="43.34954531124044" lon="13.19674798451566"><ele>698.5</ele><time>2026-05-02T13:29:12Z</time></trkpt><trkpt lat="43.349456643365635" lon="13.196720840260125"><ele>695.25</ele><time>2026-05-02T13:29:13Z</time></trkpt><trkpt lat="43.34936635179924" lon="13.19664927107141"><ele>692.0</ele><time>2026-05-02T13:29:15Z</time></trkpt><trkpt lat="43.34934680853594" lon="13.1968520681943"><ele>692.0</ele><time>2026-05-02T13:29:20Z</time></trkpt><trkpt lat="43.349415950750675" lon="13.196930430225406"><ele>692.0</ele><time>2026-05-02T13:29:21Z</time></trkpt><trkpt lat="43.34950903857318" lon="13.197021168600871"><ele>692.0</ele><time>2026-05-02T13:29:22Z</time></trkpt><trkpt lat="43.34961006273633" lon="13.197109965016319"><ele>692.0</ele><time>2026-05-02T13:29:23Z</time></trkpt><trkpt lat="43.349715614983396" lon="13.197215026861876"><ele>691.25</ele><time>2026-05-02T13:29:24Z</time></trkpt><trkpt lat="43.34983215042476" lon="13.19733753645083"><ele>690.5</ele><time>2026-05-02T13:29:25Z</time></trkpt><trkpt lat="43.34994455807471" lon="13.197456996524135"><ele>689.75</ele><time>2026-05-02T13:29:26Z</time></trkpt><trkpt lat="43.350044807592425" lon="13.197544803813166"><ele>689.0</ele><time>2026-05-02T13:29:27Z</time></trkpt><trkpt lat="43.35012818730748" lon="13.197669523699163"><ele>689.0</ele><time>2026-05-02T13:29:28Z</time></trkpt><trkpt lat="43.350218219422906" lon="13.197775276287718"><ele>689.0</ele><time>2026-05-02T13:29:29Z</time></trkpt><trkpt lat="43.35030359027339" lon="13.197890502320858"><ele>689.0</ele><time>2026-05-02T13:29:30Z</time></trkpt><trkpt lat="43.35039276820038" lon="13.198008593436658"><ele>689.0</ele><time>2026-05-02T13:29:31Z</time></trkpt><trkpt lat="43.35048120100857" lon="13.198106247580405"><ele>687.0</ele><time>2026-05-02T13:29:32Z</time></trkpt><trkpt lat="43.35056721626769" lon="13.198201002726135"><ele>685.0</ele><time>2026-05-02T13:29:33Z</time></trkpt><trkpt lat="43.35065049144724" lon="13.198310467439912"><ele>683.0</ele><time>2026-05-02T13:29:34Z</time></trkpt><trkpt lat="43.35073136362764" lon="13.198403711296676"><ele>681.0</ele><time>2026-05-02T13:29:35Z</time></trkpt><trkpt lat="43.35080680037638" lon="13.198500958833439"><ele>679.0</ele><time>2026-05-02T13:29:36Z</time></trkpt><trkpt lat="43.350872351442995" lon="13.198558285489668"><ele>679.0</ele><time>2026-05-02T13:29:37Z</time></trkpt><trkpt lat="43.35092394819704" lon="13.198614135950503"><ele>679.0</ele><time>2026-05-02T13:29:38Z</time></trkpt><trkpt lat="43.350973831094606" lon="13.198668090519176"><ele>679.0</ele><time>2026-05-02T13:29:39Z</time></trkpt><trkpt lat="43.35102097388198" lon="13.198742990253352"><ele>679.0</ele><time>2026-05-02T13:29:41Z</time></trkpt><trkpt lat="43.35091922281511" lon="13.198719746834497"><ele>679.0</ele><time>2026-05-02T13:29:48Z</time></trkpt><trkpt lat="43.35081531392379" lon="13.198618957625222"><ele>679.0</ele><time>2026-05-02T13:29:49Z</time></trkpt><trkpt lat="43.350717456646976" lon="13.198517230523166"><ele>679.0</ele><time>2026-05-02T13:29:50Z</time></trkpt><trkpt lat="43.35059802512638" lon="13.19839307594345"><ele>679.0</ele><time>2026-05-02T13:29:51Z</time></trkpt><trkpt lat="43.35046710302152" lon="13.198256976400348"><ele>679.0</ele><time>2026-05-02T13:29:52Z</time></trkpt><trkpt lat="43.35031297953069" lon="13.19809675796743"><ele>684.0</ele><time>2026-05-02T13:29:53Z</time></trkpt><trkpt lat="43.35015065727896" lon="13.19792801649911"><ele>689.0</ele><time>2026-05-02T13:29:54Z</time></trkpt><trkpt lat="43.34997582543516" lon="13.197684408334938"><ele>689.0</ele><time>2026-05-02T13:29:55Z</time></trkpt><trkpt lat="43.349771798366476" lon="13.197456259832963"><ele>689.0</ele><time>2026-05-02T13:29:56Z</time></trkpt><trkpt lat="43.34954986906528" lon="13.197227255769178"><ele>690.5</ele><time>2026-05-02T13:29:57Z</time></trkpt><trkpt lat="43.34930878246009" lon="13.196974654853303"><ele>692.0</ele><time>2026-05-02T13:29:58Z</time></trkpt><trkpt lat="43.34904784518959" lon="13.19669977135445"><ele>693.0</ele><time>2026-05-02T13:29:59.016Z</time></trkpt><trkpt lat="43.34893566850233" lon="13.196221343379856"><ele>694.0</ele><time>2026-05-02T13:30:00.016Z</time></trkpt><trkpt lat="43.348843994969286" lon="13.19588455277517"><ele>681.5</ele><time>2026-05-02T13:30:01.02Z</time></trkpt><trkpt lat="43.34881591138507" lon="13.195587663337335"><ele>669.0</ele><time>2026-05-02T13:30:02.017Z</time></trkpt><trkpt lat="43.348721728731824" lon="13.195953640509586"><ele>669.0</ele><time>2026-05-02T13:30:03Z</time></trkpt><trkpt lat="43.34869954793056" lon="13.195304888202461"><ele>669.0</ele><time>2026-05-02T13:30:04Z</time></trkpt><trkpt lat="43.348639586046076" lon="13.19516227614626"><ele>669.0</ele><time>2026-05-02T13:30:05Z</time></trkpt><trkpt lat="43.34857360328178" lon="13.194972405459808"><ele>669.0</ele><time>2026-05-02T13:30:06Z</time></trkpt><trkpt lat="43.347695169286744" lon="13.194946202775046"><ele>660.0</ele><time>2026-05-02T13:30:07Z</time></trkpt><trkpt lat="43.347584297913414" lon="13.194796781227252"><ele>651.0</ele><time>2026-05-02T13:30:08Z</time></trkpt><trkpt lat="43.34745759180467" lon="13.194624431277896"><ele>642.0</ele><time>2026-05-02T13:30:09Z</time></trkpt><trkpt lat="43.34760947047219" lon="13.194399643436867"><ele>642.0</ele><time>2026-05-02T13:30:10Z</time></trkpt><trkpt lat="43.34760282852435" lon="13.194129074911713"><ele>642.0</ele><time>2026-05-02T13:30:11Z</time></trkpt><trkpt lat="43.34762677157386" lon="13.193829603556933"><ele>642.0</ele><time>2026-05-02T13:30:12Z</time></trkpt><trkpt lat="43.34767739731638" lon="13.193594159305217"><ele>640.3333333333334</ele><time>2026-05-02T13:30:13Z</time></trkpt><trkpt lat="43.34775661916116" lon="13.193378371385462"><ele>638.6666666666667</ele><time>2026-05-02T13:30:14Z</time></trkpt><trkpt lat="43.34789286764452" lon="13.193160399996495"><ele>637.0</ele><time>2026-05-02T13:30:15Z</time></trkpt><trkpt lat="43.3480836985389" lon="13.192937196655812"><ele>637.0</ele><time>2026-05-02T13:30:16Z</time></trkpt><trkpt lat="43.348306594575455" lon="13.192714877011536"><ele>637.0</ele><time>2026-05-02T13:30:17Z</time></trkpt><trkpt lat="43.348487647623706" lon="13.19255344253764"><ele>637.0</ele><time>2026-05-02T13:30:18Z</time></trkpt><trkpt lat="43.348664177907665" lon="13.192442955021113"><ele>637.0</ele><time>2026-05-02T13:30:19Z</time></trkpt><trkpt lat="43.34882766791333" lon="13.192358656462876"><ele>637.0</ele><time>2026-05-02T13:30:20Z</time></trkpt><trkpt lat="43.34898714789621" lon="13.192324281232075"><ele>635.4</ele><time>2026-05-02T13:30:21Z</time></trkpt><trkpt lat="43.34911921212447" lon="13.19230226002571"><ele>633.8000000000001</ele><time>2026-05-02T13:30:22Z</time></trkpt><trkpt lat="43.34922925119199" lon="13.192280301260594"><ele>632.2</ele><time>2026-05-02T13:30:23Z</time></trkpt><trkpt lat="43.34932353415643" lon="13.192247899918735"><ele>630.6</ele><time>2026-05-02T13:30:24Z</time></trkpt><trkpt lat="43.34938834010515" lon="13.192192590113725"><ele>629.0</ele><time>2026-05-02T13:30:25Z</time></trkpt><trkpt lat="43.34940110855899" lon="13.19209930736923"><ele>629.0</ele><time>2026-05-02T13:30:26Z</time></trkpt><trkpt lat="43.34938003474812" lon="13.192011631101176"><ele>629.0</ele><time>2026-05-02T13:30:27Z</time></trkpt><trkpt lat="43.34928830928039" lon="13.191973311941641"><ele>629.0</ele><time>2026-05-02T13:30:28Z</time></trkpt><trkpt lat="43.34916122961002" lon="13.192002788779911"><ele>629.0</ele><time>2026-05-02T13:30:29Z</time></trkpt><trkpt lat="43.349019776459464" lon="13.192091402678736"><ele>629.0</ele><time>2026-05-02T13:30:30Z</time></trkpt><trkpt lat="43.34885020350325" lon="13.19217551603415"><ele>626.5</ele><time>2026-05-02T13:30:31Z</time></trkpt><trkpt lat="43.34862314239492" lon="13.19219051640197"><ele>624.0</ele><time>2026-05-02T13:30:32Z</time></trkpt><trkpt lat="43.348398810682085" lon="13.192118290775833"><ele>624.0</ele><time>2026-05-02T13:30:33Z</time></trkpt><trkpt lat="43.348148746327986" lon="13.192073740035617"><ele>624.0</ele><time>2026-05-02T13:30:34Z</time></trkpt><trkpt lat="43.3478940755921" lon="13.19204693529547"><ele>620.6666666666666</ele><time>2026-05-02T13:30:35Z</time></trkpt><trkpt lat="43.34798785604898" lon="13.19205911449919"><ele>617.3333333333333</ele><time>2026-05-02T13:30:36Z</time></trkpt><trkpt lat="43.34783250433772" lon="13.192157099039788"><ele>614.0</ele><time>2026-05-02T13:30:37Z</time></trkpt><trkpt lat="43.34767939003955" lon="13.192319223800359"><ele>619.5</ele><time>2026-05-02T13:30:38Z</time></trkpt><trkpt lat="43.34748287636587" lon="13.19253947447115"><ele>625.0</ele><time>2026-05-02T13:30:39Z</time></trkpt><trkpt lat="43.34730627357892" lon="13.192743605081283"><ele>621.25</ele><time>2026-05-02T13:30:40Z</time></trkpt><trkpt lat="43.347197840404554" lon="13.192855162220388"><ele>617.5</ele><time>2026-05-02T13:30:41Z</time></trkpt><trkpt lat="43.347128956724156" lon="13.192934420530609"><ele>613.75</ele><time>2026-05-02T13:30:42Z</time></trkpt><trkpt lat="43.34705028720906" lon="13.192978687816998"><ele>610.0</ele><time>2026-05-02T13:30:44Z</time></trkpt><trkpt lat="43.3469821774154" lon="13.192802587983266"><ele>610.0</ele><time>2026-05-02T13:30:46Z</time></trkpt><trkpt lat="43.34688177228891" lon="13.192655032895429"><ele>610.0</ele><time>2026-05-02T13:30:47Z</time></trkpt><trkpt lat="43.34676549530424" lon="13.192499517928212"><ele>610.0</ele><time>2026-05-02T13:30:48Z</time></trkpt><trkpt lat="43.34660551458486" lon="13.192297101071537"><ele>607.6666666666667</ele><time>2026-05-02T13:30:49Z</time></trkpt><trkpt lat="43.346450280647396" lon="13.192125234893082"><ele>605.3333333333334</ele><time>2026-05-02T13:30:50Z</time></trkpt><trkpt lat="43.34632410706509" lon="13.191962351575896"><ele>603.0</ele><time>2026-05-02T13:30:51Z</time></trkpt><trkpt lat="43.346216757156355" lon="13.191827063247812"><ele>600.6</ele><time>2026-05-02T13:30:52Z</time></trkpt><trkpt lat="43.34616230732652" lon="13.191701126334474"><ele>598.1999999999999</ele><time>2026-05-02T13:30:53Z</time></trkpt><trkpt lat="43.34613255134385" lon="13.191587787678811"><ele>595.8</ele><time>2026-05-02T13:30:54Z</time></trkpt><trkpt lat="43.34615148145226" lon="13.19144601712617"><ele>593.4</ele><time>2026-05-02T13:30:55Z</time></trkpt><trkpt lat="43.34615734531997" lon="13.191239671064405"><ele>591.0</ele><time>2026-05-02T13:30:56Z</time></trkpt><trkpt lat="43.34615785605436" lon="13.191066399845594"><ele>589.5</ele><time>2026-05-02T13:30:57Z</time></trkpt><trkpt lat="43.34612972095604" lon="13.190965159724948"><ele>588.0</ele><time>2026-05-02T13:30:58Z</time></trkpt><trkpt lat="43.34608003230773" lon="13.190846435454418"><ele>586.5</ele><time>2026-05-02T13:30:59Z</time></trkpt><trkpt lat="43.34597704356806" lon="13.190743133739272"><ele>585.0</ele><time>2026-05-02T13:31:00Z</time></trkpt><trkpt lat="43.34581584524426" lon="13.190640265027382"><ele>581.25</ele><time>2026-05-02T13:31:01Z</time></trkpt><trkpt lat="43.34564534356634" lon="13.190515259694333"><ele>577.5</ele><time>2026-05-02T13:31:02Z</time></trkpt><trkpt lat="43.345525993674606" lon="13.190394974151655"><ele>573.75</ele><time>2026-05-02T13:31:03Z</time></trkpt><trkpt lat="43.34544055583766" lon="13.190312518202234"><ele>570.0</ele><time>2026-05-02T13:31:04Z</time></trkpt><trkpt lat="43.34536179453118" lon="13.190260637918612"><ele>569.0</ele><time>2026-05-02T13:31:05Z</time></trkpt><trkpt lat="43.345284205556645" lon="13.19023620467938"><ele>568.0</ele><time>2026-05-02T13:31:06Z</time></trkpt><trkpt lat="43.345210895334006" lon="13.19031943682556"><ele>567.0</ele><time>2026-05-02T13:31:07Z</time></trkpt><trkpt lat="43.34516094059956" lon="13.190380010594405"><ele>566.0</ele><time>2026-05-02T13:31:08Z</time></trkpt><trkpt lat="43.345068727548544" lon="13.190377079493647"><ele>565.0</ele><time>2026-05-02T13:31:10Z</time></trkpt><trkpt lat="43.345049612102876" lon="13.190290568220313"><ele>564.0</ele><time>2026-05-02T13:31:11Z</time></trkpt><trkpt lat="43.34510132834125" lon="13.190165118776235"><ele>564.0</ele><time>2026-05-02T13:31:12Z</time></trkpt><trkpt lat="43.34514163188404" lon="13.18999060929405"><ele>564.0</ele><time>2026-05-02T13:31:13Z</time></trkpt><trkpt lat="43.3452068645328" lon="13.189818356478396"><ele>564.0</ele><time>2026-05-02T13:31:14Z</time></trkpt><trkpt lat="43.34530160837416" lon="13.189707587358143"><ele>564.0</ele><time>2026-05-02T13:31:15Z</time></trkpt><trkpt lat="43.34540963878656" lon="13.189647002259234"><ele>563.0</ele><time>2026-05-02T13:31:16Z</time></trkpt><trkpt lat="43.34545682614393" lon="13.189581297309966"><ele>562.0</ele><time>2026-05-02T13:31:17Z</time></trkpt><trkpt lat="43.3455090177946" lon="13.189446907356276"><ele>561.0</ele><time>2026-05-02T13:31:19Z</time></trkpt><trkpt lat="43.345467482664674" lon="13.189301259933575"><ele>560.0</ele><time>2026-05-02T13:31:20Z</time></trkpt><trkpt lat="43.34543673668846" lon="13.189188404726089"><ele>559.0</ele><time>2026-05-02T13:31:21Z</time></trkpt><trkpt lat="43.345354010982184" lon="13.1891110513439"><ele>559.0</ele><time>2026-05-02T13:31:22Z</time></trkpt><trkpt lat="43.34526573631357" lon="13.189038351003491"><ele>559.0</ele><time>2026-05-02T13:31:24Z</time></trkpt><trkpt lat="43.3453374425605" lon="13.188869260162958"><ele>559.0</ele><time>2026-05-02T13:31:28Z</time></trkpt><trkpt lat="43.34538801937843" lon="13.188740927876141"><ele>559.0</ele><time>2026-05-02T13:31:29Z</time></trkpt><trkpt lat="43.34544109491634" lon="13.1886039193889"><ele>556.6666666666667</ele><time>2026-05-02T13:31:30Z</time></trkpt><trkpt lat="43.345463172507834" lon="13.188406858104424"><ele>554.3333333333334</ele><time>2026-05-02T13:31:31Z</time></trkpt><trkpt lat="43.34547443401165" lon="13.188200364006457"><ele>552.0</ele><time>2026-05-02T13:31:32Z</time></trkpt><trkpt lat="43.3454903072032" lon="13.187979251058183"><ele>548.0</ele><time>2026-05-02T13:31:33Z</time></trkpt><trkpt lat="43.34549191549786" lon="13.187723963911244"><ele>544.0</ele><time>2026-05-02T13:31:34Z</time></trkpt><trkpt lat="43.34547312292568" lon="13.18748148198546"><ele>540.0</ele><time>2026-05-02T13:31:35Z</time></trkpt><trkpt lat="43.34546093942584" lon="13.187266143211545"><ele>540.0</ele><time>2026-05-02T13:31:36Z</time></trkpt><trkpt lat="43.3454290021574" lon="13.187073359864794"><ele>540.0</ele><time>2026-05-02T13:31:37Z</time></trkpt><trkpt lat="43.34540472321132" lon="13.186889929894631"><ele>540.0</ele><time>2026-05-02T13:31:38Z</time></trkpt><trkpt lat="43.345362334788746" lon="13.186727314201978"><ele>540.0</ele><time>2026-05-02T13:31:39Z</time></trkpt><trkpt lat="43.3453186046237" lon="13.1865774395977"><ele>540.4</ele><time>2026-05-02T13:31:40Z</time></trkpt><trkpt lat="43.345274469398476" lon="13.186443386665799"><ele>540.8</ele><time>2026-05-02T13:31:41Z</time></trkpt><trkpt lat="43.34523255357416" lon="13.186326913321713"><ele>541.2</ele><time>2026-05-02T13:31:42Z</time></trkpt><trkpt lat="43.34518701552483" lon="13.186245092272731"><ele>541.6</ele><time>2026-05-02T13:31:43Z</time></trkpt><trkpt lat="43.34514060954304" lon="13.1861188958283"><ele>542.0</ele><time>2026-05-02T13:31:44Z</time></trkpt><trkpt lat="43.34510357937252" lon="13.186002411639588"><ele>542.0</ele><time>2026-05-02T13:31:45Z</time></trkpt><trkpt lat="43.345054690577264" lon="13.185888981138582"><ele>542.0</ele><time>2026-05-02T13:31:46Z</time></trkpt><trkpt lat="43.34500365793196" lon="13.185777692968216"><ele>542.0</ele><time>2026-05-02T13:31:47Z</time></trkpt><trkpt lat="43.344950972607656" lon="13.185670417155746"><ele>542.0</ele><time>2026-05-02T13:31:48Z</time></trkpt><trkpt lat="43.344887082947324" lon="13.185569753185597"><ele>542.0</ele><time>2026-05-02T13:31:49Z</time></trkpt><trkpt lat="43.34483013112974" lon="13.185446187737282"><ele>542.75</ele><time>2026-05-02T13:31:50Z</time></trkpt><trkpt lat="43.34475974468684" lon="13.185317772894265"><ele>543.5</ele><time>2026-05-02T13:31:51Z</time></trkpt><trkpt lat="43.3446824355688" lon="13.185186450250736"><ele>544.25</ele><time>2026-05-02T13:31:52Z</time></trkpt><trkpt lat="43.344573940045606" lon="13.185073845060046"><ele>545.0</ele><time>2026-05-02T13:31:53Z</time></trkpt><trkpt lat="43.34445130359849" lon="13.184977117866444"><ele>544.4</ele><time>2026-05-02T13:31:54Z</time></trkpt><trkpt lat="43.34435785111398" lon="13.184902337067145"><ele>543.8</ele><time>2026-05-02T13:31:55Z</time></trkpt><trkpt lat="43.34427881983803" lon="13.184829550084578"><ele>543.2</ele><time>2026-05-02T13:31:56Z</time></trkpt><trkpt lat="43.34419690443699" lon="13.184752751923913"><ele>542.6</ele><time>2026-05-02T13:31:57Z</time></trkpt><trkpt lat="43.34411342733854" lon="13.184657957193043"><ele>542.0</ele><time>2026-05-02T13:31:58Z</time></trkpt><trkpt lat="43.34403056575374" lon="13.18453123654471"><ele>542.0</ele><time>2026-05-02T13:31:59Z</time></trkpt><trkpt lat="43.343959937683785" lon="13.184399082500812"><ele>542.0</ele><time>2026-05-02T13:32:00Z</time></trkpt><trkpt lat="43.34390413861856" lon="13.18428191313138"><ele>542.0</ele><time>2026-05-02T13:32:01Z</time></trkpt><trkpt lat="43.34387069027405" lon="13.18419044274926"><ele>542.0</ele><time>2026-05-02T13:32:02Z</time></trkpt><trkpt lat="43.34384343174775" lon="13.184044669806937"><ele>542.0</ele><time>2026-05-02T13:32:04Z</time></trkpt><trkpt lat="43.34380598081426" lon="13.183930432052176"><ele>541.0</ele><time>2026-05-02T13:32:06Z</time></trkpt><trkpt lat="43.343829760757494" lon="13.183848640307028"><ele>540.0</ele><time>2026-05-02T13:32:07Z</time></trkpt><trkpt lat="43.34386513050213" lon="13.183758750919578"><ele>539.0</ele><time>2026-05-02T13:32:08Z</time></trkpt><trkpt lat="43.3439068258242" lon="13.183651714557108"><ele>538.0</ele><time>2026-05-02T13:32:09Z</time></trkpt><trkpt lat="43.34395976570867" lon="13.183532551395613"><ele>537.0</ele><time>2026-05-02T13:32:10Z</time></trkpt><trkpt lat="43.34401617766834" lon="13.183395230721793"><ele>536.0</ele><time>2026-05-02T13:32:11Z</time></trkpt><trkpt lat="43.34405663195648" lon="13.183220852260849"><ele>536.3333333333333</ele><time>2026-05-02T13:32:12Z</time></trkpt><trkpt lat="43.344059460595915" lon="13.18302880211976"><ele>536.6666666666666</ele><time>2026-05-02T13:32:13Z</time></trkpt><trkpt lat="43.34403126322686" lon="13.182815281024158"><ele>537.0</ele><time>2026-05-02T13:32:14Z</time></trkpt><trkpt lat="43.34399447635752" lon="13.182581265596331"><ele>537.0</ele><time>2026-05-02T13:32:15Z</time></trkpt><trkpt lat="43.34398134434534" lon="13.182334807075591"><ele>537.0</ele><time>2026-05-02T13:32:16Z</time></trkpt><trkpt lat="43.34393641318686" lon="13.182119641499728"><ele>537.0</ele><time>2026-05-02T13:32:17Z</time></trkpt><trkpt lat="43.34391547186471" lon="13.181912154201909"><ele>537.0</ele><time>2026-05-02T13:32:18Z</time></trkpt><trkpt lat="43.343901987552805" lon="13.181714606578787"><ele>537.0</ele><time>2026-05-02T13:32:19Z</time></trkpt><trkpt lat="43.34393159693221" lon="13.181537206737827"><ele>537.0</ele><time>2026-05-02T13:32:20Z</time></trkpt><trkpt lat="43.34396056993906" lon="13.181327013991096"><ele>537.0</ele><time>2026-05-02T13:32:21Z</time></trkpt><trkpt lat="43.34398351366909" lon="13.18110308866133"><ele>536.5</ele><time>2026-05-02T13:32:22Z</time></trkpt><trkpt lat="43.344012944107426" lon="13.180903696028302"><ele>536.0</ele><time>2026-05-02T13:32:23Z</time></trkpt><trkpt lat="43.344036376931676" lon="13.180731447240165"><ele>535.5</ele><time>2026-05-02T13:32:24Z</time></trkpt><trkpt lat="43.34405582484404" lon="13.180608148360179"><ele>535.0</ele><time>2026-05-02T13:32:25Z</time></trkpt><trkpt lat="43.344070710753826" lon="13.180478602373189"><ele>534.0</ele><time>2026-05-02T13:32:27Z</time></trkpt><trkpt lat="43.34409721678796" lon="13.18030191554161"><ele>533.0</ele><time>2026-05-02T13:32:29Z</time></trkpt><trkpt lat="43.34411752729317" lon="13.180162485214305"><ele>532.0</ele><time>2026-05-02T13:32:30Z</time></trkpt><trkpt lat="43.34412995688311" lon="13.179980126604331"><ele>531.0</ele><time>2026-05-02T13:32:31Z</time></trkpt><trkpt lat="43.344141040329106" lon="13.17976502290579"><ele>531.0</ele><time>2026-05-02T13:32:32Z</time></trkpt><trkpt lat="43.34412833790537" lon="13.179541044250525"><ele>531.0</ele><time>2026-05-02T13:32:33Z</time></trkpt><trkpt lat="43.34412552779656" lon="13.179357695999702"><ele>531.0</ele><time>2026-05-02T13:32:34Z</time></trkpt><trkpt lat="43.34414737340768" lon="13.17912780948263"><ele>530.5</ele><time>2026-05-02T13:32:35Z</time></trkpt><trkpt lat="43.34419465522969" lon="13.178978130398301"><ele>530.0</ele><time>2026-05-02T13:32:36Z</time></trkpt><trkpt lat="43.3443038320074" lon="13.178873316100592"><ele>529.5</ele><time>2026-05-02T13:32:37Z</time></trkpt><trkpt lat="43.34442643958397" lon="13.178774463220591"><ele>529.0</ele><time>2026-05-02T13:32:38Z</time></trkpt><trkpt lat="43.34454339282277" lon="13.178734427195286"><ele>529.0</ele><time>2026-05-02T13:32:39Z</time></trkpt><trkpt lat="43.34469599310505" lon="13.17866637562178"><ele>529.0</ele><time>2026-05-02T13:32:40Z</time></trkpt><trkpt lat="43.34486193569117" lon="13.178572883655036"><ele>529.0</ele><time>2026-05-02T13:32:41Z</time></trkpt><trkpt lat="43.34504771154776" lon="13.178505737349006"><ele>528.6666666666667</ele><time>2026-05-02T13:32:42Z</time></trkpt><trkpt lat="43.34524293509533" lon="13.1784206367367"><ele>528.3333333333334</ele><time>2026-05-02T13:32:43Z</time></trkpt><trkpt lat="43.34543920918117" lon="13.17834334897682"><ele>528.0</ele><time>2026-05-02T13:32:44Z</time></trkpt><trkpt lat="43.3456042402617" lon="13.178278367037567"><ele>528.0</ele><time>2026-05-02T13:32:45Z</time></trkpt><trkpt lat="43.345750866579415" lon="13.178234527962442"><ele>528.0</ele><time>2026-05-02T13:32:46Z</time></trkpt><trkpt lat="43.34586848789477" lon="13.178226104178455"><ele>528.0</ele><time>2026-05-02T13:32:47Z</time></trkpt><trkpt lat="43.34597824487201" lon="13.178253816476971"><ele>528.0</ele><time>2026-05-02T13:32:48Z</time></trkpt><trkpt lat="43.346059427403056" lon="13.178354398778312"><ele>528.0</ele><time>2026-05-02T13:32:49Z</time></trkpt><trkpt lat="43.34611816042084" lon="13.178524189074572"><ele>528.0</ele><time>2026-05-02T13:32:50Z</time></trkpt><trkpt lat="43.34619855214196" lon="13.178645995415353"><ele>528.0</ele><time>2026-05-02T13:32:51Z</time></trkpt><trkpt lat="43.34628910953908" lon="13.17870855714119"><ele>528.0</ele><time>2026-05-02T13:32:52Z</time></trkpt><trkpt lat="43.34642175735285" lon="13.178721398429941"><ele>525.0</ele><time>2026-05-02T13:32:53Z</time></trkpt><trkpt lat="43.3465710266346" lon="13.1786591355749"><ele>522.0</ele><time>2026-05-02T13:32:54Z</time></trkpt><trkpt lat="43.34672222457877" lon="13.178558590761911"><ele>519.0</ele><time>2026-05-02T13:32:55Z</time></trkpt><trkpt lat="43.34689325829409" lon="13.178434378745786"><ele>519.0</ele><time>2026-05-02T13:32:56Z</time></trkpt><trkpt lat="43.3470608539089" lon="13.178302663789218"><ele>519.0</ele><time>2026-05-02T13:32:57Z</time></trkpt><trkpt lat="43.34720573911759" lon="13.178110572864195"><ele>519.0</ele><time>2026-05-02T13:32:58Z</time></trkpt><trkpt lat="43.34734477604614" lon="13.177878738927307"><ele>516.75</ele><time>2026-05-02T13:32:59Z</time></trkpt><trkpt lat="43.347440029869375" lon="13.177683741280358"><ele>514.5</ele><time>2026-05-02T13:33:00Z</time></trkpt><trkpt lat="43.34751932044758" lon="13.177567944708501"><ele>512.25</ele><time>2026-05-02T13:33:01Z</time></trkpt><trkpt lat="43.34760953768766" lon="13.177463198025455"><ele>510.0</ele><time>2026-05-02T13:33:02Z</time></trkpt><trkpt lat="43.3477291523709" lon="13.177403472086318"><ele>510.0</ele><time>2026-05-02T13:33:03Z</time></trkpt><trkpt lat="43.34787194122329" lon="13.177401012943523"><ele>510.0</ele><time>2026-05-02T13:33:04Z</time></trkpt><trkpt lat="43.34799931491799" lon="13.17743222894971"><ele>510.0</ele><time>2026-05-02T13:33:05Z</time></trkpt><trkpt lat="43.34810029202276" lon="13.177411364378857"><ele>510.0</ele><time>2026-05-02T13:33:06Z</time></trkpt><trkpt lat="43.34817923203426" lon="13.177296636313688"><ele>507.2</ele><time>2026-05-02T13:33:07Z</time></trkpt><trkpt lat="43.348231465855655" lon="13.177155838651416"><ele>504.4</ele><time>2026-05-02T13:33:08Z</time></trkpt><trkpt lat="43.3482628951713" lon="13.176984056459489"><ele>501.6</ele><time>2026-05-02T13:33:09Z</time></trkpt><trkpt lat="43.3482988510276" lon="13.176859507303933"><ele>498.8</ele><time>2026-05-02T13:33:10Z</time></trkpt><trkpt lat="43.34837623961805" lon="13.176766602457786"><ele>496.0</ele><time>2026-05-02T13:33:11Z</time></trkpt><trkpt lat="43.348488238958524" lon="13.176721970906778"><ele>496.0</ele><time>2026-05-02T13:33:12Z</time></trkpt><trkpt lat="43.348610495900175" lon="13.176734073916766"><ele>496.0</ele><time>2026-05-02T13:33:13Z</time></trkpt><trkpt lat="43.348755540455805" lon="13.176762783565517"><ele>496.0</ele><time>2026-05-02T13:33:14Z</time></trkpt><trkpt lat="43.348892145771515" lon="13.176762086613204"><ele>496.0</ele><time>2026-05-02T13:33:15Z</time></trkpt><trkpt lat="43.34899724246938" lon="13.17673097540803"><ele>497.25</ele><time>2026-05-02T13:33:16Z</time></trkpt><trkpt lat="43.34907476085579" lon="13.176654389132867"><ele>498.5</ele><time>2026-05-02T13:33:17Z</time></trkpt><trkpt lat="43.34913808116456" lon="13.17652601053806"><ele>499.75</ele><time>2026-05-02T13:33:18Z</time></trkpt><trkpt lat="43.34917768631851" lon="13.176345268036085"><ele>501.0</ele><time>2026-05-02T13:33:19Z</time></trkpt><trkpt lat="43.34921995567873" lon="13.17614537662946"><ele>496.0</ele><time>2026-05-02T13:33:20Z</time></trkpt><trkpt lat="43.34931526554848" lon="13.176010644420797"><ele>491.0</ele><time>2026-05-02T13:33:21Z</time></trkpt><trkpt lat="43.34942271486893" lon="13.175873492941468"><ele>486.0</ele><time>2026-05-02T13:33:22Z</time></trkpt><trkpt lat="43.34955485399775" lon="13.175712381462082"><ele>484.0</ele><time>2026-05-02T13:33:23Z</time></trkpt><trkpt lat="43.34970143084027" lon="13.175537941806217"><ele>482.0</ele><time>2026-05-02T13:33:24Z</time></trkpt><trkpt lat="43.34982185660492" lon="13.175389304923476"><ele>480.0</ele><time>2026-05-02T13:33:25Z</time></trkpt><trkpt lat="43.349917052621514" lon="13.175278618075616"><ele>480.0</ele><time>2026-05-02T13:33:26Z</time></trkpt><trkpt lat="43.35000166165244" lon="13.175218340129295"><ele>480.0</ele><time>2026-05-02T13:33:27Z</time></trkpt><trkpt lat="43.350105684119036" lon="13.175233790259592"><ele>480.0</ele><time>2026-05-02T13:33:28Z</time></trkpt><trkpt lat="43.35021674531638" lon="13.175232502090552"><ele>480.0</ele><time>2026-05-02T13:33:29Z</time></trkpt><trkpt lat="43.350313129305526" lon="13.175211157128135"><ele>480.0</ele><time>2026-05-02T13:33:30Z</time></trkpt><trkpt lat="43.35039756684539" lon="13.175118623033562"><ele>480.0</ele><time>2026-05-02T13:33:31Z</time></trkpt><trkpt lat="43.350463082654834" lon="13.174967329249151"><ele>480.0</ele><time>2026-05-02T13:33:32Z</time></trkpt><trkpt lat="43.35054579810572" lon="13.174802252987488"><ele>480.0</ele><time>2026-05-02T13:33:33Z</time></trkpt><trkpt lat="43.35064294998886" lon="13.174670384432233"><ele>480.0</ele><time>2026-05-02T13:33:34Z</time></trkpt><trkpt lat="43.35075612346868" lon="13.174583775298174"><ele>475.66666666666663</ele><time>2026-05-02T13:33:35Z</time></trkpt><trkpt lat="43.35089636229438" lon="13.174555788050625"><ele>471.3333333333333</ele><time>2026-05-02T13:33:36Z</time></trkpt><trkpt lat="43.35105157782932" lon="13.174533444883718"><ele>467.0</ele><time>2026-05-02T13:33:37Z</time></trkpt><trkpt lat="43.35123792155468" lon="13.174495819376322"><ele>467.0</ele><time>2026-05-02T13:33:38Z</time></trkpt><trkpt lat="43.35140152487772" lon="13.17445591208224"><ele>467.0</ele><time>2026-05-02T13:33:39Z</time></trkpt><trkpt lat="43.35156999730977" lon="13.17436734014647"><ele>467.0</ele><time>2026-05-02T13:33:40Z</time></trkpt><trkpt lat="43.35172921348603" lon="13.174238692090416"><ele>467.0</ele><time>2026-05-02T13:33:41Z</time></trkpt><trkpt lat="43.35188440824497" lon="13.174075276061457"><ele>467.0</ele><time>2026-05-02T13:33:42Z</time></trkpt><trkpt lat="43.35202353642113" lon="13.173898483980453"><ele>467.0</ele><time>2026-05-02T13:33:43Z</time></trkpt><trkpt lat="43.35214571494305" lon="13.173748871864614"><ele>465.0</ele><time>2026-05-02T13:33:44Z</time></trkpt><trkpt lat="43.35225836420899" lon="13.17357299422077"><ele>463.0</ele><time>2026-05-02T13:33:45Z</time></trkpt><trkpt lat="43.3523626161875" lon="13.173382422056275"><ele>461.0</ele><time>2026-05-02T13:33:46Z</time></trkpt><trkpt lat="43.35245290742707" lon="13.173211751241869"><ele>459.0</ele><time>2026-05-02T13:33:47Z</time></trkpt><trkpt lat="43.35254739866951" lon="13.173026702449782"><ele>457.0</ele><time>2026-05-02T13:33:48Z</time></trkpt><trkpt lat="43.352602420781785" lon="13.172852446169456"><ele>455.0</ele><time>2026-05-02T13:33:49Z</time></trkpt><trkpt lat="43.35262438045628" lon="13.172650517913397"><ele>455.0</ele><time>2026-05-02T13:33:50Z</time></trkpt><trkpt lat="43.35263356317233" lon="13.172439934149748"><ele>455.0</ele><time>2026-05-02T13:33:51Z</time></trkpt><trkpt lat="43.35264941191645" lon="13.17222629107074"><ele>455.0</ele><time>2026-05-02T13:33:52Z</time></trkpt><trkpt lat="43.352669741842966" lon="13.172034011455517"><ele>454.25</ele><time>2026-05-02T13:33:53Z</time></trkpt><trkpt lat="43.35267120193354" lon="13.171862285279675"><ele>453.5</ele><time>2026-05-02T13:33:54Z</time></trkpt><trkpt lat="43.352645993548094" lon="13.171706589465952"><ele>452.75</ele><time>2026-05-02T13:33:55Z</time></trkpt><trkpt lat="43.35258562968153" lon="13.17154679596111"><ele>452.0</ele><time>2026-05-02T13:33:56Z</time></trkpt><trkpt lat="43.35248909158186" lon="13.171395329727876"><ele>451.3333333333333</ele><time>2026-05-02T13:33:57Z</time></trkpt><trkpt lat="43.3523588037745" lon="13.17125158498476"><ele>450.66666666666663</ele><time>2026-05-02T13:33:58Z</time></trkpt><trkpt lat="43.352229421033954" lon="13.171062819416887"><ele>450.0</ele><time>2026-05-02T13:33:59Z</time></trkpt><trkpt lat="43.35210104591741" lon="13.17083101701289"><ele>446.0</ele><time>2026-05-02T13:34:00Z</time></trkpt><trkpt lat="43.35197666566166" lon="13.170640264854857"><ele>442.0</ele><time>2026-05-02T13:34:01Z</time></trkpt><trkpt lat="43.35190839511552" lon="13.17050110420133"><ele>438.0</ele><time>2026-05-02T13:34:02Z</time></trkpt><trkpt lat="43.35181167072738" lon="13.170347743384916"><ele>438.0</ele><time>2026-05-02T13:34:03Z</time></trkpt><trkpt lat="43.351781597928486" lon="13.170177703415748"><ele>438.0</ele><time>2026-05-02T13:34:04Z</time></trkpt><trkpt lat="43.351751369773424" lon="13.169977565365041"><ele>438.0</ele><time>2026-05-02T13:34:05Z</time></trkpt><trkpt lat="43.351699631266214" lon="13.169718924941689"><ele>437.0</ele><time>2026-05-02T13:34:06Z</time></trkpt><trkpt lat="43.35164146216403" lon="13.169459952244111"><ele>436.0</ele><time>2026-05-02T13:34:07Z</time></trkpt><trkpt lat="43.35154995545635" lon="13.16919743507031"><ele>435.0</ele><time>2026-05-02T13:34:08Z</time></trkpt><trkpt lat="43.35146552479232" lon="13.168998396684762"><ele>433.5</ele><time>2026-05-02T13:34:09Z</time></trkpt><trkpt lat="43.351407615823206" lon="13.168806220567745"><ele>432.0</ele><time>2026-05-02T13:34:10Z</time></trkpt><trkpt lat="43.35138514411272" lon="13.168614328671726"><ele>430.5</ele><time>2026-05-02T13:34:11Z</time></trkpt><trkpt lat="43.35140104377117" lon="13.168429893738072"><ele>429.0</ele><time>2026-05-02T13:34:12Z</time></trkpt><trkpt lat="43.35136940051755" lon="13.168261788641617"><ele>430.0</ele><time>2026-05-02T13:34:13Z</time></trkpt><trkpt lat="43.35129974682359" lon="13.16807496656121"><ele>431.0</ele><time>2026-05-02T13:34:14Z</time></trkpt><trkpt lat="43.351212117894526" lon="13.167876300974905"><ele>432.0</ele><time>2026-05-02T13:34:15Z</time></trkpt><trkpt lat="43.351184234890965" lon="13.16767964252839"><ele>432.0</ele><time>2026-05-02T13:34:16Z</time></trkpt><trkpt lat="43.35117302941356" lon="13.167444743384175"><ele>432.0</ele><time>2026-05-02T13:34:17Z</time></trkpt><trkpt lat="43.351156050653664" lon="13.167243155348816"><ele>432.0</ele><time>2026-05-02T13:34:18Z</time></trkpt><trkpt lat="43.35113084707409" lon="13.167073561654867"><ele>432.0</ele><time>2026-05-02T13:34:19Z</time></trkpt><trkpt lat="43.35110515881608" lon="13.1669228156862"><ele>429.5</ele><time>2026-05-02T13:34:20Z</time></trkpt><trkpt lat="43.35102982412156" lon="13.166797155267098"><ele>427.0</ele><time>2026-05-02T13:34:21Z</time></trkpt><trkpt lat="43.35092356299455" lon="13.166689757449298"><ele>424.5</ele><time>2026-05-02T13:34:22Z</time></trkpt><trkpt lat="43.35079744201716" lon="13.166579498376406"><ele>422.0</ele><time>2026-05-02T13:34:23Z</time></trkpt><trkpt lat="43.35071933899036" lon="13.166470586840555"><ele>416.3333333333333</ele><time>2026-05-02T13:34:24Z</time></trkpt><trkpt lat="43.35061255238028" lon="13.166283745899333"><ele>410.66666666666663</ele><time>2026-05-02T13:34:25Z</time></trkpt><trkpt lat="43.3505958915699" lon="13.166071991835942"><ele>405.0</ele><time>2026-05-02T13:34:26Z</time></trkpt><trkpt lat="43.3505626078161" lon="13.165893676420263"><ele>406.25</ele><time>2026-05-02T13:34:27Z</time></trkpt><trkpt lat="43.350518296203106" lon="13.165742137423646"><ele>407.5</ele><time>2026-05-02T13:34:28Z</time></trkpt><trkpt lat="43.35044121225822" lon="13.165626268123019"><ele>408.75</ele><time>2026-05-02T13:34:29Z</time></trkpt><trkpt lat="43.350338550281926" lon="13.165539182155845"><ele>410.0</ele><time>2026-05-02T13:34:30Z</time></trkpt><trkpt lat="43.350230998153975" lon="13.165464563113932"><ele>410.0</ele><time>2026-05-02T13:34:31Z</time></trkpt><trkpt lat="43.35016134921173" lon="13.165382341978313"><ele>410.0</ele><time>2026-05-02T13:34:32Z</time></trkpt><trkpt lat="43.35012462650997" lon="13.165247206253277"><ele>410.0</ele><time>2026-05-02T13:34:33Z</time></trkpt><trkpt lat="43.35013341666301" lon="13.165108929517233"><ele>410.0</ele><time>2026-05-02T13:34:34Z</time></trkpt><trkpt lat="43.3501433603659" lon="13.164915758422005"><ele>410.0</ele><time>2026-05-02T13:34:35Z</time></trkpt><trkpt lat="43.35014908766066" lon="13.164736483769387"><ele>406.0</ele><time>2026-05-02T13:34:36Z</time></trkpt><trkpt lat="43.35010035223458" lon="13.164540737174766"><ele>402.0</ele><time>2026-05-02T13:34:37Z</time></trkpt><trkpt lat="43.35002895734513" lon="13.164337212664167"><ele>398.0</ele><time>2026-05-02T13:34:38Z</time></trkpt><trkpt lat="43.349966390568255" lon="13.164133764077006"><ele>396.0</ele><time>2026-05-02T13:34:39Z</time></trkpt><trkpt lat="43.34990615706384" lon="13.163971935070329"><ele>394.0</ele><time>2026-05-02T13:34:40Z</time></trkpt><trkpt lat="43.34987876218201" lon="13.163789632863985"><ele>392.0</ele><time>2026-05-02T13:34:41Z</time></trkpt><trkpt lat="43.34989154809739" lon="13.163587168222033"><ele>390.0</ele><time>2026-05-02T13:34:42Z</time></trkpt><trkpt lat="43.34988238673054" lon="13.163409266703217"><ele>387.5</ele><time>2026-05-02T13:34:43Z</time></trkpt><trkpt lat="43.349849039883615" lon="13.162884550725053"><ele>385.0</ele><time>2026-05-02T13:34:44Z</time></trkpt><trkpt lat="43.34984112406731" lon="13.162627556420032"><ele>383.33333333333337</ele><time>2026-05-02T13:34:45Z</time></trkpt><trkpt lat="43.3498318964713" lon="13.16236087642851"><ele>381.6666666666667</ele><time>2026-05-02T13:34:46Z</time></trkpt><trkpt lat="43.34979692681613" lon="13.162084969754964"><ele>380.0</ele><time>2026-05-02T13:34:47Z</time></trkpt><trkpt lat="43.349755635997845" lon="13.161780627022498"><ele>383.33333333333337</ele><time>2026-05-02T13:34:48Z</time></trkpt><trkpt lat="43.34970679654202" lon="13.161492922975556"><ele>386.6666666666667</ele><time>2026-05-02T13:34:49Z</time></trkpt><trkpt lat="43.349686315052985" lon="13.161233580424023"><ele>390.0</ele><time>2026-05-02T13:34:50Z</time></trkpt><trkpt lat="43.34964921997079" lon="13.160992302237407"><ele>390.0</ele><time>2026-05-02T13:34:51Z</time></trkpt><trkpt lat="43.34960301257866" lon="13.160775857746554"><ele>390.0</ele><time>2026-05-02T13:34:52Z</time></trkpt><trkpt lat="43.34960285296275" lon="13.160594653928392"><ele>390.0</ele><time>2026-05-02T13:34:53Z</time></trkpt><trkpt lat="43.349626823924986" lon="13.160428574132881"><ele>390.0</ele><time>2026-05-02T13:34:54Z</time></trkpt><trkpt lat="43.34967098139856" lon="13.16022727616159"><ele>384.75</ele><time>2026-05-02T13:34:55Z</time></trkpt><trkpt lat="43.34973245645097" lon="13.160007018621412"><ele>379.5</ele><time>2026-05-02T13:34:56Z</time></trkpt><trkpt lat="43.34980128974152" lon="13.159824689703912"><ele>374.25</ele><time>2026-05-02T13:34:57Z</time></trkpt><trkpt lat="43.349848049755394" lon="13.159675758278826"><ele>369.0</ele><time>2026-05-02T13:34:58Z</time></trkpt><trkpt lat="43.34987029677408" lon="13.159544627678823"><ele>368.4</ele><time>2026-05-02T13:34:59Z</time></trkpt><trkpt lat="43.3498945817905" lon="13.15941572980335"><ele>367.79999999999995</ele><time>2026-05-02T13:35:00Z</time></trkpt><trkpt lat="43.34988822134523" lon="13.159263174920545"><ele>367.20000000000005</ele><time>2026-05-02T13:35:01Z</time></trkpt><trkpt lat="43.34984796854718" lon="13.159151332013629"><ele>366.6</ele><time>2026-05-02T13:35:02Z</time></trkpt><trkpt lat="43.34975968094722" lon="13.159042820251912"><ele>366.0</ele><time>2026-05-02T13:35:03Z</time></trkpt><trkpt lat="43.34966196289795" lon="13.158970029284582"><ele>368.0</ele><time>2026-05-02T13:35:04Z</time></trkpt><trkpt lat="43.34952058786173" lon="13.158983958826804"><ele>370.0</ele><time>2026-05-02T13:35:05Z</time></trkpt><trkpt lat="43.34933876692059" lon="13.15902045331014"><ele>372.0</ele><time>2026-05-02T13:35:06Z</time></trkpt><trkpt lat="43.349161008029874" lon="13.159037587995106"><ele>367.5</ele><time>2026-05-02T13:35:07Z</time></trkpt><trkpt lat="43.348992648239694" lon="13.159005497810336"><ele>363.0</ele><time>2026-05-02T13:35:08Z</time></trkpt><trkpt lat="43.348849635360516" lon="13.158967847060763"><ele>358.5</ele><time>2026-05-02T13:35:09Z</time></trkpt><trkpt lat="43.348754943635" lon="13.15894143405735"><ele>354.0</ele><time>2026-05-02T13:35:10Z</time></trkpt><trkpt lat="43.34863954074492" lon="13.158925301892138"><ele>352.8333333333333</ele><time>2026-05-02T13:35:11Z</time></trkpt><trkpt lat="43.34857464592158" lon="13.158889600539567"><ele>351.6666666666667</ele><time>2026-05-02T13:35:12Z</time></trkpt><trkpt lat="43.34852437883065" lon="13.158837185093061"><ele>350.5</ele><time>2026-05-02T13:35:14Z</time></trkpt><trkpt lat="43.34855227804158" lon="13.15875738717112"><ele>349.33333333333337</ele><time>2026-05-02T13:35:27Z</time></trkpt><trkpt lat="43.348672397417594" lon="13.1587201791338"><ele>348.1666666666667</ele><time>2026-05-02T13:35:29Z</time></trkpt><trkpt lat="43.34877691600234" lon="13.158685375960086"><ele>347.0</ele><time>2026-05-02T13:35:30Z</time></trkpt><trkpt lat="43.348854379553934" lon="13.158637787253191"><ele>346.0</ele><time>2026-05-02T13:35:31Z</time></trkpt><trkpt lat="43.34891466136217" lon="13.158560261853852"><ele>345.0</ele><time>2026-05-02T13:35:32Z</time></trkpt><trkpt lat="43.34899411228362" lon="13.158484678871634"><ele>344.0</ele><time>2026-05-02T13:35:33Z</time></trkpt><trkpt lat="43.349033401946656" lon="13.15832165109164"><ele>343.0</ele><time>2026-05-02T13:35:34Z</time></trkpt><trkpt lat="43.349065363468306" lon="13.158182943714811"><ele>342.0</ele><time>2026-05-02T13:35:35Z</time></trkpt><trkpt lat="43.34906593129991" lon="13.158034566530374"><ele>342.0</ele><time>2026-05-02T13:35:36Z</time></trkpt><trkpt lat="43.34903129492425" lon="13.157869862459753"><ele>342.0</ele><time>2026-05-02T13:35:37Z</time></trkpt><trkpt lat="43.34897958703827" lon="13.157676690292282"><ele>342.0</ele><time>2026-05-02T13:35:38Z</time></trkpt><trkpt lat="43.348930760660515" lon="13.157472102249159"><ele>342.0</ele><time>2026-05-02T13:35:39Z</time></trkpt><trkpt lat="43.348891325776" lon="13.15725824918463"><ele>339.0</ele><time>2026-05-02T13:35:40Z</time></trkpt><trkpt lat="43.34885346715597" lon="13.157056034329754"><ele>336.0</ele><time>2026-05-02T13:35:41Z</time></trkpt><trkpt lat="43.34883175166804" lon="13.15685269937382"><ele>333.0</ele><time>2026-05-02T13:35:42Z</time></trkpt><trkpt lat="43.34882595081627" lon="13.156633869475971"><ele>332.6666666666667</ele><time>2026-05-02T13:35:43Z</time></trkpt><trkpt lat="43.3488339084254" lon="13.15637633252319"><ele>332.33333333333337</ele><time>2026-05-02T13:35:44Z</time></trkpt><trkpt lat="43.34886106689874" lon="13.156137977226805"><ele>332.0</ele><time>2026-05-02T13:35:45Z</time></trkpt><trkpt lat="43.34891845566655" lon="13.155873963676592"><ele>333.0</ele><time>2026-05-02T13:35:46Z</time></trkpt><trkpt lat="43.348992195380106" lon="13.155593704317878"><ele>334.0</ele><time>2026-05-02T13:35:47Z</time></trkpt><trkpt lat="43.34907171352178" lon="13.155305583421152"><ele>335.0</ele><time>2026-05-02T13:35:48Z</time></trkpt><trkpt lat="43.349131035595775" lon="13.15503742389456"><ele>337.6666666666667</ele><time>2026-05-02T13:35:49Z</time></trkpt><trkpt lat="43.349215331211894" lon="13.154813230134382"><ele>340.3333333333333</ele><time>2026-05-02T13:35:50Z</time></trkpt><trkpt lat="43.34929071318094" lon="13.154614418510018"><ele>343.0</ele><time>2026-05-02T13:35:51Z</time></trkpt><trkpt lat="43.349379435897255" lon="13.15444570390413"><ele>343.0</ele><time>2026-05-02T13:35:52Z</time></trkpt><trkpt lat="43.349491806187054" lon="13.154296880459514"><ele>343.0</ele><time>2026-05-02T13:35:53Z</time></trkpt><trkpt lat="43.349632751257126" lon="13.154167074502112"><ele>343.0</ele><time>2026-05-02T13:35:54Z</time></trkpt><trkpt lat="43.34978517768855" lon="13.154064697159994"><ele>348.66666666666663</ele><time>2026-05-02T13:35:55Z</time></trkpt><trkpt lat="43.34994466675193" lon="13.154001095790296"><ele>354.3333333333333</ele><time>2026-05-02T13:35:56Z</time></trkpt><trkpt lat="43.35010611682874" lon="13.153962387301718"><ele>360.0</ele><time>2026-05-02T13:35:57Z</time></trkpt><trkpt lat="43.35025246376987" lon="13.153933439030359"><ele>360.0</ele><time>2026-05-02T13:35:58Z</time></trkpt><trkpt lat="43.350374891971285" lon="13.153929392906477"><ele>360.0</ele><time>2026-05-02T13:35:59Z</time></trkpt><trkpt lat="43.35047694174209" lon="13.15388983017041"><ele>360.0</ele><time>2026-05-02T13:36:00Z</time></trkpt><trkpt lat="43.35055148527868" lon="13.153833667165438"><ele>360.0</ele><time>2026-05-02T13:36:01Z</time></trkpt><trkpt lat="43.350596563532655" lon="13.153742968018584"><ele>360.0</ele><time>2026-05-02T13:36:02Z</time></trkpt><trkpt lat="43.350631902612335" lon="13.15363267428826"><ele>360.0</ele><time>2026-05-02T13:36:03Z</time></trkpt><trkpt lat="43.35060055860685" lon="13.153495621616862"><ele>360.0</ele><time>2026-05-02T13:36:04Z</time></trkpt><trkpt lat="43.35053968823341" lon="13.153408786154458"><ele>360.0</ele><time>2026-05-02T13:36:05Z</time></trkpt><trkpt lat="43.35044215431138" lon="13.153356184144263"><ele>360.0</ele><time>2026-05-02T13:36:06Z</time></trkpt><trkpt lat="43.35033068365457" lon="13.153351353095408"><ele>360.0</ele><time>2026-05-02T13:36:07Z</time></trkpt><trkpt lat="43.35020518289919" lon="13.153363055626844"><ele>360.0</ele><time>2026-05-02T13:36:08Z</time></trkpt><trkpt lat="43.35006552297111" lon="13.153414425602016"><ele>360.0</ele><time>2026-05-02T13:36:09Z</time></trkpt><trkpt lat="43.3499494380173" lon="13.153420584005152"><ele>360.0</ele><time>2026-05-02T13:36:10Z</time></trkpt><trkpt lat="43.349852221503255" lon="13.153427300128184"><ele>360.0</ele><time>2026-05-02T13:36:11Z</time></trkpt><trkpt lat="43.3497889780024" lon="13.153357275255656"><ele>360.0</ele><time>2026-05-02T13:36:12Z</time></trkpt><trkpt lat="43.349779829642074" lon="13.153266947354588"><ele>364.3333333333333</ele><time>2026-05-02T13:36:13Z</time></trkpt><trkpt lat="43.3498053322684" lon="13.153041478642866"><ele>368.66666666666663</ele><time>2026-05-02T13:36:14Z</time></trkpt><trkpt lat="43.3498722811843" lon="13.152871174088794"><ele>373.0</ele><time>2026-05-02T13:36:15Z</time></trkpt><trkpt lat="43.34992460465698" lon="13.152674440006773"><ele>373.0</ele><time>2026-05-02T13:36:16Z</time></trkpt><trkpt lat="43.349952616707604" lon="13.152477957769937"><ele>373.0</ele><time>2026-05-02T13:36:17Z</time></trkpt><trkpt lat="43.34991678058995" lon="13.152278464856462"><ele>373.0</ele><time>2026-05-02T13:36:18Z</time></trkpt><trkpt lat="43.349857113936864" lon="13.152109263589969"><ele>373.0</ele><time>2026-05-02T13:36:19Z</time></trkpt><trkpt lat="43.3498042548052" lon="13.152005215019846"><ele>374.2</ele><time>2026-05-02T13:36:20Z</time></trkpt><trkpt lat="43.34976158929723" lon="13.151867095156167"><ele>375.4</ele><time>2026-05-02T13:36:22Z</time></trkpt><trkpt lat="43.34974234113677" lon="13.15174266785601"><ele>376.59999999999997</ele><time>2026-05-02T13:36:24Z</time></trkpt><trkpt lat="43.349740555644" lon="13.151590325457601"><ele>377.79999999999995</ele><time>2026-05-02T13:36:26Z</time></trkpt><trkpt lat="43.34976322635889" lon="13.15142427102969"><ele>379.0</ele><time>2026-05-02T13:36:28Z</time></trkpt><trkpt lat="43.34985118243658" lon="13.151291960519375"><ele>379.0</ele><time>2026-05-02T13:36:30Z</time></trkpt><trkpt lat="43.34990496854879" lon="13.151236648077479"><ele>379.0</ele><time>2026-05-02T13:36:31Z</time></trkpt><trkpt lat="43.34996280999082" lon="13.151182992102806"><ele>379.0</ele><time>2026-05-02T13:36:32Z</time></trkpt><trkpt lat="43.35002174576002" lon="13.15113582036487"><ele>379.0</ele><time>2026-05-02T13:36:33Z</time></trkpt><trkpt lat="43.350093589082455" lon="13.151080389920152"><ele>379.0</ele><time>2026-05-02T13:36:34Z</time></trkpt><trkpt lat="43.35016760887048" lon="13.151011850154418"><ele>379.0</ele><time>2026-05-02T13:36:35Z</time></trkpt><trkpt lat="43.35023456323378" lon="13.150949156827593"><ele>379.00000000000006</ele><time>2026-05-02T13:36:36Z</time></trkpt><trkpt lat="43.35030517917556" lon="13.15088360086828"><ele>379.0</ele><time>2026-05-02T13:36:37Z</time></trkpt><trkpt lat="43.35037181754517" lon="13.15084987402343"><ele>379.0</ele><time>2026-05-02T13:36:38Z</time></trkpt><trkpt lat="43.350430290984335" lon="13.150804026322787"><ele>379.0</ele><time>2026-05-02T13:36:39Z</time></trkpt><trkpt lat="43.35048662325084" lon="13.150745576070284"><ele>379.0</ele><time>2026-05-02T13:36:40Z</time></trkpt><trkpt lat="43.350548611991506" lon="13.15070306965665"><ele>379.00000000000006</ele><time>2026-05-02T13:36:41Z</time></trkpt><trkpt lat="43.35060244474721" lon="13.150652667795896"><ele>379.0</ele><time>2026-05-02T13:36:42Z</time></trkpt><trkpt lat="43.3506456492303" lon="13.150549624941544"><ele>382.2</ele><time>2026-05-02T13:36:44Z</time></trkpt><trkpt lat="43.35063964827767" lon="13.150266144517932"><ele>385.4</ele><time>2026-05-02T13:41:07Z</time></trkpt><trkpt lat="43.35064186388874" lon="13.150145789886"><ele>388.6</ele><time>2026-05-02T13:41:08Z</time></trkpt><trkpt lat="43.35062948116232" lon="13.15005742568785"><ele>391.8</ele><time>2026-05-02T13:41:09Z</time></trkpt><trkpt lat="43.350636593821214" lon="13.149960973698338"><ele>395.0</ele><time>2026-05-02T13:41:10Z</time></trkpt><trkpt lat="43.350634216830386" lon="13.14981467641839"><ele>395.5</ele><time>2026-05-02T13:41:11Z</time></trkpt><trkpt lat="43.350640132039764" lon="13.149639807166734"><ele>396.0</ele><time>2026-05-02T13:41:12Z</time></trkpt><trkpt lat="43.3506575372966" lon="13.149456025752222"><ele>396.5</ele><time>2026-05-02T13:41:13Z</time></trkpt><trkpt lat="43.35068091511846" lon="13.149252187088058"><ele>397.0</ele><time>2026-05-02T13:41:14Z</time></trkpt><trkpt lat="43.35069630029021" lon="13.149068538076682"><ele>398.5</ele><time>2026-05-02T13:41:15Z</time></trkpt><trkpt lat="43.35070290346943" lon="13.148900870849285"><ele>400.0</ele><time>2026-05-02T13:41:16Z</time></trkpt><trkpt lat="43.35069109767281" lon="13.1487296862344"><ele>401.5</ele><time>2026-05-02T13:41:17Z</time></trkpt><trkpt lat="43.350654464187976" lon="13.148547638445345"><ele>403.0</ele><time>2026-05-02T13:41:18Z</time></trkpt><trkpt lat="43.35063031183412" lon="13.148378389438053"><ele>403.0</ele><time>2026-05-02T13:41:19Z</time></trkpt><trkpt lat="43.350602300747894" lon="13.148247357597958"><ele>403.0</ele><time>2026-05-02T13:41:20Z</time></trkpt><trkpt lat="43.35059259520171" lon="13.148147286212842"><ele>403.0</ele><time>2026-05-02T13:41:21Z</time></trkpt><trkpt lat="43.35059672355958" lon="13.14806071360569"><ele>403.0</ele><time>2026-05-02T13:41:22Z</time></trkpt><trkpt lat="43.35070329391394" lon="13.147960110029874"><ele>403.0</ele><time>2026-05-02T13:41:24Z</time></trkpt><trkpt lat="43.35086444496769" lon="13.148077220440593"><ele>403.0</ele><time>2026-05-02T13:41:26Z</time></trkpt><trkpt lat="43.35095741676304" lon="13.148109132387413"><ele>403.0</ele><time>2026-05-02T13:41:27Z</time></trkpt><trkpt lat="43.3510578577722" lon="13.148167645486412"><ele>403.0</ele><time>2026-05-02T13:41:28Z</time></trkpt><trkpt lat="43.35116286994993" lon="13.14822751338259"><ele>403.0</ele><time>2026-05-02T13:41:29Z</time></trkpt><trkpt lat="43.351243727074205" lon="13.148312663273874"><ele>403.0</ele><time>2026-05-02T13:41:30Z</time></trkpt><trkpt lat="43.351328685948125" lon="13.148371628522638"><ele>405.1666666666667</ele><time>2026-05-02T13:41:31Z</time></trkpt><trkpt lat="43.35138546678668" lon="13.148450979509919"><ele>407.33333333333337</ele><time>2026-05-02T13:41:32Z</time></trkpt><trkpt lat="43.35141986461538" lon="13.1485390343964"><ele>409.5</ele><time>2026-05-02T13:41:33Z</time></trkpt><trkpt lat="43.35142828336708" lon="13.148637354519781"><ele>411.66666666666663</ele><time>2026-05-02T13:41:34Z</time></trkpt><trkpt lat="43.35142553666988" lon="13.148749579135874"><ele>413.8333333333333</ele><time>2026-05-02T13:41:35Z</time></trkpt><trkpt lat="43.351422080056984" lon="13.148869690527745"><ele>416.0</ele><time>2026-05-02T13:41:36Z</time></trkpt><trkpt lat="43.351421560912215" lon="13.148993962037048"><ele>415.99999999999994</ele><time>2026-05-02T13:41:37Z</time></trkpt><trkpt lat="43.35141960346375" lon="13.149112927376017"><ele>416.0</ele><time>2026-05-02T13:41:38Z</time></trkpt><trkpt lat="43.35142744384692" lon="13.149201181776837"><ele>416.0</ele><time>2026-05-02T13:41:39Z</time></trkpt><trkpt lat="43.35148587803781" lon="13.14929477818"><ele>416.0</ele><time>2026-05-02T13:41:41Z</time></trkpt><trkpt lat="43.35157728450122" lon="13.149261521867162"><ele>415.99999999999994</ele><time>2026-05-02T13:41:43Z</time></trkpt><trkpt lat="43.35162577837154" lon="13.149133737142224"><ele>416.0</ele><time>2026-05-02T13:41:44Z</time></trkpt><trkpt lat="43.35166862257252" lon="13.148979506576289"><ele>416.0</ele><time>2026-05-02T13:41:45Z</time></trkpt><trkpt lat="43.35175028300663" lon="13.148826543703"><ele>416.0</ele><time>2026-05-02T13:41:46Z</time></trkpt><trkpt lat="43.35185665228422" lon="13.14869193153805"><ele>416.0</ele><time>2026-05-02T13:41:47Z</time></trkpt><trkpt lat="43.35195110831801" lon="13.148569668038451"><ele>416.0</ele><time>2026-05-02T13:41:48Z</time></trkpt><trkpt lat="43.35205947271719" lon="13.148435897151801"><ele>420.3333333333333</ele><time>2026-05-02T13:41:49Z</time></trkpt><trkpt lat="43.35223932325445" lon="13.148240599621667"><ele>424.66666666666663</ele><time>2026-05-02T13:41:50Z</time></trkpt><trkpt lat="43.35235097765855" lon="13.14812826802173"><ele>429.0</ele><time>2026-05-02T13:41:51Z</time></trkpt><trkpt lat="43.352422660944235" lon="13.148038932787786"><ele>429.0</ele><time>2026-05-02T13:41:52Z</time></trkpt><trkpt lat="43.35249419596194" lon="13.147989497033512"><ele>429.0</ele><time>2026-05-02T13:41:53Z</time></trkpt><trkpt lat="43.3525533101631" lon="13.14792244033735"><ele>429.0</ele><time>2026-05-02T13:41:54Z</time></trkpt><trkpt lat="43.35259648513305" lon="13.147843896916191"><ele>429.0</ele><time>2026-05-02T13:41:55Z</time></trkpt><trkpt lat="43.352614364994196" lon="13.14774218476018"><ele>429.0</ele><time>2026-05-02T13:41:56Z</time></trkpt><trkpt lat="43.352606792045094" lon="13.14762339688818"><ele>429.0</ele><time>2026-05-02T13:41:57Z</time></trkpt><trkpt lat="43.35257413536612" lon="13.147491343879217"><ele>431.25</ele><time>2026-05-02T13:41:58Z</time></trkpt><trkpt lat="43.35251282702326" lon="13.14737326213892"><ele>433.5</ele><time>2026-05-02T13:41:59Z</time></trkpt><trkpt lat="43.352428662958616" lon="13.14723062397555"><ele>435.75</ele><time>2026-05-02T13:42:00Z</time></trkpt><trkpt lat="43.35234246791131" lon="13.147114554373301"><ele>438.0</ele><time>2026-05-02T13:42:01Z</time></trkpt><trkpt lat="43.35225178020559" lon="13.147022331815768"><ele>438.2</ele><time>2026-05-02T13:42:02Z</time></trkpt><trkpt lat="43.352179879668036" lon="13.146925729778436"><ele>438.4</ele><time>2026-05-02T13:42:03Z</time></trkpt><trkpt lat="43.352130226236966" lon="13.146816923235578"><ele>438.59999999999997</ele><time>2026-05-02T13:42:04Z</time></trkpt><trkpt lat="43.352075024676395" lon="13.146702632639304"><ele>438.79999999999995</ele><time>2026-05-02T13:42:05Z</time></trkpt><trkpt lat="43.35205063930012" lon="13.146588738593195"><ele>439.0</ele><time>2026-05-02T13:42:06Z</time></trkpt><trkpt lat="43.352042071108656" lon="13.146488526789462"><ele>439.0</ele><time>2026-05-02T13:42:07Z</time></trkpt><trkpt lat="43.3520285619333" lon="13.146366919065253"><ele>439.0</ele><time>2026-05-02T13:42:08Z</time></trkpt><trkpt lat="43.35204219819664" lon="13.146237988810872"><ele>439.0</ele><time>2026-05-02T13:42:09Z</time></trkpt><trkpt lat="43.35205781348246" lon="13.146100028120909"><ele>439.0</ele><time>2026-05-02T13:42:10Z</time></trkpt><trkpt lat="43.35207521360397" lon="13.145977885036547"><ele>439.0</ele><time>2026-05-02T13:42:11Z</time></trkpt><trkpt lat="43.35211326004919" lon="13.145860502640067"><ele>440.5</ele><time>2026-05-02T13:42:13Z</time></trkpt><trkpt lat="43.35216348866842" lon="13.145680463163826"><ele>442.0</ele><time>2026-05-02T13:42:14Z</time></trkpt><trkpt lat="43.352202302912836" lon="13.145510537683055"><ele>443.5</ele><time>2026-05-02T13:42:15Z</time></trkpt><trkpt lat="43.35224453847118" lon="13.145395468108118"><ele>445.0</ele><time>2026-05-02T13:42:16Z</time></trkpt><trkpt lat="43.35230451027524" lon="13.145234815210735"><ele>446.00000000000006</ele><time>2026-05-02T13:42:19Z</time></trkpt><trkpt lat="43.352334366175235" lon="13.145155818846044"><ele>447.0</ele><time>2026-05-02T13:42:20Z</time></trkpt><trkpt lat="43.352341210161256" lon="13.145058191311724"><ele>448.0</ele><time>2026-05-02T13:42:21Z</time></trkpt><trkpt lat="43.35235577058967" lon="13.144912289814764"><ele>449.0</ele><time>2026-05-02T13:42:23Z</time></trkpt><trkpt lat="43.35236557945597" lon="13.144803358288751"><ele>450.00000000000006</ele><time>2026-05-02T13:42:25Z</time></trkpt><trkpt lat="43.352372815148804" lon="13.144676776435956"><ele>451.0</ele><time>2026-05-02T13:42:28Z</time></trkpt><trkpt lat="43.3523724731415" lon="13.14457098549243"><ele>451.4</ele><time>2026-05-02T13:42:32Z</time></trkpt><trkpt lat="43.352412282900076" lon="13.144473643690576"><ele>451.8</ele><time>2026-05-02T13:42:35Z</time></trkpt><trkpt lat="43.35251823546417" lon="13.14442065933185"><ele>452.19999999999993</ele><time>2026-05-02T13:42:36Z</time></trkpt><trkpt lat="43.352609967018736" lon="13.144426477747725"><ele>452.59999999999997</ele><time>2026-05-02T13:42:37Z</time></trkpt><trkpt lat="43.35272294943881" lon="13.144394048436016"><ele>453.0</ele><time>2026-05-02T13:42:38Z</time></trkpt><trkpt lat="43.352827262198694" lon="13.144412617455833"><ele>453.0</ele><time>2026-05-02T13:42:39Z</time></trkpt><trkpt lat="43.352939231475425" lon="13.144422133295732"><ele>453.0</ele><time>2026-05-02T13:42:40Z</time></trkpt><trkpt lat="43.35304531489997" lon="13.144448161230946"><ele>453.0</ele><time>2026-05-02T13:42:41Z</time></trkpt><trkpt lat="43.353174462425486" lon="13.144475689503498"><ele>453.0</ele><time>2026-05-02T13:42:42Z</time></trkpt><trkpt lat="43.353307405809325" lon="13.144495547248662"><ele>450.5</ele><time>2026-05-02T13:42:43Z</time></trkpt><trkpt lat="43.35343096898439" lon="13.144505945699127"><ele>448.0</ele><time>2026-05-02T13:42:44Z</time></trkpt><trkpt lat="43.3535378514787" lon="13.144503932763472"><ele>445.5</ele><time>2026-05-02T13:42:45Z</time></trkpt><trkpt lat="43.35364204130571" lon="13.144530504368914"><ele>443.0</ele><time>2026-05-02T13:42:46Z</time></trkpt><trkpt lat="43.35375592199095" lon="13.144574023867866"><ele>443.0</ele><time>2026-05-02T13:42:47Z</time></trkpt><trkpt lat="43.3538544057551" lon="13.144642885717271"><ele>443.0</ele><time>2026-05-02T13:42:48Z</time></trkpt><trkpt lat="43.35392251979043" lon="13.144744717242403"><ele>443.0</ele><time>2026-05-02T13:42:49Z</time></trkpt><trkpt lat="43.35401342113388" lon="13.144857502955343"><ele>443.0</ele><time>2026-05-02T13:42:50Z</time></trkpt><trkpt lat="43.3541331891311" lon="13.144989474997773"><ele>441.66666666666663</ele><time>2026-05-02T13:42:51Z</time></trkpt><trkpt lat="43.354252813175" lon="13.145140173631358"><ele>440.33333333333337</ele><time>2026-05-02T13:42:52Z</time></trkpt><trkpt lat="43.354375753632176" lon="13.145296426477406"><ele>439.0</ele><time>2026-05-02T13:42:53Z</time></trkpt><trkpt lat="43.35449487342232" lon="13.145445605822813"><ele>439.0</ele><time>2026-05-02T13:42:54Z</time></trkpt><trkpt lat="43.35461029610184" lon="13.145573868618806"><ele>439.0</ele><time>2026-05-02T13:42:55Z</time></trkpt><trkpt lat="43.354719821251244" lon="13.145712127366146"><ele>439.0</ele><time>2026-05-02T13:42:56Z</time></trkpt><trkpt lat="43.35484949352269" lon="13.14583439124272"><ele>437.6666666666667</ele><time>2026-05-02T13:42:57Z</time></trkpt><trkpt lat="43.35498108922563" lon="13.14595104151084"><ele>436.33333333333337</ele><time>2026-05-02T13:42:58Z</time></trkpt><trkpt lat="43.355121462869825" lon="13.146048091421598"><ele>435.0</ele><time>2026-05-02T13:42:59Z</time></trkpt><trkpt lat="43.35528940682614" lon="13.146167323797647"><ele>435.0</ele><time>2026-05-02T13:43:00Z</time></trkpt><trkpt lat="43.35545213955088" lon="13.146271794087479"><ele>435.0</ele><time>2026-05-02T13:43:01Z</time></trkpt><trkpt lat="43.35559575117606" lon="13.14635706681493"><ele>435.0</ele><time>2026-05-02T13:43:02Z</time></trkpt><trkpt lat="43.35573184692074" lon="13.146421945244523"><ele>434.5</ele><time>2026-05-02T13:43:03Z</time></trkpt><trkpt lat="43.35585263383571" lon="13.146503036418322"><ele>434.0</ele><time>2026-05-02T13:43:04Z</time></trkpt><trkpt lat="43.35595302643523" lon="13.146579144594007"><ele>433.5</ele><time>2026-05-02T13:43:05Z</time></trkpt><trkpt lat="43.35605187332015" lon="13.14664623120609"><ele>433.0</ele><time>2026-05-02T13:43:06Z</time></trkpt><trkpt lat="43.356137295710674" lon="13.146719775980456"><ele>433.0</ele><time>2026-05-02T13:43:07Z</time></trkpt><trkpt lat="43.35621744254725" lon="13.146788533911964"><ele>432.99999999999994</ele><time>2026-05-02T13:43:08Z</time></trkpt><trkpt lat="43.35629915015131" lon="13.146874363954277"><ele>432.99999999999994</ele><time>2026-05-02T13:43:09Z</time></trkpt><trkpt lat="43.35637743972763" lon="13.146949567860482"><ele>433.0</ele><time>2026-05-02T13:43:10Z</time></trkpt><trkpt lat="43.356436475556734" lon="13.147014074718328"><ele>433.0</ele><time>2026-05-02T13:43:11Z</time></trkpt><trkpt lat="43.35650874846541" lon="13.147086769407759"><ele>430.75</ele><time>2026-05-02T13:43:12Z</time></trkpt><trkpt lat="43.35657395525264" lon="13.147199170289063"><ele>428.5</ele><time>2026-05-02T13:43:13Z</time></trkpt><trkpt lat="43.356674221144836" lon="13.147330400749118"><ele>426.25</ele><time>2026-05-02T13:43:14Z</time></trkpt><trkpt lat="43.356771912629156" lon="13.147528384022028"><ele>424.0</ele><time>2026-05-02T13:43:15Z</time></trkpt><trkpt lat="43.35687354425717" lon="13.14775475473642"><ele>424.0</ele><time>2026-05-02T13:43:16Z</time></trkpt><trkpt lat="43.35698410850264" lon="13.14798121433517"><ele>424.0</ele><time>2026-05-02T13:43:17Z</time></trkpt><trkpt lat="43.357104093663644" lon="13.148222795055007"><ele>424.0</ele><time>2026-05-02T13:43:18Z</time></trkpt><trkpt lat="43.35723008193958" lon="13.148429999756303"><ele>422.33333333333337</ele><time>2026-05-02T13:43:19Z</time></trkpt><trkpt lat="43.35733605489737" lon="13.148605244190087"><ele>420.66666666666663</ele><time>2026-05-02T13:43:20Z</time></trkpt><trkpt lat="43.35744084625701" lon="13.148760656158332"><ele>419.0</ele><time>2026-05-02T13:43:21Z</time></trkpt><trkpt lat="43.35754659898043" lon="13.148900521653182"><ele>419.0</ele><time>2026-05-02T13:43:22Z</time></trkpt><trkpt lat="43.35767818745605" lon="13.148994354771228"><ele>419.0</ele><time>2026-05-02T13:43:23Z</time></trkpt><trkpt lat="43.357841199780616" lon="13.149061573545445"><ele>419.0</ele><time>2026-05-02T13:43:24Z</time></trkpt><trkpt lat="43.3580342570983" lon="13.149148501269167"><ele>417.3333333333333</ele><time>2026-05-02T13:43:25Z</time></trkpt><trkpt lat="43.35821824395675" lon="13.149246498926106"><ele>415.66666666666663</ele><time>2026-05-02T13:43:26Z</time></trkpt><trkpt lat="43.35837411860047" lon="13.149354730177544"><ele>414.0</ele><time>2026-05-02T13:43:27Z</time></trkpt><trkpt lat="43.358508886061415" lon="13.1494754574434"><ele>414.0</ele><time>2026-05-02T13:43:28Z</time></trkpt><trkpt lat="43.35862354650868" lon="13.149626901060271"><ele>414.0</ele><time>2026-05-02T13:43:29Z</time></trkpt><trkpt lat="43.3587337649231" lon="13.149809927593404"><ele>414.0</ele><time>2026-05-02T13:43:30Z</time></trkpt><trkpt lat="43.3588483502897" lon="13.150029347448237"><ele>414.0</ele><time>2026-05-02T13:43:31Z</time></trkpt><trkpt lat="43.358971596767326" lon="13.150242817430396"><ele>414.0</ele><time>2026-05-02T13:43:32Z</time></trkpt><trkpt lat="43.3590715656827" lon="13.150430619983515"><ele>414.0</ele><time>2026-05-02T13:43:33Z</time></trkpt><trkpt lat="43.35916215624326" lon="13.150604656359452"><ele>413.5</ele><time>2026-05-02T13:43:34Z</time></trkpt><trkpt lat="43.359248048830366" lon="13.150762994809066"><ele>413.0</ele><time>2026-05-02T13:43:35Z</time></trkpt><trkpt lat="43.35932892749705" lon="13.15088865765118"><ele>412.5</ele><time>2026-05-02T13:43:36Z</time></trkpt><trkpt lat="43.35942606656992" lon="13.150993853203069"><ele>412.0</ele><time>2026-05-02T13:43:37Z</time></trkpt><trkpt lat="43.359545885056896" lon="13.151081544073937"><ele>411.33333333333337</ele><time>2026-05-02T13:43:38Z</time></trkpt><trkpt lat="43.35970337409289" lon="13.151172156176234"><ele>410.66666666666663</ele><time>2026-05-02T13:43:39Z</time></trkpt><trkpt lat="43.35987738038201" lon="13.151265424699137"><ele>410.0</ele><time>2026-05-02T13:43:40Z</time></trkpt><trkpt lat="43.36006045390504" lon="13.15138564952942"><ele>410.0</ele><time>2026-05-02T13:43:41Z</time></trkpt><trkpt lat="43.360238474976875" lon="13.15148893885176"><ele>410.0</ele><time>2026-05-02T13:43:42Z</time></trkpt><trkpt lat="43.36039291234059" lon="13.151577362832917"><ele>410.0</ele><time>2026-05-02T13:43:43Z</time></trkpt><trkpt lat="43.36054342961128" lon="13.151645694019784"><ele>409.66666666666663</ele><time>2026-05-02T13:43:44Z</time></trkpt><trkpt lat="43.360686539539095" lon="13.151671551797838"><ele>409.33333333333337</ele><time>2026-05-02T13:43:45Z</time></trkpt><trkpt lat="43.3608268900172" lon="13.151629291888645"><ele>409.0</ele><time>2026-05-02T13:43:46Z</time></trkpt><trkpt lat="43.3610094875451" lon="13.151551904927427"><ele>409.0</ele><time>2026-05-02T13:43:47Z</time></trkpt><trkpt lat="43.36123966765812" lon="13.151466572872339"><ele>409.0</ele><time>2026-05-02T13:43:48Z</time></trkpt><trkpt lat="43.361478714906234" lon="13.151379410530927"><ele>409.0</ele><time>2026-05-02T13:43:49Z</time></trkpt><trkpt lat="43.36173945126397" lon="13.151289623815856"><ele>409.0</ele><time>2026-05-02T13:43:50Z</time></trkpt><trkpt lat="43.36200437424833" lon="13.151196687823823"><ele>410.0</ele><time>2026-05-02T13:43:51Z</time></trkpt><trkpt lat="43.362255571426154" lon="13.151122666006543"><ele>411.0</ele><time>2026-05-02T13:43:52Z</time></trkpt><trkpt lat="43.36255505293849" lon="13.151061190444196"><ele>411.0</ele><time>2026-05-02T13:43:53Z</time></trkpt><trkpt lat="43.36266976354164" lon="13.151030726972087"><ele>411.0</ele><time>2026-05-02T13:43:54Z</time></trkpt><trkpt lat="43.36284766032965" lon="13.151003355323626"><ele>411.0</ele><time>2026-05-02T13:43:55Z</time></trkpt><trkpt lat="43.36300053227632" lon="13.150991827902805"><ele>411.0</ele><time>2026-05-02T13:43:56Z</time></trkpt><trkpt lat="43.36315631802134" lon="13.150992301776203"><ele>411.33333333333337</ele><time>2026-05-02T13:43:57Z</time></trkpt><trkpt lat="43.36333326193747" lon="13.151000519223498"><ele>411.6666666666667</ele><time>2026-05-02T13:43:58Z</time></trkpt><trkpt lat="43.3635035954203" lon="13.151006767866107"><ele>412.0</ele><time>2026-05-02T13:43:59Z</time></trkpt><trkpt lat="43.36365282256208" lon="13.151016682972012"><ele>412.0</ele><time>2026-05-02T13:44:00Z</time></trkpt><trkpt lat="43.36378594873496" lon="13.151015802485308"><ele>412.0</ele><time>2026-05-02T13:44:01Z</time></trkpt><trkpt lat="43.36391919600156" lon="13.151017035208795"><ele>412.0</ele><time>2026-05-02T13:44:02Z</time></trkpt><trkpt lat="43.3640527802666" lon="13.15101364799639"><ele>412.0</ele><time>2026-05-02T13:44:03Z</time></trkpt><trkpt lat="43.36417167081567" lon="13.15100966149664"><ele>412.20000000000005</ele><time>2026-05-02T13:44:04Z</time></trkpt><trkpt lat="43.364281611026506" lon="13.151004016283938"><ele>412.4</ele><time>2026-05-02T13:44:05Z</time></trkpt><trkpt lat="43.36436876630833" lon="13.151022280283058"><ele>412.6</ele><time>2026-05-02T13:44:06Z</time></trkpt><trkpt lat="43.36444011415158" lon="13.151070096125313"><ele>412.79999999999995</ele><time>2026-05-02T13:44:07Z</time></trkpt><trkpt lat="43.36450242345928" lon="13.151145898057003"><ele>413.0</ele><time>2026-05-02T13:44:08Z</time></trkpt><trkpt lat="43.364546485501236" lon="13.1512571605979"><ele>413.0</ele><time>2026-05-02T13:44:09Z</time></trkpt><trkpt lat="43.36460502197752" lon="13.15138053233088"><ele>413.0</ele><time>2026-05-02T13:44:10Z</time></trkpt><trkpt lat="43.36467213539862" lon="13.151519532279686"><ele>413.0</ele><time>2026-05-02T13:44:11Z</time></trkpt><trkpt lat="43.36475952092198" lon="13.151646938523468"><ele>413.0</ele><time>2026-05-02T13:44:12Z</time></trkpt><trkpt lat="43.36482718632628" lon="13.15177750839513"><ele>410.75</ele><time>2026-05-02T13:44:13Z</time></trkpt><trkpt lat="43.364909736197184" lon="13.151894810898849"><ele>408.5</ele><time>2026-05-02T13:44:14Z</time></trkpt><trkpt lat="43.365017890680804" lon="13.151991679421762"><ele>406.25</ele><time>2026-05-02T13:44:15Z</time></trkpt><trkpt lat="43.365160317398946" lon="13.152076721607601"><ele>404.0</ele><time>2026-05-02T13:44:16Z</time></trkpt><trkpt lat="43.36529974405541" lon="13.152164037921628"><ele>404.0</ele><time>2026-05-02T13:44:17Z</time></trkpt><trkpt lat="43.365437246053105" lon="13.152232750233468"><ele>404.0</ele><time>2026-05-02T13:44:18Z</time></trkpt><trkpt lat="43.36557657888356" lon="13.152286196121489"><ele>404.0</ele><time>2026-05-02T13:44:19Z</time></trkpt><trkpt lat="43.36571826747871" lon="13.152331456588318"><ele>404.0</ele><time>2026-05-02T13:44:20Z</time></trkpt><trkpt lat="43.36585420884895" lon="13.152369748178517"><ele>403.25</ele><time>2026-05-02T13:44:21Z</time></trkpt><trkpt lat="43.36600026733216" lon="13.152411471802573"><ele>402.5</ele><time>2026-05-02T13:44:22Z</time></trkpt><trkpt lat="43.366135747776475" lon="13.152455312751785"><ele>401.75</ele><time>2026-05-02T13:44:23Z</time></trkpt><trkpt lat="43.36625909890082" lon="13.1524984288942"><ele>401.0</ele><time>2026-05-02T13:44:24Z</time></trkpt><trkpt lat="43.36636553975952" lon="13.152559545078205"><ele>401.0</ele><time>2026-05-02T13:44:25Z</time></trkpt><trkpt lat="43.36647462350522" lon="13.152626292262077"><ele>401.0</ele><time>2026-05-02T13:44:26Z</time></trkpt><trkpt lat="43.36655491583958" lon="13.152733158612977"><ele>401.0</ele><time>2026-05-02T13:44:27Z</time></trkpt><trkpt lat="43.36662975998305" lon="13.152869314607322"><ele>401.0</ele><time>2026-05-02T13:44:28Z</time></trkpt><trkpt lat="43.36669748490696" lon="13.153025918273313"><ele>401.0</ele><time>2026-05-02T13:44:29Z</time></trkpt><trkpt lat="43.366761331406636" lon="13.153176803675724"><ele>401.0</ele><time>2026-05-02T13:44:30Z</time></trkpt><trkpt lat="43.36681641430585" lon="13.153311985761501"><ele>401.0</ele><time>2026-05-02T13:44:31Z</time></trkpt><trkpt lat="43.36687640863027" lon="13.153447797725834"><ele>401.0</ele><time>2026-05-02T13:44:32Z</time></trkpt><trkpt lat="43.366935618913416" lon="13.153574390871006"><ele>400.3333333333333</ele><time>2026-05-02T13:44:32.999Z</time></trkpt><trkpt lat="43.36699205984379" lon="13.153676091644979"><ele>399.66666666666663</ele><time>2026-05-02T13:44:33.999Z</time></trkpt><trkpt lat="43.367059528621795" lon="13.153751566054096"><ele>399.0</ele><time>2026-05-02T13:44:34.999Z</time></trkpt><trkpt lat="43.367136292232196" lon="13.153789008448637"><ele>398.33333333333337</ele><time>2026-05-02T13:44:35.999Z</time></trkpt><trkpt lat="43.367208085423194" lon="13.15379671577773"><ele>397.6666666666667</ele><time>2026-05-02T13:44:36.999Z</time></trkpt><trkpt lat="43.36727028866452" lon="13.153781857651946"><ele>397.0</ele><time>2026-05-02T13:44:37.999Z</time></trkpt><trkpt lat="43.367335705496316" lon="13.15375301526713"><ele>397.00000000000006</ele><time>2026-05-02T13:44:38.999Z</time></trkpt><trkpt lat="43.367404560410684" lon="13.153719748396544"><ele>397.0</ele><time>2026-05-02T13:44:39.999Z</time></trkpt><trkpt lat="43.36748277666518" lon="13.15368596491938"><ele>397.0</ele><time>2026-05-02T13:44:40.999Z</time></trkpt><trkpt lat="43.367577946282424" lon="13.15365079842069"><ele>397.0</ele><time>2026-05-02T13:44:41.999Z</time></trkpt><trkpt lat="43.367675740542445" lon="13.15365774150512"><ele>397.00000000000006</ele><time>2026-05-02T13:44:42.999Z</time></trkpt><trkpt lat="43.36776732462047" lon="13.153702595838379"><ele>397.0</ele><time>2026-05-02T13:44:43.999Z</time></trkpt><trkpt lat="43.36785659161292" lon="13.153776079060313"><ele>397.0</ele><time>2026-05-02T13:44:44.999Z</time></trkpt><trkpt lat="43.36793248846112" lon="13.153839956873275"><ele>397.0</ele><time>2026-05-02T13:44:45.999Z</time></trkpt><trkpt lat="43.36801757433087" lon="13.153918378468967"><ele>397.0</ele><time>2026-05-02T13:44:46.999Z</time></trkpt><trkpt lat="43.368115144494894" lon="13.153977097269088"><ele>397.0</ele><time>2026-05-02T13:44:47.999Z</time></trkpt><trkpt lat="43.368236649795634" lon="13.15402851346293"><ele>397.0</ele><time>2026-05-02T13:44:48.999Z</time></trkpt><trkpt lat="43.36835727482372" lon="13.15407324990895"><ele>391.75</ele><time>2026-05-02T13:44:49.999Z</time></trkpt><trkpt lat="43.36848275762495" lon="13.154063605372043"><ele>386.5</ele><time>2026-05-02T13:44:50.999Z</time></trkpt><trkpt lat="43.36865126138357" lon="13.154083200000454"><ele>381.25</ele><time>2026-05-02T13:44:51.999Z</time></trkpt><trkpt lat="43.36879577993901" lon="13.154101667345078"><ele>376.0</ele><time>2026-05-02T13:44:52.999Z</time></trkpt><trkpt lat="43.368940150475105" lon="13.15411149745945"><ele>372.75</ele><time>2026-05-02T13:44:53.999Z</time></trkpt><trkpt lat="43.369079478051155" lon="13.154125527284311"><ele>369.5</ele><time>2026-05-02T13:44:54.999Z</time></trkpt><trkpt lat="43.36921108287463" lon="13.154139030346416"><ele>366.25</ele><time>2026-05-02T13:44:55.999Z</time></trkpt><trkpt lat="43.36934245665925" lon="13.154149130043063"><ele>363.0</ele><time>2026-05-02T13:44:56.999Z</time></trkpt><trkpt lat="43.36947136454435" lon="13.15415903794151"><ele>363.0</ele><time>2026-05-02T13:44:57.999Z</time></trkpt><trkpt lat="43.36959515648781" lon="13.154173187591978"><ele>363.0</ele><time>2026-05-02T13:44:58.999Z</time></trkpt><trkpt lat="43.369715709876566" lon="13.15418392860307"><ele>363.0</ele><time>2026-05-02T13:44:59.999Z</time></trkpt><trkpt lat="43.36983787044779" lon="13.154203820344291"><ele>363.0</ele><time>2026-05-02T13:45:00.999Z</time></trkpt><trkpt lat="43.36995591612307" lon="13.154229749473679"><ele>360.0</ele><time>2026-05-02T13:45:01.999Z</time></trkpt><trkpt lat="43.370076215870206" lon="13.154250839249856"><ele>357.0</ele><time>2026-05-02T13:45:02.999Z</time></trkpt><trkpt lat="43.37020244496494" lon="13.154268699223586"><ele>354.0</ele><time>2026-05-02T13:45:03.999Z</time></trkpt><trkpt lat="43.37033758219506" lon="13.154285866552502"><ele>351.0</ele><time>2026-05-02T13:45:04.999Z</time></trkpt><trkpt lat="43.370480807365766" lon="13.154297430530152"><ele>346.6666666666667</ele><time>2026-05-02T13:45:05.999Z</time></trkpt><trkpt lat="43.370638335205655" lon="13.15431501609125"><ele>342.33333333333337</ele><time>2026-05-02T13:45:06.999Z</time></trkpt><trkpt lat="43.370815937954475" lon="13.154333763402816"><ele>338.0</ele><time>2026-05-02T13:45:07.999Z</time></trkpt><trkpt lat="43.37100882897997" lon="13.154361496832303"><ele>338.0</ele><time>2026-05-02T13:45:08.999Z</time></trkpt><trkpt lat="43.37120975543185" lon="13.154389798341713"><ele>338.0</ele><time>2026-05-02T13:45:09.999Z</time></trkpt><trkpt lat="43.3714322483816" lon="13.15441275797104"><ele>338.0</ele><time>2026-05-02T13:45:10.999Z</time></trkpt><trkpt lat="43.37166681737569" lon="13.154436290583028"><ele>333.0</ele><time>2026-05-02T13:45:11.999Z</time></trkpt><trkpt lat="43.371812808470956" lon="13.154454272272968"><ele>328.0</ele><time>2026-05-02T13:45:12.999Z</time></trkpt><trkpt lat="43.37215598177194" lon="13.154479691320372"><ele>327.66666666666663</ele><time>2026-05-02T13:45:13.999Z</time></trkpt><trkpt lat="43.37235597112008" lon="13.154463308100366"><ele>327.3333333333333</ele><time>2026-05-02T13:45:14.999Z</time></trkpt><trkpt lat="43.37254041079135" lon="13.154422527893212"><ele>327.0</ele><time>2026-05-02T13:45:15.999Z</time></trkpt><trkpt lat="43.37271195254437" lon="13.154381225277222"><ele>327.0</ele><time>2026-05-02T13:45:16.999Z</time></trkpt><trkpt lat="43.372870284012706" lon="13.154326581535537"><ele>327.0</ele><time>2026-05-02T13:45:17.999Z</time></trkpt><trkpt lat="43.373024453407936" lon="13.154257946100095"><ele>327.0</ele><time>2026-05-02T13:45:18.999Z</time></trkpt><trkpt lat="43.37317806163606" lon="13.154166499793678"><ele>329.0</ele><time>2026-05-02T13:45:19.999Z</time></trkpt><trkpt lat="43.373326901359995" lon="13.154080319907134"><ele>331.0</ele><time>2026-05-02T13:45:20.999Z</time></trkpt><trkpt lat="43.3734738738386" lon="13.153991780022979"><ele>333.0</ele><time>2026-05-02T13:45:21.999Z</time></trkpt><trkpt lat="43.37361299150953" lon="13.153900374025483"><ele>333.3333333333333</ele><time>2026-05-02T13:45:23Z</time></trkpt><trkpt lat="43.373752711479" lon="13.153811223639002"><ele>333.66666666666663</ele><time>2026-05-02T13:45:24Z</time></trkpt><trkpt lat="43.373894163817226" lon="13.153714108432068"><ele>334.0</ele><time>2026-05-02T13:45:25Z</time></trkpt><trkpt lat="43.37404078556045" lon="13.153621416701313"><ele>338.66666666666663</ele><time>2026-05-02T13:45:26Z</time></trkpt><trkpt lat="43.37418708119682" lon="13.153523825908305"><ele>343.3333333333333</ele><time>2026-05-02T13:45:27Z</time></trkpt><trkpt lat="43.3743315069034" lon="13.153435013600204"><ele>348.0</ele><time>2026-05-02T13:45:28Z</time></trkpt><trkpt lat="43.37446763321893" lon="13.153349475142914"><ele>348.0</ele><time>2026-05-02T13:45:29Z</time></trkpt><trkpt lat="43.37459732027098" lon="13.153266322614325"><ele>348.0</ele><time>2026-05-02T13:45:30Z</time></trkpt><trkpt lat="43.37472101341952" lon="13.153187412412958"><ele>348.0</ele><time>2026-05-02T13:45:31Z</time></trkpt><trkpt lat="43.37486394101467" lon="13.153088768283983"><ele>348.0</ele><time>2026-05-02T13:45:32Z</time></trkpt><trkpt lat="43.375009370375686" lon="13.152993814464796"><ele>351.25</ele><time>2026-05-02T13:45:33Z</time></trkpt><trkpt lat="43.37514471109136" lon="13.152905167116414"><ele>354.5</ele><time>2026-05-02T13:45:34Z</time></trkpt><trkpt lat="43.375272127075434" lon="13.152812391157514"><ele>357.75</ele><time>2026-05-02T13:45:35Z</time></trkpt><trkpt lat="43.37540575952175" lon="13.152744047713915"><ele>361.0</ele><time>2026-05-02T13:45:36Z</time></trkpt><trkpt lat="43.37552138271774" lon="13.152633603152907"><ele>361.25</ele><time>2026-05-02T13:45:37Z</time></trkpt><trkpt lat="43.37565122208382" lon="13.15254422573736"><ele>361.5</ele><time>2026-05-02T13:45:38Z</time></trkpt><trkpt lat="43.37578173764292" lon="13.152454814221654"><ele>361.75</ele><time>2026-05-02T13:45:39Z</time></trkpt><trkpt lat="43.37591850740494" lon="13.152362600138094"><ele>362.0</ele><time>2026-05-02T13:45:40Z</time></trkpt><trkpt lat="43.376052992155934" lon="13.152273282148174"><ele>362.0</ele><time>2026-05-02T13:45:41Z</time></trkpt><trkpt lat="43.37617913321638" lon="13.152170325309465"><ele>362.0</ele><time>2026-05-02T13:45:42Z</time></trkpt><trkpt lat="43.37631136274027" lon="13.152080021103176"><ele>362.0</ele><time>2026-05-02T13:45:43Z</time></trkpt><trkpt lat="43.3764427259601" lon="13.151976640366177"><ele>362.0</ele><time>2026-05-02T13:45:44Z</time></trkpt><trkpt lat="43.376579827189545" lon="13.151868018857874"><ele>356.33333333333337</ele><time>2026-05-02T13:45:45Z</time></trkpt><trkpt lat="43.37670817414463" lon="13.151758673072068"><ele>350.6666666666667</ele><time>2026-05-02T13:45:46Z</time></trkpt><trkpt lat="43.37684727253439" lon="13.151649798435965"><ele>345.0</ele><time>2026-05-02T13:45:47Z</time></trkpt><trkpt lat="43.37697644190529" lon="13.15154042185264"><ele>342.25</ele><time>2026-05-02T13:45:48Z</time></trkpt><trkpt lat="43.37709606711673" lon="13.151436636804613"><ele>339.5</ele><time>2026-05-02T13:45:49Z</time></trkpt><trkpt lat="43.37721882947372" lon="13.151330893862557"><ele>336.75</ele><time>2026-05-02T13:45:50Z</time></trkpt><trkpt lat="43.37733901689074" lon="13.151236151296969"><ele>334.0</ele><time>2026-05-02T13:45:51Z</time></trkpt><trkpt lat="43.37745689456372" lon="13.15114098321922"><ele>332.6</ele><time>2026-05-02T13:45:52Z</time></trkpt><trkpt lat="43.37755085513041" lon="13.15106335059928"><ele>331.2</ele><time>2026-05-02T13:45:53Z</time></trkpt><trkpt lat="43.377639566438404" lon="13.15099689504447"><ele>329.8</ele><time>2026-05-02T13:45:54Z</time></trkpt><trkpt lat="43.37772700419173" lon="13.150927026344656"><ele>328.40000000000003</ele><time>2026-05-02T13:45:55Z</time></trkpt><trkpt lat="43.377815230994344" lon="13.150868459443732"><ele>327.0</ele><time>2026-05-02T13:45:56Z</time></trkpt><trkpt lat="43.377909038270026" lon="13.150815240917478"><ele>327.0</ele><time>2026-05-02T13:45:57Z</time></trkpt><trkpt lat="43.37801360782901" lon="13.150761755504114"><ele>327.0</ele><time>2026-05-02T13:45:58Z</time></trkpt><trkpt lat="43.378127134491784" lon="13.150722647864912"><ele>327.0</ele><time>2026-05-02T13:45:59Z</time></trkpt><trkpt lat="43.37824346659529" lon="13.150698530891832"><ele>327.0</ele><time>2026-05-02T13:46:00Z</time></trkpt><trkpt lat="43.37835711141922" lon="13.150701548060429"><ele>328.5</ele><time>2026-05-02T13:46:01Z</time></trkpt><trkpt lat="43.37847756330849" lon="13.150716499405698"><ele>330.0</ele><time>2026-05-02T13:46:02Z</time></trkpt><trkpt lat="43.378592501159474" lon="13.150749586695067"><ele>331.5</ele><time>2026-05-02T13:46:03Z</time></trkpt><trkpt lat="43.37869650357074" lon="13.150804931933502"><ele>333.0</ele><time>2026-05-02T13:46:04Z</time></trkpt><trkpt lat="43.378793592231794" lon="13.150859334923261"><ele>339.2</ele><time>2026-05-02T13:46:05Z</time></trkpt><trkpt lat="43.378886111148894" lon="13.150934945288778"><ele>345.4</ele><time>2026-05-02T13:46:06Z</time></trkpt><trkpt lat="43.378971707880424" lon="13.151029918298937"><ele>351.59999999999997</ele><time>2026-05-02T13:46:07Z</time></trkpt><trkpt lat="43.379047767050636" lon="13.151145280679744"><ele>357.79999999999995</ele><time>2026-05-02T13:46:08Z</time></trkpt><trkpt lat="43.37910881346623" lon="13.151285297240285"><ele>364.0</ele><time>2026-05-02T13:46:09Z</time></trkpt><trkpt lat="43.37916159488217" lon="13.15143978329371"><ele>360.5</ele><time>2026-05-02T13:46:10Z</time></trkpt><trkpt lat="43.3792147325955" lon="13.151593290294906"><ele>357.0</ele><time>2026-05-02T13:46:11Z</time></trkpt><trkpt lat="43.37927427193374" lon="13.151744445867786"><ele>353.5</ele><time>2026-05-02T13:46:12Z</time></trkpt><trkpt lat="43.37933941088878" lon="13.15189511449635"><ele>350.0</ele><time>2026-05-02T13:46:13Z</time></trkpt><trkpt lat="43.37941185462024" lon="13.152035549328874"><ele>350.0</ele><time>2026-05-02T13:46:14Z</time></trkpt><trkpt lat="43.3794931169788" lon="13.152160466759263"><ele>350.0</ele><time>2026-05-02T13:46:15Z</time></trkpt><trkpt lat="43.37956636217583" lon="13.152272930341875"><ele>350.0</ele><time>2026-05-02T13:46:16Z</time></trkpt><trkpt lat="43.379629077545715" lon="13.152379689963144"><ele>350.0</ele><time>2026-05-02T13:46:16.999Z</time></trkpt><trkpt lat="43.379681504805276" lon="13.152476159765765"><ele>350.0</ele><time>2026-05-02T13:46:17.999Z</time></trkpt><trkpt lat="43.379726440446596" lon="13.152566916320005"><ele>355.0</ele><time>2026-05-02T13:46:18.999Z</time></trkpt><trkpt lat="43.379768391665124" lon="13.152654667766361"><ele>360.0</ele><time>2026-05-02T13:46:19.999Z</time></trkpt><trkpt lat="43.37980377382336" lon="13.152740333016533"><ele>365.0</ele><time>2026-05-02T13:46:20.999Z</time></trkpt><trkpt lat="43.37985103452159" lon="13.152837029943077"><ele>370.0</ele><time>2026-05-02T13:46:21.999Z</time></trkpt><trkpt lat="43.379901400927444" lon="13.152954089232846"><ele>375.0</ele><time>2026-05-02T13:46:22.999Z</time></trkpt><trkpt lat="43.379964447143855" lon="13.153092355706521"><ele>368.3333333333333</ele><time>2026-05-02T13:46:23.999Z</time></trkpt><trkpt lat="43.38003960651738" lon="13.15325938860815"><ele>361.66666666666663</ele><time>2026-05-02T13:46:24.999Z</time></trkpt><trkpt lat="43.38010735370053" lon="13.153465914317861"><ele>355.0</ele><time>2026-05-02T13:46:25.999Z</time></trkpt><trkpt lat="43.380201066503616" lon="13.153689366997552"><ele>355.0</ele><time>2026-05-02T13:46:26.999Z</time></trkpt><trkpt lat="43.38032411940729" lon="13.153947763843222"><ele>355.0</ele><time>2026-05-02T13:46:27.999Z</time></trkpt><trkpt lat="43.380434439742125" lon="13.15424685294024"><ele>366.5</ele><time>2026-05-02T13:46:28.999Z</time></trkpt><trkpt lat="43.38055706192717" lon="13.154537089527372"><ele>378.0</ele><time>2026-05-02T13:46:29.999Z</time></trkpt><trkpt lat="43.380677805479294" lon="13.15477829250287"><ele>371.0</ele><time>2026-05-02T13:46:30.999Z</time></trkpt><trkpt lat="43.380778464349184" lon="13.154987598532795"><ele>364.0</ele><time>2026-05-02T13:46:31.999Z</time></trkpt><trkpt lat="43.3808705828915" lon="13.155173278180126"><ele>357.0</ele><time>2026-05-02T13:46:32.999Z</time></trkpt><trkpt lat="43.38097284795277" lon="13.155345223067593"><ele>357.0</ele><time>2026-05-02T13:46:33.999Z</time></trkpt><trkpt lat="43.3810915862848" lon="13.155502418378264"><ele>357.0</ele><time>2026-05-02T13:46:34.999Z</time></trkpt><trkpt lat="43.38121141329436" lon="13.155636471073334"><ele>357.0</ele><time>2026-05-02T13:46:35.999Z</time></trkpt><trkpt lat="43.38131840628271" lon="13.155763520871322"><ele>359.25</ele><time>2026-05-02T13:46:36.999Z</time></trkpt><trkpt lat="43.38141123341974" lon="13.155890116217757"><ele>361.5</ele><time>2026-05-02T13:46:37.999Z</time></trkpt><trkpt lat="43.381480374421095" lon="13.156042285821803"><ele>363.75</ele><time>2026-05-02T13:46:38.999Z</time></trkpt><trkpt lat="43.38152632297167" lon="13.156214730298457"><ele>366.0</ele><time>2026-05-02T13:46:39.999Z</time></trkpt><trkpt lat="43.38155458143828" lon="13.156383115629037"><ele>366.0</ele><time>2026-05-02T13:46:40.999Z</time></trkpt><trkpt lat="43.38159005543731" lon="13.156533189713253"><ele>366.0</ele><time>2026-05-02T13:46:41.999Z</time></trkpt><trkpt lat="43.38164705696976" lon="13.156677364787253"><ele>366.0</ele><time>2026-05-02T13:46:42.999Z</time></trkpt><trkpt lat="43.38173390925668" lon="13.156792455824013"><ele>366.0</ele><time>2026-05-02T13:46:43.999Z</time></trkpt><trkpt lat="43.38184640739721" lon="13.156879176498993"><ele>362.75</ele><time>2026-05-02T13:46:44.999Z</time></trkpt><trkpt lat="43.38196629224074" lon="13.1569413956505"><ele>359.5</ele><time>2026-05-02T13:46:45.999Z</time></trkpt><trkpt lat="43.38207445771356" lon="13.157002340655675"><ele>356.25</ele><time>2026-05-02T13:46:46.999Z</time></trkpt><trkpt lat="43.382164602800515" lon="13.157084662223788"><ele>353.0</ele><time>2026-05-02T13:46:47.999Z</time></trkpt><trkpt lat="43.38223567735731" lon="13.157200301570168"><ele>357.25</ele><time>2026-05-02T13:46:48.999Z</time></trkpt><trkpt lat="43.38228558420604" lon="13.157347073724605"><ele>361.5</ele><time>2026-05-02T13:46:49.999Z</time></trkpt><trkpt lat="43.382311757297124" lon="13.157513267489684"><ele>365.75</ele><time>2026-05-02T13:46:50.999Z</time></trkpt><trkpt lat="43.38231965803674" lon="13.157686335890054"><ele>370.0</ele><time>2026-05-02T13:46:51.999Z</time></trkpt><trkpt lat="43.38233900860867" lon="13.157853256177642"><ele>370.0</ele><time>2026-05-02T13:46:52.999Z</time></trkpt><trkpt lat="43.38237560759902" lon="13.158016132066814"><ele>370.0</ele><time>2026-05-02T13:46:53.999Z</time></trkpt><trkpt lat="43.382425360520855" lon="13.15816226050469"><ele>370.0</ele><time>2026-05-02T13:46:54.999Z</time></trkpt><trkpt lat="43.38248949576124" lon="13.158297654698469"><ele>370.0</ele><time>2026-05-02T13:46:55.999Z</time></trkpt><trkpt lat="43.38255842532146" lon="13.158435951310867"><ele>366.75</ele><time>2026-05-02T13:46:56.999Z</time></trkpt><trkpt lat="43.38262826577557" lon="13.158580553555552"><ele>363.5</ele><time>2026-05-02T13:46:57.999Z</time></trkpt><trkpt lat="43.382691378823665" lon="13.158728081348256"><ele>360.25</ele><time>2026-05-02T13:46:58.999Z</time></trkpt><trkpt lat="43.382737796822816" lon="13.15889296966188"><ele>357.0</ele><time>2026-05-02T13:46:59.999Z</time></trkpt><trkpt lat="43.38275949834668" lon="13.159070493393004"><ele>354.5</ele><time>2026-05-02T13:47:00.999Z</time></trkpt><trkpt lat="43.38276708123141" lon="13.159240524984172"><ele>352.0</ele><time>2026-05-02T13:47:01.999Z</time></trkpt><trkpt lat="43.38277800655258" lon="13.159403354662006"><ele>349.5</ele><time>2026-05-02T13:47:02.999Z</time></trkpt><trkpt lat="43.38280233244094" lon="13.159566447387094"><ele>347.0</ele><time>2026-05-02T13:47:03.999Z</time></trkpt><trkpt lat="43.382852134398505" lon="13.159717342273668"><ele>347.0</ele><time>2026-05-02T13:47:04.999Z</time></trkpt><trkpt lat="43.38293267617082" lon="13.159852079690117"><ele>347.0</ele><time>2026-05-02T13:47:05.999Z</time></trkpt><trkpt lat="43.383035841814014" lon="13.159970649631278"><ele>347.0</ele><time>2026-05-02T13:47:06.999Z</time></trkpt><trkpt lat="43.38315520740743" lon="13.160063694614731"><ele>347.0</ele><time>2026-05-02T13:47:07.999Z</time></trkpt><trkpt lat="43.383281220102305" lon="13.160142448559084"><ele>349.5</ele><time>2026-05-02T13:47:08.999Z</time></trkpt><trkpt lat="43.383409861364576" lon="13.16022341041322"><ele>352.0</ele><time>2026-05-02T13:47:09.999Z</time></trkpt><trkpt lat="43.38352147680386" lon="13.160298566344865"><ele>354.5</ele><time>2026-05-02T13:47:10.999Z</time></trkpt><trkpt lat="43.38363158209785" lon="13.160373265178631"><ele>357.0</ele><time>2026-05-02T13:47:11.999Z</time></trkpt><trkpt lat="43.38373086705054" lon="13.160442848746104"><ele>357.0</ele><time>2026-05-02T13:47:12.999Z</time></trkpt><trkpt lat="43.38382344435853" lon="13.160512077050637"><ele>357.0</ele><time>2026-05-02T13:47:13.999Z</time></trkpt><trkpt lat="43.38390822822769" lon="13.160597244168954"><ele>357.0</ele><time>2026-05-02T13:47:14.999Z</time></trkpt><trkpt lat="43.38399047657546" lon="13.16070378803759"><ele>357.0</ele><time>2026-05-02T13:47:15.999Z</time></trkpt><trkpt lat="43.38405525185017" lon="13.160840538292037"><ele>357.0</ele><time>2026-05-02T13:47:16.999Z</time></trkpt><trkpt lat="43.384102268882835" lon="13.160995631839937"><ele>356.5</ele><time>2026-05-02T13:47:17.999Z</time></trkpt><trkpt lat="43.384162520067875" lon="13.161150495007979"><ele>356.0</ele><time>2026-05-02T13:47:18.999Z</time></trkpt><trkpt lat="43.38423726561711" lon="13.161281389340841"><ele>355.5</ele><time>2026-05-02T13:47:19.999Z</time></trkpt><trkpt lat="43.38434306466505" lon="13.161376579410245"><ele>355.0</ele><time>2026-05-02T13:47:20.999Z</time></trkpt><trkpt lat="43.384455147188504" lon="13.161449856647426"><ele>355.0</ele><time>2026-05-02T13:47:21.999Z</time></trkpt><trkpt lat="43.38457241069994" lon="13.16151952825112"><ele>355.0</ele><time>2026-05-02T13:47:22.999Z</time></trkpt><trkpt lat="43.3846940841784" lon="13.161587292036339"><ele>355.0</ele><time>2026-05-02T13:47:23.999Z</time></trkpt><trkpt lat="43.38480646716419" lon="13.16165887385782"><ele>355.0</ele><time>2026-05-02T13:47:24.999Z</time></trkpt><trkpt lat="43.38491133862075" lon="13.161742557756233"><ele>353.5</ele><time>2026-05-02T13:47:25.999Z</time></trkpt><trkpt lat="43.385015343567055" lon="13.161842964946063"><ele>352.0</ele><time>2026-05-02T13:47:26.999Z</time></trkpt><trkpt lat="43.38510443721629" lon="13.161975719262415"><ele>350.5</ele><time>2026-05-02T13:47:27.999Z</time></trkpt><trkpt lat="43.38517578728445" lon="13.16211111165094"><ele>349.0</ele><time>2026-05-02T13:47:28.999Z</time></trkpt><trkpt lat="43.38524877080198" lon="13.162256296137437"><ele>349.75</ele><time>2026-05-02T13:47:29.999Z</time></trkpt><trkpt lat="43.3853237604618" lon="13.162411356788807"><ele>350.5</ele><time>2026-05-02T13:47:30.999Z</time></trkpt><trkpt lat="43.385402461470186" lon="13.162559161819287"><ele>351.25</ele><time>2026-05-02T13:47:31.999Z</time></trkpt><trkpt lat="43.38549612119254" lon="13.162694899669019"><ele>352.0</ele><time>2026-05-02T13:47:32.999Z</time></trkpt><trkpt lat="43.385607657113255" lon="13.16282491150468"><ele>352.0</ele><time>2026-05-02T13:47:33.999Z</time></trkpt><trkpt lat="43.38574839650738" lon="13.16294012460269"><ele>352.0</ele><time>2026-05-02T13:47:35Z</time></trkpt><trkpt lat="43.38585737076629" lon="13.163032103881616"><ele>352.0</ele><time>2026-05-02T13:47:36Z</time></trkpt><trkpt lat="43.38597718204615" lon="13.163130428744031"><ele>352.0</ele><time>2026-05-02T13:47:37Z</time></trkpt><trkpt lat="43.38608807237606" lon="13.163235482756043"><ele>353.75</ele><time>2026-05-02T13:47:38Z</time></trkpt><trkpt lat="43.38617631326253" lon="13.163373390101926"><ele>355.5</ele><time>2026-05-02T13:47:39Z</time></trkpt><trkpt lat="43.38625026415427" lon="13.163541038977046"><ele>357.25</ele><time>2026-05-02T13:47:40Z</time></trkpt><trkpt lat="43.38631483631271" lon="13.163723699510559"><ele>359.0</ele><time>2026-05-02T13:47:41Z</time></trkpt><trkpt lat="43.38637607215248" lon="13.163901874386022"><ele>351.5</ele><time>2026-05-02T13:47:42Z</time></trkpt><trkpt lat="43.38644317857819" lon="13.16407826521652"><ele>344.0</ele><time>2026-05-02T13:47:43Z</time></trkpt><trkpt lat="43.38651080715161" lon="13.164245058882262"><ele>336.5</ele><time>2026-05-02T13:47:44Z</time></trkpt><trkpt lat="43.38658124514371" lon="13.164395104117261"><ele>329.0</ele><time>2026-05-02T13:47:45Z</time></trkpt><trkpt lat="43.386676297037575" lon="13.16453062113161"><ele>329.0</ele><time>2026-05-02T13:47:46Z</time></trkpt><trkpt lat="43.38679848524703" lon="13.164647343899022"><ele>329.0</ele><time>2026-05-02T13:47:47Z</time></trkpt><trkpt lat="43.386901145637495" lon="13.164767123377086"><ele>329.0</ele><time>2026-05-02T13:47:48Z</time></trkpt><trkpt lat="43.38700010842466" lon="13.164877497874299"><ele>329.0</ele><time>2026-05-02T13:47:49Z</time></trkpt><trkpt lat="43.387100571706775" lon="13.16497343528695"><ele>326.75</ele><time>2026-05-02T13:47:50Z</time></trkpt><trkpt lat="43.387205115294506" lon="13.165046656213256"><ele>324.5</ele><time>2026-05-02T13:47:51Z</time></trkpt><trkpt lat="43.3873161913813" lon="13.16507647476923"><ele>322.25</ele><time>2026-05-02T13:47:52Z</time></trkpt><trkpt lat="43.38743843002352" lon="13.165059630965242"><ele>320.0</ele><time>2026-05-02T13:47:53Z</time></trkpt><trkpt lat="43.387557762003205" lon="13.165018915215697"><ele>320.0</ele><time>2026-05-02T13:47:54Z</time></trkpt><trkpt lat="43.38768975010061" lon="13.164975437207785"><ele>320.0</ele><time>2026-05-02T13:47:55Z</time></trkpt><trkpt lat="43.387822605172886" lon="13.16490739735231"><ele>320.0</ele><time>2026-05-02T13:47:56Z</time></trkpt><trkpt lat="43.38795071697309" lon="13.164854197321558"><ele>320.0</ele><time>2026-05-02T13:47:57Z</time></trkpt><trkpt lat="43.38808263612294" lon="13.16479887515031"><ele>326.8</ele><time>2026-05-02T13:47:58Z</time></trkpt><trkpt lat="43.38817045004552" lon="13.164795215065253"><ele>333.6</ele><time>2026-05-02T13:47:59Z</time></trkpt><trkpt lat="43.3882825902264" lon="13.16474819158189"><ele>340.4</ele><time>2026-05-02T13:48:00Z</time></trkpt><trkpt lat="43.38838863486324" lon="13.164706695659902"><ele>347.2</ele><time>2026-05-02T13:48:01Z</time></trkpt><trkpt lat="43.38848284510254" lon="13.164686405988082"><ele>354.0</ele><time>2026-05-02T13:48:02Z</time></trkpt><trkpt lat="43.38857251598479" lon="13.164690610748794"><ele>354.0</ele><time>2026-05-02T13:48:03Z</time></trkpt><trkpt lat="43.388667594387584" lon="13.1647424918893"><ele>354.0</ele><time>2026-05-02T13:48:04Z</time></trkpt><trkpt lat="43.38874925183371" lon="13.164833237587759"><ele>354.0</ele><time>2026-05-02T13:48:05Z</time></trkpt><trkpt lat="43.38881223182696" lon="13.164986023253533"><ele>354.0</ele><time>2026-05-02T13:48:06Z</time></trkpt><trkpt lat="43.38883856024298" lon="13.165143840514363"><ele>345.5</ele><time>2026-05-02T13:48:07Z</time></trkpt><trkpt lat="43.38879573700241" lon="13.165300923258183"><ele>337.0</ele><time>2026-05-02T13:48:08Z</time></trkpt><trkpt lat="43.388746207395556" lon="13.165438989928468"><ele>328.5</ele><time>2026-05-02T13:48:09Z</time></trkpt><trkpt lat="43.38866028422121" lon="13.16553438314211"><ele>320.0</ele><time>2026-05-02T13:48:10Z</time></trkpt><trkpt lat="43.388555278729875" lon="13.165583806709002"><ele>320.0</ele><time>2026-05-02T13:48:11Z</time></trkpt><trkpt lat="43.38844962331886" lon="13.165612591431483"><ele>320.0</ele><time>2026-05-02T13:48:12Z</time></trkpt><trkpt lat="43.38835264493674" lon="13.165594531691195"><ele>320.0</ele><time>2026-05-02T13:48:13Z</time></trkpt><trkpt lat="43.38826076890549" lon="13.16554762452634"><ele>320.0</ele><time>2026-05-02T13:48:14Z</time></trkpt><trkpt lat="43.38816515026393" lon="13.16551140723906"><ele>320.0</ele><time>2026-05-02T13:48:15Z</time></trkpt><trkpt lat="43.38806871546085" lon="13.165475619180798"><ele>320.0</ele><time>2026-05-02T13:48:16Z</time></trkpt><trkpt lat="43.38798465332305" lon="13.165451836114686"><ele>320.0</ele><time>2026-05-02T13:48:17Z</time></trkpt><trkpt lat="43.387912030458786" lon="13.165451704973826"><ele>320.0</ele><time>2026-05-02T13:48:18Z</time></trkpt><trkpt lat="43.387834649577705" lon="13.1654430061649"><ele>320.0</ele><time>2026-05-02T13:48:19Z</time></trkpt><trkpt lat="43.38775165956744" lon="13.165459225378136"><ele>320.0</ele><time>2026-05-02T13:48:20Z</time></trkpt><trkpt lat="43.387637943542366" lon="13.16551586654686"><ele>320.0</ele><time>2026-05-02T13:48:21Z</time></trkpt><trkpt lat="43.387550137865254" lon="13.16554235973766"><ele>320.0</ele><time>2026-05-02T13:48:22Z</time></trkpt><trkpt lat="43.38747296259097" lon="13.165592540698222"><ele>320.0</ele><time>2026-05-02T13:48:23Z</time></trkpt><trkpt lat="43.38739399704686" lon="13.16569390779315"><ele>320.0</ele><time>2026-05-02T13:48:24Z</time></trkpt><trkpt lat="43.38730945877448" lon="13.165897243235898"><ele>320.0</ele><time>2026-05-02T13:48:25Z</time></trkpt><trkpt lat="43.38715918207957" lon="13.166120146329497"><ele>312.0</ele><time>2026-05-02T13:48:26Z</time></trkpt><trkpt lat="43.386883600611" lon="13.16612913253319"><ele>304.0</ele><time>2026-05-02T13:48:27Z</time></trkpt><trkpt lat="43.38676800562368" lon="13.166238501076586"><ele>296.0</ele><time>2026-05-02T13:48:28Z</time></trkpt><trkpt lat="43.38663312029661" lon="13.166341576849534"><ele>296.0</ele><time>2026-05-02T13:48:29Z</time></trkpt><trkpt lat="43.38647548218918" lon="13.16644081920705"><ele>296.0</ele><time>2026-05-02T13:48:30Z</time></trkpt><trkpt lat="43.38628357757194" lon="13.166680606045738"><ele>296.0</ele><time>2026-05-02T13:48:31Z</time></trkpt><trkpt lat="43.38609976604458" lon="13.166863369270935"><ele>296.6666666666667</ele><time>2026-05-02T13:48:32Z</time></trkpt><trkpt lat="43.3859281415882" lon="13.167025273472184"><ele>297.3333333333333</ele><time>2026-05-02T13:48:33Z</time></trkpt><trkpt lat="43.38577944473866" lon="13.167159247944758"><ele>298.0</ele><time>2026-05-02T13:48:34Z</time></trkpt><trkpt lat="43.38564759795593" lon="13.167302039591826"><ele>298.66666666666663</ele><time>2026-05-02T13:48:35Z</time></trkpt><trkpt lat="43.38552175559802" lon="13.167461549718901"><ele>299.3333333333333</ele><time>2026-05-02T13:48:36Z</time></trkpt><trkpt lat="43.38539734964489" lon="13.167648934063187"><ele>300.0</ele><time>2026-05-02T13:48:37Z</time></trkpt><trkpt lat="43.38528313852318" lon="13.16784781346083"><ele>309.6666666666667</ele><time>2026-05-02T13:48:38Z</time></trkpt><trkpt lat="43.385187390417855" lon="13.168055146548559"><ele>319.33333333333337</ele><time>2026-05-02T13:48:39Z</time></trkpt><trkpt lat="43.385101012920124" lon="13.168240976801766"><ele>329.0</ele><time>2026-05-02T13:48:40Z</time></trkpt><trkpt lat="43.385039976237856" lon="13.168417441183973"><ele>329.0</ele><time>2026-05-02T13:48:41Z</time></trkpt><trkpt lat="43.384998608718945" lon="13.168581350949111"><ele>329.0</ele><time>2026-05-02T13:48:42Z</time></trkpt><trkpt lat="43.38499962407372" lon="13.16875900402443"><ele>329.0</ele><time>2026-05-02T13:48:43Z</time></trkpt><trkpt lat="43.38506289344366" lon="13.168960239139771"><ele>329.0</ele><time>2026-05-02T13:48:44Z</time></trkpt><trkpt lat="43.385134584696" lon="13.169178219989204"><ele>330.0</ele><time>2026-05-02T13:48:45Z</time></trkpt><trkpt lat="43.38518924214149" lon="13.169425225687004"><ele>331.0</ele><time>2026-05-02T13:48:46Z</time></trkpt><trkpt lat="43.38519839188686" lon="13.169694409499458"><ele>332.0</ele><time>2026-05-02T13:48:47Z</time></trkpt><trkpt lat="43.38521665810812" lon="13.169968221762652"><ele>335.33333333333337</ele><time>2026-05-02T13:48:48Z</time></trkpt><trkpt lat="43.385232552610525" lon="13.170235128059204"><ele>338.6666666666667</ele><time>2026-05-02T13:48:49Z</time></trkpt><trkpt lat="43.385265783655015" lon="13.170489165153331"><ele>342.0</ele><time>2026-05-02T13:48:50Z</time></trkpt><trkpt lat="43.38534477927424" lon="13.170759326578217"><ele>347.3333333333333</ele><time>2026-05-02T13:48:51Z</time></trkpt><trkpt lat="43.385427887277935" lon="13.171022715610334"><ele>352.66666666666663</ele><time>2026-05-02T13:48:52Z</time></trkpt><trkpt lat="43.385526952099504" lon="13.171270277272287"><ele>358.0</ele><time>2026-05-02T13:48:53Z</time></trkpt><trkpt lat="43.385623256296796" lon="13.17147166014177"><ele>349.25</ele><time>2026-05-02T13:48:54Z</time></trkpt><trkpt lat="43.38570465274794" lon="13.171648547749706"><ele>340.5</ele><time>2026-05-02T13:48:55Z</time></trkpt><trkpt lat="43.38578399417685" lon="13.17180224924023"><ele>331.75</ele><time>2026-05-02T13:48:56Z</time></trkpt><trkpt lat="43.385849324137446" lon="13.171986078613227"><ele>323.0</ele><time>2026-05-02T13:48:57Z</time></trkpt><trkpt lat="43.385877249115985" lon="13.172193991194902"><ele>324.6666666666667</ele><time>2026-05-02T13:48:58Z</time></trkpt><trkpt lat="43.38586667460905" lon="13.172420456440667"><ele>326.3333333333333</ele><time>2026-05-02T13:48:59Z</time></trkpt><trkpt lat="43.38576978156844" lon="13.172611645632523"><ele>328.0</ele><time>2026-05-02T13:49:00Z</time></trkpt><trkpt lat="43.385648814923506" lon="13.172832458813632"><ele>328.0</ele><time>2026-05-02T13:49:01Z</time></trkpt><trkpt lat="43.385536289550004" lon="13.173065324027188"><ele>328.0</ele><time>2026-05-02T13:49:02Z</time></trkpt><trkpt lat="43.38536511593513" lon="13.173327926026362"><ele>333.0</ele><time>2026-05-02T13:49:03Z</time></trkpt><trkpt lat="43.385224062634414" lon="13.17360750492151"><ele>338.0</ele><time>2026-05-02T13:49:04Z</time></trkpt><trkpt lat="43.38508028018424" lon="13.173903765860912"><ele>336.5</ele><time>2026-05-02T13:49:05Z</time></trkpt><trkpt lat="43.384944657444" lon="13.174237751779785"><ele>335.0</ele><time>2026-05-02T13:49:06Z</time></trkpt><trkpt lat="43.38481575819269" lon="13.17456570278691"><ele>345.5</ele><time>2026-05-02T13:49:07Z</time></trkpt><trkpt lat="43.384665016876674" lon="13.174899698835624"><ele>356.0</ele><time>2026-05-02T13:49:08Z</time></trkpt><trkpt lat="43.38451534110065" lon="13.175232860562414"><ele>356.0</ele><time>2026-05-02T13:49:09Z</time></trkpt><trkpt lat="43.38439417074295" lon="13.175524794336086"><ele>356.0</ele><time>2026-05-02T13:49:10Z</time></trkpt><trkpt lat="43.38428450093436" lon="13.175725533429034"><ele>356.0</ele><time>2026-05-02T13:49:11Z</time></trkpt><trkpt lat="43.38422899145552" lon="13.17592332579068"><ele>354.0</ele><time>2026-05-02T13:49:12Z</time></trkpt><trkpt lat="43.384183815605454" lon="13.176072635687627"><ele>352.0</ele><time>2026-05-02T13:49:13Z</time></trkpt><trkpt lat="43.38417680601375" lon="13.1762836708285"><ele>350.0</ele><time>2026-05-02T13:49:14Z</time></trkpt><trkpt lat="43.38422750715628" lon="13.176539101253427"><ele>349.33333333333337</ele><time>2026-05-02T13:49:15Z</time></trkpt><trkpt lat="43.38427792877898" lon="13.176802975378687"><ele>348.6666666666667</ele><time>2026-05-02T13:49:16Z</time></trkpt><trkpt lat="43.38434636678357" lon="13.177060641462361"><ele>348.0</ele><time>2026-05-02T13:49:17Z</time></trkpt><trkpt lat="43.38442774974839" lon="13.17729885169543"><ele>347.0</ele><time>2026-05-02T13:49:18Z</time></trkpt><trkpt lat="43.38448767419667" lon="13.17749520555593"><ele>346.0</ele><time>2026-05-02T13:49:19Z</time></trkpt><trkpt lat="43.38450583448797" lon="13.177740856092289"><ele>345.0</ele><time>2026-05-02T13:49:20Z</time></trkpt><trkpt lat="43.384531286994616" lon="13.177988300991883"><ele>342.3333333333333</ele><time>2026-05-02T13:49:20.999Z</time></trkpt><trkpt lat="43.38447116691789" lon="13.178202075846919"><ele>339.66666666666663</ele><time>2026-05-02T13:49:21.999Z</time></trkpt><trkpt lat="43.38437921466438" lon="13.178388269832272"><ele>337.0</ele><time>2026-05-02T13:49:22.999Z</time></trkpt><trkpt lat="43.38426101259953" lon="13.178525348225778"><ele>337.0</ele><time>2026-05-02T13:49:23.999Z</time></trkpt><trkpt lat="43.384094432348945" lon="13.178668009650545"><ele>337.0</ele><time>2026-05-02T13:49:24.999Z</time></trkpt><trkpt lat="43.38390879470293" lon="13.178834007462518"><ele>337.0</ele><time>2026-05-02T13:49:25.999Z</time></trkpt><trkpt lat="43.383692665094024" lon="13.178950317327839"><ele>333.5</ele><time>2026-05-02T13:49:26.999Z</time></trkpt><trkpt lat="43.38348981770865" lon="13.179135623143548"><ele>330.0</ele><time>2026-05-02T13:49:27.999Z</time></trkpt><trkpt lat="43.383316819944646" lon="13.179289876724543"><ele>330.0</ele><time>2026-05-02T13:49:28.999Z</time></trkpt><trkpt lat="43.38314193037065" lon="13.179424273020357"><ele>330.0</ele><time>2026-05-02T13:49:29.999Z</time></trkpt><trkpt lat="43.382963609455885" lon="13.179568416159464"><ele>330.0</ele><time>2026-05-02T13:49:30.999Z</time></trkpt><trkpt lat="43.38278229282558" lon="13.179708580847512"><ele>329.0</ele><time>2026-05-02T13:49:31.999Z</time></trkpt><trkpt lat="43.38258236782382" lon="13.179836586338734"><ele>328.0</ele><time>2026-05-02T13:49:32.999Z</time></trkpt><trkpt lat="43.38236886364884" lon="13.179973557731442"><ele>334.0</ele><time>2026-05-02T13:49:33.999Z</time></trkpt><trkpt lat="43.38217219490364" lon="13.18009957508561"><ele>340.0</ele><time>2026-05-02T13:49:34.999Z</time></trkpt><trkpt lat="43.38202242303528" lon="13.180194611427844"><ele>346.0</ele><time>2026-05-02T13:49:35.999Z</time></trkpt><trkpt lat="43.381905514298154" lon="13.180285911173344"><ele>346.0</ele><time>2026-05-02T13:49:36.999Z</time></trkpt><trkpt lat="43.38181390929814" lon="13.180370871816772"><ele>346.0</ele><time>2026-05-02T13:49:37.999Z</time></trkpt><trkpt lat="43.38173976845324" lon="13.180493093170362"><ele>346.0</ele><time>2026-05-02T13:49:38.999Z</time></trkpt><trkpt lat="43.381756790264355" lon="13.180665949865848"><ele>346.0</ele><time>2026-05-02T13:49:39.999Z</time></trkpt><trkpt lat="43.381811622291636" lon="13.18082883315011"><ele>343.25</ele><time>2026-05-02T13:49:40.999Z</time></trkpt><trkpt lat="43.38191047377622" lon="13.180963150373746"><ele>340.5</ele><time>2026-05-02T13:49:41.999Z</time></trkpt><trkpt lat="43.38202493607673" lon="13.180991442212829"><ele>337.75</ele><time>2026-05-02T13:49:42.999Z</time></trkpt><trkpt lat="43.3821468866917" lon="13.180952330319252"><ele>335.0</ele><time>2026-05-02T13:49:43.999Z</time></trkpt><trkpt lat="43.38235665609442" lon="13.180955820015177"><ele>332.5</ele><time>2026-05-02T13:49:45Z</time></trkpt><trkpt lat="43.38266080858828" lon="13.180953741168919"><ele>330.0</ele><time>2026-05-02T13:49:46Z</time></trkpt><trkpt lat="43.38298173401444" lon="13.180996758627796"><ele>334.5</ele><time>2026-05-02T13:49:47Z</time></trkpt><trkpt lat="43.38325865717488" lon="13.18101187690348"><ele>339.0</ele><time>2026-05-02T13:49:48Z</time></trkpt><trkpt lat="43.383449922301665" lon="13.180957251856707"><ele>339.0</ele><time>2026-05-02T13:49:49Z</time></trkpt><trkpt lat="43.38362067863594" lon="13.180915065861095"><ele>339.0</ele><time>2026-05-02T13:49:50Z</time></trkpt><trkpt lat="43.383831608333416" lon="13.180906672720123"><ele>339.0</ele><time>2026-05-02T13:49:51Z</time></trkpt><trkpt lat="43.384140631027016" lon="13.18087050839501"><ele>340.3333333333333</ele><time>2026-05-02T13:49:52Z</time></trkpt><trkpt lat="43.38434246128166" lon="13.180922289542263"><ele>341.66666666666663</ele><time>2026-05-02T13:49:53Z</time></trkpt><trkpt lat="43.384539811212974" lon="13.180988887127494"><ele>343.0</ele><time>2026-05-02T13:49:54Z</time></trkpt><trkpt lat="43.384723322134136" lon="13.181160827785353"><ele>343.0</ele><time>2026-05-02T13:49:55Z</time></trkpt><trkpt lat="43.38490635658149" lon="13.181355608080885"><ele>343.0</ele><time>2026-05-02T13:49:56Z</time></trkpt><trkpt lat="43.3850835079985" lon="13.181586677424908"><ele>352.0</ele><time>2026-05-02T13:49:57Z</time></trkpt><trkpt lat="43.385263531974665" lon="13.18182369054998"><ele>361.0</ele><time>2026-05-02T13:49:58Z</time></trkpt><trkpt lat="43.38542038654053" lon="13.182095436373274"><ele>362.0</ele><time>2026-05-02T13:49:59Z</time></trkpt><trkpt lat="43.38556978113972" lon="13.182404741651965"><ele>363.0</ele><time>2026-05-02T13:50:00Z</time></trkpt><trkpt lat="43.38571305531304" lon="13.1827384784051"><ele>363.0</ele><time>2026-05-02T13:50:01Z</time></trkpt><trkpt lat="43.38584794403575" lon="13.183058777852802"><ele>363.0</ele><time>2026-05-02T13:50:02Z</time></trkpt><trkpt lat="43.38599095556916" lon="13.18340553879496"><ele>371.0</ele><time>2026-05-02T13:50:03Z</time></trkpt><trkpt lat="43.38615499401729" lon="13.183739389795834"><ele>379.0</ele><time>2026-05-02T13:50:04Z</time></trkpt><trkpt lat="43.38630638088971" lon="13.184093977966148"><ele>373.0</ele><time>2026-05-02T13:50:05Z</time></trkpt><trkpt lat="43.38645495333926" lon="13.184455400905295"><ele>367.0</ele><time>2026-05-02T13:50:06Z</time></trkpt><trkpt lat="43.386595585370166" lon="13.184828638619255"><ele>376.5</ele><time>2026-05-02T13:50:07Z</time></trkpt><trkpt lat="43.38673251759623" lon="13.185201200911402"><ele>386.0</ele><time>2026-05-02T13:50:08Z</time></trkpt><trkpt lat="43.38689096261818" lon="13.185573477968141"><ele>380.0</ele><time>2026-05-02T13:50:09Z</time></trkpt><trkpt lat="43.38703580814091" lon="13.18595087523051"><ele>374.0</ele><time>2026-05-02T13:50:10Z</time></trkpt><trkpt lat="43.3871846999913" lon="13.18632640786501"><ele>383.5</ele><time>2026-05-02T13:50:11Z</time></trkpt><trkpt lat="43.387333710864596" lon="13.186702740374114"><ele>393.0</ele><time>2026-05-02T13:50:12Z</time></trkpt><trkpt lat="43.38747739098954" lon="13.187055560430178"><ele>403.5</ele><time>2026-05-02T13:50:13Z</time></trkpt><trkpt lat="43.38761170406896" lon="13.187379555294783"><ele>414.0</ele><time>2026-05-02T13:50:14Z</time></trkpt><trkpt lat="43.387765113483624" lon="13.187675372151864"><ele>414.0</ele><time>2026-05-02T13:50:15Z</time></trkpt><trkpt lat="43.38794925681609" lon="13.187969991952482"><ele>414.0</ele><time>2026-05-02T13:50:16Z</time></trkpt><trkpt lat="43.388135312675985" lon="13.188273818349307"><ele>411.0</ele><time>2026-05-02T13:50:17Z</time></trkpt><trkpt lat="43.38831111724883" lon="13.188591860706042"><ele>408.0</ele><time>2026-05-02T13:50:18Z</time></trkpt><trkpt lat="43.388479108158705" lon="13.188940787337572"><ele>419.0</ele><time>2026-05-02T13:50:19Z</time></trkpt><trkpt lat="43.38865482169346" lon="13.189286287155172"><ele>430.0</ele><time>2026-05-02T13:50:20Z</time></trkpt><trkpt lat="43.38882898897346" lon="13.189636966732142"><ele>426.0</ele><time>2026-05-02T13:50:21Z</time></trkpt><trkpt lat="43.388982169558744" lon="13.18995038522626"><ele>422.0</ele><time>2026-05-02T13:50:22Z</time></trkpt><trkpt lat="43.389121743338016" lon="13.19021667607026"><ele>422.0</ele><time>2026-05-02T13:50:23Z</time></trkpt><trkpt lat="43.389237281390635" lon="13.190467314274963"><ele>422.0</ele><time>2026-05-02T13:50:24Z</time></trkpt><trkpt lat="43.3893290008907" lon="13.190718588889883"><ele>422.0</ele><time>2026-05-02T13:50:25Z</time></trkpt><trkpt lat="43.38939474186889" lon="13.191010216385694"><ele>425.66666666666663</ele><time>2026-05-02T13:50:26Z</time></trkpt><trkpt lat="43.389416812186354" lon="13.191331977016485"><ele>429.33333333333337</ele><time>2026-05-02T13:50:27Z</time></trkpt><trkpt lat="43.38939267252678" lon="13.191598636215064"><ele>433.0</ele><time>2026-05-02T13:50:28Z</time></trkpt><trkpt lat="43.389327321942105" lon="13.191872218839956"><ele>435.0</ele><time>2026-05-02T13:50:29Z</time></trkpt><trkpt lat="43.38926943985624" lon="13.192159862429305"><ele>437.0</ele><time>2026-05-02T13:50:30Z</time></trkpt><trkpt lat="43.38922535477501" lon="13.192409414959796"><ele>439.0</ele><time>2026-05-02T13:50:31Z</time></trkpt><trkpt lat="43.38918252574932" lon="13.19263444602021"><ele>440.5</ele><time>2026-05-02T13:50:32Z</time></trkpt><trkpt lat="43.389139592694725" lon="13.192835759899346"><ele>442.0</ele><time>2026-05-02T13:50:33Z</time></trkpt><trkpt lat="43.38909116374097" lon="13.193002506969643"><ele>443.5</ele><time>2026-05-02T13:50:34Z</time></trkpt><trkpt lat="43.38900642015498" lon="13.193160162313058"><ele>445.0</ele><time>2026-05-02T13:50:35Z</time></trkpt><trkpt lat="43.388894079725844" lon="13.193294079888986"><ele>449.0</ele><time>2026-05-02T13:50:36Z</time></trkpt><trkpt lat="43.388742931619554" lon="13.193428686364447"><ele>453.0</ele><time>2026-05-02T13:50:37Z</time></trkpt><trkpt lat="43.38856795707006" lon="13.193532515875035"><ele>457.0</ele><time>2026-05-02T13:50:38Z</time></trkpt><trkpt lat="43.38842100541654" lon="13.193641440766285"><ele>457.0</ele><time>2026-05-02T13:50:39Z</time></trkpt><trkpt lat="43.38828002737002" lon="13.193727931752747"><ele>457.0</ele><time>2026-05-02T13:50:40Z</time></trkpt><trkpt lat="43.38811075838081" lon="13.193721577936339"><ele>457.0</ele><time>2026-05-02T13:50:41Z</time></trkpt><trkpt lat="43.38797688499011" lon="13.193850969496395"><ele>457.0</ele><time>2026-05-02T13:50:42Z</time></trkpt><trkpt lat="43.387815835258635" lon="13.193938561633816"><ele>457.0</ele><time>2026-05-02T13:50:43Z</time></trkpt><trkpt lat="43.38765357286848" lon="13.194027370032089"><ele>457.0</ele><time>2026-05-02T13:50:44Z</time></trkpt><trkpt lat="43.38752596089715" lon="13.194098443053829"><ele>457.0</ele><time>2026-05-02T13:50:45Z</time></trkpt><trkpt lat="43.38742604882251" lon="13.194154727038242"><ele>457.00000000000006</ele><time>2026-05-02T13:50:46Z</time></trkpt><trkpt lat="43.38735147530331" lon="13.194174973480989"><ele>457.00000000000006</ele><time>2026-05-02T13:50:47Z</time></trkpt><trkpt lat="43.38729076308068" lon="13.194144011979727"><ele>457.0</ele><time>2026-05-02T13:50:48Z</time></trkpt><trkpt lat="43.387288126094816" lon="13.19401244537503"><ele>457.0</ele><time>2026-05-02T13:50:49Z</time></trkpt><trkpt lat="43.387405245482384" lon="13.193826056013767"><ele>460.0</ele><time>2026-05-02T13:50:51Z</time></trkpt><trkpt lat="43.38747498559557" lon="13.193688889155712"><ele>463.0</ele><time>2026-05-02T13:50:52Z</time></trkpt><trkpt lat="43.38757721673632" lon="13.193541053945737"><ele>466.0</ele><time>2026-05-02T13:50:53Z</time></trkpt><trkpt lat="43.38764345888208" lon="13.193358007632327"><ele>469.0</ele><time>2026-05-02T13:50:54Z</time></trkpt><trkpt lat="43.38768588214877" lon="13.19310963726183"><ele>471.6666666666667</ele><time>2026-05-02T13:50:55Z</time></trkpt><trkpt lat="43.387707960330665" lon="13.192869230183181"><ele>474.33333333333337</ele><time>2026-05-02T13:50:56Z</time></trkpt><trkpt lat="43.38769437092175" lon="13.19275811004816"><ele>477.0</ele><time>2026-05-02T13:50:57Z</time></trkpt><trkpt lat="43.387719371882326" lon="13.192466886376259"><ele>477.8</ele><time>2026-05-02T13:50:58Z</time></trkpt><trkpt lat="43.387714573752994" lon="13.192308018049221"><ele>478.6</ele><time>2026-05-02T13:50:59Z</time></trkpt><trkpt lat="43.38769430155771" lon="13.192151203450113"><ele>479.40000000000003</ele><time>2026-05-02T13:51:00Z</time></trkpt><trkpt lat="43.38766145847009" lon="13.192002626809751"><ele>480.20000000000005</ele><time>2026-05-02T13:51:01Z</time></trkpt><trkpt lat="43.38763532217907" lon="13.191870139231693"><ele>481.0</ele><time>2026-05-02T13:51:02Z</time></trkpt><trkpt lat="43.38760356298151" lon="13.191772758128215"><ele>481.00000000000006</ele><time>2026-05-02T13:51:03Z</time></trkpt><trkpt lat="43.387551967541775" lon="13.191692133460258"><ele>481.0</ele><time>2026-05-02T13:51:04Z</time></trkpt><trkpt lat="43.38747594806423" lon="13.191656119621808"><ele>481.0</ele><time>2026-05-02T13:51:05Z</time></trkpt><trkpt lat="43.387378440321775" lon="13.191698940096563"><ele>481.0</ele><time>2026-05-02T13:51:06Z</time></trkpt><trkpt lat="43.38731962355413" lon="13.191785260501629"><ele>481.00000000000006</ele><time>2026-05-02T13:51:07Z</time></trkpt><trkpt lat="43.387264205495356" lon="13.191888775920894"><ele>481.0</ele><time>2026-05-02T13:51:08Z</time></trkpt><trkpt lat="43.387207789760225" lon="13.191978557366383"><ele>481.83333333333337</ele><time>2026-05-02T13:51:09Z</time></trkpt><trkpt lat="43.38716446506216" lon="13.19205801279147"><ele>482.6666666666667</ele><time>2026-05-02T13:51:10Z</time></trkpt><trkpt lat="43.38710799189956" lon="13.192143719120866"><ele>483.5</ele><time>2026-05-02T13:51:11Z</time></trkpt><trkpt lat="43.38704796025921" lon="13.192216376090002"><ele>484.33333333333337</ele><time>2026-05-02T13:51:12Z</time></trkpt><trkpt lat="43.38698946496827" lon="13.19228131129033"><ele>485.1666666666667</ele><time>2026-05-02T13:51:13Z</time></trkpt><trkpt lat="43.3869188463768" lon="13.192329202802036"><ele>486.0</ele><time>2026-05-02T13:51:14Z</time></trkpt><trkpt lat="43.386867870656836" lon="13.192380628609731"><ele>486.0</ele><time>2026-05-02T13:51:15Z</time></trkpt><trkpt lat="43.38680667859375" lon="13.192423426513534"><ele>486.0</ele><time>2026-05-02T13:51:16Z</time></trkpt><trkpt lat="43.38674057141914" lon="13.192431516764533"><ele>486.0</ele><time>2026-05-02T13:51:17Z</time></trkpt><trkpt lat="43.38667667979627" lon="13.192376399550506"><ele>486.0</ele><time>2026-05-02T13:51:18Z</time></trkpt><trkpt lat="43.38662930088655" lon="13.1922740106634"><ele>486.0</ele><time>2026-05-02T13:51:19Z</time></trkpt><trkpt lat="43.386653805522265" lon="13.192133975283035"><ele>486.0</ele><time>2026-05-02T13:51:20Z</time></trkpt><trkpt lat="43.386648598065044" lon="13.191957546669682"><ele>487.6</ele><time>2026-05-02T13:51:21Z</time></trkpt><trkpt lat="43.38666614989591" lon="13.191831928855807"><ele>489.20000000000005</ele><time>2026-05-02T13:51:22Z</time></trkpt><trkpt lat="43.3866674206348" lon="13.191687332826056"><ele>490.79999999999995</ele><time>2026-05-02T13:51:23Z</time></trkpt><trkpt lat="43.386668282983734" lon="13.191527821018203"><ele>492.4</ele><time>2026-05-02T13:51:24Z</time></trkpt><trkpt lat="43.38665569193415" lon="13.191392532925615"><ele>494.0</ele><time>2026-05-02T13:51:25Z</time></trkpt><trkpt lat="43.386632837838384" lon="13.1912609255274"><ele>494.4</ele><time>2026-05-02T13:51:26Z</time></trkpt><trkpt lat="43.386609653933924" lon="13.191148028497423"><ele>494.79999999999995</ele><time>2026-05-02T13:51:26.999Z</time></trkpt><trkpt lat="43.386585342438735" lon="13.191011796767883"><ele>495.20000000000005</ele><time>2026-05-02T13:51:27.999Z</time></trkpt><trkpt lat="43.38654899599306" lon="13.1908732591669"><ele>495.6</ele><time>2026-05-02T13:51:28.999Z</time></trkpt><trkpt lat="43.38650399729355" lon="13.190721127156012"><ele>496.0</ele><time>2026-05-02T13:51:29.999Z</time></trkpt><trkpt lat="43.386448953805875" lon="13.190573728875682"><ele>496.0</ele><time>2026-05-02T13:51:30.999Z</time></trkpt><trkpt lat="43.38637653504181" lon="13.1904292168887"><ele>496.0</ele><time>2026-05-02T13:51:31.999Z</time></trkpt><trkpt lat="43.386308173160565" lon="13.190292456450798"><ele>496.0</ele><time>2026-05-02T13:51:32.999Z</time></trkpt><trkpt lat="43.38623687250619" lon="13.190198964061942"><ele>496.0</ele><time>2026-05-02T13:51:33.999Z</time></trkpt><trkpt lat="43.38616890164217" lon="13.190096032196646"><ele>496.0</ele><time>2026-05-02T13:51:34.999Z</time></trkpt><trkpt lat="43.38609751565858" lon="13.18998647626913"><ele>498.0</ele><time>2026-05-02T13:51:35.999Z</time></trkpt><trkpt lat="43.3860288308264" lon="13.18987761589322"><ele>500.0</ele><time>2026-05-02T13:51:36.999Z</time></trkpt><trkpt lat="43.38595898417211" lon="13.18977068140891"><ele>502.0</ele><time>2026-05-02T13:51:37.999Z</time></trkpt><trkpt lat="43.38588793732058" lon="13.189663750038571"><ele>504.0</ele><time>2026-05-02T13:51:38.999Z</time></trkpt><trkpt lat="43.38581232930431" lon="13.189565845636064"><ele>506.0</ele><time>2026-05-02T13:51:39.999Z</time></trkpt><trkpt lat="43.38572575978386" lon="13.189466205690408"><ele>506.0</ele><time>2026-05-02T13:51:40.999Z</time></trkpt><trkpt lat="43.385633418335736" lon="13.189373657714079"><ele>506.0</ele><time>2026-05-02T13:51:41.999Z</time></trkpt><trkpt lat="43.38553785714572" lon="13.189293885709471"><ele>506.0</ele><time>2026-05-02T13:51:42.999Z</time></trkpt><trkpt lat="43.38542482958172" lon="13.189202900043076"><ele>506.0</ele><time>2026-05-02T13:51:44Z</time></trkpt><trkpt lat="43.38531963867597" lon="13.189145430058764"><ele>506.75</ele><time>2026-05-02T13:51:45Z</time></trkpt><trkpt lat="43.38521798977801" lon="13.189067594033139"><ele>507.5</ele><time>2026-05-02T13:51:46Z</time></trkpt><trkpt lat="43.385115023436114" lon="13.189013976673728"><ele>508.25</ele><time>2026-05-02T13:51:47Z</time></trkpt><trkpt lat="43.3850069609155" lon="13.188958083453608"><ele>509.0</ele><time>2026-05-02T13:51:48Z</time></trkpt><trkpt lat="43.384897540951286" lon="13.188935999304949"><ele>509.0</ele><time>2026-05-02T13:51:49Z</time></trkpt><trkpt lat="43.38478411130583" lon="13.188927500637183"><ele>509.0</ele><time>2026-05-02T13:51:50Z</time></trkpt><trkpt lat="43.38468023193932" lon="13.188912449846956"><ele>509.0</ele><time>2026-05-02T13:51:51Z</time></trkpt><trkpt lat="43.38457084099791" lon="13.18890682573182"><ele>509.0</ele><time>2026-05-02T13:51:52Z</time></trkpt><trkpt lat="43.38446713776351" lon="13.18889461342743"><ele>509.0</ele><time>2026-05-02T13:51:53Z</time></trkpt><trkpt lat="43.38435950256205" lon="13.18887984712672"><ele>509.4</ele><time>2026-05-02T13:51:54Z</time></trkpt><trkpt lat="43.384252723297244" lon="13.188904926024248"><ele>509.79999999999995</ele><time>2026-05-02T13:51:55Z</time></trkpt><trkpt lat="43.38415373245898" lon="13.188920078369932"><ele>510.20000000000005</ele><time>2026-05-02T13:51:56Z</time></trkpt><trkpt lat="43.384043383178145" lon="13.188910080968238"><ele>510.6</ele><time>2026-05-02T13:51:57Z</time></trkpt><trkpt lat="43.383937624604684" lon="13.188930592878332"><ele>511.0</ele><time>2026-05-02T13:51:58Z</time></trkpt><trkpt lat="43.38383580275208" lon="13.188993750650354"><ele>513.0</ele><time>2026-05-02T13:51:59Z</time></trkpt><trkpt lat="43.38375439588406" lon="13.189042696893042"><ele>515.0</ele><time>2026-05-02T13:52:00Z</time></trkpt><trkpt lat="43.38366152276172" lon="13.18908024634524"><ele>517.0</ele><time>2026-05-02T13:52:01Z</time></trkpt><trkpt lat="43.38354869700662" lon="13.189135881271401"><ele>519.0</ele><time>2026-05-02T13:52:02Z</time></trkpt><trkpt lat="43.38342583033711" lon="13.18917470543999"><ele>521.0</ele><time>2026-05-02T13:52:03Z</time></trkpt><trkpt lat="43.38334217717585" lon="13.189250177449642"><ele>521.0</ele><time>2026-05-02T13:52:04Z</time></trkpt><trkpt lat="43.38324248420886" lon="13.189336536361653"><ele>521.0</ele><time>2026-05-02T13:52:05Z</time></trkpt><trkpt lat="43.38315829248548" lon="13.18944206260054"><ele>521.0</ele><time>2026-05-02T13:52:06Z</time></trkpt><trkpt lat="43.38306995335964" lon="13.189526841401477"><ele>521.0</ele><time>2026-05-02T13:52:07Z</time></trkpt><trkpt lat="43.38299107397237" lon="13.189631568498951"><ele>521.0</ele><time>2026-05-02T13:52:08Z</time></trkpt><trkpt lat="43.38292146650048" lon="13.189728270077087"><ele>520.2</ele><time>2026-05-02T13:52:09Z</time></trkpt><trkpt lat="43.382836557546625" lon="13.18981848411549"><ele>519.4000000000001</ele><time>2026-05-02T13:52:10Z</time></trkpt><trkpt lat="43.382781512190164" lon="13.18993401556446"><ele>518.6</ele><time>2026-05-02T13:52:11Z</time></trkpt><trkpt lat="43.38267496759169" lon="13.19002100654414"><ele>517.8000000000001</ele><time>2026-05-02T13:52:12Z</time></trkpt><trkpt lat="43.38259611170208" lon="13.190140426218457"><ele>517.0</ele><time>2026-05-02T13:52:13Z</time></trkpt><trkpt lat="43.38251927159682" lon="13.190256370492957"><ele>518.6</ele><time>2026-05-02T13:52:14Z</time></trkpt><trkpt lat="43.38244825937779" lon="13.190376309606073"><ele>520.2</ele><time>2026-05-02T13:52:15Z</time></trkpt><trkpt lat="43.38239972689464" lon="13.190489579807506"><ele>521.8</ele><time>2026-05-02T13:52:16Z</time></trkpt><trkpt lat="43.38237359479942" lon="13.190615478637682"><ele>523.4</ele><time>2026-05-02T13:52:17Z</time></trkpt><trkpt lat="43.38235957843341" lon="13.190747988093884"><ele>525.0</ele><time>2026-05-02T13:52:18Z</time></trkpt><trkpt lat="43.38237190976981" lon="13.19088896222762"><ele>526.0</ele><time>2026-05-02T13:52:19Z</time></trkpt><trkpt lat="43.382409392781675" lon="13.191013618314745"><ele>527.0</ele><time>2026-05-02T13:52:20Z</time></trkpt><trkpt lat="43.382448386496435" lon="13.191145974661689"><ele>528.0</ele><time>2026-05-02T13:52:21Z</time></trkpt><trkpt lat="43.38248734762035" lon="13.191281826504202"><ele>529.0</ele><time>2026-05-02T13:52:22Z</time></trkpt><trkpt lat="43.382520968210116" lon="13.191409083272013"><ele>530.0</ele><time>2026-05-02T13:52:23Z</time></trkpt><trkpt lat="43.3825438705119" lon="13.19152978595534"><ele>531.0</ele><time>2026-05-02T13:52:24Z</time></trkpt><trkpt lat="43.382586823764" lon="13.191644692096276"><ele>532.0</ele><time>2026-05-02T13:52:25Z</time></trkpt><trkpt lat="43.38263374463831" lon="13.191775148511864"><ele>533.0</ele><time>2026-05-02T13:52:26Z</time></trkpt><trkpt lat="43.38267445115999" lon="13.191902054804173"><ele>534.0</ele><time>2026-05-02T13:52:27Z</time></trkpt><trkpt lat="43.382695746601556" lon="13.192048036643042"><ele>535.0</ele><time>2026-05-02T13:52:28Z</time></trkpt><trkpt lat="43.38271831513807" lon="13.192173957953663"><ele>535.0</ele><time>2026-05-02T13:52:29Z</time></trkpt><trkpt lat="43.38273260828113" lon="13.192315852974104"><ele>535.0</ele><time>2026-05-02T13:52:30Z</time></trkpt><trkpt lat="43.382725289161215" lon="13.192452773140639"><ele>535.0</ele><time>2026-05-02T13:52:31Z</time></trkpt><trkpt lat="43.382722669744005" lon="13.192575959414519"><ele>535.0</ele><time>2026-05-02T13:52:32Z</time></trkpt><trkpt lat="43.382729141710136" lon="13.19270449928037"><ele>535.0</ele><time>2026-05-02T13:52:33Z</time></trkpt><trkpt lat="43.38271015595082" lon="13.192835228117062"><ele>535.6666666666667</ele><time>2026-05-02T13:52:34Z</time></trkpt><trkpt lat="43.38270096007785" lon="13.19296133364755"><ele>536.3333333333334</ele><time>2026-05-02T13:52:35Z</time></trkpt><trkpt lat="43.3826980689387" lon="13.193079735585968"><ele>537.0</ele><time>2026-05-02T13:52:36Z</time></trkpt><trkpt lat="43.38267788926214" lon="13.19317498206837"><ele>537.6666666666666</ele><time>2026-05-02T13:52:37Z</time></trkpt><trkpt lat="43.38265365576744" lon="13.193266742791788"><ele>538.3333333333333</ele><time>2026-05-02T13:52:38Z</time></trkpt><trkpt lat="43.382646450951974" lon="13.193359213743593"><ele>539.0</ele><time>2026-05-02T13:52:39Z</time></trkpt><trkpt lat="43.382523875534446" lon="13.193406748968563"><ele>539.75</ele><time>2026-05-02T13:52:40Z</time></trkpt><trkpt lat="43.38243431891433" lon="13.19343203502125"><ele>540.5</ele><time>2026-05-02T13:52:41Z</time></trkpt><trkpt lat="43.382318084024845" lon="13.19342391798432"><ele>541.25</ele><time>2026-05-02T13:52:42Z</time></trkpt><trkpt lat="43.38217498107921" lon="13.193426468128647"><ele>542.0</ele><time>2026-05-02T13:52:43Z</time></trkpt><trkpt lat="43.382067023321184" lon="13.193424414495349"><ele>544.3333333333333</ele><time>2026-05-02T13:52:44Z</time></trkpt><trkpt lat="43.381926950225136" lon="13.193437163354785"><ele>546.6666666666666</ele><time>2026-05-02T13:52:46Z</time></trkpt><trkpt lat="43.381645739517886" lon="13.193428755612356"><ele>549.0</ele><time>2026-05-02T13:52:47Z</time></trkpt><trkpt lat="43.38153294574761" lon="13.193355137630235"><ele>549.0</ele><time>2026-05-02T13:52:48Z</time></trkpt><trkpt lat="43.381394718637516" lon="13.19328705925882"><ele>549.0</ele><time>2026-05-02T13:52:49Z</time></trkpt><trkpt lat="43.381241638138306" lon="13.193221296710158"><ele>549.0</ele><time>2026-05-02T13:52:50Z</time></trkpt><trkpt lat="43.38109103683423" lon="13.19316473520809"><ele>549.3333333333334</ele><time>2026-05-02T13:52:51Z</time></trkpt><trkpt lat="43.38093152433018" lon="13.193133132220055"><ele>549.6666666666667</ele><time>2026-05-02T13:52:52Z</time></trkpt><trkpt lat="43.38078390019784" lon="13.193087859196064"><ele>550.0</ele><time>2026-05-02T13:52:53Z</time></trkpt><trkpt lat="43.38061699952643" lon="13.193038971719796"><ele>549.3333333333334</ele><time>2026-05-02T13:52:54Z</time></trkpt><trkpt lat="43.380451483827116" lon="13.193017822621414"><ele>548.6666666666666</ele><time>2026-05-02T13:52:55Z</time></trkpt><trkpt lat="43.38028177417797" lon="13.193036318198448"><ele>548.0</ele><time>2026-05-02T13:52:56Z</time></trkpt><trkpt lat="43.38010194371843" lon="13.193075985506214"><ele>548.0</ele><time>2026-05-02T13:52:57Z</time></trkpt><trkpt lat="43.379910620793645" lon="13.193143976500634"><ele>548.0</ele><time>2026-05-02T13:52:58Z</time></trkpt><trkpt lat="43.37971219711533" lon="13.193269731668003"><ele>548.0</ele><time>2026-05-02T13:52:59Z</time></trkpt><trkpt lat="43.37949652557847" lon="13.193460099088883"><ele>554.0</ele><time>2026-05-02T13:53:00Z</time></trkpt><trkpt lat="43.37928553957482" lon="13.19366388668234"><ele>560.0</ele><time>2026-05-02T13:53:01Z</time></trkpt><trkpt lat="43.379034590052115" lon="13.19385937175945"><ele>562.5</ele><time>2026-05-02T13:53:02Z</time></trkpt><trkpt lat="43.37878359440065" lon="13.194068766529341"><ele>565.0</ele><time>2026-05-02T13:53:03Z</time></trkpt><trkpt lat="43.37854516487634" lon="13.194272702935306"><ele>565.0</ele><time>2026-05-02T13:53:04Z</time></trkpt><trkpt lat="43.3783377920124" lon="13.194456412817056"><ele>565.0</ele><time>2026-05-02T13:53:05Z</time></trkpt><trkpt lat="43.37814753325267" lon="13.1946199570072"><ele>565.0</ele><time>2026-05-02T13:53:06Z</time></trkpt><trkpt lat="43.37795583380909" lon="13.194785636189824"><ele>565.0</ele><time>2026-05-02T13:53:07Z</time></trkpt><trkpt lat="43.377766474782256" lon="13.194943458424781"><ele>565.0</ele><time>2026-05-02T13:53:08Z</time></trkpt><trkpt lat="43.37761126285445" lon="13.195075130653827"><ele>565.0</ele><time>2026-05-02T13:53:09Z</time></trkpt><trkpt lat="43.377465379824955" lon="13.195205491580015"><ele>565.0</ele><time>2026-05-02T13:53:10Z</time></trkpt><trkpt lat="43.37736355945236" lon="13.195362344015212"><ele>565.0</ele><time>2026-05-02T13:53:11Z</time></trkpt><trkpt lat="43.37729122972011" lon="13.195553413667563"><ele>565.0</ele><time>2026-05-02T13:53:12Z</time></trkpt><trkpt lat="43.3772161020622" lon="13.195747662685863"><ele>565.0</ele><time>2026-05-02T13:53:13Z</time></trkpt><trkpt lat="43.37716055666965" lon="13.195946804567251"><ele>565.0</ele><time>2026-05-02T13:53:14Z</time></trkpt><trkpt lat="43.37712203231509" lon="13.196127632660197"><ele>565.0</ele><time>2026-05-02T13:53:15Z</time></trkpt><trkpt lat="43.37709923189598" lon="13.1963264777451"><ele>565.0</ele><time>2026-05-02T13:53:16Z</time></trkpt><trkpt lat="43.377124353805925" lon="13.196559045418908"><ele>565.0</ele><time>2026-05-02T13:53:17Z</time></trkpt><trkpt lat="43.37716415497639" lon="13.196805656609255"><ele>565.6666666666667</ele><time>2026-05-02T13:53:18Z</time></trkpt><trkpt lat="43.37720859942915" lon="13.19707087666892"><ele>566.3333333333334</ele><time>2026-05-02T13:53:19Z</time></trkpt><trkpt lat="43.377246842897826" lon="13.197336650296396"><ele>567.0</ele><time>2026-05-02T13:53:20Z</time></trkpt><trkpt lat="43.37725970244842" lon="13.197589644498526"><ele>565.6666666666666</ele><time>2026-05-02T13:53:21Z</time></trkpt><trkpt lat="43.37726685579687" lon="13.19780837229839"><ele>564.3333333333333</ele><time>2026-05-02T13:53:22Z</time></trkpt><trkpt lat="43.377246694219565" lon="13.198019446398703"><ele>563.0</ele><time>2026-05-02T13:53:23Z</time></trkpt><trkpt lat="43.37718148102196" lon="13.198265220687466"><ele>564.6666666666666</ele><time>2026-05-02T13:53:24Z</time></trkpt><trkpt lat="43.37713452033821" lon="13.198516679876194"><ele>566.3333333333334</ele><time>2026-05-02T13:53:25Z</time></trkpt><trkpt lat="43.37708984463638" lon="13.198762740792422"><ele>568.0</ele><time>2026-05-02T13:53:26Z</time></trkpt><trkpt lat="43.37705003540781" lon="13.199006057229568"><ele>568.0</ele><time>2026-05-02T13:53:27Z</time></trkpt><trkpt lat="43.37704668357973" lon="13.199280026559153"><ele>568.0</ele><time>2026-05-02T13:53:28Z</time></trkpt><trkpt lat="43.37703773907505" lon="13.199564839774851"><ele>568.0</ele><time>2026-05-02T13:53:29Z</time></trkpt><trkpt lat="43.3770259057513" lon="13.199858082391504"><ele>568.3333333333334</ele><time>2026-05-02T13:53:30Z</time></trkpt><trkpt lat="43.376976186892755" lon="13.200185843908134"><ele>568.6666666666666</ele><time>2026-05-02T13:53:31Z</time></trkpt><trkpt lat="43.37700083074996" lon="13.200299156488432"><ele>569.0</ele><time>2026-05-02T13:53:32Z</time></trkpt><trkpt lat="43.37699393878086" lon="13.200541213999749"><ele>570.0</ele><time>2026-05-02T13:53:33Z</time></trkpt><trkpt lat="43.376993379413186" lon="13.200777380338781"><ele>571.0</ele><time>2026-05-02T13:53:34Z</time></trkpt><trkpt lat="43.37699244235185" lon="13.2010047188962"><ele>572.0</ele><time>2026-05-02T13:53:35Z</time></trkpt><trkpt lat="43.37699904826059" lon="13.201228447341562"><ele>572.0</ele><time>2026-05-02T13:53:36Z</time></trkpt><trkpt lat="43.37700104650271" lon="13.201450370016472"><ele>572.0</ele><time>2026-05-02T13:53:37Z</time></trkpt><trkpt lat="43.37700808488987" lon="13.201657571278107"><ele>572.0</ele><time>2026-05-02T13:53:38Z</time></trkpt><trkpt lat="43.37702112308359" lon="13.201875727869565"><ele>573.3333333333333</ele><time>2026-05-02T13:53:39Z</time></trkpt><trkpt lat="43.37703943503179" lon="13.202100695385093"><ele>574.6666666666666</ele><time>2026-05-02T13:53:40Z</time></trkpt><trkpt lat="43.377049148194565" lon="13.20234212306657"><ele>576.0</ele><time>2026-05-02T13:53:41Z</time></trkpt><trkpt lat="43.37704838650144" lon="13.202563186312124"><ele>577.3333333333334</ele><time>2026-05-02T13:53:42Z</time></trkpt><trkpt lat="43.37703423055108" lon="13.202794618152575"><ele>578.6666666666667</ele><time>2026-05-02T13:53:43Z</time></trkpt><trkpt lat="43.377005649304834" lon="13.20303274441216"><ele>580.0</ele><time>2026-05-02T13:53:44Z</time></trkpt><trkpt lat="43.376967179657036" lon="13.203272700009169"><ele>580.6666666666667</ele><time>2026-05-02T13:53:45Z</time></trkpt><trkpt lat="43.37688145510688" lon="13.203509118968164"><ele>581.3333333333334</ele><time>2026-05-02T13:53:46Z</time></trkpt><trkpt lat="43.376797721847026" lon="13.20370417499497"><ele>582.0</ele><time>2026-05-02T13:53:47Z</time></trkpt><trkpt lat="43.37671320038767" lon="13.203847686551303"><ele>581.75</ele><time>2026-05-02T13:53:48Z</time></trkpt><trkpt lat="43.37667937942848" lon="13.204008891029483"><ele>581.5</ele><time>2026-05-02T13:53:49Z</time></trkpt><trkpt lat="43.37662324632387" lon="13.204169065285493"><ele>581.25</ele><time>2026-05-02T13:53:50Z</time></trkpt><trkpt lat="43.37657927234935" lon="13.204360516707872"><ele>581.0</ele><time>2026-05-02T13:53:51Z</time></trkpt><trkpt lat="43.37655188718989" lon="13.204619056712609"><ele>580.0</ele><time>2026-05-02T13:53:52Z</time></trkpt><trkpt lat="43.376527719273355" lon="13.204909485493593"><ele>579.0</ele><time>2026-05-02T13:53:53Z</time></trkpt><trkpt lat="43.37650862569237" lon="13.205191393934241"><ele>578.0</ele><time>2026-05-02T13:53:54Z</time></trkpt><trkpt lat="43.376468009289816" lon="13.205457433614447"><ele>576.6666666666666</ele><time>2026-05-02T13:53:55Z</time></trkpt><trkpt lat="43.37639296241494" lon="13.205671828287036"><ele>575.3333333333334</ele><time>2026-05-02T13:53:56Z</time></trkpt><trkpt lat="43.376300716215354" lon="13.20584828196926"><ele>574.0</ele><time>2026-05-02T13:53:57Z</time></trkpt><trkpt lat="43.3761754252669" lon="13.206044891091594"><ele>582.3333333333334</ele><time>2026-05-02T13:53:58Z</time></trkpt><trkpt lat="43.37609017028476" lon="13.206239878618646"><ele>590.6666666666666</ele><time>2026-05-02T13:53:59Z</time></trkpt><trkpt lat="43.3760228606084" lon="13.206436725736086"><ele>599.0</ele><time>2026-05-02T13:54:00Z</time></trkpt><trkpt lat="43.37598145131422" lon="13.206659553090372"><ele>599.0</ele><time>2026-05-02T13:54:01Z</time></trkpt><trkpt lat="43.37594823212689" lon="13.206866224844022"><ele>599.0</ele><time>2026-05-02T13:54:02Z</time></trkpt><trkpt lat="43.37588268858571" lon="13.206991638182535"><ele>599.0</ele><time>2026-05-02T13:54:03Z</time></trkpt><trkpt lat="43.375767378309924" lon="13.207147766734684"><ele>599.0</ele><time>2026-05-02T13:54:04Z</time></trkpt><trkpt lat="43.375652220872375" lon="13.20728222359849"><ele>597.0</ele><time>2026-05-02T13:54:05Z</time></trkpt><trkpt lat="43.37553592049773" lon="13.207462794764341"><ele>595.0</ele><time>2026-05-02T13:54:06Z</time></trkpt><trkpt lat="43.37541623222793" lon="13.207614020136214"><ele>593.0</ele><time>2026-05-02T13:54:07Z</time></trkpt><trkpt lat="43.37531005176314" lon="13.207745071394259"><ele>595.4</ele><time>2026-05-02T13:54:08Z</time></trkpt><trkpt lat="43.37524026146133" lon="13.207862378941712"><ele>597.8</ele><time>2026-05-02T13:54:09Z</time></trkpt><trkpt lat="43.3751704735772" lon="13.20794315139912"><ele>600.2</ele><time>2026-05-02T13:54:10Z</time></trkpt><trkpt lat="43.37509845940999" lon="13.208009201311578"><ele>602.6</ele><time>2026-05-02T13:54:11Z</time></trkpt><trkpt lat="43.37506528484517" lon="13.208189784455069"><ele>605.0</ele><time>2026-05-02T13:54:12Z</time></trkpt><trkpt lat="43.3749931013263" lon="13.208311316033084"><ele>605.0</ele><time>2026-05-02T13:54:13Z</time></trkpt><trkpt lat="43.374945086950085" lon="13.208402767793638"><ele>605.0</ele><time>2026-05-02T13:54:14Z</time></trkpt><trkpt lat="43.374892887881174" lon="13.208554425450714"><ele>605.0</ele><time>2026-05-02T13:54:16Z</time></trkpt><trkpt lat="43.37487404559193" lon="13.208639558026855"><ele>605.0</ele><time>2026-05-02T13:54:17Z</time></trkpt><trkpt lat="43.374872664555596" lon="13.208735658985752"><ele>605.0</ele><time>2026-05-02T13:54:18Z</time></trkpt><trkpt lat="43.374878643299596" lon="13.20883305516824"><ele>605.0</ele><time>2026-05-02T13:54:19Z</time></trkpt><trkpt lat="43.37492371495749" lon="13.208971846097944"><ele>603.4</ele><time>2026-05-02T13:54:21Z</time></trkpt><trkpt lat="43.374943020404515" lon="13.209071919969594"><ele>601.8</ele><time>2026-05-02T13:54:23Z</time></trkpt><trkpt lat="43.374968568500925" lon="13.209188625691924"><ele>600.2</ele><time>2026-05-02T13:54:25Z</time></trkpt><trkpt lat="43.37509555127536" lon="13.209234739217987"><ele>598.6</ele><time>2026-05-02T13:54:26Z</time></trkpt><trkpt lat="43.37517719140106" lon="13.209298573120309"><ele>597.0</ele><time>2026-05-02T13:54:27Z</time></trkpt><trkpt lat="43.375247530107416" lon="13.209379319976126"><ele>597.0</ele><time>2026-05-02T13:54:28Z</time></trkpt><trkpt lat="43.37530487038818" lon="13.209491038474317"><ele>597.0</ele><time>2026-05-02T13:54:29Z</time></trkpt><trkpt lat="43.375353093043195" lon="13.209620213383996"><ele>597.0</ele><time>2026-05-02T13:54:30Z</time></trkpt><trkpt lat="43.37539948198872" lon="13.20976149092172"><ele>597.0</ele><time>2026-05-02T13:54:31Z</time></trkpt><trkpt lat="43.3754479993175" lon="13.209889027320004"><ele>597.0</ele><time>2026-05-02T13:54:32Z</time></trkpt><trkpt lat="43.3754925868328" lon="13.210019554983262"><ele>596.2</ele><time>2026-05-02T13:54:33Z</time></trkpt><trkpt lat="43.37553893796709" lon="13.210154869029271"><ele>595.4000000000001</ele><time>2026-05-02T13:54:34Z</time></trkpt><trkpt lat="43.37558869009286" lon="13.210291842563505"><ele>594.5999999999999</ele><time>2026-05-02T13:54:35Z</time></trkpt><trkpt lat="43.37563676633977" lon="13.210421959644707"><ele>593.8</ele><time>2026-05-02T13:54:36Z</time></trkpt><trkpt lat="43.37568616754426" lon="13.210561163278355"><ele>593.0</ele><time>2026-05-02T13:54:37Z</time></trkpt><trkpt lat="43.37572666565841" lon="13.210710065156768"><ele>592.8</ele><time>2026-05-02T13:54:38Z</time></trkpt><trkpt lat="43.37575721113276" lon="13.210854554641028"><ele>592.5999999999999</ele><time>2026-05-02T13:54:39Z</time></trkpt><trkpt lat="43.37577240254403" lon="13.211000241925936"><ele>592.4000000000001</ele><time>2026-05-02T13:54:40Z</time></trkpt><trkpt lat="43.375771686564434" lon="13.21114484753882"><ele>592.2</ele><time>2026-05-02T13:54:41Z</time></trkpt><trkpt lat="43.375763934531534" lon="13.211289701373119"><ele>592.0</ele><time>2026-05-02T13:54:42Z</time></trkpt><trkpt lat="43.375755481211066" lon="13.211428726897415"><ele>592.25</ele><time>2026-05-02T13:54:43Z</time></trkpt><trkpt lat="43.375754086502596" lon="13.211566314932368"><ele>592.5</ele><time>2026-05-02T13:54:44Z</time></trkpt><trkpt lat="43.375758390092116" lon="13.21172217633962"><ele>592.75</ele><time>2026-05-02T13:54:45Z</time></trkpt><trkpt lat="43.37576495118713" lon="13.211916792199254"><ele>593.0</ele><time>2026-05-02T13:54:46Z</time></trkpt><trkpt lat="43.37575378502334" lon="13.212149953104344"><ele>594.6666666666666</ele><time>2026-05-02T13:54:47Z</time></trkpt><trkpt lat="43.37573471856734" lon="13.212381346418304"><ele>596.3333333333334</ele><time>2026-05-02T13:54:48Z</time></trkpt><trkpt lat="43.375716159977905" lon="13.21259229021804"><ele>598.0</ele><time>2026-05-02T13:54:49Z</time></trkpt><trkpt lat="43.37570942149454" lon="13.21278094466525"><ele>598.0</ele><time>2026-05-02T13:54:50Z</time></trkpt><trkpt lat="43.375704343056874" lon="13.212950018560027"><ele>598.0</ele><time>2026-05-02T13:54:51Z</time></trkpt><trkpt lat="43.37568700502717" lon="13.213088071100566"><ele>598.0</ele><time>2026-05-02T13:54:52Z</time></trkpt><trkpt lat="43.37565403873302" lon="13.213195448715892"><ele>598.0</ele><time>2026-05-02T13:54:53Z</time></trkpt><trkpt lat="43.37559628183346" lon="13.213278187949145"><ele>598.0</ele><time>2026-05-02T13:54:54Z</time></trkpt><trkpt lat="43.3755173090482" lon="13.213304217926714"><ele>598.0</ele><time>2026-05-02T13:54:55Z</time></trkpt><trkpt lat="43.37541185687393" lon="13.213311395622494"><ele>598.0</ele><time>2026-05-02T13:54:56Z</time></trkpt><trkpt lat="43.37528200530047" lon="13.213298285706166"><ele>598.0</ele><time>2026-05-02T13:54:57Z</time></trkpt><trkpt lat="43.3751347969073" lon="13.213299173455445"><ele>598.0</ele><time>2026-05-02T13:54:58Z</time></trkpt><trkpt lat="43.374976324970206" lon="13.21330885153632"><ele>598.0</ele><time>2026-05-02T13:54:59Z</time></trkpt><trkpt lat="43.37481545845285" lon="13.213325730102008"><ele>598.0</ele><time>2026-05-02T13:55:00Z</time></trkpt><trkpt lat="43.37467605031684" lon="13.213341829534503"><ele>598.0</ele><time>2026-05-02T13:55:01Z</time></trkpt><trkpt lat="43.37456537921783" lon="13.213357160519049"><ele>598.0</ele><time>2026-05-02T13:55:02Z</time></trkpt><trkpt lat="43.37447183493926" lon="13.213363346832914"><ele>597.25</ele><time>2026-05-02T13:55:03Z</time></trkpt><trkpt lat="43.37438404253789" lon="13.213343934442888"><ele>596.5</ele><time>2026-05-02T13:55:04Z</time></trkpt><trkpt lat="43.37428076309516" lon="13.213302880538457"><ele>595.75</ele><time>2026-05-02T13:55:05Z</time></trkpt><trkpt lat="43.3741825128577" lon="13.213320027447523"><ele>595.0</ele><time>2026-05-02T13:55:06Z</time></trkpt><trkpt lat="43.37401317999628" lon="13.21332703702843"><ele>591.0</ele><time>2026-05-02T13:55:07Z</time></trkpt><trkpt lat="43.37384623480756" lon="13.213395964043661"><ele>587.0</ele><time>2026-05-02T13:55:08Z</time></trkpt><trkpt lat="43.37365683972309" lon="13.21347313487052"><ele>583.0</ele><time>2026-05-02T13:55:09Z</time></trkpt><trkpt lat="43.37345925360219" lon="13.213554983167027"><ele>583.0</ele><time>2026-05-02T13:55:10Z</time></trkpt><trkpt lat="43.37327851368451" lon="13.213630559601583"><ele>583.0</ele><time>2026-05-02T13:55:11Z</time></trkpt><trkpt lat="43.373125769340746" lon="13.213707547902835"><ele>583.0</ele><time>2026-05-02T13:55:12Z</time></trkpt><trkpt lat="43.37300030364649" lon="13.213760721807839"><ele>582.0</ele><time>2026-05-02T13:55:13Z</time></trkpt><trkpt lat="43.37289706581287" lon="13.213808182746275"><ele>581.0</ele><time>2026-05-02T13:55:14Z</time></trkpt><trkpt lat="43.37278752972127" lon="13.213890822617087"><ele>580.0</ele><time>2026-05-02T13:55:15Z</time></trkpt><trkpt lat="43.37270654855373" lon="13.213975195082176"><ele>579.0</ele><time>2026-05-02T13:55:16Z</time></trkpt><trkpt lat="43.37261914917998" lon="13.214064612174257"><ele>578.0</ele><time>2026-05-02T13:55:17Z</time></trkpt><trkpt lat="43.372539121617805" lon="13.214128481248919"><ele>578.0</ele><time>2026-05-02T13:55:18Z</time></trkpt><trkpt lat="43.37246690503181" lon="13.214176616994916"><ele>578.0</ele><time>2026-05-02T13:55:19Z</time></trkpt><trkpt lat="43.37237369032933" lon="13.214186194702524"><ele>578.0</ele><time>2026-05-02T13:55:20Z</time></trkpt><trkpt lat="43.37223195325925" lon="13.214152120992452"><ele>578.0</ele><time>2026-05-02T13:55:21Z</time></trkpt><trkpt lat="43.372055652003105" lon="13.214121382622135"><ele>574.0</ele><time>2026-05-02T13:55:22Z</time></trkpt><trkpt lat="43.37186628091003" lon="13.214108582956424"><ele>570.0</ele><time>2026-05-02T13:55:23Z</time></trkpt><trkpt lat="43.37164082318924" lon="13.214095674891148"><ele>566.0</ele><time>2026-05-02T13:55:24Z</time></trkpt><trkpt lat="43.37140595896926" lon="13.214096452164648"><ele>562.3333333333333</ele><time>2026-05-02T13:55:25Z</time></trkpt><trkpt lat="43.37120206831109" lon="13.214084096860821"><ele>558.6666666666666</ele><time>2026-05-02T13:55:26Z</time></trkpt><trkpt lat="43.371021338996584" lon="13.214063931500242"><ele>555.0</ele><time>2026-05-02T13:55:27Z</time></trkpt><trkpt lat="43.370851446221074" lon="13.214033091745325"><ele>555.0</ele><time>2026-05-02T13:55:28Z</time></trkpt><trkpt lat="43.370700151082154" lon="13.21406247758846"><ele>555.0</ele><time>2026-05-02T13:55:29Z</time></trkpt><trkpt lat="43.37056751192553" lon="13.214111310739831"><ele>555.0</ele><time>2026-05-02T13:55:30Z</time></trkpt><trkpt lat="43.370459139555415" lon="13.214149462602608"><ele>555.0</ele><time>2026-05-02T13:55:31Z</time></trkpt><trkpt lat="43.37037312589192" lon="13.214166691380106"><ele>549.4</ele><time>2026-05-02T13:55:32Z</time></trkpt><trkpt lat="43.37030168829033" lon="13.214134315115787"><ele>543.8</ele><time>2026-05-02T13:55:33Z</time></trkpt><trkpt lat="43.370276578842976" lon="13.214015469988938"><ele>538.2</ele><time>2026-05-02T13:55:34Z</time></trkpt><trkpt lat="43.37020560345741" lon="13.213937984481634"><ele>532.6</ele><time>2026-05-02T13:55:36Z</time></trkpt><trkpt lat="43.37010608842823" lon="13.214040229179371"><ele>527.0</ele><time>2026-05-02T13:55:38Z</time></trkpt><trkpt lat="43.37011066252714" lon="13.214198469195953"><ele>527.0</ele><time>2026-05-02T13:55:39Z</time></trkpt><trkpt lat="43.37011622813601" lon="13.214367309868079"><ele>527.0</ele><time>2026-05-02T13:55:40Z</time></trkpt><trkpt lat="43.370132709480735" lon="13.214519075242695"><ele>527.0</ele><time>2026-05-02T13:55:41Z</time></trkpt><trkpt lat="43.37016869933901" lon="13.214622079699287"><ele>527.0</ele><time>2026-05-02T13:55:42Z</time></trkpt><trkpt lat="43.37023612067064" lon="13.214709632897238"><ele>527.0</ele><time>2026-05-02T13:55:43Z</time></trkpt><trkpt lat="43.3703347342317" lon="13.214719626839148"><ele>527.0</ele><time>2026-05-02T13:55:44Z</time></trkpt><trkpt lat="43.37045001434393" lon="13.214733181626006"><ele>527.0</ele><time>2026-05-02T13:55:45Z</time></trkpt><trkpt lat="43.37055664713523" lon="13.214802712891188"><ele>527.0</ele><time>2026-05-02T13:55:46Z</time></trkpt><trkpt lat="43.370604267088744" lon="13.214864546342609"><ele>527.0</ele><time>2026-05-02T13:55:47Z</time></trkpt><trkpt lat="43.37055835275697" lon="13.21503991912865"><ele>527.0</ele><time>2026-05-02T13:55:49Z</time></trkpt><trkpt lat="43.37051001648203" lon="13.215207423412707"><ele>525.0</ele><time>2026-05-02T13:55:50Z</time></trkpt><trkpt lat="43.3704657168545" lon="13.215385780453971"><ele>523.0</ele><time>2026-05-02T13:55:51Z</time></trkpt><trkpt lat="43.37040673114589" lon="13.215555308143056"><ele>521.0</ele><time>2026-05-02T13:55:52Z</time></trkpt><trkpt lat="43.37035999734298" lon="13.21567325549559"><ele>519.0</ele><time>2026-05-02T13:55:53Z</time></trkpt><trkpt lat="43.370280198852505" lon="13.2157639687446"><ele>517.3333333333334</ele><time>2026-05-02T13:55:54Z</time></trkpt><trkpt lat="43.370135487350495" lon="13.215873816889221"><ele>515.6666666666667</ele><time>2026-05-02T13:55:55Z</time></trkpt><trkpt lat="43.37000056107234" lon="13.215975020031882"><ele>514.0</ele><time>2026-05-02T13:55:56Z</time></trkpt><trkpt lat="43.369868543653105" lon="13.216088928774955"><ele>514.0</ele><time>2026-05-02T13:55:57Z</time></trkpt><trkpt lat="43.36972003306225" lon="13.216219323758152"><ele>514.0</ele><time>2026-05-02T13:55:58Z</time></trkpt><trkpt lat="43.36961852744873" lon="13.216283833957348"><ele>514.0</ele><time>2026-05-02T13:55:59Z</time></trkpt><trkpt lat="43.36952656940704" lon="13.21637039915933"><ele>514.0</ele><time>2026-05-02T13:56:00Z</time></trkpt><trkpt lat="43.369432353500514" lon="13.21652025279716"><ele>510.0</ele><time>2026-05-02T13:56:01Z</time></trkpt><trkpt lat="43.369386829682526" lon="13.216658207977567"><ele>506.0</ele><time>2026-05-02T13:56:02Z</time></trkpt><trkpt lat="43.36935875781186" lon="13.216814742117677"><ele>502.0</ele><time>2026-05-02T13:56:03Z</time></trkpt><trkpt lat="43.36928644417027" lon="13.216914073969665"><ele>498.0</ele><time>2026-05-02T13:56:04Z</time></trkpt><trkpt lat="43.36918576032487" lon="13.217001970695028"><ele>494.0</ele><time>2026-05-02T13:56:05Z</time></trkpt><trkpt lat="43.36910388498555" lon="13.217143619923808"><ele>494.0</ele><time>2026-05-02T13:56:06Z</time></trkpt><trkpt lat="43.36905132365694" lon="13.217277919278061"><ele>494.0</ele><time>2026-05-02T13:56:07Z</time></trkpt><trkpt lat="43.36903154501233" lon="13.2174815075009"><ele>494.0</ele><time>2026-05-02T13:56:08Z</time></trkpt><trkpt lat="43.36900297622105" lon="13.217715987038153"><ele>494.0</ele><time>2026-05-02T13:56:09Z</time></trkpt><trkpt lat="43.368927575315794" lon="13.217918720933982"><ele>493.25</ele><time>2026-05-02T13:56:10Z</time></trkpt><trkpt lat="43.36886744391911" lon="13.218107716190078"><ele>492.5</ele><time>2026-05-02T13:56:11Z</time></trkpt><trkpt lat="43.36880953891272" lon="13.218282604130739"><ele>491.75</ele><time>2026-05-02T13:56:12Z</time></trkpt><trkpt lat="43.368792725401676" lon="13.21845711893757"><ele>491.0</ele><time>2026-05-02T13:56:13Z</time></trkpt><trkpt lat="43.36877711078156" lon="13.21862858997307"><ele>485.8333333333333</ele><time>2026-05-02T13:56:14Z</time></trkpt><trkpt lat="43.36878841156905" lon="13.218740478942241"><ele>480.66666666666663</ele><time>2026-05-02T13:56:15Z</time></trkpt><trkpt lat="43.36876187735887" lon="13.218839554899342"><ele>475.5</ele><time>2026-05-02T13:56:17Z</time></trkpt><trkpt lat="43.36872019862617" lon="13.218756355932904"><ele>470.33333333333337</ele><time>2026-05-02T13:56:19Z</time></trkpt><trkpt lat="43.368735514759685" lon="13.21861949736661"><ele>465.1666666666667</ele><time>2026-05-02T13:56:21Z</time></trkpt><trkpt lat="43.36875165368561" lon="13.21851854162831"><ele>460.0</ele><time>2026-05-02T13:56:22Z</time></trkpt><trkpt lat="43.36872028922806" lon="13.218410463100806"><ele>460.0</ele><time>2026-05-02T13:56:24Z</time></trkpt><trkpt lat="43.36863567668843" lon="13.218496986040648"><ele>460.0</ele><time>2026-05-02T13:56:26Z</time></trkpt><trkpt lat="43.368620873220344" lon="13.218616292876401"><ele>460.0</ele><time>2026-05-02T13:56:27Z</time></trkpt><trkpt lat="43.36859113659495" lon="13.218784959856851"><ele>460.0</ele><time>2026-05-02T13:56:28Z</time></trkpt><trkpt lat="43.368519381442795" lon="13.21894025661189"><ele>459.6666666666667</ele><time>2026-05-02T13:56:29Z</time></trkpt><trkpt lat="43.36846077119987" lon="13.219066034316207"><ele>459.33333333333337</ele><time>2026-05-02T13:56:30Z</time></trkpt><trkpt lat="43.36842674834569" lon="13.219158520897029"><ele>459.0</ele><time>2026-05-02T13:56:32Z</time></trkpt><trkpt lat="43.368326000853585" lon="13.219603737345544"><ele>459.0</ele><time>2026-05-02T13:56:34Z</time></trkpt><trkpt lat="43.368303287677655" lon="13.219773735205443"><ele>459.0</ele><time>2026-05-02T13:56:35Z</time></trkpt><trkpt lat="43.36827277815724" lon="13.219967881391923"><ele>459.0</ele><time>2026-05-02T13:56:36Z</time></trkpt><trkpt lat="43.368238823437736" lon="13.220151980332446"><ele>459.0</ele><time>2026-05-02T13:56:37Z</time></trkpt><trkpt lat="43.36822236466674" lon="13.220343153131427"><ele>458.5</ele><time>2026-05-02T13:56:38Z</time></trkpt><trkpt lat="43.368205304802366" lon="13.220500562991885"><ele>458.0</ele><time>2026-05-02T13:56:39Z</time></trkpt><trkpt lat="43.36817092708787" lon="13.220624677139456"><ele>457.5</ele><time>2026-05-02T13:56:40Z</time></trkpt><trkpt lat="43.368110166694194" lon="13.220701718219548"><ele>457.0</ele><time>2026-05-02T13:56:41Z</time></trkpt><trkpt lat="43.36805225322953" lon="13.22076181023953"><ele>456.5</ele><time>2026-05-02T13:56:42Z</time></trkpt><trkpt lat="43.36798203599701" lon="13.220780375964745"><ele>456.0</ele><time>2026-05-02T13:56:43Z</time></trkpt><trkpt lat="43.36792007912412" lon="13.220747020789561"><ele>453.20000000000005</ele><time>2026-05-02T13:56:44Z</time></trkpt><trkpt lat="43.367825395780685" lon="13.220705882405637"><ele>450.40000000000003</ele><time>2026-05-02T13:56:45Z</time></trkpt><trkpt lat="43.36772461080143" lon="13.220646132286902"><ele>447.6</ele><time>2026-05-02T13:56:46Z</time></trkpt><trkpt lat="43.367610125250465" lon="13.220624065580948"><ele>444.8</ele><time>2026-05-02T13:56:47Z</time></trkpt><trkpt lat="43.3675032574722" lon="13.220614880965535"><ele>442.0</ele><time>2026-05-02T13:56:48Z</time></trkpt><trkpt lat="43.36739257452634" lon="13.22064791761275"><ele>441.5</ele><time>2026-05-02T13:56:49Z</time></trkpt><trkpt lat="43.36729140819819" lon="13.220730606802274"><ele>441.0</ele><time>2026-05-02T13:56:50Z</time></trkpt><trkpt lat="43.36718847228328" lon="13.220860823639338"><ele>440.5</ele><time>2026-05-02T13:56:51Z</time></trkpt><trkpt lat="43.367064503932745" lon="13.220984354698986"><ele>440.0</ele><time>2026-05-02T13:56:52Z</time></trkpt><trkpt lat="43.36690568671002" lon="13.221075272524741"><ele>443.3333333333333</ele><time>2026-05-02T13:56:53Z</time></trkpt><trkpt lat="43.366747470296" lon="13.221142332053466"><ele>446.66666666666663</ele><time>2026-05-02T13:56:54Z</time></trkpt><trkpt lat="43.366579735334575" lon="13.221256740089839"><ele>450.0</ele><time>2026-05-02T13:56:55Z</time></trkpt><trkpt lat="43.36639627996589" lon="13.221385168073558"><ele>449.0</ele><time>2026-05-02T13:56:56Z</time></trkpt><trkpt lat="43.366195850677855" lon="13.221530043721305"><ele>448.0</ele><time>2026-05-02T13:56:57Z</time></trkpt><trkpt lat="43.36598712907719" lon="13.221661001966789"><ele>448.0</ele><time>2026-05-02T13:56:58Z</time></trkpt><trkpt lat="43.365745742180636" lon="13.221755481506428"><ele>448.0</ele><time>2026-05-02T13:56:59Z</time></trkpt><trkpt lat="43.365482246839115" lon="13.221797854126702"><ele>452.0</ele><time>2026-05-02T13:57:00Z</time></trkpt><trkpt lat="43.36521449481102" lon="13.221895407902686"><ele>456.0</ele><time>2026-05-02T13:57:01Z</time></trkpt><trkpt lat="43.364952090207176" lon="13.222010481345977"><ele>456.0</ele><time>2026-05-02T13:57:02Z</time></trkpt><trkpt lat="43.36474875692695" lon="13.22210737009382"><ele>456.0</ele><time>2026-05-02T13:57:03Z</time></trkpt><trkpt lat="43.36459771478578" lon="13.222177607870393"><ele>456.0</ele><time>2026-05-02T13:57:04Z</time></trkpt><trkpt lat="43.36447928807821" lon="13.222232796086177"><ele>457.8</ele><time>2026-05-02T13:57:05Z</time></trkpt><trkpt lat="43.36438655967584" lon="13.222266438017233"><ele>459.6</ele><time>2026-05-02T13:57:06Z</time></trkpt><trkpt lat="43.36432194273949" lon="13.222300960659895"><ele>461.4</ele><time>2026-05-02T13:57:07Z</time></trkpt><trkpt lat="43.36431737154693" lon="13.222448321473903"><ele>463.2</ele><time>2026-05-02T13:57:09Z</time></trkpt><trkpt lat="43.36439466501539" lon="13.222528401158405"><ele>465.0</ele><time>2026-05-02T13:57:10Z</time></trkpt><trkpt lat="43.36450608779377" lon="13.222551549848237"><ele>465.66666666666663</ele><time>2026-05-02T13:57:11Z</time></trkpt><trkpt lat="43.36471368309355" lon="13.222496930827921"><ele>466.3333333333333</ele><time>2026-05-02T13:57:12Z</time></trkpt><trkpt lat="43.36494337980613" lon="13.222457886190199"><ele>467.0</ele><time>2026-05-02T13:57:13Z</time></trkpt><trkpt lat="43.36517324198681" lon="13.222388281816228"><ele>467.0</ele><time>2026-05-02T13:57:14Z</time></trkpt><trkpt lat="43.365440758018075" lon="13.222393002466239"><ele>467.0</ele><time>2026-05-02T13:57:15Z</time></trkpt><trkpt lat="43.36538225649715" lon="13.222327066018623"><ele>467.0</ele><time>2026-05-02T13:57:16Z</time></trkpt><trkpt lat="43.36551355624362" lon="13.222396566301988"><ele>465.0</ele><time>2026-05-02T13:57:17Z</time></trkpt><trkpt lat="43.365625433112" lon="13.222520736246011"><ele>463.0</ele><time>2026-05-02T13:57:18Z</time></trkpt><trkpt lat="43.36571307854535" lon="13.222678946203452"><ele>461.0</ele><time>2026-05-02T13:57:19Z</time></trkpt><trkpt lat="43.36570838501969" lon="13.222855328740662"><ele>459.0</ele><time>2026-05-02T13:57:20Z</time></trkpt><trkpt lat="43.365722352772295" lon="13.22307367907255"><ele>462.33333333333337</ele><time>2026-05-02T13:57:21Z</time></trkpt><trkpt lat="43.36570610947314" lon="13.223328726353294"><ele>465.6666666666667</ele><time>2026-05-02T13:57:22Z</time></trkpt><trkpt lat="43.36567982555512" lon="13.223619747891574"><ele>469.0</ele><time>2026-05-02T13:57:23Z</time></trkpt><trkpt lat="43.365621714623316" lon="13.223920667586706"><ele>470.5</ele><time>2026-05-02T13:57:24Z</time></trkpt><trkpt lat="43.36553869189973" lon="13.224233001721494"><ele>472.0</ele><time>2026-05-02T13:57:25Z</time></trkpt><trkpt lat="43.36544500303342" lon="13.224561776754717"><ele>483.5</ele><time>2026-05-02T13:57:26Z</time></trkpt><trkpt lat="43.36535344942993" lon="13.224910651397064"><ele>495.0</ele><time>2026-05-02T13:57:27Z</time></trkpt><trkpt lat="43.365293566373055" lon="13.225216443096166"><ele>495.0</ele><time>2026-05-02T13:57:28Z</time></trkpt><trkpt lat="43.36523950555243" lon="13.225492315375085"><ele>495.0</ele><time>2026-05-02T13:57:29Z</time></trkpt><trkpt lat="43.36523361188059" lon="13.225720604593288"><ele>495.0</ele><time>2026-05-02T13:57:30Z</time></trkpt><trkpt lat="43.365277840069275" lon="13.225937013464138"><ele>496.33333333333337</ele><time>2026-05-02T13:57:31Z</time></trkpt><trkpt lat="43.36537573330059" lon="13.226172907998796"><ele>497.6666666666667</ele><time>2026-05-02T13:57:32Z</time></trkpt><trkpt lat="43.365483624687954" lon="13.226412973516716"><ele>499.0</ele><time>2026-05-02T13:57:33Z</time></trkpt><trkpt lat="43.36552414343394" lon="13.22661772756913"><ele>501.0</ele><time>2026-05-02T13:57:34Z</time></trkpt><trkpt lat="43.36549037095238" lon="13.226836485437287"><ele>503.0</ele><time>2026-05-02T13:57:35Z</time></trkpt><trkpt lat="43.365479128427246" lon="13.22707458288331"><ele>505.0</ele><time>2026-05-02T13:57:36Z</time></trkpt><trkpt lat="43.365484735301365" lon="13.22728398411517"><ele>504.5</ele><time>2026-05-02T13:57:37Z</time></trkpt><trkpt lat="43.36555303816988" lon="13.227463035595688"><ele>504.0</ele><time>2026-05-02T13:57:38Z</time></trkpt><trkpt lat="43.3656623574921" lon="13.227609002859635"><ele>503.5</ele><time>2026-05-02T13:57:39Z</time></trkpt><trkpt lat="43.365764370352466" lon="13.227755492753431"><ele>503.0</ele><time>2026-05-02T13:57:40Z</time></trkpt><trkpt lat="43.36581768516246" lon="13.227926971114224"><ele>503.0</ele><time>2026-05-02T13:57:41Z</time></trkpt><trkpt lat="43.365758876955255" lon="13.228112590634709"><ele>503.0</ele><time>2026-05-02T13:57:42Z</time></trkpt><trkpt lat="43.365692785958096" lon="13.2283286761276"><ele>503.0</ele><time>2026-05-02T13:57:43Z</time></trkpt><trkpt lat="43.36561332479626" lon="13.228612147430692"><ele>505.5</ele><time>2026-05-02T13:57:44Z</time></trkpt><trkpt lat="43.365531173676516" lon="13.22890487694945"><ele>508.0</ele><time>2026-05-02T13:57:45Z</time></trkpt><trkpt lat="43.36545798696629" lon="13.229223692790033"><ele>518.0</ele><time>2026-05-02T13:57:46Z</time></trkpt><trkpt lat="43.3653582148274" lon="13.229547554586075"><ele>528.0</ele><time>2026-05-02T13:57:47Z</time></trkpt><trkpt lat="43.36524105795131" lon="13.229856431648356"><ele>528.0</ele><time>2026-05-02T13:57:48Z</time></trkpt><trkpt lat="43.36515447449491" lon="13.230135423488065"><ele>528.0</ele><time>2026-05-02T13:57:49Z</time></trkpt><trkpt lat="43.36504530152017" lon="13.230364453285612"><ele>528.0</ele><time>2026-05-02T13:57:50Z</time></trkpt><trkpt lat="43.364933150317036" lon="13.230591106945557"><ele>526.0</ele><time>2026-05-02T13:57:51Z</time></trkpt><trkpt lat="43.36477526817958" lon="13.230728356194543"><ele>524.0</ele><time>2026-05-02T13:57:52Z</time></trkpt><trkpt lat="43.36456169250295" lon="13.23076663745123"><ele>522.0</ele><time>2026-05-02T13:57:53Z</time></trkpt><trkpt lat="43.364349645037414" lon="13.230892960643146"><ele>529.5</ele><time>2026-05-02T13:57:54Z</time></trkpt><trkpt lat="43.36412844072979" lon="13.231065823335618"><ele>537.0</ele><time>2026-05-02T13:57:55Z</time></trkpt><trkpt lat="43.36390826985952" lon="13.23127316118588"><ele>539.3333333333334</ele><time>2026-05-02T13:57:56Z</time></trkpt><trkpt lat="43.36372863897907" lon="13.231420419216134"><ele>541.6666666666667</ele><time>2026-05-02T13:57:57Z</time></trkpt><trkpt lat="43.36361128128688" lon="13.23152302846309"><ele>544.0</ele><time>2026-05-02T13:57:58Z</time></trkpt><trkpt lat="43.3635025468281" lon="13.231638958895228"><ele>544.0</ele><time>2026-05-02T13:57:59Z</time></trkpt><trkpt lat="43.363399821956044" lon="13.231799130630241"><ele>544.0</ele><time>2026-05-02T13:58:00Z</time></trkpt><trkpt lat="43.36324879482425" lon="13.23195482908478"><ele>544.0</ele><time>2026-05-02T13:58:01Z</time></trkpt><trkpt lat="43.36305458410897" lon="13.232063111059807"><ele>551.0</ele><time>2026-05-02T13:58:02Z</time></trkpt><trkpt lat="43.362833160275805" lon="13.232168759422782"><ele>558.0</ele><time>2026-05-02T13:58:03Z</time></trkpt><trkpt lat="43.36258063146012" lon="13.23228058263978"><ele>558.5</ele><time>2026-05-02T13:58:04Z</time></trkpt><trkpt lat="43.3623331413293" lon="13.23243641195283"><ele>559.0</ele><time>2026-05-02T13:58:05Z</time></trkpt><trkpt lat="43.36208962823468" lon="13.23261635075518"><ele>559.0</ele><time>2026-05-02T13:58:06Z</time></trkpt><trkpt lat="43.36185294634635" lon="13.232814421770708"><ele>559.0</ele><time>2026-05-02T13:58:07Z</time></trkpt><trkpt lat="43.361655497881536" lon="13.23297826404263"><ele>559.0</ele><time>2026-05-02T13:58:08Z</time></trkpt><trkpt lat="43.361496546100035" lon="13.233105929884694"><ele>559.0</ele><time>2026-05-02T13:58:09Z</time></trkpt><trkpt lat="43.36134104821022" lon="13.233173491241846"><ele>559.0</ele><time>2026-05-02T13:58:10Z</time></trkpt><trkpt lat="43.361185832238135" lon="13.233199003185433"><ele>558.6666666666667</ele><time>2026-05-02T13:58:11Z</time></trkpt><trkpt lat="43.361028426245134" lon="13.23315286614572"><ele>558.3333333333334</ele><time>2026-05-02T13:58:12Z</time></trkpt><trkpt lat="43.36083367934554" lon="13.23309678766145"><ele>558.0</ele><time>2026-05-02T13:58:13Z</time></trkpt><trkpt lat="43.3606550117417" lon="13.233048985316053"><ele>559.0</ele><time>2026-05-02T13:58:14Z</time></trkpt><trkpt lat="43.360509517867484" lon="13.233026594304764"><ele>560.0</ele><time>2026-05-02T13:58:15Z</time></trkpt><trkpt lat="43.36039162209205" lon="13.233054513936208"><ele>561.0</ele><time>2026-05-02T13:58:16Z</time></trkpt><trkpt lat="43.36031899990952" lon="13.23305534466335"><ele>562.0</ele><time>2026-05-02T13:58:17Z</time></trkpt><trkpt lat="43.36025977218116" lon="13.233131200562198"><ele>563.0</ele><time>2026-05-02T13:58:18Z</time></trkpt><trkpt lat="43.360237091352474" lon="13.233264511118838"><ele>563.0</ele><time>2026-05-02T13:58:19Z</time></trkpt><trkpt lat="43.36024660147655" lon="13.233469325087034"><ele>563.0</ele><time>2026-05-02T13:58:20Z</time></trkpt><trkpt lat="43.360290614277496" lon="13.233720680576468"><ele>563.0</ele><time>2026-05-02T13:58:21Z</time></trkpt><trkpt lat="43.36034792636636" lon="13.234015495864798"><ele>565.3333333333333</ele><time>2026-05-02T13:58:22Z</time></trkpt><trkpt lat="43.36039471611436" lon="13.234310940581572"><ele>567.6666666666666</ele><time>2026-05-02T13:58:23Z</time></trkpt><trkpt lat="43.36044027665275" lon="13.234534436030069"><ele>570.0</ele><time>2026-05-02T13:58:24Z</time></trkpt><trkpt lat="43.36052508780462" lon="13.23469481460181"><ele>569.4</ele><time>2026-05-02T13:58:25Z</time></trkpt><trkpt lat="43.36062634444369" lon="13.234736197638407"><ele>568.8</ele><time>2026-05-02T13:58:26Z</time></trkpt><trkpt lat="43.36075059632209" lon="13.234753929205581"><ele>568.2</ele><time>2026-05-02T13:58:27Z</time></trkpt><trkpt lat="43.36085099193506" lon="13.234802956762918"><ele>567.6</ele><time>2026-05-02T13:58:28Z</time></trkpt><trkpt lat="43.36087184847617" lon="13.234906998690121"><ele>567.0</ele><time>2026-05-02T13:58:29Z</time></trkpt><trkpt lat="43.36084295197516" lon="13.235023816986603"><ele>567.0</ele><time>2026-05-02T13:58:30Z</time></trkpt><trkpt lat="43.36076956680387" lon="13.235141075305759"><ele>567.0</ele><time>2026-05-02T13:58:31Z</time></trkpt><trkpt lat="43.36069561082103" lon="13.235327054962"><ele>567.0</ele><time>2026-05-02T13:58:32Z</time></trkpt><trkpt lat="43.36061764045754" lon="13.235546093878378"><ele>567.0</ele><time>2026-05-02T13:58:33Z</time></trkpt><trkpt lat="43.36052784679321" lon="13.235751779088238"><ele>571.3333333333334</ele><time>2026-05-02T13:58:34Z</time></trkpt><trkpt lat="43.36043322233043" lon="13.23596904299668"><ele>575.6666666666667</ele><time>2026-05-02T13:58:35Z</time></trkpt><trkpt lat="43.36033137929679" lon="13.23619382095058"><ele>580.0</ele><time>2026-05-02T13:58:36Z</time></trkpt><trkpt lat="43.36023105019528" lon="13.23642022665838"><ele>577.0</ele><time>2026-05-02T13:58:37Z</time></trkpt><trkpt lat="43.36013401964342" lon="13.236627504147856"><ele>574.0</ele><time>2026-05-02T13:58:38Z</time></trkpt><trkpt lat="43.36003368403727" lon="13.236802164738089"><ele>571.0</ele><time>2026-05-02T13:58:39Z</time></trkpt><trkpt lat="43.35989177976399" lon="13.236954058899045"><ele>571.0</ele><time>2026-05-02T13:58:40Z</time></trkpt><trkpt lat="43.35973958560537" lon="13.23710232870264"><ele>571.0</ele><time>2026-05-02T13:58:41Z</time></trkpt><trkpt lat="43.35958498389909" lon="13.237242587978075"><ele>571.0</ele><time>2026-05-02T13:58:42Z</time></trkpt><trkpt lat="43.35943704940463" lon="13.23739148817846"><ele>567.6666666666667</ele><time>2026-05-02T13:58:43Z</time></trkpt><trkpt lat="43.35928621760052" lon="13.23752368027769"><ele>564.3333333333334</ele><time>2026-05-02T13:58:44Z</time></trkpt><trkpt lat="43.359146877684864" lon="13.237648796612548"><ele>561.0</ele><time>2026-05-02T13:58:45Z</time></trkpt><trkpt lat="43.35901378240003" lon="13.23777498451525"><ele>561.0</ele><time>2026-05-02T13:58:46Z</time></trkpt><trkpt lat="43.35889306055826" lon="13.237899510237522"><ele>561.0</ele><time>2026-05-02T13:58:47Z</time></trkpt><trkpt lat="43.358773345169986" lon="13.238028399075253"><ele>561.0</ele><time>2026-05-02T13:58:48Z</time></trkpt><trkpt lat="43.35865254886934" lon="13.238137188786757"><ele>561.0</ele><time>2026-05-02T13:58:49Z</time></trkpt><trkpt lat="43.35851016169478" lon="13.238217304069126"><ele>558.25</ele><time>2026-05-02T13:58:50Z</time></trkpt><trkpt lat="43.35839419466217" lon="13.238289311907822"><ele>555.5</ele><time>2026-05-02T13:58:51Z</time></trkpt><trkpt lat="43.35828288126497" lon="13.238386465421677"><ele>552.75</ele><time>2026-05-02T13:58:52Z</time></trkpt><trkpt lat="43.35817480419447" lon="13.238493866655379"><ele>550.0</ele><time>2026-05-02T13:58:53Z</time></trkpt><trkpt lat="43.358074567701784" lon="13.238610579933352"><ele>549.2</ele><time>2026-05-02T13:58:54Z</time></trkpt><trkpt lat="43.35797855827843" lon="13.238709730755353"><ele>548.4</ele><time>2026-05-02T13:58:55Z</time></trkpt><trkpt lat="43.35788772000816" lon="13.238786425057851"><ele>547.6</ele><time>2026-05-02T13:58:56Z</time></trkpt><trkpt lat="43.35781080648588" lon="13.238865552674948"><ele>546.8</ele><time>2026-05-02T13:58:57Z</time></trkpt><trkpt lat="43.35774990723648" lon="13.238956517256602"><ele>546.0</ele><time>2026-05-02T13:58:58Z</time></trkpt><trkpt lat="43.357695046982684" lon="13.23902120227604"><ele>545.1666666666666</ele><time>2026-05-02T13:58:59Z</time></trkpt><trkpt lat="43.35764047011888" lon="13.239082785864912"><ele>544.3333333333334</ele><time>2026-05-02T13:59:00Z</time></trkpt><trkpt lat="43.35757697764621" lon="13.23912071381974"><ele>543.5</ele><time>2026-05-02T13:59:01Z</time></trkpt><trkpt lat="43.35752293849883" lon="13.239172920043243"><ele>542.6666666666667</ele><time>2026-05-02T13:59:02Z</time></trkpt><trkpt lat="43.357448315383415" lon="13.239210785578052"><ele>541.8333333333334</ele><time>2026-05-02T13:59:03Z</time></trkpt><trkpt lat="43.35734343205227" lon="13.239330447476142"><ele>541.0</ele><time>2026-05-02T13:59:05Z</time></trkpt><trkpt lat="43.357283327699946" lon="13.239393745074892"><ele>541.0</ele><time>2026-05-02T13:59:06Z</time></trkpt><trkpt lat="43.35720468822994" lon="13.239452602871637"><ele>541.0</ele><time>2026-05-02T13:59:07Z</time></trkpt><trkpt lat="43.35713508716977" lon="13.2395307168723"><ele>541.0</ele><time>2026-05-02T13:59:08Z</time></trkpt><trkpt lat="43.35709396516126" lon="13.239646794193618"><ele>541.0</ele><time>2026-05-02T13:59:09Z</time></trkpt><trkpt lat="43.35702757185487" lon="13.239727258534641"><ele>541.0</ele><time>2026-05-02T13:59:10Z</time></trkpt><trkpt lat="43.35694074131085" lon="13.239829163132988"><ele>537.75</ele><time>2026-05-02T13:59:11Z</time></trkpt><trkpt lat="43.35681095817981" lon="13.23994944548918"><ele>534.5</ele><time>2026-05-02T13:59:13Z</time></trkpt><trkpt lat="43.356712830140154" lon="13.240040550454566"><ele>531.25</ele><time>2026-05-02T13:59:14Z</time></trkpt><trkpt lat="43.35661687786915" lon="13.240158283940412"><ele>528.0</ele><time>2026-05-02T13:59:15Z</time></trkpt><trkpt lat="43.35651149938484" lon="13.240266927295103"><ele>528.0</ele><time>2026-05-02T13:59:16Z</time></trkpt><trkpt lat="43.35638168644117" lon="13.24040089891054"><ele>528.0</ele><time>2026-05-02T13:59:17Z</time></trkpt><trkpt lat="43.35627194719641" lon="13.24051415375072"><ele>528.0</ele><time>2026-05-02T13:59:18Z</time></trkpt><trkpt lat="43.35617057761937" lon="13.240610393758363"><ele>528.0</ele><time>2026-05-02T13:59:19Z</time></trkpt><trkpt lat="43.35607853742476" lon="13.240709837944152"><ele>527.6</ele><time>2026-05-02T13:59:20Z</time></trkpt><trkpt lat="43.35598314254412" lon="13.240801684114242"><ele>527.1999999999999</ele><time>2026-05-02T13:59:21Z</time></trkpt><trkpt lat="43.35590575116661" lon="13.24090272909262"><ele>526.8</ele><time>2026-05-02T13:59:22Z</time></trkpt><trkpt lat="43.35583188939085" lon="13.240976546235576"><ele>526.4</ele><time>2026-05-02T13:59:23Z</time></trkpt><trkpt lat="43.35576514422079" lon="13.241018364886822"><ele>526.0</ele><time>2026-05-02T13:59:24Z</time></trkpt><trkpt lat="43.35567617957881" lon="13.241032779171794"><ele>526.0</ele><time>2026-05-02T13:59:26Z</time></trkpt><trkpt lat="43.35560592495463" lon="13.24110791529495"><ele>526.0</ele><time>2026-05-02T13:59:28Z</time></trkpt><trkpt lat="43.355554146234226" lon="13.24115959833729"><ele>526.0</ele><time>2026-05-02T13:59:29Z</time></trkpt><trkpt lat="43.3554857486559" lon="13.241182266325"><ele>526.0</ele><time>2026-05-02T13:59:31Z</time></trkpt><trkpt lat="43.35556284816267" lon="13.241313176314758"><ele>526.0</ele><time>2026-05-02T13:59:34Z</time></trkpt><trkpt lat="43.35564780405668" lon="13.241218288903038"><ele>526.0</ele><time>2026-05-02T13:59:36Z</time></trkpt><trkpt lat="43.35569729474061" lon="13.24115794390563"><ele>526.0</ele><time>2026-05-02T13:59:37Z</time></trkpt><trkpt lat="43.35575693097207" lon="13.241099653745113"><ele>526.0</ele><time>2026-05-02T13:59:38Z</time></trkpt><trkpt lat="43.35582309135534" lon="13.241044398545096"><ele>526.0</ele><time>2026-05-02T13:59:39Z</time></trkpt><trkpt lat="43.35589313628248" lon="13.240966550503803"><ele>526.0</ele><time>2026-05-02T13:59:40Z</time></trkpt><trkpt lat="43.35595955752887" lon="13.240864666550147"><ele>526.0</ele><time>2026-05-02T13:59:41Z</time></trkpt><trkpt lat="43.356051162779266" lon="13.240775811056901"><ele>526.0</ele><time>2026-05-02T13:59:42Z</time></trkpt><trkpt lat="43.35614923295307" lon="13.2406831756845"><ele>526.0</ele><time>2026-05-02T13:59:43Z</time></trkpt><trkpt lat="43.35624052912386" lon="13.240582392923294"><ele>526.0</ele><time>2026-05-02T13:59:44Z</time></trkpt><trkpt lat="43.356349054702044" lon="13.24047164821151"><ele>526.0</ele><time>2026-05-02T13:59:45Z</time></trkpt><trkpt lat="43.35646009929107" lon="13.240365699434307"><ele>526.5</ele><time>2026-05-02T13:59:46Z</time></trkpt><trkpt lat="43.35657186794874" lon="13.240250102689773"><ele>527.0</ele><time>2026-05-02T13:59:47Z</time></trkpt><trkpt lat="43.35667485466696" lon="13.24013015575532"><ele>527.5</ele><time>2026-05-02T13:59:48Z</time></trkpt><trkpt lat="43.356780349117166" lon="13.240026819760196"><ele>528.0</ele><time>2026-05-02T13:59:49Z</time></trkpt><trkpt lat="43.35684720803546" lon="13.239946862036314"><ele>528.0</ele><time>2026-05-02T13:59:50Z</time></trkpt><trkpt lat="43.356924843502455" lon="13.239911264247596"><ele>528.0</ele><time>2026-05-02T13:59:51Z</time></trkpt><trkpt lat="43.35703957097118" lon="13.239769458112768"><ele>528.0</ele><time>2026-05-02T13:59:53Z</time></trkpt><trkpt lat="43.357116148004316" lon="13.239707177044762"><ele>528.0</ele><time>2026-05-02T13:59:54Z</time></trkpt><trkpt lat="43.35718171901736" lon="13.239612633599064"><ele>528.0</ele><time>2026-05-02T13:59:55Z</time></trkpt><trkpt lat="43.35724181751069" lon="13.23949990086156"><ele>530.6</ele><time>2026-05-02T13:59:56Z</time></trkpt><trkpt lat="43.35731255479192" lon="13.239358731545318"><ele>533.1999999999999</ele><time>2026-05-02T13:59:57Z</time></trkpt><trkpt lat="43.357388890314965" lon="13.239317791236278"><ele>535.8</ele><time>2026-05-02T13:59:58Z</time></trkpt><trkpt lat="43.357515926461204" lon="13.23924243089247"><ele>538.4</ele><time>2026-05-02T14:00:00Z</time></trkpt><trkpt lat="43.35758067705891" lon="13.239162644521958"><ele>541.0</ele><time>2026-05-02T14:00:01Z</time></trkpt><trkpt lat="43.35764723395516" lon="13.239115796777643"><ele>541.0</ele><time>2026-05-02T14:00:02Z</time></trkpt><trkpt lat="43.3577261972601" lon="13.239150275842052"><ele>541.0</ele><time>2026-05-02T14:00:03Z</time></trkpt><trkpt lat="43.357848310162495" lon="13.239101918181618"><ele>541.0</ele><time>2026-05-02T14:00:05Z</time></trkpt><trkpt lat="43.35792292283063" lon="13.239096818726898"><ele>541.0</ele><time>2026-05-02T14:00:06Z</time></trkpt><trkpt lat="43.35799425257711" lon="13.23909749708334"><ele>541.0</ele><time>2026-05-02T14:00:07Z</time></trkpt><trkpt lat="43.35806976264218" lon="13.23912443271018"><ele>541.0</ele><time>2026-05-02T14:00:08Z</time></trkpt><trkpt lat="43.35813723455361" lon="13.23914407707983"><ele>540.1666666666667</ele><time>2026-05-02T14:00:09Z</time></trkpt><trkpt lat="43.35821384883282" lon="13.23917348265716"><ele>539.3333333333334</ele><time>2026-05-02T14:00:10Z</time></trkpt><trkpt lat="43.35829089929428" lon="13.239217190015612"><ele>538.5</ele><time>2026-05-02T14:00:11Z</time></trkpt><trkpt lat="43.35839202306695" lon="13.23921704391526"><ele>537.6666666666666</ele><time>2026-05-02T14:00:12Z</time></trkpt><trkpt lat="43.35847690922976" lon="13.239228293708674"><ele>536.8333333333333</ele><time>2026-05-02T14:00:13Z</time></trkpt><trkpt lat="43.35856454949465" lon="13.239265971188644"><ele>536.0</ele><time>2026-05-02T14:00:14Z</time></trkpt><trkpt lat="43.358657240158905" lon="13.239305571605168"><ele>536.0</ele><time>2026-05-02T14:00:15Z</time></trkpt><trkpt lat="43.35872957362452" lon="13.239374939356804"><ele>536.0</ele><time>2026-05-02T14:00:16Z</time></trkpt><trkpt lat="43.35881195200335" lon="13.239439676756417"><ele>536.0</ele><time>2026-05-02T14:00:17Z</time></trkpt><trkpt lat="43.35887981218795" lon="13.239500235672288"><ele>536.0</ele><time>2026-05-02T14:00:18Z</time></trkpt><trkpt lat="43.35897390915546" lon="13.239527627292588"><ele>536.0</ele><time>2026-05-02T14:00:19Z</time></trkpt><trkpt lat="43.359049448536055" lon="13.239565088319162"><ele>536.0</ele><time>2026-05-02T14:00:20Z</time></trkpt><trkpt lat="43.35914174981206" lon="13.23958024873061"><ele>535.3333333333333</ele><time>2026-05-02T14:00:21Z</time></trkpt><trkpt lat="43.359213675764366" lon="13.239619541064387"><ele>534.6666666666666</ele><time>2026-05-02T14:00:22Z</time></trkpt><trkpt lat="43.35928511074687" lon="13.239649926987777"><ele>534.0</ele><time>2026-05-02T14:00:23Z</time></trkpt><trkpt lat="43.359344557651866" lon="13.23969366471957"><ele>533.3333333333334</ele><time>2026-05-02T14:00:24Z</time></trkpt><trkpt lat="43.35944464315675" lon="13.239802722153437"><ele>532.6666666666667</ele><time>2026-05-02T14:00:26Z</time></trkpt><trkpt lat="43.35950490137839" lon="13.239886418670238"><ele>532.0</ele><time>2026-05-02T14:00:27Z</time></trkpt><trkpt lat="43.359556092622775" lon="13.23997780064914"><ele>529.5</ele><time>2026-05-02T14:00:28Z</time></trkpt><trkpt lat="43.35960029296216" lon="13.24007798046459"><ele>527.0</ele><time>2026-05-02T14:00:29Z</time></trkpt><trkpt lat="43.35962971587915" lon="13.240181434371488"><ele>524.5</ele><time>2026-05-02T14:00:30Z</time></trkpt><trkpt lat="43.3596679679889" lon="13.24027949263352"><ele>522.0</ele><time>2026-05-02T14:00:31Z</time></trkpt><trkpt lat="43.35970948453766" lon="13.240376503739002"><ele>519.5</ele><time>2026-05-02T14:00:32Z</time></trkpt><trkpt lat="43.35975071348518" lon="13.240481396812298"><ele>517.0</ele><time>2026-05-02T14:00:33Z</time></trkpt><trkpt lat="43.35980541161033" lon="13.240579453046648"><ele>514.5</ele><time>2026-05-02T14:00:34Z</time></trkpt><trkpt lat="43.35984571035903" lon="13.240673552397725"><ele>512.0</ele><time>2026-05-02T14:00:35Z</time></trkpt><trkpt lat="43.35988805375726" lon="13.240779095022724"><ele>509.5</ele><time>2026-05-02T14:00:36Z</time></trkpt><trkpt lat="43.35992148126033" lon="13.240881603594788"><ele>507.0</ele><time>2026-05-02T14:00:37Z</time></trkpt><trkpt lat="43.35994245987645" lon="13.240989421521128"><ele>504.50000000000006</ele><time>2026-05-02T14:00:38Z</time></trkpt><trkpt lat="43.35994969352342" lon="13.24110509736139"><ele>502.0</ele><time>2026-05-02T14:00:39Z</time></trkpt><trkpt lat="43.35995132649931" lon="13.241213302466967"><ele>502.00000000000006</ele><time>2026-05-02T14:00:40Z</time></trkpt><trkpt lat="43.359954749344844" lon="13.241321455086078"><ele>502.0</ele><time>2026-05-02T14:00:41Z</time></trkpt><trkpt lat="43.35995109110597" lon="13.241443209562757"><ele>502.0</ele><time>2026-05-02T14:00:42Z</time></trkpt><trkpt lat="43.35993810742594" lon="13.241557861616052"><ele>502.0</ele><time>2026-05-02T14:00:43Z</time></trkpt><trkpt lat="43.3599220651663" lon="13.241668866106048"><ele>502.00000000000006</ele><time>2026-05-02T14:00:44Z</time></trkpt><trkpt lat="43.359916595108075" lon="13.241789982722569"><ele>502.0</ele><time>2026-05-02T14:00:45Z</time></trkpt><trkpt lat="43.359906038745855" lon="13.24190892058069"><ele>500.1666666666667</ele><time>2026-05-02T14:00:46Z</time></trkpt><trkpt lat="43.35989801550654" lon="13.242024851939593"><ele>498.33333333333337</ele><time>2026-05-02T14:00:47Z</time></trkpt><trkpt lat="43.35989071528615" lon="13.242139956770384"><ele>496.5</ele><time>2026-05-02T14:00:48Z</time></trkpt><trkpt lat="43.359885731741905" lon="13.242233008211699"><ele>494.66666666666663</ele><time>2026-05-02T14:00:49Z</time></trkpt><trkpt lat="43.35988396273822" lon="13.242372616117162"><ele>492.8333333333333</ele><time>2026-05-02T14:00:51Z</time></trkpt><trkpt lat="43.359941823888924" lon="13.242434063113377"><ele>491.0</ele><time>2026-05-02T14:02:43Z</time></trkpt><trkpt lat="43.3599267495126" lon="13.242313490043353"><ele>491.0</ele><time>2026-05-02T14:02:47Z</time></trkpt><trkpt lat="43.35991281201967" lon="13.242159185558204"><ele>491.0</ele><time>2026-05-02T14:02:49Z</time></trkpt><trkpt lat="43.35993006814257" lon="13.242032200290033"><ele>491.0</ele><time>2026-05-02T14:02:50Z</time></trkpt><trkpt lat="43.3599421239998" lon="13.241925247082664"><ele>491.0</ele><time>2026-05-02T14:02:51Z</time></trkpt><trkpt lat="43.35994890565888" lon="13.241788638522436"><ele>491.0</ele><time>2026-05-02T14:02:52Z</time></trkpt><trkpt lat="43.35995699933371" lon="13.241641492075884"><ele>490.99999999999994</ele><time>2026-05-02T14:02:53Z</time></trkpt><trkpt lat="43.35997035908816" lon="13.241503134460498"><ele>491.0</ele><time>2026-05-02T14:02:54Z</time></trkpt><trkpt lat="43.35997505694027" lon="13.241370978491792"><ele>491.0</ele><time>2026-05-02T14:02:55Z</time></trkpt><trkpt lat="43.35998171473085" lon="13.241272274650887"><ele>491.0</ele><time>2026-05-02T14:02:56Z</time></trkpt><trkpt lat="43.35999213624699" lon="13.241167142818876"><ele>490.99999999999994</ele><time>2026-05-02T14:02:57Z</time></trkpt><trkpt lat="43.359992069424365" lon="13.241036497800355"><ele>491.0</ele><time>2026-05-02T14:02:58Z</time></trkpt><trkpt lat="43.359991469694776" lon="13.240909432634847"><ele>492.8333333333333</ele><time>2026-05-02T14:02:59Z</time></trkpt><trkpt lat="43.35996585598493" lon="13.24079631906764"><ele>494.66666666666663</ele><time>2026-05-02T14:03:00Z</time></trkpt><trkpt lat="43.359919678233545" lon="13.240688182331649"><ele>496.5</ele><time>2026-05-02T14:03:01Z</time></trkpt><trkpt lat="43.35986396037203" lon="13.240588356705056"><ele>498.33333333333337</ele><time>2026-05-02T14:03:02Z</time></trkpt><trkpt lat="43.359813247269024" lon="13.240494712665216"><ele>500.1666666666667</ele><time>2026-05-02T14:03:03Z</time></trkpt><trkpt lat="43.359770028096854" lon="13.240397269817938"><ele>502.0</ele><time>2026-05-02T14:03:04Z</time></trkpt><trkpt lat="43.3597316762071" lon="13.240309953557793"><ele>504.00000000000006</ele><time>2026-05-02T14:03:05Z</time></trkpt><trkpt lat="43.35969000173685" lon="13.240216419578498"><ele>506.0</ele><time>2026-05-02T14:03:06Z</time></trkpt><trkpt lat="43.3596606017209" lon="13.240127279959932"><ele>508.0</ele><time>2026-05-02T14:03:07Z</time></trkpt><trkpt lat="43.35962118581896" lon="13.240023173170526"><ele>510.0</ele><time>2026-05-02T14:03:08Z</time></trkpt><trkpt lat="43.35958149326127" lon="13.239899805528855"><ele>512.0</ele><time>2026-05-02T14:03:09Z</time></trkpt><trkpt lat="43.35951564670182" lon="13.239776081074524"><ele>514.0</ele><time>2026-05-02T14:03:10Z</time></trkpt><trkpt lat="43.35943692355792" lon="13.239678833970085"><ele>518.5</ele><time>2026-05-02T14:03:11Z</time></trkpt><trkpt lat="43.35932690768436" lon="13.239587556009068"><ele>523.0</ele><time>2026-05-02T14:03:12Z</time></trkpt><trkpt lat="43.359202225317226" lon="13.239524190317363"><ele>527.5</ele><time>2026-05-02T14:03:13Z</time></trkpt><trkpt lat="43.35906459046547" lon="13.239481259153576"><ele>532.0</ele><time>2026-05-02T14:03:14Z</time></trkpt><trkpt lat="43.35891878648086" lon="13.239458651422785"><ele>533.0</ele><time>2026-05-02T14:03:15Z</time></trkpt><trkpt lat="43.358789905300654" lon="13.239400631093233"><ele>534.0</ele><time>2026-05-02T14:03:16Z</time></trkpt><trkpt lat="43.358675756650435" lon="13.239291682924044"><ele>535.0</ele><time>2026-05-02T14:03:17Z</time></trkpt><trkpt lat="43.3585664655755" lon="13.239200578031975"><ele>536.0</ele><time>2026-05-02T14:03:18Z</time></trkpt><trkpt lat="43.35844786490257" lon="13.239151131455456"><ele>536.0</ele><time>2026-05-02T14:03:19Z</time></trkpt><trkpt lat="43.358324649569134" lon="13.239148627164417"><ele>536.0</ele><time>2026-05-02T14:03:20Z</time></trkpt><trkpt lat="43.358213216781" lon="13.239148092868911"><ele>536.0</ele><time>2026-05-02T14:03:21Z</time></trkpt><trkpt lat="43.358093685756245" lon="13.239098753711755"><ele>536.0</ele><time>2026-05-02T14:03:22Z</time></trkpt><trkpt lat="43.35798293307744" lon="13.239065430566837"><ele>536.8333333333333</ele><time>2026-05-02T14:03:23Z</time></trkpt><trkpt lat="43.35788792847442" lon="13.239035292748214"><ele>537.6666666666666</ele><time>2026-05-02T14:03:24Z</time></trkpt><trkpt lat="43.35780184934746" lon="13.239031395122055"><ele>538.5</ele><time>2026-05-02T14:03:25Z</time></trkpt><trkpt lat="43.35773414676793" lon="13.239076837990682"><ele>539.3333333333334</ele><time>2026-05-02T14:03:26Z</time></trkpt><trkpt lat="43.357678819921055" lon="13.239119595612737"><ele>540.1666666666667</ele><time>2026-05-02T14:03:27Z</time></trkpt><trkpt lat="43.35760504235082" lon="13.239116554159576"><ele>541.0</ele><time>2026-05-02T14:03:33Z</time></trkpt><trkpt lat="43.35750289936444" lon="13.239212009530387"><ele>541.0</ele><time>2026-05-02T14:03:35Z</time></trkpt><trkpt lat="43.35742273488464" lon="13.239274508531173"><ele>541.0</ele><time>2026-05-02T14:03:37Z</time></trkpt><trkpt lat="43.35736148291223" lon="13.239353353680801"><ele>541.0</ele><time>2026-05-02T14:03:39Z</time></trkpt><trkpt lat="43.35728806020175" lon="13.239394083047051"><ele>541.0</ele><time>2026-05-02T14:03:41Z</time></trkpt><trkpt lat="43.35720129419708" lon="13.239519443300459"><ele>541.0</ele><time>2026-05-02T14:03:43Z</time></trkpt><trkpt lat="43.35715341670335" lon="13.239593093006263"><ele>539.0</ele><time>2026-05-02T14:03:44Z</time></trkpt><trkpt lat="43.35708800143564" lon="13.239664868480725"><ele>537.0</ele><time>2026-05-02T14:03:45Z</time></trkpt><trkpt lat="43.357039705245086" lon="13.239768515453049"><ele>535.0</ele><time>2026-05-02T14:03:46Z</time></trkpt><trkpt lat="43.356957478577534" lon="13.239835930898899"><ele>533.0</ele><time>2026-05-02T14:03:47Z</time></trkpt><trkpt lat="43.356856667301294" lon="13.23993990182485"><ele>531.0</ele><time>2026-05-02T14:03:48Z</time></trkpt><trkpt lat="43.356750836204355" lon="13.240055742538626"><ele>530.25</ele><time>2026-05-02T14:03:49Z</time></trkpt><trkpt lat="43.356643838489624" lon="13.240160528762795"><ele>529.5</ele><time>2026-05-02T14:03:50Z</time></trkpt><trkpt lat="43.35653239855212" lon="13.240280240461486"><ele>528.75</ele><time>2026-05-02T14:03:51Z</time></trkpt><trkpt lat="43.356411858561195" lon="13.240406356930633"><ele>528.0</ele><time>2026-05-02T14:03:52Z</time></trkpt><trkpt lat="43.35629595274525" lon="13.240524341197798"><ele>527.5</ele><time>2026-05-02T14:03:53Z</time></trkpt><trkpt lat="43.35619035748459" lon="13.240627462638853"><ele>527.0</ele><time>2026-05-02T14:03:54Z</time></trkpt><trkpt lat="43.356094070981435" lon="13.240729318362442"><ele>526.5</ele><time>2026-05-02T14:03:55Z</time></trkpt><trkpt lat="43.35600286470374" lon="13.24082836848929"><ele>526.0</ele><time>2026-05-02T14:03:56Z</time></trkpt><trkpt lat="43.355916208633175" lon="13.240909854143787"><ele>526.0</ele><time>2026-05-02T14:03:57Z</time></trkpt><trkpt lat="43.355837613331055" lon="13.240986084631773"><ele>526.0</ele><time>2026-05-02T14:03:58Z</time></trkpt><trkpt lat="43.3557647881787" lon="13.241059880366814"><ele>526.0</ele><time>2026-05-02T14:03:59Z</time></trkpt><trkpt lat="43.35565295540295" lon="13.241039168258439"><ele>526.0</ele><time>2026-05-02T14:04:01Z</time></trkpt><trkpt lat="43.35559703163691" lon="13.240957442694507"><ele>526.0</ele><time>2026-05-02T14:04:02Z</time></trkpt><trkpt lat="43.35555606302013" lon="13.240849072656642"><ele>525.6666666666667</ele><time>2026-05-02T14:04:03Z</time></trkpt><trkpt lat="43.355506902617414" lon="13.240738671992068"><ele>525.3333333333334</ele><time>2026-05-02T14:04:04Z</time></trkpt><trkpt lat="43.35546377586696" lon="13.240644128942707"><ele>525.0</ele><time>2026-05-02T14:04:05Z</time></trkpt><trkpt lat="43.35542009955264" lon="13.24054902933647"><ele>524.6666666666666</ele><time>2026-05-02T14:04:06Z</time></trkpt><trkpt lat="43.35537746469435" lon="13.240450260480644"><ele>524.3333333333333</ele><time>2026-05-02T14:04:07Z</time></trkpt><trkpt lat="43.35534180401151" lon="13.240361090909143"><ele>524.0</ele><time>2026-05-02T14:04:08Z</time></trkpt><trkpt lat="43.355297384353335" lon="13.240257220004885"><ele>522.1666666666666</ele><time>2026-05-02T14:04:09Z</time></trkpt><trkpt lat="43.35527011680946" lon="13.240145532384204"><ele>520.3333333333333</ele><time>2026-05-02T14:04:10Z</time></trkpt><trkpt lat="43.35526992944257" lon="13.240055146472956"><ele>518.5</ele><time>2026-05-02T14:04:11Z</time></trkpt><trkpt lat="43.35528444071246" lon="13.2399442640044"><ele>516.6666666666666</ele><time>2026-05-02T14:04:12Z</time></trkpt><trkpt lat="43.35533400264442" lon="13.239865131332792"><ele>514.8333333333334</ele><time>2026-05-02T14:04:13Z</time></trkpt><trkpt lat="43.35538914094112" lon="13.239780822595394"><ele>513.0</ele><time>2026-05-02T14:04:14Z</time></trkpt><trkpt lat="43.35543939427294" lon="13.239696314966357"><ele>513.5</ele><time>2026-05-02T14:04:15Z</time></trkpt><trkpt lat="43.35548623953159" lon="13.239604486543447"><ele>514.0</ele><time>2026-05-02T14:04:16Z</time></trkpt><trkpt lat="43.355530337670864" lon="13.239509961189839"><ele>514.5</ele><time>2026-05-02T14:04:17Z</time></trkpt><trkpt lat="43.35556978744169" lon="13.239417186160393"><ele>515.0</ele><time>2026-05-02T14:04:18Z</time></trkpt><trkpt lat="43.35559977650421" lon="13.239326695109902"><ele>515.5</ele><time>2026-05-02T14:04:19Z</time></trkpt><trkpt lat="43.355582954442895" lon="13.239189461058322"><ele>516.0</ele><time>2026-05-02T14:04:21Z</time></trkpt><trkpt lat="43.35545667243402" lon="13.239185299892696"><ele>513.0</ele><time>2026-05-02T14:04:23Z</time></trkpt><trkpt lat="43.3553701766566" lon="13.239226656888752"><ele>510.0</ele><time>2026-05-02T14:04:24Z</time></trkpt><trkpt lat="43.35527216020631" lon="13.239314072168666"><ele>507.0</ele><time>2026-05-02T14:04:25Z</time></trkpt><trkpt lat="43.35514107498088" lon="13.23939153135247"><ele>504.0</ele><time>2026-05-02T14:04:26Z</time></trkpt><trkpt lat="43.355005930510046" lon="13.239509596951207"><ele>504.0</ele><time>2026-05-02T14:04:27Z</time></trkpt><trkpt lat="43.354852182528575" lon="13.23961035570518"><ele>504.0</ele><time>2026-05-02T14:04:28Z</time></trkpt><trkpt lat="43.35468527670652" lon="13.239728886010798"><ele>504.0</ele><time>2026-05-02T14:04:29Z</time></trkpt><trkpt lat="43.354510518773466" lon="13.239865571491412"><ele>500.0</ele><time>2026-05-02T14:04:30Z</time></trkpt><trkpt lat="43.354338755066095" lon="13.23999017264734"><ele>496.0</ele><time>2026-05-02T14:04:31Z</time></trkpt><trkpt lat="43.35413324332493" lon="13.240116910055477"><ele>492.0</ele><time>2026-05-02T14:04:32Z</time></trkpt><trkpt lat="43.35391916440107" lon="13.24022881229444"><ele>486.0</ele><time>2026-05-02T14:04:33Z</time></trkpt><trkpt lat="43.35373258573004" lon="13.240307700961901"><ele>480.0</ele><time>2026-05-02T14:04:34Z</time></trkpt><trkpt lat="43.353556061862975" lon="13.240441333229032"><ele>474.0</ele><time>2026-05-02T14:04:35Z</time></trkpt><trkpt lat="43.35340449159483" lon="13.240609595246932"><ele>479.0</ele><time>2026-05-02T14:04:36Z</time></trkpt><trkpt lat="43.35328835360879" lon="13.240823797782483"><ele>484.0</ele><time>2026-05-02T14:04:37Z</time></trkpt><trkpt lat="43.35320414420399" lon="13.241025672221014"><ele>489.0</ele><time>2026-05-02T14:04:38Z</time></trkpt><trkpt lat="43.35313742478004" lon="13.241180446784222"><ele>489.0</ele><time>2026-05-02T14:04:39Z</time></trkpt><trkpt lat="43.353079643745815" lon="13.24130952081245"><ele>489.0</ele><time>2026-05-02T14:04:40Z</time></trkpt><trkpt lat="43.35297534434792" lon="13.241387451876507"><ele>489.0</ele><time>2026-05-02T14:04:42Z</time></trkpt><trkpt lat="43.35291708964625" lon="13.241348289622865"><ele>489.0</ele><time>2026-05-02T14:04:43Z</time></trkpt><trkpt lat="43.352928275347516" lon="13.241164251666554"><ele>489.0</ele><time>2026-05-02T14:04:45Z</time></trkpt><trkpt lat="43.3529765731034" lon="13.241035789762094"><ele>489.0</ele><time>2026-05-02T14:04:46Z</time></trkpt><trkpt lat="43.35302493851653" lon="13.240894390158415"><ele>489.0</ele><time>2026-05-02T14:04:47Z</time></trkpt><trkpt lat="43.353091767813005" lon="13.240736590411828"><ele>489.0</ele><time>2026-05-02T14:04:48Z</time></trkpt><trkpt lat="43.35316041151928" lon="13.240547712790496"><ele>489.0</ele><time>2026-05-02T14:04:49Z</time></trkpt><trkpt lat="43.3532281751013" lon="13.24034801567275"><ele>485.33333333333337</ele><time>2026-05-02T14:04:50Z</time></trkpt><trkpt lat="43.3533133876841" lon="13.240123638833282"><ele>481.6666666666667</ele><time>2026-05-02T14:04:51Z</time></trkpt><trkpt lat="43.35340468270645" lon="13.239894391581478"><ele>478.0</ele><time>2026-05-02T14:04:52Z</time></trkpt><trkpt lat="43.35343677645535" lon="13.23977969295634"><ele>478.0</ele><time>2026-05-02T14:04:53Z</time></trkpt><trkpt lat="43.35347851977549" lon="13.239678530194725"><ele>477.99999999999994</ele><time>2026-05-02T14:04:54Z</time></trkpt><trkpt lat="43.35342051670506" lon="13.239535502391021"><ele>477.99999999999994</ele><time>2026-05-02T14:04:55Z</time></trkpt><trkpt lat="43.35332960515694" lon="13.239435750485427"><ele>478.0</ele><time>2026-05-02T14:04:56Z</time></trkpt><trkpt lat="43.35320730008707" lon="13.239385136001424"><ele>478.0</ele><time>2026-05-02T14:04:57Z</time></trkpt><trkpt lat="43.353064323925544" lon="13.239383120954825"><ele>484.0</ele><time>2026-05-02T14:04:58Z</time></trkpt><trkpt lat="43.352905509552784" lon="13.23943229626049"><ele>490.0</ele><time>2026-05-02T14:04:59Z</time></trkpt><trkpt lat="43.35274327554594" lon="13.239496876932062"><ele>496.0</ele><time>2026-05-02T14:05:00Z</time></trkpt><trkpt lat="43.352572825631064" lon="13.239600571591026"><ele>496.0</ele><time>2026-05-02T14:05:01Z</time></trkpt><trkpt lat="43.35239563113861" lon="13.239746199791199"><ele>496.0</ele><time>2026-05-02T14:05:02Z</time></trkpt><trkpt lat="43.35223299352686" lon="13.239920580758234"><ele>496.0</ele><time>2026-05-02T14:05:03Z</time></trkpt><trkpt lat="43.3520640823193" lon="13.240107448160732"><ele>495.0</ele><time>2026-05-02T14:05:04Z</time></trkpt><trkpt lat="43.35189654708166" lon="13.240352629266996"><ele>494.0</ele><time>2026-05-02T14:05:05Z</time></trkpt><trkpt lat="43.35173540025936" lon="13.240627467079436"><ele>479.5</ele><time>2026-05-02T14:05:06Z</time></trkpt><trkpt lat="43.35156022565834" lon="13.240851608493454"><ele>465.0</ele><time>2026-05-02T14:05:07Z</time></trkpt><trkpt lat="43.35139964827454" lon="13.241046510137387"><ele>464.0</ele><time>2026-05-02T14:05:08Z</time></trkpt><trkpt lat="43.3512768817273" lon="13.241266904825466"><ele>463.0</ele><time>2026-05-02T14:05:09Z</time></trkpt><trkpt lat="43.35120173334721" lon="13.241524035721715"><ele>462.0</ele><time>2026-05-02T14:05:10Z</time></trkpt><trkpt lat="43.35113527874165" lon="13.241814310532789"><ele>462.0</ele><time>2026-05-02T14:05:11Z</time></trkpt><trkpt lat="43.35105536775398" lon="13.242090883772994"><ele>462.0</ele><time>2026-05-02T14:05:12Z</time></trkpt><trkpt lat="43.35093457899961" lon="13.242380735308595"><ele>459.5</ele><time>2026-05-02T14:05:13Z</time></trkpt><trkpt lat="43.35082170082831" lon="13.242672195540054"><ele>457.0</ele><time>2026-05-02T14:05:14Z</time></trkpt><trkpt lat="43.350701117375976" lon="13.24299382741476"><ele>457.33333333333337</ele><time>2026-05-02T14:05:15Z</time></trkpt><trkpt lat="43.35062227673125" lon="13.243225276916522"><ele>457.66666666666663</ele><time>2026-05-02T14:05:17Z</time></trkpt><trkpt lat="43.350563439460885" lon="13.243458700222991"><ele>458.0</ele><time>2026-05-02T14:05:18Z</time></trkpt><trkpt lat="43.35054054065068" lon="13.24369970063321"><ele>458.0</ele><time>2026-05-02T14:05:19Z</time></trkpt><trkpt lat="43.35052022946569" lon="13.24394997478186"><ele>458.0</ele><time>2026-05-02T14:05:20Z</time></trkpt><trkpt lat="43.35049672962559" lon="13.244191774772572"><ele>458.0</ele><time>2026-05-02T14:05:21Z</time></trkpt><trkpt lat="43.35047058859809" lon="13.244423001710343"><ele>457.3333333333333</ele><time>2026-05-02T14:05:22Z</time></trkpt><trkpt lat="43.35045132461947" lon="13.244666925360933"><ele>456.66666666666663</ele><time>2026-05-02T14:05:23Z</time></trkpt><trkpt lat="43.350447603971354" lon="13.244927905935135"><ele>456.0</ele><time>2026-05-02T14:05:24Z</time></trkpt><trkpt lat="43.35043500500415" lon="13.245153294977806"><ele>456.0</ele><time>2026-05-02T14:05:25Z</time></trkpt><trkpt lat="43.350437964098305" lon="13.245387631712148"><ele>456.0</ele><time>2026-05-02T14:05:26Z</time></trkpt><trkpt lat="43.35042462275235" lon="13.245610640543015"><ele>456.0</ele><time>2026-05-02T14:05:27Z</time></trkpt><trkpt lat="43.35044576446469" lon="13.24583624897971"><ele>453.33333333333337</ele><time>2026-05-02T14:05:28Z</time></trkpt><trkpt lat="43.35044614491913" lon="13.246068580363437"><ele>450.6666666666667</ele><time>2026-05-02T14:05:29Z</time></trkpt><trkpt lat="43.35045329396437" lon="13.246309061784444"><ele>448.0</ele><time>2026-05-02T14:05:30Z</time></trkpt><trkpt lat="43.35046562894426" lon="13.246560911118316"><ele>444.33333333333337</ele><time>2026-05-02T14:05:31Z</time></trkpt><trkpt lat="43.35046114461861" lon="13.24681637787908"><ele>440.66666666666663</ele><time>2026-05-02T14:05:32Z</time></trkpt><trkpt lat="43.35048709336236" lon="13.247062463942235"><ele>437.0</ele><time>2026-05-02T14:05:33Z</time></trkpt><trkpt lat="43.3504939443582" lon="13.24727316270843"><ele>435.20000000000005</ele><time>2026-05-02T14:05:34Z</time></trkpt><trkpt lat="43.35049867815011" lon="13.247452876144196"><ele>433.40000000000003</ele><time>2026-05-02T14:05:35Z</time></trkpt><trkpt lat="43.350506741756604" lon="13.247589080819717"><ele>431.59999999999997</ele><time>2026-05-02T14:05:36Z</time></trkpt><trkpt lat="43.3505094617138" lon="13.247689147244266"><ele>429.79999999999995</ele><time>2026-05-02T14:05:37Z</time></trkpt><trkpt lat="43.35048890510465" lon="13.247788080700435"><ele>428.0</ele><time>2026-05-02T14:05:39Z</time></trkpt><trkpt lat="43.35036586425881" lon="13.24780540543735"><ele>427.99999999999994</ele><time>2026-05-02T14:05:42Z</time></trkpt><trkpt lat="43.35028957192616" lon="13.247798705468306"><ele>428.0</ele><time>2026-05-02T14:05:43Z</time></trkpt><trkpt lat="43.35022206783127" lon="13.247798672057142"><ele>428.0</ele><time>2026-05-02T14:05:44Z</time></trkpt><trkpt lat="43.35015506539178" lon="13.24784653568181"><ele>428.0</ele><time>2026-05-02T14:05:45Z</time></trkpt><trkpt lat="43.350077769860555" lon="13.247855367932331"><ele>427.99999999999994</ele><time>2026-05-02T14:05:46Z</time></trkpt><trkpt lat="43.34999715119293" lon="13.247844982937034"><ele>428.0</ele><time>2026-05-02T14:05:47Z</time></trkpt><trkpt lat="43.34989891062331" lon="13.2478174166041"><ele>428.0</ele><time>2026-05-02T14:05:48Z</time></trkpt><trkpt lat="43.34980072363728" lon="13.24776918516147"><ele>427.99999999999994</ele><time>2026-05-02T14:05:49Z</time></trkpt><trkpt lat="43.34970815218531" lon="13.24771911090075"><ele>427.99999999999994</ele><time>2026-05-02T14:05:50Z</time></trkpt><trkpt lat="43.349629880802624" lon="13.247691075842603"><ele>428.0</ele><time>2026-05-02T14:05:51Z</time></trkpt><trkpt lat="43.349542881711535" lon="13.247651454141096"><ele>428.0</ele><time>2026-05-02T14:05:53Z</time></trkpt><trkpt lat="43.34943848108197" lon="13.24764641463575"><ele>426.79999999999995</ele><time>2026-05-02T14:06:06Z</time></trkpt><trkpt lat="43.349370455544516" lon="13.24762428643734"><ele>425.59999999999997</ele><time>2026-05-02T14:06:07Z</time></trkpt><trkpt lat="43.34927206690255" lon="13.247590141865794"><ele>424.4</ele><time>2026-05-02T14:06:08Z</time></trkpt><trkpt lat="43.34917122436049" lon="13.247526755545154"><ele>423.20000000000005</ele><time>2026-05-02T14:06:09Z</time></trkpt><trkpt lat="43.349065883484464" lon="13.24749566696344"><ele>422.0</ele><time>2026-05-02T14:06:10Z</time></trkpt><trkpt lat="43.34895526127817" lon="13.247451513355916"><ele>421.25</ele><time>2026-05-02T14:06:11Z</time></trkpt><trkpt lat="43.34881936766788" lon="13.247395034682752"><ele>420.5</ele><time>2026-05-02T14:06:12Z</time></trkpt><trkpt lat="43.34866500739249" lon="13.24732603269076"><ele>419.75</ele><time>2026-05-02T14:06:13Z</time></trkpt><trkpt lat="43.348558955178795" lon="13.247323632294945"><ele>419.0</ele><time>2026-05-02T14:06:14Z</time></trkpt><trkpt lat="43.34843722393276" lon="13.247300802759254"><ele>419.0</ele><time>2026-05-02T14:06:15Z</time></trkpt><trkpt lat="43.34833910001984" lon="13.24727557707052"><ele>419.0</ele><time>2026-05-02T14:06:16Z</time></trkpt><trkpt lat="43.34823946138508" lon="13.247249312710085"><ele>419.0</ele><time>2026-05-02T14:06:17Z</time></trkpt><trkpt lat="43.34816020305005" lon="13.24721923753814"><ele>419.0</ele><time>2026-05-02T14:06:18Z</time></trkpt><trkpt lat="43.348098791033074" lon="13.247138042504677"><ele>419.0</ele><time>2026-05-02T14:06:19Z</time></trkpt><trkpt lat="43.34802220830724" lon="13.247058482530386"><ele>419.0</ele><time>2026-05-02T14:06:20Z</time></trkpt><trkpt lat="43.347932776847955" lon="13.246963672887862"><ele>419.0</ele><time>2026-05-02T14:06:21Z</time></trkpt><trkpt lat="43.34786222164968" lon="13.24688969787267"><ele>419.0</ele><time>2026-05-02T14:06:22Z</time></trkpt><trkpt lat="43.34775267479949" lon="13.246806822693285"><ele>419.0</ele><time>2026-05-02T14:06:23Z</time></trkpt><trkpt lat="43.34765167887779" lon="13.246710771390031"><ele>419.0</ele><time>2026-05-02T14:06:24Z</time></trkpt><trkpt lat="43.34756403774975" lon="13.246618752129326"><ele>419.0</ele><time>2026-05-02T14:06:25Z</time></trkpt><trkpt lat="43.34748196186681" lon="13.246539762063314"><ele>419.0</ele><time>2026-05-02T14:06:26Z</time></trkpt><trkpt lat="43.3474087202874" lon="13.246474680287037"><ele>419.0</ele><time>2026-05-02T14:06:27Z</time></trkpt><trkpt lat="43.34734043702671" lon="13.24641197164365"><ele>419.0</ele><time>2026-05-02T14:06:28Z</time></trkpt><trkpt lat="43.347260865788236" lon="13.246329484273632"><ele>419.0</ele><time>2026-05-02T14:06:29Z</time></trkpt><trkpt lat="43.34715479130709" lon="13.246282194223538"><ele>417.2</ele><time>2026-05-02T14:06:30Z</time></trkpt><trkpt lat="43.34704584052597" lon="13.24624466273458"><ele>415.4</ele><time>2026-05-02T14:06:31Z</time></trkpt><trkpt lat="43.34693824353297" lon="13.246219666043467"><ele>413.6</ele><time>2026-05-02T14:06:32Z</time></trkpt><trkpt lat="43.34683404520687" lon="13.246189254848007"><ele>411.8</ele><time>2026-05-02T14:06:33Z</time></trkpt><trkpt lat="43.346716684486125" lon="13.246155383576264"><ele>410.0</ele><time>2026-05-02T14:06:34Z</time></trkpt><trkpt lat="43.346595343429875" lon="13.246116292763169"><ele>410.0</ele><time>2026-05-02T14:06:35Z</time></trkpt><trkpt lat="43.346471732164154" lon="13.246061459376033"><ele>410.0</ele><time>2026-05-02T14:06:36Z</time></trkpt><trkpt lat="43.34634758787674" lon="13.246011848936378"><ele>410.0</ele><time>2026-05-02T14:06:37Z</time></trkpt><trkpt lat="43.346234336704505" lon="13.24595996935092"><ele>410.0</ele><time>2026-05-02T14:06:38Z</time></trkpt><trkpt lat="43.34612206884834" lon="13.245914761428828"><ele>410.25</ele><time>2026-05-02T14:06:39Z</time></trkpt><trkpt lat="43.34598536775814" lon="13.245853613636546"><ele>410.5</ele><time>2026-05-02T14:06:40Z</time></trkpt><trkpt lat="43.345849710951946" lon="13.24580265467523"><ele>410.75</ele><time>2026-05-02T14:06:41Z</time></trkpt><trkpt lat="43.34577334916598" lon="13.245759371583212"><ele>411.0</ele><time>2026-05-02T14:06:42Z</time></trkpt><trkpt lat="43.34568529094915" lon="13.245715123552628"><ele>411.0</ele><time>2026-05-02T14:06:43Z</time></trkpt><trkpt lat="43.345617090026856" lon="13.245705335961993"><ele>411.0</ele><time>2026-05-02T14:06:44Z</time></trkpt><trkpt lat="43.34555674140986" lon="13.245671924732358"><ele>411.0</ele><time>2026-05-02T14:06:45Z</time></trkpt><trkpt lat="43.345488648305704" lon="13.245632403685168"><ele>411.0</ele><time>2026-05-02T14:06:46Z</time></trkpt><trkpt lat="43.345420038351875" lon="13.245571414301407"><ele>411.0</ele><time>2026-05-02T14:06:47Z</time></trkpt><trkpt lat="43.34532835655684" lon="13.245603424962258"><ele>411.0</ele><time>2026-05-02T14:06:49Z</time></trkpt><trkpt lat="43.345275386975054" lon="13.245763384074968"><ele>410.6666666666667</ele><time>2026-05-02T14:06:51Z</time></trkpt><trkpt lat="43.34525584777051" lon="13.245847374077"><ele>410.33333333333337</ele><time>2026-05-02T14:06:52Z</time></trkpt><trkpt lat="43.345223277859276" lon="13.245925580073349"><ele>410.0</ele><time>2026-05-02T14:06:53Z</time></trkpt><trkpt lat="43.345154599835176" lon="13.245974453395187"><ele>409.6666666666667</ele><time>2026-05-02T14:06:54Z</time></trkpt><trkpt lat="43.34502357240245" lon="13.246002141203114"><ele>409.33333333333337</ele><time>2026-05-02T14:06:56Z</time></trkpt><trkpt lat="43.34491993742937" lon="13.246005125937435"><ele>409.0</ele><time>2026-05-02T14:06:57Z</time></trkpt><trkpt lat="43.34482535967996" lon="13.245996735613161"><ele>409.0</ele><time>2026-05-02T14:06:58Z</time></trkpt><trkpt lat="43.34473869932816" lon="13.24599381799344"><ele>409.0</ele><time>2026-05-02T14:06:59Z</time></trkpt><trkpt lat="43.34465049727634" lon="13.24602713386475"><ele>409.0</ele><time>2026-05-02T14:07:00Z</time></trkpt><trkpt lat="43.3445700373477" lon="13.246070081226632"><ele>409.0</ele><time>2026-05-02T14:07:01Z</time></trkpt><trkpt lat="43.34446830148352" lon="13.246104501484943"><ele>409.0</ele><time>2026-05-02T14:07:02Z</time></trkpt><trkpt lat="43.34438130389448" lon="13.246124619255047"><ele>409.0</ele><time>2026-05-02T14:07:03Z</time></trkpt><trkpt lat="43.344288013858765" lon="13.24615040603191"><ele>409.0</ele><time>2026-05-02T14:07:04Z</time></trkpt><trkpt lat="43.34419878443825" lon="13.246170005620378"><ele>409.0</ele><time>2026-05-02T14:07:05Z</time></trkpt><trkpt lat="43.3441077899312" lon="13.246175219105352"><ele>409.0</ele><time>2026-05-02T14:07:06Z</time></trkpt><trkpt lat="43.34402728229115" lon="13.246180065520623"><ele>409.0</ele><time>2026-05-02T14:07:07Z</time></trkpt><trkpt lat="43.34393190287513" lon="13.246181502571764"><ele>409.0</ele><time>2026-05-02T14:07:08Z</time></trkpt><trkpt lat="43.34384223732274" lon="13.246196247463057"><ele>409.0</ele><time>2026-05-02T14:07:09Z</time></trkpt><trkpt lat="43.34374787572286" lon="13.246226487668732"><ele>409.0</ele><time>2026-05-02T14:07:10Z</time></trkpt><trkpt lat="43.34365728228661" lon="13.246272913483798"><ele>409.0</ele><time>2026-05-02T14:07:11Z</time></trkpt><trkpt lat="43.343567645604246" lon="13.246308375360808"><ele>409.0</ele><time>2026-05-02T14:07:12Z</time></trkpt><trkpt lat="43.34345984952436" lon="13.246298203433524"><ele>409.00000000000006</ele><time>2026-05-02T14:07:13Z</time></trkpt><trkpt lat="43.343374304098944" lon="13.24630411970947"><ele>409.0</ele><time>2026-05-02T14:07:14Z</time></trkpt><trkpt lat="43.34327421615864" lon="13.246328332937724"><ele>409.0</ele><time>2026-05-02T14:07:15Z</time></trkpt><trkpt lat="43.34318616337019" lon="13.24633961030097"><ele>409.0</ele><time>2026-05-02T14:07:16Z</time></trkpt><trkpt lat="43.343110611349594" lon="13.246344784130704"><ele>409.00000000000006</ele><time>2026-05-02T14:07:17Z</time></trkpt><trkpt lat="43.34303751028925" lon="13.246350978097002"><ele>409.0</ele><time>2026-05-02T14:07:18Z</time></trkpt><trkpt lat="43.342964023287244" lon="13.246322296344013"><ele>407.00000000000006</ele><time>2026-05-02T14:07:19Z</time></trkpt><trkpt lat="43.34289320763412" lon="13.24630507053772"><ele>405.0</ele><time>2026-05-02T14:07:20Z</time></trkpt><trkpt lat="43.34282022546798" lon="13.246283018732152"><ele>403.0</ele><time>2026-05-02T14:07:21Z</time></trkpt><trkpt lat="43.3427372659802" lon="13.246246720702002"><ele>401.0</ele><time>2026-05-02T14:07:22Z</time></trkpt><trkpt lat="43.342668012090314" lon="13.246220789818048"><ele>399.00000000000006</ele><time>2026-05-02T14:07:23Z</time></trkpt><trkpt lat="43.34258823236561" lon="13.246187729329195"><ele>397.0</ele><time>2026-05-02T14:07:24Z</time></trkpt><trkpt lat="43.34246911062612" lon="13.246093969313879"><ele>397.0</ele><time>2026-05-02T14:07:26Z</time></trkpt><trkpt lat="43.34240275315285" lon="13.246054041882525"><ele>397.0</ele><time>2026-05-02T14:07:27Z</time></trkpt><trkpt lat="43.34233444198683" lon="13.246032443381228"><ele>397.0</ele><time>2026-05-02T14:07:28Z</time></trkpt><trkpt lat="43.34226140292235" lon="13.2460465295017"><ele>397.0</ele><time>2026-05-02T14:07:29Z</time></trkpt><trkpt lat="43.34219351317303" lon="13.246089603944425"><ele>397.0</ele><time>2026-05-02T14:07:30Z</time></trkpt><trkpt lat="43.34212638413467" lon="13.24612352681249"><ele>397.0</ele><time>2026-05-02T14:07:31Z</time></trkpt><trkpt lat="43.342056342640056" lon="13.24612988686707"><ele>397.0</ele><time>2026-05-02T14:07:32Z</time></trkpt><trkpt lat="43.341944607114335" lon="13.246108721790367"><ele>393.0</ele><time>2026-05-02T14:07:34Z</time></trkpt><trkpt lat="43.34184692015204" lon="13.246043188550471"><ele>389.0</ele><time>2026-05-02T14:07:36Z</time></trkpt><trkpt lat="43.34173516344614" lon="13.245964417738247"><ele>385.0</ele><time>2026-05-02T14:07:38Z</time></trkpt><trkpt lat="43.341661476698604" lon="13.245927585788454"><ele>381.0</ele><time>2026-05-02T14:07:39Z</time></trkpt><trkpt lat="43.341590002566576" lon="13.245888888250713"><ele>377.0</ele><time>2026-05-02T14:07:40Z</time></trkpt><trkpt lat="43.341513300591444" lon="13.24584493971242"><ele>377.0</ele><time>2026-05-02T14:07:41Z</time></trkpt><trkpt lat="43.34143066716852" lon="13.245795254031544"><ele>377.0</ele><time>2026-05-02T14:07:42Z</time></trkpt><trkpt lat="43.34134853302241" lon="13.24577006715282"><ele>377.0</ele><time>2026-05-02T14:07:43Z</time></trkpt><trkpt lat="43.34127215520827" lon="13.245724525151664"><ele>377.0</ele><time>2026-05-02T14:07:44Z</time></trkpt><trkpt lat="43.34118585565451" lon="13.245654471362679"><ele>377.0</ele><time>2026-05-02T14:07:45Z</time></trkpt><trkpt lat="43.341092639167755" lon="13.24561880121067"><ele>377.4285714285714</ele><time>2026-05-02T14:07:46Z</time></trkpt><trkpt lat="43.34101692889061" lon="13.245565572719666"><ele>377.85714285714283</ele><time>2026-05-02T14:07:47Z</time></trkpt><trkpt lat="43.3409537392307" lon="13.24555004925101"><ele>378.2857142857143</ele><time>2026-05-02T14:07:48Z</time></trkpt><trkpt lat="43.34088710406377" lon="13.245526209336758"><ele>378.71428571428567</ele><time>2026-05-02T14:07:49Z</time></trkpt><trkpt lat="43.34081028501628" lon="13.24552749436051"><ele>379.14285714285717</ele><time>2026-05-02T14:07:50Z</time></trkpt><trkpt lat="43.34074054306002" lon="13.245529250162056"><ele>379.57142857142856</ele><time>2026-05-02T14:07:51Z</time></trkpt><trkpt lat="43.34067069512068" lon="13.245510008233838"><ele>380.0</ele><time>2026-05-02T14:07:52Z</time></trkpt><trkpt lat="43.34054071035297" lon="13.245496377792945"><ele>377.57142857142856</ele><time>2026-05-02T14:07:54Z</time></trkpt><trkpt lat="43.340474599899224" lon="13.245472032611278"><ele>375.14285714285717</ele><time>2026-05-02T14:07:55Z</time></trkpt><trkpt lat="43.34040514462251" lon="13.245450646700668"><ele>372.71428571428567</ele><time>2026-05-02T14:07:56Z</time></trkpt><trkpt lat="43.34033947017101" lon="13.245418569511545"><ele>370.2857142857143</ele><time>2026-05-02T14:07:57Z</time></trkpt><trkpt lat="43.340277217691515" lon="13.245387066872045"><ele>367.85714285714283</ele><time>2026-05-02T14:07:58Z</time></trkpt><trkpt lat="43.34021163548225" lon="13.245365025479797"><ele>365.4285714285714</ele><time>2026-05-02T14:07:59Z</time></trkpt><trkpt lat="43.34014590988216" lon="13.245347871547901"><ele>363.0</ele><time>2026-05-02T14:08:00Z</time></trkpt><trkpt lat="43.340027129217916" lon="13.24536230044243"><ele>363.0</ele><time>2026-05-02T14:08:02Z</time></trkpt><trkpt lat="43.33998108870005" lon="13.245527481566587"><ele>363.0</ele><time>2026-05-02T14:08:05Z</time></trkpt><trkpt lat="43.339942894351545" lon="13.245660328058115"><ele>363.0</ele><time>2026-05-02T14:08:06Z</time></trkpt><trkpt lat="43.33988210710031" lon="13.245748681559407"><ele>363.0</ele><time>2026-05-02T14:08:07Z</time></trkpt><trkpt lat="43.339760483887225" lon="13.245798426218014"><ele>363.0</ele><time>2026-05-02T14:08:08Z</time></trkpt><trkpt lat="43.33962186112899" lon="13.245886521631371"><ele>357.6666666666667</ele><time>2026-05-02T14:08:09Z</time></trkpt><trkpt lat="43.33947564059278" lon="13.245953738004982"><ele>352.33333333333337</ele><time>2026-05-02T14:08:10Z</time></trkpt><trkpt lat="43.33932923457994" lon="13.246074511817957"><ele>347.0</ele><time>2026-05-02T14:08:11Z</time></trkpt><trkpt lat="43.339194260596074" lon="13.246231887438526"><ele>347.0</ele><time>2026-05-02T14:08:12Z</time></trkpt><trkpt lat="43.33909652341519" lon="13.24641692496789"><ele>347.0</ele><time>2026-05-02T14:08:13Z</time></trkpt><trkpt lat="43.33898297649981" lon="13.246575998072993"><ele>347.0</ele><time>2026-05-02T14:08:14Z</time></trkpt><trkpt lat="43.33888060705815" lon="13.24669661676904"><ele>345.6666666666667</ele><time>2026-05-02T14:08:15Z</time></trkpt><trkpt lat="43.33875975737473" lon="13.24677780966879"><ele>344.3333333333333</ele><time>2026-05-02T14:08:16Z</time></trkpt><trkpt lat="43.338645871583594" lon="13.246922230562417"><ele>343.0</ele><time>2026-05-02T14:08:17Z</time></trkpt><trkpt lat="43.33852372389776" lon="13.247092896686619"><ele>344.0</ele><time>2026-05-02T14:08:18Z</time></trkpt><trkpt lat="43.33841459304116" lon="13.247312625539392"><ele>345.0</ele><time>2026-05-02T14:08:19Z</time></trkpt><trkpt lat="43.33830127671441" lon="13.247543403493184"><ele>346.0</ele><time>2026-05-02T14:08:20Z</time></trkpt><trkpt lat="43.33818921325661" lon="13.24777327806773"><ele>346.0</ele><time>2026-05-02T14:08:21Z</time></trkpt><trkpt lat="43.338095152579896" lon="13.247967028669413"><ele>346.0</ele><time>2026-05-02T14:08:22Z</time></trkpt><trkpt lat="43.33802398742306" lon="13.24812508367635"><ele>346.0</ele><time>2026-05-02T14:08:23Z</time></trkpt><trkpt lat="43.337979812300524" lon="13.248281802954489"><ele>346.0</ele><time>2026-05-02T14:08:24Z</time></trkpt><trkpt lat="43.33797390709854" lon="13.248470830486422"><ele>345.3333333333333</ele><time>2026-05-02T14:08:25Z</time></trkpt><trkpt lat="43.33801795598427" lon="13.248678404935161"><ele>344.6666666666667</ele><time>2026-05-02T14:08:26Z</time></trkpt><trkpt lat="43.33811253762246" lon="13.248898074532867"><ele>344.0</ele><time>2026-05-02T14:08:27Z</time></trkpt><trkpt lat="43.33823947809147" lon="13.249139109030052"><ele>341.0</ele><time>2026-05-02T14:08:28Z</time></trkpt><trkpt lat="43.33838576515353" lon="13.249402733234911"><ele>338.0</ele><time>2026-05-02T14:08:29Z</time></trkpt><trkpt lat="43.33852689514926" lon="13.249677957565302"><ele>335.5</ele><time>2026-05-02T14:08:30Z</time></trkpt><trkpt lat="43.338661901779005" lon="13.24994836308825"><ele>333.0</ele><time>2026-05-02T14:08:31Z</time></trkpt><trkpt lat="43.33878095186304" lon="13.250191384633357"><ele>333.0</ele><time>2026-05-02T14:08:32Z</time></trkpt><trkpt lat="43.338874151773204" lon="13.250384592277626"><ele>333.0</ele><time>2026-05-02T14:08:33Z</time></trkpt><trkpt lat="43.33896740393125" lon="13.250508880592417"><ele>333.0</ele><time>2026-05-02T14:08:34Z</time></trkpt><trkpt lat="43.339062296922634" lon="13.250606515445398"><ele>333.0</ele><time>2026-05-02T14:08:35Z</time></trkpt><trkpt lat="43.3391662436582" lon="13.250670016149238"><ele>333.4</ele><time>2026-05-02T14:08:36Z</time></trkpt><trkpt lat="43.339272939780216" lon="13.250703733430194"><ele>333.79999999999995</ele><time>2026-05-02T14:08:37Z</time></trkpt><trkpt lat="43.33937665573954" lon="13.250724890855272"><ele>334.2</ele><time>2026-05-02T14:08:38Z</time></trkpt><trkpt lat="43.33948360387063" lon="13.250737440512522"><ele>334.6</ele><time>2026-05-02T14:08:39Z</time></trkpt><trkpt lat="43.3395864286624" lon="13.250755541070033"><ele>335.0</ele><time>2026-05-02T14:08:40Z</time></trkpt><trkpt lat="43.33969292908879" lon="13.250801617355165"><ele>336.0</ele><time>2026-05-02T14:08:41Z</time></trkpt><trkpt lat="43.339803542570145" lon="13.25081326768515"><ele>337.0</ele><time>2026-05-02T14:08:42Z</time></trkpt><trkpt lat="43.33990293013038" lon="13.250897432886472"><ele>338.0</ele><time>2026-05-02T14:08:43Z</time></trkpt><trkpt lat="43.34000834887863" lon="13.251021059655082"><ele>339.0</ele><time>2026-05-02T14:08:44Z</time></trkpt><trkpt lat="43.3401226919186" lon="13.251148981656234"><ele>339.0</ele><time>2026-05-02T14:08:45Z</time></trkpt><trkpt lat="43.34026799356906" lon="13.251292028756922"><ele>339.0</ele><time>2026-05-02T14:08:46Z</time></trkpt><trkpt lat="43.34043492618836" lon="13.251422464651782"><ele>339.0</ele><time>2026-05-02T14:08:47Z</time></trkpt><trkpt lat="43.34062771927016" lon="13.251551745623518"><ele>339.5</ele><time>2026-05-02T14:08:48Z</time></trkpt><trkpt lat="43.34082348641841" lon="13.251689459573319"><ele>340.0</ele><time>2026-05-02T14:08:49Z</time></trkpt><trkpt lat="43.34103287242818" lon="13.251830841909555"><ele>340.0</ele><time>2026-05-02T14:08:50Z</time></trkpt><trkpt lat="43.34124518209132" lon="13.251977549466913"><ele>340.0</ele><time>2026-05-02T14:08:51Z</time></trkpt><trkpt lat="43.3414564803394" lon="13.252131295100686"><ele>340.5</ele><time>2026-05-02T14:08:52Z</time></trkpt><trkpt lat="43.34166015265698" lon="13.252293564907529"><ele>341.0</ele><time>2026-05-02T14:08:53Z</time></trkpt><trkpt lat="43.34186013197746" lon="13.252497510878028"><ele>341.0</ele><time>2026-05-02T14:08:54Z</time></trkpt><trkpt lat="43.3420767774727" lon="13.252730787045126"><ele>341.0</ele><time>2026-05-02T14:08:55Z</time></trkpt><trkpt lat="43.342256816735066" lon="13.252940087606634"><ele>343.33333333333337</ele><time>2026-05-02T14:08:56Z</time></trkpt><trkpt lat="43.3423960013341" lon="13.253100451613134"><ele>345.6666666666667</ele><time>2026-05-02T14:08:57Z</time></trkpt><trkpt lat="43.34249894338932" lon="13.253242130113723"><ele>348.0</ele><time>2026-05-02T14:08:58Z</time></trkpt><trkpt lat="43.34257792572415" lon="13.253399618872082"><ele>348.0</ele><time>2026-05-02T14:08:59Z</time></trkpt><trkpt lat="43.3426340465097" lon="13.253594533394958"><ele>348.0</ele><time>2026-05-02T14:09:00Z</time></trkpt><trkpt lat="43.34268320192857" lon="13.253818741264045"><ele>348.0</ele><time>2026-05-02T14:09:01Z</time></trkpt><trkpt lat="43.342728864372106" lon="13.254071186452965"><ele>345.6666666666667</ele><time>2026-05-02T14:09:02Z</time></trkpt><trkpt lat="43.34279535225521" lon="13.254337669670162"><ele>343.33333333333337</ele><time>2026-05-02T14:09:03Z</time></trkpt><trkpt lat="43.3428823382235" lon="13.254605575380397"><ele>341.0</ele><time>2026-05-02T14:09:04Z</time></trkpt><trkpt lat="43.34298738274435" lon="13.254880560093138"><ele>344.5</ele><time>2026-05-02T14:09:05Z</time></trkpt><trkpt lat="43.34311668472676" lon="13.255179798668825"><ele>348.0</ele><time>2026-05-02T14:09:06Z</time></trkpt><trkpt lat="43.34321391864212" lon="13.255460726923703"><ele>346.3333333333333</ele><time>2026-05-02T14:09:07Z</time></trkpt><trkpt lat="43.343307226651376" lon="13.25572488185672"><ele>344.66666666666663</ele><time>2026-05-02T14:09:08Z</time></trkpt><trkpt lat="43.34336460948714" lon="13.25595893846678"><ele>343.0</ele><time>2026-05-02T14:09:09Z</time></trkpt><trkpt lat="43.34337409071427" lon="13.256178832554706"><ele>343.0</ele><time>2026-05-02T14:09:10Z</time></trkpt><trkpt lat="43.343384820076245" lon="13.256405799806153"><ele>343.0</ele><time>2026-05-02T14:09:11Z</time></trkpt><trkpt lat="43.34339609465211" lon="13.256657212312147"><ele>343.0</ele><time>2026-05-02T14:09:12Z</time></trkpt><trkpt lat="43.34341186179906" lon="13.256928128521722"><ele>341.66666666666663</ele><time>2026-05-02T14:09:13Z</time></trkpt><trkpt lat="43.34343093963938" lon="13.257195473196356"><ele>340.3333333333333</ele><time>2026-05-02T14:09:14Z</time></trkpt><trkpt lat="43.34347617092426" lon="13.257466538485916"><ele>339.0</ele><time>2026-05-02T14:09:15Z</time></trkpt><trkpt lat="43.34353548330415" lon="13.257735435453776"><ele>337.3333333333333</ele><time>2026-05-02T14:09:16Z</time></trkpt><trkpt lat="43.34359159623934" lon="13.257984529728931"><ele>335.66666666666663</ele><time>2026-05-02T14:09:17Z</time></trkpt><trkpt lat="43.34364343596545" lon="13.258183073775681"><ele>334.0</ele><time>2026-05-02T14:09:18Z</time></trkpt><trkpt lat="43.34372011363006" lon="13.258368792574773"><ele>334.3333333333333</ele><time>2026-05-02T14:09:19Z</time></trkpt><trkpt lat="43.34383584988433" lon="13.258560349579872"><ele>334.6666666666667</ele><time>2026-05-02T14:09:20Z</time></trkpt><trkpt lat="43.34395494914664" lon="13.258711630601418"><ele>335.0</ele><time>2026-05-02T14:09:21Z</time></trkpt><trkpt lat="43.344045704037335" lon="13.258832331583124"><ele>335.0</ele><time>2026-05-02T14:09:22Z</time></trkpt><trkpt lat="43.34416102613481" lon="13.258944383615956"><ele>335.0</ele><time>2026-05-02T14:09:23Z</time></trkpt><trkpt lat="43.34430636714298" lon="13.259050522797992"><ele>335.0</ele><time>2026-05-02T14:09:24Z</time></trkpt><trkpt lat="43.344454796274576" lon="13.25917633495532"><ele>334.33333333333337</ele><time>2026-05-02T14:09:25Z</time></trkpt><trkpt lat="43.344579756324215" lon="13.259346347157654"><ele>333.6666666666667</ele><time>2026-05-02T14:09:26Z</time></trkpt><trkpt lat="43.34466451755539" lon="13.259582577529418"><ele>333.0</ele><time>2026-05-02T14:09:27Z</time></trkpt><trkpt lat="43.34476489516798" lon="13.259837250171618"><ele>335.0</ele><time>2026-05-02T14:09:28Z</time></trkpt><trkpt lat="43.34487683424482" lon="13.260098887044558"><ele>337.0</ele><time>2026-05-02T14:09:29Z</time></trkpt><trkpt lat="43.34495753527024" lon="13.260352433020168"><ele>339.0</ele><time>2026-05-02T14:09:30Z</time></trkpt><trkpt lat="43.34501727886019" lon="13.260580400428108"><ele>338.0</ele><time>2026-05-02T14:09:31Z</time></trkpt><trkpt lat="43.34507832412721" lon="13.260870831215316"><ele>337.0</ele><time>2026-05-02T14:09:32Z</time></trkpt><trkpt lat="43.345142200143776" lon="13.261185451687185"><ele>336.0</ele><time>2026-05-02T14:09:33Z</time></trkpt><trkpt lat="43.34520288608462" lon="13.261473565562548"><ele>335.0</ele><time>2026-05-02T14:09:34Z</time></trkpt><trkpt lat="43.3452565342177" lon="13.261736964130904"><ele>334.0</ele><time>2026-05-02T14:09:35Z</time></trkpt><trkpt lat="43.34530585682119" lon="13.261984507635168"><ele>334.0</ele><time>2026-05-02T14:09:36Z</time></trkpt><trkpt lat="43.3453559818838" lon="13.262214212990338"><ele>334.0</ele><time>2026-05-02T14:09:37Z</time></trkpt><trkpt lat="43.34539620520511" lon="13.262404681210828"><ele>334.0</ele><time>2026-05-02T14:09:38Z</time></trkpt><trkpt lat="43.345424799827015" lon="13.262577276360215"><ele>334.0</ele><time>2026-05-02T14:09:39Z</time></trkpt><trkpt lat="43.34547337901148" lon="13.26273245218946"><ele>333.5</ele><time>2026-05-02T14:09:40Z</time></trkpt><trkpt lat="43.34553076123857" lon="13.262871011758087"><ele>333.0</ele><time>2026-05-02T14:09:41Z</time></trkpt><trkpt lat="43.34561753578547" lon="13.262968195291958"><ele>332.5</ele><time>2026-05-02T14:09:42Z</time></trkpt><trkpt lat="43.3457276130149" lon="13.263044896347582"><ele>332.0</ele><time>2026-05-02T14:09:43Z</time></trkpt><trkpt lat="43.34585754631364" lon="13.263096646222795"><ele>332.0</ele><time>2026-05-02T14:09:44Z</time></trkpt><trkpt lat="43.34599653256977" lon="13.263130797794643"><ele>332.0</ele><time>2026-05-02T14:09:45Z</time></trkpt><trkpt lat="43.3461405976611" lon="13.263164037644493"><ele>332.0</ele><time>2026-05-02T14:09:46Z</time></trkpt><trkpt lat="43.34629751012362" lon="13.263195393077359"><ele>332.0</ele><time>2026-05-02T14:09:47Z</time></trkpt><trkpt lat="43.34648508943617" lon="13.263239451831414"><ele>332.0</ele><time>2026-05-02T14:09:48Z</time></trkpt><trkpt lat="43.346694119109074" lon="13.263293913074444"><ele>332.0</ele><time>2026-05-02T14:09:49Z</time></trkpt><trkpt lat="43.346916329825454" lon="13.2633768944888"><ele>332.0</ele><time>2026-05-02T14:09:50Z</time></trkpt><trkpt lat="43.34715049237435" lon="13.263443587258639"><ele>331.6666666666667</ele><time>2026-05-02T14:09:51Z</time></trkpt><trkpt lat="43.347359505235275" lon="13.263505949771503"><ele>331.3333333333333</ele><time>2026-05-02T14:09:52Z</time></trkpt><trkpt lat="43.34752780576112" lon="13.26355697874742"><ele>331.0</ele><time>2026-05-02T14:09:53Z</time></trkpt><trkpt lat="43.34768645474061" lon="13.263605081357804"><ele>331.0</ele><time>2026-05-02T14:09:54Z</time></trkpt><trkpt lat="43.34781659066442" lon="13.2636226160391"><ele>331.0</ele><time>2026-05-02T14:09:55Z</time></trkpt><trkpt lat="43.34792276920992" lon="13.263659143121307"><ele>331.0</ele><time>2026-05-02T14:09:56Z</time></trkpt><trkpt lat="43.34800313074179" lon="13.263698102552699"><ele>331.0</ele><time>2026-05-02T14:09:57Z</time></trkpt><trkpt lat="43.34806009407426" lon="13.263764339987278"><ele>331.0</ele><time>2026-05-02T14:09:58Z</time></trkpt><trkpt lat="43.34803038209206" lon="13.263986689159488"><ele>330.66666666666663</ele><time>2026-05-02T14:10:00Z</time></trkpt><trkpt lat="43.347966234026856" lon="13.264135713872157"><ele>330.3333333333333</ele><time>2026-05-02T14:10:01Z</time></trkpt><trkpt lat="43.34789138584973" lon="13.264309598952117"><ele>330.0</ele><time>2026-05-02T14:10:02Z</time></trkpt><trkpt lat="43.347807798633966" lon="13.26453336277225"><ele>330.0</ele><time>2026-05-02T14:10:03Z</time></trkpt><trkpt lat="43.347706701913935" lon="13.264750938500354"><ele>330.0</ele><time>2026-05-02T14:10:04Z</time></trkpt><trkpt lat="43.34759499797532" lon="13.265010561225704"><ele>330.0</ele><time>2026-05-02T14:10:05Z</time></trkpt><trkpt lat="43.34746900522441" lon="13.265296858873866"><ele>328.5</ele><time>2026-05-02T14:10:06Z</time></trkpt><trkpt lat="43.34733399865618" lon="13.26561017864178"><ele>327.0</ele><time>2026-05-02T14:10:07Z</time></trkpt><trkpt lat="43.347194023479425" lon="13.265924803390332"><ele>325.0</ele><time>2026-05-02T14:10:08Z</time></trkpt><trkpt lat="43.347052925195115" lon="13.266259793671178"><ele>323.0</ele><time>2026-05-02T14:10:09Z</time></trkpt><trkpt lat="43.346918309695" lon="13.266564093014555"><ele>322.0</ele><time>2026-05-02T14:10:10Z</time></trkpt><trkpt lat="43.34679398669178" lon="13.266850658897905"><ele>321.0</ele><time>2026-05-02T14:10:11Z</time></trkpt><trkpt lat="43.34668172054461" lon="13.267111347621091"><ele>320.6666666666667</ele><time>2026-05-02T14:10:12Z</time></trkpt><trkpt lat="43.346572106422634" lon="13.267359837701507"><ele>320.33333333333337</ele><time>2026-05-02T14:10:13Z</time></trkpt><trkpt lat="43.34647351227262" lon="13.267588133037478"><ele>320.0</ele><time>2026-05-02T14:10:14Z</time></trkpt><trkpt lat="43.3463709416194" lon="13.267821875533336"><ele>319.33333333333337</ele><time>2026-05-02T14:10:15Z</time></trkpt><trkpt lat="43.34627748662128" lon="13.268038342998604"><ele>318.6666666666667</ele><time>2026-05-02T14:10:16Z</time></trkpt><trkpt lat="43.34619687817215" lon="13.26823048052514"><ele>318.0</ele><time>2026-05-02T14:10:17Z</time></trkpt><trkpt lat="43.34611697804384" lon="13.268408586850203"><ele>317.8</ele><time>2026-05-02T14:10:18Z</time></trkpt><trkpt lat="43.34604784933051" lon="13.268563818629145"><ele>317.6</ele><time>2026-05-02T14:10:19Z</time></trkpt><trkpt lat="43.34599071644485" lon="13.268694794841283"><ele>317.4</ele><time>2026-05-02T14:10:20Z</time></trkpt><trkpt lat="43.34595305508062" lon="13.268795573868871"><ele>317.2</ele><time>2026-05-02T14:10:21Z</time></trkpt><trkpt lat="43.3458702733824" lon="13.268909767160261"><ele>317.0</ele><time>2026-05-02T14:10:23Z</time></trkpt><trkpt lat="43.34571301199931" lon="13.268898538163016"><ele>317.0</ele><time>2026-05-02T14:10:25Z</time></trkpt><trkpt lat="43.345608665258084" lon="13.268870402301834"><ele>317.0</ele><time>2026-05-02T14:10:26Z</time></trkpt><trkpt lat="43.34550103358696" lon="13.268847272034705"><ele>317.0</ele><time>2026-05-02T14:10:27Z</time></trkpt><trkpt lat="43.345392780544216" lon="13.268829060891981"><ele>317.0</ele><time>2026-05-02T14:10:28Z</time></trkpt><trkpt lat="43.345297307776306" lon="13.268812867328037"><ele>317.0</ele><time>2026-05-02T14:10:29Z</time></trkpt><trkpt lat="43.34519278104492" lon="13.268791114600381"><ele>317.2</ele><time>2026-05-02T14:10:30Z</time></trkpt><trkpt lat="43.34508315590673" lon="13.268771948351283"><ele>317.4</ele><time>2026-05-02T14:10:31Z</time></trkpt><trkpt lat="43.34498220080534" lon="13.268758215428381"><ele>317.6</ele><time>2026-05-02T14:10:32Z</time></trkpt><trkpt lat="43.34488793513522" lon="13.268743165531557"><ele>317.8</ele><time>2026-05-02T14:10:33Z</time></trkpt><trkpt lat="43.34479734860041" lon="13.268725141061529"><ele>318.0</ele><time>2026-05-02T14:10:34Z</time></trkpt><trkpt lat="43.34470710059531" lon="13.26870654293228"><ele>318.0</ele><time>2026-05-02T14:10:35Z</time></trkpt><trkpt lat="43.344615181846635" lon="13.26868630711825"><ele>318.0</ele><time>2026-05-02T14:10:36Z</time></trkpt><trkpt lat="43.344524378505504" lon="13.268666381867495"><ele>318.0</ele><time>2026-05-02T14:10:37Z</time></trkpt><trkpt lat="43.34443088536774" lon="13.2686433884439"><ele>318.0</ele><time>2026-05-02T14:10:38Z</time></trkpt><trkpt lat="43.344336840450715" lon="13.268621326000263"><ele>318.0</ele><time>2026-05-02T14:10:39Z</time></trkpt><trkpt lat="43.344239619381874" lon="13.26860107234064"><ele>318.0</ele><time>2026-05-02T14:10:40Z</time></trkpt><trkpt lat="43.34414243743906" lon="13.26857681396933"><ele>318.0</ele><time>2026-05-02T14:10:41Z</time></trkpt><trkpt lat="43.344039272084395" lon="13.268549661779591"><ele>318.0</ele><time>2026-05-02T14:10:42Z</time></trkpt><trkpt lat="43.34395428433205" lon="13.268525228385073"><ele>318.0</ele><time>2026-05-02T14:10:43Z</time></trkpt><trkpt lat="43.34387108498012" lon="13.2685037691016"><ele>318.0</ele><time>2026-05-02T14:10:44Z</time></trkpt><trkpt lat="43.343792053509965" lon="13.268482219167732"><ele>316.5</ele><time>2026-05-02T14:10:45Z</time></trkpt><trkpt lat="43.343722902633736" lon="13.26844826290842"><ele>315.0</ele><time>2026-05-02T14:10:46Z</time></trkpt><trkpt lat="43.343623721242274" lon="13.26837780280239"><ele>313.5</ele><time>2026-05-02T14:10:48Z</time></trkpt><trkpt lat="43.34359101262607" lon="13.268294865660502"><ele>312.0</ele><time>2026-05-02T14:10:57Z</time></trkpt><trkpt lat="43.34359934951268" lon="13.268161102599455"><ele>310.5</ele><time>2026-05-02T14:10:59Z</time></trkpt><trkpt lat="43.34359217460784" lon="13.268066245012449"><ele>309.0</ele><time>2026-05-02T14:11:00Z</time></trkpt><trkpt lat="43.34357795448593" lon="13.267950391287371"><ele>308.5</ele><time>2026-05-02T14:11:01Z</time></trkpt><trkpt lat="43.34356650964179" lon="13.267805059569639"><ele>308.0</ele><time>2026-05-02T14:11:02Z</time></trkpt><trkpt lat="43.34356632613157" lon="13.267629260141241"><ele>307.5</ele><time>2026-05-02T14:11:03Z</time></trkpt><trkpt lat="43.34355585549453" lon="13.267416235107033"><ele>307.0</ele><time>2026-05-02T14:11:04Z</time></trkpt><trkpt lat="43.34354126731427" lon="13.267135740945545"><ele>307.8</ele><time>2026-05-02T14:11:05Z</time></trkpt><trkpt lat="43.34352861632018" lon="13.266995134087693"><ele>308.6</ele><time>2026-05-02T14:11:06Z</time></trkpt><trkpt lat="43.34351536163844" lon="13.26687826882175"><ele>309.40000000000003</ele><time>2026-05-02T14:11:07Z</time></trkpt><trkpt lat="43.34346988454902" lon="13.266747395427991"><ele>310.2</ele><time>2026-05-02T14:11:09Z</time></trkpt><trkpt lat="43.34339950563791" lon="13.26669392073411"><ele>311.0</ele><time>2026-05-02T14:11:11Z</time></trkpt><trkpt lat="43.34331091711846" lon="13.266587643716415"><ele>311.0</ele><time>2026-05-02T14:11:13Z</time></trkpt><trkpt lat="43.34325254320948" lon="13.266452526614383"><ele>311.0</ele><time>2026-05-02T14:11:15Z</time></trkpt><trkpt lat="43.343231865949114" lon="13.26630122673474"><ele>311.0</ele><time>2026-05-02T14:11:17Z</time></trkpt><trkpt lat="43.34321651421256" lon="13.266156700695205"><ele>311.0</ele><time>2026-05-02T14:11:19Z</time></trkpt><trkpt lat="43.34315233906031" lon="13.266055915950584"><ele>311.0</ele><time>2026-05-02T14:11:21Z</time></trkpt><trkpt lat="43.34307572658855" lon="13.265948594770288"><ele>309.5</ele><time>2026-05-02T14:11:23Z</time></trkpt><trkpt lat="43.34298990203624" lon="13.265879560355016"><ele>308.0</ele><time>2026-05-02T14:11:25Z</time></trkpt><trkpt lat="43.342899733368036" lon="13.265796694791087"><ele>306.5</ele><time>2026-05-02T14:11:27Z</time></trkpt><trkpt lat="43.342837789440004" lon="13.265773844669656"><ele>305.0</ele><time>2026-05-02T14:11:28Z</time></trkpt><trkpt lat="43.3427737918141" lon="13.265761052141842"><ele>303.5</ele><time>2026-05-02T14:11:29Z</time></trkpt><trkpt lat="43.34270592250288" lon="13.265754367380003"><ele>302.0</ele><time>2026-05-02T14:11:30Z</time></trkpt><trkpt lat="43.34264024128522" lon="13.265750519000324"><ele>302.0</ele><time>2026-05-02T14:11:31Z</time></trkpt><trkpt lat="43.34257068402925" lon="13.265747121809477"><ele>302.0</ele><time>2026-05-02T14:11:32Z</time></trkpt><trkpt lat="43.3425056067918" lon="13.265747080183832"><ele>302.0</ele><time>2026-05-02T14:11:33Z</time></trkpt><trkpt lat="43.34244098356135" lon="13.265746586320148"><ele>302.0</ele><time>2026-05-02T14:11:34Z</time></trkpt><trkpt lat="43.34231517610875" lon="13.265769724833417"><ele>302.0</ele><time>2026-05-02T14:11:36Z</time></trkpt><trkpt lat="43.342244400388616" lon="13.265761252250206"><ele>302.0</ele><time>2026-05-02T14:11:37Z</time></trkpt><trkpt lat="43.34216076454999" lon="13.265759224503405"><ele>301.33333333333337</ele><time>2026-05-02T14:11:38Z</time></trkpt><trkpt lat="43.34206697653665" lon="13.26575449468534"><ele>300.6666666666667</ele><time>2026-05-02T14:11:39Z</time></trkpt><trkpt lat="43.34199327585503" lon="13.265757102540443"><ele>300.0</ele><time>2026-05-02T14:11:40Z</time></trkpt><trkpt lat="43.3419160237155" lon="13.265766689804062"><ele>299.3333333333333</ele><time>2026-05-02T14:11:41Z</time></trkpt><trkpt lat="43.34184308914313" lon="13.265764963512604"><ele>298.66666666666663</ele><time>2026-05-02T14:11:42Z</time></trkpt><trkpt lat="43.34176273834566" lon="13.265755310439063"><ele>298.0</ele><time>2026-05-02T14:11:43Z</time></trkpt><trkpt lat="43.34169886544902" lon="13.265750533939437"><ele>298.0</ele><time>2026-05-02T14:11:44Z</time></trkpt><trkpt lat="43.34156718905411" lon="13.265760812265896"><ele>298.0</ele><time>2026-05-02T14:11:46Z</time></trkpt><trkpt lat="43.341495957007155" lon="13.26577331106077"><ele>298.0</ele><time>2026-05-02T14:11:47Z</time></trkpt><trkpt lat="43.3413894427749" lon="13.265838261392727"><ele>298.0</ele><time>2026-05-02T14:11:49Z</time></trkpt><trkpt lat="43.34130388800929" lon="13.26592183382255"><ele>298.0</ele><time>2026-05-02T14:11:51Z</time></trkpt><trkpt lat="43.34126106217617" lon="13.266069785741053"><ele>296.5</ele><time>2026-05-02T14:11:53Z</time></trkpt><trkpt lat="43.341261795010915" lon="13.266158200707654"><ele>295.0</ele><time>2026-05-02T14:11:54Z</time></trkpt><trkpt lat="43.34126032209097" lon="13.26624506337497"><ele>293.5</ele><time>2026-05-02T14:11:55Z</time></trkpt><trkpt lat="43.34126306532951" lon="13.266347792965064"><ele>292.0</ele><time>2026-05-02T14:11:56Z</time></trkpt><trkpt lat="43.34129482036595" lon="13.266467516684097"><ele>290.5</ele><time>2026-05-02T14:11:57Z</time></trkpt><trkpt lat="43.341313244225766" lon="13.26658186990711"><ele>289.0</ele><time>2026-05-02T14:11:58Z</time></trkpt><trkpt lat="43.34133391353188" lon="13.266726382585384"><ele>288.75</ele><time>2026-05-02T14:11:59Z</time></trkpt><trkpt lat="43.34135475612767" lon="13.266890639051272"><ele>288.5</ele><time>2026-05-02T14:12:00Z</time></trkpt><trkpt lat="43.341378999198376" lon="13.267087124540856"><ele>288.25</ele><time>2026-05-02T14:12:01Z</time></trkpt><trkpt lat="43.34141049931753" lon="13.267315380369912"><ele>288.0</ele><time>2026-05-02T14:12:02Z</time></trkpt><trkpt lat="43.341451044186776" lon="13.267555207429828"><ele>289.0</ele><time>2026-05-02T14:12:03Z</time></trkpt><trkpt lat="43.34144693434201" lon="13.267775901252882"><ele>290.0</ele><time>2026-05-02T14:12:04Z</time></trkpt><trkpt lat="43.34142902756535" lon="13.268004284786477"><ele>291.0</ele><time>2026-05-02T14:12:05Z</time></trkpt><trkpt lat="43.34141695570509" lon="13.268260575782657"><ele>291.0</ele><time>2026-05-02T14:12:06Z</time></trkpt><trkpt lat="43.34143198665358" lon="13.26855070061973"><ele>291.0</ele><time>2026-05-02T14:12:07Z</time></trkpt><trkpt lat="43.34147449766833" lon="13.268852349547734"><ele>291.0</ele><time>2026-05-02T14:12:08Z</time></trkpt><trkpt lat="43.341498542143995" lon="13.269172823818307"><ele>291.3333333333333</ele><time>2026-05-02T14:12:09Z</time></trkpt><trkpt lat="43.3415180267192" lon="13.269487178089996"><ele>291.66666666666663</ele><time>2026-05-02T14:12:10Z</time></trkpt><trkpt lat="43.341527313789065" lon="13.269765961968988"><ele>292.0</ele><time>2026-05-02T14:12:11Z</time></trkpt><trkpt lat="43.3415234653204" lon="13.270027872656236"><ele>290.66666666666663</ele><time>2026-05-02T14:12:12Z</time></trkpt><trkpt lat="43.34153890315249" lon="13.270259012548028"><ele>289.3333333333333</ele><time>2026-05-02T14:12:13Z</time></trkpt><trkpt lat="43.34155387706047" lon="13.270494990891546"><ele>288.0</ele><time>2026-05-02T14:12:14Z</time></trkpt><trkpt lat="43.34157069669771" lon="13.270723294408658"><ele>287.6666666666667</ele><time>2026-05-02T14:12:15Z</time></trkpt><trkpt lat="43.341616416819555" lon="13.270924926939456"><ele>287.33333333333337</ele><time>2026-05-02T14:12:16Z</time></trkpt><trkpt lat="43.34172087879879" lon="13.271121634887406"><ele>287.0</ele><time>2026-05-02T14:12:17Z</time></trkpt><trkpt lat="43.341845284897836" lon="13.271341200698215"><ele>286.5</ele><time>2026-05-02T14:12:18Z</time></trkpt><trkpt lat="43.34199192998188" lon="13.271581987716527"><ele>286.0</ele><time>2026-05-02T14:12:19Z</time></trkpt><trkpt lat="43.34215011227502" lon="13.271833843483813"><ele>287.3333333333333</ele><time>2026-05-02T14:12:20Z</time></trkpt><trkpt lat="43.34229338248344" lon="13.272090028587472"><ele>288.6666666666667</ele><time>2026-05-02T14:12:21Z</time></trkpt><trkpt lat="43.34239596961978" lon="13.272230948069186"><ele>290.0</ele><time>2026-05-02T14:12:22Z</time></trkpt><trkpt lat="43.34247629801968" lon="13.272365863295537"><ele>290.0</ele><time>2026-05-02T14:12:23Z</time></trkpt><trkpt lat="43.34269434732876" lon="13.272696861463537"><ele>290.0</ele><time>2026-05-02T14:12:24Z</time></trkpt><trkpt lat="43.342805896507144" lon="13.272864993374535"><ele>290.0</ele><time>2026-05-02T14:12:25Z</time></trkpt><trkpt lat="43.342903124692704" lon="13.27302213062495"><ele>290.0</ele><time>2026-05-02T14:12:26Z</time></trkpt><trkpt lat="43.34299671375549" lon="13.273185205925849"><ele>290.0</ele><time>2026-05-02T14:12:27Z</time></trkpt><trkpt lat="43.34306315407004" lon="13.273389331073307"><ele>293.5</ele><time>2026-05-02T14:12:28Z</time></trkpt><trkpt lat="43.34310890458155" lon="13.273584144601479"><ele>297.0</ele><time>2026-05-02T14:12:29Z</time></trkpt><trkpt lat="43.34314604240137" lon="13.273790538140963"><ele>300.5</ele><time>2026-05-02T14:12:30Z</time></trkpt><trkpt lat="43.34318182306386" lon="13.273981515120328"><ele>304.0</ele><time>2026-05-02T14:12:31Z</time></trkpt><trkpt lat="43.343216070918686" lon="13.274151357220708"><ele>304.0</ele><time>2026-05-02T14:12:32Z</time></trkpt><trkpt lat="43.3432542425627" lon="13.274304831762672"><ele>304.0</ele><time>2026-05-02T14:12:33Z</time></trkpt><trkpt lat="43.343310148271115" lon="13.274435049106938"><ele>304.0</ele><time>2026-05-02T14:12:34Z</time></trkpt><trkpt lat="43.34336651530097" lon="13.274566400594628"><ele>304.0</ele><time>2026-05-02T14:12:35Z</time></trkpt><trkpt lat="43.34344126061588" lon="13.274697905200906"><ele>303.8</ele><time>2026-05-02T14:12:36Z</time></trkpt><trkpt lat="43.3435084748028" lon="13.274822090680331"><ele>303.59999999999997</ele><time>2026-05-02T14:12:37Z</time></trkpt><trkpt lat="43.34355238362842" lon="13.274924901191573"><ele>303.4</ele><time>2026-05-02T14:12:38Z</time></trkpt><trkpt lat="43.34363514487798" lon="13.275016687528554"><ele>303.2</ele><time>2026-05-02T14:12:40Z</time></trkpt><trkpt lat="43.34370954581304" lon="13.275001880019035"><ele>303.0</ele><time>2026-05-02T14:12:42Z</time></trkpt><trkpt lat="43.34374877808117" lon="13.275125029491463"><ele>303.0</ele><time>2026-05-02T14:12:45Z</time></trkpt><trkpt lat="43.34372419079516" lon="13.275269223090344"><ele>303.0</ele><time>2026-05-02T14:12:47Z</time></trkpt><trkpt lat="43.3436990539197" lon="13.27539859762488"><ele>303.0</ele><time>2026-05-02T14:12:52Z</time></trkpt><trkpt lat="43.34365451175475" lon="13.275485935390254"><ele>303.0</ele><time>2026-05-02T14:12:53Z</time></trkpt><trkpt lat="43.34360611774356" lon="13.275603186897206"><ele>303.0</ele><time>2026-05-02T14:12:54Z</time></trkpt><trkpt lat="43.34354589054818" lon="13.275741018564062"><ele>302.3333333333333</ele><time>2026-05-02T14:12:55Z</time></trkpt><trkpt lat="43.34347857471219" lon="13.275910240592284"><ele>301.66666666666663</ele><time>2026-05-02T14:12:56Z</time></trkpt><trkpt lat="43.343420272241104" lon="13.276119535371114"><ele>301.0</ele><time>2026-05-02T14:12:57Z</time></trkpt><trkpt lat="43.343376884395916" lon="13.276345067603929"><ele>301.5</ele><time>2026-05-02T14:12:58Z</time></trkpt><trkpt lat="43.343343369449194" lon="13.276554758673393"><ele>302.0</ele><time>2026-05-02T14:12:59Z</time></trkpt><trkpt lat="43.34331054808217" lon="13.276736685430551"><ele>302.5</ele><time>2026-05-02T14:13:00Z</time></trkpt><trkpt lat="43.34327987113231" lon="13.276920828971333"><ele>303.0</ele><time>2026-05-02T14:13:01Z</time></trkpt><trkpt lat="43.34327304424692" lon="13.277072465573015"><ele>303.0</ele><time>2026-05-02T14:13:02Z</time></trkpt><trkpt lat="43.34324722956348" lon="13.277217975367245"><ele>303.0</ele><time>2026-05-02T14:13:03Z</time></trkpt><trkpt lat="43.34323847820294" lon="13.277330578597045"><ele>303.0</ele><time>2026-05-02T14:13:04Z</time></trkpt><trkpt lat="43.34330345865846" lon="13.277458902516246"><ele>303.0</ele><time>2026-05-02T14:13:06Z</time></trkpt><trkpt lat="43.343362768118695" lon="13.277498209437967"><ele>303.0</ele><time>2026-05-02T14:13:07Z</time></trkpt><trkpt lat="43.343434604873416" lon="13.277501217714729"><ele>303.0</ele><time>2026-05-02T14:13:08Z</time></trkpt><trkpt lat="43.343521258425575" lon="13.277506872735454"><ele>302.75</ele><time>2026-05-02T14:13:09Z</time></trkpt><trkpt lat="43.343644969156756" lon="13.277495537581288"><ele>302.5</ele><time>2026-05-02T14:13:10Z</time></trkpt><trkpt lat="43.343765497451855" lon="13.277487961817922"><ele>302.25</ele><time>2026-05-02T14:13:11Z</time></trkpt><trkpt lat="43.343892172188724" lon="13.277468918778618"><ele>302.0</ele><time>2026-05-02T14:13:12Z</time></trkpt><trkpt lat="43.34401844584965" lon="13.277423639906175"><ele>303.25</ele><time>2026-05-02T14:13:13Z</time></trkpt><trkpt lat="43.34415476970687" lon="13.277377813693366"><ele>304.5</ele><time>2026-05-02T14:13:14Z</time></trkpt><trkpt lat="43.34425213851226" lon="13.27731859883738"><ele>305.75</ele><time>2026-05-02T14:13:15Z</time></trkpt><trkpt lat="43.344359349295914" lon="13.27726747215735"><ele>307.0</ele><time>2026-05-02T14:13:16Z</time></trkpt><trkpt lat="43.34445313436034" lon="13.277232278897053"><ele>307.16666666666663</ele><time>2026-05-02T14:13:17Z</time></trkpt><trkpt lat="43.34455149154676" lon="13.277192956713394"><ele>307.3333333333333</ele><time>2026-05-02T14:13:18Z</time></trkpt><trkpt lat="43.344652547149906" lon="13.277148660270644"><ele>307.5</ele><time>2026-05-02T14:13:19Z</time></trkpt><trkpt lat="43.344736440830836" lon="13.277106951350651"><ele>307.6666666666667</ele><time>2026-05-02T14:13:20Z</time></trkpt><trkpt lat="43.344804113890135" lon="13.277075338904083"><ele>307.83333333333337</ele><time>2026-05-02T14:13:21Z</time></trkpt><trkpt lat="43.34487397533962" lon="13.277093179567462"><ele>308.0</ele><time>2026-05-02T14:13:23Z</time></trkpt><trkpt lat="43.34491190994209" lon="13.277401141221608"><ele>307.5</ele><time>2026-05-02T14:13:26Z</time></trkpt><trkpt lat="43.34494237734118" lon="13.27754405225784"><ele>307.0</ele><time>2026-05-02T14:13:27Z</time></trkpt><trkpt lat="43.34498941096725" lon="13.277690182581116"><ele>306.5</ele><time>2026-05-02T14:13:28Z</time></trkpt><trkpt lat="43.34501690877894" lon="13.277859821462478"><ele>306.0</ele><time>2026-05-02T14:13:29Z</time></trkpt><trkpt lat="43.34505358782882" lon="13.278030584527722"><ele>305.5</ele><time>2026-05-02T14:13:30Z</time></trkpt><trkpt lat="43.34507794264306" lon="13.278234160278252"><ele>305.0</ele><time>2026-05-02T14:13:31Z</time></trkpt><trkpt lat="43.3451250329485" lon="13.278423754768106"><ele>304.5</ele><time>2026-05-02T14:13:32Z</time></trkpt><trkpt lat="43.34516333541438" lon="13.278592993378764"><ele>304.0</ele><time>2026-05-02T14:13:33Z</time></trkpt><trkpt lat="43.34520484957782" lon="13.278769225982472"><ele>303.25</ele><time>2026-05-02T14:13:34Z</time></trkpt><trkpt lat="43.34524255917968" lon="13.278942491952682"><ele>302.5</ele><time>2026-05-02T14:13:35Z</time></trkpt><trkpt lat="43.345282995769665" lon="13.27912450145533"><ele>301.75</ele><time>2026-05-02T14:13:36Z</time></trkpt><trkpt lat="43.3453246286672" lon="13.279315179575448"><ele>301.0</ele><time>2026-05-02T14:13:37Z</time></trkpt><trkpt lat="43.34535249317608" lon="13.27951077479009"><ele>301.0</ele><time>2026-05-02T14:13:38Z</time></trkpt><trkpt lat="43.34540803266911" lon="13.279685737798495"><ele>301.0</ele><time>2026-05-02T14:13:39Z</time></trkpt><trkpt lat="43.345442479282575" lon="13.279862694567054"><ele>301.0</ele><time>2026-05-02T14:13:40Z</time></trkpt><trkpt lat="43.345471507334885" lon="13.28002894812497"><ele>301.0</ele><time>2026-05-02T14:13:41Z</time></trkpt><trkpt lat="43.345521197636195" lon="13.280169628076967"><ele>301.0</ele><time>2026-05-02T14:13:42Z</time></trkpt><trkpt lat="43.345525364551875" lon="13.280310872404751"><ele>301.0</ele><time>2026-05-02T14:13:43Z</time></trkpt><trkpt lat="43.345526562087144" lon="13.28043922178519"><ele>301.0</ele><time>2026-05-02T14:13:44Z</time></trkpt><trkpt lat="43.34555461794372" lon="13.28056123945601"><ele>301.0</ele><time>2026-05-02T14:13:45Z</time></trkpt><trkpt lat="43.345569531737446" lon="13.280663767232841"><ele>301.0</ele><time>2026-05-02T14:13:46Z</time></trkpt><trkpt lat="43.3456141436188" lon="13.280818424699328"><ele>301.0</ele><time>2026-05-02T14:13:48Z</time></trkpt><trkpt lat="43.34562761633675" lon="13.280999325233733"><ele>301.0</ele><time>2026-05-02T14:13:50Z</time></trkpt><trkpt lat="43.3456403463569" lon="13.281093643366848"><ele>301.0</ele><time>2026-05-02T14:13:51Z</time></trkpt><trkpt lat="43.345668790610205" lon="13.281194960348655"><ele>301.0</ele><time>2026-05-02T14:13:52Z</time></trkpt><trkpt lat="43.34569767393831" lon="13.28129783962722"><ele>301.0</ele><time>2026-05-02T14:13:53Z</time></trkpt><trkpt lat="43.345719542753955" lon="13.281402640944794"><ele>301.0</ele><time>2026-05-02T14:13:54Z</time></trkpt><trkpt lat="43.34573943013406" lon="13.281501362362302"><ele>300.5</ele><time>2026-05-02T14:13:55Z</time></trkpt><trkpt lat="43.34575731347458" lon="13.281589756452544"><ele>300.0</ele><time>2026-05-02T14:13:56Z</time></trkpt><trkpt lat="43.345780559545865" lon="13.281698748778515"><ele>299.5</ele><time>2026-05-02T14:13:57Z</time></trkpt><trkpt lat="43.34580290762093" lon="13.28181972265327"><ele>299.0</ele><time>2026-05-02T14:13:58Z</time></trkpt><trkpt lat="43.345811865676566" lon="13.281928326928346"><ele>298.5</ele><time>2026-05-02T14:13:59Z</time></trkpt><trkpt lat="43.34583290222708" lon="13.28202819721296"><ele>298.0</ele><time>2026-05-02T14:14:00Z</time></trkpt><trkpt lat="43.345852993279124" lon="13.282124002579708"><ele>298.0</ele><time>2026-05-02T14:14:01Z</time></trkpt><trkpt lat="43.345875665059566" lon="13.282235617502254"><ele>298.0</ele><time>2026-05-02T14:14:02Z</time></trkpt><trkpt lat="43.34591397225355" lon="13.282354576093589"><ele>298.0</ele><time>2026-05-02T14:14:04Z</time></trkpt><trkpt lat="43.34593124597465" lon="13.282451997595713"><ele>298.0</ele><time>2026-05-02T14:14:06Z</time></trkpt><trkpt lat="43.34597065640227" lon="13.28265493645629"><ele>298.0</ele><time>2026-05-02T14:14:08Z</time></trkpt><trkpt lat="43.34598915049442" lon="13.28276854416911"><ele>297.5</ele><time>2026-05-02T14:14:09Z</time></trkpt><trkpt lat="43.346020360909485" lon="13.28291862663653"><ele>297.0</ele><time>2026-05-02T14:14:11Z</time></trkpt><trkpt lat="43.34603541170167" lon="13.283013104955147"><ele>296.5</ele><time>2026-05-02T14:14:12Z</time></trkpt><trkpt lat="43.34606132476182" lon="13.283106604216766"><ele>296.0</ele><time>2026-05-02T14:14:13Z</time></trkpt><trkpt lat="43.34608650055294" lon="13.283253596862231"><ele>295.5</ele><time>2026-05-02T14:14:15Z</time></trkpt><trkpt lat="43.34611223957712" lon="13.2833491075323"><ele>295.0</ele><time>2026-05-02T14:14:16Z</time></trkpt><trkpt lat="43.34611676503958" lon="13.283449461092621"><ele>294.6</ele><time>2026-05-02T14:14:17Z</time></trkpt><trkpt lat="43.346125346670085" lon="13.283638970997124"><ele>294.2</ele><time>2026-05-02T14:14:19Z</time></trkpt><trkpt lat="43.34613100794407" lon="13.283749991096725"><ele>293.8</ele><time>2026-05-02T14:14:20Z</time></trkpt><trkpt lat="43.34613519403026" lon="13.283867856196949"><ele>293.4</ele><time>2026-05-02T14:14:21Z</time></trkpt><trkpt lat="43.34613921276639" lon="13.28400693258585"><ele>293.0</ele><time>2026-05-02T14:14:22Z</time></trkpt><trkpt lat="43.34614107385041" lon="13.284162830513964"><ele>292.6</ele><time>2026-05-02T14:14:23Z</time></trkpt><trkpt lat="43.346142043478" lon="13.28432147558374"><ele>292.20000000000005</ele><time>2026-05-02T14:14:24Z</time></trkpt><trkpt lat="43.34614778346187" lon="13.284479497484785"><ele>291.8</ele><time>2026-05-02T14:14:25Z</time></trkpt><trkpt lat="43.3461513065563" lon="13.284630477675792"><ele>291.40000000000003</ele><time>2026-05-02T14:14:26Z</time></trkpt><trkpt lat="43.34615413703087" lon="13.28475624505984"><ele>291.0</ele><time>2026-05-02T14:14:27Z</time></trkpt><trkpt lat="43.34615646964909" lon="13.284868126432519"><ele>290.8</ele><time>2026-05-02T14:14:28Z</time></trkpt><trkpt lat="43.34615957314072" lon="13.284976476095313"><ele>290.6</ele><time>2026-05-02T14:14:29Z</time></trkpt><trkpt lat="43.34616213579036" lon="13.285069798167305"><ele>290.4</ele><time>2026-05-02T14:14:30Z</time></trkpt><trkpt lat="43.34616684088847" lon="13.285179197571177"><ele>290.2</ele><time>2026-05-02T14:14:31Z</time></trkpt><trkpt lat="43.3461630955317" lon="13.285313540126797"><ele>290.0</ele><time>2026-05-02T14:14:32Z</time></trkpt><trkpt lat="43.3461813029694" lon="13.285486266655942"><ele>289.5</ele><time>2026-05-02T14:14:33Z</time></trkpt><trkpt lat="43.34619517083665" lon="13.285653414320917"><ele>289.0</ele><time>2026-05-02T14:14:34Z</time></trkpt><trkpt lat="43.34621629678307" lon="13.285809962148114"><ele>288.5</ele><time>2026-05-02T14:14:35Z</time></trkpt><trkpt lat="43.346232927638106" lon="13.285970756804058"><ele>288.0</ele><time>2026-05-02T14:14:36Z</time></trkpt><trkpt lat="43.34627091912379" lon="13.286104047931085"><ele>288.0</ele><time>2026-05-02T14:14:37Z</time></trkpt><trkpt lat="43.34627589255469" lon="13.286243676865494"><ele>288.0</ele><time>2026-05-02T14:14:38Z</time></trkpt><trkpt lat="43.34631201686801" lon="13.286374671272487"><ele>288.0</ele><time>2026-05-02T14:14:39Z</time></trkpt><trkpt lat="43.34632718941446" lon="13.286495167326038"><ele>288.0</ele><time>2026-05-02T14:14:40Z</time></trkpt><trkpt lat="43.34632833017203" lon="13.286613456654166"><ele>288.0</ele><time>2026-05-02T14:14:41Z</time></trkpt><trkpt lat="43.346338590888394" lon="13.286720380697536"><ele>288.0</ele><time>2026-05-02T14:14:42Z</time></trkpt><trkpt lat="43.346362796777015" lon="13.286827716598362"><ele>288.0</ele><time>2026-05-02T14:14:43Z</time></trkpt><trkpt lat="43.34636867971618" lon="13.286931031073227"><ele>288.0</ele><time>2026-05-02T14:14:44Z</time></trkpt><trkpt lat="43.346357022125744" lon="13.287018269388591"><ele>288.0</ele><time>2026-05-02T14:14:45Z</time></trkpt><trkpt lat="43.34635998135201" lon="13.287142447881854"><ele>288.0</ele><time>2026-05-02T14:14:47Z</time></trkpt><trkpt lat="43.34636139460207" lon="13.28725621478387"><ele>288.0</ele><time>2026-05-02T14:14:50Z</time></trkpt><trkpt lat="43.34635348080384" lon="13.287370820415433"><ele>288.0</ele><time>2026-05-02T14:14:52Z</time></trkpt><trkpt lat="43.34634288742714" lon="13.287464802672844"><ele>288.0</ele><time>2026-05-02T14:14:53Z</time></trkpt><trkpt lat="43.346328115869596" lon="13.287643909332504"><ele>288.0</ele><time>2026-05-02T14:14:55Z</time></trkpt><trkpt lat="43.346332653563465" lon="13.287746014447206"><ele>288.0</ele><time>2026-05-02T14:14:56Z</time></trkpt><trkpt lat="43.34634409514175" lon="13.287863555933761"><ele>288.0</ele><time>2026-05-02T14:14:57Z</time></trkpt><trkpt lat="43.34636865646477" lon="13.287984138020956"><ele>287.6</ele><time>2026-05-02T14:14:58Z</time></trkpt><trkpt lat="43.34640025754961" lon="13.288137671847913"><ele>287.20000000000005</ele><time>2026-05-02T14:14:59Z</time></trkpt><trkpt lat="43.34642464519877" lon="13.288290458994773"><ele>286.8</ele><time>2026-05-02T14:15:00Z</time></trkpt><trkpt lat="43.3464434225816" lon="13.288432747631543"><ele>286.40000000000003</ele><time>2026-05-02T14:15:01Z</time></trkpt><trkpt lat="43.346471381637066" lon="13.288565711649623"><ele>286.0</ele><time>2026-05-02T14:15:02Z</time></trkpt><trkpt lat="43.34649983982103" lon="13.288704632550226"><ele>286.0</ele><time>2026-05-02T14:15:03Z</time></trkpt><trkpt lat="43.34652338479478" lon="13.28883144682514"><ele>286.0</ele><time>2026-05-02T14:15:04Z</time></trkpt><trkpt lat="43.346555413056244" lon="13.288960832636791"><ele>286.0</ele><time>2026-05-02T14:15:05Z</time></trkpt><trkpt lat="43.34658777222707" lon="13.289093572123015"><ele>286.0</ele><time>2026-05-02T14:15:06Z</time></trkpt><trkpt lat="43.34662367373309" lon="13.289226795393988"><ele>286.0</ele><time>2026-05-02T14:15:07Z</time></trkpt><trkpt lat="43.346659120369004" lon="13.28938799695093"><ele>285.6</ele><time>2026-05-02T14:15:08Z</time></trkpt><trkpt lat="43.34669116534902" lon="13.289525896054052"><ele>285.20000000000005</ele><time>2026-05-02T14:15:09Z</time></trkpt><trkpt lat="43.34672152076647" lon="13.28966614883781"><ele>284.79999999999995</ele><time>2026-05-02T14:15:10Z</time></trkpt><trkpt lat="43.34676325507375" lon="13.289791730592981"><ele>284.4</ele><time>2026-05-02T14:15:11Z</time></trkpt><trkpt lat="43.346795255994586" lon="13.28991936954619"><ele>284.0</ele><time>2026-05-02T14:15:12Z</time></trkpt><trkpt lat="43.346826171426386" lon="13.290042619070501"><ele>283.83333333333337</ele><time>2026-05-02T14:15:13Z</time></trkpt><trkpt lat="43.34685560437183" lon="13.290161027695827"><ele>283.6666666666667</ele><time>2026-05-02T14:15:14Z</time></trkpt><trkpt lat="43.3468967764223" lon="13.290279956770704"><ele>283.5</ele><time>2026-05-02T14:15:15Z</time></trkpt><trkpt lat="43.34693419271457" lon="13.290385589501534"><ele>283.3333333333333</ele><time>2026-05-02T14:15:16Z</time></trkpt><trkpt lat="43.34696828557552" lon="13.290485046480537"><ele>283.16666666666663</ele><time>2026-05-02T14:15:17Z</time></trkpt><trkpt lat="43.34698684548669" lon="13.290576657466485"><ele>283.0</ele><time>2026-05-02T14:15:18Z</time></trkpt><trkpt lat="43.34704438591636" lon="13.290718212461575"><ele>283.0</ele><time>2026-05-02T14:15:20Z</time></trkpt><trkpt lat="43.34708820151857" lon="13.290808264235121"><ele>283.0</ele><time>2026-05-02T14:15:21Z</time></trkpt><trkpt lat="43.34714710679532" lon="13.290887021642433"><ele>283.0</ele><time>2026-05-02T14:15:22Z</time></trkpt><trkpt lat="43.34719541671566" lon="13.29096407988077"><ele>283.0</ele><time>2026-05-02T14:15:23Z</time></trkpt><trkpt lat="43.347255748867575" lon="13.291038574230779"><ele>283.0</ele><time>2026-05-02T14:15:24Z</time></trkpt><trkpt lat="43.34731659398913" lon="13.291135771467198"><ele>283.0</ele><time>2026-05-02T14:15:25Z</time></trkpt><trkpt lat="43.347385462618966" lon="13.291211764923188"><ele>282.8333333333333</ele><time>2026-05-02T14:15:26Z</time></trkpt><trkpt lat="43.34746051092966" lon="13.291278833906185"><ele>282.66666666666663</ele><time>2026-05-02T14:15:27Z</time></trkpt><trkpt lat="43.34752208920559" lon="13.291333378785978"><ele>282.5</ele><time>2026-05-02T14:15:28Z</time></trkpt><trkpt lat="43.347586409709294" lon="13.29139260027341"><ele>282.3333333333333</ele><time>2026-05-02T14:15:29Z</time></trkpt><trkpt lat="43.347663005344124" lon="13.291447230962849"><ele>282.1666666666667</ele><time>2026-05-02T14:15:30Z</time></trkpt><trkpt lat="43.34772268498472" lon="13.29152168880445"><ele>282.0</ele><time>2026-05-02T14:15:31Z</time></trkpt><trkpt lat="43.347808749742605" lon="13.29160322643624"><ele>281.8333333333333</ele><time>2026-05-02T14:15:32Z</time></trkpt><trkpt lat="43.34787831242316" lon="13.291684940918108"><ele>281.6666666666667</ele><time>2026-05-02T14:15:33Z</time></trkpt><trkpt lat="43.347940742825394" lon="13.291762398485002"><ele>281.5</ele><time>2026-05-02T14:15:34Z</time></trkpt><trkpt lat="43.34799364821189" lon="13.291824637927856"><ele>281.33333333333337</ele><time>2026-05-02T14:15:35Z</time></trkpt><trkpt lat="43.348075511412" lon="13.2919198919865"><ele>281.1666666666667</ele><time>2026-05-02T14:15:37Z</time></trkpt><trkpt lat="43.34812747806071" lon="13.292013424914092"><ele>281.0</ele><time>2026-05-02T14:15:40Z</time></trkpt><trkpt lat="43.34813902160433" lon="13.292148649188443"><ele>280.42857142857144</ele><time>2026-05-02T14:15:42Z</time></trkpt><trkpt lat="43.348151274765385" lon="13.292237468365267"><ele>279.8571428571429</ele><time>2026-05-02T14:15:43Z</time></trkpt><trkpt lat="43.34816546214293" lon="13.292328410191505"><ele>279.2857142857143</ele><time>2026-05-02T14:15:44Z</time></trkpt><trkpt lat="43.34818688075822" lon="13.292432922665762"><ele>278.7142857142857</ele><time>2026-05-02T14:15:45Z</time></trkpt><trkpt lat="43.34820195466743" lon="13.29253614052828"><ele>278.1428571428571</ele><time>2026-05-02T14:15:46Z</time></trkpt><trkpt lat="43.348213950763515" lon="13.292637480980968"><ele>277.57142857142856</ele><time>2026-05-02T14:15:47Z</time></trkpt><trkpt lat="43.348227746963" lon="13.292722455028397"><ele>277.0</ele><time>2026-05-02T14:15:48Z</time></trkpt><trkpt lat="43.34824272230815" lon="13.292817538955505"><ele>276.8333333333333</ele><time>2026-05-02T14:15:49Z</time></trkpt><trkpt lat="43.3482622719673" lon="13.29290334788971"><ele>276.66666666666663</ele><time>2026-05-02T14:15:50Z</time></trkpt><trkpt lat="43.348282193937116" lon="13.292999315092036"><ele>276.5</ele><time>2026-05-02T14:15:51Z</time></trkpt><trkpt lat="43.3483081100649" lon="13.293083012443223"><ele>276.3333333333333</ele><time>2026-05-02T14:15:52Z</time></trkpt><trkpt lat="43.348338384172386" lon="13.293216261066535"><ele>276.1666666666667</ele><time>2026-05-02T14:15:54Z</time></trkpt><trkpt lat="43.34836151444767" lon="13.293309555944756"><ele>276.0</ele><time>2026-05-02T14:15:56Z</time></trkpt><trkpt lat="43.34839306638312" lon="13.29343189892611"><ele>276.0</ele><time>2026-05-02T14:15:58Z</time></trkpt><trkpt lat="43.34843901843245" lon="13.293557355774048"><ele>276.0</ele><time>2026-05-02T14:16:00Z</time></trkpt><trkpt lat="43.348480037350434" lon="13.293728206490389"><ele>276.0</ele><time>2026-05-02T14:16:02Z</time></trkpt><trkpt lat="43.348511177042944" lon="13.293839239607308"><ele>276.0</ele><time>2026-05-02T14:16:03Z</time></trkpt><trkpt lat="43.348537359626604" lon="13.293944077257862"><ele>276.0</ele><time>2026-05-02T14:16:04Z</time></trkpt><trkpt lat="43.34856409661574" lon="13.294043944742857"><ele>275.6</ele><time>2026-05-02T14:16:05Z</time></trkpt><trkpt lat="43.34859092326574" lon="13.294141207168805"><ele>275.20000000000005</ele><time>2026-05-02T14:16:06Z</time></trkpt><trkpt lat="43.34861734622226" lon="13.294233766317834"><ele>274.79999999999995</ele><time>2026-05-02T14:16:07Z</time></trkpt><trkpt lat="43.348642643767256" lon="13.294321401527155"><ele>274.4</ele><time>2026-05-02T14:16:08Z</time></trkpt><trkpt lat="43.34869187472202" lon="13.294482538333188"><ele>274.0</ele><time>2026-05-02T14:16:10Z</time></trkpt><trkpt lat="43.348731199433324" lon="13.294632104543222"><ele>274.00000000000006</ele><time>2026-05-02T14:16:12Z</time></trkpt><trkpt lat="43.34874145352064" lon="13.29473967000862"><ele>274.0</ele><time>2026-05-02T14:16:14Z</time></trkpt><trkpt lat="43.34874254453803" lon="13.294842211610542"><ele>274.0</ele><time>2026-05-02T14:16:16Z</time></trkpt><trkpt lat="43.34873860460525" lon="13.294930325106709"><ele>274.0</ele><time>2026-05-02T14:16:17Z</time></trkpt><trkpt lat="43.348724992542536" lon="13.295036815331319"><ele>274.0</ele><time>2026-05-02T14:16:18Z</time></trkpt><trkpt lat="43.34871753807321" lon="13.295126832294091"><ele>274.00000000000006</ele><time>2026-05-02T14:16:19Z</time></trkpt><trkpt lat="43.34871308736157" lon="13.29523130043903"><ele>274.0</ele><time>2026-05-02T14:16:20Z</time></trkpt><trkpt lat="43.348715174956766" lon="13.29535028026131"><ele>274.0</ele><time>2026-05-02T14:16:21Z</time></trkpt><trkpt lat="43.34871341975433" lon="13.295451517081094"><ele>274.0</ele><time>2026-05-02T14:16:22Z</time></trkpt><trkpt lat="43.34870347655516" lon="13.295565024717735"><ele>274.0</ele><time>2026-05-02T14:16:23Z</time></trkpt><trkpt lat="43.34870183008898" lon="13.29574994967301"><ele>274.0</ele><time>2026-05-02T14:16:25Z</time></trkpt><trkpt lat="43.3487020720835" lon="13.295906941147678"><ele>274.0</ele><time>2026-05-02T14:16:27Z</time></trkpt><trkpt lat="43.348714436728564" lon="13.296027865569492"><ele>273.8333333333333</ele><time>2026-05-02T14:16:29Z</time></trkpt><trkpt lat="43.3487771342437" lon="13.296093077338202"><ele>273.66666666666663</ele><time>2026-05-02T14:16:35Z</time></trkpt><trkpt lat="43.348838540919324" lon="13.296129232028305"><ele>273.5</ele><time>2026-05-02T14:16:36Z</time></trkpt><trkpt lat="43.34897820132578" lon="13.296135884785958"><ele>273.3333333333333</ele><time>2026-05-02T14:16:38Z</time></trkpt><trkpt lat="43.349048830236946" lon="13.296163810998156"><ele>273.1666666666667</ele><time>2026-05-02T14:16:39Z</time></trkpt><trkpt lat="43.349126246290936" lon="13.296171687794985"><ele>273.0</ele><time>2026-05-02T14:16:40Z</time></trkpt><trkpt lat="43.349226543702" lon="13.29616056341865"><ele>272.8</ele><time>2026-05-02T14:16:41Z</time></trkpt><trkpt lat="43.349317313398025" lon="13.296186862751942"><ele>272.6</ele><time>2026-05-02T14:16:42Z</time></trkpt><trkpt lat="43.34944172314786" lon="13.296192919633013"><ele>272.4</ele><time>2026-05-02T14:16:43Z</time></trkpt><trkpt lat="43.349556464001324" lon="13.296202503392038"><ele>272.2</ele><time>2026-05-02T14:16:44Z</time></trkpt><trkpt lat="43.34966653741218" lon="13.296215115825785"><ele>272.0</ele><time>2026-05-02T14:16:45Z</time></trkpt><trkpt lat="43.34976669638561" lon="13.29622792030309"><ele>271.83333333333337</ele><time>2026-05-02T14:16:46Z</time></trkpt><trkpt lat="43.34985247210723" lon="13.296235378244925"><ele>271.6666666666667</ele><time>2026-05-02T14:16:47Z</time></trkpt><trkpt lat="43.34993114775442" lon="13.296240515536123"><ele>271.5</ele><time>2026-05-02T14:16:48Z</time></trkpt><trkpt lat="43.35000028413355" lon="13.296246197192671"><ele>271.3333333333333</ele><time>2026-05-02T14:16:49Z</time></trkpt><trkpt lat="43.350066599702735" lon="13.296263823650476"><ele>271.16666666666663</ele><time>2026-05-02T14:16:50Z</time></trkpt><trkpt lat="43.350142463001575" lon="13.296269240988401"><ele>271.0</ele><time>2026-05-02T14:16:51Z</time></trkpt><trkpt lat="43.35021662909398" lon="13.2962788401443"><ele>271.0</ele><time>2026-05-02T14:16:52Z</time></trkpt><trkpt lat="43.35027978022113" lon="13.296282557819195"><ele>271.0</ele><time>2026-05-02T14:16:53Z</time></trkpt><trkpt lat="43.35038800079343" lon="13.29629327070057"><ele>271.0</ele><time>2026-05-02T14:16:55Z</time></trkpt><trkpt lat="43.3504245478212" lon="13.29614645614907"><ele>271.0</ele><time>2026-05-02T14:17:27Z</time></trkpt><trkpt lat="43.35037216506364" lon="13.296032310582415"><ele>271.0</ele><time>2026-05-02T14:17:28Z</time></trkpt><trkpt lat="43.35032533659928" lon="13.295916266695937"><ele>271.0</ele><time>2026-05-02T14:17:29Z</time></trkpt><trkpt lat="43.35026861379285" lon="13.295792533957416"><ele>271.0</ele><time>2026-05-02T14:17:30Z</time></trkpt><trkpt lat="43.35020534138885" lon="13.295535754421962"><ele>271.0</ele><time>2026-05-02T14:17:32Z</time></trkpt><trkpt lat="43.35017439409134" lon="13.295410596783793"><ele>271.0</ele><time>2026-05-02T14:17:33Z</time></trkpt><trkpt lat="43.35015738327994" lon="13.295274339711307"><ele>271.0</ele><time>2026-05-02T14:17:34Z</time></trkpt><trkpt lat="43.35016310361882" lon="13.295119112647058"><ele>271.0</ele><time>2026-05-02T14:17:35Z</time></trkpt><trkpt lat="43.35018558009573" lon="13.294966710254661"><ele>271.0</ele><time>2026-05-02T14:17:36Z</time></trkpt><trkpt lat="43.35021331416408" lon="13.294794347024443"><ele>271.0</ele><time>2026-05-02T14:17:37Z</time></trkpt><trkpt lat="43.35023136634802" lon="13.29460400803168"><ele>271.0</ele><time>2026-05-02T14:17:38Z</time></trkpt><trkpt lat="43.35024228739276" lon="13.294406420333177"><ele>271.0</ele><time>2026-05-02T14:17:39Z</time></trkpt><trkpt lat="43.35025281869571" lon="13.294205131152042"><ele>271.0</ele><time>2026-05-02T14:17:40Z</time></trkpt><trkpt lat="43.35026524517314" lon="13.294005885255574"><ele>271.0</ele><time>2026-05-02T14:17:41Z</time></trkpt><trkpt lat="43.350297794200436" lon="13.29381635151302"><ele>271.25</ele><time>2026-05-02T14:17:42Z</time></trkpt><trkpt lat="43.350318618106115" lon="13.293629506875938"><ele>271.5</ele><time>2026-05-02T14:17:43Z</time></trkpt><trkpt lat="43.35033724315286" lon="13.293462391757629"><ele>271.75</ele><time>2026-05-02T14:17:44Z</time></trkpt><trkpt lat="43.350346028822216" lon="13.293271411539154"><ele>272.0</ele><time>2026-05-02T14:17:45Z</time></trkpt><trkpt lat="43.350368900191555" lon="13.29308886420737"><ele>272.75</ele><time>2026-05-02T14:17:46Z</time></trkpt><trkpt lat="43.350393038793094" lon="13.29289190745462"><ele>273.5</ele><time>2026-05-02T14:17:47Z</time></trkpt><trkpt lat="43.350416379657446" lon="13.29269351985113"><ele>274.25</ele><time>2026-05-02T14:17:48Z</time></trkpt><trkpt lat="43.350441743545744" lon="13.29249256752433"><ele>275.0</ele><time>2026-05-02T14:17:49Z</time></trkpt><trkpt lat="43.350463900300795" lon="13.29228725814074"><ele>275.0</ele><time>2026-05-02T14:17:50Z</time></trkpt><trkpt lat="43.35048427051174" lon="13.292075010935674"><ele>275.0</ele><time>2026-05-02T14:17:51Z</time></trkpt><trkpt lat="43.35050895721784" lon="13.291810729412587"><ele>275.0</ele><time>2026-05-02T14:17:52Z</time></trkpt><trkpt lat="43.35053183084517" lon="13.29151721164493"><ele>275.0</ele><time>2026-05-02T14:17:53Z</time></trkpt><trkpt lat="43.35055335000673" lon="13.291254688636318"><ele>275.0</ele><time>2026-05-02T14:17:54Z</time></trkpt><trkpt lat="43.35056659674268" lon="13.291017815238915"><ele>275.0</ele><time>2026-05-02T14:17:55Z</time></trkpt><trkpt lat="43.350582729181006" lon="13.290814231184822"><ele>275.0</ele><time>2026-05-02T14:17:56Z</time></trkpt><trkpt lat="43.350596871075616" lon="13.290624898813196"><ele>275.0</ele><time>2026-05-02T14:17:57Z</time></trkpt><trkpt lat="43.35061356674108" lon="13.290452962631976"><ele>275.0</ele><time>2026-05-02T14:17:58Z</time></trkpt><trkpt lat="43.350629286396625" lon="13.290292237707892"><ele>275.0</ele><time>2026-05-02T14:17:59Z</time></trkpt><trkpt lat="43.35063835106612" lon="13.290137394211754"><ele>275.2</ele><time>2026-05-02T14:18:00Z</time></trkpt><trkpt lat="43.350645382651415" lon="13.289995254534013"><ele>275.4</ele><time>2026-05-02T14:18:01Z</time></trkpt><trkpt lat="43.350634661352736" lon="13.28987665161717"><ele>275.6</ele><time>2026-05-02T14:18:02Z</time></trkpt><trkpt lat="43.35062095732081" lon="13.289752155226822"><ele>275.8</ele><time>2026-05-02T14:18:03Z</time></trkpt><trkpt lat="43.35056379131375" lon="13.289666810641563"><ele>276.0</ele><time>2026-05-02T14:18:04Z</time></trkpt><trkpt lat="43.35052965336713" lon="13.289560552505941"><ele>276.75</ele><time>2026-05-02T14:18:05Z</time></trkpt><trkpt lat="43.350489525283585" lon="13.289461244912998"><ele>277.5</ele><time>2026-05-02T14:18:06Z</time></trkpt><trkpt lat="43.350437740025086" lon="13.289323314048898"><ele>278.25</ele><time>2026-05-02T14:18:07Z</time></trkpt><trkpt lat="43.3503799845368" lon="13.2891691340356"><ele>279.0</ele><time>2026-05-02T14:18:08Z</time></trkpt><trkpt lat="43.35030864074029" lon="13.288978679653736"><ele>279.25</ele><time>2026-05-02T14:18:09Z</time></trkpt><trkpt lat="43.350243561094075" lon="13.288804947504333"><ele>279.5</ele><time>2026-05-02T14:18:10Z</time></trkpt><trkpt lat="43.35019091239289" lon="13.288664400239707"><ele>279.75</ele><time>2026-05-02T14:18:11Z</time></trkpt><trkpt lat="43.350140155336106" lon="13.288528902715573"><ele>280.0</ele><time>2026-05-02T14:18:12Z</time></trkpt><trkpt lat="43.35008440230953" lon="13.288380647882565"><ele>280.0</ele><time>2026-05-02T14:18:13Z</time></trkpt><trkpt lat="43.3500228858795" lon="13.288218094579756"><ele>280.0</ele><time>2026-05-02T14:18:14Z</time></trkpt><trkpt lat="43.34995404844931" lon="13.288036195933088"><ele>280.0</ele><time>2026-05-02T14:18:15Z</time></trkpt><trkpt lat="43.34987359802468" lon="13.287823610714144"><ele>279.66666666666663</ele><time>2026-05-02T14:18:16Z</time></trkpt><trkpt lat="43.349789672064226" lon="13.287601841660754"><ele>279.3333333333333</ele><time>2026-05-02T14:18:17Z</time></trkpt><trkpt lat="43.349697474164756" lon="13.28735821445338"><ele>279.0</ele><time>2026-05-02T14:18:18Z</time></trkpt><trkpt lat="43.34959954956733" lon="13.287096827199122"><ele>280.6666666666667</ele><time>2026-05-02T14:18:19Z</time></trkpt><trkpt lat="43.349510198961006" lon="13.286869755103757"><ele>282.33333333333337</ele><time>2026-05-02T14:18:20Z</time></trkpt><trkpt lat="43.34944029411508" lon="13.286704260194895"><ele>284.0</ele><time>2026-05-02T14:18:21Z</time></trkpt><trkpt lat="43.34937801805094" lon="13.286554051685297"><ele>284.0</ele><time>2026-05-02T14:18:22Z</time></trkpt><trkpt lat="43.34929388167783" lon="13.286310489127931"><ele>284.0</ele><time>2026-05-02T14:18:23Z</time></trkpt><trkpt lat="43.349263073514834" lon="13.286181759646034"><ele>284.0</ele><time>2026-05-02T14:18:24Z</time></trkpt><trkpt lat="43.34925307615804" lon="13.286068440549196"><ele>284.0</ele><time>2026-05-02T14:18:26Z</time></trkpt><trkpt lat="43.349909649121784" lon="13.285781957125751"><ele>284.0</ele><time>2026-05-02T14:18:27Z</time></trkpt><trkpt lat="43.34998415092263" lon="13.285721802896036"><ele>284.0</ele><time>2026-05-02T14:18:28Z</time></trkpt><trkpt lat="43.350070792714575" lon="13.285644316966748"><ele>284.0</ele><time>2026-05-02T14:18:29Z</time></trkpt><trkpt lat="43.35018099973882" lon="13.285521996169589"><ele>284.0</ele><time>2026-05-02T14:18:30Z</time></trkpt><trkpt lat="43.35031132721888" lon="13.28539547996606"><ele>284.0</ele><time>2026-05-02T14:18:31Z</time></trkpt><trkpt lat="43.350435800312724" lon="13.285235953479685"><ele>284.0</ele><time>2026-05-02T14:18:32Z</time></trkpt><trkpt lat="43.350514176145964" lon="13.285130518676088"><ele>284.0</ele><time>2026-05-02T14:18:33Z</time></trkpt><trkpt lat="43.3505765985742" lon="13.285054188929792"><ele>284.0</ele><time>2026-05-02T14:18:34Z</time></trkpt><trkpt lat="43.35063974165605" lon="13.284983318141315"><ele>284.0</ele><time>2026-05-02T14:18:35Z</time></trkpt><trkpt lat="43.350691791510556" lon="13.284841684315143"><ele>284.0</ele><time>2026-05-02T14:18:36Z</time></trkpt><trkpt lat="43.35068121540256" lon="13.284697279471315"><ele>284.0</ele><time>2026-05-02T14:18:37Z</time></trkpt><trkpt lat="43.350674060603694" lon="13.2845305853488"><ele>284.0</ele><time>2026-05-02T14:18:38Z</time></trkpt><trkpt lat="43.35065828310116" lon="13.284364045019114"><ele>284.0</ele><time>2026-05-02T14:18:39Z</time></trkpt><trkpt lat="43.3506505298975" lon="13.284227608158531"><ele>284.0</ele><time>2026-05-02T14:18:40Z</time></trkpt><trkpt lat="43.35066138792417" lon="13.28411130141901"><ele>284.0</ele><time>2026-05-02T14:18:41Z</time></trkpt><trkpt lat="43.35068708569983" lon="13.283985259721979"><ele>284.0</ele><time>2026-05-02T14:18:42Z</time></trkpt><trkpt lat="43.35067765593771" lon="13.283851864097498"><ele>284.0</ele><time>2026-05-02T14:18:43Z</time></trkpt><trkpt lat="43.350651380045655" lon="13.283701836111009"><ele>284.0</ele><time>2026-05-02T14:18:44Z</time></trkpt><trkpt lat="43.35061295789828" lon="13.28354032579163"><ele>284.0</ele><time>2026-05-02T14:18:45Z</time></trkpt><trkpt lat="43.35058030662958" lon="13.283383877405146"><ele>284.59999999999997</ele><time>2026-05-02T14:18:46Z</time></trkpt><trkpt lat="43.350577640348455" lon="13.283192580956962"><ele>285.2</ele><time>2026-05-02T14:18:47Z</time></trkpt><trkpt lat="43.350571959833246" lon="13.283064264617007"><ele>285.79999999999995</ele><time>2026-05-02T14:18:48Z</time></trkpt><trkpt lat="43.350573081092" lon="13.282937044190987"><ele>286.4</ele><time>2026-05-02T14:18:49Z</time></trkpt><trkpt lat="43.35060660879395" lon="13.282823771950799"><ele>287.0</ele><time>2026-05-02T14:18:50Z</time></trkpt><trkpt lat="43.350651354133596" lon="13.282756238311356"><ele>287.33333333333337</ele><time>2026-05-02T14:18:51Z</time></trkpt><trkpt lat="43.350738157285726" lon="13.282704875205022"><ele>287.6666666666667</ele><time>2026-05-02T14:18:53Z</time></trkpt><trkpt lat="43.350808940357574" lon="13.282633023615322"><ele>288.0</ele><time>2026-05-02T14:18:54Z</time></trkpt><trkpt lat="43.350863730593076" lon="13.282572748278739"><ele>288.3333333333333</ele><time>2026-05-02T14:18:55Z</time></trkpt><trkpt lat="43.35094354325075" lon="13.282499926866702"><ele>288.66666666666663</ele><time>2026-05-02T14:18:57Z</time></trkpt><trkpt lat="43.35101046167964" lon="13.282447392855646"><ele>289.0</ele><time>2026-05-02T14:18:58Z</time></trkpt><trkpt lat="43.35108385079978" lon="13.282383109251787"><ele>289.0</ele><time>2026-05-02T14:18:59Z</time></trkpt><trkpt lat="43.351172956784865" lon="13.282322043208032"><ele>289.0</ele><time>2026-05-02T14:19:00Z</time></trkpt><trkpt lat="43.35127608701697" lon="13.282258118353422"><ele>289.0</ele><time>2026-05-02T14:19:01Z</time></trkpt><trkpt lat="43.35136832533527" lon="13.282202970135316"><ele>289.0</ele><time>2026-05-02T14:19:02Z</time></trkpt><trkpt lat="43.351463113740884" lon="13.282117415147898"><ele>289.0</ele><time>2026-05-02T14:19:03Z</time></trkpt><trkpt lat="43.351563176690014" lon="13.28205953237941"><ele>288.4</ele><time>2026-05-02T14:19:04Z</time></trkpt><trkpt lat="43.351659693110044" lon="13.282003289681661"><ele>287.79999999999995</ele><time>2026-05-02T14:19:05Z</time></trkpt><trkpt lat="43.35174187361557" lon="13.281951577119983"><ele>287.20000000000005</ele><time>2026-05-02T14:19:06Z</time></trkpt><trkpt lat="43.35182614411717" lon="13.28192899227087"><ele>286.6</ele><time>2026-05-02T14:19:07Z</time></trkpt><trkpt lat="43.351939271386435" lon="13.281852365560622"><ele>286.0</ele><time>2026-05-02T14:19:09Z</time></trkpt><trkpt lat="43.3519875793686" lon="13.281789612919672"><ele>286.0</ele><time>2026-05-02T14:19:10Z</time></trkpt><trkpt lat="43.35206462664061" lon="13.281756721146582"><ele>286.0</ele><time>2026-05-02T14:19:12Z</time></trkpt><trkpt lat="43.35211867991876" lon="13.281875138686846"><ele>286.0</ele><time>2026-05-02T14:19:14Z</time></trkpt><trkpt lat="43.35222405835752" lon="13.282063056244034"><ele>286.0</ele><time>2026-05-02T14:19:16Z</time></trkpt><trkpt lat="43.35229448300421" lon="13.282200625120025"><ele>286.25</ele><time>2026-05-02T14:19:17Z</time></trkpt><trkpt lat="43.352369268033925" lon="13.282340062077477"><ele>286.5</ele><time>2026-05-02T14:19:18Z</time></trkpt><trkpt lat="43.35244680949928" lon="13.282470622698213"><ele>286.75</ele><time>2026-05-02T14:19:19Z</time></trkpt><trkpt lat="43.352516321129386" lon="13.28259404582313"><ele>287.0</ele><time>2026-05-02T14:19:20Z</time></trkpt><trkpt lat="43.35259356963246" lon="13.282696938749849"><ele>287.0</ele><time>2026-05-02T14:19:21Z</time></trkpt><trkpt lat="43.35264156284253" lon="13.282805485358992"><ele>287.0</ele><time>2026-05-02T14:19:22Z</time></trkpt><trkpt lat="43.3526991993024" lon="13.282917882489645"><ele>287.0</ele><time>2026-05-02T14:19:23Z</time></trkpt><trkpt lat="43.352745581685035" lon="13.28304625868847"><ele>287.0</ele><time>2026-05-02T14:19:24Z</time></trkpt><trkpt lat="43.35281039633162" lon="13.283149655625488"><ele>287.0</ele><time>2026-05-02T14:19:25Z</time></trkpt><trkpt lat="43.3528831554402" lon="13.283235156909614"><ele>286.2</ele><time>2026-05-02T14:19:26Z</time></trkpt><trkpt lat="43.352950333063625" lon="13.283338937933213"><ele>285.4</ele><time>2026-05-02T14:19:27Z</time></trkpt><trkpt lat="43.35300923545306" lon="13.283457323221388"><ele>284.6</ele><time>2026-05-02T14:19:28Z</time></trkpt><trkpt lat="43.35308780128739" lon="13.283578373108996"><ele>283.8</ele><time>2026-05-02T14:19:29Z</time></trkpt><trkpt lat="43.35317028863905" lon="13.283707564117762"><ele>283.0</ele><time>2026-05-02T14:19:30Z</time></trkpt><trkpt lat="43.353256472760954" lon="13.283844243049348"><ele>282.0</ele><time>2026-05-02T14:19:31Z</time></trkpt><trkpt lat="43.35334590671699" lon="13.2839895882954"><ele>281.0</ele><time>2026-05-02T14:19:32Z</time></trkpt><trkpt lat="43.35343358923505" lon="13.284139376793886"><ele>280.0</ele><time>2026-05-02T14:19:33Z</time></trkpt><trkpt lat="43.35352457118783" lon="13.284280004483831"><ele>279.0</ele><time>2026-05-02T14:19:34Z</time></trkpt><trkpt lat="43.35361058791999" lon="13.28441792747854"><ele>279.0</ele><time>2026-05-02T14:19:35Z</time></trkpt><trkpt lat="43.35367963858919" lon="13.284556773494861"><ele>279.0</ele><time>2026-05-02T14:19:36Z</time></trkpt><trkpt lat="43.353754780764035" lon="13.284697664819848"><ele>279.0</ele><time>2026-05-02T14:19:37Z</time></trkpt><trkpt lat="43.35384307891949" lon="13.284847244805356"><ele>279.0</ele><time>2026-05-02T14:19:38Z</time></trkpt><trkpt lat="43.35390842948344" lon="13.284994172301428"><ele>279.0</ele><time>2026-05-02T14:19:39Z</time></trkpt><trkpt lat="43.353978080923035" lon="13.285142163997103"><ele>279.0</ele><time>2026-05-02T14:19:40Z</time></trkpt><trkpt lat="43.35404495710413" lon="13.285315472975434"><ele>279.0</ele><time>2026-05-02T14:19:41Z</time></trkpt><trkpt lat="43.35413838421462" lon="13.285464656620709"><ele>279.0</ele><time>2026-05-02T14:19:42Z</time></trkpt><trkpt lat="43.354211047151495" lon="13.285624507410636"><ele>278.0</ele><time>2026-05-02T14:19:43Z</time></trkpt><trkpt lat="43.35428602240948" lon="13.285777719482937"><ele>277.0</ele><time>2026-05-02T14:19:44Z</time></trkpt><trkpt lat="43.354356017298095" lon="13.285919100420132"><ele>276.0</ele><time>2026-05-02T14:19:45Z</time></trkpt><trkpt lat="43.354420200729855" lon="13.286051555159077"><ele>275.0</ele><time>2026-05-02T14:19:46Z</time></trkpt><trkpt lat="43.35447940447872" lon="13.286188098128207"><ele>275.0</ele><time>2026-05-02T14:19:47Z</time></trkpt><trkpt lat="43.35452405358112" lon="13.286292689646855"><ele>275.0</ele><time>2026-05-02T14:19:48Z</time></trkpt><trkpt lat="43.35457311303093" lon="13.286395688682987"><ele>275.0</ele><time>2026-05-02T14:19:49Z</time></trkpt><trkpt lat="43.35461463694299" lon="13.286517166341934"><ele>275.0</ele><time>2026-05-02T14:19:50Z</time></trkpt><trkpt lat="43.354661892114024" lon="13.286645175199274"><ele>275.0</ele><time>2026-05-02T14:19:51Z</time></trkpt><trkpt lat="43.3547059916863" lon="13.286787942807633"><ele>275.25</ele><time>2026-05-02T14:19:52Z</time></trkpt><trkpt lat="43.3547660044696" lon="13.286936583620347"><ele>275.5</ele><time>2026-05-02T14:19:53Z</time></trkpt><trkpt lat="43.35479868379848" lon="13.287096742007707"><ele>275.75</ele><time>2026-05-02T14:19:54Z</time></trkpt><trkpt lat="43.35484646179595" lon="13.28725480690981"><ele>276.0</ele><time>2026-05-02T14:19:55Z</time></trkpt><trkpt lat="43.3548912333046" lon="13.287415981458784"><ele>275.0</ele><time>2026-05-02T14:19:56Z</time></trkpt><trkpt lat="43.35493858017944" lon="13.287592943619503"><ele>274.0</ele><time>2026-05-02T14:19:57Z</time></trkpt><trkpt lat="43.35498546573871" lon="13.28776330453773"><ele>273.0</ele><time>2026-05-02T14:19:58Z</time></trkpt><trkpt lat="43.35503504627496" lon="13.287929362966892"><ele>272.0</ele><time>2026-05-02T14:19:59Z</time></trkpt><trkpt lat="43.35508446616125" lon="13.288091420827536"><ele>270.75</ele><time>2026-05-02T14:20:00Z</time></trkpt><trkpt lat="43.35513616729607" lon="13.288265097513522"><ele>269.5</ele><time>2026-05-02T14:20:01Z</time></trkpt><trkpt lat="43.35518898111041" lon="13.288433445579335"><ele>268.25</ele><time>2026-05-02T14:20:02Z</time></trkpt><trkpt lat="43.355239529489744" lon="13.288610611342682"><ele>267.0</ele><time>2026-05-02T14:20:03Z</time></trkpt><trkpt lat="43.35528672196463" lon="13.288795228476749"><ele>266.25</ele><time>2026-05-02T14:20:04Z</time></trkpt><trkpt lat="43.355316639472" lon="13.288970357544532"><ele>265.5</ele><time>2026-05-02T14:20:05Z</time></trkpt><trkpt lat="43.35535638968032" lon="13.289137602031118"><ele>264.75</ele><time>2026-05-02T14:20:06Z</time></trkpt><trkpt lat="43.35539199940231" lon="13.289292030925665"><ele>264.0</ele><time>2026-05-02T14:20:07Z</time></trkpt><trkpt lat="43.355423326459736" lon="13.289431170831785"><ele>264.0</ele><time>2026-05-02T14:20:08Z</time></trkpt><trkpt lat="43.3554564103213" lon="13.28957750208589"><ele>264.0</ele><time>2026-05-02T14:20:09Z</time></trkpt><trkpt lat="43.35548918272746" lon="13.289715594326424"><ele>264.0</ele><time>2026-05-02T14:20:10Z</time></trkpt><trkpt lat="43.35551891129004" lon="13.289834381269124"><ele>264.0</ele><time>2026-05-02T14:20:11Z</time></trkpt><trkpt lat="43.355564293" lon="13.289943315080851"><ele>264.0</ele><time>2026-05-02T14:20:12Z</time></trkpt><trkpt lat="43.35559229344308" lon="13.290038738783776"><ele>264.0</ele><time>2026-05-02T14:20:13Z</time></trkpt><trkpt lat="43.35561690237077" lon="13.290128661738585"><ele>264.0</ele><time>2026-05-02T14:20:14Z</time></trkpt><trkpt lat="43.35566089707667" lon="13.290297253253167"><ele>264.0</ele><time>2026-05-02T14:20:16Z</time></trkpt><trkpt lat="43.355709536931" lon="13.29038522742404"><ele>264.0</ele><time>2026-05-02T14:20:17Z</time></trkpt><trkpt lat="43.35574129808058" lon="13.290472126172627"><ele>264.0</ele><time>2026-05-02T14:20:18Z</time></trkpt><trkpt lat="43.3557782505517" lon="13.290548867907717"><ele>264.0</ele><time>2026-05-02T14:20:19Z</time></trkpt><trkpt lat="43.355827380618685" lon="13.290702944665549"><ele>264.0</ele><time>2026-05-02T14:20:21Z</time></trkpt><trkpt lat="43.35587398878657" lon="13.290786304112139"><ele>264.0</ele><time>2026-05-02T14:20:22Z</time></trkpt><trkpt lat="43.35591921078274" lon="13.290882106804702"><ele>264.0</ele><time>2026-05-02T14:20:23Z</time></trkpt><trkpt lat="43.35596429551068" lon="13.290980596700333"><ele>264.0</ele><time>2026-05-02T14:20:24Z</time></trkpt><trkpt lat="43.35601359091638" lon="13.291082812290803"><ele>264.0</ele><time>2026-05-02T14:20:25Z</time></trkpt><trkpt lat="43.35605882734614" lon="13.29119746416182"><ele>264.0</ele><time>2026-05-02T14:20:26Z</time></trkpt><trkpt lat="43.356108214878724" lon="13.291305724256969"><ele>264.0</ele><time>2026-05-02T14:20:27Z</time></trkpt><trkpt lat="43.35615349487162" lon="13.291402549811956"><ele>264.0</ele><time>2026-05-02T14:20:28Z</time></trkpt><trkpt lat="43.35619841444291" lon="13.29149402519324"><ele>264.0</ele><time>2026-05-02T14:20:29Z</time></trkpt><trkpt lat="43.35622512603437" lon="13.291586826539051"><ele>264.0</ele><time>2026-05-02T14:20:30Z</time></trkpt><trkpt lat="43.35625871454146" lon="13.29168734716125"><ele>264.0</ele><time>2026-05-02T14:20:31Z</time></trkpt><trkpt lat="43.356287298805256" lon="13.291794455356621"><ele>264.0</ele><time>2026-05-02T14:20:32Z</time></trkpt><trkpt lat="43.35632723091041" lon="13.291920075506646"><ele>263.8333333333333</ele><time>2026-05-02T14:20:33Z</time></trkpt><trkpt lat="43.35632653024876" lon="13.292027267610848"><ele>263.6666666666667</ele><time>2026-05-02T14:20:34Z</time></trkpt><trkpt lat="43.35634096122048" lon="13.292153945714164"><ele>263.5</ele><time>2026-05-02T14:20:35Z</time></trkpt><trkpt lat="43.35636810459593" lon="13.292277818196817"><ele>263.33333333333337</ele><time>2026-05-02T14:20:36Z</time></trkpt><trkpt lat="43.35638127120603" lon="13.292401614501792"><ele>263.1666666666667</ele><time>2026-05-02T14:20:37Z</time></trkpt><trkpt lat="43.356375539426416" lon="13.292516707758304"><ele>263.0</ele><time>2026-05-02T14:20:38Z</time></trkpt><trkpt lat="43.35640534486014" lon="13.292660530669488"><ele>262.4</ele><time>2026-05-02T14:20:39Z</time></trkpt><trkpt lat="43.356418493204224" lon="13.292795514702505"><ele>261.8</ele><time>2026-05-02T14:20:40Z</time></trkpt><trkpt lat="43.35643354484526" lon="13.292937195784926"><ele>261.2</ele><time>2026-05-02T14:20:41Z</time></trkpt><trkpt lat="43.35645347103355" lon="13.293078919356583"><ele>260.6</ele><time>2026-05-02T14:20:42Z</time></trkpt><trkpt lat="43.35646975968634" lon="13.293213274960596"><ele>260.0</ele><time>2026-05-02T14:20:43Z</time></trkpt><trkpt lat="43.35648663630101" lon="13.293340011364526"><ele>259.8</ele><time>2026-05-02T14:20:44Z</time></trkpt><trkpt lat="43.35650433623368" lon="13.293467324602338"><ele>259.6</ele><time>2026-05-02T14:20:45Z</time></trkpt><trkpt lat="43.356524269169164" lon="13.293596845980385"><ele>259.4</ele><time>2026-05-02T14:20:46Z</time></trkpt><trkpt lat="43.35653993463968" lon="13.293744456490728"><ele>259.2</ele><time>2026-05-02T14:20:47Z</time></trkpt><trkpt lat="43.35655967515867" lon="13.293890740167914"><ele>259.0</ele><time>2026-05-02T14:20:48Z</time></trkpt><trkpt lat="43.356575802619474" lon="13.294039886181727"><ele>258.59999999999997</ele><time>2026-05-02T14:20:49Z</time></trkpt><trkpt lat="43.35659045531648" lon="13.294175760390557"><ele>258.2</ele><time>2026-05-02T14:20:50Z</time></trkpt><trkpt lat="43.356602335938646" lon="13.294299885656937"><ele>257.79999999999995</ele><time>2026-05-02T14:20:51Z</time></trkpt><trkpt lat="43.35661058809679" lon="13.29445268505592"><ele>257.4</ele><time>2026-05-02T14:20:52Z</time></trkpt><trkpt lat="43.35663230195743" lon="13.294558794353387"><ele>257.0</ele><time>2026-05-02T14:20:53Z</time></trkpt><trkpt lat="43.356652068399306" lon="13.294672306872881"><ele>257.0</ele><time>2026-05-02T14:20:54Z</time></trkpt><trkpt lat="43.35667021910462" lon="13.294794217727366"><ele>257.0</ele><time>2026-05-02T14:20:55Z</time></trkpt><trkpt lat="43.356693069563406" lon="13.294929772655586"><ele>257.0</ele><time>2026-05-02T14:20:56Z</time></trkpt><trkpt lat="43.35671968497325" lon="13.295055936479539"><ele>257.0</ele><time>2026-05-02T14:20:57Z</time></trkpt><trkpt lat="43.356751166947646" lon="13.295199079351653"><ele>257.0</ele><time>2026-05-02T14:20:58Z</time></trkpt><trkpt lat="43.35679065058095" lon="13.295349168816951"><ele>257.0</ele><time>2026-05-02T14:20:59Z</time></trkpt><trkpt lat="43.356837331344565" lon="13.295497569848203"><ele>257.0</ele><time>2026-05-02T14:21:00Z</time></trkpt><trkpt lat="43.35687065647921" lon="13.295661664822914"><ele>257.0</ele><time>2026-05-02T14:21:01Z</time></trkpt><trkpt lat="43.35691838248814" lon="13.295812108096298"><ele>257.0</ele><time>2026-05-02T14:21:02Z</time></trkpt><trkpt lat="43.35696430121873" lon="13.295956854459707"><ele>256.6666666666667</ele><time>2026-05-02T14:21:03Z</time></trkpt><trkpt lat="43.35700700586914" lon="13.296091469344612"><ele>256.33333333333337</ele><time>2026-05-02T14:21:04Z</time></trkpt><trkpt lat="43.35706000966841" lon="13.296209401447257"><ele>256.0</ele><time>2026-05-02T14:21:05Z</time></trkpt><trkpt lat="43.35707369584517" lon="13.296314310506357"><ele>255.66666666666669</ele><time>2026-05-02T14:21:06Z</time></trkpt><trkpt lat="43.3571037978502" lon="13.296417218246335"><ele>255.33333333333334</ele><time>2026-05-02T14:21:07Z</time></trkpt><trkpt lat="43.357147173617356" lon="13.2965042097471"><ele>255.0</ele><time>2026-05-02T14:21:08Z</time></trkpt><trkpt lat="43.357173426177624" lon="13.296590856570933"><ele>254.6</ele><time>2026-05-02T14:21:09Z</time></trkpt><trkpt lat="43.35722902789531" lon="13.296722555516743"><ele>254.2</ele><time>2026-05-02T14:21:11Z</time></trkpt><trkpt lat="43.35729000004647" lon="13.296750898365293"><ele>253.8</ele><time>2026-05-02T14:21:12Z</time></trkpt><trkpt lat="43.357360908364505" lon="13.296676912360178"><ele>253.4</ele><time>2026-05-02T14:21:13Z</time></trkpt><trkpt lat="43.35749003507882" lon="13.296607624564958"><ele>253.0</ele><time>2026-05-02T14:21:15Z</time></trkpt><trkpt lat="43.357569987945496" lon="13.296551117269196"><ele>253.0</ele><time>2026-05-02T14:21:16Z</time></trkpt><trkpt lat="43.35764964123819" lon="13.296473744979508"><ele>253.0</ele><time>2026-05-02T14:21:17Z</time></trkpt><trkpt lat="43.35774549051185" lon="13.296426585796794"><ele>253.0</ele><time>2026-05-02T14:21:18Z</time></trkpt><trkpt lat="43.35784406571865" lon="13.296354731305804"><ele>253.0</ele><time>2026-05-02T14:21:19Z</time></trkpt><trkpt lat="43.35794129806767" lon="13.296283855748191"><ele>253.0</ele><time>2026-05-02T14:21:20Z</time></trkpt><trkpt lat="43.35803892011244" lon="13.296213724151652"><ele>253.4</ele><time>2026-05-02T14:21:21Z</time></trkpt><trkpt lat="43.35814273522108" lon="13.296142306670088"><ele>253.8</ele><time>2026-05-02T14:21:22Z</time></trkpt><trkpt lat="43.35824268116965" lon="13.296047772022582"><ele>254.2</ele><time>2026-05-02T14:21:23Z</time></trkpt><trkpt lat="43.35833476026634" lon="13.29598459010318"><ele>254.6</ele><time>2026-05-02T14:21:24Z</time></trkpt><trkpt lat="43.358409684467425" lon="13.295931970871724"><ele>255.0</ele><time>2026-05-02T14:21:25Z</time></trkpt><trkpt lat="43.358490731477666" lon="13.295906404702627"><ele>255.0</ele><time>2026-05-02T14:21:26Z</time></trkpt><trkpt lat="43.358554847015135" lon="13.295896773423296"><ele>255.0</ele><time>2026-05-02T14:21:27Z</time></trkpt><trkpt lat="43.358634255351774" lon="13.295935625048937"><ele>255.0</ele><time>2026-05-02T14:21:29Z</time></trkpt><trkpt lat="43.358747277768636" lon="13.29607113366602"><ele>255.0</ele><time>2026-05-02T14:21:31Z</time></trkpt><trkpt lat="43.35880991484542" lon="13.296175807664744"><ele>255.0</ele><time>2026-05-02T14:21:32Z</time></trkpt><trkpt lat="43.358880279537175" lon="13.296289202919402"><ele>255.0</ele><time>2026-05-02T14:21:33Z</time></trkpt><trkpt lat="43.358947085785765" lon="13.296412190612159"><ele>255.0</ele><time>2026-05-02T14:21:34Z</time></trkpt><trkpt lat="43.35900602894677" lon="13.296528172601356"><ele>255.0</ele><time>2026-05-02T14:21:35Z</time></trkpt><trkpt lat="43.35905619859701" lon="13.296632298844804"><ele>255.0</ele><time>2026-05-02T14:21:36Z</time></trkpt><trkpt lat="43.35910169216383" lon="13.296729873749335"><ele>255.0</ele><time>2026-05-02T14:21:37Z</time></trkpt><trkpt lat="43.359141806697245" lon="13.296831941144145"><ele>255.0</ele><time>2026-05-02T14:21:39Z</time></trkpt><trkpt lat="43.3591749705143" lon="13.296933107247495"><ele>255.0</ele><time>2026-05-02T14:21:43Z</time></trkpt><trkpt lat="43.35920720541156" lon="13.29703717462205"><ele>255.0</ele><time>2026-05-02T14:21:45Z</time></trkpt><trkpt lat="43.359246064598516" lon="13.297203670307887"><ele>255.0</ele><time>2026-05-02T14:21:47Z</time></trkpt><trkpt lat="43.35927235172526" lon="13.297289274661512"><ele>255.0</ele><time>2026-05-02T14:21:48Z</time></trkpt><trkpt lat="43.359312168504864" lon="13.297361575829521"><ele>255.0</ele><time>2026-05-02T14:21:49Z</time></trkpt><trkpt lat="43.35935740288175" lon="13.297474809957942"><ele>254.6</ele><time>2026-05-02T14:21:51Z</time></trkpt><trkpt lat="43.35939592161134" lon="13.297603210238588"><ele>254.2</ele><time>2026-05-02T14:21:53Z</time></trkpt><trkpt lat="43.359439023835314" lon="13.297670833677804"><ele>253.8</ele><time>2026-05-02T14:21:54Z</time></trkpt><trkpt lat="43.35949084903645" lon="13.29774355098397"><ele>253.4</ele><time>2026-05-02T14:21:55Z</time></trkpt><trkpt lat="43.359571065648026" lon="13.297852230500322"><ele>253.0</ele><time>2026-05-02T14:21:57Z</time></trkpt><trkpt lat="43.3596381870755" lon="13.297949455736502"><ele>253.0</ele><time>2026-05-02T14:21:59Z</time></trkpt><trkpt lat="43.35967838190964" lon="13.298032466573408"><ele>253.0</ele><time>2026-05-02T14:22:01Z</time></trkpt><trkpt lat="43.359644018993194" lon="13.297958220602581"><ele>253.0</ele><time>2026-05-02T14:22:18Z</time></trkpt><trkpt lat="43.35955914908649" lon="13.297838865831611"><ele>253.0</ele><time>2026-05-02T14:22:20Z</time></trkpt><trkpt lat="43.3594905234123" lon="13.297710149333396"><ele>253.0</ele><time>2026-05-02T14:22:22Z</time></trkpt><trkpt lat="43.359413589449964" lon="13.297611752489937"><ele>253.0</ele><time>2026-05-02T14:22:24Z</time></trkpt><trkpt lat="43.35937156040937" lon="13.297491092492727"><ele>253.0</ele><time>2026-05-02T14:22:26Z</time></trkpt><trkpt lat="43.35931758714104" lon="13.297391349907324"><ele>253.0</ele><time>2026-05-02T14:22:28Z</time></trkpt><trkpt lat="43.35929440138965" lon="13.297238924216773"><ele>253.0</ele><time>2026-05-02T14:22:30Z</time></trkpt><trkpt lat="43.35927248355352" lon="13.297144026143396"><ele>253.0</ele><time>2026-05-02T14:22:31Z</time></trkpt><trkpt lat="43.359230924460675" lon="13.297002638731787"><ele>253.4</ele><time>2026-05-02T14:22:33Z</time></trkpt><trkpt lat="43.35922526192665" lon="13.296887915294244"><ele>253.8</ele><time>2026-05-02T14:22:35Z</time></trkpt><trkpt lat="43.35929316696315" lon="13.296841941003766"><ele>254.2</ele><time>2026-05-02T14:22:37Z</time></trkpt><trkpt lat="43.359410311979886" lon="13.296805096076874"><ele>254.6</ele><time>2026-05-02T14:22:39Z</time></trkpt><trkpt lat="43.359516201405874" lon="13.296736837908151"><ele>255.0</ele><time>2026-05-02T14:22:40Z</time></trkpt><trkpt lat="43.359656540716635" lon="13.296635365148552"><ele>255.2</ele><time>2026-05-02T14:22:41Z</time></trkpt><trkpt lat="43.35980154334887" lon="13.296556544633598"><ele>255.4</ele><time>2026-05-02T14:22:42Z</time></trkpt><trkpt lat="43.359899054251976" lon="13.296499261373336"><ele>255.60000000000002</ele><time>2026-05-02T14:22:43Z</time></trkpt><trkpt lat="43.359980160373674" lon="13.296492275336462"><ele>255.8</ele><time>2026-05-02T14:22:44Z</time></trkpt><trkpt lat="43.36007008670212" lon="13.296452525287478"><ele>256.0</ele><time>2026-05-02T14:22:46Z</time></trkpt><trkpt lat="43.3601429389734" lon="13.296435642534188"><ele>255.99999999999997</ele><time>2026-05-02T14:22:47Z</time></trkpt><trkpt lat="43.36025737889812" lon="13.296428657455303"><ele>256.0</ele><time>2026-05-02T14:22:48Z</time></trkpt><trkpt lat="43.36032224438667" lon="13.296421675598404"><ele>256.0</ele><time>2026-05-02T14:22:49Z</time></trkpt><trkpt lat="43.36038529741973" lon="13.296416589510809"><ele>256.0</ele><time>2026-05-02T14:22:51Z</time></trkpt><trkpt lat="43.360486868925314" lon="13.296352403336995"><ele>255.99999999999997</ele><time>2026-05-02T14:22:53Z</time></trkpt><trkpt lat="43.36054554447142" lon="13.29626510472378"><ele>256.0</ele><time>2026-05-02T14:22:55Z</time></trkpt><trkpt lat="43.36066008057081" lon="13.296298745027215"><ele>255.66666666666666</ele><time>2026-05-02T14:22:58Z</time></trkpt><trkpt lat="43.36072884385912" lon="13.296310907096489"><ele>255.33333333333331</ele><time>2026-05-02T14:22:59Z</time></trkpt><trkpt lat="43.36084014816756" lon="13.296255770798396"><ele>255.0</ele><time>2026-05-02T14:23:01Z</time></trkpt><trkpt lat="43.36093369940047" lon="13.296246782819134"><ele>254.66666666666669</ele><time>2026-05-02T14:23:03Z</time></trkpt><trkpt lat="43.3610029865589" lon="13.296242134641586"><ele>254.33333333333334</ele><time>2026-05-02T14:23:05Z</time></trkpt><trkpt lat="43.3610663407129" lon="13.296217249581636"><ele>254.0</ele><time>2026-05-02T14:23:07Z</time></trkpt><trkpt lat="43.36111438860016" lon="13.29639950275174"><ele>254.0</ele><time>2026-05-02T14:23:10Z</time></trkpt><trkpt lat="43.36114440220861" lon="13.29650358009813"><ele>253.99999999999997</ele><time>2026-05-02T14:23:11Z</time></trkpt><trkpt lat="43.36118623638081" lon="13.296627127773892"><ele>253.99999999999997</ele><time>2026-05-02T14:23:12Z</time></trkpt><trkpt lat="43.361233684254096" lon="13.296755483252912"><ele>254.0</ele><time>2026-05-02T14:23:13Z</time></trkpt><trkpt lat="43.361290371277754" lon="13.296906031710774"><ele>254.0</ele><time>2026-05-02T14:23:14Z</time></trkpt><trkpt lat="43.36135955379014" lon="13.29708765999433"><ele>253.0</ele><time>2026-05-02T14:23:15Z</time></trkpt><trkpt lat="43.36141808497184" lon="13.297215237613296"><ele>252.0</ele><time>2026-05-02T14:23:16Z</time></trkpt><trkpt lat="43.3615015974982" lon="13.297442852499245"><ele>251.0</ele><time>2026-05-02T14:23:17Z</time></trkpt><trkpt lat="43.361592649201256" lon="13.29768796380128"><ele>251.0</ele><time>2026-05-02T14:23:18Z</time></trkpt><trkpt lat="43.36170502147337" lon="13.297952547466211"><ele>251.0</ele><time>2026-05-02T14:23:19Z</time></trkpt><trkpt lat="43.36182285254441" lon="13.298229977101057"><ele>251.25</ele><time>2026-05-02T14:23:20Z</time></trkpt><trkpt lat="43.36191363639284" lon="13.298447470541282"><ele>251.5</ele><time>2026-05-02T14:23:21Z</time></trkpt><trkpt lat="43.36198433660581" lon="13.298607687115682"><ele>251.75</ele><time>2026-05-02T14:23:22Z</time></trkpt><trkpt lat="43.36203046275058" lon="13.29871946726337"><ele>252.0</ele><time>2026-05-02T14:23:23Z</time></trkpt><trkpt lat="43.36207542962792" lon="13.298835276872053"><ele>251.25</ele><time>2026-05-02T14:23:24Z</time></trkpt><trkpt lat="43.36213609494221" lon="13.29899565303153"><ele>250.5</ele><time>2026-05-02T14:23:25Z</time></trkpt><trkpt lat="43.36220060624486" lon="13.29917025927942"><ele>249.75</ele><time>2026-05-02T14:23:26Z</time></trkpt><trkpt lat="43.362279712137145" lon="13.299373898146312"><ele>249.0</ele><time>2026-05-02T14:23:27Z</time></trkpt><trkpt lat="43.36236911919139" lon="13.299603334518627"><ele>247.5</ele><time>2026-05-02T14:23:28Z</time></trkpt><trkpt lat="43.362473655794815" lon="13.299864368293314"><ele>246.0</ele><time>2026-05-02T14:23:29Z</time></trkpt><trkpt lat="43.362587472608155" lon="13.300150529282128"><ele>246.0</ele><time>2026-05-02T14:23:30Z</time></trkpt><trkpt lat="43.36270786948065" lon="13.300447929664035"><ele>246.0</ele><time>2026-05-02T14:23:31Z</time></trkpt><trkpt lat="43.362828558902784" lon="13.300763889888236"><ele>245.0</ele><time>2026-05-02T14:23:32Z</time></trkpt><trkpt lat="43.36294994845259" lon="13.301076835759057"><ele>244.0</ele><time>2026-05-02T14:23:33Z</time></trkpt><trkpt lat="43.36305802808681" lon="13.301357542960536"><ele>244.0</ele><time>2026-05-02T14:23:34Z</time></trkpt><trkpt lat="43.36314384920509" lon="13.301624980612157"><ele>244.0</ele><time>2026-05-02T14:23:35Z</time></trkpt><trkpt lat="43.36325263202215" lon="13.301863899044395"><ele>244.0</ele><time>2026-05-02T14:23:36Z</time></trkpt><trkpt lat="43.363345281625264" lon="13.302105279842923"><ele>244.33333333333331</ele><time>2026-05-02T14:23:37Z</time></trkpt><trkpt lat="43.36344652094875" lon="13.302361466984113"><ele>244.66666666666669</ele><time>2026-05-02T14:23:38Z</time></trkpt><trkpt lat="43.36354010800493" lon="13.302648555721508"><ele>245.0</ele><time>2026-05-02T14:23:39Z</time></trkpt><trkpt lat="43.36367504985287" lon="13.302947011236233"><ele>245.0</ele><time>2026-05-02T14:23:40Z</time></trkpt><trkpt lat="43.36379545172209" lon="13.30326389525401"><ele>245.0</ele><time>2026-05-02T14:23:41Z</time></trkpt><trkpt lat="43.363915478789174" lon="13.303564734015351"><ele>245.0</ele><time>2026-05-02T14:23:42Z</time></trkpt><trkpt lat="43.364024010442975" lon="13.303835303968985"><ele>245.0</ele><time>2026-05-02T14:23:43Z</time></trkpt><trkpt lat="43.364114782730844" lon="13.304053616650206"><ele>245.0</ele><time>2026-05-02T14:23:44Z</time></trkpt><trkpt lat="43.364186689943224" lon="13.304227152507769"><ele>245.2</ele><time>2026-05-02T14:23:45Z</time></trkpt><trkpt lat="43.36421998366745" lon="13.304368776633089"><ele>245.4</ele><time>2026-05-02T14:23:46Z</time></trkpt><trkpt lat="43.364272637846334" lon="13.30451971613682"><ele>245.60000000000002</ele><time>2026-05-02T14:23:47Z</time></trkpt><trkpt lat="43.364309992893574" lon="13.304648624208452"><ele>245.8</ele><time>2026-05-02T14:23:48Z</time></trkpt><trkpt lat="43.364320834500184" lon="13.304761277713336"><ele>246.0</ele><time>2026-05-02T14:23:49Z</time></trkpt><trkpt lat="43.36431573349602" lon="13.304852610012562"><ele>244.25</ele><time>2026-05-02T14:23:50Z</time></trkpt><trkpt lat="43.36424582907141" lon="13.304967588520306"><ele>242.5</ele><time>2026-05-02T14:23:51Z</time></trkpt><trkpt lat="43.36416000243409" lon="13.305128361733619"><ele>240.75</ele><time>2026-05-02T14:23:52Z</time></trkpt><trkpt lat="43.36404365910039" lon="13.305290042817347"><ele>239.0</ele><time>2026-05-02T14:23:53Z</time></trkpt><trkpt lat="43.36396567753299" lon="13.305433911251733"><ele>239.0</ele><time>2026-05-02T14:23:54Z</time></trkpt><trkpt lat="43.36388516897605" lon="13.305533211015659"><ele>238.99999999999997</ele><time>2026-05-02T14:23:55Z</time></trkpt><trkpt lat="43.36381695558019" lon="13.305638602777757"><ele>238.99999999999997</ele><time>2026-05-02T14:23:56Z</time></trkpt><trkpt lat="43.36376362582163" lon="13.305744251952577"><ele>239.0</ele><time>2026-05-02T14:23:57Z</time></trkpt><trkpt lat="43.36372748861115" lon="13.305835381156921"><ele>239.0</ele><time>2026-05-02T14:23:58Z</time></trkpt><trkpt lat="43.36366580627216" lon="13.30593419078758"><ele>238.2</ele><time>2026-05-02T14:24:00Z</time></trkpt><trkpt lat="43.363562252982355" lon="13.305925409335059"><ele>237.39999999999998</ele><time>2026-05-02T14:24:02Z</time></trkpt><trkpt lat="43.363486231949096" lon="13.305881132056575"><ele>236.6</ele><time>2026-05-02T14:24:03Z</time></trkpt><trkpt lat="43.36340201025177" lon="13.305816022395243"><ele>235.8</ele><time>2026-05-02T14:24:04Z</time></trkpt><trkpt lat="43.36332102386752" lon="13.305713548712154"><ele>235.0</ele><time>2026-05-02T14:24:05Z</time></trkpt><trkpt lat="43.36323619487198" lon="13.305594605638655"><ele>235.75</ele><time>2026-05-02T14:24:06Z</time></trkpt><trkpt lat="43.36314712898454" lon="13.305471801344739"><ele>236.5</ele><time>2026-05-02T14:24:07Z</time></trkpt><trkpt lat="43.363058959141405" lon="13.305352872779048"><ele>237.25</ele><time>2026-05-02T14:24:08Z</time></trkpt><trkpt lat="43.36296448369904" lon="13.305255590696435"><ele>238.0</ele><time>2026-05-02T14:24:09Z</time></trkpt><trkpt lat="43.36289538056664" lon="13.305149248374628"><ele>238.0</ele><time>2026-05-02T14:24:10Z</time></trkpt><trkpt lat="43.36279098449354" lon="13.305007262991571"><ele>238.0</ele><time>2026-05-02T14:24:11Z</time></trkpt><trkpt lat="43.36271984874135" lon="13.304870409901085"><ele>238.0</ele><time>2026-05-02T14:24:12Z</time></trkpt><trkpt lat="43.362649970942684" lon="13.304733289687576"><ele>238.0</ele><time>2026-05-02T14:24:13Z</time></trkpt><trkpt lat="43.36258358557517" lon="13.304589245023914"><ele>238.4</ele><time>2026-05-02T14:24:14Z</time></trkpt><trkpt lat="43.362517091520026" lon="13.304477352131201"><ele>238.8</ele><time>2026-05-02T14:24:15Z</time></trkpt><trkpt lat="43.3624478004536" lon="13.304344185078284"><ele>239.2</ele><time>2026-05-02T14:24:16Z</time></trkpt><trkpt lat="43.36238948186157" lon="13.3042427185706"><ele>239.6</ele><time>2026-05-02T14:24:17Z</time></trkpt><trkpt lat="43.36233638756502" lon="13.304134340434926"><ele>240.0</ele><time>2026-05-02T14:24:18Z</time></trkpt><trkpt lat="43.36229186955696" lon="13.304060047306205"><ele>240.0</ele><time>2026-05-02T14:24:19Z</time></trkpt><trkpt lat="43.362246505982995" lon="13.30398110479125"><ele>240.0</ele><time>2026-05-02T14:24:20Z</time></trkpt><trkpt lat="43.362164924031156" lon="13.303894918859339"><ele>240.0</ele><time>2026-05-02T14:24:22Z</time></trkpt><trkpt lat="43.36206676520523" lon="13.303857769839446"><ele>240.0</ele><time>2026-05-02T14:24:24Z</time></trkpt><trkpt lat="43.36200224198203" lon="13.303928509710007"><ele>240.0</ele><time>2026-05-02T14:24:25Z</time></trkpt><trkpt lat="43.36193631235704" lon="13.30397483842671"><ele>240.0</ele><time>2026-05-02T14:24:26Z</time></trkpt><trkpt lat="43.3618518808591" lon="13.30402929192755"><ele>240.0</ele><time>2026-05-02T14:24:27Z</time></trkpt><trkpt lat="43.36177350764244" lon="13.304104690299631"><ele>240.0</ele><time>2026-05-02T14:24:28Z</time></trkpt><trkpt lat="43.36170922848469" lon="13.304174450338085"><ele>240.0</ele><time>2026-05-02T14:24:29Z</time></trkpt><trkpt lat="43.361642066783915" lon="13.304270796992391"><ele>240.0</ele><time>2026-05-02T14:24:30Z</time></trkpt><trkpt lat="43.361562403119045" lon="13.304349260803038"><ele>240.0</ele><time>2026-05-02T14:24:31Z</time></trkpt><trkpt lat="43.36149089288403" lon="13.3044332043758"><ele>240.0</ele><time>2026-05-02T14:24:32Z</time></trkpt><trkpt lat="43.361415700165644" lon="13.304516604229761"><ele>240.0</ele><time>2026-05-02T14:24:33Z</time></trkpt><trkpt lat="43.361349985851206" lon="13.30457759890291"><ele>240.0</ele><time>2026-05-02T14:24:34Z</time></trkpt><trkpt lat="43.36128215592642" lon="13.304634758540946"><ele>240.0</ele><time>2026-05-02T14:24:35Z</time></trkpt><trkpt lat="43.361169131655004" lon="13.30475922265168"><ele>240.0</ele><time>2026-05-02T14:24:37Z</time></trkpt><trkpt lat="43.361112202322815" lon="13.30481274708023"><ele>240.0</ele><time>2026-05-02T14:24:38Z</time></trkpt><trkpt lat="43.36105288417042" lon="13.304848383773711"><ele>240.0</ele><time>2026-05-02T14:24:39Z</time></trkpt><trkpt lat="43.36098835019643" lon="13.304859411734864"><ele>240.0</ele><time>2026-05-02T14:24:40Z</time></trkpt><trkpt lat="43.36092605422678" lon="13.30487774507572"><ele>240.0</ele><time>2026-05-02T14:24:41Z</time></trkpt><trkpt lat="43.36085093939371" lon="13.3048504966987"><ele>240.0</ele><time>2026-05-02T14:24:42Z</time></trkpt><trkpt lat="43.36078315804703" lon="13.304807584070288"><ele>240.0</ele><time>2026-05-02T14:24:43Z</time></trkpt><trkpt lat="43.36071240299023" lon="13.304758743027323"><ele>240.0</ele><time>2026-05-02T14:24:44Z</time></trkpt><trkpt lat="43.36064456685325" lon="13.304706597878939"><ele>240.0</ele><time>2026-05-02T14:24:45Z</time></trkpt><trkpt lat="43.36058340845705" lon="13.304663403225703"><ele>240.0</ele><time>2026-05-02T14:24:46Z</time></trkpt><trkpt lat="43.36046466031503" lon="13.304628097634843"><ele>240.0</ele><time>2026-05-02T14:24:48Z</time></trkpt><trkpt lat="43.360354292264915" lon="13.304700990842596"><ele>240.0</ele><time>2026-05-02T14:24:50Z</time></trkpt><trkpt lat="43.36029627325603" lon="13.304761881954573"><ele>240.0</ele><time>2026-05-02T14:24:51Z</time></trkpt><trkpt lat="43.36020711917961" lon="13.30481862294978"><ele>239.2</ele><time>2026-05-02T14:24:52Z</time></trkpt><trkpt lat="43.360107625609544" lon="13.30487734360257"><ele>238.4</ele><time>2026-05-02T14:24:53Z</time></trkpt><trkpt lat="43.360006919776126" lon="13.304932643230359"><ele>237.60000000000002</ele><time>2026-05-02T14:24:54Z</time></trkpt><trkpt lat="43.359903258008" lon="13.30500674570392"><ele>236.8</ele><time>2026-05-02T14:24:55Z</time></trkpt><trkpt lat="43.359816916630045" lon="13.305056184675024"><ele>236.0</ele><time>2026-05-02T14:24:56Z</time></trkpt><trkpt lat="43.35971916901983" lon="13.30506608966025"><ele>237.0</ele><time>2026-05-02T14:24:57Z</time></trkpt><trkpt lat="43.35961300280539" lon="13.305061775507351"><ele>238.00000000000003</ele><time>2026-05-02T14:24:58Z</time></trkpt><trkpt lat="43.35950980151286" lon="13.30506279008244"><ele>239.00000000000003</ele><time>2026-05-02T14:24:59Z</time></trkpt><trkpt lat="43.35941444301001" lon="13.305076836420973"><ele>240.0</ele><time>2026-05-02T14:25:00Z</time></trkpt><trkpt lat="43.35933080295742" lon="13.305098516542314"><ele>241.0</ele><time>2026-05-02T14:25:01Z</time></trkpt><trkpt lat="43.359226197093676" lon="13.30512307574893"><ele>241.0</ele><time>2026-05-02T14:25:02Z</time></trkpt><trkpt lat="43.35910188104955" lon="13.30516388723672"><ele>241.00000000000003</ele><time>2026-05-02T14:25:03Z</time></trkpt><trkpt lat="43.35901030681478" lon="13.305194727317037"><ele>241.00000000000003</ele><time>2026-05-02T14:25:04Z</time></trkpt><trkpt lat="43.35894311349821" lon="13.305204762187982"><ele>241.0</ele><time>2026-05-02T14:25:05Z</time></trkpt><trkpt lat="43.358878836855006" lon="13.305206651680303"><ele>241.0</ele><time>2026-05-02T14:25:06Z</time></trkpt><trkpt lat="43.35877443172401" lon="13.305206300570367"><ele>241.33333333333331</ele><time>2026-05-02T14:25:08Z</time></trkpt><trkpt lat="43.35870021441186" lon="13.305135474595133"><ele>241.66666666666666</ele><time>2026-05-02T14:25:10Z</time></trkpt><trkpt lat="43.35863164507413" lon="13.30510077296913"><ele>242.0</ele><time>2026-05-02T14:25:11Z</time></trkpt><trkpt lat="43.35856284202858" lon="13.305052304529209"><ele>242.33333333333331</ele><time>2026-05-02T14:25:12Z</time></trkpt><trkpt lat="43.358505435643025" lon="13.305009366395417"><ele>242.66666666666666</ele><time>2026-05-02T14:25:13Z</time></trkpt><trkpt lat="43.358439296378236" lon="13.304969302334037"><ele>243.0</ele><time>2026-05-02T14:25:14Z</time></trkpt><trkpt lat="43.35836379203044" lon="13.304930760165092"><ele>243.0</ele><time>2026-05-02T14:25:15Z</time></trkpt><trkpt lat="43.35828461494744" lon="13.30487465869597"><ele>243.0</ele><time>2026-05-02T14:25:16Z</time></trkpt><trkpt lat="43.35820039408203" lon="13.304809338378496"><ele>243.0</ele><time>2026-05-02T14:25:17Z</time></trkpt><trkpt lat="43.35811006523372" lon="13.304774737205651"><ele>243.0</ele><time>2026-05-02T14:25:18Z</time></trkpt><trkpt lat="43.35802798099821" lon="13.304726862211828"><ele>243.0</ele><time>2026-05-02T14:25:19Z</time></trkpt><trkpt lat="43.357942121996" lon="13.304673695513642"><ele>243.33333333333334</ele><time>2026-05-02T14:25:20Z</time></trkpt><trkpt lat="43.35786285633088" lon="13.304626659153731"><ele>243.66666666666669</ele><time>2026-05-02T14:25:21Z</time></trkpt><trkpt lat="43.357778283429504" lon="13.304597370468194"><ele>244.0</ele><time>2026-05-02T14:25:22Z</time></trkpt><trkpt lat="43.35770659127076" lon="13.304565149019599"><ele>244.33333333333334</ele><time>2026-05-02T14:25:23Z</time></trkpt><trkpt lat="43.35763934655103" lon="13.304533403129128"><ele>244.66666666666669</ele><time>2026-05-02T14:25:24Z</time></trkpt><trkpt lat="43.35757668009824" lon="13.304491614258211"><ele>245.0</ele><time>2026-05-02T14:25:25Z</time></trkpt><trkpt lat="43.35750945434655" lon="13.30446171007758"><ele>245.0</ele><time>2026-05-02T14:25:26Z</time></trkpt><trkpt lat="43.35745148199675" lon="13.304414274140669"><ele>245.0</ele><time>2026-05-02T14:25:27Z</time></trkpt><trkpt lat="43.35737865214461" lon="13.304432672815675"><ele>245.0</ele><time>2026-05-02T14:25:28Z</time></trkpt><trkpt lat="43.35725136417396" lon="13.304423804828168"><ele>245.0</ele><time>2026-05-02T14:25:30Z</time></trkpt><trkpt lat="43.357134785407624" lon="13.304438901032361"><ele>245.0</ele><time>2026-05-02T14:25:32Z</time></trkpt><trkpt lat="43.357017789569504" lon="13.304472511335131"><ele>245.83333333333334</ele><time>2026-05-02T14:25:34Z</time></trkpt><trkpt lat="43.35694818787541" lon="13.304484868932926"><ele>246.66666666666669</ele><time>2026-05-02T14:25:35Z</time></trkpt><trkpt lat="43.35682976613227" lon="13.304514330687605"><ele>247.5</ele><time>2026-05-02T14:25:37Z</time></trkpt><trkpt lat="43.35675852892511" lon="13.304525495005015"><ele>248.33333333333331</ele><time>2026-05-02T14:25:38Z</time></trkpt><trkpt lat="43.35667240185832" lon="13.304542822243253"><ele>249.16666666666666</ele><time>2026-05-02T14:25:39Z</time></trkpt><trkpt lat="43.356591154582226" lon="13.304562498873173"><ele>250.0</ele><time>2026-05-02T14:25:40Z</time></trkpt><trkpt lat="43.35650683239883" lon="13.304571006284327"><ele>250.0</ele><time>2026-05-02T14:25:41Z</time></trkpt><trkpt lat="43.356410857298016" lon="13.304592970288583"><ele>250.0</ele><time>2026-05-02T14:25:42Z</time></trkpt><trkpt lat="43.35630773685316" lon="13.304621405129083"><ele>250.0</ele><time>2026-05-02T14:25:43Z</time></trkpt><trkpt lat="43.356202713061" lon="13.304652477434168"><ele>250.0</ele><time>2026-05-02T14:25:44Z</time></trkpt><trkpt lat="43.35609830084928" lon="13.304704073899329"><ele>250.0</ele><time>2026-05-02T14:25:45Z</time></trkpt><trkpt lat="43.355976621084615" lon="13.304731698788068"><ele>250.0</ele><time>2026-05-02T14:25:46Z</time></trkpt><trkpt lat="43.355858994433284" lon="13.304761481311607"><ele>250.0</ele><time>2026-05-02T14:25:47Z</time></trkpt><trkpt lat="43.35574550078433" lon="13.304789819329123"><ele>250.0</ele><time>2026-05-02T14:25:48Z</time></trkpt><trkpt lat="43.355624499281554" lon="13.304809169609804"><ele>250.0</ele><time>2026-05-02T14:25:49Z</time></trkpt><trkpt lat="43.35548832579169" lon="13.304802175076059"><ele>250.25</ele><time>2026-05-02T14:25:50Z</time></trkpt><trkpt lat="43.35533647243909" lon="13.304851691773928"><ele>250.5</ele><time>2026-05-02T14:25:51Z</time></trkpt><trkpt lat="43.35520777998068" lon="13.30488009172704"><ele>250.75</ele><time>2026-05-02T14:25:52Z</time></trkpt><trkpt lat="43.35508316253892" lon="13.304912450417156"><ele>251.0</ele><time>2026-05-02T14:25:53Z</time></trkpt><trkpt lat="43.35496558642551" lon="13.304942337693703"><ele>251.0</ele><time>2026-05-02T14:25:54Z</time></trkpt><trkpt lat="43.35484000876687" lon="13.304972759080272"><ele>251.0</ele><time>2026-05-02T14:25:55Z</time></trkpt><trkpt lat="43.354712662775896" lon="13.30502427391076"><ele>251.0</ele><time>2026-05-02T14:25:56Z</time></trkpt><trkpt lat="43.35457753224768" lon="13.305117970920703"><ele>251.0</ele><time>2026-05-02T14:25:57Z</time></trkpt><trkpt lat="43.35447334058823" lon="13.305205124193394"><ele>251.60000000000002</ele><time>2026-05-02T14:25:58Z</time></trkpt><trkpt lat="43.35439530482518" lon="13.30526971571113"><ele>252.20000000000002</ele><time>2026-05-02T14:25:59Z</time></trkpt><trkpt lat="43.35430140312657" lon="13.305282230872017"><ele>252.79999999999998</ele><time>2026-05-02T14:26:00Z</time></trkpt><trkpt lat="43.35418447830203" lon="13.305275454908333"><ele>253.39999999999998</ele><time>2026-05-02T14:26:01Z</time></trkpt><trkpt lat="43.35405088155235" lon="13.305271161949124"><ele>254.0</ele><time>2026-05-02T14:26:02Z</time></trkpt><trkpt lat="43.35390076403207" lon="13.305294928198867"><ele>254.0</ele><time>2026-05-02T14:26:03Z</time></trkpt><trkpt lat="43.35374011107564" lon="13.305335573221488"><ele>254.0</ele><time>2026-05-02T14:26:04Z</time></trkpt><trkpt lat="43.353570312075234" lon="13.30537991297428"><ele>254.0</ele><time>2026-05-02T14:26:05Z</time></trkpt><trkpt lat="43.35337839755717" lon="13.305427931140775"><ele>254.0</ele><time>2026-05-02T14:26:06Z</time></trkpt><trkpt lat="43.353207891555826" lon="13.30547339843205"><ele>254.0</ele><time>2026-05-02T14:26:07Z</time></trkpt><trkpt lat="43.35307294217784" lon="13.305515404157719"><ele>254.0</ele><time>2026-05-02T14:26:08Z</time></trkpt><trkpt lat="43.352949917889255" lon="13.305540623743653"><ele>254.0</ele><time>2026-05-02T14:26:09Z</time></trkpt><trkpt lat="43.35281605285632" lon="13.305590273856664"><ele>254.5</ele><time>2026-05-02T14:26:10Z</time></trkpt><trkpt lat="43.35269528645702" lon="13.305630814748604"><ele>255.0</ele><time>2026-05-02T14:26:11Z</time></trkpt><trkpt lat="43.35256655485864" lon="13.30567017799841"><ele>255.5</ele><time>2026-05-02T14:26:12Z</time></trkpt><trkpt lat="43.35241165064389" lon="13.30571839956341"><ele>256.0</ele><time>2026-05-02T14:26:13Z</time></trkpt><trkpt lat="43.352230400097994" lon="13.305782746551627"><ele>255.66666666666666</ele><time>2026-05-02T14:26:14Z</time></trkpt><trkpt lat="43.35203250556727" lon="13.305844133292332"><ele>255.33333333333331</ele><time>2026-05-02T14:26:15Z</time></trkpt><trkpt lat="43.3518235512348" lon="13.30591801566747"><ele>255.0</ele><time>2026-05-02T14:26:16Z</time></trkpt><trkpt lat="43.351586588592916" lon="13.305995328606862"><ele>255.0</ele><time>2026-05-02T14:26:17Z</time></trkpt><trkpt lat="43.351386170300735" lon="13.306057676252264"><ele>255.0</ele><time>2026-05-02T14:26:18Z</time></trkpt><trkpt lat="43.351199002018745" lon="13.306123899084753"><ele>255.0</ele><time>2026-05-02T14:26:19Z</time></trkpt><trkpt lat="43.35100747984858" lon="13.306178401038874"><ele>255.66666666666669</ele><time>2026-05-02T14:26:20Z</time></trkpt><trkpt lat="43.3508182115543" lon="13.306238114388279"><ele>256.33333333333337</ele><time>2026-05-02T14:26:21Z</time></trkpt><trkpt lat="43.350643468118605" lon="13.30629775085411"><ele>257.0</ele><time>2026-05-02T14:26:22Z</time></trkpt><trkpt lat="43.35051116901794" lon="13.306358267309054"><ele>257.0</ele><time>2026-05-02T14:26:23Z</time></trkpt><trkpt lat="43.35030855462364" lon="13.30639892521105"><ele>257.0</ele><time>2026-05-02T14:26:24Z</time></trkpt><trkpt lat="43.35015758508358" lon="13.306446675990749"><ele>257.0</ele><time>2026-05-02T14:26:25Z</time></trkpt><trkpt lat="43.35001662837011" lon="13.306500156838501"><ele>257.0</ele><time>2026-05-02T14:26:26Z</time></trkpt><trkpt lat="43.34990584720126" lon="13.30652444715883"><ele>257.0</ele><time>2026-05-02T14:26:27Z</time></trkpt><trkpt lat="43.34982738569756" lon="13.30654537721155"><ele>257.0</ele><time>2026-05-02T14:26:28Z</time></trkpt><trkpt lat="43.349763677393575" lon="13.306525900405841"><ele>257.0</ele><time>2026-05-02T14:26:48Z</time></trkpt><trkpt lat="43.34975785741716" lon="13.306404471141326"><ele>257.0</ele><time>2026-05-02T14:26:50Z</time></trkpt><trkpt lat="43.34976963555319" lon="13.306301606795557"><ele>257.0</ele><time>2026-05-02T14:26:51Z</time></trkpt><trkpt lat="43.349794172396386" lon="13.306166058022477"><ele>257.0</ele><time>2026-05-02T14:26:52Z</time></trkpt><trkpt lat="43.349828432898896" lon="13.306042083348554"><ele>257.0</ele><time>2026-05-02T14:26:53Z</time></trkpt><trkpt lat="43.34986766497221" lon="13.305883110000513"><ele>257.0</ele><time>2026-05-02T14:26:54Z</time></trkpt><trkpt lat="43.34992843402247" lon="13.305703793460648"><ele>257.0</ele><time>2026-05-02T14:26:55Z</time></trkpt><trkpt lat="43.34998353193759" lon="13.305547578408207"><ele>256.33333333333337</ele><time>2026-05-02T14:26:56Z</time></trkpt><trkpt lat="43.350016128453504" lon="13.305396690887147"><ele>255.66666666666669</ele><time>2026-05-02T14:26:57Z</time></trkpt><trkpt lat="43.35006774391864" lon="13.30504633067082"><ele>255.0</ele><time>2026-05-02T14:26:58Z</time></trkpt><trkpt lat="43.35012236052899" lon="13.30478942967792"><ele>254.66666666666669</ele><time>2026-05-02T14:26:59Z</time></trkpt><trkpt lat="43.35017774488469" lon="13.304536617557298"><ele>254.33333333333334</ele><time>2026-05-02T14:27:00Z</time></trkpt><trkpt lat="43.350233848083" lon="13.304290543951641"><ele>254.0</ele><time>2026-05-02T14:27:01Z</time></trkpt><trkpt lat="43.35028772332746" lon="13.304053652952271"><ele>255.0</ele><time>2026-05-02T14:27:02Z</time></trkpt><trkpt lat="43.350329485965716" lon="13.303833591794177"><ele>256.0</ele><time>2026-05-02T14:27:03Z</time></trkpt><trkpt lat="43.35036958107822" lon="13.303633308062684"><ele>257.0</ele><time>2026-05-02T14:27:04Z</time></trkpt><trkpt lat="43.350400382176836" lon="13.30343320485174"><ele>257.0</ele><time>2026-05-02T14:27:05Z</time></trkpt><trkpt lat="43.3504253986062" lon="13.30324843505419"><ele>257.0</ele><time>2026-05-02T14:27:06Z</time></trkpt><trkpt lat="43.35044444900879" lon="13.303058440595901"><ele>257.0</ele><time>2026-05-02T14:27:07Z</time></trkpt><trkpt lat="43.35045865286043" lon="13.302891679511832"><ele>257.0</ele><time>2026-05-02T14:27:08Z</time></trkpt><trkpt lat="43.35047854451635" lon="13.302736310991467"><ele>257.2</ele><time>2026-05-02T14:27:09Z</time></trkpt><trkpt lat="43.350496945276085" lon="13.302587150259718"><ele>257.4</ele><time>2026-05-02T14:27:10Z</time></trkpt><trkpt lat="43.35051273803036" lon="13.302430205267099"><ele>257.6</ele><time>2026-05-02T14:27:11Z</time></trkpt><trkpt lat="43.350523609403794" lon="13.302284423513358"><ele>257.8</ele><time>2026-05-02T14:27:12Z</time></trkpt><trkpt lat="43.35053772671612" lon="13.302137383691992"><ele>258.0</ele><time>2026-05-02T14:27:13Z</time></trkpt><trkpt lat="43.35055557733238" lon="13.302008571090262"><ele>258.8</ele><time>2026-05-02T14:27:14Z</time></trkpt><trkpt lat="43.350569703236005" lon="13.301860431912376"><ele>259.6</ele><time>2026-05-02T14:27:15Z</time></trkpt><trkpt lat="43.35059848079989" lon="13.301717943043013"><ele>260.4</ele><time>2026-05-02T14:27:16Z</time></trkpt><trkpt lat="43.3506142180185" lon="13.301574143620206"><ele>261.2</ele><time>2026-05-02T14:27:17Z</time></trkpt><trkpt lat="43.35062910104576" lon="13.301437985685002"><ele>262.0</ele><time>2026-05-02T14:27:18Z</time></trkpt><trkpt lat="43.350644003996294" lon="13.301301645511499"><ele>262.0</ele><time>2026-05-02T14:27:19Z</time></trkpt><trkpt lat="43.35066136988208" lon="13.30113696589362"><ele>262.0</ele><time>2026-05-02T14:27:20Z</time></trkpt><trkpt lat="43.35067173230184" lon="13.300994309093948"><ele>262.0</ele><time>2026-05-02T14:27:21Z</time></trkpt><trkpt lat="43.35069246849208" lon="13.300849129382655"><ele>262.0</ele><time>2026-05-02T14:27:22Z</time></trkpt><trkpt lat="43.350710053749005" lon="13.30068713234458"><ele>262.5</ele><time>2026-05-02T14:27:23Z</time></trkpt><trkpt lat="43.35072330881672" lon="13.300531476627116"><ele>263.0</ele><time>2026-05-02T14:27:24Z</time></trkpt><trkpt lat="43.35073421209" lon="13.30033765204619"><ele>263.5</ele><time>2026-05-02T14:27:25Z</time></trkpt><trkpt lat="43.35076048692907" lon="13.300148792701515"><ele>264.0</ele><time>2026-05-02T14:27:26Z</time></trkpt><trkpt lat="43.35078249079919" lon="13.299943156704177"><ele>264.0</ele><time>2026-05-02T14:27:27Z</time></trkpt><trkpt lat="43.3508054669755" lon="13.299756390618276"><ele>264.0</ele><time>2026-05-02T14:27:28Z</time></trkpt><trkpt lat="43.35082260158581" lon="13.299560548951993"><ele>264.0</ele><time>2026-05-02T14:27:29Z</time></trkpt><trkpt lat="43.35083805250363" lon="13.2993394589481"><ele>264.0</ele><time>2026-05-02T14:27:30Z</time></trkpt><trkpt lat="43.350849700409675" lon="13.299093286015015"><ele>265.0</ele><time>2026-05-02T14:27:31Z</time></trkpt><trkpt lat="43.35085707821565" lon="13.298850140327923"><ele>266.0</ele><time>2026-05-02T14:27:32Z</time></trkpt><trkpt lat="43.35085031580465" lon="13.298603853667943"><ele>267.0</ele><time>2026-05-02T14:27:33Z</time></trkpt><trkpt lat="43.350858220003076" lon="13.298353261531291"><ele>267.0</ele><time>2026-05-02T14:27:34Z</time></trkpt><trkpt lat="43.35085368594392" lon="13.298144047079747"><ele>267.0</ele><time>2026-05-02T14:27:35Z</time></trkpt><trkpt lat="43.35083008164364" lon="13.297963715302267"><ele>267.0</ele><time>2026-05-02T14:27:36Z</time></trkpt><trkpt lat="43.35083273140068" lon="13.297785325743373"><ele>267.0</ele><time>2026-05-02T14:27:37Z</time></trkpt><trkpt lat="43.35080671859484" lon="13.297611914119834"><ele>267.0</ele><time>2026-05-02T14:27:38Z</time></trkpt><trkpt lat="43.35076186447347" lon="13.297440140410439"><ele>267.0</ele><time>2026-05-02T14:27:39Z</time></trkpt><trkpt lat="43.35071100757438" lon="13.297262450842897"><ele>267.0</ele><time>2026-05-02T14:27:40Z</time></trkpt><trkpt lat="43.35066404368715" lon="13.297076178351114"><ele>267.0</ele><time>2026-05-02T14:27:41Z</time></trkpt><trkpt lat="43.35062594848788" lon="13.296900043659756"><ele>267.0</ele><time>2026-05-02T14:27:42Z</time></trkpt><trkpt lat="43.35058472485936" lon="13.296742364750937"><ele>267.0</ele><time>2026-05-02T14:27:43Z</time></trkpt><trkpt lat="43.350550651015524" lon="13.296612129516665"><ele>267.0</ele><time>2026-05-02T14:27:44Z</time></trkpt><trkpt lat="43.350523793718956" lon="13.296506082616471"><ele>267.0</ele><time>2026-05-02T14:27:45Z</time></trkpt><trkpt lat="43.35049412844957" lon="13.296413293396748"><ele>267.0</ele><time>2026-05-02T14:27:46Z</time></trkpt><trkpt lat="43.35044608237279" lon="13.296279630569163"><ele>267.6666666666667</ele><time>2026-05-02T14:27:48Z</time></trkpt><trkpt lat="43.350317496716436" lon="13.29625693009012"><ele>268.3333333333333</ele><time>2026-05-02T14:27:55Z</time></trkpt><trkpt lat="43.35023074776062" lon="13.296262585746057"><ele>269.0</ele><time>2026-05-02T14:27:57Z</time></trkpt><trkpt lat="43.35013033115647" lon="13.296230806250229"><ele>269.66666666666663</ele><time>2026-05-02T14:27:59Z</time></trkpt><trkpt lat="43.35006826952929" lon="13.296215861214863"><ele>270.3333333333333</ele><time>2026-05-02T14:28:01Z</time></trkpt><trkpt lat="43.35000142321324" lon="13.296213229626805"><ele>271.0</ele><time>2026-05-02T14:28:03Z</time></trkpt><trkpt lat="43.34989238087807" lon="13.296177139675104"><ele>271.0</ele><time>2026-05-02T14:28:05Z</time></trkpt><trkpt lat="43.3498183549314" lon="13.296192199912372"><ele>271.0</ele><time>2026-05-02T14:28:06Z</time></trkpt><trkpt lat="43.349731993413954" lon="13.296184674116668"><ele>271.0</ele><time>2026-05-02T14:28:07Z</time></trkpt><trkpt lat="43.349639648556675" lon="13.296173963773194"><ele>271.0</ele><time>2026-05-02T14:28:08Z</time></trkpt><trkpt lat="43.34954704883401" lon="13.29617220276544"><ele>271.0</ele><time>2026-05-02T14:28:09Z</time></trkpt><trkpt lat="43.349455860076255" lon="13.296166136558274"><ele>271.0</ele><time>2026-05-02T14:28:10Z</time></trkpt><trkpt lat="43.34936339204413" lon="13.29613960966335"><ele>271.16666666666663</ele><time>2026-05-02T14:28:11Z</time></trkpt><trkpt lat="43.34927128465567" lon="13.29613338894398"><ele>271.3333333333333</ele><time>2026-05-02T14:28:12Z</time></trkpt><trkpt lat="43.34918360505384" lon="13.296126682608682"><ele>271.5</ele><time>2026-05-02T14:28:13Z</time></trkpt><trkpt lat="43.34910484110778" lon="13.296116305471125"><ele>271.6666666666667</ele><time>2026-05-02T14:28:14Z</time></trkpt><trkpt lat="43.349027052493334" lon="13.296112318239947"><ele>271.83333333333337</ele><time>2026-05-02T14:28:15Z</time></trkpt><trkpt lat="43.34895284880742" lon="13.296104351760887"><ele>272.0</ele><time>2026-05-02T14:28:16Z</time></trkpt><trkpt lat="43.34888226204536" lon="13.296094477053373"><ele>272.2</ele><time>2026-05-02T14:28:17Z</time></trkpt><trkpt lat="43.348741586046934" lon="13.296096285525001"><ele>272.4</ele><time>2026-05-02T14:28:19Z</time></trkpt><trkpt lat="43.34867707688518" lon="13.296142472027746"><ele>272.6</ele><time>2026-05-02T14:28:20Z</time></trkpt><trkpt lat="43.34860633617192" lon="13.296176165993373"><ele>272.8</ele><time>2026-05-02T14:28:21Z</time></trkpt><trkpt lat="43.348534455432656" lon="13.296202850462036"><ele>273.0</ele><time>2026-05-02T14:28:22Z</time></trkpt><trkpt lat="43.34845123262322" lon="13.296239781111673"><ele>273.0</ele><time>2026-05-02T14:28:23Z</time></trkpt><trkpt lat="43.348358010946136" lon="13.296263465359202"><ele>273.0</ele><time>2026-05-02T14:28:24Z</time></trkpt><trkpt lat="43.348269047435" lon="13.296288372327682"><ele>273.0</ele><time>2026-05-02T14:28:25Z</time></trkpt><trkpt lat="43.34818005596703" lon="13.296304527840462"><ele>273.0</ele><time>2026-05-02T14:28:26Z</time></trkpt><trkpt lat="43.34808843561836" lon="13.296334780564905"><ele>273.0</ele><time>2026-05-02T14:28:27Z</time></trkpt><trkpt lat="43.347990072900465" lon="13.296344637418166"><ele>273.2</ele><time>2026-05-02T14:28:28Z</time></trkpt><trkpt lat="43.34789143425914" lon="13.296340567361131"><ele>273.4</ele><time>2026-05-02T14:28:29Z</time></trkpt><trkpt lat="43.347774305980835" lon="13.296347796178726"><ele>273.59999999999997</ele><time>2026-05-02T14:28:30Z</time></trkpt><trkpt lat="43.34766991195416" lon="13.29635074451782"><ele>273.8</ele><time>2026-05-02T14:28:31Z</time></trkpt><trkpt lat="43.347587138661154" lon="13.296333443124603"><ele>274.0</ele><time>2026-05-02T14:28:32Z</time></trkpt><trkpt lat="43.34749788362435" lon="13.29633018582347"><ele>274.0</ele><time>2026-05-02T14:28:33Z</time></trkpt><trkpt lat="43.34739789279517" lon="13.296299158969004"><ele>274.0</ele><time>2026-05-02T14:28:34Z</time></trkpt><trkpt lat="43.34730332532343" lon="13.296276827086308"><ele>274.0</ele><time>2026-05-02T14:28:35Z</time></trkpt><trkpt lat="43.34720970176474" lon="13.296281475107058"><ele>274.0</ele><time>2026-05-02T14:28:36Z</time></trkpt><trkpt lat="43.3471228848215" lon="13.296315539675303"><ele>274.0</ele><time>2026-05-02T14:28:37Z</time></trkpt><trkpt lat="43.347034566071954" lon="13.296395093082719"><ele>273.75</ele><time>2026-05-02T14:28:38Z</time></trkpt><trkpt lat="43.34695864433997" lon="13.296506099854973"><ele>273.5</ele><time>2026-05-02T14:28:39Z</time></trkpt><trkpt lat="43.34688639092555" lon="13.296639439563227"><ele>273.25</ele><time>2026-05-02T14:28:40Z</time></trkpt><trkpt lat="43.346834588961" lon="13.296793277424499"><ele>273.0</ele><time>2026-05-02T14:28:41Z</time></trkpt><trkpt lat="43.34678574411188" lon="13.296951904393705"><ele>273.0</ele><time>2026-05-02T14:28:42Z</time></trkpt><trkpt lat="43.34674876119545" lon="13.2971619326407"><ele>273.0</ele><time>2026-05-02T14:28:43Z</time></trkpt><trkpt lat="43.34670895938823" lon="13.297413185941048"><ele>273.0</ele><time>2026-05-02T14:28:44Z</time></trkpt><trkpt lat="43.34667607537551" lon="13.297634542477477"><ele>272.5</ele><time>2026-05-02T14:28:45Z</time></trkpt><trkpt lat="43.346635899035945" lon="13.297832214375461"><ele>272.0</ele><time>2026-05-02T14:28:46Z</time></trkpt><trkpt lat="43.3465923263893" lon="13.298018348457315"><ele>271.5</ele><time>2026-05-02T14:28:47Z</time></trkpt><trkpt lat="43.346554069832486" lon="13.298153439283604"><ele>271.0</ele><time>2026-05-02T14:28:48Z</time></trkpt><trkpt lat="43.34651177237551" lon="13.29825033185915"><ele>270.75</ele><time>2026-05-02T14:28:49Z</time></trkpt><trkpt lat="43.34644843526104" lon="13.29832917879318"><ele>270.5</ele><time>2026-05-02T14:28:50Z</time></trkpt><trkpt lat="43.346346649643806" lon="13.298365184009311"><ele>270.25</ele><time>2026-05-02T14:28:51Z</time></trkpt><trkpt lat="43.34623423424343" lon="13.298423506565806"><ele>270.0</ele><time>2026-05-02T14:28:52Z</time></trkpt><trkpt lat="43.34609502497672" lon="13.298530252697901"><ele>268.3333333333333</ele><time>2026-05-02T14:28:53Z</time></trkpt><trkpt lat="43.34595340473092" lon="13.298612179365689"><ele>266.66666666666663</ele><time>2026-05-02T14:28:54Z</time></trkpt><trkpt lat="43.34581236206434" lon="13.298724644759295"><ele>265.0</ele><time>2026-05-02T14:28:55Z</time></trkpt><trkpt lat="43.34568403315995" lon="13.298841103801964"><ele>264.75</ele><time>2026-05-02T14:28:56Z</time></trkpt><trkpt lat="43.34557740245411" lon="13.298930398886764"><ele>264.5</ele><time>2026-05-02T14:28:57Z</time></trkpt><trkpt lat="43.345476662073274" lon="13.298995489432112"><ele>264.25</ele><time>2026-05-02T14:28:58Z</time></trkpt><trkpt lat="43.345366784735056" lon="13.298978162345444"><ele>264.0</ele><time>2026-05-02T14:28:59Z</time></trkpt><trkpt lat="43.34522923593509" lon="13.298942885705728"><ele>262.3333333333333</ele><time>2026-05-02T14:29:00Z</time></trkpt><trkpt lat="43.34505183101737" lon="13.298920490310156"><ele>260.66666666666663</ele><time>2026-05-02T14:29:01Z</time></trkpt><trkpt lat="43.344861055013496" lon="13.298910762194799"><ele>259.0</ele><time>2026-05-02T14:29:02Z</time></trkpt><trkpt lat="43.344668426671674" lon="13.298896272828157"><ele>257.66666666666663</ele><time>2026-05-02T14:29:03Z</time></trkpt><trkpt lat="43.344467118997514" lon="13.298922772507792"><ele>256.3333333333333</ele><time>2026-05-02T14:29:04Z</time></trkpt><trkpt lat="43.34430168156007" lon="13.298951738491649"><ele>255.0</ele><time>2026-05-02T14:29:05Z</time></trkpt><trkpt lat="43.344141871942455" lon="13.298966562430703"><ele>255.0</ele><time>2026-05-02T14:29:06Z</time></trkpt><trkpt lat="43.343985922012656" lon="13.298980883086113"><ele>255.0</ele><time>2026-05-02T14:29:07Z</time></trkpt><trkpt lat="43.34383431932366" lon="13.298999850819463"><ele>255.0</ele><time>2026-05-02T14:29:08Z</time></trkpt><trkpt lat="43.34370190580545" lon="13.299016811620556"><ele>255.0</ele><time>2026-05-02T14:29:09Z</time></trkpt><trkpt lat="43.34358537616684" lon="13.299034938734426"><ele>253.75</ele><time>2026-05-02T14:29:10Z</time></trkpt><trkpt lat="43.34347945671578" lon="13.299040769542513"><ele>252.5</ele><time>2026-05-02T14:29:11Z</time></trkpt><trkpt lat="43.34337265178787" lon="13.299034124501203"><ele>251.25</ele><time>2026-05-02T14:29:12Z</time></trkpt><trkpt lat="43.343257027653" lon="13.299022781328166"><ele>250.0</ele><time>2026-05-02T14:29:13Z</time></trkpt><trkpt lat="43.343126030797386" lon="13.298990139184859"><ele>248.33333333333331</ele><time>2026-05-02T14:29:14Z</time></trkpt><trkpt lat="43.342986395999056" lon="13.298968455923148"><ele>246.66666666666669</ele><time>2026-05-02T14:29:15Z</time></trkpt><trkpt lat="43.342830960182994" lon="13.298939965328888"><ele>245.0</ele><time>2026-05-02T14:29:16Z</time></trkpt><trkpt lat="43.342660512360894" lon="13.298909973139398"><ele>245.0</ele><time>2026-05-02T14:29:17Z</time></trkpt><trkpt lat="43.34247912929787" lon="13.298876052908934"><ele>245.0</ele><time>2026-05-02T14:29:18Z</time></trkpt><trkpt lat="43.34228442135856" lon="13.298837574773712"><ele>245.0</ele><time>2026-05-02T14:29:19Z</time></trkpt><trkpt lat="43.34209676054154" lon="13.298802945153424"><ele>244.0</ele><time>2026-05-02T14:29:20Z</time></trkpt><trkpt lat="43.341912485899314" lon="13.29877235040988"><ele>243.0</ele><time>2026-05-02T14:29:21Z</time></trkpt><trkpt lat="43.34174151672024" lon="13.298748300569333"><ele>242.0</ele><time>2026-05-02T14:29:22Z</time></trkpt><trkpt lat="43.34157501616614" lon="13.298710070262702"><ele>242.0</ele><time>2026-05-02T14:29:23Z</time></trkpt><trkpt lat="43.34141208012046" lon="13.298704267987418"><ele>242.0</ele><time>2026-05-02T14:29:24Z</time></trkpt><trkpt lat="43.34126745353149" lon="13.298670889794172"><ele>242.0</ele><time>2026-05-02T14:29:25Z</time></trkpt><trkpt lat="43.34112421300248" lon="13.298637681628891"><ele>241.75</ele><time>2026-05-02T14:29:26Z</time></trkpt><trkpt lat="43.34098298654282" lon="13.298603308536334"><ele>241.5</ele><time>2026-05-02T14:29:27Z</time></trkpt><trkpt lat="43.34085895025207" lon="13.29858295475022"><ele>241.25</ele><time>2026-05-02T14:29:28Z</time></trkpt><trkpt lat="43.34074049167687" lon="13.298560645576089"><ele>241.0</ele><time>2026-05-02T14:29:29Z</time></trkpt><trkpt lat="43.340625302431505" lon="13.298532602693143"><ele>240.75</ele><time>2026-05-02T14:29:30Z</time></trkpt><trkpt lat="43.340495262215455" lon="13.298505004850325"><ele>240.5</ele><time>2026-05-02T14:29:31Z</time></trkpt><trkpt lat="43.34037550216343" lon="13.298484028173572"><ele>240.25</ele><time>2026-05-02T14:29:32Z</time></trkpt><trkpt lat="43.34026209283736" lon="13.298469826072198"><ele>240.0</ele><time>2026-05-02T14:29:33Z</time></trkpt><trkpt lat="43.34015551542998" lon="13.29844840678315"><ele>240.0</ele><time>2026-05-02T14:29:34Z</time></trkpt><trkpt lat="43.340059495296785" lon="13.298435006135705"><ele>240.0</ele><time>2026-05-02T14:29:35Z</time></trkpt><trkpt lat="43.339977297943435" lon="13.29842641745589"><ele>240.0</ele><time>2026-05-02T14:29:36Z</time></trkpt><trkpt lat="43.339910303339465" lon="13.29841355381897"><ele>240.0</ele><time>2026-05-02T14:29:37Z</time></trkpt><trkpt lat="43.33983257449751" lon="13.29838015350832"><ele>240.0</ele><time>2026-05-02T14:29:40Z</time></trkpt><trkpt lat="43.3397979650381" lon="13.298247078230968"><ele>240.0</ele><time>2026-05-02T14:32:02Z</time></trkpt><trkpt lat="43.33981435869783" lon="13.298147176307081"><ele>240.6</ele><time>2026-05-02T14:32:03Z</time></trkpt><trkpt lat="43.3398418438306" lon="13.298041678983898"><ele>241.2</ele><time>2026-05-02T14:32:04Z</time></trkpt><trkpt lat="43.339862089296815" lon="13.297897556924571"><ele>241.8</ele><time>2026-05-02T14:32:05Z</time></trkpt><trkpt lat="43.339878378094646" lon="13.297759184660801"><ele>242.4</ele><time>2026-05-02T14:32:06Z</time></trkpt><trkpt lat="43.33988220590727" lon="13.297611906467056"><ele>243.0</ele><time>2026-05-02T14:32:08Z</time></trkpt><trkpt lat="43.33991901822589" lon="13.297356167147832"><ele>243.0</ele><time>2026-05-02T14:32:10Z</time></trkpt><trkpt lat="43.339924433567404" lon="13.297232188783399"><ele>243.0</ele><time>2026-05-02T14:32:12Z</time></trkpt><trkpt lat="43.33980635117728" lon="13.297229541077403"><ele>243.0</ele><time>2026-05-02T14:32:13Z</time></trkpt><trkpt lat="43.339727199671" lon="13.297218953961735"><ele>243.0</ele><time>2026-05-02T14:32:14Z</time></trkpt><trkpt lat="43.339634631081616" lon="13.297201237168764"><ele>243.0</ele><time>2026-05-02T14:32:15Z</time></trkpt><trkpt lat="43.33953059795991" lon="13.297200629101367"><ele>243.5</ele><time>2026-05-02T14:32:16Z</time></trkpt><trkpt lat="43.33940262389116" lon="13.297180074079149"><ele>244.0</ele><time>2026-05-02T14:32:17Z</time></trkpt><trkpt lat="43.33928175324065" lon="13.297161386131382"><ele>244.5</ele><time>2026-05-02T14:32:18Z</time></trkpt><trkpt lat="43.339153423287556" lon="13.297144789556354"><ele>245.0</ele><time>2026-05-02T14:32:19Z</time></trkpt><trkpt lat="43.33902970687499" lon="13.297126920077622"><ele>245.0</ele><time>2026-05-02T14:32:20Z</time></trkpt><trkpt lat="43.33890576711238" lon="13.297105607389456"><ele>245.0</ele><time>2026-05-02T14:32:21Z</time></trkpt><trkpt lat="43.33879115257708" lon="13.297084625194827"><ele>245.0</ele><time>2026-05-02T14:32:22Z</time></trkpt><trkpt lat="43.33869236242812" lon="13.297068672593365"><ele>245.0</ele><time>2026-05-02T14:32:23Z</time></trkpt><trkpt lat="43.33858225279298" lon="13.297037304629827"><ele>244.75</ele><time>2026-05-02T14:32:24Z</time></trkpt><trkpt lat="43.33846854485581" lon="13.297003952349018"><ele>244.5</ele><time>2026-05-02T14:32:25Z</time></trkpt><trkpt lat="43.33834939285093" lon="13.296963358541607"><ele>244.25</ele><time>2026-05-02T14:32:26Z</time></trkpt><trkpt lat="43.33823205804876" lon="13.296926631117485"><ele>244.0</ele><time>2026-05-02T14:32:27Z</time></trkpt><trkpt lat="43.33811724893055" lon="13.296899067964658"><ele>243.0</ele><time>2026-05-02T14:32:28Z</time></trkpt><trkpt lat="43.33801243562937" lon="13.296840094300508"><ele>242.0</ele><time>2026-05-02T14:32:29Z</time></trkpt><trkpt lat="43.33789577288053" lon="13.296811397675786"><ele>241.0</ele><time>2026-05-02T14:32:30Z</time></trkpt><trkpt lat="43.33778322124142" lon="13.296778635340502"><ele>240.0</ele><time>2026-05-02T14:32:31Z</time></trkpt><trkpt lat="43.33766890357026" lon="13.29674070214462"><ele>240.0</ele><time>2026-05-02T14:32:32Z</time></trkpt><trkpt lat="43.33758561323378" lon="13.296715059576997"><ele>240.0</ele><time>2026-05-02T14:32:33Z</time></trkpt><trkpt lat="43.33749130575961" lon="13.296685139463781"><ele>240.0</ele><time>2026-05-02T14:32:34Z</time></trkpt><trkpt lat="43.33739288097748" lon="13.296662299019934"><ele>240.0</ele><time>2026-05-02T14:32:35Z</time></trkpt><trkpt lat="43.33729833649536" lon="13.296644152551492"><ele>240.0</ele><time>2026-05-02T14:32:36Z</time></trkpt><trkpt lat="43.33720264901457" lon="13.296615490660594"><ele>239.42857142857144</ele><time>2026-05-02T14:32:37Z</time></trkpt><trkpt lat="43.33713356952233" lon="13.296578870655134"><ele>238.85714285714283</ele><time>2026-05-02T14:32:38Z</time></trkpt><trkpt lat="43.33705881834965" lon="13.296552281293119"><ele>238.28571428571428</ele><time>2026-05-02T14:32:39Z</time></trkpt><trkpt lat="43.33699008957406" lon="13.296526238318096"><ele>237.71428571428572</ele><time>2026-05-02T14:32:40Z</time></trkpt><trkpt lat="43.33692789660154" lon="13.296464424397778"><ele>237.14285714285717</ele><time>2026-05-02T14:32:41Z</time></trkpt><trkpt lat="43.33687715989971" lon="13.296408372902004"><ele>236.57142857142856</ele><time>2026-05-02T14:32:42Z</time></trkpt><trkpt lat="43.33682448887722" lon="13.296348772858837"><ele>236.0</ele><time>2026-05-02T14:32:43Z</time></trkpt><trkpt lat="43.33675705594598" lon="13.296200286453956"><ele>235.83333333333334</ele><time>2026-05-02T14:32:45Z</time></trkpt><trkpt lat="43.33671913919407" lon="13.296082251448194"><ele>235.66666666666669</ele><time>2026-05-02T14:32:46Z</time></trkpt><trkpt lat="43.33669226006261" lon="13.295969491867409"><ele>235.5</ele><time>2026-05-02T14:32:47Z</time></trkpt><trkpt lat="43.336639774363924" lon="13.295873465798152"><ele>235.33333333333331</ele><time>2026-05-02T14:32:48Z</time></trkpt><trkpt lat="43.33658780822366" lon="13.295814219069022"><ele>235.16666666666666</ele><time>2026-05-02T14:32:49Z</time></trkpt><trkpt lat="43.336555866972674" lon="13.295678289433683"><ele>235.0</ele><time>2026-05-02T14:32:51Z</time></trkpt><trkpt lat="43.33656353524872" lon="13.295497000379486"><ele>235.0</ele><time>2026-05-02T14:32:53Z</time></trkpt><trkpt lat="43.33659593145684" lon="13.295383953329663"><ele>235.0</ele><time>2026-05-02T14:32:54Z</time></trkpt><trkpt lat="43.33664003866679" lon="13.295261692918071"><ele>235.0</ele><time>2026-05-02T14:32:55Z</time></trkpt><trkpt lat="43.33668860404295" lon="13.295125612770972"><ele>235.0</ele><time>2026-05-02T14:32:56Z</time></trkpt><trkpt lat="43.336735482993035" lon="13.295001357934927"><ele>235.0</ele><time>2026-05-02T14:32:57Z</time></trkpt><trkpt lat="43.336807629645385" lon="13.29488745382284"><ele>236.5</ele><time>2026-05-02T14:32:58Z</time></trkpt><trkpt lat="43.33685404379382" lon="13.294715258198778"><ele>238.0</ele><time>2026-05-02T14:32:59Z</time></trkpt><trkpt lat="43.33691342936914" lon="13.294562212458258"><ele>239.5</ele><time>2026-05-02T14:33:00Z</time></trkpt><trkpt lat="43.33694828599175" lon="13.29439941460575"><ele>241.0</ele><time>2026-05-02T14:33:01Z</time></trkpt><trkpt lat="43.33697923495612" lon="13.294292674907807"><ele>240.99999999999997</ele><time>2026-05-02T14:33:02Z</time></trkpt><trkpt lat="43.33699203505247" lon="13.294183704684158"><ele>241.0</ele><time>2026-05-02T14:33:03Z</time></trkpt><trkpt lat="43.33698355154939" lon="13.294059741757932"><ele>241.0</ele><time>2026-05-02T14:33:04Z</time></trkpt><trkpt lat="43.33696938631336" lon="13.293926194545138"><ele>241.0</ele><time>2026-05-02T14:33:05Z</time></trkpt><trkpt lat="43.33692990193152" lon="13.293834369664461"><ele>240.99999999999997</ele><time>2026-05-02T14:33:06Z</time></trkpt><trkpt lat="43.336870074791946" lon="13.2937509395645"><ele>241.0</ele><time>2026-05-02T14:33:07Z</time></trkpt><trkpt lat="43.33681094158973" lon="13.29364859837415"><ele>242.0</ele><time>2026-05-02T14:33:08Z</time></trkpt><trkpt lat="43.33673950087204" lon="13.293547677901516"><ele>243.0</ele><time>2026-05-02T14:33:09Z</time></trkpt><trkpt lat="43.33667203500764" lon="13.293422011059475"><ele>244.0</ele><time>2026-05-02T14:33:10Z</time></trkpt><trkpt lat="43.336597235333805" lon="13.293294045688082"><ele>245.0</ele><time>2026-05-02T14:33:11Z</time></trkpt><trkpt lat="43.3365158724151" lon="13.293154181784796"><ele>246.25</ele><time>2026-05-02T14:33:12Z</time></trkpt><trkpt lat="43.33642906578462" lon="13.29300756302476"><ele>247.5</ele><time>2026-05-02T14:33:13Z</time></trkpt><trkpt lat="43.33633972625594" lon="13.292859000311436"><ele>248.75</ele><time>2026-05-02T14:33:14Z</time></trkpt><trkpt lat="43.33625983528629" lon="13.292711894658716"><ele>250.0</ele><time>2026-05-02T14:33:15Z</time></trkpt><trkpt lat="43.336199344179455" lon="13.292585233686282"><ele>249.99999999999997</ele><time>2026-05-02T14:33:16Z</time></trkpt><trkpt lat="43.33613323727053" lon="13.29250181213582"><ele>250.0</ele><time>2026-05-02T14:33:17Z</time></trkpt><trkpt lat="43.33607803449955" lon="13.292448338722288"><ele>250.0</ele><time>2026-05-02T14:33:18Z</time></trkpt><trkpt lat="43.33596429949755" lon="13.292392988451246"><ele>250.0</ele><time>2026-05-02T14:33:20Z</time></trkpt><trkpt lat="43.33588658459728" lon="13.292355717749826"><ele>249.99999999999997</ele><time>2026-05-02T14:33:21Z</time></trkpt><trkpt lat="43.33582572467961" lon="13.292316755832157"><ele>250.0</ele><time>2026-05-02T14:33:22Z</time></trkpt><trkpt lat="43.33575746115536" lon="13.292269248639132"><ele>249.66666666666666</ele><time>2026-05-02T14:33:23Z</time></trkpt><trkpt lat="43.3356904360649" lon="13.292228498308571"><ele>249.33333333333331</ele><time>2026-05-02T14:33:24Z</time></trkpt><trkpt lat="43.33563183586102" lon="13.292193613216707"><ele>249.0</ele><time>2026-05-02T14:33:25Z</time></trkpt><trkpt lat="43.335560101952574" lon="13.292146571777103"><ele>248.66666666666669</ele><time>2026-05-02T14:33:26Z</time></trkpt><trkpt lat="43.33547671537179" lon="13.292093445141987"><ele>248.33333333333334</ele><time>2026-05-02T14:33:27Z</time></trkpt><trkpt lat="43.335388282531305" lon="13.292026351229094"><ele>248.0</ele><time>2026-05-02T14:33:28Z</time></trkpt><trkpt lat="43.33530081562419" lon="13.291973530179025"><ele>248.00000000000003</ele><time>2026-05-02T14:33:29Z</time></trkpt><trkpt lat="43.33522155675022" lon="13.291949722876089"><ele>248.0</ele><time>2026-05-02T14:33:30Z</time></trkpt><trkpt lat="43.33514403898809" lon="13.291913122108054"><ele>248.0</ele><time>2026-05-02T14:33:31Z</time></trkpt><trkpt lat="43.33506574302509" lon="13.29189781426015"><ele>248.0</ele><time>2026-05-02T14:33:32Z</time></trkpt><trkpt lat="43.334978788953634" lon="13.291892484226034"><ele>248.00000000000003</ele><time>2026-05-02T14:33:33Z</time></trkpt><trkpt lat="43.334891629377985" lon="13.291905488980799"><ele>248.0</ele><time>2026-05-02T14:33:34Z</time></trkpt><trkpt lat="43.33479718660022" lon="13.291922037198336"><ele>247.8</ele><time>2026-05-02T14:33:35Z</time></trkpt><trkpt lat="43.3346991622816" lon="13.291952414964646"><ele>247.60000000000002</ele><time>2026-05-02T14:33:36Z</time></trkpt><trkpt lat="43.33459803406689" lon="13.29196754673731"><ele>247.39999999999998</ele><time>2026-05-02T14:33:37Z</time></trkpt><trkpt lat="43.334493462669144" lon="13.291973189241869"><ele>247.2</ele><time>2026-05-02T14:33:38Z</time></trkpt><trkpt lat="43.334393190256066" lon="13.29195681192265"><ele>247.0</ele><time>2026-05-02T14:33:39Z</time></trkpt><trkpt lat="43.33429148203494" lon="13.291970332952978"><ele>247.0</ele><time>2026-05-02T14:33:40Z</time></trkpt><trkpt lat="43.33418968775356" lon="13.291955982407604"><ele>247.0</ele><time>2026-05-02T14:33:41Z</time></trkpt><trkpt lat="43.334091897365774" lon="13.291923938391271"><ele>247.0</ele><time>2026-05-02T14:33:42Z</time></trkpt><trkpt lat="43.3339929552984" lon="13.291908776286714"><ele>247.0</ele><time>2026-05-02T14:33:43Z</time></trkpt><trkpt lat="43.3338962387514" lon="13.29190041202742"><ele>247.0</ele><time>2026-05-02T14:33:44Z</time></trkpt><trkpt lat="43.33380523031951" lon="13.291874003494565"><ele>245.83333333333331</ele><time>2026-05-02T14:33:45Z</time></trkpt><trkpt lat="43.333719750279876" lon="13.291851877408195"><ele>244.66666666666666</ele><time>2026-05-02T14:33:46Z</time></trkpt><trkpt lat="43.333640394486466" lon="13.291837933300148"><ele>243.5</ele><time>2026-05-02T14:33:47Z</time></trkpt><trkpt lat="43.33354758923195" lon="13.291804086012815"><ele>242.33333333333331</ele><time>2026-05-02T14:33:48Z</time></trkpt><trkpt lat="43.33346210022821" lon="13.291757484694527"><ele>241.16666666666666</ele><time>2026-05-02T14:33:49Z</time></trkpt><trkpt lat="43.33339872905099" lon="13.291716124828223"><ele>240.0</ele><time>2026-05-02T14:33:50Z</time></trkpt><trkpt lat="43.33330257642" lon="13.29165272941346"><ele>240.0</ele><time>2026-05-02T14:33:51Z</time></trkpt><trkpt lat="43.33321546630762" lon="13.291593247904913"><ele>240.0</ele><time>2026-05-02T14:33:52Z</time></trkpt><trkpt lat="43.33314337510784" lon="13.29156292955376"><ele>240.0</ele><time>2026-05-02T14:33:53Z</time></trkpt><trkpt lat="43.33305131993375" lon="13.291473519304414"><ele>240.0</ele><time>2026-05-02T14:33:54Z</time></trkpt><trkpt lat="43.332967830257076" lon="13.291419063070952"><ele>240.0</ele><time>2026-05-02T14:33:55Z</time></trkpt><trkpt lat="43.33289400287824" lon="13.291358756301245"><ele>240.2</ele><time>2026-05-02T14:33:56Z</time></trkpt><trkpt lat="43.33282987722128" lon="13.291314177757002"><ele>240.4</ele><time>2026-05-02T14:33:57Z</time></trkpt><trkpt lat="43.33274120170862" lon="13.291259794742832"><ele>240.60000000000002</ele><time>2026-05-02T14:33:59Z</time></trkpt><trkpt lat="43.332629427810666" lon="13.291420945601296"><ele>240.8</ele><time>2026-05-02T14:34:01Z</time></trkpt><trkpt lat="43.33262455934819" lon="13.291515644133417"><ele>241.0</ele><time>2026-05-02T14:34:02Z</time></trkpt><trkpt lat="43.332658810811324" lon="13.291690077526718"><ele>241.0</ele><time>2026-05-02T14:34:04Z</time></trkpt><trkpt lat="43.3326794722566" lon="13.291803191822495"><ele>241.00000000000003</ele><time>2026-05-02T14:34:05Z</time></trkpt><trkpt lat="43.33268502898561" lon="13.291932811090263"><ele>241.00000000000003</ele><time>2026-05-02T14:34:06Z</time></trkpt><trkpt lat="43.33266525371145" lon="13.29205444786459"><ele>241.0</ele><time>2026-05-02T14:34:07Z</time></trkpt><trkpt lat="43.33262291026804" lon="13.29217000413836"><ele>241.0</ele><time>2026-05-02T14:34:08Z</time></trkpt><trkpt lat="43.332561095473245" lon="13.29226407705947"><ele>240.66666666666666</ele><time>2026-05-02T14:34:09Z</time></trkpt><trkpt lat="43.332489681565235" lon="13.292337435940667"><ele>240.33333333333331</ele><time>2026-05-02T14:34:10Z</time></trkpt><trkpt lat="43.332410464215656" lon="13.292317540672666"><ele>240.0</ele><time>2026-05-02T14:34:11Z</time></trkpt><trkpt lat="43.33234241727967" lon="13.292324539041816"><ele>239.66666666666669</ele><time>2026-05-02T14:34:12Z</time></trkpt><trkpt lat="43.33224699167449" lon="13.292313418645973"><ele>239.33333333333334</ele><time>2026-05-02T14:34:13Z</time></trkpt><trkpt lat="43.33214285270173" lon="13.29231409387823"><ele>239.0</ele><time>2026-05-02T14:34:14Z</time></trkpt><trkpt lat="43.33203424655591" lon="13.292317079617266"><ele>242.0</ele><time>2026-05-02T14:34:15Z</time></trkpt><trkpt lat="43.3319281927863" lon="13.292321178090983"><ele>245.0</ele><time>2026-05-02T14:34:16Z</time></trkpt><trkpt lat="43.331815562841" lon="13.292329629889185"><ele>248.0</ele><time>2026-05-02T14:34:17Z</time></trkpt><trkpt lat="43.33170034949524" lon="13.292330051458945"><ele>251.0</ele><time>2026-05-02T14:34:18Z</time></trkpt><trkpt lat="43.3315828054143" lon="13.292341451301926"><ele>251.0</ele><time>2026-05-02T14:34:19Z</time></trkpt><trkpt lat="43.33145697027849" lon="13.292322467413012"><ele>251.0</ele><time>2026-05-02T14:34:20Z</time></trkpt><trkpt lat="43.33131441521205" lon="13.292343721642192"><ele>251.0</ele><time>2026-05-02T14:34:21Z</time></trkpt><trkpt lat="43.3311448801573" lon="13.2923245759065"><ele>251.0</ele><time>2026-05-02T14:34:22Z</time></trkpt><trkpt lat="43.3309895085597" lon="13.29230614032386"><ele>252.4</ele><time>2026-05-02T14:34:23Z</time></trkpt><trkpt lat="43.33089546889812" lon="13.292342650814724"><ele>253.8</ele><time>2026-05-02T14:34:24Z</time></trkpt><trkpt lat="43.33078682676074" lon="13.292343411596008"><ele>255.20000000000002</ele><time>2026-05-02T14:34:25Z</time></trkpt><trkpt lat="43.33067462551421" lon="13.292340384741797"><ele>256.6</ele><time>2026-05-02T14:34:26Z</time></trkpt><trkpt lat="43.33056580728311" lon="13.292339661344332"><ele>258.0</ele><time>2026-05-02T14:34:27Z</time></trkpt><trkpt lat="43.33046456127836" lon="13.292334784205392"><ele>258.0</ele><time>2026-05-02T14:34:28Z</time></trkpt><trkpt lat="43.33038637887769" lon="13.292341360592506"><ele>258.0</ele><time>2026-05-02T14:34:29Z</time></trkpt><trkpt lat="43.3303054971062" lon="13.292340901781762"><ele>258.0</ele><time>2026-05-02T14:34:30Z</time></trkpt><trkpt lat="43.330226016831276" lon="13.292341289570636"><ele>258.0</ele><time>2026-05-02T14:34:31Z</time></trkpt><trkpt lat="43.33014655531949" lon="13.292340159109049"><ele>258.0</ele><time>2026-05-02T14:34:32Z</time></trkpt><trkpt lat="43.33005592322651" lon="13.292336740481085"><ele>258.0</ele><time>2026-05-02T14:34:33Z</time></trkpt><trkpt lat="43.329955003907415" lon="13.292340034336616"><ele>258.0</ele><time>2026-05-02T14:34:34Z</time></trkpt><trkpt lat="43.32984276898908" lon="13.292341916494584"><ele>258.0</ele><time>2026-05-02T14:34:35Z</time></trkpt><trkpt lat="43.32972339517609" lon="13.292336499442198"><ele>258.0</ele><time>2026-05-02T14:34:36Z</time></trkpt><trkpt lat="43.32961031035887" lon="13.292309340603625"><ele>258.0</ele><time>2026-05-02T14:34:37Z</time></trkpt><trkpt lat="43.32948197048225" lon="13.292332328093334"><ele>258.0</ele><time>2026-05-02T14:34:38Z</time></trkpt><trkpt lat="43.329359407074854" lon="13.292337035831626"><ele>258.0</ele><time>2026-05-02T14:34:39Z</time></trkpt><trkpt lat="43.32925227666464" lon="13.29233526468413"><ele>258.0</ele><time>2026-05-02T14:34:40Z</time></trkpt><trkpt lat="43.329159608733605" lon="13.292343957289255"><ele>258.0</ele><time>2026-05-02T14:34:41Z</time></trkpt><trkpt lat="43.329073448080955" lon="13.292337835558033"><ele>258.0</ele><time>2026-05-02T14:34:42Z</time></trkpt><trkpt lat="43.32900380051889" lon="13.292339236480297"><ele>258.6</ele><time>2026-05-02T14:34:43Z</time></trkpt><trkpt lat="43.32888148588252" lon="13.292336954504634"><ele>259.20000000000005</ele><time>2026-05-02T14:34:45Z</time></trkpt><trkpt lat="43.32879252328492" lon="13.292307953783599"><ele>259.8</ele><time>2026-05-02T14:34:47Z</time></trkpt><trkpt lat="43.32871786154342" lon="13.292325126126252"><ele>260.40000000000003</ele><time>2026-05-02T14:34:50Z</time></trkpt><trkpt lat="43.328621304008664" lon="13.292322668739512"><ele>261.0</ele><time>2026-05-02T14:35:17Z</time></trkpt><trkpt lat="43.328531458727234" lon="13.292344210771937"><ele>261.0</ele><time>2026-05-02T14:35:18Z</time></trkpt><trkpt lat="43.32842196231343" lon="13.292370286363665"><ele>261.0</ele><time>2026-05-02T14:35:19Z</time></trkpt><trkpt lat="43.328292269640414" lon="13.292394429303734"><ele>261.0</ele><time>2026-05-02T14:35:20Z</time></trkpt><trkpt lat="43.328152263731276" lon="13.29240661159041"><ele>261.0</ele><time>2026-05-02T14:35:21Z</time></trkpt><trkpt lat="43.32798770429363" lon="13.292438521686709"><ele>262.0</ele><time>2026-05-02T14:35:22Z</time></trkpt><trkpt lat="43.327807479207586" lon="13.292480667814901"><ele>263.0</ele><time>2026-05-02T14:35:23Z</time></trkpt><trkpt lat="43.327622316935965" lon="13.292534053537313"><ele>264.0</ele><time>2026-05-02T14:35:24Z</time></trkpt><trkpt lat="43.32743558061394" lon="13.292557028431958"><ele>264.0</ele><time>2026-05-02T14:35:25Z</time></trkpt><trkpt lat="43.32727874483907" lon="13.292616077692614"><ele>264.0</ele><time>2026-05-02T14:35:26Z</time></trkpt><trkpt lat="43.327145999486945" lon="13.29264803864853"><ele>264.0</ele><time>2026-05-02T14:35:27Z</time></trkpt><trkpt lat="43.327017704702826" lon="13.292679904664768"><ele>264.0</ele><time>2026-05-02T14:35:28Z</time></trkpt><trkpt lat="43.32688884663872" lon="13.292711946744372"><ele>263.75</ele><time>2026-05-02T14:35:29Z</time></trkpt><trkpt lat="43.326782092228875" lon="13.292745747993926"><ele>263.5</ele><time>2026-05-02T14:35:30Z</time></trkpt><trkpt lat="43.32668102572131" lon="13.29279423599137"><ele>263.25</ele><time>2026-05-02T14:35:31Z</time></trkpt><trkpt lat="43.326555064686715" lon="13.29284864073427"><ele>263.0</ele><time>2026-05-02T14:35:32Z</time></trkpt><trkpt lat="43.32641529751462" lon="13.292951176931126"><ele>263.33333333333337</ele><time>2026-05-02T14:35:33Z</time></trkpt><trkpt lat="43.3262677286522" lon="13.293072911021035"><ele>263.6666666666667</ele><time>2026-05-02T14:35:34Z</time></trkpt><trkpt lat="43.32609923805345" lon="13.293201636760648"><ele>264.0</ele><time>2026-05-02T14:35:35Z</time></trkpt><trkpt lat="43.325935318740946" lon="13.293341010677766"><ele>264.0</ele><time>2026-05-02T14:35:36Z</time></trkpt><trkpt lat="43.32573442375928" lon="13.293467497830656"><ele>264.0</ele><time>2026-05-02T14:35:37Z</time></trkpt><trkpt lat="43.3255400870588" lon="13.293569705393756"><ele>264.0</ele><time>2026-05-02T14:35:38Z</time></trkpt><trkpt lat="43.32535680977393" lon="13.293634874418228"><ele>263.6666666666667</ele><time>2026-05-02T14:35:39Z</time></trkpt><trkpt lat="43.325217588827016" lon="13.29375434734174"><ele>263.33333333333337</ele><time>2026-05-02T14:35:40Z</time></trkpt><trkpt lat="43.3250828556759" lon="13.293862102715368"><ele>263.0</ele><time>2026-05-02T14:35:41Z</time></trkpt><trkpt lat="43.324959538626494" lon="13.29398717959085"><ele>263.0</ele><time>2026-05-02T14:35:42Z</time></trkpt><trkpt lat="43.32485048599088" lon="13.294138648383978"><ele>263.0</ele><time>2026-05-02T14:35:43Z</time></trkpt><trkpt lat="43.32475230684626" lon="13.294323529408743"><ele>263.0</ele><time>2026-05-02T14:35:44Z</time></trkpt><trkpt lat="43.32466772732541" lon="13.294520016411639"><ele>258.0</ele><time>2026-05-02T14:35:45Z</time></trkpt><trkpt lat="43.324594336664255" lon="13.294703998520735"><ele>253.0</ele><time>2026-05-02T14:35:46Z</time></trkpt><trkpt lat="43.32452462830872" lon="13.294896991714843"><ele>248.0</ele><time>2026-05-02T14:35:47Z</time></trkpt><trkpt lat="43.324452749803044" lon="13.295114961209743"><ele>248.0</ele><time>2026-05-02T14:35:48Z</time></trkpt><trkpt lat="43.32439932569766" lon="13.295362336877115"><ele>248.0</ele><time>2026-05-02T14:35:49Z</time></trkpt><trkpt lat="43.32436746413171" lon="13.295628139824846"><ele>248.0</ele><time>2026-05-02T14:35:50Z</time></trkpt><trkpt lat="43.32432677390634" lon="13.295905553942388"><ele>247.0</ele><time>2026-05-02T14:35:51Z</time></trkpt><trkpt lat="43.32431348876928" lon="13.296194002514637"><ele>246.0</ele><time>2026-05-02T14:35:52Z</time></trkpt><trkpt lat="43.32428862177422" lon="13.296420119458304"><ele>245.0</ele><time>2026-05-02T14:35:53Z</time></trkpt><trkpt lat="43.32426185291191" lon="13.296630965431499"><ele>244.0</ele><time>2026-05-02T14:35:54Z</time></trkpt><trkpt lat="43.32426268409491" lon="13.296804263565727"><ele>243.0</ele><time>2026-05-02T14:35:55Z</time></trkpt><trkpt lat="43.32429419977912" lon="13.296968348205555"><ele>242.0</ele><time>2026-05-02T14:35:56Z</time></trkpt><trkpt lat="43.324331701669756" lon="13.29718393031113"><ele>241.0</ele><time>2026-05-02T14:35:57Z</time></trkpt><trkpt lat="43.32433466372233" lon="13.29737864415843"><ele>239.5</ele><time>2026-05-02T14:35:58Z</time></trkpt><trkpt lat="43.32434328777741" lon="13.297530818709903"><ele>238.0</ele><time>2026-05-02T14:35:59Z</time></trkpt><trkpt lat="43.324260307413134" lon="13.297694276798305"><ele>236.5</ele><time>2026-05-02T14:36:00Z</time></trkpt><trkpt lat="43.32417443678069" lon="13.297899314257549"><ele>235.0</ele><time>2026-05-02T14:36:01Z</time></trkpt><trkpt lat="43.32405385395365" lon="13.298097058734125"><ele>233.33333333333331</ele><time>2026-05-02T14:36:02Z</time></trkpt><trkpt lat="43.32393427566733" lon="13.298333920913954"><ele>231.66666666666669</ele><time>2026-05-02T14:36:03Z</time></trkpt><trkpt lat="43.32379497769247" lon="13.29857015323734"><ele>230.0</ele><time>2026-05-02T14:36:04Z</time></trkpt><trkpt lat="43.32365309777949" lon="13.298838910400638"><ele>225.0</ele><time>2026-05-02T14:36:05Z</time></trkpt><trkpt lat="43.32352118078709" lon="13.299124695046126"><ele>220.0</ele><time>2026-05-02T14:36:06Z</time></trkpt><trkpt lat="43.32338651292702" lon="13.299387654802176"><ele>220.0</ele><time>2026-05-02T14:36:07Z</time></trkpt><trkpt lat="43.32329769158997" lon="13.299628016898744"><ele>220.0</ele><time>2026-05-02T14:36:08Z</time></trkpt><trkpt lat="43.32318262724933" lon="13.299861631961166"><ele>220.0</ele><time>2026-05-02T14:36:09Z</time></trkpt><trkpt lat="43.32308685036065" lon="13.300080712164807"><ele>219.0</ele><time>2026-05-02T14:36:10Z</time></trkpt><trkpt lat="43.32301091348597" lon="13.300278241203864"><ele>218.0</ele><time>2026-05-02T14:36:11Z</time></trkpt><trkpt lat="43.322947636314034" lon="13.300490142574155"><ele>217.0</ele><time>2026-05-02T14:36:12Z</time></trkpt><trkpt lat="43.32288482928659" lon="13.300714461927809"><ele>217.0</ele><time>2026-05-02T14:36:13Z</time></trkpt><trkpt lat="43.32285107890862" lon="13.30096821923362"><ele>217.0</ele><time>2026-05-02T14:36:14Z</time></trkpt><trkpt lat="43.32279520867601" lon="13.301200901458813"><ele>217.0</ele><time>2026-05-02T14:36:15Z</time></trkpt><trkpt lat="43.32275143714736" lon="13.301419066285101"><ele>217.0</ele><time>2026-05-02T14:36:16Z</time></trkpt><trkpt lat="43.322694780345074" lon="13.30158983687164"><ele>217.0</ele><time>2026-05-02T14:36:17Z</time></trkpt><trkpt lat="43.32264543417512" lon="13.301749471221694"><ele>217.0</ele><time>2026-05-02T14:36:18Z</time></trkpt><trkpt lat="43.32260018211914" lon="13.301895861129712"><ele>217.0</ele><time>2026-05-02T14:36:19Z</time></trkpt><trkpt lat="43.32255477148669" lon="13.30205098181494"><ele>217.0</ele><time>2026-05-02T14:36:20Z</time></trkpt><trkpt lat="43.32249938470029" lon="13.302205013360197"><ele>217.0</ele><time>2026-05-02T14:36:21Z</time></trkpt><trkpt lat="43.32244964104422" lon="13.302375830559404"><ele>217.0</ele><time>2026-05-02T14:36:22Z</time></trkpt><trkpt lat="43.3223976908839" lon="13.302553525640171"><ele>217.0</ele><time>2026-05-02T14:36:23Z</time></trkpt><trkpt lat="43.32235778887977" lon="13.302763098166643"><ele>217.0</ele><time>2026-05-02T14:36:24Z</time></trkpt><trkpt lat="43.32232465810701" lon="13.30298141940427"><ele>217.0</ele><time>2026-05-02T14:36:25Z</time></trkpt><trkpt lat="43.32229950265437" lon="13.30319971854324"><ele>217.0</ele><time>2026-05-02T14:36:26Z</time></trkpt><trkpt lat="43.32226085626059" lon="13.303411076266272"><ele>214.33333333333331</ele><time>2026-05-02T14:36:27Z</time></trkpt><trkpt lat="43.322221722813815" lon="13.30360876807177"><ele>211.66666666666669</ele><time>2026-05-02T14:36:28Z</time></trkpt><trkpt lat="43.32216790306499" lon="13.303804492434427"><ele>209.0</ele><time>2026-05-02T14:36:29Z</time></trkpt><trkpt lat="43.32210401783528" lon="13.303995407285583"><ele>209.0</ele><time>2026-05-02T14:36:30Z</time></trkpt><trkpt lat="43.32202356673286" lon="13.304172281206528"><ele>209.0</ele><time>2026-05-02T14:36:31Z</time></trkpt><trkpt lat="43.32193364454319" lon="13.304346797699921"><ele>209.0</ele><time>2026-05-02T14:36:32Z</time></trkpt><trkpt lat="43.321821627571076" lon="13.30450940289438"><ele>209.0</ele><time>2026-05-02T14:36:33Z</time></trkpt><trkpt lat="43.32168695365159" lon="13.304626809222432"><ele>209.0</ele><time>2026-05-02T14:36:34Z</time></trkpt><trkpt lat="43.32155584709717" lon="13.304767809886092"><ele>209.0</ele><time>2026-05-02T14:36:35Z</time></trkpt><trkpt lat="43.32143336356026" lon="13.304920385559887"><ele>209.33333333333334</ele><time>2026-05-02T14:36:36Z</time></trkpt><trkpt lat="43.321319345783635" lon="13.30509654443953"><ele>209.66666666666669</ele><time>2026-05-02T14:36:37Z</time></trkpt><trkpt lat="43.32122175412541" lon="13.305273553681854"><ele>210.0</ele><time>2026-05-02T14:36:38Z</time></trkpt><trkpt lat="43.32112986192881" lon="13.305425061125792"><ele>210.0</ele><time>2026-05-02T14:36:39Z</time></trkpt><trkpt lat="43.32104188925031" lon="13.305552906452704"><ele>210.0</ele><time>2026-05-02T14:36:40Z</time></trkpt><trkpt lat="43.32091345155557" lon="13.305622858819834"><ele>210.0</ele><time>2026-05-02T14:36:41Z</time></trkpt><trkpt lat="43.32077664718262" lon="13.305683765796996"><ele>210.0</ele><time>2026-05-02T14:36:42Z</time></trkpt><trkpt lat="43.3206267739831" lon="13.305742461206513"><ele>209.75</ele><time>2026-05-02T14:36:43Z</time></trkpt><trkpt lat="43.320479201956466" lon="13.305816797655801"><ele>209.5</ele><time>2026-05-02T14:36:44Z</time></trkpt><trkpt lat="43.32033303635401" lon="13.305860254230998"><ele>209.25</ele><time>2026-05-02T14:36:45Z</time></trkpt><trkpt lat="43.32020889361612" lon="13.305905855174222"><ele>209.0</ele><time>2026-05-02T14:36:46Z</time></trkpt><trkpt lat="43.32006745667104" lon="13.305919349741883"><ele>209.0</ele><time>2026-05-02T14:36:47Z</time></trkpt><trkpt lat="43.319913868101445" lon="13.305897534156411"><ele>209.0</ele><time>2026-05-02T14:36:48Z</time></trkpt><trkpt lat="43.319798319569195" lon="13.305854433482624"><ele>209.0</ele><time>2026-05-02T14:36:49Z</time></trkpt><trkpt lat="43.31964446296396" lon="13.305830741527972"><ele>209.0</ele><time>2026-05-02T14:36:50Z</time></trkpt><trkpt lat="43.319475580214906" lon="13.30588527178207"><ele>212.0</ele><time>2026-05-02T14:36:51Z</time></trkpt><trkpt lat="43.31932987703298" lon="13.305958178869345"><ele>215.0</ele><time>2026-05-02T14:36:52Z</time></trkpt><trkpt lat="43.31916267110814" lon="13.30608798497372"><ele>218.0</ele><time>2026-05-02T14:36:53Z</time></trkpt><trkpt lat="43.31899451464224" lon="13.306260227950924"><ele>221.33333333333334</ele><time>2026-05-02T14:36:54Z</time></trkpt><trkpt lat="43.318819481368344" lon="13.306432094846533"><ele>224.66666666666669</ele><time>2026-05-02T14:36:55Z</time></trkpt><trkpt lat="43.318649320792666" lon="13.306645733956705"><ele>228.0</ele><time>2026-05-02T14:36:56Z</time></trkpt><trkpt lat="43.318445829945" lon="13.306853037948233"><ele>228.0</ele><time>2026-05-02T14:36:57Z</time></trkpt><trkpt lat="43.31821133507687" lon="13.307099983727387"><ele>228.0</ele><time>2026-05-02T14:36:58Z</time></trkpt><trkpt lat="43.31801072710743" lon="13.307305288280102"><ele>228.0</ele><time>2026-05-02T14:36:59Z</time></trkpt><trkpt lat="43.31783271803333" lon="13.307490599879676"><ele>228.0</ele><time>2026-05-02T14:37:00Z</time></trkpt><trkpt lat="43.31768627367027" lon="13.3076247999772"><ele>228.0</ele><time>2026-05-02T14:37:01Z</time></trkpt><trkpt lat="43.31756736923534" lon="13.307793967124901"><ele>228.0</ele><time>2026-05-02T14:37:02Z</time></trkpt><trkpt lat="43.317453838116435" lon="13.307883005207433"><ele>228.0</ele><time>2026-05-02T14:37:03Z</time></trkpt><trkpt lat="43.31739743732614" lon="13.30801350712003"><ele>228.0</ele><time>2026-05-02T14:37:04Z</time></trkpt><trkpt lat="43.317343534095464" lon="13.308121627434527"><ele>228.0</ele><time>2026-05-02T14:37:05Z</time></trkpt><trkpt lat="43.31730117507928" lon="13.308208015922842"><ele>228.0</ele><time>2026-05-02T14:37:06Z</time></trkpt><trkpt lat="43.31725955062081" lon="13.308293071270334"><ele>230.5</ele><time>2026-05-02T14:37:07Z</time></trkpt><trkpt lat="43.31721933695537" lon="13.308375243853208"><ele>233.0</ele><time>2026-05-02T14:37:08Z</time></trkpt><trkpt lat="43.31705195736061" lon="13.30831412224075"><ele>235.5</ele><time>2026-05-02T14:37:09Z</time></trkpt><trkpt lat="43.31691539227167" lon="13.308322599844255"><ele>238.0</ele><time>2026-05-02T14:37:10Z</time></trkpt><trkpt lat="43.31674284495661" lon="13.308323396857201"><ele>238.0</ele><time>2026-05-02T14:37:11Z</time></trkpt><trkpt lat="43.316533488913656" lon="13.308292703311057"><ele>238.0</ele><time>2026-05-02T14:37:12Z</time></trkpt><trkpt lat="43.31631892244784" lon="13.308279243596557"><ele>238.0</ele><time>2026-05-02T14:37:13Z</time></trkpt><trkpt lat="43.31612869278118" lon="13.30825190973396"><ele>239.0</ele><time>2026-05-02T14:37:14Z</time></trkpt><trkpt lat="43.315975456735664" lon="13.308278477528834"><ele>240.0</ele><time>2026-05-02T14:37:15Z</time></trkpt><trkpt lat="43.31581001348592" lon="13.30838348525509"><ele>241.0</ele><time>2026-05-02T14:37:16Z</time></trkpt><trkpt lat="43.315631738247966" lon="13.308548588433432"><ele>245.0</ele><time>2026-05-02T14:37:17Z</time></trkpt><trkpt lat="43.315467518809925" lon="13.308705818239922"><ele>249.0</ele><time>2026-05-02T14:37:18Z</time></trkpt><trkpt lat="43.31531552908505" lon="13.308792090093831"><ele>253.0</ele><time>2026-05-02T14:37:19Z</time></trkpt><trkpt lat="43.31517100559968" lon="13.308807935500692"><ele>253.0</ele><time>2026-05-02T14:37:20Z</time></trkpt><trkpt lat="43.31502833795192" lon="13.308766907016837"><ele>253.0</ele><time>2026-05-02T14:37:21Z</time></trkpt><trkpt lat="43.314896407631906" lon="13.308702524742268"><ele>253.0</ele><time>2026-05-02T14:37:22Z</time></trkpt><trkpt lat="43.314802948709996" lon="13.308603979604097"><ele>253.0</ele><time>2026-05-02T14:37:23Z</time></trkpt><trkpt lat="43.31475643461148" lon="13.308465827525332"><ele>253.0</ele><time>2026-05-02T14:37:24Z</time></trkpt><trkpt lat="43.31478045115137" lon="13.308299217159831"><ele>253.0</ele><time>2026-05-02T14:37:25Z</time></trkpt><trkpt lat="43.3148336618958" lon="13.308039707373432"><ele>253.0</ele><time>2026-05-02T14:37:26Z</time></trkpt><trkpt lat="43.31485805944326" lon="13.307835499919884"><ele>253.0</ele><time>2026-05-02T14:37:27Z</time></trkpt><trkpt lat="43.31480370827383" lon="13.307675865631284"><ele>253.0</ele><time>2026-05-02T14:37:28Z</time></trkpt><trkpt lat="43.31469151539314" lon="13.307522916529429"><ele>253.0</ele><time>2026-05-02T14:37:29Z</time></trkpt><trkpt lat="43.31453772124741" lon="13.307394162565094"><ele>257.66666666666663</ele><time>2026-05-02T14:37:30Z</time></trkpt><trkpt lat="43.31434170734069" lon="13.307258507462505"><ele>262.3333333333333</ele><time>2026-05-02T14:37:31Z</time></trkpt><trkpt lat="43.314152113029145" lon="13.307099577381159"><ele>267.0</ele><time>2026-05-02T14:37:32Z</time></trkpt><trkpt lat="43.3139619161876" lon="13.306924445416366"><ele>272.0</ele><time>2026-05-02T14:37:33Z</time></trkpt><trkpt lat="43.31377453535447" lon="13.30671976947063"><ele>277.0</ele><time>2026-05-02T14:37:34Z</time></trkpt><trkpt lat="43.31361739084045" lon="13.306525265410423"><ele>277.66666666666663</ele><time>2026-05-02T14:37:35Z</time></trkpt><trkpt lat="43.31347642840714" lon="13.30636837229406"><ele>278.3333333333333</ele><time>2026-05-02T14:37:36Z</time></trkpt><trkpt lat="43.31333447834387" lon="13.306271554423361"><ele>279.0</ele><time>2026-05-02T14:37:37Z</time></trkpt><trkpt lat="43.31320771534237" lon="13.306237155242934"><ele>279.0</ele><time>2026-05-02T14:37:38Z</time></trkpt><trkpt lat="43.31308615895136" lon="13.306225280233908"><ele>279.0</ele><time>2026-05-02T14:37:39Z</time></trkpt><trkpt lat="43.31298460179318" lon="13.30625007958758"><ele>279.0</ele><time>2026-05-02T14:37:40Z</time></trkpt><trkpt lat="43.312914948700545" lon="13.306243805712949"><ele>279.0</ele><time>2026-05-02T14:37:41Z</time></trkpt><trkpt lat="43.312857084938614" lon="13.306131201578388"><ele>279.0</ele><time>2026-05-02T14:37:42Z</time></trkpt><trkpt lat="43.31277384921624" lon="13.306056424934791"><ele>276.6666666666667</ele><time>2026-05-02T14:37:43Z</time></trkpt><trkpt lat="43.312795411470695" lon="13.305784021713263"><ele>274.33333333333337</ele><time>2026-05-02T14:37:44Z</time></trkpt><trkpt lat="43.31279763247163" lon="13.30558972335073"><ele>272.0</ele><time>2026-05-02T14:37:45Z</time></trkpt><trkpt lat="43.31277737897788" lon="13.30535793702692"><ele>272.0</ele><time>2026-05-02T14:37:46Z</time></trkpt><trkpt lat="43.31276631589892" lon="13.305129855134474"><ele>272.0</ele><time>2026-05-02T14:37:47Z</time></trkpt><trkpt lat="43.312753213215906" lon="13.304717465342359"><ele>273.0</ele><time>2026-05-02T14:37:48Z</time></trkpt><trkpt lat="43.31276293633106" lon="13.304378256511972"><ele>274.0</ele><time>2026-05-02T14:37:49Z</time></trkpt><trkpt lat="43.312801626629174" lon="13.30404264836854"><ele>274.0</ele><time>2026-05-02T14:37:50Z</time></trkpt><trkpt lat="43.312837594770784" lon="13.303761145675209"><ele>274.0</ele><time>2026-05-02T14:37:51Z</time></trkpt><trkpt lat="43.31286003180252" lon="13.30349829415112"><ele>274.0</ele><time>2026-05-02T14:37:52Z</time></trkpt><trkpt lat="43.3128936946678" lon="13.303275691470722"><ele>273.66666666666663</ele><time>2026-05-02T14:37:53Z</time></trkpt><trkpt lat="43.31294993348866" lon="13.303062962862777"><ele>273.3333333333333</ele><time>2026-05-02T14:37:54Z</time></trkpt><trkpt lat="43.31300527965463" lon="13.302834343271469"><ele>273.0</ele><time>2026-05-02T14:37:55Z</time></trkpt><trkpt lat="43.313070567845536" lon="13.302604933369619"><ele>276.0</ele><time>2026-05-02T14:37:56Z</time></trkpt><trkpt lat="43.313120357038954" lon="13.30239852524505"><ele>279.0</ele><time>2026-05-02T14:37:57Z</time></trkpt><trkpt lat="43.31318216836042" lon="13.302219559022257"><ele>282.0</ele><time>2026-05-02T14:37:58Z</time></trkpt><trkpt lat="43.313243578259964" lon="13.302049868419443"><ele>285.0</ele><time>2026-05-02T14:37:59Z</time></trkpt><trkpt lat="43.313303212490645" lon="13.301904418284382"><ele>285.0</ele><time>2026-05-02T14:38:00Z</time></trkpt><trkpt lat="43.31334028174552" lon="13.30176665390597"><ele>285.0</ele><time>2026-05-02T14:38:01Z</time></trkpt><trkpt lat="43.31339063647103" lon="13.301623183408172"><ele>285.0</ele><time>2026-05-02T14:38:02Z</time></trkpt><trkpt lat="43.31343934038982" lon="13.301473822045077"><ele>285.0</ele><time>2026-05-02T14:38:03Z</time></trkpt><trkpt lat="43.31349169510688" lon="13.301327735027199"><ele>284.0</ele><time>2026-05-02T14:38:04Z</time></trkpt><trkpt lat="43.31354904383438" lon="13.301178992103246"><ele>283.0</ele><time>2026-05-02T14:38:05Z</time></trkpt><trkpt lat="43.31360332690005" lon="13.301031579504249"><ele>282.0</ele><time>2026-05-02T14:38:06Z</time></trkpt><trkpt lat="43.31365812168049" lon="13.300884098527572"><ele>281.0</ele><time>2026-05-02T14:38:07Z</time></trkpt><trkpt lat="43.3137239874237" lon="13.300746083327684"><ele>281.0</ele><time>2026-05-02T14:38:08Z</time></trkpt><trkpt lat="43.31380355257622" lon="13.300613283887387"><ele>281.0</ele><time>2026-05-02T14:38:09Z</time></trkpt><trkpt lat="43.313890896886676" lon="13.300501504307217"><ele>281.0</ele><time>2026-05-02T14:38:10Z</time></trkpt><trkpt lat="43.31398482412922" lon="13.30039849459043"><ele>281.0</ele><time>2026-05-02T14:38:11Z</time></trkpt><trkpt lat="43.31410063960417" lon="13.300282349552354"><ele>280.75</ele><time>2026-05-02T14:38:12Z</time></trkpt><trkpt lat="43.31422129811509" lon="13.300186530613338"><ele>280.5</ele><time>2026-05-02T14:38:13Z</time></trkpt><trkpt lat="43.31435277681545" lon="13.300075463622631"><ele>280.25</ele><time>2026-05-02T14:38:14Z</time></trkpt><trkpt lat="43.314480981621905" lon="13.299959953759714"><ele>280.0</ele><time>2026-05-02T14:38:15Z</time></trkpt><trkpt lat="43.314612977360795" lon="13.299855339116764"><ele>279.66666666666663</ele><time>2026-05-02T14:38:16Z</time></trkpt><trkpt lat="43.314741188648924" lon="13.299741696164421"><ele>279.3333333333333</ele><time>2026-05-02T14:38:17Z</time></trkpt><trkpt lat="43.31487185705465" lon="13.299624705989354"><ele>279.0</ele><time>2026-05-02T14:38:18Z</time></trkpt><trkpt lat="43.31500101203843" lon="13.299515986933006"><ele>279.0</ele><time>2026-05-02T14:38:19Z</time></trkpt><trkpt lat="43.3151258733364" lon="13.299408524567168"><ele>279.0</ele><time>2026-05-02T14:38:20Z</time></trkpt><trkpt lat="43.315246926556604" lon="13.299296314448938"><ele>279.0</ele><time>2026-05-02T14:38:21Z</time></trkpt><trkpt lat="43.315360350508655" lon="13.299183749688424"><ele>279.0</ele><time>2026-05-02T14:38:22Z</time></trkpt><trkpt lat="43.3154685911428" lon="13.299078432794895"><ele>278.75</ele><time>2026-05-02T14:38:23Z</time></trkpt><trkpt lat="43.3155725009592" lon="13.298962643260854"><ele>278.5</ele><time>2026-05-02T14:38:24Z</time></trkpt><trkpt lat="43.31567802116288" lon="13.298837245536198"><ele>278.25</ele><time>2026-05-02T14:38:25Z</time></trkpt><trkpt lat="43.315787178604964" lon="13.29870292400747"><ele>278.0</ele><time>2026-05-02T14:38:26Z</time></trkpt><trkpt lat="43.3159092841597" lon="13.298556551102616"><ele>278.0</ele><time>2026-05-02T14:38:27Z</time></trkpt><trkpt lat="43.31604536552291" lon="13.298396792601135"><ele>278.0</ele><time>2026-05-02T14:38:28Z</time></trkpt><trkpt lat="43.316184199309454" lon="13.298238457959634"><ele>278.0</ele><time>2026-05-02T14:38:29Z</time></trkpt><trkpt lat="43.31631409173571" lon="13.298061943759974"><ele>279.33333333333337</ele><time>2026-05-02T14:38:30Z</time></trkpt><trkpt lat="43.31644708192629" lon="13.29790297218922"><ele>280.6666666666667</ele><time>2026-05-02T14:38:31Z</time></trkpt><trkpt lat="43.31654702652042" lon="13.297696217950175"><ele>282.0</ele><time>2026-05-02T14:38:32Z</time></trkpt><trkpt lat="43.31662879254469" lon="13.29748932583855"><ele>282.0</ele><time>2026-05-02T14:38:33Z</time></trkpt><trkpt lat="43.316692443199976" lon="13.297300924478552"><ele>282.0</ele><time>2026-05-02T14:38:34Z</time></trkpt><trkpt lat="43.316759268603214" lon="13.297099372582904"><ele>282.0</ele><time>2026-05-02T14:38:35Z</time></trkpt><trkpt lat="43.31682044313528" lon="13.296902800860963"><ele>282.0</ele><time>2026-05-02T14:38:36Z</time></trkpt><trkpt lat="43.31687792911287" lon="13.296726239773044"><ele>282.0</ele><time>2026-05-02T14:38:37Z</time></trkpt><trkpt lat="43.316928287745306" lon="13.296574843556863"><ele>282.0</ele><time>2026-05-02T14:38:38Z</time></trkpt><trkpt lat="43.31697827908398" lon="13.296443011030807"><ele>282.0</ele><time>2026-05-02T14:38:39Z</time></trkpt><trkpt lat="43.31701894496492" lon="13.296324755914332"><ele>282.0</ele><time>2026-05-02T14:38:40Z</time></trkpt><trkpt lat="43.317058307925755" lon="13.296207449165477"><ele>282.0</ele><time>2026-05-02T14:38:41Z</time></trkpt><trkpt lat="43.31709806267861" lon="13.296089941543963"><ele>282.0</ele><time>2026-05-02T14:38:42Z</time></trkpt><trkpt lat="43.31714024915052" lon="13.29596198820598"><ele>282.0</ele><time>2026-05-02T14:38:43Z</time></trkpt><trkpt lat="43.31719037913306" lon="13.295842117696848"><ele>282.0</ele><time>2026-05-02T14:38:44Z</time></trkpt><trkpt lat="43.31724017939949" lon="13.29571078486593"><ele>283.6</ele><time>2026-05-02T14:38:45Z</time></trkpt><trkpt lat="43.317298098485146" lon="13.295574961760337"><ele>285.2</ele><time>2026-05-02T14:38:46Z</time></trkpt><trkpt lat="43.31735519447877" lon="13.295443125384846"><ele>286.8</ele><time>2026-05-02T14:38:47Z</time></trkpt><trkpt lat="43.31741174862767" lon="13.295311719599413"><ele>288.4</ele><time>2026-05-02T14:38:48Z</time></trkpt><trkpt lat="43.31746455112221" lon="13.29518283168611"><ele>290.0</ele><time>2026-05-02T14:38:49Z</time></trkpt><trkpt lat="43.317512682701526" lon="13.295058124740189"><ele>290.0</ele><time>2026-05-02T14:38:50Z</time></trkpt><trkpt lat="43.31755903075112" lon="13.294937850736751"><ele>290.0</ele><time>2026-05-02T14:38:51Z</time></trkpt><trkpt lat="43.31760306850208" lon="13.294816532541693"><ele>290.0</ele><time>2026-05-02T14:38:52Z</time></trkpt><trkpt lat="43.31764372504873" lon="13.294698547131416"><ele>290.0</ele><time>2026-05-02T14:38:53Z</time></trkpt><trkpt lat="43.317678116211454" lon="13.294588580229382"><ele>290.0</ele><time>2026-05-02T14:38:54Z</time></trkpt><trkpt lat="43.31768974290113" lon="13.294439174402953"><ele>291.0</ele><time>2026-05-02T14:38:55Z</time></trkpt><trkpt lat="43.31768463297418" lon="13.294285146867168"><ele>292.0</ele><time>2026-05-02T14:38:56Z</time></trkpt><trkpt lat="43.3176682098605" lon="13.294126434599251"><ele>293.0</ele><time>2026-05-02T14:38:57Z</time></trkpt><trkpt lat="43.31765888197004" lon="13.293948585353318"><ele>294.0</ele><time>2026-05-02T14:38:58Z</time></trkpt><trkpt lat="43.3176471886686" lon="13.293760378170543"><ele>294.0</ele><time>2026-05-02T14:38:59Z</time></trkpt><trkpt lat="43.31763992846233" lon="13.29354242965255"><ele>294.0</ele><time>2026-05-02T14:39:00Z</time></trkpt><trkpt lat="43.31763303473416" lon="13.293307860270257"><ele>294.0</ele><time>2026-05-02T14:39:01Z</time></trkpt><trkpt lat="43.3176209200273" lon="13.2930576117717"><ele>294.0</ele><time>2026-05-02T14:39:02Z</time></trkpt><trkpt lat="43.31761592635192" lon="13.292778884582036"><ele>294.0</ele><time>2026-05-02T14:39:03Z</time></trkpt><trkpt lat="43.31762872463607" lon="13.292475196124569"><ele>294.0</ele><time>2026-05-02T14:39:04Z</time></trkpt><trkpt lat="43.31766198064747" lon="13.29216044756117"><ele>294.6666666666667</ele><time>2026-05-02T14:39:05Z</time></trkpt><trkpt lat="43.31770301092753" lon="13.291838921139284"><ele>295.33333333333337</ele><time>2026-05-02T14:39:06Z</time></trkpt><trkpt lat="43.31773088429827" lon="13.291552646561012"><ele>296.0</ele><time>2026-05-02T14:39:07Z</time></trkpt><trkpt lat="43.31773791800482" lon="13.291287358146512"><ele>297.33333333333337</ele><time>2026-05-02T14:39:08Z</time></trkpt><trkpt lat="43.31771885451804" lon="13.29102786312788"><ele>298.6666666666667</ele><time>2026-05-02T14:39:09Z</time></trkpt><trkpt lat="43.31766289606355" lon="13.290772435804131"><ele>300.0</ele><time>2026-05-02T14:39:10Z</time></trkpt><trkpt lat="43.31759488458374" lon="13.290522507306932"><ele>300.0</ele><time>2026-05-02T14:39:11Z</time></trkpt><trkpt lat="43.31753181323446" lon="13.290292431721417"><ele>300.0</ele><time>2026-05-02T14:39:12Z</time></trkpt><trkpt lat="43.31748097683289" lon="13.290094005930392"><ele>300.0</ele><time>2026-05-02T14:39:13Z</time></trkpt><trkpt lat="43.317442523343196" lon="13.289910407348508"><ele>299.75</ele><time>2026-05-02T14:39:14Z</time></trkpt><trkpt lat="43.31743545816369" lon="13.289724680412052"><ele>299.5</ele><time>2026-05-02T14:39:15Z</time></trkpt><trkpt lat="43.31746724486639" lon="13.289519710110206"><ele>299.25</ele><time>2026-05-02T14:39:16Z</time></trkpt><trkpt lat="43.317532885517025" lon="13.289319162225222"><ele>299.0</ele><time>2026-05-02T14:39:17Z</time></trkpt><trkpt lat="43.31760642306675" lon="13.289108227917623"><ele>300.0</ele><time>2026-05-02T14:39:18Z</time></trkpt><trkpt lat="43.317641608853904" lon="13.288891908552426"><ele>301.0</ele><time>2026-05-02T14:39:19Z</time></trkpt><trkpt lat="43.317650290966824" lon="13.288644218784544"><ele>302.0</ele><time>2026-05-02T14:39:20Z</time></trkpt><trkpt lat="43.31762420891586" lon="13.28837482940894"><ele>303.0</ele><time>2026-05-02T14:39:21Z</time></trkpt><trkpt lat="43.31760138391852" lon="13.288088442269922"><ele>304.0</ele><time>2026-05-02T14:39:22Z</time></trkpt><trkpt lat="43.31758533959793" lon="13.28777801634046"><ele>305.0</ele><time>2026-05-02T14:39:23Z</time></trkpt><trkpt lat="43.31759469123108" lon="13.287456621690763"><ele>307.0</ele><time>2026-05-02T14:39:24Z</time></trkpt><trkpt lat="43.31760749748737" lon="13.28712988046715"><ele>309.0</ele><time>2026-05-02T14:39:25Z</time></trkpt><trkpt lat="43.317629807825924" lon="13.286782687957828"><ele>310.0</ele><time>2026-05-02T14:39:26Z</time></trkpt><trkpt lat="43.31765587496614" lon="13.286418118160475"><ele>311.0</ele><time>2026-05-02T14:39:27Z</time></trkpt><trkpt lat="43.31769261060982" lon="13.286060940632057"><ele>311.0</ele><time>2026-05-02T14:39:28Z</time></trkpt><trkpt lat="43.31773510666601" lon="13.285708827258786"><ele>311.0</ele><time>2026-05-02T14:39:29Z</time></trkpt><trkpt lat="43.3177907714478" lon="13.285339738640413"><ele>312.5</ele><time>2026-05-02T14:39:30Z</time></trkpt><trkpt lat="43.317840294313285" lon="13.284970788708252"><ele>314.0</ele><time>2026-05-02T14:39:31Z</time></trkpt><trkpt lat="43.31788194345984" lon="13.284607032658094"><ele>315.5</ele><time>2026-05-02T14:39:32Z</time></trkpt><trkpt lat="43.31792639897107" lon="13.284229642126572"><ele>317.0</ele><time>2026-05-02T14:39:33Z</time></trkpt><trkpt lat="43.317962740700516" lon="13.283862301365588"><ele>319.0</ele><time>2026-05-02T14:39:34Z</time></trkpt><trkpt lat="43.31798204169681" lon="13.28349217552901"><ele>321.0</ele><time>2026-05-02T14:39:35Z</time></trkpt><trkpt lat="43.317980418115084" lon="13.283123859077829"><ele>323.0</ele><time>2026-05-02T14:39:36Z</time></trkpt><trkpt lat="43.317966364793186" lon="13.282761087602632"><ele>325.0</ele><time>2026-05-02T14:39:37Z</time></trkpt><trkpt lat="43.31793012176652" lon="13.282398679469091"><ele>326.5</ele><time>2026-05-02T14:39:38Z</time></trkpt><trkpt lat="43.31787305095101" lon="13.282041277794471"><ele>328.0</ele><time>2026-05-02T14:39:39Z</time></trkpt><trkpt lat="43.317811563949554" lon="13.281674254095362"><ele>328.5</ele><time>2026-05-02T14:39:40Z</time></trkpt><trkpt lat="43.317739801580636" lon="13.281314333020818"><ele>329.0</ele><time>2026-05-02T14:39:41Z</time></trkpt><trkpt lat="43.31768343992341" lon="13.280979004570783"><ele>329.0</ele><time>2026-05-02T14:39:42Z</time></trkpt><trkpt lat="43.31763577038303" lon="13.280659969763809"><ele>329.0</ele><time>2026-05-02T14:39:43Z</time></trkpt><trkpt lat="43.317588619803225" lon="13.28033403327582"><ele>329.33333333333337</ele><time>2026-05-02T14:39:44Z</time></trkpt><trkpt lat="43.31754123964602" lon="13.280048777139468"><ele>329.6666666666667</ele><time>2026-05-02T14:39:45Z</time></trkpt><trkpt lat="43.317490204050834" lon="13.279748414063535"><ele>330.0</ele><time>2026-05-02T14:39:46Z</time></trkpt><trkpt lat="43.31745689853966" lon="13.2794448566964"><ele>330.5</ele><time>2026-05-02T14:39:47Z</time></trkpt><trkpt lat="43.317418139109385" lon="13.27912946900046"><ele>331.0</ele><time>2026-05-02T14:39:48Z</time></trkpt><trkpt lat="43.31738708196727" lon="13.27882179251007"><ele>332.0</ele><time>2026-05-02T14:39:49Z</time></trkpt><trkpt lat="43.31735649583193" lon="13.278496948064468"><ele>333.0</ele><time>2026-05-02T14:39:50Z</time></trkpt><trkpt lat="43.317325380397165" lon="13.278166695588506"><ele>332.6666666666667</ele><time>2026-05-02T14:39:51Z</time></trkpt><trkpt lat="43.31729491222007" lon="13.277853823445966"><ele>332.33333333333337</ele><time>2026-05-02T14:39:52Z</time></trkpt><trkpt lat="43.31725252406221" lon="13.27757597046234"><ele>332.0</ele><time>2026-05-02T14:39:53Z</time></trkpt><trkpt lat="43.31717830266262" lon="13.2772993196945"><ele>333.0</ele><time>2026-05-02T14:39:54Z</time></trkpt><trkpt lat="43.317086401680434" lon="13.277011055698367"><ele>334.0</ele><time>2026-05-02T14:39:55Z</time></trkpt><trkpt lat="43.31699120801883" lon="13.276709646562255"><ele>335.5</ele><time>2026-05-02T14:39:56Z</time></trkpt><trkpt lat="43.31690536974614" lon="13.27639011305605"><ele>337.0</ele><time>2026-05-02T14:39:57Z</time></trkpt><trkpt lat="43.31684158204396" lon="13.276050617806218"><ele>337.0</ele><time>2026-05-02T14:39:58Z</time></trkpt><trkpt lat="43.31676244469873" lon="13.275724014370521"><ele>337.0</ele><time>2026-05-02T14:39:59Z</time></trkpt><trkpt lat="43.31670291493202" lon="13.275392566384829"><ele>340.5</ele><time>2026-05-02T14:40:00Z</time></trkpt><trkpt lat="43.31666094563578" lon="13.275078791093389"><ele>344.0</ele><time>2026-05-02T14:40:01Z</time></trkpt><trkpt lat="43.31665423339604" lon="13.274773196541064"><ele>345.5</ele><time>2026-05-02T14:40:02Z</time></trkpt><trkpt lat="43.31664378449564" lon="13.274468292247045"><ele>347.0</ele><time>2026-05-02T14:40:03Z</time></trkpt><trkpt lat="43.31663203669715" lon="13.274145573927242"><ele>348.5</ele><time>2026-05-02T14:40:04Z</time></trkpt><trkpt lat="43.31658538966605" lon="13.27382890763902"><ele>350.0</ele><time>2026-05-02T14:40:05Z</time></trkpt><trkpt lat="43.31654570172124" lon="13.273485276726838"><ele>350.0</ele><time>2026-05-02T14:40:06Z</time></trkpt><trkpt lat="43.3165059324818" lon="13.273130138132686"><ele>350.0</ele><time>2026-05-02T14:40:07Z</time></trkpt><trkpt lat="43.31645667020115" lon="13.272751219339908"><ele>350.0</ele><time>2026-05-02T14:40:08Z</time></trkpt><trkpt lat="43.31641465752148" lon="13.272373155727468"><ele>350.0</ele><time>2026-05-02T14:40:09Z</time></trkpt><trkpt lat="43.316359849305236" lon="13.272030498570714"><ele>350.0</ele><time>2026-05-02T14:40:10Z</time></trkpt><trkpt lat="43.31630963861877" lon="13.271725722263158"><ele>350.0</ele><time>2026-05-02T14:40:11Z</time></trkpt><trkpt lat="43.3162510064805" lon="13.271447551308379"><ele>350.0</ele><time>2026-05-02T14:40:12Z</time></trkpt><trkpt lat="43.31617766061961" lon="13.271184320197813"><ele>353.5</ele><time>2026-05-02T14:40:13Z</time></trkpt><trkpt lat="43.31606760155435" lon="13.270892690823215"><ele>357.0</ele><time>2026-05-02T14:40:14Z</time></trkpt><trkpt lat="43.31593905885451" lon="13.270589080413734"><ele>360.0</ele><time>2026-05-02T14:40:15Z</time></trkpt><trkpt lat="43.31582974945489" lon="13.270269791856737"><ele>363.0</ele><time>2026-05-02T14:40:16Z</time></trkpt><trkpt lat="43.315755516197626" lon="13.269940958292302"><ele>365.5</ele><time>2026-05-02T14:40:17Z</time></trkpt><trkpt lat="43.31572320077505" lon="13.269581653662446"><ele>368.0</ele><time>2026-05-02T14:40:18Z</time></trkpt><trkpt lat="43.31571899513648" lon="13.269215737627228"><ele>369.0</ele><time>2026-05-02T14:40:19Z</time></trkpt><trkpt lat="43.31569463685091" lon="13.268830393928383"><ele>370.0</ele><time>2026-05-02T14:40:20Z</time></trkpt><trkpt lat="43.315645041467505" lon="13.268449737542884"><ele>370.5</ele><time>2026-05-02T14:40:21Z</time></trkpt><trkpt lat="43.31558706120997" lon="13.268078299170469"><ele>371.0</ele><time>2026-05-02T14:40:22Z</time></trkpt><trkpt lat="43.315528273449154" lon="13.267699196956048"><ele>371.0</ele><time>2026-05-02T14:40:23Z</time></trkpt><trkpt lat="43.31549965214023" lon="13.267325410524506"><ele>371.0</ele><time>2026-05-02T14:40:24Z</time></trkpt><trkpt lat="43.31547047901941" lon="13.266945409133237"><ele>371.5</ele><time>2026-05-02T14:40:25Z</time></trkpt><trkpt lat="43.31545409198018" lon="13.266573660373405"><ele>372.0</ele><time>2026-05-02T14:40:26Z</time></trkpt><trkpt lat="43.31545812392573" lon="13.26619418494598"><ele>372.5</ele><time>2026-05-02T14:40:27Z</time></trkpt><trkpt lat="43.31547554507661" lon="13.265809865606435"><ele>373.0</ele><time>2026-05-02T14:40:28Z</time></trkpt><trkpt lat="43.31549554298784" lon="13.26541868108093"><ele>373.5</ele><time>2026-05-02T14:40:29Z</time></trkpt><trkpt lat="43.315512541263004" lon="13.265052513642992"><ele>374.0</ele><time>2026-05-02T14:40:30Z</time></trkpt><trkpt lat="43.31553122813611" lon="13.264725669085543"><ele>374.6666666666667</ele><time>2026-05-02T14:40:31Z</time></trkpt><trkpt lat="43.31553956812231" lon="13.264429189950063"><ele>375.3333333333333</ele><time>2026-05-02T14:40:32Z</time></trkpt><trkpt lat="43.3155382996782" lon="13.26413833952736"><ele>376.0</ele><time>2026-05-02T14:40:33Z</time></trkpt><trkpt lat="43.31551592904076" lon="13.263834606408462"><ele>379.0</ele><time>2026-05-02T14:40:34Z</time></trkpt><trkpt lat="43.31546341834352" lon="13.263526078409088"><ele>382.0</ele><time>2026-05-02T14:40:35Z</time></trkpt><trkpt lat="43.315390808681435" lon="13.26319830813938"><ele>383.0</ele><time>2026-05-02T14:40:36Z</time></trkpt><trkpt lat="43.31532028218781" lon="13.262893031899274"><ele>384.0</ele><time>2026-05-02T14:40:37Z</time></trkpt><trkpt lat="43.31526314184619" lon="13.262596252519906"><ele>384.0</ele><time>2026-05-02T14:40:38Z</time></trkpt><trkpt lat="43.31522164315868" lon="13.262279098967246"><ele>384.0</ele><time>2026-05-02T14:40:39Z</time></trkpt><trkpt lat="43.31520508449398" lon="13.261941445210269"><ele>384.0</ele><time>2026-05-02T14:40:40Z</time></trkpt><trkpt lat="43.315218773486244" lon="13.261583121486822"><ele>384.0</ele><time>2026-05-02T14:40:41Z</time></trkpt><trkpt lat="43.31524712685341" lon="13.26122997723772"><ele>384.0</ele><time>2026-05-02T14:40:42Z</time></trkpt><trkpt lat="43.31529730391697" lon="13.260902267598116"><ele>384.0</ele><time>2026-05-02T14:40:43Z</time></trkpt><trkpt lat="43.31536507840908" lon="13.260561021494789"><ele>384.0</ele><time>2026-05-02T14:40:44Z</time></trkpt><trkpt lat="43.315449968133976" lon="13.260229526740922"><ele>384.0</ele><time>2026-05-02T14:40:45Z</time></trkpt><trkpt lat="43.31555709909272" lon="13.259888560668557"><ele>386.5</ele><time>2026-05-02T14:40:46Z</time></trkpt><trkpt lat="43.31567496081856" lon="13.259541868440715"><ele>389.0</ele><time>2026-05-02T14:40:47Z</time></trkpt><trkpt lat="43.31579020808543" lon="13.25917157564867"><ele>388.0</ele><time>2026-05-02T14:40:48Z</time></trkpt><trkpt lat="43.31587306033834" lon="13.258822739871732"><ele>387.0</ele><time>2026-05-02T14:40:49Z</time></trkpt><trkpt lat="43.31592923915884" lon="13.258481106767338"><ele>388.5</ele><time>2026-05-02T14:40:50Z</time></trkpt><trkpt lat="43.31595849129856" lon="13.258107657565297"><ele>390.0</ele><time>2026-05-02T14:40:51Z</time></trkpt><trkpt lat="43.315971405645854" lon="13.25776621932618"><ele>390.0</ele><time>2026-05-02T14:40:52Z</time></trkpt><trkpt lat="43.31598308940298" lon="13.257454021465472"><ele>390.0</ele><time>2026-05-02T14:40:53Z</time></trkpt><trkpt lat="43.31602040415488" lon="13.257164275154611"><ele>390.0</ele><time>2026-05-02T14:40:54Z</time></trkpt><trkpt lat="43.316080306793665" lon="13.256972689472535"><ele>391.66666666666663</ele><time>2026-05-02T14:40:55Z</time></trkpt><trkpt lat="43.31611777664597" lon="13.256871322141263"><ele>393.3333333333333</ele><time>2026-05-02T14:40:56Z</time></trkpt><trkpt lat="43.31621721488784" lon="13.256476237752894"><ele>395.0</ele><time>2026-05-02T14:40:57Z</time></trkpt><trkpt lat="43.31623388884766" lon="13.256283468116365"><ele>397.3333333333333</ele><time>2026-05-02T14:40:58Z</time></trkpt><trkpt lat="43.31621415927707" lon="13.256080722145976"><ele>399.66666666666663</ele><time>2026-05-02T14:40:59Z</time></trkpt><trkpt lat="43.31615671555394" lon="13.255867172616233"><ele>402.0</ele><time>2026-05-02T14:41:00Z</time></trkpt><trkpt lat="43.31605524805693" lon="13.25563589976967"><ele>406.0</ele><time>2026-05-02T14:41:01Z</time></trkpt><trkpt lat="43.31593120776463" lon="13.255421506202255"><ele>410.0</ele><time>2026-05-02T14:41:02Z</time></trkpt><trkpt lat="43.31578149121159" lon="13.25525553832597"><ele>414.0</ele><time>2026-05-02T14:41:03Z</time></trkpt><trkpt lat="43.315588295854646" lon="13.25510091396853"><ele>412.66666666666663</ele><time>2026-05-02T14:41:04Z</time></trkpt><trkpt lat="43.3153876563729" lon="13.254947313225596"><ele>411.3333333333333</ele><time>2026-05-02T14:41:05Z</time></trkpt><trkpt lat="43.3152286693779" lon="13.254810245290056"><ele>410.0</ele><time>2026-05-02T14:41:06Z</time></trkpt><trkpt lat="43.31509244170933" lon="13.254688056353151"><ele>413.0</ele><time>2026-05-02T14:41:07Z</time></trkpt><trkpt lat="43.31497761640641" lon="13.25455945552796"><ele>416.0</ele><time>2026-05-02T14:41:08Z</time></trkpt><trkpt lat="43.31488942157161" lon="13.25441366183786"><ele>419.0</ele><time>2026-05-02T14:41:09Z</time></trkpt><trkpt lat="43.31483765194638" lon="13.254259877254913"><ele>422.0</ele><time>2026-05-02T14:41:10Z</time></trkpt><trkpt lat="43.31480780739588" lon="13.25409344308453"><ele>423.75</ele><time>2026-05-02T14:41:11Z</time></trkpt><trkpt lat="43.314796445631366" lon="13.253929721550477"><ele>425.5</ele><time>2026-05-02T14:41:12Z</time></trkpt><trkpt lat="43.31481029162895" lon="13.25376730902683"><ele>427.25</ele><time>2026-05-02T14:41:13Z</time></trkpt><trkpt lat="43.31484573072892" lon="13.253615815801453"><ele>429.0</ele><time>2026-05-02T14:41:14Z</time></trkpt><trkpt lat="43.31491135829152" lon="13.253479008126696"><ele>429.0</ele><time>2026-05-02T14:41:15Z</time></trkpt><trkpt lat="43.315033728172345" lon="13.253401468077143"><ele>429.0</ele><time>2026-05-02T14:41:16Z</time></trkpt><trkpt lat="43.315125335050176" lon="13.253284002383948"><ele>429.0</ele><time>2026-05-02T14:41:17Z</time></trkpt><trkpt lat="43.31523792174654" lon="13.253172749284317"><ele>429.0</ele><time>2026-05-02T14:41:18Z</time></trkpt><trkpt lat="43.31537816545773" lon="13.253055681374063"><ele>430.0</ele><time>2026-05-02T14:41:19Z</time></trkpt><trkpt lat="43.315539180794694" lon="13.252922138191835"><ele>431.0</ele><time>2026-05-02T14:41:20Z</time></trkpt><trkpt lat="43.31571272252218" lon="13.252783355163356"><ele>432.0</ele><time>2026-05-02T14:41:21Z</time></trkpt><trkpt lat="43.31587618980165" lon="13.252633941843643"><ele>435.66666666666663</ele><time>2026-05-02T14:41:22Z</time></trkpt><trkpt lat="43.31604745399694" lon="13.252510877269787"><ele>439.3333333333333</ele><time>2026-05-02T14:41:23Z</time></trkpt><trkpt lat="43.31620677640265" lon="13.252394846527089"><ele>443.0</ele><time>2026-05-02T14:41:24Z</time></trkpt><trkpt lat="43.31634766310627" lon="13.25229710233143"><ele>443.75</ele><time>2026-05-02T14:41:25Z</time></trkpt><trkpt lat="43.316494621445834" lon="13.252271220618246"><ele>444.5</ele><time>2026-05-02T14:41:26Z</time></trkpt><trkpt lat="43.316641233469994" lon="13.252274704132365"><ele>445.25</ele><time>2026-05-02T14:41:27Z</time></trkpt><trkpt lat="43.316774611801726" lon="13.25232157475293"><ele>446.0</ele><time>2026-05-02T14:41:28Z</time></trkpt><trkpt lat="43.316951630749514" lon="13.252379080084111"><ele>446.0</ele><time>2026-05-02T14:41:29Z</time></trkpt><trkpt lat="43.31714560259184" lon="13.252434741384839"><ele>446.0</ele><time>2026-05-02T14:41:30Z</time></trkpt><trkpt lat="43.31730684100341" lon="13.252464497921128"><ele>446.0</ele><time>2026-05-02T14:41:31Z</time></trkpt><trkpt lat="43.31744789330771" lon="13.25244292351115"><ele>448.3333333333333</ele><time>2026-05-02T14:41:32Z</time></trkpt><trkpt lat="43.317575561530816" lon="13.252361689434547"><ele>450.66666666666663</ele><time>2026-05-02T14:41:33Z</time></trkpt><trkpt lat="43.31769441882507" lon="13.252230325309235"><ele>453.0</ele><time>2026-05-02T14:41:34Z</time></trkpt><trkpt lat="43.317801075619656" lon="13.252039172186356"><ele>455.66666666666663</ele><time>2026-05-02T14:41:35Z</time></trkpt><trkpt lat="43.317859853633536" lon="13.25182231262871"><ele>458.3333333333333</ele><time>2026-05-02T14:41:36Z</time></trkpt><trkpt lat="43.31787223093615" lon="13.25159414341241"><ele>461.0</ele><time>2026-05-02T14:41:37Z</time></trkpt><trkpt lat="43.31783999908255" lon="13.25137135567963"><ele>463.66666666666663</ele><time>2026-05-02T14:41:38Z</time></trkpt><trkpt lat="43.31775277020436" lon="13.251138115924672"><ele>466.33333333333337</ele><time>2026-05-02T14:41:39Z</time></trkpt><trkpt lat="43.317622753290166" lon="13.250897955287416"><ele>469.0</ele><time>2026-05-02T14:41:40Z</time></trkpt><trkpt lat="43.31747178236704" lon="13.250647043712865"><ele>471.0</ele><time>2026-05-02T14:41:41Z</time></trkpt><trkpt lat="43.31733015954232" lon="13.250387762756015"><ele>473.0</ele><time>2026-05-02T14:41:42Z</time></trkpt><trkpt lat="43.31721117901319" lon="13.250135843460983"><ele>473.0</ele><time>2026-05-02T14:41:43Z</time></trkpt><trkpt lat="43.31714503928588" lon="13.249901258639373"><ele>473.0</ele><time>2026-05-02T14:41:44Z</time></trkpt><trkpt lat="43.31709481334363" lon="13.249646788362266"><ele>473.0</ele><time>2026-05-02T14:41:45Z</time></trkpt><trkpt lat="43.317047209795" lon="13.249380361938105"><ele>477.5</ele><time>2026-05-02T14:41:46Z</time></trkpt><trkpt lat="43.31703753861367" lon="13.249060476232202"><ele>482.0</ele><time>2026-05-02T14:41:47Z</time></trkpt><trkpt lat="43.31699211477998" lon="13.248745688972438"><ele>484.5</ele><time>2026-05-02T14:41:48Z</time></trkpt><trkpt lat="43.31692926713695" lon="13.248444494565803"><ele>487.0</ele><time>2026-05-02T14:41:49Z</time></trkpt><trkpt lat="43.31687545075431" lon="13.248119193292679"><ele>491.5</ele><time>2026-05-02T14:41:50Z</time></trkpt><trkpt lat="43.31682052109739" lon="13.247791329435273"><ele>496.0</ele><time>2026-05-02T14:41:51Z</time></trkpt><trkpt lat="43.31676209762987" lon="13.247436649516088"><ele>498.6666666666667</ele><time>2026-05-02T14:41:52Z</time></trkpt><trkpt lat="43.3167118535719" lon="13.247113562460886"><ele>501.33333333333337</ele><time>2026-05-02T14:41:53Z</time></trkpt><trkpt lat="43.31665688459164" lon="13.246838034213486"><ele>504.0</ele><time>2026-05-02T14:41:54Z</time></trkpt><trkpt lat="43.316591475508744" lon="13.246603178322454"><ele>503.33333333333337</ele><time>2026-05-02T14:41:55Z</time></trkpt><trkpt lat="43.31651533084846" lon="13.246389662578466"><ele>502.6666666666667</ele><time>2026-05-02T14:41:56Z</time></trkpt><trkpt lat="43.31643852481265" lon="13.246162131623064"><ele>502.0</ele><time>2026-05-02T14:41:57Z</time></trkpt><trkpt lat="43.31635491209898" lon="13.24597098917914"><ele>503.5</ele><time>2026-05-02T14:41:58Z</time></trkpt><trkpt lat="43.316288000496506" lon="13.245786654144586"><ele>505.0</ele><time>2026-05-02T14:41:59Z</time></trkpt><trkpt lat="43.31623278054758" lon="13.245630856928457"><ele>506.5</ele><time>2026-05-02T14:42:00Z</time></trkpt><trkpt lat="43.31618940259225" lon="13.245482634620734"><ele>508.0</ele><time>2026-05-02T14:42:01Z</time></trkpt><trkpt lat="43.316149192693025" lon="13.245346902778497"><ele>508.0</ele><time>2026-05-02T14:42:02Z</time></trkpt><trkpt lat="43.316117335411235" lon="13.24521135560615"><ele>507.99999999999994</ele><time>2026-05-02T14:42:03Z</time></trkpt><trkpt lat="43.31610071853538" lon="13.245069487096687"><ele>507.99999999999994</ele><time>2026-05-02T14:42:04Z</time></trkpt><trkpt lat="43.31609988916035" lon="13.24492182709099"><ele>508.0</ele><time>2026-05-02T14:42:05Z</time></trkpt><trkpt lat="43.3161112120869" lon="13.244775679992914"><ele>508.0</ele><time>2026-05-02T14:42:06Z</time></trkpt><trkpt lat="43.316122267975445" lon="13.244618779481556"><ele>507.5</ele><time>2026-05-02T14:42:07Z</time></trkpt><trkpt lat="43.31613024706461" lon="13.244473685750389"><ele>507.0</ele><time>2026-05-02T14:42:08Z</time></trkpt><trkpt lat="43.316148671289604" lon="13.244340474993743"><ele>506.5</ele><time>2026-05-02T14:42:09Z</time></trkpt><trkpt lat="43.316167021304935" lon="13.24416563917895"><ele>506.0</ele><time>2026-05-02T14:42:10Z</time></trkpt><trkpt lat="43.31618442093867" lon="13.243994340598405"><ele>506.0</ele><time>2026-05-02T14:42:11Z</time></trkpt><trkpt lat="43.316202898438924" lon="13.243829528927472"><ele>506.0</ele><time>2026-05-02T14:42:12Z</time></trkpt><trkpt lat="43.31621999765223" lon="13.243661327009542"><ele>506.0</ele><time>2026-05-02T14:42:13Z</time></trkpt><trkpt lat="43.31624004113703" lon="13.243487443609201"><ele>506.0</ele><time>2026-05-02T14:42:14Z</time></trkpt><trkpt lat="43.316263815208096" lon="13.243324069621982"><ele>506.0</ele><time>2026-05-02T14:42:15Z</time></trkpt><trkpt lat="43.316299927655294" lon="13.243153536826824"><ele>506.0</ele><time>2026-05-02T14:42:16Z</time></trkpt><trkpt lat="43.31633735351098" lon="13.243000136601099"><ele>506.0</ele><time>2026-05-02T14:42:17Z</time></trkpt><trkpt lat="43.31637427442039" lon="13.242844352403976"><ele>506.0</ele><time>2026-05-02T14:42:18Z</time></trkpt><trkpt lat="43.316409885840635" lon="13.242696591972692"><ele>509.5</ele><time>2026-05-02T14:42:19Z</time></trkpt><trkpt lat="43.31648691012123" lon="13.242546459818694"><ele>513.0</ele><time>2026-05-02T14:42:20Z</time></trkpt><trkpt lat="43.31659548649938" lon="13.242428721252184"><ele>516.5</ele><time>2026-05-02T14:42:21Z</time></trkpt><trkpt lat="43.31671543343687" lon="13.24230308690813"><ele>520.0</ele><time>2026-05-02T14:42:22Z</time></trkpt><trkpt lat="43.31683221738714" lon="13.242142885126075"><ele>523.6666666666667</ele><time>2026-05-02T14:42:23Z</time></trkpt><trkpt lat="43.31697478573353" lon="13.241944012982085"><ele>527.3333333333334</ele><time>2026-05-02T14:42:24Z</time></trkpt><trkpt lat="43.31712317047779" lon="13.241775231801125"><ele>531.0</ele><time>2026-05-02T14:42:25Z</time></trkpt><trkpt lat="43.31726967329508" lon="13.241596421789618"><ele>535.25</ele><time>2026-05-02T14:42:26Z</time></trkpt><trkpt lat="43.31739014672493" lon="13.241443459302397"><ele>539.5</ele><time>2026-05-02T14:42:27Z</time></trkpt><trkpt lat="43.31748307384108" lon="13.241313588076519"><ele>543.75</ele><time>2026-05-02T14:42:28Z</time></trkpt><trkpt lat="43.31755966002764" lon="13.241211321415514"><ele>548.0</ele><time>2026-05-02T14:42:29Z</time></trkpt><trkpt lat="43.317629154066935" lon="13.241140607330639"><ele>548.0</ele><time>2026-05-02T14:42:30Z</time></trkpt><trkpt lat="43.31767106867999" lon="13.241058853788441"><ele>548.0</ele><time>2026-05-02T14:42:31Z</time></trkpt><trkpt lat="43.31767208703583" lon="13.240948687950928"><ele>548.0</ele><time>2026-05-02T14:42:32Z</time></trkpt><trkpt lat="43.3176296895644" lon="13.240821767606532"><ele>548.0</ele><time>2026-05-02T14:42:33Z</time></trkpt><trkpt lat="43.31751999648079" lon="13.240795329639527"><ele>548.0</ele><time>2026-05-02T14:42:34Z</time></trkpt><trkpt lat="43.31738020709429" lon="13.240768830371294"><ele>547.3333333333333</ele><time>2026-05-02T14:42:35Z</time></trkpt><trkpt lat="43.31722571645063" lon="13.240707812709884"><ele>546.6666666666666</ele><time>2026-05-02T14:42:36Z</time></trkpt><trkpt lat="43.317090447555216" lon="13.240614074173658"><ele>546.0</ele><time>2026-05-02T14:42:37Z</time></trkpt><trkpt lat="43.316915095753096" lon="13.240500973802176"><ele>547.5</ele><time>2026-05-02T14:42:38Z</time></trkpt><trkpt lat="43.316625148677325" lon="13.240316125103254"><ele>549.0</ele><time>2026-05-02T14:42:39Z</time></trkpt><trkpt lat="43.316390633221324" lon="13.240153237489473"><ele>549.0</ele><time>2026-05-02T14:42:40Z</time></trkpt><trkpt lat="43.316272349452625" lon="13.24007501721905"><ele>549.0</ele><time>2026-05-02T14:42:41Z</time></trkpt><trkpt lat="43.31615439323359" lon="13.23996510481338"><ele>549.0</ele><time>2026-05-02T14:42:42Z</time></trkpt><trkpt lat="43.31602758644289" lon="13.23982271797906"><ele>549.0</ele><time>2026-05-02T14:42:43Z</time></trkpt><trkpt lat="43.31593926332283" lon="13.239707351830159"><ele>552.5</ele><time>2026-05-02T14:42:44Z</time></trkpt><trkpt lat="43.31587830849321" lon="13.239545327377595"><ele>556.0</ele><time>2026-05-02T14:42:45Z</time></trkpt><trkpt lat="43.31584563476967" lon="13.239344405418896"><ele>559.5</ele><time>2026-05-02T14:42:46Z</time></trkpt><trkpt lat="43.31579596944966" lon="13.239128580845616"><ele>563.0</ele><time>2026-05-02T14:42:47Z</time></trkpt><trkpt lat="43.3157275910514" lon="13.23891732280545"><ele>559.6666666666666</ele><time>2026-05-02T14:42:48Z</time></trkpt><trkpt lat="43.31562998706026" lon="13.238710063998116"><ele>556.3333333333334</ele><time>2026-05-02T14:42:49Z</time></trkpt><trkpt lat="43.3155670538988" lon="13.238532340040075"><ele>553.0</ele><time>2026-05-02T14:42:50Z</time></trkpt><trkpt lat="43.31550414950816" lon="13.2383543115587"><ele>553.0</ele><time>2026-05-02T14:42:51Z</time></trkpt><trkpt lat="43.315488346905006" lon="13.238170436749497"><ele>553.0</ele><time>2026-05-02T14:42:52Z</time></trkpt><trkpt lat="43.31551408559559" lon="13.238017983286102"><ele>553.0</ele><time>2026-05-02T14:42:53Z</time></trkpt><trkpt lat="43.31556169506372" lon="13.237908329991635"><ele>553.0</ele><time>2026-05-02T14:42:54Z</time></trkpt><trkpt lat="43.31564272390788" lon="13.237841334531227"><ele>553.0</ele><time>2026-05-02T14:42:55Z</time></trkpt><trkpt lat="43.31572377176078" lon="13.237869419307609"><ele>558.5</ele><time>2026-05-02T14:42:56Z</time></trkpt><trkpt lat="43.31578279054778" lon="13.2379499035628"><ele>564.0</ele><time>2026-05-02T14:42:57Z</time></trkpt><trkpt lat="43.31579843209633" lon="13.23811026513282"><ele>569.5</ele><time>2026-05-02T14:42:58Z</time></trkpt><trkpt lat="43.315868650198944" lon="13.23826199620979"><ele>575.0</ele><time>2026-05-02T14:42:59Z</time></trkpt><trkpt lat="43.31594810401109" lon="13.238422405253901"><ele>575.0</ele><time>2026-05-02T14:43:00Z</time></trkpt><trkpt lat="43.316064978148255" lon="13.238580116689958"><ele>575.0</ele><time>2026-05-02T14:43:01Z</time></trkpt><trkpt lat="43.316208038242934" lon="13.238712871076673"><ele>575.0</ele><time>2026-05-02T14:43:02Z</time></trkpt><trkpt lat="43.3163102471866" lon="13.238809345596028"><ele>575.0</ele><time>2026-05-02T14:43:03Z</time></trkpt><trkpt lat="43.31638928020514" lon="13.238854297799909"><ele>575.0</ele><time>2026-05-02T14:43:04Z</time></trkpt><trkpt lat="43.31647434186561" lon="13.23872448920143"><ele>575.0</ele><time>2026-05-02T14:43:06Z</time></trkpt><trkpt lat="43.316471156729186" lon="13.238587091534823"><ele>575.0</ele><time>2026-05-02T14:43:07Z</time></trkpt><trkpt lat="43.31640891816546" lon="13.238488566544165"><ele>575.0</ele><time>2026-05-02T14:43:08Z</time></trkpt><trkpt lat="43.316323087284324" lon="13.23830575094608"><ele>578.6666666666666</ele><time>2026-05-02T14:43:09Z</time></trkpt><trkpt lat="43.31621686001684" lon="13.238079465874543"><ele>582.3333333333334</ele><time>2026-05-02T14:43:10Z</time></trkpt><trkpt lat="43.316103239378485" lon="13.237773494283541"><ele>586.0</ele><time>2026-05-02T14:43:11Z</time></trkpt><trkpt lat="43.31612809954305" lon="13.237541705852143"><ele>590.6666666666667</ele><time>2026-05-02T14:43:13Z</time></trkpt><trkpt lat="43.316116276346285" lon="13.237218428249415"><ele>595.3333333333334</ele><time>2026-05-02T14:43:15Z</time></trkpt><trkpt lat="43.316037920134335" lon="13.237088959067611"><ele>600.0</ele><time>2026-05-02T14:43:16Z</time></trkpt><trkpt lat="43.31591245325671" lon="13.23700703382801"><ele>600.0</ele><time>2026-05-02T14:43:17Z</time></trkpt><trkpt lat="43.31580971856586" lon="13.236910159881784"><ele>600.0</ele><time>2026-05-02T14:43:18Z</time></trkpt><trkpt lat="43.315804264451145" lon="13.23673119879515"><ele>600.0</ele><time>2026-05-02T14:43:19Z</time></trkpt><trkpt lat="43.31576878545371" lon="13.236518629758484"><ele>600.0</ele><time>2026-05-02T14:43:20Z</time></trkpt><trkpt lat="43.31572953566659" lon="13.23625919994311"><ele>603.3333333333334</ele><time>2026-05-02T14:43:21Z</time></trkpt><trkpt lat="43.315694847496985" lon="13.235986868063726"><ele>606.6666666666667</ele><time>2026-05-02T14:43:22Z</time></trkpt><trkpt lat="43.315645258210665" lon="13.235693867460917"><ele>610.0</ele><time>2026-05-02T14:43:23Z</time></trkpt><trkpt lat="43.31561260209864" lon="13.235367014051072"><ele>613.0</ele><time>2026-05-02T14:43:24Z</time></trkpt><trkpt lat="43.31558149187793" lon="13.235103618298409"><ele>616.0</ele><time>2026-05-02T14:43:25Z</time></trkpt><trkpt lat="43.315579891877505" lon="13.234878571351677"><ele>619.0</ele><time>2026-05-02T14:43:26Z</time></trkpt><trkpt lat="43.315605851672714" lon="13.23469450084807"><ele>620.3333333333334</ele><time>2026-05-02T14:43:27Z</time></trkpt><trkpt lat="43.31567680003462" lon="13.23453225260614"><ele>621.6666666666666</ele><time>2026-05-02T14:43:28Z</time></trkpt><trkpt lat="43.315761656075445" lon="13.234305585135768"><ele>623.0</ele><time>2026-05-02T14:43:29Z</time></trkpt><trkpt lat="43.31581632586231" lon="13.234064475885928"><ele>624.6666666666666</ele><time>2026-05-02T14:43:30Z</time></trkpt><trkpt lat="43.315875177782424" lon="13.233847255887381"><ele>626.3333333333334</ele><time>2026-05-02T14:43:31Z</time></trkpt><trkpt lat="43.31589566241519" lon="13.23360469795907"><ele>628.0</ele><time>2026-05-02T14:43:32Z</time></trkpt><trkpt lat="43.31584759954765" lon="13.233390862316678"><ele>628.0</ele><time>2026-05-02T14:43:33Z</time></trkpt><trkpt lat="43.31577579408817" lon="13.233173153957043"><ele>628.0</ele><time>2026-05-02T14:43:34Z</time></trkpt><trkpt lat="43.315713720375086" lon="13.232931092993683"><ele>628.0</ele><time>2026-05-02T14:43:35Z</time></trkpt><trkpt lat="43.31569750337069" lon="13.232735474978224"><ele>629.5</ele><time>2026-05-02T14:43:36Z</time></trkpt><trkpt lat="43.315712553745406" lon="13.232589122958762"><ele>631.0</ele><time>2026-05-02T14:43:37Z</time></trkpt><trkpt lat="43.315750982339736" lon="13.23251724541674"><ele>632.5</ele><time>2026-05-02T14:43:38Z</time></trkpt><trkpt lat="43.31581614118025" lon="13.232530920935734"><ele>634.0</ele><time>2026-05-02T14:43:39Z</time></trkpt><trkpt lat="43.31587727358368" lon="13.232588451460746"><ele>635.5</ele><time>2026-05-02T14:43:40Z</time></trkpt><trkpt lat="43.31592746241036" lon="13.232672036385038"><ele>637.0</ele><time>2026-05-02T14:43:41Z</time></trkpt><trkpt lat="43.315955727509106" lon="13.232831680632726"><ele>637.0</ele><time>2026-05-02T14:43:42Z</time></trkpt><trkpt lat="43.31601318091949" lon="13.233042558915415"><ele>637.0</ele><time>2026-05-02T14:43:43Z</time></trkpt><trkpt lat="43.31606011197052" lon="13.233265877842868"><ele>637.0</ele><time>2026-05-02T14:43:44Z</time></trkpt><trkpt lat="43.31610764549393" lon="13.233481189808332"><ele>634.0</ele><time>2026-05-02T14:43:45Z</time></trkpt><trkpt lat="43.316149460919256" lon="13.233662957274941"><ele>631.0</ele><time>2026-05-02T14:43:46Z</time></trkpt><trkpt lat="43.31636223305643" lon="13.233751676982623"><ele>628.0</ele><time>2026-05-02T14:43:47Z</time></trkpt><trkpt lat="43.316502336690974" lon="13.233894482054437"><ele>630.4</ele><time>2026-05-02T14:43:48Z</time></trkpt><trkpt lat="43.31660960713709" lon="13.234002037428285"><ele>632.8</ele><time>2026-05-02T14:43:49Z</time></trkpt><trkpt lat="43.3166952316796" lon="13.234063087485797"><ele>635.2</ele><time>2026-05-02T14:43:50Z</time></trkpt><trkpt lat="43.31676245731924" lon="13.234088662127885"><ele>637.6</ele><time>2026-05-02T14:43:51Z</time></trkpt><trkpt lat="43.31684605285757" lon="13.234077155946983"><ele>640.0</ele><time>2026-05-02T14:43:52Z</time></trkpt><trkpt lat="43.31691170138873" lon="13.233976416949499"><ele>641.5</ele><time>2026-05-02T14:43:53Z</time></trkpt><trkpt lat="43.31695575271103" lon="13.233837061072192"><ele>643.0</ele><time>2026-05-02T14:43:54Z</time></trkpt><trkpt lat="43.31697518272435" lon="13.233638778199508"><ele>644.5</ele><time>2026-05-02T14:43:55Z</time></trkpt><trkpt lat="43.31696276203776" lon="13.23343720882114"><ele>646.0</ele><time>2026-05-02T14:43:56Z</time></trkpt><trkpt lat="43.31692352093171" lon="13.233225203948104"><ele>649.0</ele><time>2026-05-02T14:43:57Z</time></trkpt><trkpt lat="43.31689691737443" lon="13.233093304716899"><ele>652.0</ele><time>2026-05-02T14:43:58Z</time></trkpt><trkpt lat="43.31686387621319" lon="13.232943465579583"><ele>655.0</ele><time>2026-05-02T14:43:59Z</time></trkpt><trkpt lat="43.316772965341684" lon="13.232448168855464"><ele>659.5</ele><time>2026-05-02T14:44:00Z</time></trkpt><trkpt lat="43.316699060273464" lon="13.232143472687387"><ele>664.0</ele><time>2026-05-02T14:44:01Z</time></trkpt><trkpt lat="43.316624036959546" lon="13.231822819568064"><ele>664.0</ele><time>2026-05-02T14:44:02Z</time></trkpt><trkpt lat="43.31655290155037" lon="13.231479994389067"><ele>664.0</ele><time>2026-05-02T14:44:03Z</time></trkpt><trkpt lat="43.316464575238065" lon="13.231136538853114"><ele>666.5</ele><time>2026-05-02T14:44:04Z</time></trkpt><trkpt lat="43.31638888453977" lon="13.230784407745652"><ele>669.0</ele><time>2026-05-02T14:44:05Z</time></trkpt><trkpt lat="43.316314352006515" lon="13.230434785206654"><ele>669.0</ele><time>2026-05-02T14:44:06Z</time></trkpt><trkpt lat="43.31625573513144" lon="13.230137287931544"><ele>669.0</ele><time>2026-05-02T14:44:07Z</time></trkpt><trkpt lat="43.31622175128893" lon="13.229870077804422"><ele>669.0</ele><time>2026-05-02T14:44:08Z</time></trkpt><trkpt lat="43.316175961325925" lon="13.229719530385859"><ele>676.5</ele><time>2026-05-02T14:44:09Z</time></trkpt><trkpt lat="43.316105153782566" lon="13.22960423439838"><ele>684.0</ele><time>2026-05-02T14:44:10Z</time></trkpt><trkpt lat="43.315953186673724" lon="13.229532491814952"><ele>691.5</ele><time>2026-05-02T14:44:11Z</time></trkpt><trkpt lat="43.31582023685742" lon="13.229372055075949"><ele>699.0</ele><time>2026-05-02T14:44:12Z</time></trkpt><trkpt lat="43.31566856243824" lon="13.22921184445313"><ele>699.3333333333334</ele><time>2026-05-02T14:44:13Z</time></trkpt><trkpt lat="43.31553278709225" lon="13.229019096370964"><ele>699.6666666666667</ele><time>2026-05-02T14:44:14Z</time></trkpt><trkpt lat="43.31538747098501" lon="13.22880761985215"><ele>700.0</ele><time>2026-05-02T14:44:15Z</time></trkpt><trkpt lat="43.315224761751665" lon="13.228591746937681"><ele>700.0</ele><time>2026-05-02T14:44:16Z</time></trkpt><trkpt lat="43.31507473172299" lon="13.22840286059206"><ele>700.0</ele><time>2026-05-02T14:44:17Z</time></trkpt><trkpt lat="43.31494953115134" lon="13.228247446799495"><ele>700.0</ele><time>2026-05-02T14:44:18Z</time></trkpt><trkpt lat="43.31487674447171" lon="13.228073055241383"><ele>698.3333333333334</ele><time>2026-05-02T14:44:19Z</time></trkpt><trkpt lat="43.31479398887859" lon="13.22786347870557"><ele>696.6666666666666</ele><time>2026-05-02T14:44:20Z</time></trkpt><trkpt lat="43.31471384432562" lon="13.227633500899763"><ele>695.0</ele><time>2026-05-02T14:44:21Z</time></trkpt><trkpt lat="43.31463781318191" lon="13.227381402806204"><ele>701.6666666666666</ele><time>2026-05-02T14:44:22Z</time></trkpt><trkpt lat="43.314561539663835" lon="13.227121808409269"><ele>708.3333333333334</ele><time>2026-05-02T14:44:23Z</time></trkpt><trkpt lat="43.3144854313413" lon="13.226855080234591"><ele>715.0</ele><time>2026-05-02T14:44:24Z</time></trkpt><trkpt lat="43.31440078782841" lon="13.22655981289943"><ele>720.3333333333334</ele><time>2026-05-02T14:44:25Z</time></trkpt><trkpt lat="43.31431155163224" lon="13.226277980174173"><ele>725.6666666666666</ele><time>2026-05-02T14:44:26Z</time></trkpt><trkpt lat="43.31420165428412" lon="13.226012197210364"><ele>731.0</ele><time>2026-05-02T14:44:27Z</time></trkpt><trkpt lat="43.314102294189794" lon="13.225745385731635"><ele>734.6666666666666</ele><time>2026-05-02T14:44:28Z</time></trkpt><trkpt lat="43.31399250378642" lon="13.225489263326603"><ele>738.3333333333334</ele><time>2026-05-02T14:44:29Z</time></trkpt><trkpt lat="43.31386966330844" lon="13.225246353073077"><ele>742.0</ele><time>2026-05-02T14:44:30Z</time></trkpt><trkpt lat="43.31373265926357" lon="13.224993259987377"><ele>746.0</ele><time>2026-05-02T14:44:31Z</time></trkpt><trkpt lat="43.31360975225717" lon="13.224788846047886"><ele>750.0</ele><time>2026-05-02T14:44:32Z</time></trkpt><trkpt lat="43.31351199346503" lon="13.224620018700861"><ele>754.0</ele><time>2026-05-02T14:44:33Z</time></trkpt><trkpt lat="43.313417801905146" lon="13.224502539331397"><ele>754.0</ele><time>2026-05-02T14:44:34Z</time></trkpt><trkpt lat="43.31330419903013" lon="13.224419209452101"><ele>754.0</ele><time>2026-05-02T14:44:35Z</time></trkpt><trkpt lat="43.313150715457304" lon="13.224347613676322"><ele>754.0</ele><time>2026-05-02T14:44:36Z</time></trkpt><trkpt lat="43.31299396074232" lon="13.224317205147312"><ele>754.0</ele><time>2026-05-02T14:44:37Z</time></trkpt><trkpt lat="43.31283423743965" lon="13.22432114479953"><ele>757.3333333333334</ele><time>2026-05-02T14:44:38Z</time></trkpt><trkpt lat="43.31268629000133" lon="13.224374603863833"><ele>760.6666666666666</ele><time>2026-05-02T14:44:39Z</time></trkpt><trkpt lat="43.312509506495786" lon="13.224459522581343"><ele>764.0</ele><time>2026-05-02T14:44:40Z</time></trkpt><trkpt lat="43.31230798895819" lon="13.224579520794261"><ele>767.6666666666666</ele><time>2026-05-02T14:44:41Z</time></trkpt><trkpt lat="43.31211649722874" lon="13.224658021247585"><ele>771.3333333333333</ele><time>2026-05-02T14:44:42Z</time></trkpt><trkpt lat="43.31190665447016" lon="13.224662058475523"><ele>775.0</ele><time>2026-05-02T14:44:43Z</time></trkpt><trkpt lat="43.31168963881659" lon="13.224650778916844"><ele>775.0</ele><time>2026-05-02T14:44:44Z</time></trkpt><trkpt lat="43.3115102473969" lon="13.224622671051751"><ele>775.0</ele><time>2026-05-02T14:44:45Z</time></trkpt><trkpt lat="43.31135050303994" lon="13.224606292964825"><ele>775.0</ele><time>2026-05-02T14:44:46Z</time></trkpt><trkpt lat="43.31119487207933" lon="13.224572770841046"><ele>774.6666666666666</ele><time>2026-05-02T14:44:47Z</time></trkpt><trkpt lat="43.31103417906209" lon="13.224550855814133"><ele>774.3333333333333</ele><time>2026-05-02T14:44:48Z</time></trkpt><trkpt lat="43.310863892419135" lon="13.22453787738409"><ele>774.0</ele><time>2026-05-02T14:44:49Z</time></trkpt><trkpt lat="43.31068715995206" lon="13.224532454442771"><ele>773.25</ele><time>2026-05-02T14:44:50Z</time></trkpt><trkpt lat="43.31052496805994" lon="13.224526888205624"><ele>772.5</ele><time>2026-05-02T14:44:51Z</time></trkpt><trkpt lat="43.310386510189865" lon="13.224519119421345"><ele>771.75</ele><time>2026-05-02T14:44:52Z</time></trkpt><trkpt lat="43.3102600515305" lon="13.224512934322558"><ele>771.0</ele><time>2026-05-02T14:44:53Z</time></trkpt><trkpt lat="43.31013951740807" lon="13.224510899812836"><ele>771.0</ele><time>2026-05-02T14:44:54Z</time></trkpt><trkpt lat="43.31003015504905" lon="13.224515840534794"><ele>771.0</ele><time>2026-05-02T14:44:55Z</time></trkpt><trkpt lat="43.30992873960929" lon="13.224515363287315"><ele>771.0</ele><time>2026-05-02T14:44:56Z</time></trkpt><trkpt lat="43.30983651266846" lon="13.224506650311994"><ele>771.0</ele><time>2026-05-02T14:44:57Z</time></trkpt><trkpt lat="43.30975444525376" lon="13.22449896137504"><ele>771.0</ele><time>2026-05-02T14:44:58Z</time></trkpt><trkpt lat="43.30964667858227" lon="13.224487559104599"><ele>770.4</ele><time>2026-05-02T14:45:00Z</time></trkpt><trkpt lat="43.30957877079704" lon="13.22446901942245"><ele>769.8</ele><time>2026-05-02T14:45:02Z</time></trkpt><trkpt lat="43.30950059856526" lon="13.224424356088196"><ele>769.1999999999999</ele><time>2026-05-02T14:45:06Z</time></trkpt><trkpt lat="43.30957527772457" lon="13.224475508250105"><ele>768.5999999999999</ele><time>2026-05-02T14:46:55Z</time></trkpt><trkpt lat="43.309571337590256" lon="13.224763837092869"><ele>768.0</ele><time>2026-05-02T14:46:57Z</time></trkpt><trkpt lat="43.309596579894894" lon="13.224863871432897"><ele>768.0</ele><time>2026-05-02T14:46:58Z</time></trkpt><trkpt lat="43.30961734143662" lon="13.22495043851469"><ele>768.0</ele><time>2026-05-02T14:46:59Z</time></trkpt><trkpt lat="43.30964857749504" lon="13.225075825511624"><ele>768.0</ele><time>2026-05-02T14:47:01Z</time></trkpt><trkpt lat="43.309667406264616" lon="13.225194155967888"><ele>768.0</ele><time>2026-05-02T14:47:03Z</time></trkpt><trkpt lat="43.30967315882814" lon="13.225285151316621"><ele>768.0</ele><time>2026-05-02T14:47:05Z</time></trkpt><trkpt lat="43.30973556194674" lon="13.22534104941341"><ele>768.0</ele><time>2026-05-02T14:47:08Z</time></trkpt><trkpt lat="43.30978289744753" lon="13.225276104554245"><ele>768.0</ele><time>2026-05-02T14:47:11Z</time></trkpt><trkpt lat="43.30978693817034" lon="13.225183640925898"><ele>768.0</ele><time>2026-05-02T14:47:13Z</time></trkpt><trkpt lat="43.30972114579877" lon="13.225071481094082"><ele>768.0</ele><time>2026-05-02T14:47:15Z</time></trkpt><trkpt lat="43.30966326908892" lon="13.225006662528148"><ele>768.0</ele><time>2026-05-02T14:47:16Z</time></trkpt><trkpt lat="43.30962832120068" lon="13.224912257315893"><ele>768.0</ele><time>2026-05-02T14:47:18Z</time></trkpt><trkpt lat="43.30959641946612" lon="13.224791857221662"><ele>768.0</ele><time>2026-05-02T14:47:20Z</time></trkpt><trkpt lat="43.30958025825553" lon="13.224654519945142"><ele>768.0</ele><time>2026-05-02T14:47:38Z</time></trkpt><trkpt lat="43.309542127934215" lon="13.224541166303304"><ele>768.0</ele><time>2026-05-02T14:47:40Z</time></trkpt><trkpt lat="43.30948093532699" lon="13.224469608157863"><ele>768.0</ele><time>2026-05-02T14:47:42Z</time></trkpt><trkpt lat="43.30939789117306" lon="13.224400822041035"><ele>768.0</ele><time>2026-05-02T14:47:43Z</time></trkpt><trkpt lat="43.30928439807545" lon="13.224335944603334"><ele>768.0</ele><time>2026-05-02T14:47:44Z</time></trkpt><trkpt lat="43.30914105088357" lon="13.224261673430115"><ele>768.0</ele><time>2026-05-02T14:47:45Z</time></trkpt><trkpt lat="43.30898733851642" lon="13.224178370862345"><ele>768.0</ele><time>2026-05-02T14:47:46Z</time></trkpt><trkpt lat="43.3088280479321" lon="13.224027325978975"><ele>768.0</ele><time>2026-05-02T14:47:47Z</time></trkpt><trkpt lat="43.30864416599481" lon="13.223865144794965"><ele>766.0</ele><time>2026-05-02T14:47:48Z</time></trkpt><trkpt lat="43.308463382965776" lon="13.223663645518954"><ele>764.0</ele><time>2026-05-02T14:47:49Z</time></trkpt><trkpt lat="43.30833438373284" lon="13.223524009560448"><ele>762.0</ele><time>2026-05-02T14:47:50Z</time></trkpt><trkpt lat="43.30822624167048" lon="13.223385417110777"><ele>762.0</ele><time>2026-05-02T14:47:51Z</time></trkpt><trkpt lat="43.30816861091315" lon="13.223242697921576"><ele>762.0</ele><time>2026-05-02T14:47:52Z</time></trkpt><trkpt lat="43.30809792718997" lon="13.223084541081045"><ele>762.0</ele><time>2026-05-02T14:47:53Z</time></trkpt><trkpt lat="43.30805872713167" lon="13.222871284940966"><ele>762.0</ele><time>2026-05-02T14:47:54Z</time></trkpt><trkpt lat="43.30803012640278" lon="13.222639207767454"><ele>759.75</ele><time>2026-05-02T14:47:55Z</time></trkpt><trkpt lat="43.30801148532545" lon="13.222478085525957"><ele>757.5</ele><time>2026-05-02T14:47:56Z</time></trkpt><trkpt lat="43.30802583618895" lon="13.222324787431216"><ele>755.25</ele><time>2026-05-02T14:47:57Z</time></trkpt><trkpt lat="43.308085180911355" lon="13.222157663308842"><ele>753.0</ele><time>2026-05-02T14:47:58Z</time></trkpt><trkpt lat="43.30814675857972" lon="13.22199481621549"><ele>753.0</ele><time>2026-05-02T14:47:59Z</time></trkpt><trkpt lat="43.308232524173846" lon="13.221860051462018"><ele>753.0</ele><time>2026-05-02T14:48:00Z</time></trkpt><trkpt lat="43.30832180683403" lon="13.221747281319095"><ele>753.0</ele><time>2026-05-02T14:48:01Z</time></trkpt><trkpt lat="43.30838500503439" lon="13.221617629417734"><ele>753.0</ele><time>2026-05-02T14:48:02Z</time></trkpt><trkpt lat="43.308413238374264" lon="13.221454521680805"><ele>752.0</ele><time>2026-05-02T14:48:03Z</time></trkpt><trkpt lat="43.308424042427724" lon="13.221280344719412"><ele>751.0</ele><time>2026-05-02T14:48:04Z</time></trkpt><trkpt lat="43.30841593185906" lon="13.22107093535879"><ele>750.0</ele><time>2026-05-02T14:48:05Z</time></trkpt><trkpt lat="43.308384258233936" lon="13.220850233181025"><ele>749.0</ele><time>2026-05-02T14:48:06Z</time></trkpt><trkpt lat="43.308299518214895" lon="13.220566312146776"><ele>748.0</ele><time>2026-05-02T14:48:06.998Z</time></trkpt><trkpt lat="43.30820261070543" lon="13.22025340299968"><ele>747.0</ele><time>2026-05-02T14:48:07.998Z</time></trkpt><trkpt lat="43.30811478140897" lon="13.219981233380116"><ele>742.0</ele><time>2026-05-02T14:48:08.998Z</time></trkpt><trkpt lat="43.308036182312094" lon="13.219728349546553"><ele>737.0</ele><time>2026-05-02T14:48:09.998Z</time></trkpt><trkpt lat="43.307971694910435" lon="13.219518589905471"><ele>732.0</ele><time>2026-05-02T14:48:10.999Z</time></trkpt><trkpt lat="43.307965949415" lon="13.219321896164463"><ele>732.0</ele><time>2026-05-02T14:48:11.999Z</time></trkpt><trkpt lat="43.30797463989992" lon="13.219156777961413"><ele>732.0</ele><time>2026-05-02T14:48:12.999Z</time></trkpt><trkpt lat="43.30801659811147" lon="13.219016283357067"><ele>732.0</ele><time>2026-05-02T14:48:13.999Z</time></trkpt><trkpt lat="43.30809856646978" lon="13.21887340613649"><ele>732.0</ele><time>2026-05-02T14:48:14.999Z</time></trkpt><trkpt lat="43.30819385775514" lon="13.218695640351383"><ele>734.6666666666666</ele><time>2026-05-02T14:48:15.999Z</time></trkpt><trkpt lat="43.30830363232623" lon="13.218489435288735"><ele>737.3333333333333</ele><time>2026-05-02T14:48:16.999Z</time></trkpt><trkpt lat="43.3084215800216" lon="13.21827135522006"><ele>740.0</ele><time>2026-05-02T14:48:17.999Z</time></trkpt><trkpt lat="43.30854783679808" lon="13.218043154004244"><ele>740.0</ele><time>2026-05-02T14:48:18.999Z</time></trkpt><trkpt lat="43.30866075130792" lon="13.21784566187019"><ele>740.0</ele><time>2026-05-02T14:48:19.999Z</time></trkpt><trkpt lat="43.30876347120977" lon="13.217673333700404"><ele>740.0</ele><time>2026-05-02T14:48:20.999Z</time></trkpt><trkpt lat="43.308851406476705" lon="13.217519020430412"><ele>741.5</ele><time>2026-05-02T14:48:21.999Z</time></trkpt><trkpt lat="43.30896114892621" lon="13.217411467798525"><ele>743.0</ele><time>2026-05-02T14:48:22.999Z</time></trkpt><trkpt lat="43.309059981735345" lon="13.217300688202455"><ele>744.5</ele><time>2026-05-02T14:48:23.999Z</time></trkpt><trkpt lat="43.30915384060717" lon="13.21722971202497"><ele>746.0</ele><time>2026-05-02T14:48:24.999Z</time></trkpt><trkpt lat="43.30923934911796" lon="13.217196807679366"><ele>743.4</ele><time>2026-05-02T14:48:25.999Z</time></trkpt><trkpt lat="43.30932862554642" lon="13.217252119746425"><ele>740.8</ele><time>2026-05-02T14:48:26.999Z</time></trkpt><trkpt lat="43.30942758906982" lon="13.21724705467856"><ele>738.1999999999999</ele><time>2026-05-02T14:48:27.999Z</time></trkpt><trkpt lat="43.30952344625714" lon="13.217196521188884"><ele>735.5999999999999</ele><time>2026-05-02T14:48:28.999Z</time></trkpt><trkpt lat="43.30961290014833" lon="13.217117468162476"><ele>733.0</ele><time>2026-05-02T14:48:29.999Z</time></trkpt><trkpt lat="43.30966766805959" lon="13.216997900166621"><ele>733.0</ele><time>2026-05-02T14:48:30.999Z</time></trkpt><trkpt lat="43.30973300222437" lon="13.21688675617413"><ele>733.0</ele><time>2026-05-02T14:48:31.999Z</time></trkpt><trkpt lat="43.3098036075319" lon="13.216791719975062"><ele>733.0</ele><time>2026-05-02T14:48:32.999Z</time></trkpt><trkpt lat="43.30981777150884" lon="13.216584422850232"><ele>733.0</ele><time>2026-05-02T14:48:34.999Z</time></trkpt><trkpt lat="43.309774475547194" lon="13.216425282609174"><ele>728.5</ele><time>2026-05-02T14:48:35.999Z</time></trkpt><trkpt lat="43.30972917381366" lon="13.216255629913656"><ele>724.0</ele><time>2026-05-02T14:48:36.999Z</time></trkpt><trkpt lat="43.309737749921155" lon="13.216077765927093"><ele>719.5</ele><time>2026-05-02T14:48:37.999Z</time></trkpt><trkpt lat="43.30972636718923" lon="13.215895784144564"><ele>715.0</ele><time>2026-05-02T14:48:38.999Z</time></trkpt><trkpt lat="43.30970528810108" lon="13.21570635265531"><ele>712.5</ele><time>2026-05-02T14:48:39.999Z</time></trkpt><trkpt lat="43.30965633385689" lon="13.215528237819269"><ele>710.0</ele><time>2026-05-02T14:48:40.999Z</time></trkpt><trkpt lat="43.30960480876789" lon="13.215367374419754"><ele>707.5</ele><time>2026-05-02T14:48:41.999Z</time></trkpt><trkpt lat="43.30960304994627" lon="13.215168981539504"><ele>705.0</ele><time>2026-05-02T14:48:42.999Z</time></trkpt><trkpt lat="43.30969563396233" lon="13.214958773604206"><ele>704.25</ele><time>2026-05-02T14:48:43.999Z</time></trkpt><trkpt lat="43.30977930931846" lon="13.21478809459059"><ele>703.5</ele><time>2026-05-02T14:48:45.999Z</time></trkpt><trkpt lat="43.30986581498066" lon="13.214621231600365"><ele>702.75</ele><time>2026-05-02T14:48:46.999Z</time></trkpt><trkpt lat="43.30994963822697" lon="13.21447129814514"><ele>702.0</ele><time>2026-05-02T14:48:47.999Z</time></trkpt><trkpt lat="43.31003992201508" lon="13.214343045770255"><ele>702.0</ele><time>2026-05-02T14:48:48.999Z</time></trkpt><trkpt lat="43.310139255629714" lon="13.21423831976417"><ele>702.0</ele><time>2026-05-02T14:48:49.999Z</time></trkpt><trkpt lat="43.31026353569725" lon="13.214197410622837"><ele>702.0</ele><time>2026-05-02T14:48:50.999Z</time></trkpt><trkpt lat="43.31038095113472" lon="13.21417935807578"><ele>702.0</ele><time>2026-05-02T14:48:52Z</time></trkpt><trkpt lat="43.31048662910918" lon="13.214153880943606"><ele>702.0</ele><time>2026-05-02T14:48:53Z</time></trkpt><trkpt lat="43.3105558435336" lon="13.214148839018716"><ele>702.0</ele><time>2026-05-02T14:48:54Z</time></trkpt><trkpt lat="43.31061332560416" lon="13.214026666589824"><ele>702.0</ele><time>2026-05-02T14:48:56Z</time></trkpt><trkpt lat="43.31057716552417" lon="13.213942622796369"><ele>702.0</ele><time>2026-05-02T14:48:57Z</time></trkpt><trkpt lat="43.31049322693928" lon="13.213856876007766"><ele>702.0</ele><time>2026-05-02T14:48:58Z</time></trkpt><trkpt lat="43.31037856427581" lon="13.21378595378914"><ele>698.25</ele><time>2026-05-02T14:48:59Z</time></trkpt><trkpt lat="43.31025447292174" lon="13.213703901089678"><ele>694.5</ele><time>2026-05-02T14:49:00Z</time></trkpt><trkpt lat="43.31011040009179" lon="13.213614222985047"><ele>690.75</ele><time>2026-05-02T14:49:01Z</time></trkpt><trkpt lat="43.30998186246593" lon="13.213550407996117"><ele>687.0</ele><time>2026-05-02T14:49:02Z</time></trkpt><trkpt lat="43.309859178393694" lon="13.213526943877373"><ele>687.0</ele><time>2026-05-02T14:49:03Z</time></trkpt><trkpt lat="43.30974387781566" lon="13.213535222484238"><ele>687.0</ele><time>2026-05-02T14:49:04Z</time></trkpt><trkpt lat="43.309627949751565" lon="13.213548035573396"><ele>687.0</ele><time>2026-05-02T14:49:05Z</time></trkpt><trkpt lat="43.30951235104081" lon="13.213541931163077"><ele>687.0</ele><time>2026-05-02T14:49:06Z</time></trkpt><trkpt lat="43.309402751418645" lon="13.213514481527453"><ele>686.0</ele><time>2026-05-02T14:49:07Z</time></trkpt><trkpt lat="43.30929478902901" lon="13.213433428697718"><ele>685.0</ele><time>2026-05-02T14:49:08Z</time></trkpt><trkpt lat="43.30915785602886" lon="13.213365730479303"><ele>684.0</ele><time>2026-05-02T14:49:09Z</time></trkpt><trkpt lat="43.30900284103834" lon="13.21329337497541"><ele>683.0</ele><time>2026-05-02T14:49:10Z</time></trkpt><trkpt lat="43.30885125842954" lon="13.213231054262144"><ele>680.4</ele><time>2026-05-02T14:49:11Z</time></trkpt><trkpt lat="43.30871881811833" lon="13.213174940553994"><ele>677.8</ele><time>2026-05-02T14:49:12Z</time></trkpt><trkpt lat="43.30861253415087" lon="13.213112275728589"><ele>675.2</ele><time>2026-05-02T14:49:13Z</time></trkpt><trkpt lat="43.30852436786602" lon="13.213060156183353"><ele>672.6</ele><time>2026-05-02T14:49:14Z</time></trkpt><trkpt lat="43.30844177180131" lon="13.212991429219326"><ele>670.0</ele><time>2026-05-02T14:49:16Z</time></trkpt><trkpt lat="43.30834397295703" lon="13.212932871952392"><ele>669.0</ele><time>2026-05-02T14:49:18Z</time></trkpt><trkpt lat="43.30822602430181" lon="13.212887251355"><ele>668.0</ele><time>2026-05-02T14:49:20Z</time></trkpt><trkpt lat="43.30810779368125" lon="13.212821894034427"><ele>667.0</ele><time>2026-05-02T14:49:22Z</time></trkpt><trkpt lat="43.30804216606913" lon="13.212785700883227"><ele>666.0</ele><time>2026-05-02T14:49:23Z</time></trkpt><trkpt lat="43.30797354185407" lon="13.21275954426211"><ele>665.0</ele><time>2026-05-02T14:49:24Z</time></trkpt><trkpt lat="43.30790553087744" lon="13.212742970603996"><ele>663.8571428571429</ele><time>2026-05-02T14:49:25Z</time></trkpt><trkpt lat="43.30783405931568" lon="13.212730315718078"><ele>662.7142857142858</ele><time>2026-05-02T14:49:26Z</time></trkpt><trkpt lat="43.307764455303186" lon="13.21270885558078"><ele>661.5714285714286</ele><time>2026-05-02T14:49:27Z</time></trkpt><trkpt lat="43.307691259002674" lon="13.21268783367145"><ele>660.4285714285714</ele><time>2026-05-02T14:49:28Z</time></trkpt><trkpt lat="43.307622336444624" lon="13.212669725580959"><ele>659.2857142857143</ele><time>2026-05-02T14:49:29Z</time></trkpt><trkpt lat="43.30755524354679" lon="13.21264777665872"><ele>658.1428571428571</ele><time>2026-05-02T14:49:30Z</time></trkpt><trkpt lat="43.30749258468817" lon="13.212614353937623"><ele>657.0</ele><time>2026-05-02T14:49:31Z</time></trkpt><trkpt lat="43.307423804636294" lon="13.212583624791657"><ele>657.0</ele><time>2026-05-02T14:49:32Z</time></trkpt><trkpt lat="43.30735520444278" lon="13.21254445595825"><ele>657.0</ele><time>2026-05-02T14:49:33Z</time></trkpt><trkpt lat="43.307286075360004" lon="13.212503278461867"><ele>657.0</ele><time>2026-05-02T14:49:34Z</time></trkpt><trkpt lat="43.30721742164847" lon="13.212460896913365"><ele>657.0</ele><time>2026-05-02T14:49:35Z</time></trkpt><trkpt lat="43.30714414932971" lon="13.21242258247077"><ele>657.0</ele><time>2026-05-02T14:49:36Z</time></trkpt><trkpt lat="43.307071017788495" lon="13.212389344728045"><ele>657.0</ele><time>2026-05-02T14:49:37Z</time></trkpt><trkpt lat="43.3070005570008" lon="13.212360648497057"><ele>655.0</ele><time>2026-05-02T14:49:38Z</time></trkpt><trkpt lat="43.30693074733305" lon="13.212335954194476"><ele>653.0</ele><time>2026-05-02T14:49:39Z</time></trkpt><trkpt lat="43.30686175381433" lon="13.212312465097833"><ele>651.0</ele><time>2026-05-02T14:49:40Z</time></trkpt><trkpt lat="43.30679375649082" lon="13.212287350101928"><ele>649.0</ele><time>2026-05-02T14:49:41Z</time></trkpt><trkpt lat="43.30672953548914" lon="13.212267455735073"><ele>647.0</ele><time>2026-05-02T14:49:42Z</time></trkpt><trkpt lat="43.30665960363584" lon="13.212257290972923"><ele>645.0</ele><time>2026-05-02T14:49:43Z</time></trkpt><trkpt lat="43.30657071924412" lon="13.212239473010758"><ele>643.0</ele><time>2026-05-02T14:49:44Z</time></trkpt><trkpt lat="43.30647779175294" lon="13.212231877388318"><ele>640.7142857142857</ele><time>2026-05-02T14:49:45Z</time></trkpt><trkpt lat="43.30640301575759" lon="13.212223378514581"><ele>638.4285714285714</ele><time>2026-05-02T14:49:46Z</time></trkpt><trkpt lat="43.30632968128808" lon="13.212221931337728"><ele>636.1428571428571</ele><time>2026-05-02T14:49:47Z</time></trkpt><trkpt lat="43.30625629664254" lon="13.212233118190785"><ele>633.8571428571429</ele><time>2026-05-02T14:49:48Z</time></trkpt><trkpt lat="43.306186885973254" lon="13.212239501249005"><ele>631.5714285714286</ele><time>2026-05-02T14:49:49Z</time></trkpt><trkpt lat="43.30612050951169" lon="13.212236650140765"><ele>629.2857142857143</ele><time>2026-05-02T14:49:50Z</time></trkpt><trkpt lat="43.306052727932816" lon="13.212221707969784"><ele>627.0</ele><time>2026-05-02T14:49:51Z</time></trkpt><trkpt lat="43.30597865209896" lon="13.212204481870183"><ele>627.0</ele><time>2026-05-02T14:49:52Z</time></trkpt><trkpt lat="43.305902238683075" lon="13.212176634165603"><ele>627.0</ele><time>2026-05-02T14:49:53Z</time></trkpt><trkpt lat="43.305827036083535" lon="13.212151894765885"><ele>627.0</ele><time>2026-05-02T14:49:54Z</time></trkpt><trkpt lat="43.30575969177018" lon="13.21213203809958"><ele>627.0</ele><time>2026-05-02T14:49:55Z</time></trkpt><trkpt lat="43.30569408479137" lon="13.212118918450408"><ele>627.0</ele><time>2026-05-02T14:49:56Z</time></trkpt><trkpt lat="43.305624571918145" lon="13.212109534113592"><ele>627.0</ele><time>2026-05-02T14:49:57Z</time></trkpt><trkpt lat="43.305552417837795" lon="13.212106202213036"><ele>627.0</ele><time>2026-05-02T14:49:58Z</time></trkpt><trkpt lat="43.30547374423778" lon="13.212107194118829"><ele>625.5</ele><time>2026-05-02T14:49:59Z</time></trkpt><trkpt lat="43.305390757463" lon="13.212112476155998"><ele>624.0</ele><time>2026-05-02T14:50:00Z</time></trkpt><trkpt lat="43.30531265632208" lon="13.212110631717728"><ele>622.5</ele><time>2026-05-02T14:50:01Z</time></trkpt><trkpt lat="43.30524251102773" lon="13.212103541939383"><ele>621.0</ele><time>2026-05-02T14:50:02Z</time></trkpt><trkpt lat="43.3051157939475" lon="13.212082524191189"><ele>619.5</ele><time>2026-05-02T14:50:04Z</time></trkpt><trkpt lat="43.305053757880884" lon="13.212065955740007"><ele>618.0</ele><time>2026-05-02T14:50:05Z</time></trkpt><trkpt lat="43.304987157415844" lon="13.212045035540246"><ele>618.0000000000001</ele><time>2026-05-02T14:50:06Z</time></trkpt><trkpt lat="43.30491958497383" lon="13.212034117212315"><ele>618.0</ele><time>2026-05-02T14:50:07Z</time></trkpt><trkpt lat="43.30485132345025" lon="13.212022259558605"><ele>618.0</ele><time>2026-05-02T14:50:08Z</time></trkpt><trkpt lat="43.304785932097204" lon="13.212011052747503"><ele>618.0</ele><time>2026-05-02T14:50:09Z</time></trkpt><trkpt lat="43.30472200350988" lon="13.21199419477065"><ele>618.0</ele><time>2026-05-02T14:50:10Z</time></trkpt><trkpt lat="43.30465674606837" lon="13.21198420656356"><ele>618.0000000000001</ele><time>2026-05-02T14:50:11Z</time></trkpt><trkpt lat="43.30459122520354" lon="13.211974178711886"><ele>618.0</ele><time>2026-05-02T14:50:12Z</time></trkpt><trkpt lat="43.304528347525405" lon="13.211964765231759"><ele>616.8571428571429</ele><time>2026-05-02T14:50:13Z</time></trkpt><trkpt lat="43.304465355546576" lon="13.211951594862597"><ele>615.7142857142858</ele><time>2026-05-02T14:50:14Z</time></trkpt><trkpt lat="43.30440181813537" lon="13.211945546545907"><ele>614.5714285714287</ele><time>2026-05-02T14:50:15Z</time></trkpt><trkpt lat="43.304337422972544" lon="13.211939967692937"><ele>613.4285714285714</ele><time>2026-05-02T14:50:16Z</time></trkpt><trkpt lat="43.30427276216064" lon="13.211933204314054"><ele>612.2857142857142</ele><time>2026-05-02T14:50:17Z</time></trkpt><trkpt lat="43.304207219274716" lon="13.211927056904717"><ele>611.1428571428572</ele><time>2026-05-02T14:50:18Z</time></trkpt><trkpt lat="43.30414377619961" lon="13.21192247289709"><ele>610.0</ele><time>2026-05-02T14:50:19Z</time></trkpt><trkpt lat="43.304010807138894" lon="13.211904435521138"><ele>610.0</ele><time>2026-05-02T14:50:21Z</time></trkpt><trkpt lat="43.303943085228894" lon="13.211894685451732"><ele>610.0</ele><time>2026-05-02T14:50:22Z</time></trkpt><trkpt lat="43.30382775123392" lon="13.211891408993761"><ele>610.0</ele><time>2026-05-02T14:50:24Z</time></trkpt><trkpt lat="43.30372727969522" lon="13.211887198655905"><ele>610.0</ele><time>2026-05-02T14:50:26Z</time></trkpt><trkpt lat="43.30363867337136" lon="13.211889175535148"><ele>610.0</ele><time>2026-05-02T14:50:28Z</time></trkpt><trkpt lat="43.30356733542817" lon="13.211848281326672"><ele>608.8</ele><time>2026-05-02T14:50:30Z</time></trkpt><trkpt lat="43.30350143556804" lon="13.211788736744587"><ele>607.6</ele><time>2026-05-02T14:50:32Z</time></trkpt><trkpt lat="43.30340653714784" lon="13.211706367733246"><ele>606.4</ele><time>2026-05-02T14:50:34Z</time></trkpt><trkpt lat="43.30330005252394" lon="13.211633906483712"><ele>605.2</ele><time>2026-05-02T14:50:36Z</time></trkpt><trkpt lat="43.3031896127902" lon="13.211567393423774"><ele>604.0</ele><time>2026-05-02T14:50:38Z</time></trkpt><trkpt lat="43.30313173098204" lon="13.211533018856407"><ele>601.0</ele><time>2026-05-02T14:50:39Z</time></trkpt><trkpt lat="43.30302112451136" lon="13.21147558722025"><ele>598.0</ele><time>2026-05-02T14:50:41Z</time></trkpt><trkpt lat="43.302912467920855" lon="13.211419601828434"><ele>595.0</ele><time>2026-05-02T14:50:43Z</time></trkpt><trkpt lat="43.30280561787346" lon="13.211366556913122"><ele>592.0</ele><time>2026-05-02T14:50:45Z</time></trkpt><trkpt lat="43.30269255800253" lon="13.211325370771041"><ele>592.0</ele><time>2026-05-02T14:50:47Z</time></trkpt><trkpt lat="43.302583144068606" lon="13.211278616425183"><ele>592.0</ele><time>2026-05-02T14:50:49Z</time></trkpt><trkpt lat="43.30247822341661" lon="13.211277111451407"><ele>592.0</ele><time>2026-05-02T14:50:51Z</time></trkpt><trkpt lat="43.30241293613181" lon="13.211292823655937"><ele>592.0</ele><time>2026-05-02T14:50:52Z</time></trkpt><trkpt lat="43.302339654951766" lon="13.211328383175543"><ele>592.0</ele><time>2026-05-02T14:50:53Z</time></trkpt><trkpt lat="43.30228879306154" lon="13.211384060319778"><ele>592.0</ele><time>2026-05-02T14:50:54Z</time></trkpt><trkpt lat="43.30219081430073" lon="13.211453762557658"><ele>591.5714285714286</ele><time>2026-05-02T14:50:56Z</time></trkpt><trkpt lat="43.30214049464438" lon="13.211506116326326"><ele>591.1428571428571</ele><time>2026-05-02T14:50:57Z</time></trkpt><trkpt lat="43.30208353570976" lon="13.211569618387774"><ele>590.7142857142857</ele><time>2026-05-02T14:50:58Z</time></trkpt><trkpt lat="43.302034321698436" lon="13.211631314909058"><ele>590.2857142857142</ele><time>2026-05-02T14:50:59Z</time></trkpt><trkpt lat="43.30199892722092" lon="13.211708130331496"><ele>589.8571428571428</ele><time>2026-05-02T14:51:00Z</time></trkpt><trkpt lat="43.30194520924076" lon="13.21177555057629"><ele>589.4285714285714</ele><time>2026-05-02T14:51:01Z</time></trkpt><trkpt lat="43.301884290352746" lon="13.211815830405962"><ele>589.0</ele><time>2026-05-02T14:51:02Z</time></trkpt><trkpt lat="43.30183656367395" lon="13.211878929038052"><ele>589.0</ele><time>2026-05-02T14:51:03Z</time></trkpt><trkpt lat="43.30172362439831" lon="13.211911487372173"><ele>589.0</ele><time>2026-05-02T14:51:05Z</time></trkpt><trkpt lat="43.301658948218105" lon="13.211943946138069"><ele>589.0</ele><time>2026-05-02T14:51:06Z</time></trkpt><trkpt lat="43.30158010699359" lon="13.211939549418847"><ele>589.0</ele><time>2026-05-02T14:51:07Z</time></trkpt><trkpt lat="43.30150891577782" lon="13.211931805395535"><ele>589.0</ele><time>2026-05-02T14:51:08Z</time></trkpt><trkpt lat="43.30143983476729" lon="13.21192556861509"><ele>589.0</ele><time>2026-05-02T14:51:09Z</time></trkpt><trkpt lat="43.30137444810587" lon="13.211919652790892"><ele>587.4285714285714</ele><time>2026-05-02T14:51:10Z</time></trkpt><trkpt lat="43.30130711599168" lon="13.211909970176812"><ele>585.8571428571428</ele><time>2026-05-02T14:51:11Z</time></trkpt><trkpt lat="43.30124088300981" lon="13.211903992284892"><ele>584.2857142857142</ele><time>2026-05-02T14:51:12Z</time></trkpt><trkpt lat="43.30117627300988" lon="13.211894104467074"><ele>582.7142857142857</ele><time>2026-05-02T14:51:13Z</time></trkpt><trkpt lat="43.301107623660364" lon="13.211883078471763"><ele>581.1428571428571</ele><time>2026-05-02T14:51:14Z</time></trkpt><trkpt lat="43.301036564299935" lon="13.211860440591852"><ele>579.5714285714286</ele><time>2026-05-02T14:51:15Z</time></trkpt><trkpt lat="43.300971615256486" lon="13.211870668500044"><ele>578.0</ele><time>2026-05-02T14:51:16Z</time></trkpt><trkpt lat="43.30085734196869" lon="13.211857431775268"><ele>578.0</ele><time>2026-05-02T14:51:18Z</time></trkpt><trkpt lat="43.30073196303204" lon="13.211845960647583"><ele>578.0</ele><time>2026-05-02T14:51:20Z</time></trkpt><trkpt lat="43.30061424196528" lon="13.21183849230996"><ele>578.0</ele><time>2026-05-02T14:51:22Z</time></trkpt><trkpt lat="43.3004867510048" lon="13.211812642043514"><ele>578.0</ele><time>2026-05-02T14:51:24Z</time></trkpt><trkpt lat="43.30042648829872" lon="13.21178066186057"><ele>578.0</ele><time>2026-05-02T14:51:25Z</time></trkpt><trkpt lat="43.300319790936875" lon="13.211695820761825"><ele>576.3333333333333</ele><time>2026-05-02T14:51:27Z</time></trkpt><trkpt lat="43.30021144937729" lon="13.211602109486234"><ele>574.6666666666666</ele><time>2026-05-02T14:51:29Z</time></trkpt><trkpt lat="43.30015258652045" lon="13.211551311165483"><ele>573.0</ele><time>2026-05-02T14:51:30Z</time></trkpt><trkpt lat="43.300091665648345" lon="13.2114991437877"><ele>571.3333333333334</ele><time>2026-05-02T14:51:31Z</time></trkpt><trkpt lat="43.3000273285778" lon="13.211447876877426"><ele>569.6666666666667</ele><time>2026-05-02T14:51:32Z</time></trkpt><trkpt lat="43.2999612626348" lon="13.2113976808044"><ele>568.0</ele><time>2026-05-02T14:51:33Z</time></trkpt><trkpt lat="43.29989416506761" lon="13.211348903626861"><ele>567.4285714285714</ele><time>2026-05-02T14:51:34Z</time></trkpt><trkpt lat="43.299825544788504" lon="13.211303984832693"><ele>566.8571428571428</ele><time>2026-05-02T14:51:35Z</time></trkpt><trkpt lat="43.29975908863129" lon="13.211261577206745"><ele>566.2857142857142</ele><time>2026-05-02T14:51:36Z</time></trkpt><trkpt lat="43.29969358633745" lon="13.211220740623073"><ele>565.7142857142857</ele><time>2026-05-02T14:51:37Z</time></trkpt><trkpt lat="43.29963230751359" lon="13.211182919176874"><ele>565.1428571428571</ele><time>2026-05-02T14:51:38Z</time></trkpt><trkpt lat="43.2995821442077" lon="13.211126992298949"><ele>564.5714285714286</ele><time>2026-05-02T14:51:39Z</time></trkpt><trkpt lat="43.29951330430893" lon="13.21112905851595"><ele>564.0</ele><time>2026-05-02T14:51:40Z</time></trkpt><trkpt lat="43.29945028478664" lon="13.211111173120578"><ele>562.2857142857143</ele><time>2026-05-02T14:51:41Z</time></trkpt><trkpt lat="43.29938578030909" lon="13.211100886244454"><ele>560.5714285714286</ele><time>2026-05-02T14:51:42Z</time></trkpt><trkpt lat="43.299323921927105" lon="13.21107517497038"><ele>558.8571428571429</ele><time>2026-05-02T14:51:43Z</time></trkpt><trkpt lat="43.29925807344968" lon="13.211068763259666"><ele>557.1428571428571</ele><time>2026-05-02T14:51:44Z</time></trkpt><trkpt lat="43.29919486198288" lon="13.211064327043822"><ele>555.4285714285714</ele><time>2026-05-02T14:51:45Z</time></trkpt><trkpt lat="43.29912687661381" lon="13.211060403683359"><ele>553.7142857142858</ele><time>2026-05-02T14:51:46Z</time></trkpt><trkpt lat="43.29905863490983" lon="13.211057421030223"><ele>552.0</ele><time>2026-05-02T14:51:47Z</time></trkpt><trkpt lat="43.2989835344912" lon="13.211054778307506"><ele>549.8333333333334</ele><time>2026-05-02T14:51:48Z</time></trkpt><trkpt lat="43.298914977647875" lon="13.211052365855736"><ele>547.6666666666666</ele><time>2026-05-02T14:51:49Z</time></trkpt><trkpt lat="43.29884108175737" lon="13.211073117865482"><ele>545.5</ele><time>2026-05-02T14:51:50Z</time></trkpt><trkpt lat="43.29875940564397" lon="13.21106402949993"><ele>543.3333333333333</ele><time>2026-05-02T14:51:51Z</time></trkpt><trkpt lat="43.298675297228115" lon="13.211059607627577"><ele>541.1666666666666</ele><time>2026-05-02T14:51:52Z</time></trkpt><trkpt lat="43.29859277161134" lon="13.211055793522021"><ele>539.0</ele><time>2026-05-02T14:51:53Z</time></trkpt><trkpt lat="43.29850732570281" lon="13.211050929817437"><ele>539.0</ele><time>2026-05-02T14:51:54Z</time></trkpt><trkpt lat="43.298428699191305" lon="13.211048154612634"><ele>539.0</ele><time>2026-05-02T14:51:55Z</time></trkpt><trkpt lat="43.29834001410138" lon="13.21104426784662"><ele>539.0</ele><time>2026-05-02T14:51:56Z</time></trkpt><trkpt lat="43.298231409757875" lon="13.211027906005144"><ele>539.0</ele><time>2026-05-02T14:51:57Z</time></trkpt><trkpt lat="43.29810763436293" lon="13.21100519963589"><ele>539.0</ele><time>2026-05-02T14:51:58Z</time></trkpt><trkpt lat="43.29797198619954" lon="13.210963868607957"><ele>537.5</ele><time>2026-05-02T14:51:59Z</time></trkpt><trkpt lat="43.29782095753633" lon="13.21089586684636"><ele>536.0</ele><time>2026-05-02T14:52:00Z</time></trkpt><trkpt lat="43.297682240681006" lon="13.210826093175298"><ele>534.5</ele><time>2026-05-02T14:52:01Z</time></trkpt><trkpt lat="43.29756515772741" lon="13.210752198339529"><ele>533.0</ele><time>2026-05-02T14:52:02Z</time></trkpt><trkpt lat="43.29744362171382" lon="13.210663232200801"><ele>531.75</ele><time>2026-05-02T14:52:03Z</time></trkpt><trkpt lat="43.2973320949798" lon="13.21053718809899"><ele>530.5</ele><time>2026-05-02T14:52:04Z</time></trkpt><trkpt lat="43.29723199158046" lon="13.210428567800093"><ele>529.25</ele><time>2026-05-02T14:52:05Z</time></trkpt><trkpt lat="43.29710711459327" lon="13.210310491761216"><ele>528.0</ele><time>2026-05-02T14:52:06Z</time></trkpt><trkpt lat="43.296994042998115" lon="13.210197567098865"><ele>528.0</ele><time>2026-05-02T14:52:07Z</time></trkpt><trkpt lat="43.296871348521634" lon="13.210103522612805"><ele>528.0</ele><time>2026-05-02T14:52:08Z</time></trkpt><trkpt lat="43.29672833335058" lon="13.210018497306914"><ele>528.0</ele><time>2026-05-02T14:52:09Z</time></trkpt><trkpt lat="43.296573801888385" lon="13.209942221627626"><ele>528.0</ele><time>2026-05-02T14:52:10Z</time></trkpt><trkpt lat="43.29642786498944" lon="13.209894591041897"><ele>528.0</ele><time>2026-05-02T14:52:11Z</time></trkpt><trkpt lat="43.296289914276834" lon="13.20984703786497"><ele>528.0</ele><time>2026-05-02T14:52:12Z</time></trkpt><trkpt lat="43.29608449215851" lon="13.209829856842344"><ele>527.25</ele><time>2026-05-02T14:52:13Z</time></trkpt><trkpt lat="43.295944717035745" lon="13.209837702549198"><ele>526.5</ele><time>2026-05-02T14:52:14Z</time></trkpt><trkpt lat="43.29582033249277" lon="13.20982509569688"><ele>525.75</ele><time>2026-05-02T14:52:15Z</time></trkpt><trkpt lat="43.295704406661045" lon="13.209808309204877"><ele>525.0</ele><time>2026-05-02T14:52:16Z</time></trkpt><trkpt lat="43.29559745301768" lon="13.20978159576334"><ele>524.2</ele><time>2026-05-02T14:52:17Z</time></trkpt><trkpt lat="43.29550579624393" lon="13.209740431006647"><ele>523.4</ele><time>2026-05-02T14:52:18Z</time></trkpt><trkpt lat="43.29541445379036" lon="13.209670234159796"><ele>522.6</ele><time>2026-05-02T14:52:19.001Z</time></trkpt><trkpt lat="43.29531727138693" lon="13.209588243778326"><ele>521.8</ele><time>2026-05-02T14:52:20.001Z</time></trkpt><trkpt lat="43.29522524833167" lon="13.209497207432474"><ele>521.0</ele><time>2026-05-02T14:52:21.001Z</time></trkpt><trkpt lat="43.29513957539073" lon="13.209407006356937"><ele>521.0</ele><time>2026-05-02T14:52:22.001Z</time></trkpt><trkpt lat="43.29505710338182" lon="13.209323777422576"><ele>521.0</ele><time>2026-05-02T14:52:23.001Z</time></trkpt><trkpt lat="43.294973254537965" lon="13.209256606783685"><ele>521.0</ele><time>2026-05-02T14:52:24.001Z</time></trkpt><trkpt lat="43.29487858567927" lon="13.20922595629594"><ele>521.0</ele><time>2026-05-02T14:52:25.001Z</time></trkpt><trkpt lat="43.29477927299587" lon="13.209218711509227"><ele>521.0</ele><time>2026-05-02T14:52:26.001Z</time></trkpt><trkpt lat="43.294665857611115" lon="13.20923022532802"><ele>520.0</ele><time>2026-05-02T14:52:27.001Z</time></trkpt><trkpt lat="43.29455706164134" lon="13.209256228746158"><ele>519.0</ele><time>2026-05-02T14:52:28.001Z</time></trkpt><trkpt lat="43.294451010196845" lon="13.209309027001689"><ele>518.0</ele><time>2026-05-02T14:52:29.001Z</time></trkpt><trkpt lat="43.29435247708442" lon="13.209331609942486"><ele>517.0</ele><time>2026-05-02T14:52:30.001Z</time></trkpt><trkpt lat="43.29426121771659" lon="13.209335130390684"><ele>516.0</ele><time>2026-05-02T14:52:31.001Z</time></trkpt><trkpt lat="43.294150078561" lon="13.209301426015283"><ele>516.0</ele><time>2026-05-02T14:52:32.001Z</time></trkpt><trkpt lat="43.29404958447595" lon="13.209304046355594"><ele>516.0</ele><time>2026-05-02T14:52:33.001Z</time></trkpt><trkpt lat="43.29394669991027" lon="13.209275054043953"><ele>516.0</ele><time>2026-05-02T14:52:34.001Z</time></trkpt><trkpt lat="43.293850024563746" lon="13.209249084030676"><ele>516.0</ele><time>2026-05-02T14:52:35Z</time></trkpt><trkpt lat="43.29376106913964" lon="13.209212835339962"><ele>516.0</ele><time>2026-05-02T14:52:36Z</time></trkpt><trkpt lat="43.293668012879216" lon="13.209178606724285"><ele>514.4</ele><time>2026-05-02T14:52:37Z</time></trkpt><trkpt lat="43.293578417739965" lon="13.209149782389579"><ele>512.8</ele><time>2026-05-02T14:52:38Z</time></trkpt><trkpt lat="43.29348746471066" lon="13.20912285276678"><ele>511.19999999999993</ele><time>2026-05-02T14:52:39Z</time></trkpt><trkpt lat="43.29340257997812" lon="13.209099865458162"><ele>509.59999999999997</ele><time>2026-05-02T14:52:40Z</time></trkpt><trkpt lat="43.293314309182115" lon="13.209076287943631"><ele>508.0</ele><time>2026-05-02T14:52:41Z</time></trkpt><trkpt lat="43.29322603633509" lon="13.209032618813513"><ele>508.0</ele><time>2026-05-02T14:52:42Z</time></trkpt><trkpt lat="43.29313286108149" lon="13.209030905186845"><ele>507.99999999999994</ele><time>2026-05-02T14:52:43Z</time></trkpt><trkpt lat="43.293035776190436" lon="13.209060121930527"><ele>507.99999999999994</ele><time>2026-05-02T14:52:44Z</time></trkpt><trkpt lat="43.292928939070606" lon="13.209134139364732"><ele>508.0</ele><time>2026-05-02T14:52:45Z</time></trkpt><trkpt lat="43.29284783404848" lon="13.20920015117007"><ele>508.0</ele><time>2026-05-02T14:52:46Z</time></trkpt><trkpt lat="43.29276046150492" lon="13.209266102389764"><ele>505.59999999999997</ele><time>2026-05-02T14:52:47Z</time></trkpt><trkpt lat="43.292674031422806" lon="13.209329031965346"><ele>503.19999999999993</ele><time>2026-05-02T14:52:48Z</time></trkpt><trkpt lat="43.292591596665595" lon="13.209388005670782"><ele>500.8</ele><time>2026-05-02T14:52:49Z</time></trkpt><trkpt lat="43.29251022121813" lon="13.209447933477374"><ele>498.4</ele><time>2026-05-02T14:52:50Z</time></trkpt><trkpt lat="43.29243508397847" lon="13.209508839323085"><ele>496.0</ele><time>2026-05-02T14:52:51Z</time></trkpt><trkpt lat="43.29235057469675" lon="13.209577342057882"><ele>496.0</ele><time>2026-05-02T14:52:52Z</time></trkpt><trkpt lat="43.29226325193403" lon="13.209653690563316"><ele>496.0</ele><time>2026-05-02T14:52:53Z</time></trkpt><trkpt lat="43.29216960880542" lon="13.209725275419792"><ele>496.0</ele><time>2026-05-02T14:52:54Z</time></trkpt><trkpt lat="43.292072524740945" lon="13.209773930570721"><ele>496.0</ele><time>2026-05-02T14:52:55Z</time></trkpt><trkpt lat="43.291982007965096" lon="13.209803173856429"><ele>496.0</ele><time>2026-05-02T14:52:56Z</time></trkpt><trkpt lat="43.29189012130418" lon="13.209790967064398"><ele>493.25</ele><time>2026-05-02T14:52:57Z</time></trkpt><trkpt lat="43.29179082843584" lon="13.209807117502356"><ele>490.5</ele><time>2026-05-02T14:52:58Z</time></trkpt><trkpt lat="43.29167327471627" lon="13.209805936063804"><ele>487.75</ele><time>2026-05-02T14:52:59Z</time></trkpt><trkpt lat="43.291552070313955" lon="13.209810127934782"><ele>485.0</ele><time>2026-05-02T14:53:00Z</time></trkpt><trkpt lat="43.29143235994789" lon="13.209811303502457"><ele>485.25</ele><time>2026-05-02T14:53:01Z</time></trkpt><trkpt lat="43.291308246737444" lon="13.209819040434441"><ele>485.5</ele><time>2026-05-02T14:53:02Z</time></trkpt><trkpt lat="43.2911489424498" lon="13.209844660309116"><ele>485.75</ele><time>2026-05-02T14:53:03Z</time></trkpt><trkpt lat="43.291020189998406" lon="13.209872515074313"><ele>486.0</ele><time>2026-05-02T14:53:04Z</time></trkpt><trkpt lat="43.29092113248499" lon="13.209886413694628"><ele>486.0</ele><time>2026-05-02T14:53:05Z</time></trkpt><trkpt lat="43.290838448794965" lon="13.209906309785627"><ele>486.0</ele><time>2026-05-02T14:53:06Z</time></trkpt><trkpt lat="43.29059197481247" lon="13.20994534363177"><ele>486.0</ele><time>2026-05-02T14:53:07Z</time></trkpt><trkpt lat="43.290488560215415" lon="13.209943784154357"><ele>486.0</ele><time>2026-05-02T14:53:08Z</time></trkpt><trkpt lat="43.290392930095344" lon="13.209956187245336"><ele>485.20000000000005</ele><time>2026-05-02T14:53:09Z</time></trkpt><trkpt lat="43.29030378318753" lon="13.209946019511985"><ele>484.40000000000003</ele><time>2026-05-02T14:53:10Z</time></trkpt><trkpt lat="43.29020204252995" lon="13.2099060568098"><ele>483.6</ele><time>2026-05-02T14:53:11Z</time></trkpt><trkpt lat="43.290081915751664" lon="13.209894526312747"><ele>482.8</ele><time>2026-05-02T14:53:12Z</time></trkpt><trkpt lat="43.28997344355873" lon="13.209866786975065"><ele>482.0</ele><time>2026-05-02T14:53:13Z</time></trkpt><trkpt lat="43.28988355370206" lon="13.209843859566265"><ele>482.0</ele><time>2026-05-02T14:53:14Z</time></trkpt><trkpt lat="43.28980097035862" lon="13.20982924853188"><ele>482.00000000000006</ele><time>2026-05-02T14:53:15Z</time></trkpt><trkpt lat="43.28972614266624" lon="13.209818000758"><ele>482.0</ele><time>2026-05-02T14:53:16Z</time></trkpt><trkpt lat="43.2896527763113" lon="13.209806965838638"><ele>482.0</ele><time>2026-05-02T14:53:17Z</time></trkpt><trkpt lat="43.289572449507375" lon="13.209804813998236"><ele>482.00000000000006</ele><time>2026-05-02T14:53:18Z</time></trkpt><trkpt lat="43.2895072574471" lon="13.20980231417441"><ele>482.0</ele><time>2026-05-02T14:53:19Z</time></trkpt><trkpt lat="43.28944393802826" lon="13.209796344300083"><ele>482.0</ele><time>2026-05-02T14:53:20Z</time></trkpt><trkpt lat="43.289374892192576" lon="13.209790754723421"><ele>481.66666666666663</ele><time>2026-05-02T14:53:21Z</time></trkpt><trkpt lat="43.28929517596028" lon="13.209784172503864"><ele>481.3333333333333</ele><time>2026-05-02T14:53:22Z</time></trkpt><trkpt lat="43.28921192783507" lon="13.209784221813763"><ele>481.0</ele><time>2026-05-02T14:53:23Z</time></trkpt><trkpt lat="43.28912124727465" lon="13.209791181663295"><ele>480.66666666666663</ele><time>2026-05-02T14:53:24Z</time></trkpt><trkpt lat="43.28904245572086" lon="13.209819794824366"><ele>480.3333333333333</ele><time>2026-05-02T14:53:25Z</time></trkpt><trkpt lat="43.288977008367524" lon="13.209868068775398"><ele>480.0</ele><time>2026-05-02T14:53:26Z</time></trkpt><trkpt lat="43.28890112947031" lon="13.209923130848821"><ele>478.6</ele><time>2026-05-02T14:53:27Z</time></trkpt><trkpt lat="43.28883775929657" lon="13.20998557880385"><ele>477.2</ele><time>2026-05-02T14:53:28Z</time></trkpt><trkpt lat="43.288751973206615" lon="13.210099341952512"><ele>475.79999999999995</ele><time>2026-05-02T14:53:30Z</time></trkpt><trkpt lat="43.28868655532026" lon="13.210149513580268"><ele>474.4</ele><time>2026-05-02T14:53:33Z</time></trkpt><trkpt lat="43.28879312968941" lon="13.210303358784374"><ele>473.0</ele><time>2026-05-02T14:53:36Z</time></trkpt><trkpt lat="43.28890317011923" lon="13.21033577803869"><ele>474.4</ele><time>2026-05-02T14:53:38Z</time></trkpt><trkpt lat="43.28899136778773" lon="13.210372918299763"><ele>475.79999999999995</ele><time>2026-05-02T14:53:39Z</time></trkpt><trkpt lat="43.2890930428558" lon="13.210388924735904"><ele>477.2</ele><time>2026-05-02T14:53:40Z</time></trkpt><trkpt lat="43.28920373109068" lon="13.210427172291263"><ele>478.6</ele><time>2026-05-02T14:53:41Z</time></trkpt><trkpt lat="43.289297603905254" lon="13.21048780288908"><ele>480.0</ele><time>2026-05-02T14:53:42Z</time></trkpt><trkpt lat="43.28937940376958" lon="13.210510538873894"><ele>480.0</ele><time>2026-05-02T14:53:43Z</time></trkpt><trkpt lat="43.289452981963855" lon="13.210541848414023"><ele>480.0</ele><time>2026-05-02T14:53:44Z</time></trkpt><trkpt lat="43.28952270815243" lon="13.210545795116227"><ele>480.0</ele><time>2026-05-02T14:53:45Z</time></trkpt><trkpt lat="43.28961764006117" lon="13.210555514058363"><ele>480.0</ele><time>2026-05-02T14:53:46Z</time></trkpt><trkpt lat="43.28969506568116" lon="13.210569732564162"><ele>480.0</ele><time>2026-05-02T14:53:47Z</time></trkpt><trkpt lat="43.28976469966753" lon="13.210596911390853"><ele>480.0</ele><time>2026-05-02T14:53:48Z</time></trkpt><trkpt lat="43.28982887839672" lon="13.21063313576571"><ele>479.8</ele><time>2026-05-02T14:53:49Z</time></trkpt><trkpt lat="43.2898802880699" lon="13.210686573655641"><ele>479.6</ele><time>2026-05-02T14:53:50Z</time></trkpt><trkpt lat="43.28994854045269" lon="13.210782692522674"><ele>479.4</ele><time>2026-05-02T14:53:52Z</time></trkpt><trkpt lat="43.289989946664534" lon="13.210971716105332"><ele>479.2</ele><time>2026-05-02T14:53:54Z</time></trkpt><trkpt lat="43.28997641026848" lon="13.211104575919762"><ele>479.0</ele><time>2026-05-02T14:53:55Z</time></trkpt><trkpt lat="43.28998116977369" lon="13.211207007480054"><ele>479.0</ele><time>2026-05-02T14:53:56Z</time></trkpt><trkpt lat="43.29000083085246" lon="13.211349720018985"><ele>479.0</ele><time>2026-05-02T14:53:57Z</time></trkpt><trkpt lat="43.290013174771055" lon="13.21151827374764"><ele>479.0</ele><time>2026-05-02T14:53:58Z</time></trkpt><trkpt lat="43.29004580327933" lon="13.211655565543227"><ele>479.0</ele><time>2026-05-02T14:53:59Z</time></trkpt><trkpt lat="43.29005436255703" lon="13.211792532502862"><ele>479.0</ele><time>2026-05-02T14:54:00Z</time></trkpt><trkpt lat="43.290059236548224" lon="13.211893614598479"><ele>480.16666666666663</ele><time>2026-05-02T14:54:01Z</time></trkpt><trkpt lat="43.290069670995365" lon="13.211981260874257"><ele>481.3333333333333</ele><time>2026-05-02T14:54:02Z</time></trkpt><trkpt lat="43.29004423924802" lon="13.212125895169876"><ele>482.5</ele><time>2026-05-02T14:54:04Z</time></trkpt><trkpt lat="43.29001268364989" lon="13.212223517288518"><ele>483.66666666666663</ele><time>2026-05-02T14:54:05Z</time></trkpt><trkpt lat="43.28996798516034" lon="13.212312441262677"><ele>484.8333333333333</ele><time>2026-05-02T14:54:06Z</time></trkpt><trkpt lat="43.28992248135726" lon="13.212400815015103"><ele>486.0</ele><time>2026-05-02T14:54:07Z</time></trkpt><trkpt lat="43.289886345602724" lon="13.212489694115963"><ele>486.8333333333333</ele><time>2026-05-02T14:54:08Z</time></trkpt><trkpt lat="43.28984091383215" lon="13.212568643420038"><ele>487.66666666666663</ele><time>2026-05-02T14:54:09Z</time></trkpt><trkpt lat="43.28977759073961" lon="13.212628169909049"><ele>488.5</ele><time>2026-05-02T14:54:10Z</time></trkpt><trkpt lat="43.28970465108092" lon="13.212682232560601"><ele>489.3333333333333</ele><time>2026-05-02T14:54:11Z</time></trkpt><trkpt lat="43.28962989013603" lon="13.212814991587258"><ele>490.16666666666663</ele><time>2026-05-02T14:54:13Z</time></trkpt><trkpt lat="43.28959765994927" lon="13.212930976089302"><ele>491.0</ele><time>2026-05-02T14:54:14Z</time></trkpt><trkpt lat="43.289575600104165" lon="13.213063635486224"><ele>493.0</ele><time>2026-05-02T14:54:15Z</time></trkpt><trkpt lat="43.28953861651547" lon="13.213214459507604"><ele>495.0</ele><time>2026-05-02T14:54:16Z</time></trkpt><trkpt lat="43.28949675282499" lon="13.213355956610183"><ele>497.0</ele><time>2026-05-02T14:54:17Z</time></trkpt><trkpt lat="43.28945932476733" lon="13.213474774811953"><ele>499.0</ele><time>2026-05-02T14:54:18Z</time></trkpt><trkpt lat="43.28943314516972" lon="13.213569249489336"><ele>501.0</ele><time>2026-05-02T14:54:19Z</time></trkpt><trkpt lat="43.28941465487996" lon="13.213665252946354"><ele>501.0</ele><time>2026-05-02T14:54:20Z</time></trkpt><trkpt lat="43.28939261608426" lon="13.213774375736973"><ele>501.0</ele><time>2026-05-02T14:54:21Z</time></trkpt><trkpt lat="43.28939568271913" lon="13.213884080020279"><ele>501.0</ele><time>2026-05-02T14:54:22Z</time></trkpt><trkpt lat="43.289416241500035" lon="13.214006633222013"><ele>501.0</ele><time>2026-05-02T14:54:23Z</time></trkpt><trkpt lat="43.28943699742244" lon="13.214124019634744"><ele>501.0</ele><time>2026-05-02T14:54:24Z</time></trkpt><trkpt lat="43.28942580178035" lon="13.214291690357216"><ele>503.0</ele><time>2026-05-02T14:54:26Z</time></trkpt><trkpt lat="43.289382686908446" lon="13.214399488447837"><ele>505.0</ele><time>2026-05-02T14:54:27Z</time></trkpt><trkpt lat="43.2893444123016" lon="13.214520341844405"><ele>507.0</ele><time>2026-05-02T14:54:28Z</time></trkpt><trkpt lat="43.28930931857381" lon="13.214658148978545"><ele>509.0</ele><time>2026-05-02T14:54:29Z</time></trkpt><trkpt lat="43.28927600372991" lon="13.21480739020457"><ele>511.0</ele><time>2026-05-02T14:54:30Z</time></trkpt><trkpt lat="43.289233944851155" lon="13.214956837443452"><ele>513.0</ele><time>2026-05-02T14:54:31Z</time></trkpt><trkpt lat="43.28918670814323" lon="13.215107158518837"><ele>515.0</ele><time>2026-05-02T14:54:32Z</time></trkpt><trkpt lat="43.28913707029358" lon="13.215241417008288"><ele>517.0</ele><time>2026-05-02T14:54:33Z</time></trkpt><trkpt lat="43.28909972926838" lon="13.215356309354844"><ele>519.0</ele><time>2026-05-02T14:54:34Z</time></trkpt><trkpt lat="43.28907576978121" lon="13.215477084256438"><ele>521.0</ele><time>2026-05-02T14:54:35Z</time></trkpt><trkpt lat="43.289054838049694" lon="13.215598961142508"><ele>523.4</ele><time>2026-05-02T14:54:36Z</time></trkpt><trkpt lat="43.2890396149905" lon="13.215741548995634"><ele>525.8</ele><time>2026-05-02T14:54:37Z</time></trkpt><trkpt lat="43.28904722051977" lon="13.215878012378152"><ele>528.1999999999999</ele><time>2026-05-02T14:54:38Z</time></trkpt><trkpt lat="43.28904304450966" lon="13.21599689928062"><ele>530.6</ele><time>2026-05-02T14:54:39Z</time></trkpt><trkpt lat="43.28903571022994" lon="13.216100634052651"><ele>533.0</ele><time>2026-05-02T14:54:40Z</time></trkpt><trkpt lat="43.289060626992416" lon="13.216247055417364"><ele>533.0</ele><time>2026-05-02T14:54:42Z</time></trkpt><trkpt lat="43.28911463556801" lon="13.216354197577452"><ele>533.0</ele><time>2026-05-02T14:54:44Z</time></trkpt><trkpt lat="43.289223545457766" lon="13.216398382554713"><ele>533.0</ele><time>2026-05-02T14:54:46Z</time></trkpt><trkpt lat="43.289342660922436" lon="13.216389440863713"><ele>533.0</ele><time>2026-05-02T14:54:48Z</time></trkpt><trkpt lat="43.28941065687507" lon="13.216398674470316"><ele>533.0</ele><time>2026-05-02T14:54:49Z</time></trkpt><trkpt lat="43.28949314625256" lon="13.216408215427515"><ele>533.0</ele><time>2026-05-02T14:54:50Z</time></trkpt><trkpt lat="43.28958819375489" lon="13.216418995153374"><ele>533.0</ele><time>2026-05-02T14:54:51Z</time></trkpt><trkpt lat="43.28968265921772" lon="13.21641805170842"><ele>533.0</ele><time>2026-05-02T14:54:52Z</time></trkpt><trkpt lat="43.28979148640585" lon="13.21640221437858"><ele>533.0</ele><time>2026-05-02T14:54:53Z</time></trkpt><trkpt lat="43.2898870001981" lon="13.216395001657185"><ele>533.0</ele><time>2026-05-02T14:54:54Z</time></trkpt><trkpt lat="43.28998634939999" lon="13.216377510627549"><ele>534.6</ele><time>2026-05-02T14:54:55Z</time></trkpt><trkpt lat="43.29008183611971" lon="13.216343229819048"><ele>536.1999999999999</ele><time>2026-05-02T14:54:56Z</time></trkpt><trkpt lat="43.29017703735851" lon="13.216306637570103"><ele>537.8</ele><time>2026-05-02T14:54:57Z</time></trkpt><trkpt lat="43.29026462367934" lon="13.216269842893825"><ele>539.4</ele><time>2026-05-02T14:54:58Z</time></trkpt><trkpt lat="43.29035690967058" lon="13.216230792362145"><ele>541.0</ele><time>2026-05-02T14:54:59Z</time></trkpt><trkpt lat="43.29042910408421" lon="13.216212090550213"><ele>541.0</ele><time>2026-05-02T14:55:00Z</time></trkpt><trkpt lat="43.290497715173125" lon="13.216210448590871"><ele>541.0</ele><time>2026-05-02T14:55:01Z</time></trkpt><trkpt lat="43.290587012881055" lon="13.216213622362838"><ele>541.0</ele><time>2026-05-02T14:55:02Z</time></trkpt><trkpt lat="43.29067933695889" lon="13.216224243785637"><ele>541.0</ele><time>2026-05-02T14:55:03Z</time></trkpt><trkpt lat="43.290784504368396" lon="13.216242844379593"><ele>541.0</ele><time>2026-05-02T14:55:04Z</time></trkpt><trkpt lat="43.29088963170299" lon="13.21625933757849"><ele>542.0</ele><time>2026-05-02T14:55:05Z</time></trkpt><trkpt lat="43.2909865981663" lon="13.216287119756524"><ele>543.0</ele><time>2026-05-02T14:55:06Z</time></trkpt><trkpt lat="43.29107471540446" lon="13.216308201202317"><ele>544.0</ele><time>2026-05-02T14:55:07Z</time></trkpt><trkpt lat="43.29117083895162" lon="13.216340253797899"><ele>545.0</ele><time>2026-05-02T14:55:08Z</time></trkpt><trkpt lat="43.291271482785206" lon="13.21636730489722"><ele>546.0</ele><time>2026-05-02T14:55:09Z</time></trkpt><trkpt lat="43.291378613305156" lon="13.216385555956355"><ele>546.6</ele><time>2026-05-02T14:55:10Z</time></trkpt><trkpt lat="43.29148986819065" lon="13.216417625347319"><ele>547.2</ele><time>2026-05-02T14:55:11Z</time></trkpt><trkpt lat="43.29159736261013" lon="13.216457382948398"><ele>547.8</ele><time>2026-05-02T14:55:12Z</time></trkpt><trkpt lat="43.29170532738344" lon="13.216491283998861"><ele>548.4</ele><time>2026-05-02T14:55:13Z</time></trkpt><trkpt lat="43.291808200602254" lon="13.216508793359912"><ele>549.0</ele><time>2026-05-02T14:55:14Z</time></trkpt><trkpt lat="43.29190928824736" lon="13.216516212183535"><ele>549.8333333333334</ele><time>2026-05-02T14:55:15Z</time></trkpt><trkpt lat="43.292008383936235" lon="13.21651814048809"><ele>550.6666666666666</ele><time>2026-05-02T14:55:16Z</time></trkpt><trkpt lat="43.29210117657268" lon="13.216522333800873"><ele>551.5</ele><time>2026-05-02T14:55:17Z</time></trkpt><trkpt lat="43.292186643309634" lon="13.216517782615128"><ele>552.3333333333333</ele><time>2026-05-02T14:55:18Z</time></trkpt><trkpt lat="43.2922534948768" lon="13.216502535316366"><ele>553.1666666666666</ele><time>2026-05-02T14:55:19Z</time></trkpt><trkpt lat="43.29232094838832" lon="13.216492105090481"><ele>554.0</ele><time>2026-05-02T14:55:32Z</time></trkpt><trkpt lat="43.292415991211136" lon="13.216467918352894"><ele>554.6666666666666</ele><time>2026-05-02T14:55:34Z</time></trkpt><trkpt lat="43.292491099924234" lon="13.216455929334082"><ele>555.3333333333333</ele><time>2026-05-02T14:55:35Z</time></trkpt><trkpt lat="43.292566028628" lon="13.216445021310234"><ele>556.0</ele><time>2026-05-02T14:55:36Z</time></trkpt><trkpt lat="43.29264648844938" lon="13.21643258266098"><ele>556.6666666666666</ele><time>2026-05-02T14:55:37Z</time></trkpt><trkpt lat="43.292726319198984" lon="13.216410337164525"><ele>557.3333333333334</ele><time>2026-05-02T14:55:38Z</time></trkpt><trkpt lat="43.292816158821815" lon="13.216381614075445"><ele>558.0</ele><time>2026-05-02T14:55:39Z</time></trkpt><trkpt lat="43.29290261621159" lon="13.2163544613686"><ele>558.0</ele><time>2026-05-02T14:55:40Z</time></trkpt><trkpt lat="43.29298559566241" lon="13.216330832079288"><ele>558.0</ele><time>2026-05-02T14:55:41Z</time></trkpt><trkpt lat="43.29305482933065" lon="13.216318490063825"><ele>558.0</ele><time>2026-05-02T14:55:42Z</time></trkpt><trkpt lat="43.29316048632059" lon="13.216345260486255"><ele>558.0</ele><time>2026-05-02T14:55:44Z</time></trkpt><trkpt lat="43.29322927348684" lon="13.216351889246218"><ele>558.0</ele><time>2026-05-02T14:55:45Z</time></trkpt><trkpt lat="43.293304406743474" lon="13.216362138067074"><ele>558.0</ele><time>2026-05-02T14:55:46Z</time></trkpt><trkpt lat="43.29339115307374" lon="13.21636473506774"><ele>560.4</ele><time>2026-05-02T14:55:47Z</time></trkpt><trkpt lat="43.29348135553017" lon="13.216353065462197"><ele>562.8</ele><time>2026-05-02T14:55:48Z</time></trkpt><trkpt lat="43.293593770018376" lon="13.216335267071603"><ele>565.2</ele><time>2026-05-02T14:55:49Z</time></trkpt><trkpt lat="43.2937017079326" lon="13.216311257646458"><ele>567.6</ele><time>2026-05-02T14:55:50Z</time></trkpt><trkpt lat="43.293792529607686" lon="13.216270922471113"><ele>570.0</ele><time>2026-05-02T14:55:51Z</time></trkpt><trkpt lat="43.29390826405408" lon="13.216244013458487"><ele>571.5</ele><time>2026-05-02T14:55:52Z</time></trkpt><trkpt lat="43.29402573778536" lon="13.21621512807741"><ele>573.0</ele><time>2026-05-02T14:55:53Z</time></trkpt><trkpt lat="43.294153408754504" lon="13.216192937129364"><ele>574.5</ele><time>2026-05-02T14:55:54Z</time></trkpt><trkpt lat="43.29428386339279" lon="13.216180375225074"><ele>576.0</ele><time>2026-05-02T14:55:55Z</time></trkpt><trkpt lat="43.29441794937087" lon="13.216175410318675"><ele>576.0</ele><time>2026-05-02T14:55:56Z</time></trkpt><trkpt lat="43.29451989444651" lon="13.216152514629423"><ele>576.0</ele><time>2026-05-02T14:55:57Z</time></trkpt><trkpt lat="43.2946239603472" lon="13.216120992697892"><ele>576.0</ele><time>2026-05-02T14:55:58Z</time></trkpt><trkpt lat="43.294717217328" lon="13.21608715709064"><ele>576.0</ele><time>2026-05-02T14:55:59Z</time></trkpt><trkpt lat="43.29480213151342" lon="13.216086863611348"><ele>576.0</ele><time>2026-05-02T14:56:00Z</time></trkpt><trkpt lat="43.29490384059603" lon="13.216102471403058"><ele>578.4</ele><time>2026-05-02T14:56:01Z</time></trkpt><trkpt lat="43.29499273381732" lon="13.216126309872461"><ele>580.8</ele><time>2026-05-02T14:56:02Z</time></trkpt><trkpt lat="43.29508304844503" lon="13.216157370591867"><ele>583.1999999999999</ele><time>2026-05-02T14:56:03Z</time></trkpt><trkpt lat="43.29518842235508" lon="13.216197113708306"><ele>585.6</ele><time>2026-05-02T14:56:04Z</time></trkpt><trkpt lat="43.295285542361704" lon="13.21624134605033"><ele>588.0</ele><time>2026-05-02T14:56:05Z</time></trkpt><trkpt lat="43.29537436084107" lon="13.216284479126372"><ele>588.0</ele><time>2026-05-02T14:56:06Z</time></trkpt><trkpt lat="43.29546889221277" lon="13.21631482644656"><ele>588.0</ele><time>2026-05-02T14:56:07Z</time></trkpt><trkpt lat="43.29557327512462" lon="13.216344660367666"><ele>588.0</ele><time>2026-05-02T14:56:08Z</time></trkpt><trkpt lat="43.29568540352607" lon="13.216372837361757"><ele>588.0</ele><time>2026-05-02T14:56:09Z</time></trkpt><trkpt lat="43.29580122873022" lon="13.21639804587144"><ele>588.0</ele><time>2026-05-02T14:56:10Z</time></trkpt><trkpt lat="43.295926138660064" lon="13.216399316087292"><ele>590.5</ele><time>2026-05-02T14:56:11Z</time></trkpt><trkpt lat="43.29606663487588" lon="13.216393445859419"><ele>593.0</ele><time>2026-05-02T14:56:12Z</time></trkpt><trkpt lat="43.29619183520281" lon="13.216379266448714"><ele>595.5</ele><time>2026-05-02T14:56:13Z</time></trkpt><trkpt lat="43.29630233008346" lon="13.21634689759207"><ele>598.0</ele><time>2026-05-02T14:56:14Z</time></trkpt><trkpt lat="43.296382380746216" lon="13.216320692481057"><ele>599.5</ele><time>2026-05-02T14:56:15Z</time></trkpt><trkpt lat="43.2965233786741" lon="13.216310170784961"><ele>601.0</ele><time>2026-05-02T14:56:16Z</time></trkpt><trkpt lat="43.296661853711505" lon="13.216332094660059"><ele>602.5</ele><time>2026-05-02T14:56:17Z</time></trkpt><trkpt lat="43.29678370233217" lon="13.216335583987977"><ele>604.0</ele><time>2026-05-02T14:56:18Z</time></trkpt><trkpt lat="43.29689538097263" lon="13.216333003061026"><ele>604.0</ele><time>2026-05-02T14:56:19Z</time></trkpt><trkpt lat="43.29699256895869" lon="13.216332579115232"><ele>604.0</ele><time>2026-05-02T14:56:20Z</time></trkpt><trkpt lat="43.29708513690465" lon="13.216330910262073"><ele>604.0</ele><time>2026-05-02T14:56:21Z</time></trkpt><trkpt lat="43.29715945876983" lon="13.216326466507198"><ele>604.0</ele><time>2026-05-02T14:56:22Z</time></trkpt><trkpt lat="43.29723963371316" lon="13.216311071875747"><ele>604.0</ele><time>2026-05-02T14:56:23Z</time></trkpt><trkpt lat="43.29733817410392" lon="13.216297507663096"><ele>604.0</ele><time>2026-05-02T14:56:24Z</time></trkpt><trkpt lat="43.29743392595455" lon="13.216269597131364"><ele>605.4</ele><time>2026-05-02T14:56:25Z</time></trkpt><trkpt lat="43.29753734232795" lon="13.216236493904717"><ele>606.8</ele><time>2026-05-02T14:56:26Z</time></trkpt><trkpt lat="43.29763154823398" lon="13.21620184946685"><ele>608.2</ele><time>2026-05-02T14:56:27Z</time></trkpt><trkpt lat="43.29774424164103" lon="13.216150517216517"><ele>609.6</ele><time>2026-05-02T14:56:28Z</time></trkpt><trkpt lat="43.29785107531305" lon="13.216090901672947"><ele>611.0</ele><time>2026-05-02T14:56:29Z</time></trkpt><trkpt lat="43.29795069137483" lon="13.216042878641758"><ele>611.0</ele><time>2026-05-02T14:56:30Z</time></trkpt><trkpt lat="43.29805530684772" lon="13.216009835642346"><ele>611.0</ele><time>2026-05-02T14:56:31Z</time></trkpt><trkpt lat="43.298154831892155" lon="13.21599342278771"><ele>611.0</ele><time>2026-05-02T14:56:32Z</time></trkpt><trkpt lat="43.298262752852864" lon="13.215975227464979"><ele>611.0</ele><time>2026-05-02T14:56:33Z</time></trkpt><trkpt lat="43.29836742224629" lon="13.21595632743458"><ele>611.0</ele><time>2026-05-02T14:56:34Z</time></trkpt><trkpt lat="43.298475662487895" lon="13.215949835838343"><ele>612.25</ele><time>2026-05-02T14:56:35Z</time></trkpt><trkpt lat="43.29856785066168" lon="13.215951404182222"><ele>613.5</ele><time>2026-05-02T14:56:36Z</time></trkpt><trkpt lat="43.29867914902958" lon="13.215947241537892"><ele>614.75</ele><time>2026-05-02T14:56:37Z</time></trkpt><trkpt lat="43.29880261526128" lon="13.215956799378429"><ele>616.0</ele><time>2026-05-02T14:56:38Z</time></trkpt><trkpt lat="43.29893285704753" lon="13.215968040625837"><ele>617.5</ele><time>2026-05-02T14:56:39Z</time></trkpt><trkpt lat="43.29906135470206" lon="13.215980971636771"><ele>619.0</ele><time>2026-05-02T14:56:40Z</time></trkpt><trkpt lat="43.299191864893544" lon="13.215992787860666"><ele>620.5</ele><time>2026-05-02T14:56:41Z</time></trkpt><trkpt lat="43.299321824146084" lon="13.216006665486951"><ele>622.0</ele><time>2026-05-02T14:56:42Z</time></trkpt><trkpt lat="43.299449644079374" lon="13.216024011311102"><ele>622.0</ele><time>2026-05-02T14:56:43Z</time></trkpt><trkpt lat="43.299563728733105" lon="13.216041684087742"><ele>622.0</ele><time>2026-05-02T14:56:44Z</time></trkpt><trkpt lat="43.29965445462766" lon="13.216055950470036"><ele>622.0</ele><time>2026-05-02T14:56:45Z</time></trkpt><trkpt lat="43.299745334716484" lon="13.216092850943292"><ele>622.0</ele><time>2026-05-02T14:56:46Z</time></trkpt><trkpt lat="43.299837873070736" lon="13.216117409771572"><ele>622.0</ele><time>2026-05-02T14:56:47Z</time></trkpt><trkpt lat="43.299919041785216" lon="13.216152113221534"><ele>622.4</ele><time>2026-05-02T14:56:48Z</time></trkpt><trkpt lat="43.30001957312372" lon="13.216179815659135"><ele>622.8000000000001</ele><time>2026-05-02T14:56:49Z</time></trkpt><trkpt lat="43.30009925501786" lon="13.21621153651613"><ele>623.2</ele><time>2026-05-02T14:56:50Z</time></trkpt><trkpt lat="43.300211401460416" lon="13.216237496934767"><ele>623.6</ele><time>2026-05-02T14:56:52Z</time></trkpt><trkpt lat="43.30028326505151" lon="13.216251069627962"><ele>624.0</ele><time>2026-05-02T14:56:53Z</time></trkpt><trkpt lat="43.30036263127185" lon="13.216279637052365"><ele>624.0</ele><time>2026-05-02T14:56:54Z</time></trkpt><trkpt lat="43.30043970799132" lon="13.216294257251414"><ele>624.0</ele><time>2026-05-02T14:56:55Z</time></trkpt><trkpt lat="43.300513627651284" lon="13.216288049620081"><ele>624.0</ele><time>2026-05-02T14:56:56Z</time></trkpt><trkpt lat="43.30058570912845" lon="13.216287292766458"><ele>624.0</ele><time>2026-05-02T14:56:57Z</time></trkpt><trkpt lat="43.300666904875555" lon="13.21628448053193"><ele>624.0</ele><time>2026-05-02T14:56:58Z</time></trkpt><trkpt lat="43.30073360546971" lon="13.216281795657668"><ele>624.0</ele><time>2026-05-02T14:56:59Z</time></trkpt><trkpt lat="43.30082513104506" lon="13.216274755057517"><ele>625.4</ele><time>2026-05-02T14:57:00Z</time></trkpt><trkpt lat="43.30093372666122" lon="13.216265241611989"><ele>626.8</ele><time>2026-05-02T14:57:01Z</time></trkpt><trkpt lat="43.30102514482397" lon="13.21627247961636"><ele>628.2</ele><time>2026-05-02T14:57:02Z</time></trkpt><trkpt lat="43.30113006896336" lon="13.21627107624188"><ele>629.6</ele><time>2026-05-02T14:57:03Z</time></trkpt><trkpt lat="43.30122968052366" lon="13.216259406293345"><ele>631.0</ele><time>2026-05-02T14:57:04Z</time></trkpt><trkpt lat="43.30138209390791" lon="13.216207643872101"><ele>632.8</ele><time>2026-05-02T14:57:06Z</time></trkpt><trkpt lat="43.30147902860398" lon="13.216174686514128"><ele>634.6</ele><time>2026-05-02T14:57:07Z</time></trkpt><trkpt lat="43.3015885738968" lon="13.216152023186016"><ele>636.4</ele><time>2026-05-02T14:57:08Z</time></trkpt><trkpt lat="43.301692635978505" lon="13.216125348993444"><ele>638.2</ele><time>2026-05-02T14:57:09Z</time></trkpt><trkpt lat="43.301795827591505" lon="13.216106660659097"><ele>640.0</ele><time>2026-05-02T14:57:10Z</time></trkpt><trkpt lat="43.301908697974866" lon="13.216092070306942"><ele>640.0</ele><time>2026-05-02T14:57:11Z</time></trkpt><trkpt lat="43.30201231761866" lon="13.216072095045075"><ele>640.0</ele><time>2026-05-02T14:57:12Z</time></trkpt><trkpt lat="43.302119033753854" lon="13.216039204943405"><ele>640.0</ele><time>2026-05-02T14:57:13Z</time></trkpt><trkpt lat="43.30221382052946" lon="13.216021659924081"><ele>640.0</ele><time>2026-05-02T14:57:14Z</time></trkpt><trkpt lat="43.30228997884387" lon="13.216008896296827"><ele>640.0</ele><time>2026-05-02T14:57:15Z</time></trkpt><trkpt lat="43.30237760554659" lon="13.215959969572001"><ele>642.0</ele><time>2026-05-02T14:57:16Z</time></trkpt><trkpt lat="43.302471606991276" lon="13.215936479765654"><ele>644.0</ele><time>2026-05-02T14:57:17Z</time></trkpt><trkpt lat="43.30256655860851" lon="13.215910476831002"><ele>646.0</ele><time>2026-05-02T14:57:18Z</time></trkpt><trkpt lat="43.3026458317877" lon="13.21585605556935"><ele>648.0</ele><time>2026-05-02T14:57:19Z</time></trkpt><trkpt lat="43.30271091908012" lon="13.215805827488989"><ele>650.0</ele><time>2026-05-02T14:57:20Z</time></trkpt><trkpt lat="43.30277258430431" lon="13.215769699134823"><ele>652.0</ele><time>2026-05-02T14:57:21Z</time></trkpt><trkpt lat="43.30289797670808" lon="13.215722438826559"><ele>652.0</ele><time>2026-05-02T14:57:23Z</time></trkpt><trkpt lat="43.302975418448774" lon="13.215696487830952"><ele>652.0</ele><time>2026-05-02T14:57:24Z</time></trkpt><trkpt lat="43.30306376993088" lon="13.215670936496027"><ele>652.0</ele><time>2026-05-02T14:57:25Z</time></trkpt><trkpt lat="43.30314360897861" lon="13.215650372983626"><ele>652.0</ele><time>2026-05-02T14:57:26Z</time></trkpt><trkpt lat="43.303226066894005" lon="13.215633372366149"><ele>652.0</ele><time>2026-05-02T14:57:27Z</time></trkpt><trkpt lat="43.303326939054315" lon="13.215616570722762"><ele>652.0</ele><time>2026-05-02T14:57:28Z</time></trkpt><trkpt lat="43.303430347785444" lon="13.215606722494005"><ele>651.0</ele><time>2026-05-02T14:57:29Z</time></trkpt><trkpt lat="43.30356388452974" lon="13.21560484789846"><ele>650.0</ele><time>2026-05-02T14:57:30Z</time></trkpt><trkpt lat="43.30372192389755" lon="13.215597045397844"><ele>649.0</ele><time>2026-05-02T14:57:31Z</time></trkpt><trkpt lat="43.30384982493792" lon="13.215587500594742"><ele>648.0</ele><time>2026-05-02T14:57:32Z</time></trkpt><trkpt lat="43.303946588566085" lon="13.215588253208297"><ele>649.5999999999999</ele><time>2026-05-02T14:57:33Z</time></trkpt><trkpt lat="43.304033983668496" lon="13.215606492935228"><ele>651.1999999999999</ele><time>2026-05-02T14:57:34Z</time></trkpt><trkpt lat="43.30412595808503" lon="13.215647833396302"><ele>652.8</ele><time>2026-05-02T14:57:35Z</time></trkpt><trkpt lat="43.304224228973105" lon="13.215695928956116"><ele>654.4</ele><time>2026-05-02T14:57:36Z</time></trkpt><trkpt lat="43.3043084403597" lon="13.215747878302611"><ele>656.0</ele><time>2026-05-02T14:57:37Z</time></trkpt><trkpt lat="43.30437651040422" lon="13.215791149862127"><ele>656.0</ele><time>2026-05-02T14:57:38Z</time></trkpt><trkpt lat="43.30446151135001" lon="13.215845683167982"><ele>656.0</ele><time>2026-05-02T14:57:40Z</time></trkpt><trkpt lat="43.30453539208326" lon="13.21593278806343"><ele>656.0</ele><time>2026-05-02T14:57:42Z</time></trkpt><trkpt lat="43.304599495186906" lon="13.216046473285845"><ele>656.0</ele><time>2026-05-02T14:57:44Z</time></trkpt><trkpt lat="43.30466022527423" lon="13.216113394319736"><ele>656.0</ele><time>2026-05-02T14:57:46Z</time></trkpt><trkpt lat="43.304733257017475" lon="13.216198778368465"><ele>656.1999999999999</ele><time>2026-05-02T14:57:48Z</time></trkpt><trkpt lat="43.30478210486625" lon="13.216271819465048"><ele>656.4</ele><time>2026-05-02T14:57:50Z</time></trkpt><trkpt lat="43.304839207547" lon="13.216351056686818"><ele>656.6</ele><time>2026-05-02T14:57:53Z</time></trkpt><trkpt lat="43.304774448568935" lon="13.216481820071825"><ele>656.8</ele><time>2026-05-02T14:57:56Z</time></trkpt><trkpt lat="43.30472172317985" lon="13.216532251801578"><ele>657.0</ele><time>2026-05-02T14:57:57Z</time></trkpt><trkpt lat="43.304612280022376" lon="13.216642370964477"><ele>657.0</ele><time>2026-05-02T14:57:59Z</time></trkpt><trkpt lat="43.304557049772264" lon="13.216728001252841"><ele>657.0</ele><time>2026-05-02T14:58:00Z</time></trkpt><trkpt lat="43.30448588575601" lon="13.216797052886447"><ele>657.0</ele><time>2026-05-02T14:58:01Z</time></trkpt><trkpt lat="43.304432110263775" lon="13.216849624499634"><ele>657.0</ele><time>2026-05-02T14:58:02Z</time></trkpt><trkpt lat="43.30437781226028" lon="13.216933837178521"><ele>657.0</ele><time>2026-05-02T14:58:04Z</time></trkpt><trkpt lat="43.30437273961502" lon="13.217085445376384"><ele>657.0</ele><time>2026-05-02T14:58:06Z</time></trkpt><trkpt lat="43.304339871816644" lon="13.217221568844739"><ele>659.0</ele><time>2026-05-02T14:58:07Z</time></trkpt><trkpt lat="43.30433909510283" lon="13.21737059442888"><ele>661.0</ele><time>2026-05-02T14:58:08Z</time></trkpt><trkpt lat="43.30434619769187" lon="13.217468289950304"><ele>663.0</ele><time>2026-05-02T14:58:09Z</time></trkpt><trkpt lat="43.304352967464666" lon="13.217655549423439"><ele>665.0</ele><time>2026-05-02T14:58:11Z</time></trkpt><trkpt lat="43.30435614128279" lon="13.217763180240594"><ele>667.0</ele><time>2026-05-02T14:58:12Z</time></trkpt><trkpt lat="43.30432206526818" lon="13.217850790097303"><ele>667.0</ele><time>2026-05-02T14:58:13Z</time></trkpt><trkpt lat="43.30432327226905" lon="13.218058360877835"><ele>667.0</ele><time>2026-05-02T14:58:15Z</time></trkpt><trkpt lat="43.304316796420856" lon="13.218176802129245"><ele>667.0</ele><time>2026-05-02T14:58:16Z</time></trkpt><trkpt lat="43.30429657245936" lon="13.21837752016613"><ele>667.0</ele><time>2026-05-02T14:58:18Z</time></trkpt><trkpt lat="43.30427656806521" lon="13.218498619302549"><ele>667.3333333333334</ele><time>2026-05-02T14:58:19Z</time></trkpt><trkpt lat="43.30427901195428" lon="13.218590898256481"><ele>667.6666666666667</ele><time>2026-05-02T14:58:20Z</time></trkpt><trkpt lat="43.304303862180696" lon="13.218702928284538"><ele>668.0</ele><time>2026-05-02T14:58:21Z</time></trkpt><trkpt lat="43.30431807810439" lon="13.218826326908541"><ele>668.3333333333334</ele><time>2026-05-02T14:58:22Z</time></trkpt><trkpt lat="43.30433613413481" lon="13.21896039463861"><ele>668.6666666666666</ele><time>2026-05-02T14:58:23Z</time></trkpt><trkpt lat="43.30435419144539" lon="13.219052404850471"><ele>669.0</ele><time>2026-05-02T14:58:24Z</time></trkpt><trkpt lat="43.30440352431426" lon="13.219200334649269"><ele>669.0</ele><time>2026-05-02T14:58:26Z</time></trkpt><trkpt lat="43.30443008365612" lon="13.219283191767769"><ele>669.0</ele><time>2026-05-02T14:58:27Z</time></trkpt><trkpt lat="43.3044843460245" lon="13.21939275802242"><ele>669.0</ele><time>2026-05-02T14:58:29Z</time></trkpt><trkpt lat="43.30449693966549" lon="13.219481690554868"><ele>669.0</ele><time>2026-05-02T14:58:30Z</time></trkpt><trkpt lat="43.304527551094914" lon="13.219559313748672"><ele>669.0</ele><time>2026-05-02T14:58:31Z</time></trkpt><trkpt lat="43.30458175185431" lon="13.21964378893776"><ele>669.0</ele><time>2026-05-02T14:58:32Z</time></trkpt><trkpt lat="43.30462174382389" lon="13.219739582609215"><ele>669.0</ele><time>2026-05-02T14:58:33Z</time></trkpt><trkpt lat="43.30464461503192" lon="13.21985035930916"><ele>669.0</ele><time>2026-05-02T14:58:34Z</time></trkpt><trkpt lat="43.304641129572374" lon="13.219937118612707"><ele>669.0</ele><time>2026-05-02T14:58:35Z</time></trkpt><trkpt lat="43.304645987381505" lon="13.220038745860046"><ele>669.0</ele><time>2026-05-02T14:58:36Z</time></trkpt><trkpt lat="43.30467255452175" lon="13.22015999513925"><ele>669.0</ele><time>2026-05-02T14:58:39Z</time></trkpt><trkpt lat="43.30469154646045" lon="13.220275418919131"><ele>669.0</ele><time>2026-05-02T14:58:41Z</time></trkpt><trkpt lat="43.304714517058144" lon="13.22039821709851"><ele>669.0</ele><time>2026-05-02T14:58:43Z</time></trkpt><trkpt lat="43.3047202106377" lon="13.220526529887847"><ele>669.0</ele><time>2026-05-02T14:58:46Z</time></trkpt><trkpt lat="43.304725450476816" lon="13.220626571961347"><ele>669.0</ele><time>2026-05-02T14:58:48Z</time></trkpt><trkpt lat="43.304744161199785" lon="13.220738728622281"><ele>669.0</ele><time>2026-05-02T14:58:50Z</time></trkpt><trkpt lat="43.30475120243885" lon="13.220866052541577"><ele>669.0</ele><time>2026-05-02T14:58:53Z</time></trkpt><trkpt lat="43.30475620420033" lon="13.220990762639397"><ele>669.0</ele><time>2026-05-02T14:58:56Z</time></trkpt><trkpt lat="43.30475057879442" lon="13.221078292369617"><ele>673.1666666666666</ele><time>2026-05-02T14:58:59Z</time></trkpt><trkpt lat="43.30475256217511" lon="13.22119194925526"><ele>677.3333333333334</ele><time>2026-05-02T14:59:01Z</time></trkpt><trkpt lat="43.30476211299268" lon="13.221296039342546"><ele>681.5</ele><time>2026-05-02T14:59:03Z</time></trkpt><trkpt lat="43.30475518739419" lon="13.221413585768957"><ele>685.6666666666667</ele><time>2026-05-02T14:59:05Z</time></trkpt><trkpt lat="43.304761526419824" lon="13.221518309777538"><ele>689.8333333333334</ele><time>2026-05-02T14:59:07Z</time></trkpt><trkpt lat="43.30476610795704" lon="13.221652066865843"><ele>694.0</ele><time>2026-05-02T14:59:09Z</time></trkpt><trkpt lat="43.30474867774409" lon="13.221805058843739"><ele>686.8333333333334</ele><time>2026-05-02T14:59:12Z</time></trkpt><trkpt lat="43.30472795932837" lon="13.221903540501097"><ele>679.6666666666667</ele><time>2026-05-02T14:59:13Z</time></trkpt><trkpt lat="43.30471057482486" lon="13.221988719863823"><ele>672.5</ele><time>2026-05-02T14:59:14Z</time></trkpt><trkpt lat="43.3046936714114" lon="13.222074637737652"><ele>665.3333333333334</ele><time>2026-05-02T14:59:15Z</time></trkpt><trkpt lat="43.30467468337938" lon="13.222204759304521"><ele>658.1666666666666</ele><time>2026-05-02T14:59:17Z</time></trkpt><trkpt lat="43.30467163861207" lon="13.222346459429804"><ele>651.0</ele><time>2026-05-02T14:59:19Z</time></trkpt><trkpt lat="43.30464895516002" lon="13.222516648955613"><ele>650.5999999999999</ele><time>2026-05-02T14:59:21Z</time></trkpt><trkpt lat="43.304609365420745" lon="13.22266825990164"><ele>650.2</ele><time>2026-05-02T14:59:23Z</time></trkpt><trkpt lat="43.30459717615568" lon="13.222803591674"><ele>649.8</ele><time>2026-05-02T14:59:25Z</time></trkpt><trkpt lat="43.30457129932793" lon="13.222925514167226"><ele>649.4000000000001</ele><time>2026-05-02T14:59:27Z</time></trkpt><trkpt lat="43.304557768699034" lon="13.223024461146299"><ele>649.0</ele><time>2026-05-02T14:59:28Z</time></trkpt><trkpt lat="43.30453709507683" lon="13.223121190931687"><ele>649.6666666666667</ele><time>2026-05-02T14:59:29Z</time></trkpt><trkpt lat="43.30453072098361" lon="13.223279565251238"><ele>650.3333333333334</ele><time>2026-05-02T14:59:31Z</time></trkpt><trkpt lat="43.30453848556833" lon="13.223420617704305"><ele>651.0</ele><time>2026-05-02T14:59:33Z</time></trkpt><trkpt lat="43.30455188514304" lon="13.223506308230988"><ele>651.6666666666666</ele><time>2026-05-02T14:59:35Z</time></trkpt><trkpt lat="43.30453554048993" lon="13.223599582753025"><ele>652.3333333333333</ele><time>2026-05-02T14:59:36Z</time></trkpt><trkpt lat="43.304541365417414" lon="13.223733127613228"><ele>653.0</ele><time>2026-05-02T14:59:38Z</time></trkpt><trkpt lat="43.304551218103946" lon="13.223824910639578"><ele>653.0</ele><time>2026-05-02T14:59:39Z</time></trkpt><trkpt lat="43.30458480700159" lon="13.2239257331222"><ele>653.0</ele><time>2026-05-02T14:59:41Z</time></trkpt><trkpt lat="43.30461355589188" lon="13.224005822336096"><ele>653.0</ele><time>2026-05-02T14:59:44Z</time></trkpt><trkpt lat="43.30459683876816" lon="13.224105274942538"><ele>653.0</ele><time>2026-05-02T14:59:47Z</time></trkpt><trkpt lat="43.304546689690184" lon="13.224173642415586"><ele>653.0</ele><time>2026-05-02T14:59:50Z</time></trkpt><trkpt lat="43.30447624201778" lon="13.224250667816124"><ele>653.0</ele><time>2026-05-02T14:59:52Z</time></trkpt><trkpt lat="43.30443429775997" lon="13.224331988023398"><ele>654.4</ele><time>2026-05-02T14:59:55Z</time></trkpt><trkpt lat="43.304375107149006" lon="13.22440268788764"><ele>655.8</ele><time>2026-05-02T14:59:56Z</time></trkpt><trkpt lat="43.304297089146814" lon="13.22448414283342"><ele>657.2</ele><time>2026-05-02T14:59:58Z</time></trkpt><trkpt lat="43.304204197394206" lon="13.224573528208298"><ele>658.6</ele><time>2026-05-02T15:00:00Z</time></trkpt><trkpt lat="43.30413944980915" lon="13.224681085749081"><ele>660.0</ele><time>2026-05-02T15:00:02Z</time></trkpt><trkpt lat="43.30406573673498" lon="13.22474425535773"><ele>659.0</ele><time>2026-05-02T15:00:04Z</time></trkpt><trkpt lat="43.30399069104753" lon="13.224817980161864"><ele>658.0</ele><time>2026-05-02T15:00:06Z</time></trkpt><trkpt lat="43.303894000486636" lon="13.224911174470575"><ele>657.0</ele><time>2026-05-02T15:00:09Z</time></trkpt><trkpt lat="43.30382769454496" lon="13.225006000504848"><ele>656.0</ele><time>2026-05-02T15:00:11Z</time></trkpt><trkpt lat="43.30375900586663" lon="13.225060394913942"><ele>655.0</ele><time>2026-05-02T15:00:13Z</time></trkpt><trkpt lat="43.30367880680987" lon="13.225076548820827"><ele>655.0</ele><time>2026-05-02T15:00:15Z</time></trkpt><trkpt lat="43.30359975921422" lon="13.225064934426882"><ele>655.0</ele><time>2026-05-02T15:00:17Z</time></trkpt><trkpt lat="43.30353145323264" lon="13.225054967029983"><ele>655.0</ele><time>2026-05-02T15:00:19Z</time></trkpt><trkpt lat="43.303464179724344" lon="13.225085339176688"><ele>655.0</ele><time>2026-05-02T15:00:21Z</time></trkpt><trkpt lat="43.30339073704269" lon="13.225150090184034"><ele>655.0</ele><time>2026-05-02T15:00:24Z</time></trkpt><trkpt lat="43.30331800066513" lon="13.22519792043242"><ele>655.0</ele><time>2026-05-02T15:00:26Z</time></trkpt><trkpt lat="43.303221540654924" lon="13.225252078949392"><ele>655.0</ele><time>2026-05-02T15:00:29Z</time></trkpt><trkpt lat="43.30314147427278" lon="13.225291835095355"><ele>655.0</ele><time>2026-05-02T15:00:31Z</time></trkpt><trkpt lat="43.303070174873405" lon="13.225349692465013"><ele>655.0</ele><time>2026-05-02T15:00:33Z</time></trkpt><trkpt lat="43.3030029074907" lon="13.225384901139687"><ele>655.0</ele><time>2026-05-02T15:00:35Z</time></trkpt><trkpt lat="43.30293768460287" lon="13.225429202122552"><ele>655.0</ele><time>2026-05-02T15:00:37Z</time></trkpt><trkpt lat="43.30288224648513" lon="13.225500144134294"><ele>655.0</ele><time>2026-05-02T15:00:39Z</time></trkpt><trkpt lat="43.30282966402355" lon="13.225452576979594"><ele>651.5</ele><time>2026-05-02T15:00:41Z</time></trkpt><trkpt lat="43.30273983321724" lon="13.225567603302405"><ele>648.0</ele><time>2026-05-02T15:00:43Z</time></trkpt><trkpt lat="43.302670687545955" lon="13.225616186231198"><ele>644.5</ele><time>2026-05-02T15:00:45Z</time></trkpt><trkpt lat="43.3025954114202" lon="13.22566179086836"><ele>641.0</ele><time>2026-05-02T15:00:47Z</time></trkpt><trkpt lat="43.30252357890332" lon="13.225701823628546"><ele>637.5</ele><time>2026-05-02T15:00:49Z</time></trkpt><trkpt lat="43.30245012973437" lon="13.225766362054387"><ele>634.0</ele><time>2026-05-02T15:00:51Z</time></trkpt><trkpt lat="43.30237998172071" lon="13.225811256650225"><ele>634.0</ele><time>2026-05-02T15:00:53Z</time></trkpt><trkpt lat="43.302298443047505" lon="13.225846014182947"><ele>634.0</ele><time>2026-05-02T15:00:55Z</time></trkpt><trkpt lat="43.302214698458826" lon="13.225893498887451"><ele>634.0</ele><time>2026-05-02T15:00:58Z</time></trkpt><trkpt lat="43.30215060474672" lon="13.225981632639066"><ele>634.0</ele><time>2026-05-02T15:01:00Z</time></trkpt><trkpt lat="43.302064871671604" lon="13.226041146867171"><ele>634.0</ele><time>2026-05-02T15:01:02Z</time></trkpt><trkpt lat="43.3019902005671" lon="13.226130834771524"><ele>633.6666666666667</ele><time>2026-05-02T15:01:05Z</time></trkpt><trkpt lat="43.30194621408105" lon="13.226225364928279"><ele>633.3333333333334</ele><time>2026-05-02T15:01:07Z</time></trkpt><trkpt lat="43.30190161806976" lon="13.22633205665113"><ele>633.0</ele><time>2026-05-02T15:01:08Z</time></trkpt><trkpt lat="43.30187204496644" lon="13.226418936167553"><ele>632.6666666666666</ele><time>2026-05-02T15:01:10Z</time></trkpt><trkpt lat="43.30185276065279" lon="13.226517468271169"><ele>632.3333333333333</ele><time>2026-05-02T15:01:29Z</time></trkpt><trkpt lat="43.3019275996548" lon="13.226617665166676"><ele>632.0</ele><time>2026-05-02T15:01:31Z</time></trkpt><trkpt lat="43.301987614708594" lon="13.226664692182712"><ele>632.0</ele><time>2026-05-02T15:01:32Z</time></trkpt><trkpt lat="43.30204373301981" lon="13.226784648488772"><ele>632.0</ele><time>2026-05-02T15:01:33Z</time></trkpt><trkpt lat="43.30209988824222" lon="13.226880552606431"><ele>632.0</ele><time>2026-05-02T15:01:34Z</time></trkpt><trkpt lat="43.302160355286865" lon="13.227033642352007"><ele>632.0</ele><time>2026-05-02T15:01:35Z</time></trkpt><trkpt lat="43.30223432346688" lon="13.227198992563416"><ele>632.3333333333333</ele><time>2026-05-02T15:01:36Z</time></trkpt><trkpt lat="43.30231478013885" lon="13.227405506787342"><ele>632.6666666666666</ele><time>2026-05-02T15:01:37Z</time></trkpt><trkpt lat="43.30239533772347" lon="13.227590465313817"><ele>633.0</ele><time>2026-05-02T15:01:38Z</time></trkpt><trkpt lat="43.302499665921644" lon="13.227822453989557"><ele>633.0</ele><time>2026-05-02T15:01:39Z</time></trkpt><trkpt lat="43.30260738171876" lon="13.22806325507623"><ele>633.0</ele><time>2026-05-02T15:01:40Z</time></trkpt><trkpt lat="43.30269079339003" lon="13.228257536794704"><ele>633.0</ele><time>2026-05-02T15:01:41Z</time></trkpt><trkpt lat="43.30277526034179" lon="13.228410030949995"><ele>633.75</ele><time>2026-05-02T15:01:42Z</time></trkpt><trkpt lat="43.302856738616484" lon="13.22854434725818"><ele>634.5</ele><time>2026-05-02T15:01:43Z</time></trkpt><trkpt lat="43.30294814061036" lon="13.22867257558671"><ele>635.25</ele><time>2026-05-02T15:01:44Z</time></trkpt><trkpt lat="43.30304976158885" lon="13.228839708294377"><ele>636.0</ele><time>2026-05-02T15:01:45Z</time></trkpt><trkpt lat="43.3031384508926" lon="13.229004409963098"><ele>636.0</ele><time>2026-05-02T15:01:46Z</time></trkpt><trkpt lat="43.30320923985497" lon="13.229122982451512"><ele>636.0</ele><time>2026-05-02T15:01:47Z</time></trkpt><trkpt lat="43.303274352053926" lon="13.229219236441551"><ele>636.0</ele><time>2026-05-02T15:01:48Z</time></trkpt><trkpt lat="43.303357396978775" lon="13.22930289221126"><ele>636.0</ele><time>2026-05-02T15:01:49Z</time></trkpt><trkpt lat="43.30340162250142" lon="13.229379310249389"><ele>636.0</ele><time>2026-05-02T15:01:50Z</time></trkpt><trkpt lat="43.3034368095909" lon="13.229452126306578"><ele>636.0</ele><time>2026-05-02T15:01:51Z</time></trkpt><trkpt lat="43.30348466933749" lon="13.229521549820507"><ele>636.0</ele><time>2026-05-02T15:01:52Z</time></trkpt><trkpt lat="43.30356673506351" lon="13.229641962555686"><ele>636.0</ele><time>2026-05-02T15:01:54Z</time></trkpt><trkpt lat="43.30364712199525" lon="13.229749091947747"><ele>636.0</ele><time>2026-05-02T15:01:56Z</time></trkpt><trkpt lat="43.303705574436144" lon="13.229842158662246"><ele>636.0</ele><time>2026-05-02T15:01:58Z</time></trkpt><trkpt lat="43.30376351759336" lon="13.2299340467973"><ele>636.0</ele><time>2026-05-02T15:02:00Z</time></trkpt><trkpt lat="43.30383075483287" lon="13.230011814444643"><ele>637.6</ele><time>2026-05-02T15:02:02Z</time></trkpt><trkpt lat="43.30389618788058" lon="13.230089150468444"><ele>639.2</ele><time>2026-05-02T15:02:04Z</time></trkpt><trkpt lat="43.303953774042746" lon="13.230208669427919"><ele>640.8000000000001</ele><time>2026-05-02T15:02:06Z</time></trkpt><trkpt lat="43.30400554773388" lon="13.230299449114275"><ele>642.4000000000001</ele><time>2026-05-02T15:02:08Z</time></trkpt><trkpt lat="43.30412821471531" lon="13.230296784397355"><ele>644.0</ele><time>2026-05-02T15:02:10Z</time></trkpt><trkpt lat="43.304234329245055" lon="13.230305465891918"><ele>641.2857142857143</ele><time>2026-05-02T15:02:12Z</time></trkpt><trkpt lat="43.30430177734306" lon="13.23030995703464"><ele>638.5714285714286</ele><time>2026-05-02T15:02:13Z</time></trkpt><trkpt lat="43.30437345296219" lon="13.23033062591454"><ele>635.8571428571429</ele><time>2026-05-02T15:02:14Z</time></trkpt><trkpt lat="43.30444812275583" lon="13.230346866768645"><ele>633.1428571428571</ele><time>2026-05-02T15:02:15Z</time></trkpt><trkpt lat="43.304541277489164" lon="13.230375583553903"><ele>630.4285714285714</ele><time>2026-05-02T15:02:17Z</time></trkpt><trkpt lat="43.304585572897025" lon="13.230437948578253"><ele>627.7142857142858</ele><time>2026-05-02T15:02:18Z</time></trkpt><trkpt lat="43.30461339901596" lon="13.230529425271515"><ele>625.0</ele><time>2026-05-02T15:02:19Z</time></trkpt><trkpt lat="43.30465255257303" lon="13.23062492352783"><ele>625.8</ele><time>2026-05-02T15:02:20Z</time></trkpt><trkpt lat="43.30468799097479" lon="13.230766547994822"><ele>626.6</ele><time>2026-05-02T15:02:21Z</time></trkpt><trkpt lat="43.304750090184925" lon="13.23090060977565"><ele>627.4</ele><time>2026-05-02T15:02:22Z</time></trkpt><trkpt lat="43.30477353717013" lon="13.23102689256863"><ele>628.2</ele><time>2026-05-02T15:02:23Z</time></trkpt><trkpt lat="43.304813349512955" lon="13.231134448744596"><ele>629.0</ele><time>2026-05-02T15:02:24Z</time></trkpt><trkpt lat="43.30485637478144" lon="13.231253612444714"><ele>625.0</ele><time>2026-05-02T15:02:25Z</time></trkpt><trkpt lat="43.30489082107928" lon="13.231404367588915"><ele>621.0</ele><time>2026-05-02T15:02:26Z</time></trkpt><trkpt lat="43.30492158689991" lon="13.231511160711811"><ele>617.0</ele><time>2026-05-02T15:02:27Z</time></trkpt><trkpt lat="43.30495699375507" lon="13.23163770264524"><ele>613.0</ele><time>2026-05-02T15:02:28Z</time></trkpt><trkpt lat="43.30498243707174" lon="13.231731471070233"><ele>609.0</ele><time>2026-05-02T15:02:29Z</time></trkpt><trkpt lat="43.3050070730919" lon="13.231838185354396"><ele>609.0</ele><time>2026-05-02T15:02:30Z</time></trkpt><trkpt lat="43.30503282086173" lon="13.23195500689325"><ele>609.0</ele><time>2026-05-02T15:02:31Z</time></trkpt><trkpt lat="43.305059307737785" lon="13.232057777678213"><ele>609.0</ele><time>2026-05-02T15:02:32Z</time></trkpt><trkpt lat="43.30507899847747" lon="13.23214413399113"><ele>609.0</ele><time>2026-05-02T15:02:33Z</time></trkpt><trkpt lat="43.30511170091739" lon="13.232291041867903"><ele>609.0</ele><time>2026-05-02T15:02:34Z</time></trkpt><trkpt lat="43.30513383783731" lon="13.232391880107524"><ele>609.0</ele><time>2026-05-02T15:02:35Z</time></trkpt><trkpt lat="43.30515278512288" lon="13.232485359076952"><ele>609.0</ele><time>2026-05-02T15:02:36Z</time></trkpt><trkpt lat="43.30517357946079" lon="13.232587950719516"><ele>609.0</ele><time>2026-05-02T15:02:37Z</time></trkpt><trkpt lat="43.30520481548621" lon="13.232687780155086"><ele>609.0</ele><time>2026-05-02T15:02:38Z</time></trkpt><trkpt lat="43.30520993669266" lon="13.232799383505453"><ele>609.0</ele><time>2026-05-02T15:02:39Z</time></trkpt><trkpt lat="43.30523671995722" lon="13.232923884594648"><ele>609.0</ele><time>2026-05-02T15:02:40Z</time></trkpt><trkpt lat="43.305270727057625" lon="13.233041674140223"><ele>609.0</ele><time>2026-05-02T15:02:41Z</time></trkpt><trkpt lat="43.30530198290786" lon="13.2331386122366"><ele>609.0</ele><time>2026-05-02T15:02:42Z</time></trkpt><trkpt lat="43.305313552047366" lon="13.23323805485377"><ele>609.0</ele><time>2026-05-02T15:02:43Z</time></trkpt><trkpt lat="43.30536501744484" lon="13.23344252144629"><ele>609.0</ele><time>2026-05-02T15:02:44Z</time></trkpt><trkpt lat="43.30540688373988" lon="13.233595552065802"><ele>609.0</ele><time>2026-05-02T15:02:45Z</time></trkpt><trkpt lat="43.30545951912464" lon="13.23374433288065"><ele>609.0</ele><time>2026-05-02T15:02:46Z</time></trkpt><trkpt lat="43.30548942017059" lon="13.233884580958266"><ele>609.0</ele><time>2026-05-02T15:02:47Z</time></trkpt><trkpt lat="43.305538729921444" lon="13.234051978977298"><ele>609.0</ele><time>2026-05-02T15:02:48Z</time></trkpt><trkpt lat="43.30560420079272" lon="13.234272001036928"><ele>609.0</ele><time>2026-05-02T15:02:48.999Z</time></trkpt><trkpt lat="43.30566494135315" lon="13.234438113726604"><ele>602.75</ele><time>2026-05-02T15:02:49.999Z</time></trkpt><trkpt lat="43.30570539656614" lon="13.234610144916195"><ele>596.5</ele><time>2026-05-02T15:02:50.999Z</time></trkpt><trkpt lat="43.3057568930873" lon="13.234741031266697"><ele>590.25</ele><time>2026-05-02T15:02:51.999Z</time></trkpt><trkpt lat="43.305782230385624" lon="13.234886238664423"><ele>584.0</ele><time>2026-05-02T15:02:52.999Z</time></trkpt><trkpt lat="43.305819191194374" lon="13.235018558841103"><ele>584.0</ele><time>2026-05-02T15:02:53.999Z</time></trkpt><trkpt lat="43.30585224135204" lon="13.235136878832678"><ele>584.0</ele><time>2026-05-02T15:02:54.999Z</time></trkpt><trkpt lat="43.305882073928274" lon="13.23524367984448"><ele>584.0</ele><time>2026-05-02T15:02:55.999Z</time></trkpt><trkpt lat="43.30592720238444" lon="13.235343282053481"><ele>584.0</ele><time>2026-05-02T15:02:57Z</time></trkpt><trkpt lat="43.30593776745697" lon="13.235446181588639"><ele>584.0</ele><time>2026-05-02T15:02:58Z</time></trkpt><trkpt lat="43.305965880982825" lon="13.235548151859922"><ele>584.0</ele><time>2026-05-02T15:02:59Z</time></trkpt><trkpt lat="43.30601328826303" lon="13.23566967721281"><ele>584.8</ele><time>2026-05-02T15:03:00Z</time></trkpt><trkpt lat="43.306023011565856" lon="13.235803313088795"><ele>585.5999999999999</ele><time>2026-05-02T15:03:01Z</time></trkpt><trkpt lat="43.30607436010303" lon="13.235921195801138"><ele>586.4</ele><time>2026-05-02T15:03:02Z</time></trkpt><trkpt lat="43.30608091571094" lon="13.236040073004029"><ele>587.1999999999999</ele><time>2026-05-02T15:03:03Z</time></trkpt><trkpt lat="43.30611547614422" lon="13.236176485549587"><ele>588.0</ele><time>2026-05-02T15:03:04Z</time></trkpt><trkpt lat="43.30614073838038" lon="13.236306567550916"><ele>588.0</ele><time>2026-05-02T15:03:05Z</time></trkpt><trkpt lat="43.30614486177686" lon="13.236401415533054"><ele>588.0</ele><time>2026-05-02T15:03:06Z</time></trkpt><trkpt lat="43.3061549360526" lon="13.236502124041774"><ele>588.0</ele><time>2026-05-02T15:03:07Z</time></trkpt><trkpt lat="43.306169658073514" lon="13.236651304541097"><ele>588.0</ele><time>2026-05-02T15:03:09Z</time></trkpt><trkpt lat="43.30618551260806" lon="13.23679955262101"><ele>588.0</ele><time>2026-05-02T15:03:11Z</time></trkpt><trkpt lat="43.30616940510307" lon="13.236952705605246"><ele>586.6</ele><time>2026-05-02T15:03:13Z</time></trkpt><trkpt lat="43.30613111748385" lon="13.237120270501977"><ele>585.1999999999999</ele><time>2026-05-02T15:03:15Z</time></trkpt><trkpt lat="43.30610339211734" lon="13.237200317658854"><ele>583.8</ele><time>2026-05-02T15:03:16Z</time></trkpt><trkpt lat="43.306035637359" lon="13.237328788089071"><ele>582.4</ele><time>2026-05-02T15:03:18Z</time></trkpt><trkpt lat="43.30597479822903" lon="13.237393856110264"><ele>581.0</ele><time>2026-05-02T15:03:19Z</time></trkpt><trkpt lat="43.30591538790577" lon="13.237443150420349"><ele>578.5</ele><time>2026-05-02T15:03:20Z</time></trkpt><trkpt lat="43.30585831274374" lon="13.23749879645529"><ele>576.0</ele><time>2026-05-02T15:03:21Z</time></trkpt><trkpt lat="43.305815268340716" lon="13.237569080905034"><ele>573.5</ele><time>2026-05-02T15:03:22Z</time></trkpt><trkpt lat="43.3057659132368" lon="13.237641046452383"><ele>571.0</ele><time>2026-05-02T15:03:23Z</time></trkpt><trkpt lat="43.30574640007904" lon="13.237733878631301"><ele>568.5</ele><time>2026-05-02T15:03:24Z</time></trkpt><trkpt lat="43.30575309186797" lon="13.237852289567359"><ele>566.0</ele><time>2026-05-02T15:03:25Z</time></trkpt><trkpt lat="43.305737849575756" lon="13.237975744129757"><ele>566.0</ele><time>2026-05-02T15:03:26Z</time></trkpt><trkpt lat="43.30574119005914" lon="13.238092841170264"><ele>566.0</ele><time>2026-05-02T15:03:27Z</time></trkpt><trkpt lat="43.30574504766839" lon="13.238181431468766"><ele>566.0</ele><time>2026-05-02T15:03:28Z</time></trkpt><trkpt lat="43.30576536719149" lon="13.238325148315203"><ele>566.0</ele><time>2026-05-02T15:03:30Z</time></trkpt><trkpt lat="43.30580235388908" lon="13.238408305570315"><ele>566.0</ele><time>2026-05-02T15:03:33Z</time></trkpt><trkpt lat="43.30583758893845" lon="13.23849689377212"><ele>566.0</ele><time>2026-05-02T15:03:36Z</time></trkpt><trkpt lat="43.305985516749395" lon="13.23841574912392"><ele>562.6</ele><time>2026-05-02T15:03:37Z</time></trkpt><trkpt lat="43.30606976056129" lon="13.238422703728622"><ele>559.2</ele><time>2026-05-02T15:03:38Z</time></trkpt><trkpt lat="43.30613978410427" lon="13.238389635806753"><ele>555.8</ele><time>2026-05-02T15:03:39Z</time></trkpt><trkpt lat="43.306248881984516" lon="13.238374550706927"><ele>552.4</ele><time>2026-05-02T15:03:40Z</time></trkpt><trkpt lat="43.30637159927712" lon="13.238361972507912"><ele>549.0</ele><time>2026-05-02T15:03:41Z</time></trkpt><trkpt lat="43.306525063510804" lon="13.238354267937549"><ele>545.5</ele><time>2026-05-02T15:03:42Z</time></trkpt><trkpt lat="43.30667433333464" lon="13.238337520231147"><ele>542.0</ele><time>2026-05-02T15:03:43Z</time></trkpt><trkpt lat="43.306822378053475" lon="13.238316220965723"><ele>538.5</ele><time>2026-05-02T15:03:44Z</time></trkpt><trkpt lat="43.306967548274095" lon="13.238301442180747"><ele>535.0</ele><time>2026-05-02T15:03:45Z</time></trkpt><trkpt lat="43.30711690058364" lon="13.238293579194675"><ele>530.5</ele><time>2026-05-02T15:03:46Z</time></trkpt><trkpt lat="43.3072653745169" lon="13.238287734894369"><ele>526.0</ele><time>2026-05-02T15:03:47Z</time></trkpt><trkpt lat="43.307414097367186" lon="13.238290593755165"><ele>521.5</ele><time>2026-05-02T15:03:48Z</time></trkpt><trkpt lat="43.30756227568531" lon="13.238303678137333"><ele>517.0</ele><time>2026-05-02T15:03:49Z</time></trkpt><trkpt lat="43.307707984526466" lon="13.23832438786365"><ele>517.0</ele><time>2026-05-02T15:03:50Z</time></trkpt><trkpt lat="43.307852623201725" lon="13.23834650828175"><ele>517.0</ele><time>2026-05-02T15:03:51Z</time></trkpt><trkpt lat="43.30799906958854" lon="13.238366838471539"><ele>517.0</ele><time>2026-05-02T15:03:52Z</time></trkpt><trkpt lat="43.30814681561243" lon="13.238387224540313"><ele>517.0</ele><time>2026-05-02T15:03:53Z</time></trkpt><trkpt lat="43.30829511666798" lon="13.238412101238705"><ele>513.5</ele><time>2026-05-02T15:03:54Z</time></trkpt><trkpt lat="43.308439105476694" lon="13.238427089506724"><ele>510.0</ele><time>2026-05-02T15:03:55Z</time></trkpt><trkpt lat="43.308584207054615" lon="13.238429160658367"><ele>506.5</ele><time>2026-05-02T15:03:56Z</time></trkpt><trkpt lat="43.30872538677461" lon="13.238441554997621"><ele>503.0</ele><time>2026-05-02T15:03:57Z</time></trkpt><trkpt lat="43.308865982003674" lon="13.238427025338284"><ele>500.0</ele><time>2026-05-02T15:03:58Z</time></trkpt><trkpt lat="43.30900244527621" lon="13.238403202313407"><ele>497.0</ele><time>2026-05-02T15:03:59Z</time></trkpt><trkpt lat="43.3091436156708" lon="13.238354089775457"><ele>494.0</ele><time>2026-05-02T15:04:00Z</time></trkpt><trkpt lat="43.30928813646409" lon="13.238336628871446"><ele>491.0</ele><time>2026-05-02T15:04:01Z</time></trkpt><trkpt lat="43.30943173285118" lon="13.238307357183876"><ele>491.0</ele><time>2026-05-02T15:04:02Z</time></trkpt><trkpt lat="43.30957370625196" lon="13.238274071957617"><ele>491.0</ele><time>2026-05-02T15:04:03Z</time></trkpt><trkpt lat="43.30971095281846" lon="13.238241280732806"><ele>491.0</ele><time>2026-05-02T15:04:04Z</time></trkpt><trkpt lat="43.309848933381936" lon="13.238204184775697"><ele>491.0</ele><time>2026-05-02T15:04:05Z</time></trkpt><trkpt lat="43.30998728028124" lon="13.238162477880055"><ele>490.0</ele><time>2026-05-02T15:04:06Z</time></trkpt><trkpt lat="43.31012365825602" lon="13.23813491164963"><ele>489.0</ele><time>2026-05-02T15:04:07Z</time></trkpt><trkpt lat="43.310251135763785" lon="13.238119993956989"><ele>488.0</ele><time>2026-05-02T15:04:08Z</time></trkpt><trkpt lat="43.31037218577108" lon="13.238115875145374"><ele>487.0</ele><time>2026-05-02T15:04:09Z</time></trkpt><trkpt lat="43.3104865484825" lon="13.238120760395416"><ele>485.0</ele><time>2026-05-02T15:04:10Z</time></trkpt><trkpt lat="43.31058906054387" lon="13.238138395991761"><ele>483.00000000000006</ele><time>2026-05-02T15:04:11Z</time></trkpt><trkpt lat="43.31068581044454" lon="13.238177485692695"><ele>481.00000000000006</ele><time>2026-05-02T15:04:12Z</time></trkpt><trkpt lat="43.31078128457424" lon="13.23822846030601"><ele>479.0</ele><time>2026-05-02T15:04:13Z</time></trkpt><trkpt lat="43.31087111461562" lon="13.238288332710036"><ele>477.0</ele><time>2026-05-02T15:04:14Z</time></trkpt><trkpt lat="43.31094837767611" lon="13.238348066350378"><ele>477.0</ele><time>2026-05-02T15:04:15Z</time></trkpt><trkpt lat="43.311025757423415" lon="13.238407535526191"><ele>477.0</ele><time>2026-05-02T15:04:16Z</time></trkpt><trkpt lat="43.31109627978715" lon="13.238463633903045"><ele>477.0</ele><time>2026-05-02T15:04:17Z</time></trkpt><trkpt lat="43.31117043237626" lon="13.238523345022527"><ele>477.0</ele><time>2026-05-02T15:04:18Z</time></trkpt><trkpt lat="43.31124489495231" lon="13.238586471539401"><ele>477.0</ele><time>2026-05-02T15:04:19Z</time></trkpt><trkpt lat="43.31129736207461" lon="13.238650596928734"><ele>477.0</ele><time>2026-05-02T15:04:20Z</time></trkpt><trkpt lat="43.31135493150708" lon="13.238735832080666"><ele>477.0</ele><time>2026-05-02T15:04:21Z</time></trkpt><trkpt lat="43.31139306099118" lon="13.23884751034589"><ele>477.00000000000006</ele><time>2026-05-02T15:04:22Z</time></trkpt><trkpt lat="43.31142770842136" lon="13.238973701673197"><ele>477.00000000000006</ele><time>2026-05-02T15:04:23Z</time></trkpt><trkpt lat="43.3114720139454" lon="13.23911731523824"><ele>477.0</ele><time>2026-05-02T15:04:24Z</time></trkpt><trkpt lat="43.311482659058385" lon="13.239265190101415"><ele>477.0</ele><time>2026-05-02T15:04:25Z</time></trkpt><trkpt lat="43.311530051763675" lon="13.239432804868553"><ele>475.75</ele><time>2026-05-02T15:04:26Z</time></trkpt><trkpt lat="43.31156994917761" lon="13.239616216503832"><ele>474.5</ele><time>2026-05-02T15:04:27Z</time></trkpt><trkpt lat="43.311606240486874" lon="13.239793905209222"><ele>473.25</ele><time>2026-05-02T15:04:28Z</time></trkpt><trkpt lat="43.311672956467376" lon="13.239935831022928"><ele>472.0</ele><time>2026-05-02T15:04:29Z</time></trkpt><trkpt lat="43.31171869764262" lon="13.240070546950065"><ele>471.25</ele><time>2026-05-02T15:04:30Z</time></trkpt><trkpt lat="43.311796784202876" lon="13.240178829588245"><ele>470.5</ele><time>2026-05-02T15:04:31Z</time></trkpt><trkpt lat="43.31187973284617" lon="13.240297024941587"><ele>469.75</ele><time>2026-05-02T15:04:32Z</time></trkpt><trkpt lat="43.31196641039697" lon="13.240403487902205"><ele>469.0</ele><time>2026-05-02T15:04:33Z</time></trkpt><trkpt lat="43.31205780349378" lon="13.24053266490459"><ele>468.6666666666667</ele><time>2026-05-02T15:04:34Z</time></trkpt><trkpt lat="43.31216283967002" lon="13.240657693408316"><ele>468.33333333333337</ele><time>2026-05-02T15:04:35Z</time></trkpt><trkpt lat="43.3122806706099" lon="13.240794052574275"><ele>468.0</ele><time>2026-05-02T15:04:36Z</time></trkpt><trkpt lat="43.31240175896726" lon="13.240937252438988"><ele>468.0</ele><time>2026-05-02T15:04:37Z</time></trkpt><trkpt lat="43.31250720880419" lon="13.241051188822365"><ele>468.0</ele><time>2026-05-02T15:04:38Z</time></trkpt><trkpt lat="43.3126282883925" lon="13.241163787513022"><ele>468.0</ele><time>2026-05-02T15:04:39Z</time></trkpt><trkpt lat="43.31276431887272" lon="13.24127871136774"><ele>468.0</ele><time>2026-05-02T15:04:40Z</time></trkpt><trkpt lat="43.31290139767352" lon="13.24139821610052"><ele>470.0</ele><time>2026-05-02T15:04:41Z</time></trkpt><trkpt lat="43.313057799817045" lon="13.241512108485148"><ele>472.0</ele><time>2026-05-02T15:04:42Z</time></trkpt><trkpt lat="43.31324561475803" lon="13.241631906067608"><ele>474.0</ele><time>2026-05-02T15:04:43Z</time></trkpt><trkpt lat="43.31343996575216" lon="13.241729515015532"><ele>474.0</ele><time>2026-05-02T15:04:44Z</time></trkpt><trkpt lat="43.31360336164262" lon="13.241817149700278"><ele>474.0</ele><time>2026-05-02T15:04:45Z</time></trkpt><trkpt lat="43.313791587986664" lon="13.241898640449813"><ele>474.0</ele><time>2026-05-02T15:04:46Z</time></trkpt><trkpt lat="43.31398444471329" lon="13.241934620881144"><ele>480.5</ele><time>2026-05-02T15:04:47Z</time></trkpt><trkpt lat="43.31421370681353" lon="13.241966018122566"><ele>487.0</ele><time>2026-05-02T15:04:48Z</time></trkpt><trkpt lat="43.31446521280393" lon="13.241980865170024"><ele>487.0</ele><time>2026-05-02T15:04:49Z</time></trkpt><trkpt lat="43.31473488699676" lon="13.242005991208085"><ele>487.0</ele><time>2026-05-02T15:04:50Z</time></trkpt><trkpt lat="43.314860180231" lon="13.241990445681246"><ele>487.0</ele><time>2026-05-02T15:04:52Z</time></trkpt><trkpt lat="43.3150241700119" lon="13.242006085233234"><ele>488.75</ele><time>2026-05-02T15:04:53Z</time></trkpt><trkpt lat="43.31513890809136" lon="13.242110846279656"><ele>490.5</ele><time>2026-05-02T15:04:54Z</time></trkpt><trkpt lat="43.315229764992125" lon="13.242241713407019"><ele>492.25</ele><time>2026-05-02T15:04:55Z</time></trkpt><trkpt lat="43.315361971558225" lon="13.242373005652222"><ele>494.0</ele><time>2026-05-02T15:04:56Z</time></trkpt><trkpt lat="43.3155067787798" lon="13.242491969099499"><ele>500.0</ele><time>2026-05-02T15:04:57Z</time></trkpt><trkpt lat="43.315656530737" lon="13.242619286995332"><ele>506.0</ele><time>2026-05-02T15:04:58Z</time></trkpt><trkpt lat="43.315790819760025" lon="13.242779861019955"><ele>512.0</ele><time>2026-05-02T15:04:59Z</time></trkpt><trkpt lat="43.31590373442919" lon="13.24293497128852"><ele>512.0</ele><time>2026-05-02T15:05:00Z</time></trkpt><trkpt lat="43.31599519619756" lon="13.243073662479013"><ele>512.0</ele><time>2026-05-02T15:05:01Z</time></trkpt><trkpt lat="43.31607953045149" lon="13.24318762070917"><ele>512.0</ele><time>2026-05-02T15:05:02Z</time></trkpt><trkpt lat="43.3161405769183" lon="13.24326846794599"><ele>512.0</ele><time>2026-05-02T15:05:03Z</time></trkpt><trkpt lat="43.31617825320736" lon="13.243352700663293"><ele>512.0</ele><time>2026-05-02T15:05:04Z</time></trkpt><trkpt lat="43.31622955112633" lon="13.24342237275485"><ele>510.8</ele><time>2026-05-02T15:05:06Z</time></trkpt><trkpt lat="43.316206677665456" lon="13.243527117853395"><ele>509.6</ele><time>2026-05-02T15:05:07Z</time></trkpt><trkpt lat="43.31618695240027" lon="13.243640112166954"><ele>508.40000000000003</ele><time>2026-05-02T15:05:08Z</time></trkpt><trkpt lat="43.31616529675844" lon="13.24379128283362"><ele>507.20000000000005</ele><time>2026-05-02T15:05:09Z</time></trkpt><trkpt lat="43.31614362689898" lon="13.243955836975438"><ele>506.0</ele><time>2026-05-02T15:05:10Z</time></trkpt><trkpt lat="43.31611960473289" lon="13.244138253674436"><ele>506.0</ele><time>2026-05-02T15:05:11Z</time></trkpt><trkpt lat="43.31610149643422" lon="13.2442925499795"><ele>506.0</ele><time>2026-05-02T15:05:12Z</time></trkpt><trkpt lat="43.3160878974785" lon="13.24439150886877"><ele>506.0</ele><time>2026-05-02T15:05:13Z</time></trkpt><trkpt lat="43.31608475790797" lon="13.244519147235298"><ele>506.0</ele><time>2026-05-02T15:05:15Z</time></trkpt><trkpt lat="43.31626058562525" lon="13.244460181841557"><ele>506.0</ele><time>2026-05-02T15:05:18Z</time></trkpt><trkpt lat="43.31634613776169" lon="13.244416427333926"><ele>506.0</ele><time>2026-05-02T15:05:19Z</time></trkpt><trkpt lat="43.31641654375469" lon="13.244352326349333"><ele>506.0</ele><time>2026-05-02T15:05:20Z</time></trkpt><trkpt lat="43.31653800203997" lon="13.244216092234401"><ele>506.0</ele><time>2026-05-02T15:05:21Z</time></trkpt><trkpt lat="43.316666511698514" lon="13.244112427629517"><ele>506.75</ele><time>2026-05-02T15:05:22Z</time></trkpt><trkpt lat="43.316786203014416" lon="13.244053412055"><ele>507.5</ele><time>2026-05-02T15:05:23Z</time></trkpt><trkpt lat="43.316882914163315" lon="13.244014216122135"><ele>508.25</ele><time>2026-05-02T15:05:24Z</time></trkpt><trkpt lat="43.31699226281699" lon="13.24399995286853"><ele>509.0</ele><time>2026-05-02T15:05:25Z</time></trkpt><trkpt lat="43.3171139100042" lon="13.244071817251179"><ele>504.66666666666663</ele><time>2026-05-02T15:05:26Z</time></trkpt><trkpt lat="43.317263004504525" lon="13.244117807846374"><ele>500.33333333333337</ele><time>2026-05-02T15:05:27Z</time></trkpt><trkpt lat="43.3174713003698" lon="13.244176159369752"><ele>496.0</ele><time>2026-05-02T15:05:28Z</time></trkpt><trkpt lat="43.317691278233184" lon="13.244232172137428"><ele>496.0</ele><time>2026-05-02T15:05:29Z</time></trkpt><trkpt lat="43.31788338185178" lon="13.244295574092606"><ele>496.0</ele><time>2026-05-02T15:05:30Z</time></trkpt><trkpt lat="43.318073364758625" lon="13.244362473337318"><ele>496.0</ele><time>2026-05-02T15:05:31Z</time></trkpt><trkpt lat="43.318253291579836" lon="13.244415831168993"><ele>492.5</ele><time>2026-05-02T15:05:32Z</time></trkpt><trkpt lat="43.31841211377126" lon="13.244469403978702"><ele>489.0</ele><time>2026-05-02T15:05:33Z</time></trkpt><trkpt lat="43.31854613978503" lon="13.244515837146913"><ele>485.5</ele><time>2026-05-02T15:05:34Z</time></trkpt><trkpt lat="43.31866386325059" lon="13.244532005774666"><ele>482.0</ele><time>2026-05-02T15:05:35Z</time></trkpt><trkpt lat="43.31878463263716" lon="13.24450987542726"><ele>482.0</ele><time>2026-05-02T15:05:36Z</time></trkpt><trkpt lat="43.31888251872077" lon="13.244420518074875"><ele>482.0</ele><time>2026-05-02T15:05:37Z</time></trkpt><trkpt lat="43.31899681816637" lon="13.244288967919744"><ele>482.0</ele><time>2026-05-02T15:05:38Z</time></trkpt><trkpt lat="43.31911757262452" lon="13.244141699223093"><ele>482.0</ele><time>2026-05-02T15:05:39Z</time></trkpt><trkpt lat="43.3192485146976" lon="13.244000312081253"><ele>480.0</ele><time>2026-05-02T15:05:40Z</time></trkpt><trkpt lat="43.319362872568846" lon="13.24388936688225"><ele>478.0</ele><time>2026-05-02T15:05:41Z</time></trkpt><trkpt lat="43.319474661848425" lon="13.243829842765356"><ele>476.0</ele><time>2026-05-02T15:05:42Z</time></trkpt><trkpt lat="43.31960679549263" lon="13.24385842810863"><ele>474.0</ele><time>2026-05-02T15:05:43Z</time></trkpt><trkpt lat="43.31975494264048" lon="13.243894177456449"><ele>471.66666666666663</ele><time>2026-05-02T15:05:44Z</time></trkpt><trkpt lat="43.31992295606006" lon="13.243924653667925"><ele>469.3333333333333</ele><time>2026-05-02T15:05:45Z</time></trkpt><trkpt lat="43.32011506022993" lon="13.243986224703216"><ele>467.0</ele><time>2026-05-02T15:05:46Z</time></trkpt><trkpt lat="43.32031949214938" lon="13.244040141555828"><ele>460.0</ele><time>2026-05-02T15:05:47Z</time></trkpt><trkpt lat="43.32054943566102" lon="13.24411018192123"><ele>453.0</ele><time>2026-05-02T15:05:48Z</time></trkpt><trkpt lat="43.320796320965535" lon="13.244190179255549"><ele>451.5</ele><time>2026-05-02T15:05:49Z</time></trkpt><trkpt lat="43.32104041616773" lon="13.24427011310568"><ele>450.0</ele><time>2026-05-02T15:05:50Z</time></trkpt><trkpt lat="43.32124728702647" lon="13.24433179967007"><ele>451.0</ele><time>2026-05-02T15:05:51Z</time></trkpt><trkpt lat="43.32141785348401" lon="13.24441605452369"><ele>452.0</ele><time>2026-05-02T15:05:52Z</time></trkpt><trkpt lat="43.32157928564437" lon="13.244522582910344"><ele>453.0</ele><time>2026-05-02T15:05:53Z</time></trkpt><trkpt lat="43.32168771304999" lon="13.24463496931613"><ele>453.0</ele><time>2026-05-02T15:05:54Z</time></trkpt><trkpt lat="43.321812193621746" lon="13.244770425526537"><ele>453.0</ele><time>2026-05-02T15:05:55Z</time></trkpt><trkpt lat="43.32195107747208" lon="13.244931339720084"><ele>453.0</ele><time>2026-05-02T15:05:56Z</time></trkpt><trkpt lat="43.322080662545744" lon="13.24506541422483"><ele>454.66666666666663</ele><time>2026-05-02T15:05:57Z</time></trkpt><trkpt lat="43.32222851272514" lon="13.245140404726872"><ele>456.3333333333333</ele><time>2026-05-02T15:05:58Z</time></trkpt><trkpt lat="43.32236535204994" lon="13.245190886155854"><ele>458.0</ele><time>2026-05-02T15:05:59Z</time></trkpt><trkpt lat="43.3225178401868" lon="13.245165024810367"><ele>458.0</ele><time>2026-05-02T15:06:00Z</time></trkpt><trkpt lat="43.32269095061887" lon="13.245093313825143"><ele>458.0</ele><time>2026-05-02T15:06:01Z</time></trkpt><trkpt lat="43.32287764965001" lon="13.245028567491296"><ele>458.0</ele><time>2026-05-02T15:06:02Z</time></trkpt><trkpt lat="43.323080245831896" lon="13.244968689158222"><ele>457.5</ele><time>2026-05-02T15:06:03Z</time></trkpt><trkpt lat="43.32330502637169" lon="13.244887905927138"><ele>457.0</ele><time>2026-05-02T15:06:04Z</time></trkpt><trkpt lat="43.323541498029414" lon="13.244820993985206"><ele>461.5</ele><time>2026-05-02T15:06:05Z</time></trkpt><trkpt lat="43.32380686316903" lon="13.2447595349479"><ele>466.0</ele><time>2026-05-02T15:06:06Z</time></trkpt><trkpt lat="43.32408692485849" lon="13.244685657448201"><ele>466.0</ele><time>2026-05-02T15:06:07Z</time></trkpt><trkpt lat="43.3243446427398" lon="13.244619973891407"><ele>466.0</ele><time>2026-05-02T15:06:08Z</time></trkpt><trkpt lat="43.32454366365216" lon="13.244556668528693"><ele>466.0</ele><time>2026-05-02T15:06:09Z</time></trkpt><trkpt lat="43.32470056682998" lon="13.244514135364627"><ele>466.0</ele><time>2026-05-02T15:06:10Z</time></trkpt><trkpt lat="43.3248324283528" lon="13.244504713633878"><ele>466.0</ele><time>2026-05-02T15:06:11Z</time></trkpt><trkpt lat="43.325009435639295" lon="13.244502654079781"><ele>461.6666666666667</ele><time>2026-05-02T15:06:12Z</time></trkpt><trkpt lat="43.32517683322023" lon="13.244514635511964"><ele>457.33333333333337</ele><time>2026-05-02T15:06:13Z</time></trkpt><trkpt lat="43.32533444018125" lon="13.244540939262828"><ele>453.0</ele><time>2026-05-02T15:06:14Z</time></trkpt><trkpt lat="43.325471493956634" lon="13.244576369226804"><ele>451.25</ele><time>2026-05-02T15:06:15Z</time></trkpt><trkpt lat="43.325574309952316" lon="13.244617766387524"><ele>449.5</ele><time>2026-05-02T15:06:16Z</time></trkpt><trkpt lat="43.32565696831292" lon="13.244741689291143"><ele>447.75</ele><time>2026-05-02T15:06:17Z</time></trkpt><trkpt lat="43.32576616878529" lon="13.244889604567302"><ele>446.0</ele><time>2026-05-02T15:06:18Z</time></trkpt><trkpt lat="43.325917263979115" lon="13.24507535799937"><ele>441.0</ele><time>2026-05-02T15:06:19Z</time></trkpt><trkpt lat="43.32606786489626" lon="13.245303941787787"><ele>436.0</ele><time>2026-05-02T15:06:20Z</time></trkpt><trkpt lat="43.32623152961587" lon="13.245539602357683"><ele>434.5</ele><time>2026-05-02T15:06:21Z</time></trkpt><trkpt lat="43.32640512895101" lon="13.245793920944449"><ele>433.0</ele><time>2026-05-02T15:06:22Z</time></trkpt><trkpt lat="43.3265855261744" lon="13.246055495230035"><ele>433.0</ele><time>2026-05-02T15:06:23Z</time></trkpt><trkpt lat="43.32677251146469" lon="13.246329235862548"><ele>433.0</ele><time>2026-05-02T15:06:24Z</time></trkpt><trkpt lat="43.32693937513165" lon="13.246590421815146"><ele>432.33333333333337</ele><time>2026-05-02T15:06:25Z</time></trkpt><trkpt lat="43.32708709377089" lon="13.246820190827066"><ele>431.66666666666663</ele><time>2026-05-02T15:06:26Z</time></trkpt><trkpt lat="43.32721662066281" lon="13.247007960835631"><ele>431.0</ele><time>2026-05-02T15:06:27Z</time></trkpt><trkpt lat="43.32735188954197" lon="13.247202753603606"><ele>432.3333333333333</ele><time>2026-05-02T15:06:28Z</time></trkpt><trkpt lat="43.327493477524925" lon="13.247414997951322"><ele>433.66666666666663</ele><time>2026-05-02T15:06:29Z</time></trkpt><trkpt lat="43.32764992300893" lon="13.247642906440264"><ele>435.0</ele><time>2026-05-02T15:06:30Z</time></trkpt><trkpt lat="43.327797071155885" lon="13.24785797519699"><ele>435.0</ele><time>2026-05-02T15:06:31Z</time></trkpt><trkpt lat="43.32792578894865" lon="13.248049984708096"><ele>435.0</ele><time>2026-05-02T15:06:32Z</time></trkpt><trkpt lat="43.32804294620152" lon="13.248229765002948"><ele>435.0</ele><time>2026-05-02T15:06:33Z</time></trkpt><trkpt lat="43.328149705110505" lon="13.248405188972864"><ele>431.33333333333337</ele><time>2026-05-02T15:06:34Z</time></trkpt><trkpt lat="43.328245676372894" lon="13.248573959399346"><ele>427.6666666666667</ele><time>2026-05-02T15:06:35Z</time></trkpt><trkpt lat="43.3283214251579" lon="13.248766533522309"><ele>424.0</ele><time>2026-05-02T15:06:36Z</time></trkpt><trkpt lat="43.32834977368098" lon="13.249000248084915"><ele>423.33333333333337</ele><time>2026-05-02T15:06:37Z</time></trkpt><trkpt lat="43.328394873319006" lon="13.249253256007943"><ele>422.66666666666663</ele><time>2026-05-02T15:06:38Z</time></trkpt><trkpt lat="43.32845570145476" lon="13.2495086554066"><ele>422.0</ele><time>2026-05-02T15:06:39Z</time></trkpt><trkpt lat="43.32848705375756" lon="13.24972496604557"><ele>421.75</ele><time>2026-05-02T15:06:40Z</time></trkpt><trkpt lat="43.328475034763265" lon="13.249897594746388"><ele>421.5</ele><time>2026-05-02T15:06:41Z</time></trkpt><trkpt lat="43.32844429988695" lon="13.250061011460216"><ele>421.25</ele><time>2026-05-02T15:06:42Z</time></trkpt><trkpt lat="43.32834819712092" lon="13.250207499907713"><ele>421.0</ele><time>2026-05-02T15:06:43Z</time></trkpt><trkpt lat="43.328241083866736" lon="13.250388876895952"><ele>421.0</ele><time>2026-05-02T15:06:44Z</time></trkpt><trkpt lat="43.32812386687522" lon="13.250584434484457"><ele>421.0</ele><time>2026-05-02T15:06:45Z</time></trkpt><trkpt lat="43.328018223427975" lon="13.250762931517132"><ele>421.0</ele><time>2026-05-02T15:06:46Z</time></trkpt><trkpt lat="43.32793500798243" lon="13.250927842985142"><ele>418.6666666666667</ele><time>2026-05-02T15:06:47Z</time></trkpt><trkpt lat="43.327905480063166" lon="13.251099565096045"><ele>416.33333333333337</ele><time>2026-05-02T15:06:48Z</time></trkpt><trkpt lat="43.32789019971752" lon="13.251298914960302"><ele>414.0</ele><time>2026-05-02T15:06:49Z</time></trkpt><trkpt lat="43.32789170498877" lon="13.251544430125344"><ele>414.0</ele><time>2026-05-02T15:06:50Z</time></trkpt><trkpt lat="43.327870301495" lon="13.251820742117918"><ele>414.0</ele><time>2026-05-02T15:06:51Z</time></trkpt><trkpt lat="43.32786104907938" lon="13.252116819388593"><ele>414.0</ele><time>2026-05-02T15:06:52Z</time></trkpt><trkpt lat="43.32786619255587" lon="13.252425059752294"><ele>414.0</ele><time>2026-05-02T15:06:53Z</time></trkpt><trkpt lat="43.32785947859938" lon="13.252695042345922"><ele>414.0</ele><time>2026-05-02T15:06:54Z</time></trkpt><trkpt lat="43.327851697788844" lon="13.252898477885633"><ele>414.0</ele><time>2026-05-02T15:06:55Z</time></trkpt><trkpt lat="43.32785169965825" lon="13.253058716456973"><ele>413.5</ele><time>2026-05-02T15:06:56Z</time></trkpt><trkpt lat="43.32785948514475" lon="13.253197912415036"><ele>413.0</ele><time>2026-05-02T15:06:57Z</time></trkpt><trkpt lat="43.327859418622154" lon="13.253352214269844"><ele>412.5</ele><time>2026-05-02T15:06:58Z</time></trkpt><trkpt lat="43.32793732890205" lon="13.253539265958924"><ele>412.0</ele><time>2026-05-02T15:06:59Z</time></trkpt><trkpt lat="43.32800936370549" lon="13.25377230351077"><ele>408.33333333333337</ele><time>2026-05-02T15:07:00Z</time></trkpt><trkpt lat="43.32809364997611" lon="13.25402641411171"><ele>404.66666666666663</ele><time>2026-05-02T15:07:01Z</time></trkpt><trkpt lat="43.328204815761474" lon="13.254318774792383"><ele>401.0</ele><time>2026-05-02T15:07:02Z</time></trkpt><trkpt lat="43.32831281412388" lon="13.254641738791886"><ele>399.0</ele><time>2026-05-02T15:07:03Z</time></trkpt><trkpt lat="43.32840449197278" lon="13.254936900723843"><ele>397.0</ele><time>2026-05-02T15:07:04Z</time></trkpt><trkpt lat="43.32849001925913" lon="13.255182320738449"><ele>395.0</ele><time>2026-05-02T15:07:05Z</time></trkpt><trkpt lat="43.3285726574436" lon="13.255410941631473"><ele>395.0</ele><time>2026-05-02T15:07:06Z</time></trkpt><trkpt lat="43.3286374469036" lon="13.255598026252498"><ele>395.0</ele><time>2026-05-02T15:07:07Z</time></trkpt><trkpt lat="43.32869359407117" lon="13.255773660523392"><ele>395.0</ele><time>2026-05-02T15:07:08Z</time></trkpt><trkpt lat="43.32873879092801" lon="13.25596149041627"><ele>395.0</ele><time>2026-05-02T15:07:09Z</time></trkpt><trkpt lat="43.32872914921154" lon="13.256166318499142"><ele>393.3333333333333</ele><time>2026-05-02T15:07:10Z</time></trkpt><trkpt lat="43.32869857508755" lon="13.25640432218042"><ele>391.66666666666663</ele><time>2026-05-02T15:07:11Z</time></trkpt><trkpt lat="43.328637885085705" lon="13.256683485097321"><ele>390.0</ele><time>2026-05-02T15:07:12Z</time></trkpt><trkpt lat="43.328589168685134" lon="13.256974963072977"><ele>388.66666666666663</ele><time>2026-05-02T15:07:13Z</time></trkpt><trkpt lat="43.328549884591474" lon="13.257221414597025"><ele>387.3333333333333</ele><time>2026-05-02T15:07:14Z</time></trkpt><trkpt lat="43.32855378482196" lon="13.257476641661958"><ele>386.0</ele><time>2026-05-02T15:07:15Z</time></trkpt><trkpt lat="43.32858508369469" lon="13.257778777819336"><ele>382.5</ele><time>2026-05-02T15:07:16Z</time></trkpt><trkpt lat="43.328596608152644" lon="13.25810834180034"><ele>379.0</ele><time>2026-05-02T15:07:17Z</time></trkpt><trkpt lat="43.3286185495919" lon="13.25845727193492"><ele>378.0</ele><time>2026-05-02T15:07:18Z</time></trkpt><trkpt lat="43.328651594941185" lon="13.2587528752496"><ele>377.0</ele><time>2026-05-02T15:07:19Z</time></trkpt><trkpt lat="43.328658015992936" lon="13.258979269064453"><ele>376.0</ele><time>2026-05-02T15:07:20Z</time></trkpt><trkpt lat="43.328688005775476" lon="13.25916390913871"><ele>373.0</ele><time>2026-05-02T15:07:21Z</time></trkpt><trkpt lat="43.32874142631488" lon="13.259371153221698"><ele>370.0</ele><time>2026-05-02T15:07:22Z</time></trkpt><trkpt lat="43.32882084227846" lon="13.259627508627117"><ele>367.0</ele><time>2026-05-02T15:07:23Z</time></trkpt><trkpt lat="43.32891617292094" lon="13.259877454367325"><ele>365.3333333333333</ele><time>2026-05-02T15:07:24Z</time></trkpt><trkpt lat="43.32900082982661" lon="13.26013053484319"><ele>363.6666666666667</ele><time>2026-05-02T15:07:25Z</time></trkpt><trkpt lat="43.329058233006" lon="13.260381448409488"><ele>362.0</ele><time>2026-05-02T15:07:26Z</time></trkpt><trkpt lat="43.32913400473377" lon="13.260591171894635"><ele>361.25</ele><time>2026-05-02T15:07:27Z</time></trkpt><trkpt lat="43.32919416746883" lon="13.260786365210231"><ele>360.5</ele><time>2026-05-02T15:07:28Z</time></trkpt><trkpt lat="43.329218335569294" lon="13.260973171686663"><ele>359.75</ele><time>2026-05-02T15:07:29Z</time></trkpt><trkpt lat="43.32924044037909" lon="13.261167313067746"><ele>359.0</ele><time>2026-05-02T15:07:30Z</time></trkpt><trkpt lat="43.329269106573456" lon="13.261377456805207"><ele>357.6666666666667</ele><time>2026-05-02T15:07:31Z</time></trkpt><trkpt lat="43.32931389980484" lon="13.261566297010738"><ele>356.3333333333333</ele><time>2026-05-02T15:07:32Z</time></trkpt><trkpt lat="43.32934769949357" lon="13.261789741827803"><ele>355.0</ele><time>2026-05-02T15:07:33Z</time></trkpt><trkpt lat="43.329401122390784" lon="13.262028302379989"><ele>354.0</ele><time>2026-05-02T15:07:34Z</time></trkpt><trkpt lat="43.32946411458808" lon="13.262285420200149"><ele>353.0</ele><time>2026-05-02T15:07:35Z</time></trkpt><trkpt lat="43.329520927742216" lon="13.262547048063032"><ele>352.0</ele><time>2026-05-02T15:07:36Z</time></trkpt><trkpt lat="43.3295846248591" lon="13.262804820508828"><ele>352.0</ele><time>2026-05-02T15:07:37Z</time></trkpt><trkpt lat="43.329654196632454" lon="13.263091334563255"><ele>352.0</ele><time>2026-05-02T15:07:38Z</time></trkpt><trkpt lat="43.32971827829905" lon="13.263369285430562"><ele>352.0</ele><time>2026-05-02T15:07:39Z</time></trkpt><trkpt lat="43.32980811744864" lon="13.2636419452293"><ele>353.0</ele><time>2026-05-02T15:07:40Z</time></trkpt><trkpt lat="43.329914267030254" lon="13.263897010983278"><ele>354.0</ele><time>2026-05-02T15:07:41Z</time></trkpt><trkpt lat="43.330022821121986" lon="13.264123430602693"><ele>355.0</ele><time>2026-05-02T15:07:42Z</time></trkpt><trkpt lat="43.33011601697207" lon="13.264352781080552"><ele>351.66666666666663</ele><time>2026-05-02T15:07:43Z</time></trkpt><trkpt lat="43.3301888798488" lon="13.264609724819731"><ele>348.3333333333333</ele><time>2026-05-02T15:07:44Z</time></trkpt><trkpt lat="43.33024727442077" lon="13.26487734068376"><ele>345.0</ele><time>2026-05-02T15:07:45Z</time></trkpt><trkpt lat="43.33031728323479" lon="13.265152757258427"><ele>342.3333333333333</ele><time>2026-05-02T15:07:46Z</time></trkpt><trkpt lat="43.33037151926124" lon="13.26543882445569"><ele>339.66666666666663</ele><time>2026-05-02T15:07:47Z</time></trkpt><trkpt lat="43.33043553753925" lon="13.265741190264022"><ele>337.0</ele><time>2026-05-02T15:07:48Z</time></trkpt><trkpt lat="43.33049522673445" lon="13.2660181322291"><ele>338.0</ele><time>2026-05-02T15:07:49Z</time></trkpt><trkpt lat="43.33055015764918" lon="13.266287453465441"><ele>339.0</ele><time>2026-05-02T15:07:50Z</time></trkpt><trkpt lat="43.33061532103956" lon="13.266564308245194"><ele>340.0</ele><time>2026-05-02T15:07:51Z</time></trkpt><trkpt lat="43.330678077584516" lon="13.266845835252157"><ele>340.0</ele><time>2026-05-02T15:07:52Z</time></trkpt><trkpt lat="43.33073656208569" lon="13.267125568238448"><ele>340.0</ele><time>2026-05-02T15:07:53Z</time></trkpt><trkpt lat="43.33079091649038" lon="13.267391397781305"><ele>340.0</ele><time>2026-05-02T15:07:54Z</time></trkpt><trkpt lat="43.33084100369783" lon="13.267602447600904"><ele>339.6</ele><time>2026-05-02T15:07:55Z</time></trkpt><trkpt lat="43.33088036242877" lon="13.267750305607278"><ele>339.2</ele><time>2026-05-02T15:07:56Z</time></trkpt><trkpt lat="43.330909310465714" lon="13.26785693580132"><ele>338.79999999999995</ele><time>2026-05-02T15:07:57Z</time></trkpt><trkpt lat="43.33095221135087" lon="13.267947777321158"><ele>338.4</ele><time>2026-05-02T15:07:59Z</time></trkpt><trkpt lat="43.3310985195017" lon="13.267924288027737"><ele>338.0</ele><time>2026-05-02T15:08:02Z</time></trkpt><trkpt lat="43.3311444139999" lon="13.267842540312383"><ele>338.0</ele><time>2026-05-02T15:08:03Z</time></trkpt><trkpt lat="43.33121497593886" lon="13.267766770168258"><ele>338.0</ele><time>2026-05-02T15:08:04Z</time></trkpt><trkpt lat="43.33131172198834" lon="13.267653213179484"><ele>338.0</ele><time>2026-05-02T15:08:05Z</time></trkpt><trkpt lat="43.33146235495275" lon="13.267481964326489"><ele>338.0</ele><time>2026-05-02T15:08:06Z</time></trkpt><trkpt lat="43.331657569641834" lon="13.26724551826003"><ele>339.6666666666667</ele><time>2026-05-02T15:08:07Z</time></trkpt><trkpt lat="43.33180986561592" lon="13.267081067880431"><ele>341.3333333333333</ele><time>2026-05-02T15:08:08Z</time></trkpt><trkpt lat="43.33198614438643" lon="13.266885020372927"><ele>343.0</ele><time>2026-05-02T15:08:09Z</time></trkpt><trkpt lat="43.33209785311118" lon="13.266765020648036"><ele>343.0</ele><time>2026-05-02T15:08:10Z</time></trkpt><trkpt lat="43.33219673172175" lon="13.26664426100826"><ele>343.0</ele><time>2026-05-02T15:08:11Z</time></trkpt><trkpt lat="43.33234881891455" lon="13.266476038680999"><ele>343.0</ele><time>2026-05-02T15:08:12Z</time></trkpt><trkpt lat="43.332445441751005" lon="13.266353135365808"><ele>344.3333333333333</ele><time>2026-05-02T15:08:13Z</time></trkpt><trkpt lat="43.332539812146564" lon="13.266214840643256"><ele>345.6666666666667</ele><time>2026-05-02T15:08:14Z</time></trkpt><trkpt lat="43.33264241199867" lon="13.266037666418615"><ele>347.0</ele><time>2026-05-02T15:08:15Z</time></trkpt><trkpt lat="43.33274672050529" lon="13.265827411103244"><ele>347.0</ele><time>2026-05-02T15:08:16Z</time></trkpt><trkpt lat="43.33283360429521" lon="13.26564716905554"><ele>347.0</ele><time>2026-05-02T15:08:17Z</time></trkpt><trkpt lat="43.332900190050765" lon="13.26551810458174"><ele>347.0</ele><time>2026-05-02T15:08:18Z</time></trkpt><trkpt lat="43.33296704680237" lon="13.26538659040721"><ele>347.0</ele><time>2026-05-02T15:08:19Z</time></trkpt><trkpt lat="43.333019833081906" lon="13.265285444121616"><ele>346.6666666666667</ele><time>2026-05-02T15:08:20Z</time></trkpt><trkpt lat="43.33307329917487" lon="13.265187382920969"><ele>346.33333333333337</ele><time>2026-05-02T15:08:21Z</time></trkpt><trkpt lat="43.33313155887019" lon="13.265092175206469"><ele>346.0</ele><time>2026-05-02T15:08:22Z</time></trkpt><trkpt lat="43.33318923538237" lon="13.265001670251383"><ele>345.6666666666667</ele><time>2026-05-02T15:08:23Z</time></trkpt><trkpt lat="43.33325401088179" lon="13.264921722731236"><ele>345.3333333333333</ele><time>2026-05-02T15:08:24Z</time></trkpt><trkpt lat="43.3333204668287" lon="13.264849199342263"><ele>345.0</ele><time>2026-05-02T15:08:25Z</time></trkpt><trkpt lat="43.333395908229384" lon="13.26477852685746"><ele>345.0</ele><time>2026-05-02T15:08:26Z</time></trkpt><trkpt lat="43.33348666064805" lon="13.264704755909086"><ele>345.0</ele><time>2026-05-02T15:08:27Z</time></trkpt><trkpt lat="43.333579019724326" lon="13.264624587217485"><ele>345.0</ele><time>2026-05-02T15:08:28Z</time></trkpt><trkpt lat="43.33365708919264" lon="13.264540479200647"><ele>345.0</ele><time>2026-05-02T15:08:29Z</time></trkpt><trkpt lat="43.333725672911726" lon="13.264446098964575"><ele>345.0</ele><time>2026-05-02T15:08:30Z</time></trkpt><trkpt lat="43.33378872754945" lon="13.264327463910961"><ele>345.0</ele><time>2026-05-02T15:08:31Z</time></trkpt><trkpt lat="43.33387191850286" lon="13.264179318020448"><ele>345.0</ele><time>2026-05-02T15:08:32Z</time></trkpt><trkpt lat="43.333941927971765" lon="13.26403781109695"><ele>345.0</ele><time>2026-05-02T15:08:33Z</time></trkpt><trkpt lat="43.33402044344537" lon="13.26391809186652"><ele>345.0</ele><time>2026-05-02T15:08:34Z</time></trkpt><trkpt lat="43.334098060972465" lon="13.26380063969103"><ele>342.8</ele><time>2026-05-02T15:08:35Z</time></trkpt><trkpt lat="43.33418418652605" lon="13.263698008572721"><ele>340.6</ele><time>2026-05-02T15:08:36Z</time></trkpt><trkpt lat="43.33427107737536" lon="13.263612747990415"><ele>338.4</ele><time>2026-05-02T15:08:37Z</time></trkpt><trkpt lat="43.334352579966634" lon="13.26352523664345"><ele>336.2</ele><time>2026-05-02T15:08:38Z</time></trkpt><trkpt lat="43.334421279112505" lon="13.263426610854125"><ele>334.0</ele><time>2026-05-02T15:08:39Z</time></trkpt><trkpt lat="43.3344861821967" lon="13.263339121311933"><ele>334.0</ele><time>2026-05-02T15:08:40Z</time></trkpt><trkpt lat="43.33455143162828" lon="13.263225186399106"><ele>334.0</ele><time>2026-05-02T15:08:41Z</time></trkpt><trkpt lat="43.33461439571889" lon="13.263088230784769"><ele>334.0</ele><time>2026-05-02T15:08:42Z</time></trkpt><trkpt lat="43.33467713378946" lon="13.262940809214859"><ele>334.0</ele><time>2026-05-02T15:08:43Z</time></trkpt><trkpt lat="43.334735699398536" lon="13.262774989219505"><ele>330.75</ele><time>2026-05-02T15:08:44Z</time></trkpt><trkpt lat="43.33477945802815" lon="13.262628584743796"><ele>327.5</ele><time>2026-05-02T15:08:45Z</time></trkpt><trkpt lat="43.33484452166029" lon="13.262431234172682"><ele>324.25</ele><time>2026-05-02T15:08:46Z</time></trkpt><trkpt lat="43.334888642396095" lon="13.26224435069131"><ele>321.0</ele><time>2026-05-02T15:08:47Z</time></trkpt><trkpt lat="43.33493849836982" lon="13.262088632764021"><ele>320.0</ele><time>2026-05-02T15:08:48Z</time></trkpt><trkpt lat="43.334988002687055" lon="13.261953333243826"><ele>319.0</ele><time>2026-05-02T15:08:49Z</time></trkpt><trkpt lat="43.335014047150096" lon="13.261791342274504"><ele>318.0</ele><time>2026-05-02T15:08:50Z</time></trkpt><trkpt lat="43.3350552029334" lon="13.261632808931283"><ele>317.0</ele><time>2026-05-02T15:08:51Z</time></trkpt><trkpt lat="43.335137988678376" lon="13.26147699269444"><ele>316.75</ele><time>2026-05-02T15:08:52Z</time></trkpt><trkpt lat="43.33522151410863" lon="13.261346031544173"><ele>316.5</ele><time>2026-05-02T15:08:53Z</time></trkpt><trkpt lat="43.33532505147039" lon="13.261245501852436"><ele>316.25</ele><time>2026-05-02T15:08:54Z</time></trkpt><trkpt lat="43.335451468589966" lon="13.26116418964169"><ele>316.0</ele><time>2026-05-02T15:08:55Z</time></trkpt><trkpt lat="43.33557974299526" lon="13.261093441639698"><ele>316.0</ele><time>2026-05-02T15:08:56Z</time></trkpt><trkpt lat="43.33569153733479" lon="13.261071939800503"><ele>316.0</ele><time>2026-05-02T15:08:57Z</time></trkpt><trkpt lat="43.33580348160253" lon="13.261042697402717"><ele>316.0</ele><time>2026-05-02T15:08:58Z</time></trkpt><trkpt lat="43.33590337735675" lon="13.261015752819796"><ele>316.0</ele><time>2026-05-02T15:08:59Z</time></trkpt><trkpt lat="43.33597850618065" lon="13.260968497597215"><ele>316.0</ele><time>2026-05-02T15:09:00Z</time></trkpt><trkpt lat="43.336032018028554" lon="13.260921060986442"><ele>316.0</ele><time>2026-05-02T15:09:01Z</time></trkpt><trkpt lat="43.336073789345505" lon="13.26078914453801"><ele>316.0</ele><time>2026-05-02T15:09:03Z</time></trkpt><trkpt lat="43.3360836275936" lon="13.260691514449938"><ele>316.0</ele><time>2026-05-02T15:09:04Z</time></trkpt><trkpt lat="43.33616196847691" lon="13.260601235129174"><ele>316.0</ele><time>2026-05-02T15:09:06Z</time></trkpt><trkpt lat="43.33622391278488" lon="13.26061936165881"><ele>316.0</ele><time>2026-05-02T15:09:07Z</time></trkpt><trkpt lat="43.33630027717164" lon="13.260811766474072"><ele>316.0</ele><time>2026-05-02T15:09:09Z</time></trkpt><trkpt lat="43.336348098554865" lon="13.260907937295112"><ele>316.0</ele><time>2026-05-02T15:09:10Z</time></trkpt><trkpt lat="43.336366612332284" lon="13.261058984565313"><ele>316.0</ele><time>2026-05-02T15:09:11Z</time></trkpt><trkpt lat="43.33642227668123" lon="13.26122856907098"><ele>316.0</ele><time>2026-05-02T15:09:12Z</time></trkpt><trkpt lat="43.33646350718814" lon="13.261402138259973"><ele>313.75</ele><time>2026-05-02T15:09:13Z</time></trkpt><trkpt lat="43.33651300432337" lon="13.26153990039553"><ele>311.5</ele><time>2026-05-02T15:09:14Z</time></trkpt><trkpt lat="43.33659032635896" lon="13.261644186816229"><ele>309.25</ele><time>2026-05-02T15:09:15Z</time></trkpt><trkpt lat="43.33666847402278" lon="13.26177115702872"><ele>307.0</ele><time>2026-05-02T15:09:16Z</time></trkpt><trkpt lat="43.336754931223005" lon="13.261903409299585"><ele>307.0</ele><time>2026-05-02T15:09:17Z</time></trkpt><trkpt lat="43.33684143100464" lon="13.262057435583154"><ele>307.0</ele><time>2026-05-02T15:09:18Z</time></trkpt><trkpt lat="43.336904115646085" lon="13.262174864805127"><ele>307.0</ele><time>2026-05-02T15:09:19Z</time></trkpt><trkpt lat="43.33698007464601" lon="13.262255241679298"><ele>307.0</ele><time>2026-05-02T15:09:20Z</time></trkpt><trkpt lat="43.33705890637268" lon="13.262319040345307"><ele>307.0</ele><time>2026-05-02T15:09:21Z</time></trkpt><trkpt lat="43.33714974548383" lon="13.262336931358798"><ele>306.75</ele><time>2026-05-02T15:09:22Z</time></trkpt><trkpt lat="43.33724551624501" lon="13.262318000020553"><ele>306.5</ele><time>2026-05-02T15:09:23Z</time></trkpt><trkpt lat="43.337341164944746" lon="13.262278998945755"><ele>306.25</ele><time>2026-05-02T15:09:24Z</time></trkpt><trkpt lat="43.337469431894895" lon="13.262215943732626"><ele>306.0</ele><time>2026-05-02T15:09:25Z</time></trkpt><trkpt lat="43.337613463838075" lon="13.262152237133114"><ele>307.5</ele><time>2026-05-02T15:09:26Z</time></trkpt><trkpt lat="43.33775553339983" lon="13.262092175813768"><ele>309.0</ele><time>2026-05-02T15:09:27Z</time></trkpt><trkpt lat="43.337899292550134" lon="13.262044260507619"><ele>310.5</ele><time>2026-05-02T15:09:28Z</time></trkpt><trkpt lat="43.338012210205974" lon="13.262024900638215"><ele>312.0</ele><time>2026-05-02T15:09:29Z</time></trkpt><trkpt lat="43.33813155472421" lon="13.262020385405853"><ele>313.0</ele><time>2026-05-02T15:09:30Z</time></trkpt><trkpt lat="43.33826719434065" lon="13.262035004084533"><ele>314.0</ele><time>2026-05-02T15:09:31Z</time></trkpt><trkpt lat="43.33842679008143" lon="13.262047399544468"><ele>315.0</ele><time>2026-05-02T15:09:32Z</time></trkpt><trkpt lat="43.338574265708196" lon="13.262052526341446"><ele>316.0</ele><time>2026-05-02T15:09:33Z</time></trkpt><trkpt lat="43.338688541810065" lon="13.262058204763976"><ele>316.0</ele><time>2026-05-02T15:09:34Z</time></trkpt><trkpt lat="43.338789867595025" lon="13.262066289526901"><ele>316.0</ele><time>2026-05-02T15:09:35Z</time></trkpt><trkpt lat="43.33887967581351" lon="13.262063631625848"><ele>316.0</ele><time>2026-05-02T15:09:36Z</time></trkpt><trkpt lat="43.338961427010126" lon="13.26206798950159"><ele>316.0</ele><time>2026-05-02T15:09:37Z</time></trkpt><trkpt lat="43.33902455731338" lon="13.26207716833562"><ele>316.0</ele><time>2026-05-02T15:09:38Z</time></trkpt><trkpt lat="43.339019846668464" lon="13.261939478842889"><ele>316.0</ele><time>2026-05-02T15:13:07Z</time></trkpt><trkpt lat="43.33897102480875" lon="13.262011631699995"><ele>314.6</ele><time>2026-05-02T15:37:07Z</time></trkpt><trkpt lat="43.339031344956" lon="13.262068886868265"><ele>313.20000000000005</ele><time>2026-05-02T15:37:09Z</time></trkpt><trkpt lat="43.33914083615745" lon="13.262046617593532"><ele>311.79999999999995</ele><time>2026-05-02T15:37:11Z</time></trkpt><trkpt lat="43.33922407690472" lon="13.261913483258988"><ele>310.4</ele><time>2026-05-02T15:37:13Z</time></trkpt><trkpt lat="43.33922232043833" lon="13.261806626320963"><ele>309.0</ele><time>2026-05-02T15:37:14Z</time></trkpt><trkpt lat="43.339198484177416" lon="13.261689331313685"><ele>309.0</ele><time>2026-05-02T15:37:15Z</time></trkpt><trkpt lat="43.33917824415389" lon="13.261534565593621"><ele>309.0</ele><time>2026-05-02T15:37:16Z</time></trkpt><trkpt lat="43.33916775446855" lon="13.261346934916402"><ele>309.0</ele><time>2026-05-02T15:37:17Z</time></trkpt><trkpt lat="43.33919345699986" lon="13.261130487810947"><ele>309.0</ele><time>2026-05-02T15:37:18Z</time></trkpt><trkpt lat="43.33921588600516" lon="13.260919893802809"><ele>309.0</ele><time>2026-05-02T15:37:19Z</time></trkpt><trkpt lat="43.33922510089364" lon="13.26075208938702"><ele>309.0</ele><time>2026-05-02T15:37:20Z</time></trkpt><trkpt lat="43.3392527127851" lon="13.26061151297648"><ele>309.0</ele><time>2026-05-02T15:37:21Z</time></trkpt><trkpt lat="43.33928103515015" lon="13.260482089529043"><ele>309.0</ele><time>2026-05-02T15:37:22Z</time></trkpt><trkpt lat="43.339314710175195" lon="13.260369799867561"><ele>309.0</ele><time>2026-05-02T15:37:23Z</time></trkpt><trkpt lat="43.33935940778319" lon="13.260254466603309"><ele>308.8333333333333</ele><time>2026-05-02T15:37:24Z</time></trkpt><trkpt lat="43.339424374748106" lon="13.260161875188299"><ele>308.6666666666667</ele><time>2026-05-02T15:37:25Z</time></trkpt><trkpt lat="43.33949442437062" lon="13.260087327237844"><ele>308.5</ele><time>2026-05-02T15:37:26Z</time></trkpt><trkpt lat="43.339576028828006" lon="13.260044931410937"><ele>308.33333333333337</ele><time>2026-05-02T15:37:27Z</time></trkpt><trkpt lat="43.33966747563179" lon="13.260028362347986"><ele>308.1666666666667</ele><time>2026-05-02T15:37:28Z</time></trkpt><trkpt lat="43.339754119399586" lon="13.260046232142525"><ele>308.0</ele><time>2026-05-02T15:37:29Z</time></trkpt><trkpt lat="43.339826791197574" lon="13.260076576267382"><ele>307.0</ele><time>2026-05-02T15:37:30Z</time></trkpt><trkpt lat="43.339885993781444" lon="13.260125254645997"><ele>306.0</ele><time>2026-05-02T15:37:31Z</time></trkpt><trkpt lat="43.33993107563373" lon="13.260202354220908"><ele>305.0</ele><time>2026-05-02T15:37:32Z</time></trkpt><trkpt lat="43.33995767668745" lon="13.260317439335825"><ele>304.0</ele><time>2026-05-02T15:37:33Z</time></trkpt><trkpt lat="43.33996788561775" lon="13.26044965028312"><ele>303.0</ele><time>2026-05-02T15:37:34Z</time></trkpt><trkpt lat="43.33996276606664" lon="13.260602646207605"><ele>302.0</ele><time>2026-05-02T15:37:34.999Z</time></trkpt><trkpt lat="43.33995806437777" lon="13.260757922391296"><ele>301.0</ele><time>2026-05-02T15:37:35.999Z</time></trkpt><trkpt lat="43.33996955489157" lon="13.2609073068301"><ele>300.0</ele><time>2026-05-02T15:37:36.999Z</time></trkpt><trkpt lat="43.340010264440046" lon="13.261061791943883"><ele>299.0</ele><time>2026-05-02T15:37:37.999Z</time></trkpt><trkpt lat="43.34008028214484" lon="13.261251340918642"><ele>298.0</ele><time>2026-05-02T15:37:38.999Z</time></trkpt><trkpt lat="43.34015286028506" lon="13.261459541143662"><ele>295.66666666666663</ele><time>2026-05-02T15:37:39.999Z</time></trkpt><trkpt lat="43.340239273833454" lon="13.261696859088918"><ele>293.3333333333333</ele><time>2026-05-02T15:37:40.999Z</time></trkpt><trkpt lat="43.34032504610099" lon="13.261937256676717"><ele>291.0</ele><time>2026-05-02T15:37:41.999Z</time></trkpt><trkpt lat="43.34039389847932" lon="13.262141422978301"><ele>291.5</ele><time>2026-05-02T15:37:42.999Z</time></trkpt><trkpt lat="43.34046360893736" lon="13.262311872481332"><ele>292.0</ele><time>2026-05-02T15:37:43.999Z</time></trkpt><trkpt lat="43.34051808672957" lon="13.262467152339182"><ele>292.5</ele><time>2026-05-02T15:37:44.999Z</time></trkpt><trkpt lat="43.34057136068501" lon="13.262593542268174"><ele>293.0</ele><time>2026-05-02T15:37:45.999Z</time></trkpt><trkpt lat="43.34061857394263" lon="13.262733792725204"><ele>293.83333333333337</ele><time>2026-05-02T15:37:46.999Z</time></trkpt><trkpt lat="43.340660881448315" lon="13.262856982865667"><ele>294.6666666666667</ele><time>2026-05-02T15:37:47.999Z</time></trkpt><trkpt lat="43.34068219000721" lon="13.262941689163824"><ele>295.5</ele><time>2026-05-02T15:37:48.999Z</time></trkpt><trkpt lat="43.34068688867641" lon="13.263098819112894"><ele>296.3333333333333</ele><time>2026-05-02T15:37:50.999Z</time></trkpt><trkpt lat="43.3406619314409" lon="13.263181632723592"><ele>297.16666666666663</ele><time>2026-05-02T15:37:51.999Z</time></trkpt><trkpt lat="43.34061906116786" lon="13.263270092413848"><ele>298.0</ele><time>2026-05-02T15:37:52.999Z</time></trkpt><trkpt lat="43.3405391481741" lon="13.263399697828747"><ele>298.0</ele><time>2026-05-02T15:37:53.999Z</time></trkpt><trkpt lat="43.3404579771536" lon="13.263534761814077"><ele>298.0</ele><time>2026-05-02T15:37:54.999Z</time></trkpt><trkpt lat="43.34038087632496" lon="13.263634232564405"><ele>298.0</ele><time>2026-05-02T15:37:55.999Z</time></trkpt><trkpt lat="43.340340684982266" lon="13.263744975321293"><ele>298.0</ele><time>2026-05-02T15:37:56.999Z</time></trkpt><trkpt lat="43.34033185528094" lon="13.263859423369414"><ele>298.0</ele><time>2026-05-02T15:37:57.999Z</time></trkpt><trkpt lat="43.34031638482205" lon="13.263943486303107"><ele>297.3333333333333</ele><time>2026-05-02T15:37:58.999Z</time></trkpt><trkpt lat="43.34033909154586" lon="13.264029379751037"><ele>296.66666666666663</ele><time>2026-05-02T15:37:59.999Z</time></trkpt><trkpt lat="43.34038223919438" lon="13.26409769675784"><ele>296.0</ele><time>2026-05-02T15:38:00.999Z</time></trkpt><trkpt lat="43.34048553141049" lon="13.264103322254964"><ele>295.3333333333333</ele><time>2026-05-02T15:38:01.999Z</time></trkpt><trkpt lat="43.34058822376716" lon="13.264133264893525"><ele>294.6666666666667</ele><time>2026-05-02T15:38:02.999Z</time></trkpt><trkpt lat="43.340678757467415" lon="13.264182485560006"><ele>294.0</ele><time>2026-05-02T15:38:03.999Z</time></trkpt><trkpt lat="43.340741908720176" lon="13.264228496299896"><ele>292.59999999999997</ele><time>2026-05-02T15:38:04.999Z</time></trkpt><trkpt lat="43.340786201492634" lon="13.264321756621525"><ele>291.2</ele><time>2026-05-02T15:38:05.999Z</time></trkpt><trkpt lat="43.34080251017978" lon="13.264411393027796"><ele>289.79999999999995</ele><time>2026-05-02T15:38:06.999Z</time></trkpt><trkpt lat="43.340812495928134" lon="13.264508434274138"><ele>288.4</ele><time>2026-05-02T15:38:07.999Z</time></trkpt><trkpt lat="43.34080724103223" lon="13.264674750155931"><ele>287.0</ele><time>2026-05-02T15:38:08.999Z</time></trkpt><trkpt lat="43.34080857313628" lon="13.26483075737446"><ele>287.0</ele><time>2026-05-02T15:38:09.999Z</time></trkpt><trkpt lat="43.340818663127436" lon="13.265074787860941"><ele>287.0</ele><time>2026-05-02T15:38:10.999Z</time></trkpt><trkpt lat="43.340834491245126" lon="13.265283097926469"><ele>287.0</ele><time>2026-05-02T15:38:11.999Z</time></trkpt><trkpt lat="43.340863863047964" lon="13.265537001603974"><ele>287.4</ele><time>2026-05-02T15:38:12.999Z</time></trkpt><trkpt lat="43.34087978621444" lon="13.265710884718898"><ele>287.79999999999995</ele><time>2026-05-02T15:38:13.999Z</time></trkpt><trkpt lat="43.340913212449216" lon="13.265845190694805"><ele>288.2</ele><time>2026-05-02T15:38:14.999Z</time></trkpt><trkpt lat="43.34094865851116" lon="13.265949881975738"><ele>288.59999999999997</ele><time>2026-05-02T15:38:15.999Z</time></trkpt><trkpt lat="43.34101676224132" lon="13.266055859282611"><ele>289.0</ele><time>2026-05-02T15:38:16.999Z</time></trkpt><trkpt lat="43.341080304022704" lon="13.266151132433317"><ele>289.0</ele><time>2026-05-02T15:38:17.999Z</time></trkpt><trkpt lat="43.341116750921366" lon="13.26622204449601"><ele>289.0</ele><time>2026-05-02T15:38:18.999Z</time></trkpt><trkpt lat="43.34119543449565" lon="13.26628191322613"><ele>289.0</ele><time>2026-05-02T15:38:20.999Z</time></trkpt><trkpt lat="43.34122788911352" lon="13.266132555176041"><ele>289.0</ele><time>2026-05-02T15:38:22.999Z</time></trkpt><trkpt lat="43.34130999564246" lon="13.266000791792091"><ele>289.0</ele><time>2026-05-02T15:38:24.999Z</time></trkpt><trkpt lat="43.341348486002204" lon="13.265914198167293"><ele>290.8</ele><time>2026-05-02T15:38:25.999Z</time></trkpt><trkpt lat="43.341401745128465" lon="13.265844388289475"><ele>292.59999999999997</ele><time>2026-05-02T15:38:26.999Z</time></trkpt><trkpt lat="43.34150033748732" lon="13.265854530624562"><ele>294.4</ele><time>2026-05-02T15:38:27.999Z</time></trkpt><trkpt lat="43.341603507614124" lon="13.265816056273536"><ele>296.2</ele><time>2026-05-02T15:38:28.999Z</time></trkpt><trkpt lat="43.3417527346762" lon="13.265811728550766"><ele>298.0</ele><time>2026-05-02T15:38:29.999Z</time></trkpt><trkpt lat="43.341935703450766" lon="13.265805008803808"><ele>298.0</ele><time>2026-05-02T15:38:30.999Z</time></trkpt><trkpt lat="43.3421099453759" lon="13.26578861944211"><ele>298.0</ele><time>2026-05-02T15:38:31.999Z</time></trkpt><trkpt lat="43.34229839552805" lon="13.265787996103809"><ele>298.0</ele><time>2026-05-02T15:38:32.999Z</time></trkpt><trkpt lat="43.3424817305307" lon="13.265785423623697"><ele>299.0</ele><time>2026-05-02T15:38:33.999Z</time></trkpt><trkpt lat="43.34263394104574" lon="13.265790450691334"><ele>300.0</ele><time>2026-05-02T15:38:34.999Z</time></trkpt><trkpt lat="43.342761574073876" lon="13.265806267056623"><ele>301.0</ele><time>2026-05-02T15:38:35.999Z</time></trkpt><trkpt lat="43.34285038049433" lon="13.265846523501851"><ele>302.0</ele><time>2026-05-02T15:38:36.999Z</time></trkpt><trkpt lat="43.342938365538096" lon="13.265870778949314"><ele>302.0</ele><time>2026-05-02T15:38:37.999Z</time></trkpt><trkpt lat="43.343018159376" lon="13.265925202188853"><ele>302.0</ele><time>2026-05-02T15:38:38.999Z</time></trkpt><trkpt lat="43.34307210773182" lon="13.26601852225653"><ele>302.0</ele><time>2026-05-02T15:38:39.999Z</time></trkpt><trkpt lat="43.34314435760027" lon="13.26610768864713"><ele>302.0</ele><time>2026-05-02T15:38:40.999Z</time></trkpt><trkpt lat="43.343191133307904" lon="13.266213226668263"><ele>302.0</ele><time>2026-05-02T15:38:41.999Z</time></trkpt><trkpt lat="43.34320079852868" lon="13.266317684698494"><ele>302.0</ele><time>2026-05-02T15:38:42.999Z</time></trkpt><trkpt lat="43.34323438556349" lon="13.26642052070807"><ele>303.28571428571433</ele><time>2026-05-02T15:38:43.999Z</time></trkpt><trkpt lat="43.34323967307854" lon="13.266525707497179"><ele>304.57142857142856</ele><time>2026-05-02T15:38:44.999Z</time></trkpt><trkpt lat="43.3432780982646" lon="13.26662252364535"><ele>305.8571428571429</ele><time>2026-05-02T15:38:45.999Z</time></trkpt><trkpt lat="43.343328193575964" lon="13.266697034172584"><ele>307.14285714285717</ele><time>2026-05-02T15:38:46.999Z</time></trkpt><trkpt lat="43.34338907307386" lon="13.2667479518844"><ele>308.42857142857144</ele><time>2026-05-02T15:38:47.999Z</time></trkpt><trkpt lat="43.34345746869682" lon="13.266778658781117"><ele>309.7142857142857</ele><time>2026-05-02T15:38:49.999Z</time></trkpt><trkpt lat="43.34348412372285" lon="13.266857425068803"><ele>311.0</ele><time>2026-05-02T15:38:51.999Z</time></trkpt><trkpt lat="43.34349703428973" lon="13.266953313620014"><ele>311.0</ele><time>2026-05-02T15:38:52.999Z</time></trkpt><trkpt lat="43.34350992447728" lon="13.267118077676685"><ele>311.0</ele><time>2026-05-02T15:38:53.999Z</time></trkpt><trkpt lat="43.343523243368566" lon="13.26731430875869"><ele>311.0</ele><time>2026-05-02T15:38:54.999Z</time></trkpt><trkpt lat="43.34353482427624" lon="13.267564713331305"><ele>311.0</ele><time>2026-05-02T15:38:55.999Z</time></trkpt><trkpt lat="43.34354728512138" lon="13.267787619540304"><ele>310.6</ele><time>2026-05-02T15:38:56.999Z</time></trkpt><trkpt lat="43.34354026634815" lon="13.267921096232293"><ele>310.20000000000005</ele><time>2026-05-02T15:38:57.999Z</time></trkpt><trkpt lat="43.343554015806696" lon="13.268062039676828"><ele>309.79999999999995</ele><time>2026-05-02T15:38:58.999Z</time></trkpt><trkpt lat="43.343565988273525" lon="13.268179321445135"><ele>309.4</ele><time>2026-05-02T15:38:59.999Z</time></trkpt><trkpt lat="43.343571518982934" lon="13.2682848632253"><ele>309.0</ele><time>2026-05-02T15:39:00.999Z</time></trkpt><trkpt lat="43.34361934669959" lon="13.268407312903319"><ele>309.0</ele><time>2026-05-02T15:39:02.999Z</time></trkpt><trkpt lat="43.34367707208388" lon="13.268477420016147"><ele>309.0</ele><time>2026-05-02T15:39:03.999Z</time></trkpt><trkpt lat="43.343783022905946" lon="13.268538190272283"><ele>309.0</ele><time>2026-05-02T15:39:04.999Z</time></trkpt><trkpt lat="43.343916422528274" lon="13.268566375156844"><ele>309.0</ele><time>2026-05-02T15:39:05.999Z</time></trkpt><trkpt lat="43.344073303321835" lon="13.268627023470984"><ele>313.5</ele><time>2026-05-02T15:39:06.999Z</time></trkpt><trkpt lat="43.344288711541274" lon="13.268655399121453"><ele>318.0</ele><time>2026-05-02T15:39:07.999Z</time></trkpt><trkpt lat="43.3445797170918" lon="13.268696575893667"><ele>318.0</ele><time>2026-05-02T15:39:08.999Z</time></trkpt><trkpt lat="43.34487762634537" lon="13.268761806425228"><ele>318.0</ele><time>2026-05-02T15:39:09.999Z</time></trkpt><trkpt lat="43.34497100582453" lon="13.268782705785597"><ele>318.0</ele><time>2026-05-02T15:39:10.999Z</time></trkpt><trkpt lat="43.34518341729881" lon="13.26882109682182"><ele>318.0</ele><time>2026-05-02T15:39:11.999Z</time></trkpt><trkpt lat="43.3453739379198" lon="13.268837060286867"><ele>318.0</ele><time>2026-05-02T15:39:12.999Z</time></trkpt><trkpt lat="43.34551420139253" lon="13.268876023379898"><ele>318.0</ele><time>2026-05-02T15:39:13.999Z</time></trkpt><trkpt lat="43.34563507134045" lon="13.268910101039976"><ele>317.8</ele><time>2026-05-02T15:39:14.999Z</time></trkpt><trkpt lat="43.34572638447426" lon="13.268912679091072"><ele>317.6</ele><time>2026-05-02T15:39:15.999Z</time></trkpt><trkpt lat="43.34579770612601" lon="13.268945693109695"><ele>317.4</ele><time>2026-05-02T15:39:16.999Z</time></trkpt><trkpt lat="43.34588269281838" lon="13.268956100519397"><ele>317.2</ele><time>2026-05-02T15:39:18.999Z</time></trkpt><trkpt lat="43.34599142069754" lon="13.268825076134714"><ele>317.0</ele><time>2026-05-02T15:39:23.999Z</time></trkpt><trkpt lat="43.3460630662994" lon="13.268681004179143"><ele>317.0</ele><time>2026-05-02T15:39:24.999Z</time></trkpt><trkpt lat="43.34614435338304" lon="13.268474765592998"><ele>317.0</ele><time>2026-05-02T15:39:25.999Z</time></trkpt><trkpt lat="43.34624325917737" lon="13.26822401296775"><ele>317.0</ele><time>2026-05-02T15:39:26.999Z</time></trkpt><trkpt lat="43.34635589443957" lon="13.26795962765857"><ele>318.5</ele><time>2026-05-02T15:39:27.999Z</time></trkpt><trkpt lat="43.34648391190654" lon="13.267656110226499"><ele>320.0</ele><time>2026-05-02T15:39:28.999Z</time></trkpt><trkpt lat="43.34662017524221" lon="13.267327435649714"><ele>320.5</ele><time>2026-05-02T15:39:29.999Z</time></trkpt><trkpt lat="43.34677215573829" lon="13.266972328218559"><ele>321.0</ele><time>2026-05-02T15:39:30.999Z</time></trkpt><trkpt lat="43.346934089746526" lon="13.26660460767702"><ele>322.0</ele><time>2026-05-02T15:39:31.999Z</time></trkpt><trkpt lat="43.347095946047475" lon="13.266230578377398"><ele>323.0</ele><time>2026-05-02T15:39:32.999Z</time></trkpt><trkpt lat="43.34727243700149" lon="13.265833429088097"><ele>325.0</ele><time>2026-05-02T15:39:33.999Z</time></trkpt><trkpt lat="43.34743471016886" lon="13.265476043149665"><ele>327.0</ele><time>2026-05-02T15:39:34.999Z</time></trkpt><trkpt lat="43.34755740947732" lon="13.265175015044719"><ele>327.0</ele><time>2026-05-02T15:39:35.999Z</time></trkpt><trkpt lat="43.34767672497829" lon="13.264910291801401"><ele>327.0</ele><time>2026-05-02T15:39:36.999Z</time></trkpt><trkpt lat="43.34778056634562" lon="13.264683810408908"><ele>327.0</ele><time>2026-05-02T15:39:37.999Z</time></trkpt><trkpt lat="43.34787083282753" lon="13.26448952197653"><ele>327.75</ele><time>2026-05-02T15:39:38.999Z</time></trkpt><trkpt lat="43.347949597140904" lon="13.264315321501988"><ele>328.5</ele><time>2026-05-02T15:39:39.999Z</time></trkpt><trkpt lat="43.34801825013946" lon="13.264153737199678"><ele>329.25</ele><time>2026-05-02T15:39:40.999Z</time></trkpt><trkpt lat="43.34807838838035" lon="13.264007442820393"><ele>330.0</ele><time>2026-05-02T15:39:41.999Z</time></trkpt><trkpt lat="43.348143512155104" lon="13.263837485434863"><ele>330.6666666666667</ele><time>2026-05-02T15:39:42.999Z</time></trkpt><trkpt lat="43.34822368305988" lon="13.26363991260984"><ele>331.33333333333337</ele><time>2026-05-02T15:39:43.999Z</time></trkpt><trkpt lat="43.34832241370339" lon="13.263416143663784"><ele>332.0</ele><time>2026-05-02T15:39:44.999Z</time></trkpt><trkpt lat="43.34843219281147" lon="13.263168646691799"><ele>332.5</ele><time>2026-05-02T15:39:45.999Z</time></trkpt><trkpt lat="43.348547945243666" lon="13.26288913357071"><ele>333.0</ele><time>2026-05-02T15:39:46.999Z</time></trkpt><trkpt lat="43.348675359913535" lon="13.262594229371235"><ele>333.0</ele><time>2026-05-02T15:39:47.999Z</time></trkpt><trkpt lat="43.34878924760533" lon="13.262329097611996"><ele>333.0</ele><time>2026-05-02T15:39:48.999Z</time></trkpt><trkpt lat="43.348863701984904" lon="13.262082797824602"><ele>333.0</ele><time>2026-05-02T15:39:49.999Z</time></trkpt><trkpt lat="43.3488882134051" lon="13.26185191053636"><ele>333.75</ele><time>2026-05-02T15:39:50.999Z</time></trkpt><trkpt lat="43.34891139884861" lon="13.261649864792803"><ele>334.5</ele><time>2026-05-02T15:39:51.999Z</time></trkpt><trkpt lat="43.3489753337133" lon="13.261484795189471"><ele>335.25</ele><time>2026-05-02T15:39:52.999Z</time></trkpt><trkpt lat="43.349088383008464" lon="13.261374909769183"><ele>336.0</ele><time>2026-05-02T15:39:53.999Z</time></trkpt><trkpt lat="43.34922122125942" lon="13.26123534765447"><ele>338.0</ele><time>2026-05-02T15:39:54.999Z</time></trkpt><trkpt lat="43.34933741183948" lon="13.26105960877316"><ele>340.0</ele><time>2026-05-02T15:39:55.999Z</time></trkpt><trkpt lat="43.34943173520306" lon="13.260793730762032"><ele>342.0</ele><time>2026-05-02T15:39:56.999Z</time></trkpt><trkpt lat="43.34955685972404" lon="13.260525728931386"><ele>343.5</ele><time>2026-05-02T15:39:57.999Z</time></trkpt><trkpt lat="43.349707041543" lon="13.260218292051473"><ele>345.0</ele><time>2026-05-02T15:39:58.999Z</time></trkpt><trkpt lat="43.34983849935944" lon="13.25990260997793"><ele>349.0</ele><time>2026-05-02T15:39:59.999Z</time></trkpt><trkpt lat="43.34999372675978" lon="13.259558599077181"><ele>353.0</ele><time>2026-05-02T15:40:00.999Z</time></trkpt><trkpt lat="43.350140072036965" lon="13.25921338289688"><ele>353.5</ele><time>2026-05-02T15:40:01.999Z</time></trkpt><trkpt lat="43.350291055919534" lon="13.2588470153555"><ele>354.0</ele><time>2026-05-02T15:40:02.999Z</time></trkpt><trkpt lat="43.35045306271226" lon="13.258475792692275"><ele>357.5</ele><time>2026-05-02T15:40:03.999Z</time></trkpt><trkpt lat="43.35059995333522" lon="13.258145442831019"><ele>361.0</ele><time>2026-05-02T15:40:04.999Z</time></trkpt><trkpt lat="43.3507160980957" lon="13.257887323116035"><ele>361.75</ele><time>2026-05-02T15:40:05.999Z</time></trkpt><trkpt lat="43.35081123163516" lon="13.257663339000892"><ele>362.5</ele><time>2026-05-02T15:40:06.999Z</time></trkpt><trkpt lat="43.35088083515073" lon="13.257509931452457"><ele>363.25</ele><time>2026-05-02T15:40:07.999Z</time></trkpt><trkpt lat="43.350933418204775" lon="13.257369419041169"><ele>364.0</ele><time>2026-05-02T15:40:08.999Z</time></trkpt><trkpt lat="43.35099874202206" lon="13.257243590506643"><ele>364.3333333333333</ele><time>2026-05-02T15:40:09.999Z</time></trkpt><trkpt lat="43.35107882836612" lon="13.257063468480908"><ele>364.6666666666667</ele><time>2026-05-02T15:40:10.999Z</time></trkpt><trkpt lat="43.35117071040929" lon="13.256842446380375"><ele>365.0</ele><time>2026-05-02T15:40:11.999Z</time></trkpt><trkpt lat="43.35124785229295" lon="13.256573002897689"><ele>365.5</ele><time>2026-05-02T15:40:12.999Z</time></trkpt><trkpt lat="43.351288746550324" lon="13.256269086838097"><ele>366.0</ele><time>2026-05-02T15:40:13.999Z</time></trkpt><trkpt lat="43.35130504648098" lon="13.255903786600879"><ele>367.5</ele><time>2026-05-02T15:40:14.999Z</time></trkpt><trkpt lat="43.351313382400946" lon="13.255510535940045"><ele>369.0</ele><time>2026-05-02T15:40:15.999Z</time></trkpt><trkpt lat="43.351330973200376" lon="13.255096138508536"><ele>371.0</ele><time>2026-05-02T15:40:16.999Z</time></trkpt><trkpt lat="43.35134879797574" lon="13.25467051838596"><ele>373.0</ele><time>2026-05-02T15:40:17.999Z</time></trkpt><trkpt lat="43.351359927540365" lon="13.254232454255003"><ele>373.0</ele><time>2026-05-02T15:40:18.999Z</time></trkpt><trkpt lat="43.351393467671755" lon="13.253772665491066"><ele>373.0</ele><time>2026-05-02T15:40:19.999Z</time></trkpt><trkpt lat="43.3514243823172" lon="13.25332602391729"><ele>376.5</ele><time>2026-05-02T15:40:20.999Z</time></trkpt><trkpt lat="43.35146732866901" lon="13.252853134889747"><ele>380.0</ele><time>2026-05-02T15:40:21.999Z</time></trkpt><trkpt lat="43.351496702472716" lon="13.252410288215804"><ele>383.5</ele><time>2026-05-02T15:40:22.999Z</time></trkpt><trkpt lat="43.35152905650336" lon="13.25199803476253"><ele>387.0</ele><time>2026-05-02T15:40:23.999Z</time></trkpt><trkpt lat="43.35154804947471" lon="13.25165087581209"><ele>389.33333333333337</ele><time>2026-05-02T15:40:24.999Z</time></trkpt><trkpt lat="43.35156672120282" lon="13.251352333272425"><ele>391.6666666666667</ele><time>2026-05-02T15:40:25.999Z</time></trkpt><trkpt lat="43.3515715273895" lon="13.251094930474457"><ele>394.0</ele><time>2026-05-02T15:40:26.999Z</time></trkpt><trkpt lat="43.35154860763029" lon="13.250853806377387"><ele>394.0</ele><time>2026-05-02T15:40:27.999Z</time></trkpt><trkpt lat="43.351483960693855" lon="13.250606380907543"><ele>394.0</ele><time>2026-05-02T15:40:28.999Z</time></trkpt><trkpt lat="43.351377363099715" lon="13.250324824752642"><ele>394.0</ele><time>2026-05-02T15:40:29.999Z</time></trkpt><trkpt lat="43.351250686188415" lon="13.250028757721488"><ele>402.5</ele><time>2026-05-02T15:40:30.999Z</time></trkpt><trkpt lat="43.351127671973046" lon="13.249709084468126"><ele>411.0</ele><time>2026-05-02T15:40:31.999Z</time></trkpt><trkpt lat="43.35100806343087" lon="13.249386204592534"><ele>411.0</ele><time>2026-05-02T15:40:32.999Z</time></trkpt><trkpt lat="43.3508802956731" lon="13.249095218783857"><ele>411.0</ele><time>2026-05-02T15:40:33.999Z</time></trkpt><trkpt lat="43.35075507294061" lon="13.248708141413363"><ele>415.0</ele><time>2026-05-02T15:40:34.999Z</time></trkpt><trkpt lat="43.35061994417123" lon="13.248339893672423"><ele>419.0</ele><time>2026-05-02T15:40:35.999Z</time></trkpt><trkpt lat="43.350518408371386" lon="13.248023303862805"><ele>422.0</ele><time>2026-05-02T15:40:36.999Z</time></trkpt><trkpt lat="43.350469937778975" lon="13.247754623296357"><ele>425.0</ele><time>2026-05-02T15:40:37.999Z</time></trkpt><trkpt lat="43.35046304557465" lon="13.247463455434021"><ele>428.0</ele><time>2026-05-02T15:40:38.999Z</time></trkpt><trkpt lat="43.3504738999279" lon="13.24712618909989"><ele>432.5</ele><time>2026-05-02T15:40:39.999Z</time></trkpt><trkpt lat="43.350468475120444" lon="13.246779170321146"><ele>437.0</ele><time>2026-05-02T15:40:40.999Z</time></trkpt><trkpt lat="43.35046465656421" lon="13.24641871354475"><ele>442.5</ele><time>2026-05-02T15:40:41.999Z</time></trkpt><trkpt lat="43.3504572126481" lon="13.246048939516724"><ele>448.0</ele><time>2026-05-02T15:40:42.999Z</time></trkpt><trkpt lat="43.350450111918825" lon="13.245674280638777"><ele>452.0</ele><time>2026-05-02T15:40:43.999Z</time></trkpt><trkpt lat="43.35044424472715" lon="13.245324335751627"><ele>456.0</ele><time>2026-05-02T15:40:44.999Z</time></trkpt><trkpt lat="43.35044993758881" lon="13.245016660560934"><ele>456.0</ele><time>2026-05-02T15:40:45.999Z</time></trkpt><trkpt lat="43.350454126070744" lon="13.244684918405937"><ele>456.0</ele><time>2026-05-02T15:40:46.999Z</time></trkpt><trkpt lat="43.35049274157002" lon="13.244338403924969"><ele>456.0</ele><time>2026-05-02T15:40:47.999Z</time></trkpt><trkpt lat="43.35052237680833" lon="13.2439835261226"><ele>456.0</ele><time>2026-05-02T15:40:48.999Z</time></trkpt><trkpt lat="43.35054892403852" lon="13.243702182126729"><ele>455.66666666666663</ele><time>2026-05-02T15:40:49.999Z</time></trkpt><trkpt lat="43.35058218585996" lon="13.243443886612377"><ele>455.3333333333333</ele><time>2026-05-02T15:40:50.999Z</time></trkpt><trkpt lat="43.35062269302763" lon="13.243197644119794"><ele>455.0</ele><time>2026-05-02T15:40:51.999Z</time></trkpt><trkpt lat="43.35071074984413" lon="13.242933680843837"><ele>456.0</ele><time>2026-05-02T15:40:52.999Z</time></trkpt><trkpt lat="43.35083457774124" lon="13.242648355656137"><ele>457.0</ele><time>2026-05-02T15:40:53.999Z</time></trkpt><trkpt lat="43.35095460568165" lon="13.242340727900267"><ele>459.5</ele><time>2026-05-02T15:40:54.999Z</time></trkpt><trkpt lat="43.35107551626438" lon="13.242006614568979"><ele>462.0</ele><time>2026-05-02T15:40:55.999Z</time></trkpt><trkpt lat="43.351178511364296" lon="13.241664318870521"><ele>478.0</ele><time>2026-05-02T15:40:56.999Z</time></trkpt><trkpt lat="43.35126714792721" lon="13.24135762643348"><ele>494.0</ele><time>2026-05-02T15:40:57.999Z</time></trkpt><trkpt lat="43.35136892025224" lon="13.241100056179514"><ele>494.0</ele><time>2026-05-02T15:40:58.999Z</time></trkpt><trkpt lat="43.351510733007395" lon="13.240874273912654"><ele>494.0</ele><time>2026-05-02T15:40:59.999Z</time></trkpt><trkpt lat="43.35166767056724" lon="13.240685983438969"><ele>494.0</ele><time>2026-05-02T15:41:00.999Z</time></trkpt><trkpt lat="43.351834282702264" lon="13.240457814060758"><ele>494.0</ele><time>2026-05-02T15:41:01.999Z</time></trkpt><trkpt lat="43.35198140307837" lon="13.240175148407205"><ele>494.0</ele><time>2026-05-02T15:41:02.999Z</time></trkpt><trkpt lat="43.35217058765951" lon="13.239897733679497"><ele>495.0</ele><time>2026-05-02T15:41:03.999Z</time></trkpt><trkpt lat="43.35237090892475" lon="13.239721571013604"><ele>496.0</ele><time>2026-05-02T15:41:04.999Z</time></trkpt><trkpt lat="43.352565753607145" lon="13.239560878836897"><ele>496.0</ele><time>2026-05-02T15:41:05.999Z</time></trkpt><trkpt lat="43.35273859913611" lon="13.239443502304042"><ele>496.0</ele><time>2026-05-02T15:41:06.999Z</time></trkpt><trkpt lat="43.35293338136607" lon="13.239417182563379"><ele>496.0</ele><time>2026-05-02T15:41:07.999Z</time></trkpt><trkpt lat="43.35307380691984" lon="13.23936655471809"><ele>491.5</ele><time>2026-05-02T15:41:08.999Z</time></trkpt><trkpt lat="43.35321625557464" lon="13.239355437134838"><ele>487.0</ele><time>2026-05-02T15:41:09.999Z</time></trkpt><trkpt lat="43.353331596306994" lon="13.239376325522274"><ele>482.5</ele><time>2026-05-02T15:41:10.999Z</time></trkpt><trkpt lat="43.35341948336859" lon="13.239470478505247"><ele>478.0</ele><time>2026-05-02T15:41:11.999Z</time></trkpt><trkpt lat="43.353470207238644" lon="13.239627014163965"><ele>476.6666666666667</ele><time>2026-05-02T15:41:12.999Z</time></trkpt><trkpt lat="43.35344845506034" lon="13.239817421209546"><ele>475.33333333333337</ele><time>2026-05-02T15:41:13.999Z</time></trkpt><trkpt lat="43.35338731262438" lon="13.240018860560955"><ele>474.0</ele><time>2026-05-02T15:41:14.999Z</time></trkpt><trkpt lat="43.353300018025415" lon="13.240250858877317"><ele>474.0</ele><time>2026-05-02T15:41:15.999Z</time></trkpt><trkpt lat="43.35317161271841" lon="13.240497797524148"><ele>474.0</ele><time>2026-05-02T15:41:16.999Z</time></trkpt><trkpt lat="43.35304333258001" lon="13.240785055592388"><ele>471.25</ele><time>2026-05-02T15:41:17.999Z</time></trkpt><trkpt lat="43.35294531965178" lon="13.241025568130695"><ele>468.5</ele><time>2026-05-02T15:41:18.999Z</time></trkpt><trkpt lat="43.35288261712183" lon="13.241182287666089"><ele>465.75</ele><time>2026-05-02T15:41:19.999Z</time></trkpt><trkpt lat="43.352846944782904" lon="13.241287732145185"><ele>463.0</ele><time>2026-05-02T15:41:20.999Z</time></trkpt><trkpt lat="43.35285009768232" lon="13.241374478833453"><ele>463.0</ele><time>2026-05-02T15:41:21.999Z</time></trkpt><trkpt lat="43.35290102399187" lon="13.241446946983807"><ele>462.99999999999994</ele><time>2026-05-02T15:41:22.999Z</time></trkpt><trkpt lat="43.352958849444" lon="13.241521527614504"><ele>462.99999999999994</ele><time>2026-05-02T15:41:23.999Z</time></trkpt><trkpt lat="43.35307592308173" lon="13.241426542731917"><ele>463.0</ele><time>2026-05-02T15:41:24.999Z</time></trkpt><trkpt lat="43.35315449883218" lon="13.241289505748918"><ele>463.0</ele><time>2026-05-02T15:41:25.999Z</time></trkpt><trkpt lat="43.353232287381736" lon="13.241071951266813"><ele>466.6666666666667</ele><time>2026-05-02T15:41:26.999Z</time></trkpt><trkpt lat="43.35333406776875" lon="13.240809448150314"><ele>470.33333333333337</ele><time>2026-05-02T15:41:27.999Z</time></trkpt><trkpt lat="43.3534810569843" lon="13.240571080591433"><ele>474.0</ele><time>2026-05-02T15:41:28.999Z</time></trkpt><trkpt lat="43.353661166174454" lon="13.240374946755352"><ele>483.0</ele><time>2026-05-02T15:41:29.999Z</time></trkpt><trkpt lat="43.353875272972644" lon="13.24022983094928"><ele>492.0</ele><time>2026-05-02T15:41:30.999Z</time></trkpt><trkpt lat="43.35411803855813" lon="13.240108136403652"><ele>492.0</ele><time>2026-05-02T15:41:31.999Z</time></trkpt><trkpt lat="43.35436304180664" lon="13.239969644517284"><ele>492.0</ele><time>2026-05-02T15:41:32.999Z</time></trkpt><trkpt lat="43.35461787895285" lon="13.239802492023053"><ele>498.0</ele><time>2026-05-02T15:41:33.999Z</time></trkpt><trkpt lat="43.35487226199568" lon="13.239612788937457"><ele>504.0</ele><time>2026-05-02T15:41:34.999Z</time></trkpt><trkpt lat="43.3551192213272" lon="13.239458217487902"><ele>504.0</ele><time>2026-05-02T15:41:35.999Z</time></trkpt><trkpt lat="43.355299364835105" lon="13.239319173479476"><ele>504.0</ele><time>2026-05-02T15:41:36.999Z</time></trkpt><trkpt lat="43.35543457315576" lon="13.23922403207582"><ele>504.0</ele><time>2026-05-02T15:41:37.999Z</time></trkpt><trkpt lat="43.35551235124096" lon="13.239188037854793"><ele>504.0</ele><time>2026-05-02T15:41:38.999Z</time></trkpt><trkpt lat="43.35560994266621" lon="13.23921004550531"><ele>504.0</ele><time>2026-05-02T15:41:40.999Z</time></trkpt><trkpt lat="43.35555185289371" lon="13.239417443401827"><ele>504.0</ele><time>2026-05-02T15:41:42.999Z</time></trkpt><trkpt lat="43.355476013128445" lon="13.239529098570683"><ele>504.0</ele><time>2026-05-02T15:41:43.999Z</time></trkpt><trkpt lat="43.35537759903672" lon="13.239720616632363"><ele>504.0</ele><time>2026-05-02T15:41:44.999Z</time></trkpt><trkpt lat="43.35529268696093" lon="13.23992066428545"><ele>505.79999999999995</ele><time>2026-05-02T15:41:45.999Z</time></trkpt><trkpt lat="43.35522912634183" lon="13.240055672980938"><ele>507.59999999999997</ele><time>2026-05-02T15:41:46.999Z</time></trkpt><trkpt lat="43.35520209978108" lon="13.240150626064777"><ele>509.4</ele><time>2026-05-02T15:41:47.999Z</time></trkpt><trkpt lat="43.355218751289016" lon="13.240280979202618"><ele>511.2</ele><time>2026-05-02T15:41:48.999Z</time></trkpt><trkpt lat="43.355295768072494" lon="13.240408740204664"><ele>513.0</ele><time>2026-05-02T15:41:49.999Z</time></trkpt><trkpt lat="43.35536726109416" lon="13.240592402706133"><ele>515.75</ele><time>2026-05-02T15:41:50.999Z</time></trkpt><trkpt lat="43.35546421750011" lon="13.2407917496579"><ele>518.5</ele><time>2026-05-02T15:41:51.999Z</time></trkpt><trkpt lat="43.35553278785844" lon="13.24095282023618"><ele>521.25</ele><time>2026-05-02T15:41:52.999Z</time></trkpt><trkpt lat="43.35559417387761" lon="13.241078797006972"><ele>524.0</ele><time>2026-05-02T15:41:53.999Z</time></trkpt><trkpt lat="43.35566775016374" lon="13.241131041454935"><ele>524.5</ele><time>2026-05-02T15:41:54.999Z</time></trkpt><trkpt lat="43.355799825013314" lon="13.241109921734141"><ele>525.0</ele><time>2026-05-02T15:41:56.999Z</time></trkpt><trkpt lat="43.35590299804425" lon="13.24103008990306"><ele>525.5</ele><time>2026-05-02T15:41:57.999Z</time></trkpt><trkpt lat="43.356014043861556" lon="13.240922688336878"><ele>526.0</ele><time>2026-05-02T15:41:58.999Z</time></trkpt><trkpt lat="43.35613753285155" lon="13.240779065913976"><ele>526.6666666666667</ele><time>2026-05-02T15:41:59.999Z</time></trkpt><trkpt lat="43.35628705759269" lon="13.240619756266371"><ele>527.3333333333334</ele><time>2026-05-02T15:42:00.999Z</time></trkpt><trkpt lat="43.35643668276513" lon="13.240464031213415"><ele>528.0</ele><time>2026-05-02T15:42:01.999Z</time></trkpt><trkpt lat="43.356580682867154" lon="13.240302691835085"><ele>528.0</ele><time>2026-05-02T15:42:02.999Z</time></trkpt><trkpt lat="43.3566993511937" lon="13.240170311834554"><ele>528.0</ele><time>2026-05-02T15:42:03.999Z</time></trkpt><trkpt lat="43.35681010906335" lon="13.240053406429215"><ele>528.0</ele><time>2026-05-02T15:42:04.999Z</time></trkpt><trkpt lat="43.35691023795119" lon="13.239950262383546"><ele>528.0</ele><time>2026-05-02T15:42:05.999Z</time></trkpt><trkpt lat="43.3569908621069" lon="13.2398592653578"><ele>528.6</ele><time>2026-05-02T15:42:06.999Z</time></trkpt><trkpt lat="43.35711685487591" lon="13.239693042034355"><ele>529.1999999999999</ele><time>2026-05-02T15:42:08.999Z</time></trkpt><trkpt lat="43.35716836333684" lon="13.23958438220103"><ele>529.8</ele><time>2026-05-02T15:42:09.999Z</time></trkpt><trkpt lat="43.357255060209695" lon="13.239528834158875"><ele>530.4</ele><time>2026-05-02T15:42:10.999Z</time></trkpt><trkpt lat="43.3573049883737" lon="13.239455528947744"><ele>531.0</ele><time>2026-05-02T15:42:11.999Z</time></trkpt><trkpt lat="43.357391930723985" lon="13.239354549998536"><ele>541.0</ele><time>2026-05-02T15:42:13.999Z</time></trkpt><trkpt lat="43.357448394106136" lon="13.239303022721561"><ele>541.0</ele><time>2026-05-02T15:42:14.999Z</time></trkpt><trkpt lat="43.357514223158766" lon="13.239260224336148"><ele>541.0</ele><time>2026-05-02T15:42:15.999Z</time></trkpt><trkpt lat="43.357594707728225" lon="13.239187301591755"><ele>541.0</ele><time>2026-05-02T15:42:17.999Z</time></trkpt><trkpt lat="43.3576609145149" lon="13.239166314903702"><ele>541.0</ele><time>2026-05-02T15:42:20.999Z</time></trkpt></trkseg></trk></gpx>